<?xml version="1.0" encoding="UTF-8"?>
<gpx version="1.1" creator="https://www.www-youtrack-es.amenigma.com" xsi:schemaLocation="http://www.topografix.com/GPX/1/1 http://www.topografix.com/GPX/1/1/gpx.xsd http://www.garmin.com/xmlschemas/GpxExtensions/v3 http://www.garmin.com/xmlschemas/GpxExtensionsv3.xsd http://www.garmin.com/xmlschemas/TrackPointExtension/v1 http://www.garmin.com/xmlschemas/TrackPointExtensionv1.xsd" xmlns:gpxtpx="http://www.garmin.com/xmlschemas/TrackPointExtension/v1" xmlns:gpxx="http://www.garmin.com/xmlschemas/GpxExtensions/v3" xmlns:xsi="http://www.w3.org/2001/XMLSchema-instance">
  <metadata>
    <link href="https://www.www-youtrack-es.amenigma.com">
      <text>YouTrack.es</text>
    </link>
    <time>2026-09-01T10:01:52Z</time>
  </metadata>
  <trk>
    <src>https://www.www-youtrack-es.amenigma.com</src>
    <link href="https://www.www-youtrack-es.amenigma.com/ruta/15878-vuelta-pantano">
      <text>YouTrack.es</text>
    </link>
    <trkseg>
      <trkpt lat="42.9059010" lon="-2.5666700">
        <ele>516.2</ele>
        <time>2020-09-13T09:51:48Z</time>
      </trkpt>
      <trkpt lat="42.9059010" lon="-2.5666700">
        <ele>516.2</ele>
        <time>2020-09-13T09:51:52Z</time>
      </trkpt>
      <trkpt lat="42.9059010" lon="-2.5666700">
        <ele>516.4</ele>
        <time>2020-09-13T09:51:56Z</time>
      </trkpt>
      <trkpt lat="42.9058110" lon="-2.5665930">
        <ele>516.0</ele>
        <time>2020-09-13T09:52:00Z</time>
      </trkpt>
      <trkpt lat="42.9057410" lon="-2.5664950">
        <ele>517.0</ele>
        <time>2020-09-13T09:52:04Z</time>
      </trkpt>
      <trkpt lat="42.9056510" lon="-2.5663750">
        <ele>516.2</ele>
        <time>2020-09-13T09:52:08Z</time>
      </trkpt>
      <trkpt lat="42.9055700" lon="-2.5662310">
        <ele>517.4</ele>
        <time>2020-09-13T09:52:12Z</time>
      </trkpt>
      <trkpt lat="42.9055000" lon="-2.5660880">
        <ele>516.8</ele>
        <time>2020-09-13T09:52:16Z</time>
      </trkpt>
      <trkpt lat="42.9054450" lon="-2.5659460">
        <ele>517.4</ele>
        <time>2020-09-13T09:52:20Z</time>
      </trkpt>
      <trkpt lat="42.9053910" lon="-2.5658050">
        <ele>517.2</ele>
        <time>2020-09-13T09:52:24Z</time>
      </trkpt>
      <trkpt lat="42.9053330" lon="-2.5656410">
        <ele>515.8</ele>
        <time>2020-09-13T09:52:28Z</time>
      </trkpt>
      <trkpt lat="42.9052850" lon="-2.5655030">
        <ele>516.8</ele>
        <time>2020-09-13T09:52:32Z</time>
      </trkpt>
      <trkpt lat="42.9052380" lon="-2.5653450">
        <ele>516.4</ele>
        <time>2020-09-13T09:52:36Z</time>
      </trkpt>
      <trkpt lat="42.9052180" lon="-2.5651650">
        <ele>516.6</ele>
        <time>2020-09-13T09:52:40Z</time>
      </trkpt>
      <trkpt lat="42.9052050" lon="-2.5650130">
        <ele>516.8</ele>
        <time>2020-09-13T09:52:44Z</time>
      </trkpt>
      <trkpt lat="42.9052100" lon="-2.5648580">
        <ele>516.4</ele>
        <time>2020-09-13T09:52:48Z</time>
      </trkpt>
      <trkpt lat="42.9052300" lon="-2.5647100">
        <ele>516.4</ele>
        <time>2020-09-13T09:52:52Z</time>
      </trkpt>
      <trkpt lat="42.9052500" lon="-2.5645750">
        <ele>516.4</ele>
        <time>2020-09-13T09:52:56Z</time>
      </trkpt>
      <trkpt lat="42.9052600" lon="-2.5644500">
        <ele>516.0</ele>
        <time>2020-09-13T09:53:00Z</time>
      </trkpt>
      <trkpt lat="42.9052600" lon="-2.5644500">
        <ele>516.4</ele>
        <time>2020-09-13T09:53:04Z</time>
      </trkpt>
      <trkpt lat="42.9052600" lon="-2.5644500">
        <ele>516.2</ele>
        <time>2020-09-13T09:53:08Z</time>
      </trkpt>
      <trkpt lat="42.9052600" lon="-2.5644500">
        <ele>516.2</ele>
        <time>2020-09-13T09:53:12Z</time>
      </trkpt>
      <trkpt lat="42.9052600" lon="-2.5644500">
        <ele>516.4</ele>
        <time>2020-09-13T09:53:16Z</time>
      </trkpt>
      <trkpt lat="42.9052600" lon="-2.5644500">
        <ele>516.4</ele>
        <time>2020-09-13T09:53:20Z</time>
      </trkpt>
      <trkpt lat="42.9052600" lon="-2.5644500">
        <ele>516.4</ele>
        <time>2020-09-13T09:53:24Z</time>
      </trkpt>
      <trkpt lat="42.9052600" lon="-2.5644500">
        <ele>516.2</ele>
        <time>2020-09-13T09:53:28Z</time>
      </trkpt>
      <trkpt lat="42.9052600" lon="-2.5644500">
        <ele>516.0</ele>
        <time>2020-09-13T09:53:32Z</time>
      </trkpt>
      <trkpt lat="42.9052600" lon="-2.5644500">
        <ele>516.2</ele>
        <time>2020-09-13T09:53:36Z</time>
      </trkpt>
      <trkpt lat="42.9052600" lon="-2.5644500">
        <ele>515.8</ele>
        <time>2020-09-13T09:53:40Z</time>
      </trkpt>
      <trkpt lat="42.9052600" lon="-2.5644500">
        <ele>515.8</ele>
        <time>2020-09-13T09:53:46Z</time>
      </trkpt>
      <trkpt lat="42.9052600" lon="-2.5644500">
        <ele>516.0</ele>
        <time>2020-09-13T09:53:50Z</time>
      </trkpt>
      <trkpt lat="42.9052600" lon="-2.5644500">
        <ele>516.4</ele>
        <time>2020-09-13T09:53:54Z</time>
      </trkpt>
      <trkpt lat="42.9052600" lon="-2.5644500">
        <ele>516.0</ele>
        <time>2020-09-13T09:53:58Z</time>
      </trkpt>
      <trkpt lat="42.9052600" lon="-2.5644500">
        <ele>515.8</ele>
        <time>2020-09-13T09:54:02Z</time>
      </trkpt>
      <trkpt lat="42.9052600" lon="-2.5644500">
        <ele>515.8</ele>
        <time>2020-09-13T09:54:06Z</time>
      </trkpt>
      <trkpt lat="42.9052600" lon="-2.5644500">
        <ele>516.0</ele>
        <time>2020-09-13T09:54:10Z</time>
      </trkpt>
      <trkpt lat="42.9052600" lon="-2.5644500">
        <ele>516.2</ele>
        <time>2020-09-13T09:54:14Z</time>
      </trkpt>
      <trkpt lat="42.9052600" lon="-2.5644500">
        <ele>516.4</ele>
        <time>2020-09-13T09:54:18Z</time>
      </trkpt>
      <trkpt lat="42.9052600" lon="-2.5644500">
        <ele>516.2</ele>
        <time>2020-09-13T09:54:22Z</time>
      </trkpt>
      <trkpt lat="42.9052600" lon="-2.5644500">
        <ele>516.0</ele>
        <time>2020-09-13T09:54:26Z</time>
      </trkpt>
      <trkpt lat="42.9052600" lon="-2.5644500">
        <ele>515.8</ele>
        <time>2020-09-13T09:54:30Z</time>
      </trkpt>
      <trkpt lat="42.9052600" lon="-2.5644500">
        <ele>515.6</ele>
        <time>2020-09-13T09:54:34Z</time>
      </trkpt>
      <trkpt lat="42.9052600" lon="-2.5644500">
        <ele>515.6</ele>
        <time>2020-09-13T09:54:38Z</time>
      </trkpt>
      <trkpt lat="42.9052600" lon="-2.5644500">
        <ele>515.8</ele>
        <time>2020-09-13T09:54:42Z</time>
      </trkpt>
      <trkpt lat="42.9052600" lon="-2.5644500">
        <ele>515.8</ele>
        <time>2020-09-13T09:54:46Z</time>
      </trkpt>
      <trkpt lat="42.9052600" lon="-2.5644500">
        <ele>515.8</ele>
        <time>2020-09-13T09:54:50Z</time>
      </trkpt>
      <trkpt lat="42.9052600" lon="-2.5644500">
        <ele>515.8</ele>
        <time>2020-09-13T09:54:54Z</time>
      </trkpt>
      <trkpt lat="42.9052600" lon="-2.5644500">
        <ele>516.4</ele>
        <time>2020-09-13T09:54:58Z</time>
      </trkpt>
      <trkpt lat="42.9052600" lon="-2.5644500">
        <ele>515.6</ele>
        <time>2020-09-13T09:55:02Z</time>
      </trkpt>
      <trkpt lat="42.9052600" lon="-2.5644500">
        <ele>516.0</ele>
        <time>2020-09-13T09:55:06Z</time>
      </trkpt>
      <trkpt lat="42.9052600" lon="-2.5644500">
        <ele>515.4</ele>
        <time>2020-09-13T09:55:10Z</time>
      </trkpt>
      <trkpt lat="42.9052600" lon="-2.5644500">
        <ele>515.8</ele>
        <time>2020-09-13T09:55:14Z</time>
      </trkpt>
      <trkpt lat="42.9052600" lon="-2.5644500">
        <ele>516.0</ele>
        <time>2020-09-13T09:55:18Z</time>
      </trkpt>
      <trkpt lat="42.9052660" lon="-2.5643760">
        <ele>516.0</ele>
        <time>2020-09-13T09:55:22Z</time>
      </trkpt>
      <trkpt lat="42.9052700" lon="-2.5643260">
        <ele>515.8</ele>
        <time>2020-09-13T09:55:26Z</time>
      </trkpt>
      <trkpt lat="42.9052780" lon="-2.5642260">
        <ele>516.2</ele>
        <time>2020-09-13T09:55:30Z</time>
      </trkpt>
      <trkpt lat="42.9052800" lon="-2.5641000">
        <ele>516.0</ele>
        <time>2020-09-13T09:55:34Z</time>
      </trkpt>
      <trkpt lat="42.9052760" lon="-2.5639580">
        <ele>516.6</ele>
        <time>2020-09-13T09:55:38Z</time>
      </trkpt>
      <trkpt lat="42.9052550" lon="-2.5638160">
        <ele>516.4</ele>
        <time>2020-09-13T09:55:42Z</time>
      </trkpt>
      <trkpt lat="42.9052150" lon="-2.5636880">
        <ele>516.8</ele>
        <time>2020-09-13T09:55:46Z</time>
      </trkpt>
      <trkpt lat="42.9051730" lon="-2.5635600">
        <ele>516.8</ele>
        <time>2020-09-13T09:55:50Z</time>
      </trkpt>
      <trkpt lat="42.9051510" lon="-2.5634150">
        <ele>517.0</ele>
        <time>2020-09-13T09:55:54Z</time>
      </trkpt>
      <trkpt lat="42.9051360" lon="-2.5632800">
        <ele>517.0</ele>
        <time>2020-09-13T09:55:58Z</time>
      </trkpt>
      <trkpt lat="42.9051250" lon="-2.5631710">
        <ele>517.2</ele>
        <time>2020-09-13T09:56:02Z</time>
      </trkpt>
      <trkpt lat="42.9050760" lon="-2.5630580">
        <ele>516.8</ele>
        <time>2020-09-13T09:56:06Z</time>
      </trkpt>
      <trkpt lat="42.9049830" lon="-2.5629360">
        <ele>517.0</ele>
        <time>2020-09-13T09:56:10Z</time>
      </trkpt>
      <trkpt lat="42.9048880" lon="-2.5627950">
        <ele>517.0</ele>
        <time>2020-09-13T09:56:14Z</time>
      </trkpt>
      <trkpt lat="42.9048060" lon="-2.5626660">
        <ele>516.8</ele>
        <time>2020-09-13T09:56:18Z</time>
      </trkpt>
      <trkpt lat="42.9047330" lon="-2.5625480">
        <ele>516.6</ele>
        <time>2020-09-13T09:56:22Z</time>
      </trkpt>
      <trkpt lat="42.9046580" lon="-2.5624280">
        <ele>516.0</ele>
        <time>2020-09-13T09:56:26Z</time>
      </trkpt>
      <trkpt lat="42.9045850" lon="-2.5622980">
        <ele>516.4</ele>
        <time>2020-09-13T09:56:30Z</time>
      </trkpt>
      <trkpt lat="42.9045110" lon="-2.5621660">
        <ele>516.4</ele>
        <time>2020-09-13T09:56:34Z</time>
      </trkpt>
      <trkpt lat="42.9044360" lon="-2.5620350">
        <ele>517.0</ele>
        <time>2020-09-13T09:56:38Z</time>
      </trkpt>
      <trkpt lat="42.9043350" lon="-2.5619130">
        <ele>516.6</ele>
        <time>2020-09-13T09:56:42Z</time>
      </trkpt>
      <trkpt lat="42.9042180" lon="-2.5618400">
        <ele>516.4</ele>
        <time>2020-09-13T09:56:46Z</time>
      </trkpt>
      <trkpt lat="42.9040960" lon="-2.5618600">
        <ele>517.0</ele>
        <time>2020-09-13T09:56:50Z</time>
      </trkpt>
      <trkpt lat="42.9040250" lon="-2.5619880">
        <ele>515.6</ele>
        <time>2020-09-13T09:56:54Z</time>
      </trkpt>
      <trkpt lat="42.9039810" lon="-2.5621280">
        <ele>516.2</ele>
        <time>2020-09-13T09:56:58Z</time>
      </trkpt>
      <trkpt lat="42.9039280" lon="-2.5622750">
        <ele>516.0</ele>
        <time>2020-09-13T09:57:02Z</time>
      </trkpt>
      <trkpt lat="42.9038560" lon="-2.5624200">
        <ele>516.2</ele>
        <time>2020-09-13T09:57:06Z</time>
      </trkpt>
      <trkpt lat="42.9037710" lon="-2.5625480">
        <ele>516.4</ele>
        <time>2020-09-13T09:57:10Z</time>
      </trkpt>
      <trkpt lat="42.9036830" lon="-2.5626550">
        <ele>515.8</ele>
        <time>2020-09-13T09:57:14Z</time>
      </trkpt>
      <trkpt lat="42.9035800" lon="-2.5627300">
        <ele>516.0</ele>
        <time>2020-09-13T09:57:18Z</time>
      </trkpt>
      <trkpt lat="42.9034580" lon="-2.5627410">
        <ele>516.2</ele>
        <time>2020-09-13T09:57:22Z</time>
      </trkpt>
      <trkpt lat="42.9033430" lon="-2.5626960">
        <ele>516.2</ele>
        <time>2020-09-13T09:57:26Z</time>
      </trkpt>
      <trkpt lat="42.9032260" lon="-2.5626230">
        <ele>516.4</ele>
        <time>2020-09-13T09:57:30Z</time>
      </trkpt>
      <trkpt lat="42.9031160" lon="-2.5625400">
        <ele>516.4</ele>
        <time>2020-09-13T09:57:34Z</time>
      </trkpt>
      <trkpt lat="42.9030200" lon="-2.5624430">
        <ele>516.0</ele>
        <time>2020-09-13T09:57:38Z</time>
      </trkpt>
      <trkpt lat="42.9029250" lon="-2.5623280">
        <ele>516.4</ele>
        <time>2020-09-13T09:57:42Z</time>
      </trkpt>
      <trkpt lat="42.9028360" lon="-2.5622050">
        <ele>516.4</ele>
        <time>2020-09-13T09:57:46Z</time>
      </trkpt>
      <trkpt lat="42.9027510" lon="-2.5620850">
        <ele>516.2</ele>
        <time>2020-09-13T09:57:50Z</time>
      </trkpt>
      <trkpt lat="42.9026800" lon="-2.5619450">
        <ele>516.0</ele>
        <time>2020-09-13T09:57:54Z</time>
      </trkpt>
      <trkpt lat="42.9026080" lon="-2.5617980">
        <ele>516.2</ele>
        <time>2020-09-13T09:57:58Z</time>
      </trkpt>
      <trkpt lat="42.9025450" lon="-2.5616510">
        <ele>515.8</ele>
        <time>2020-09-13T09:58:02Z</time>
      </trkpt>
      <trkpt lat="42.9024830" lon="-2.5615160">
        <ele>516.0</ele>
        <time>2020-09-13T09:58:06Z</time>
      </trkpt>
      <trkpt lat="42.9024200" lon="-2.5613730">
        <ele>516.2</ele>
        <time>2020-09-13T09:58:10Z</time>
      </trkpt>
      <trkpt lat="42.9023630" lon="-2.5612210">
        <ele>516.0</ele>
        <time>2020-09-13T09:58:14Z</time>
      </trkpt>
      <trkpt lat="42.9023080" lon="-2.5610780">
        <ele>516.2</ele>
        <time>2020-09-13T09:58:18Z</time>
      </trkpt>
      <trkpt lat="42.9022550" lon="-2.5609430">
        <ele>515.8</ele>
        <time>2020-09-13T09:58:22Z</time>
      </trkpt>
      <trkpt lat="42.9022050" lon="-2.5608030">
        <ele>516.0</ele>
        <time>2020-09-13T09:58:26Z</time>
      </trkpt>
      <trkpt lat="42.9021480" lon="-2.5606550">
        <ele>516.0</ele>
        <time>2020-09-13T09:58:30Z</time>
      </trkpt>
      <trkpt lat="42.9020960" lon="-2.5605180">
        <ele>515.8</ele>
        <time>2020-09-13T09:58:34Z</time>
      </trkpt>
      <trkpt lat="42.9020480" lon="-2.5603880">
        <ele>515.8</ele>
        <time>2020-09-13T09:58:38Z</time>
      </trkpt>
      <trkpt lat="42.9019960" lon="-2.5602650">
        <ele>516.6</ele>
        <time>2020-09-13T09:58:42Z</time>
      </trkpt>
      <trkpt lat="42.9019360" lon="-2.5601750">
        <ele>516.6</ele>
        <time>2020-09-13T09:58:46Z</time>
      </trkpt>
      <trkpt lat="42.9018580" lon="-2.5602310">
        <ele>515.8</ele>
        <time>2020-09-13T09:58:50Z</time>
      </trkpt>
      <trkpt lat="42.9018550" lon="-2.5603750">
        <ele>515.8</ele>
        <time>2020-09-13T09:58:54Z</time>
      </trkpt>
      <trkpt lat="42.9018500" lon="-2.5605350">
        <ele>516.0</ele>
        <time>2020-09-13T09:58:58Z</time>
      </trkpt>
      <trkpt lat="42.9018450" lon="-2.5607000">
        <ele>516.2</ele>
        <time>2020-09-13T09:59:02Z</time>
      </trkpt>
      <trkpt lat="42.9018430" lon="-2.5608510">
        <ele>517.0</ele>
        <time>2020-09-13T09:59:06Z</time>
      </trkpt>
      <trkpt lat="42.9018450" lon="-2.5610100">
        <ele>516.6</ele>
        <time>2020-09-13T09:59:10Z</time>
      </trkpt>
      <trkpt lat="42.9018410" lon="-2.5611900">
        <ele>516.4</ele>
        <time>2020-09-13T09:59:14Z</time>
      </trkpt>
      <trkpt lat="42.9018410" lon="-2.5613680">
        <ele>517.0</ele>
        <time>2020-09-13T09:59:18Z</time>
      </trkpt>
      <trkpt lat="42.9018180" lon="-2.5615330">
        <ele>516.6</ele>
        <time>2020-09-13T09:59:22Z</time>
      </trkpt>
      <trkpt lat="42.9017260" lon="-2.5616530">
        <ele>516.2</ele>
        <time>2020-09-13T09:59:26Z</time>
      </trkpt>
      <trkpt lat="42.9016130" lon="-2.5617080">
        <ele>517.2</ele>
        <time>2020-09-13T09:59:30Z</time>
      </trkpt>
      <trkpt lat="42.9015010" lon="-2.5617000">
        <ele>517.0</ele>
        <time>2020-09-13T09:59:34Z</time>
      </trkpt>
      <trkpt lat="42.9014000" lon="-2.5616460">
        <ele>517.6</ele>
        <time>2020-09-13T09:59:38Z</time>
      </trkpt>
      <trkpt lat="42.9013250" lon="-2.5615330">
        <ele>517.4</ele>
        <time>2020-09-13T09:59:42Z</time>
      </trkpt>
      <trkpt lat="42.9012650" lon="-2.5613860">
        <ele>516.6</ele>
        <time>2020-09-13T09:59:46Z</time>
      </trkpt>
      <trkpt lat="42.9012130" lon="-2.5612380">
        <ele>516.2</ele>
        <time>2020-09-13T09:59:50Z</time>
      </trkpt>
      <trkpt lat="42.9011610" lon="-2.5610980">
        <ele>516.8</ele>
        <time>2020-09-13T09:59:54Z</time>
      </trkpt>
      <trkpt lat="42.9011200" lon="-2.5609600">
        <ele>516.4</ele>
        <time>2020-09-13T09:59:58Z</time>
      </trkpt>
      <trkpt lat="42.9011200" lon="-2.5609600">
        <ele>516.4</ele>
        <time>2020-09-13T10:00:02Z</time>
      </trkpt>
      <trkpt lat="42.9010960" lon="-2.5608580">
        <ele>516.8</ele>
        <time>2020-09-13T10:00:06Z</time>
      </trkpt>
      <trkpt lat="42.9010800" lon="-2.5608300">
        <ele>516.6</ele>
        <time>2020-09-13T10:00:10Z</time>
      </trkpt>
      <trkpt lat="42.9010530" lon="-2.5607910">
        <ele>516.8</ele>
        <time>2020-09-13T10:00:14Z</time>
      </trkpt>
      <trkpt lat="42.9010330" lon="-2.5607380">
        <ele>516.4</ele>
        <time>2020-09-13T10:00:18Z</time>
      </trkpt>
      <trkpt lat="42.9010130" lon="-2.5607100">
        <ele>516.8</ele>
        <time>2020-09-13T10:00:22Z</time>
      </trkpt>
      <trkpt lat="42.9010050" lon="-2.5606860">
        <ele>516.8</ele>
        <time>2020-09-13T10:00:26Z</time>
      </trkpt>
      <trkpt lat="42.9009850" lon="-2.5606860">
        <ele>516.4</ele>
        <time>2020-09-13T10:00:30Z</time>
      </trkpt>
      <trkpt lat="42.9009850" lon="-2.5606860">
        <ele>517.0</ele>
        <time>2020-09-13T10:00:34Z</time>
      </trkpt>
      <trkpt lat="42.9009850" lon="-2.5606860">
        <ele>517.0</ele>
        <time>2020-09-13T10:00:38Z</time>
      </trkpt>
      <trkpt lat="42.9009850" lon="-2.5606860">
        <ele>517.2</ele>
        <time>2020-09-13T10:00:42Z</time>
      </trkpt>
      <trkpt lat="42.9009850" lon="-2.5606860">
        <ele>517.0</ele>
        <time>2020-09-13T10:00:46Z</time>
      </trkpt>
      <trkpt lat="42.9009850" lon="-2.5606860">
        <ele>516.6</ele>
        <time>2020-09-13T10:00:50Z</time>
      </trkpt>
      <trkpt lat="42.9009850" lon="-2.5606860">
        <ele>516.8</ele>
        <time>2020-09-13T10:00:54Z</time>
      </trkpt>
      <trkpt lat="42.9009850" lon="-2.5606860">
        <ele>516.6</ele>
        <time>2020-09-13T10:00:58Z</time>
      </trkpt>
      <trkpt lat="42.9009850" lon="-2.5606860">
        <ele>516.4</ele>
        <time>2020-09-13T10:01:02Z</time>
      </trkpt>
      <trkpt lat="42.9009850" lon="-2.5606860">
        <ele>516.8</ele>
        <time>2020-09-13T10:01:06Z</time>
      </trkpt>
      <trkpt lat="42.9009650" lon="-2.5606810">
        <ele>516.4</ele>
        <time>2020-09-13T10:01:10Z</time>
      </trkpt>
      <trkpt lat="42.9009380" lon="-2.5606650">
        <ele>516.2</ele>
        <time>2020-09-13T10:01:14Z</time>
      </trkpt>
      <trkpt lat="42.9008800" lon="-2.5606000">
        <ele>517.4</ele>
        <time>2020-09-13T10:01:18Z</time>
      </trkpt>
      <trkpt lat="42.9007800" lon="-2.5604780">
        <ele>516.8</ele>
        <time>2020-09-13T10:01:22Z</time>
      </trkpt>
      <trkpt lat="42.9006730" lon="-2.5603680">
        <ele>516.4</ele>
        <time>2020-09-13T10:01:26Z</time>
      </trkpt>
      <trkpt lat="42.9005530" lon="-2.5603510">
        <ele>516.0</ele>
        <time>2020-09-13T10:01:30Z</time>
      </trkpt>
      <trkpt lat="42.9004880" lon="-2.5603750">
        <ele>516.2</ele>
        <time>2020-09-13T10:01:34Z</time>
      </trkpt>
      <trkpt lat="42.9003880" lon="-2.5603830">
        <ele>516.2</ele>
        <time>2020-09-13T10:01:38Z</time>
      </trkpt>
      <trkpt lat="42.9002950" lon="-2.5604060">
        <ele>515.8</ele>
        <time>2020-09-13T10:01:42Z</time>
      </trkpt>
      <trkpt lat="42.9002480" lon="-2.5604980">
        <ele>517.0</ele>
        <time>2020-09-13T10:01:46Z</time>
      </trkpt>
      <trkpt lat="42.9002210" lon="-2.5605900">
        <ele>516.0</ele>
        <time>2020-09-13T10:01:50Z</time>
      </trkpt>
      <trkpt lat="42.9002210" lon="-2.5605900">
        <ele>516.4</ele>
        <time>2020-09-13T10:01:54Z</time>
      </trkpt>
      <trkpt lat="42.9002210" lon="-2.5605900">
        <ele>516.6</ele>
        <time>2020-09-13T10:01:58Z</time>
      </trkpt>
      <trkpt lat="42.9002210" lon="-2.5605900">
        <ele>516.6</ele>
        <time>2020-09-13T10:02:02Z</time>
      </trkpt>
      <trkpt lat="42.9002210" lon="-2.5605900">
        <ele>516.6</ele>
        <time>2020-09-13T10:02:06Z</time>
      </trkpt>
      <trkpt lat="42.9002210" lon="-2.5605900">
        <ele>516.0</ele>
        <time>2020-09-13T10:02:10Z</time>
      </trkpt>
      <trkpt lat="42.9002210" lon="-2.5605900">
        <ele>516.6</ele>
        <time>2020-09-13T10:02:14Z</time>
      </trkpt>
      <trkpt lat="42.9002210" lon="-2.5605900">
        <ele>516.4</ele>
        <time>2020-09-13T10:02:18Z</time>
      </trkpt>
      <trkpt lat="42.9002210" lon="-2.5605900">
        <ele>516.6</ele>
        <time>2020-09-13T10:02:22Z</time>
      </trkpt>
      <trkpt lat="42.9002210" lon="-2.5605900">
        <ele>516.2</ele>
        <time>2020-09-13T10:02:26Z</time>
      </trkpt>
      <trkpt lat="42.9002210" lon="-2.5605900">
        <ele>516.6</ele>
        <time>2020-09-13T10:02:30Z</time>
      </trkpt>
      <trkpt lat="42.9002210" lon="-2.5605900">
        <ele>516.2</ele>
        <time>2020-09-13T10:02:34Z</time>
      </trkpt>
      <trkpt lat="42.9001710" lon="-2.5606630">
        <ele>516.2</ele>
        <time>2020-09-13T10:02:38Z</time>
      </trkpt>
      <trkpt lat="42.9001480" lon="-2.5606780">
        <ele>516.4</ele>
        <time>2020-09-13T10:02:42Z</time>
      </trkpt>
      <trkpt lat="42.9000900" lon="-2.5607400">
        <ele>516.8</ele>
        <time>2020-09-13T10:02:46Z</time>
      </trkpt>
      <trkpt lat="42.9000510" lon="-2.5608780">
        <ele>516.4</ele>
        <time>2020-09-13T10:02:50Z</time>
      </trkpt>
      <trkpt lat="42.9000450" lon="-2.5610260">
        <ele>516.6</ele>
        <time>2020-09-13T10:02:54Z</time>
      </trkpt>
      <trkpt lat="42.9000550" lon="-2.5612030">
        <ele>517.0</ele>
        <time>2020-09-13T10:02:58Z</time>
      </trkpt>
      <trkpt lat="42.9000750" lon="-2.5613860">
        <ele>516.6</ele>
        <time>2020-09-13T10:03:02Z</time>
      </trkpt>
      <trkpt lat="42.9000910" lon="-2.5615410">
        <ele>516.8</ele>
        <time>2020-09-13T10:03:06Z</time>
      </trkpt>
      <trkpt lat="42.9000980" lon="-2.5616760">
        <ele>516.6</ele>
        <time>2020-09-13T10:03:10Z</time>
      </trkpt>
      <trkpt lat="42.9001050" lon="-2.5618160">
        <ele>517.0</ele>
        <time>2020-09-13T10:03:14Z</time>
      </trkpt>
      <trkpt lat="42.9001180" lon="-2.5619610">
        <ele>517.0</ele>
        <time>2020-09-13T10:03:18Z</time>
      </trkpt>
      <trkpt lat="42.9001300" lon="-2.5621060">
        <ele>517.0</ele>
        <time>2020-09-13T10:03:22Z</time>
      </trkpt>
      <trkpt lat="42.9001460" lon="-2.5622600">
        <ele>517.0</ele>
        <time>2020-09-13T10:03:26Z</time>
      </trkpt>
      <trkpt lat="42.9001630" lon="-2.5623980">
        <ele>517.0</ele>
        <time>2020-09-13T10:03:30Z</time>
      </trkpt>
      <trkpt lat="42.9001750" lon="-2.5625380">
        <ele>517.2</ele>
        <time>2020-09-13T10:03:34Z</time>
      </trkpt>
      <trkpt lat="42.9001880" lon="-2.5626760">
        <ele>517.8</ele>
        <time>2020-09-13T10:03:38Z</time>
      </trkpt>
      <trkpt lat="42.9001930" lon="-2.5628350">
        <ele>517.8</ele>
        <time>2020-09-13T10:03:42Z</time>
      </trkpt>
      <trkpt lat="42.9002100" lon="-2.5630030">
        <ele>517.0</ele>
        <time>2020-09-13T10:03:46Z</time>
      </trkpt>
      <trkpt lat="42.9002300" lon="-2.5631730">
        <ele>517.8</ele>
        <time>2020-09-13T10:03:50Z</time>
      </trkpt>
      <trkpt lat="42.9002480" lon="-2.5633530">
        <ele>517.8</ele>
        <time>2020-09-13T10:03:54Z</time>
      </trkpt>
      <trkpt lat="42.9002560" lon="-2.5635430">
        <ele>517.6</ele>
        <time>2020-09-13T10:03:58Z</time>
      </trkpt>
      <trkpt lat="42.9002600" lon="-2.5637130">
        <ele>517.4</ele>
        <time>2020-09-13T10:04:02Z</time>
      </trkpt>
      <trkpt lat="42.9002610" lon="-2.5638710">
        <ele>517.2</ele>
        <time>2020-09-13T10:04:06Z</time>
      </trkpt>
      <trkpt lat="42.9002700" lon="-2.5640430">
        <ele>516.8</ele>
        <time>2020-09-13T10:04:10Z</time>
      </trkpt>
      <trkpt lat="42.9002810" lon="-2.5642260">
        <ele>516.4</ele>
        <time>2020-09-13T10:04:14Z</time>
      </trkpt>
      <trkpt lat="42.9002930" lon="-2.5644010">
        <ele>517.4</ele>
        <time>2020-09-13T10:04:18Z</time>
      </trkpt>
      <trkpt lat="42.9003000" lon="-2.5645860">
        <ele>517.8</ele>
        <time>2020-09-13T10:04:22Z</time>
      </trkpt>
      <trkpt lat="42.9002960" lon="-2.5647960">
        <ele>516.6</ele>
        <time>2020-09-13T10:04:26Z</time>
      </trkpt>
      <trkpt lat="42.9002780" lon="-2.5650080">
        <ele>517.2</ele>
        <time>2020-09-13T10:04:30Z</time>
      </trkpt>
      <trkpt lat="42.9002450" lon="-2.5652150">
        <ele>517.4</ele>
        <time>2020-09-13T10:04:34Z</time>
      </trkpt>
      <trkpt lat="42.9001830" lon="-2.5653960">
        <ele>517.6</ele>
        <time>2020-09-13T10:04:38Z</time>
      </trkpt>
      <trkpt lat="42.9001010" lon="-2.5655510">
        <ele>517.8</ele>
        <time>2020-09-13T10:04:42Z</time>
      </trkpt>
      <trkpt lat="42.8999950" lon="-2.5656650">
        <ele>517.0</ele>
        <time>2020-09-13T10:04:46Z</time>
      </trkpt>
      <trkpt lat="42.8999400" lon="-2.5658080">
        <ele>517.6</ele>
        <time>2020-09-13T10:04:50Z</time>
      </trkpt>
      <trkpt lat="42.8999480" lon="-2.5660000">
        <ele>517.8</ele>
        <time>2020-09-13T10:04:54Z</time>
      </trkpt>
      <trkpt lat="42.8999750" lon="-2.5662000">
        <ele>517.6</ele>
        <time>2020-09-13T10:04:58Z</time>
      </trkpt>
      <trkpt lat="42.9000100" lon="-2.5664050">
        <ele>517.6</ele>
        <time>2020-09-13T10:05:02Z</time>
      </trkpt>
      <trkpt lat="42.9000350" lon="-2.5665860">
        <ele>517.0</ele>
        <time>2020-09-13T10:05:06Z</time>
      </trkpt>
      <trkpt lat="42.9000730" lon="-2.5667460">
        <ele>518.4</ele>
        <time>2020-09-13T10:05:10Z</time>
      </trkpt>
      <trkpt lat="42.9001110" lon="-2.5669250">
        <ele>517.0</ele>
        <time>2020-09-13T10:05:14Z</time>
      </trkpt>
      <trkpt lat="42.9001480" lon="-2.5671060">
        <ele>518.2</ele>
        <time>2020-09-13T10:05:18Z</time>
      </trkpt>
      <trkpt lat="42.9001800" lon="-2.5672730">
        <ele>517.2</ele>
        <time>2020-09-13T10:05:22Z</time>
      </trkpt>
      <trkpt lat="42.9002110" lon="-2.5674380">
        <ele>516.8</ele>
        <time>2020-09-13T10:05:26Z</time>
      </trkpt>
      <trkpt lat="42.9002450" lon="-2.5676130">
        <ele>517.0</ele>
        <time>2020-09-13T10:05:30Z</time>
      </trkpt>
      <trkpt lat="42.9002760" lon="-2.5677780">
        <ele>517.4</ele>
        <time>2020-09-13T10:05:34Z</time>
      </trkpt>
      <trkpt lat="42.9003060" lon="-2.5679360">
        <ele>517.0</ele>
        <time>2020-09-13T10:05:38Z</time>
      </trkpt>
      <trkpt lat="42.9003430" lon="-2.5681050">
        <ele>517.4</ele>
        <time>2020-09-13T10:05:42Z</time>
      </trkpt>
      <trkpt lat="42.9003730" lon="-2.5682780">
        <ele>517.0</ele>
        <time>2020-09-13T10:05:46Z</time>
      </trkpt>
      <trkpt lat="42.9003900" lon="-2.5684430">
        <ele>517.0</ele>
        <time>2020-09-13T10:05:50Z</time>
      </trkpt>
      <trkpt lat="42.9003930" lon="-2.5686100">
        <ele>517.6</ele>
        <time>2020-09-13T10:05:54Z</time>
      </trkpt>
      <trkpt lat="42.9003850" lon="-2.5687850">
        <ele>517.2</ele>
        <time>2020-09-13T10:05:58Z</time>
      </trkpt>
      <trkpt lat="42.9003460" lon="-2.5689500">
        <ele>517.4</ele>
        <time>2020-09-13T10:06:02Z</time>
      </trkpt>
      <trkpt lat="42.9002910" lon="-2.5690880">
        <ele>517.0</ele>
        <time>2020-09-13T10:06:06Z</time>
      </trkpt>
      <trkpt lat="42.9002230" lon="-2.5692180">
        <ele>516.4</ele>
        <time>2020-09-13T10:06:10Z</time>
      </trkpt>
      <trkpt lat="42.9001730" lon="-2.5693710">
        <ele>516.8</ele>
        <time>2020-09-13T10:06:14Z</time>
      </trkpt>
      <trkpt lat="42.9001460" lon="-2.5695300">
        <ele>517.2</ele>
        <time>2020-09-13T10:06:18Z</time>
      </trkpt>
      <trkpt lat="42.9001080" lon="-2.5696710">
        <ele>517.8</ele>
        <time>2020-09-13T10:06:22Z</time>
      </trkpt>
      <trkpt lat="42.9000230" lon="-2.5697860">
        <ele>517.4</ele>
        <time>2020-09-13T10:06:26Z</time>
      </trkpt>
      <trkpt lat="42.8999110" lon="-2.5698610">
        <ele>517.8</ele>
        <time>2020-09-13T10:06:30Z</time>
      </trkpt>
      <trkpt lat="42.8998060" lon="-2.5699110">
        <ele>518.2</ele>
        <time>2020-09-13T10:06:34Z</time>
      </trkpt>
      <trkpt lat="42.8997060" lon="-2.5698960">
        <ele>518.8</ele>
        <time>2020-09-13T10:06:38Z</time>
      </trkpt>
      <trkpt lat="42.8996230" lon="-2.5697830">
        <ele>517.8</ele>
        <time>2020-09-13T10:06:42Z</time>
      </trkpt>
      <trkpt lat="42.8995380" lon="-2.5696280">
        <ele>518.0</ele>
        <time>2020-09-13T10:06:46Z</time>
      </trkpt>
      <trkpt lat="42.8994410" lon="-2.5694710">
        <ele>518.4</ele>
        <time>2020-09-13T10:06:50Z</time>
      </trkpt>
      <trkpt lat="42.8993410" lon="-2.5693460">
        <ele>517.8</ele>
        <time>2020-09-13T10:06:54Z</time>
      </trkpt>
      <trkpt lat="42.8992530" lon="-2.5692780">
        <ele>517.4</ele>
        <time>2020-09-13T10:06:58Z</time>
      </trkpt>
      <trkpt lat="42.8991630" lon="-2.5692300">
        <ele>518.0</ele>
        <time>2020-09-13T10:07:02Z</time>
      </trkpt>
      <trkpt lat="42.8990760" lon="-2.5691710">
        <ele>518.4</ele>
        <time>2020-09-13T10:07:06Z</time>
      </trkpt>
      <trkpt lat="42.8990130" lon="-2.5690830">
        <ele>517.8</ele>
        <time>2020-09-13T10:07:10Z</time>
      </trkpt>
      <trkpt lat="42.8989900" lon="-2.5689380">
        <ele>517.8</ele>
        <time>2020-09-13T10:07:14Z</time>
      </trkpt>
      <trkpt lat="42.8989460" lon="-2.5687730">
        <ele>517.8</ele>
        <time>2020-09-13T10:07:18Z</time>
      </trkpt>
      <trkpt lat="42.8988880" lon="-2.5686200">
        <ele>517.6</ele>
        <time>2020-09-13T10:07:22Z</time>
      </trkpt>
      <trkpt lat="42.8988400" lon="-2.5684850">
        <ele>517.0</ele>
        <time>2020-09-13T10:07:26Z</time>
      </trkpt>
      <trkpt lat="42.8988050" lon="-2.5683310">
        <ele>517.4</ele>
        <time>2020-09-13T10:07:30Z</time>
      </trkpt>
      <trkpt lat="42.8987800" lon="-2.5681650">
        <ele>517.6</ele>
        <time>2020-09-13T10:07:34Z</time>
      </trkpt>
      <trkpt lat="42.8987260" lon="-2.5680110">
        <ele>517.2</ele>
        <time>2020-09-13T10:07:38Z</time>
      </trkpt>
      <trkpt lat="42.8986930" lon="-2.5678800">
        <ele>517.2</ele>
        <time>2020-09-13T10:07:42Z</time>
      </trkpt>
      <trkpt lat="42.8986530" lon="-2.5677460">
        <ele>517.8</ele>
        <time>2020-09-13T10:07:46Z</time>
      </trkpt>
      <trkpt lat="42.8986200" lon="-2.5676210">
        <ele>517.4</ele>
        <time>2020-09-13T10:07:50Z</time>
      </trkpt>
      <trkpt lat="42.8985830" lon="-2.5674930">
        <ele>517.8</ele>
        <time>2020-09-13T10:07:54Z</time>
      </trkpt>
      <trkpt lat="42.8985600" lon="-2.5673450">
        <ele>517.6</ele>
        <time>2020-09-13T10:07:58Z</time>
      </trkpt>
      <trkpt lat="42.8985250" lon="-2.5671730">
        <ele>517.4</ele>
        <time>2020-09-13T10:08:02Z</time>
      </trkpt>
      <trkpt lat="42.8984780" lon="-2.5670310">
        <ele>517.0</ele>
        <time>2020-09-13T10:08:06Z</time>
      </trkpt>
      <trkpt lat="42.8984200" lon="-2.5668860">
        <ele>517.6</ele>
        <time>2020-09-13T10:08:10Z</time>
      </trkpt>
      <trkpt lat="42.8983700" lon="-2.5667510">
        <ele>517.6</ele>
        <time>2020-09-13T10:08:14Z</time>
      </trkpt>
      <trkpt lat="42.8983200" lon="-2.5666250">
        <ele>518.2</ele>
        <time>2020-09-13T10:08:18Z</time>
      </trkpt>
      <trkpt lat="42.8982650" lon="-2.5665000">
        <ele>519.0</ele>
        <time>2020-09-13T10:08:22Z</time>
      </trkpt>
      <trkpt lat="42.8982150" lon="-2.5663800">
        <ele>519.6</ele>
        <time>2020-09-13T10:08:26Z</time>
      </trkpt>
      <trkpt lat="42.8981950" lon="-2.5662430">
        <ele>519.6</ele>
        <time>2020-09-13T10:08:30Z</time>
      </trkpt>
      <trkpt lat="42.8981910" lon="-2.5661030">
        <ele>519.2</ele>
        <time>2020-09-13T10:08:34Z</time>
      </trkpt>
      <trkpt lat="42.8982050" lon="-2.5659200">
        <ele>518.4</ele>
        <time>2020-09-13T10:08:38Z</time>
      </trkpt>
      <trkpt lat="42.8982110" lon="-2.5657200">
        <ele>519.4</ele>
        <time>2020-09-13T10:08:42Z</time>
      </trkpt>
      <trkpt lat="42.8982200" lon="-2.5655260">
        <ele>519.0</ele>
        <time>2020-09-13T10:08:46Z</time>
      </trkpt>
      <trkpt lat="42.8982180" lon="-2.5653400">
        <ele>519.0</ele>
        <time>2020-09-13T10:08:50Z</time>
      </trkpt>
      <trkpt lat="42.8982030" lon="-2.5651810">
        <ele>519.0</ele>
        <time>2020-09-13T10:08:54Z</time>
      </trkpt>
      <trkpt lat="42.8981930" lon="-2.5650500">
        <ele>518.4</ele>
        <time>2020-09-13T10:08:58Z</time>
      </trkpt>
      <trkpt lat="42.8981730" lon="-2.5648810">
        <ele>519.2</ele>
        <time>2020-09-13T10:09:02Z</time>
      </trkpt>
      <trkpt lat="42.8981550" lon="-2.5647110">
        <ele>519.2</ele>
        <time>2020-09-13T10:09:06Z</time>
      </trkpt>
      <trkpt lat="42.8981230" lon="-2.5645600">
        <ele>519.4</ele>
        <time>2020-09-13T10:09:10Z</time>
      </trkpt>
      <trkpt lat="42.8980900" lon="-2.5644150">
        <ele>519.2</ele>
        <time>2020-09-13T10:09:14Z</time>
      </trkpt>
      <trkpt lat="42.8980450" lon="-2.5642750">
        <ele>519.2</ele>
        <time>2020-09-13T10:09:18Z</time>
      </trkpt>
      <trkpt lat="42.8980130" lon="-2.5641330">
        <ele>519.0</ele>
        <time>2020-09-13T10:09:22Z</time>
      </trkpt>
      <trkpt lat="42.8979780" lon="-2.5639900">
        <ele>519.6</ele>
        <time>2020-09-13T10:09:26Z</time>
      </trkpt>
      <trkpt lat="42.8979500" lon="-2.5638330">
        <ele>520.2</ele>
        <time>2020-09-13T10:09:30Z</time>
      </trkpt>
      <trkpt lat="42.8979150" lon="-2.5636810">
        <ele>520.2</ele>
        <time>2020-09-13T10:09:34Z</time>
      </trkpt>
      <trkpt lat="42.8978850" lon="-2.5635200">
        <ele>520.6</ele>
        <time>2020-09-13T10:09:38Z</time>
      </trkpt>
      <trkpt lat="42.8978650" lon="-2.5633550">
        <ele>520.2</ele>
        <time>2020-09-13T10:09:42Z</time>
      </trkpt>
      <trkpt lat="42.8978430" lon="-2.5631800">
        <ele>519.2</ele>
        <time>2020-09-13T10:09:46Z</time>
      </trkpt>
      <trkpt lat="42.8978150" lon="-2.5630130">
        <ele>519.4</ele>
        <time>2020-09-13T10:09:50Z</time>
      </trkpt>
      <trkpt lat="42.8977800" lon="-2.5628300">
        <ele>518.8</ele>
        <time>2020-09-13T10:09:54Z</time>
      </trkpt>
      <trkpt lat="42.8977430" lon="-2.5626450">
        <ele>518.2</ele>
        <time>2020-09-13T10:09:58Z</time>
      </trkpt>
      <trkpt lat="42.8977080" lon="-2.5624460">
        <ele>518.2</ele>
        <time>2020-09-13T10:10:02Z</time>
      </trkpt>
      <trkpt lat="42.8976730" lon="-2.5622460">
        <ele>518.4</ele>
        <time>2020-09-13T10:10:06Z</time>
      </trkpt>
      <trkpt lat="42.8976450" lon="-2.5620610">
        <ele>518.0</ele>
        <time>2020-09-13T10:10:10Z</time>
      </trkpt>
      <trkpt lat="42.8976100" lon="-2.5618880">
        <ele>517.8</ele>
        <time>2020-09-13T10:10:14Z</time>
      </trkpt>
      <trkpt lat="42.8976000" lon="-2.5617560">
        <ele>518.0</ele>
        <time>2020-09-13T10:10:18Z</time>
      </trkpt>
      <trkpt lat="42.8975850" lon="-2.5616130">
        <ele>518.2</ele>
        <time>2020-09-13T10:10:22Z</time>
      </trkpt>
      <trkpt lat="42.8975530" lon="-2.5614400">
        <ele>517.8</ele>
        <time>2020-09-13T10:10:26Z</time>
      </trkpt>
      <trkpt lat="42.8975530" lon="-2.5613060">
        <ele>517.4</ele>
        <time>2020-09-13T10:10:30Z</time>
      </trkpt>
      <trkpt lat="42.8975700" lon="-2.5611510">
        <ele>518.0</ele>
        <time>2020-09-13T10:10:34Z</time>
      </trkpt>
      <trkpt lat="42.8975750" lon="-2.5610200">
        <ele>517.2</ele>
        <time>2020-09-13T10:10:38Z</time>
      </trkpt>
      <trkpt lat="42.8975700" lon="-2.5608960">
        <ele>517.0</ele>
        <time>2020-09-13T10:10:42Z</time>
      </trkpt>
      <trkpt lat="42.8975680" lon="-2.5607450">
        <ele>517.6</ele>
        <time>2020-09-13T10:10:46Z</time>
      </trkpt>
      <trkpt lat="42.8975710" lon="-2.5605910">
        <ele>517.6</ele>
        <time>2020-09-13T10:10:50Z</time>
      </trkpt>
      <trkpt lat="42.8975900" lon="-2.5604300">
        <ele>518.0</ele>
        <time>2020-09-13T10:10:54Z</time>
      </trkpt>
      <trkpt lat="42.8976310" lon="-2.5602760">
        <ele>517.8</ele>
        <time>2020-09-13T10:10:58Z</time>
      </trkpt>
      <trkpt lat="42.8976810" lon="-2.5601380">
        <ele>517.8</ele>
        <time>2020-09-13T10:11:02Z</time>
      </trkpt>
      <trkpt lat="42.8977310" lon="-2.5600110">
        <ele>517.2</ele>
        <time>2020-09-13T10:11:06Z</time>
      </trkpt>
      <trkpt lat="42.8977610" lon="-2.5598880">
        <ele>517.2</ele>
        <time>2020-09-13T10:11:10Z</time>
      </trkpt>
      <trkpt lat="42.8977750" lon="-2.5597500">
        <ele>517.6</ele>
        <time>2020-09-13T10:11:14Z</time>
      </trkpt>
      <trkpt lat="42.8977810" lon="-2.5595960">
        <ele>517.8</ele>
        <time>2020-09-13T10:11:18Z</time>
      </trkpt>
      <trkpt lat="42.8977860" lon="-2.5594410">
        <ele>517.8</ele>
        <time>2020-09-13T10:11:22Z</time>
      </trkpt>
      <trkpt lat="42.8978050" lon="-2.5592880">
        <ele>517.6</ele>
        <time>2020-09-13T10:11:26Z</time>
      </trkpt>
      <trkpt lat="42.8977980" lon="-2.5591660">
        <ele>517.4</ele>
        <time>2020-09-13T10:11:30Z</time>
      </trkpt>
      <trkpt lat="42.8977730" lon="-2.5590400">
        <ele>517.8</ele>
        <time>2020-09-13T10:11:34Z</time>
      </trkpt>
      <trkpt lat="42.8977350" lon="-2.5589010">
        <ele>517.8</ele>
        <time>2020-09-13T10:11:38Z</time>
      </trkpt>
      <trkpt lat="42.8976930" lon="-2.5587660">
        <ele>517.6</ele>
        <time>2020-09-13T10:11:42Z</time>
      </trkpt>
      <trkpt lat="42.8976530" lon="-2.5586180">
        <ele>517.8</ele>
        <time>2020-09-13T10:11:46Z</time>
      </trkpt>
      <trkpt lat="42.8976180" lon="-2.5584550">
        <ele>517.8</ele>
        <time>2020-09-13T10:11:50Z</time>
      </trkpt>
      <trkpt lat="42.8975880" lon="-2.5582950">
        <ele>517.8</ele>
        <time>2020-09-13T10:11:54Z</time>
      </trkpt>
      <trkpt lat="42.8975560" lon="-2.5581530">
        <ele>518.0</ele>
        <time>2020-09-13T10:11:58Z</time>
      </trkpt>
      <trkpt lat="42.8975300" lon="-2.5580180">
        <ele>517.4</ele>
        <time>2020-09-13T10:12:02Z</time>
      </trkpt>
      <trkpt lat="42.8975080" lon="-2.5578580">
        <ele>518.0</ele>
        <time>2020-09-13T10:12:06Z</time>
      </trkpt>
      <trkpt lat="42.8974830" lon="-2.5577110">
        <ele>518.0</ele>
        <time>2020-09-13T10:12:10Z</time>
      </trkpt>
      <trkpt lat="42.8974430" lon="-2.5575700">
        <ele>518.4</ele>
        <time>2020-09-13T10:12:14Z</time>
      </trkpt>
      <trkpt lat="42.8974010" lon="-2.5574250">
        <ele>518.0</ele>
        <time>2020-09-13T10:12:18Z</time>
      </trkpt>
      <trkpt lat="42.8973580" lon="-2.5573000">
        <ele>518.0</ele>
        <time>2020-09-13T10:12:22Z</time>
      </trkpt>
      <trkpt lat="42.8973200" lon="-2.5571710">
        <ele>518.0</ele>
        <time>2020-09-13T10:12:26Z</time>
      </trkpt>
      <trkpt lat="42.8972650" lon="-2.5570400">
        <ele>518.0</ele>
        <time>2020-09-13T10:12:30Z</time>
      </trkpt>
      <trkpt lat="42.8972050" lon="-2.5569130">
        <ele>518.2</ele>
        <time>2020-09-13T10:12:34Z</time>
      </trkpt>
      <trkpt lat="42.8971460" lon="-2.5568130">
        <ele>518.2</ele>
        <time>2020-09-13T10:12:38Z</time>
      </trkpt>
      <trkpt lat="42.8970830" lon="-2.5567080">
        <ele>518.0</ele>
        <time>2020-09-13T10:12:42Z</time>
      </trkpt>
      <trkpt lat="42.8970180" lon="-2.5565800">
        <ele>518.0</ele>
        <time>2020-09-13T10:12:46Z</time>
      </trkpt>
      <trkpt lat="42.8969530" lon="-2.5564580">
        <ele>517.8</ele>
        <time>2020-09-13T10:12:50Z</time>
      </trkpt>
      <trkpt lat="42.8968930" lon="-2.5563260">
        <ele>518.2</ele>
        <time>2020-09-13T10:12:54Z</time>
      </trkpt>
      <trkpt lat="42.8968280" lon="-2.5562000">
        <ele>518.2</ele>
        <time>2020-09-13T10:12:58Z</time>
      </trkpt>
      <trkpt lat="42.8967650" lon="-2.5560880">
        <ele>518.2</ele>
        <time>2020-09-13T10:13:02Z</time>
      </trkpt>
      <trkpt lat="42.8966880" lon="-2.5559660">
        <ele>518.0</ele>
        <time>2020-09-13T10:13:06Z</time>
      </trkpt>
      <trkpt lat="42.8966050" lon="-2.5558430">
        <ele>517.8</ele>
        <time>2020-09-13T10:13:10Z</time>
      </trkpt>
      <trkpt lat="42.8965210" lon="-2.5557260">
        <ele>518.4</ele>
        <time>2020-09-13T10:13:14Z</time>
      </trkpt>
      <trkpt lat="42.8964330" lon="-2.5556200">
        <ele>518.0</ele>
        <time>2020-09-13T10:13:18Z</time>
      </trkpt>
      <trkpt lat="42.8963450" lon="-2.5555200">
        <ele>518.2</ele>
        <time>2020-09-13T10:13:22Z</time>
      </trkpt>
      <trkpt lat="42.8962480" lon="-2.5554300">
        <ele>518.0</ele>
        <time>2020-09-13T10:13:26Z</time>
      </trkpt>
      <trkpt lat="42.8961530" lon="-2.5553380">
        <ele>517.8</ele>
        <time>2020-09-13T10:13:30Z</time>
      </trkpt>
      <trkpt lat="42.8960560" lon="-2.5552380">
        <ele>518.0</ele>
        <time>2020-09-13T10:13:34Z</time>
      </trkpt>
      <trkpt lat="42.8959630" lon="-2.5551480">
        <ele>518.2</ele>
        <time>2020-09-13T10:13:38Z</time>
      </trkpt>
      <trkpt lat="42.8958700" lon="-2.5550510">
        <ele>518.2</ele>
        <time>2020-09-13T10:13:42Z</time>
      </trkpt>
      <trkpt lat="42.8957850" lon="-2.5549630">
        <ele>518.6</ele>
        <time>2020-09-13T10:13:46Z</time>
      </trkpt>
      <trkpt lat="42.8957000" lon="-2.5548700">
        <ele>518.4</ele>
        <time>2020-09-13T10:13:50Z</time>
      </trkpt>
      <trkpt lat="42.8955980" lon="-2.5547560">
        <ele>518.8</ele>
        <time>2020-09-13T10:13:54Z</time>
      </trkpt>
      <trkpt lat="42.8955000" lon="-2.5546350">
        <ele>518.6</ele>
        <time>2020-09-13T10:13:58Z</time>
      </trkpt>
      <trkpt lat="42.8954150" lon="-2.5545150">
        <ele>518.8</ele>
        <time>2020-09-13T10:14:02Z</time>
      </trkpt>
      <trkpt lat="42.8953250" lon="-2.5543930">
        <ele>518.6</ele>
        <time>2020-09-13T10:14:06Z</time>
      </trkpt>
      <trkpt lat="42.8952600" lon="-2.5542560">
        <ele>518.8</ele>
        <time>2020-09-13T10:14:10Z</time>
      </trkpt>
      <trkpt lat="42.8952010" lon="-2.5541060">
        <ele>518.6</ele>
        <time>2020-09-13T10:14:14Z</time>
      </trkpt>
      <trkpt lat="42.8951450" lon="-2.5539460">
        <ele>518.8</ele>
        <time>2020-09-13T10:14:18Z</time>
      </trkpt>
      <trkpt lat="42.8951050" lon="-2.5537860">
        <ele>518.6</ele>
        <time>2020-09-13T10:14:22Z</time>
      </trkpt>
      <trkpt lat="42.8950800" lon="-2.5536430">
        <ele>518.4</ele>
        <time>2020-09-13T10:14:26Z</time>
      </trkpt>
      <trkpt lat="42.8950510" lon="-2.5535160">
        <ele>518.4</ele>
        <time>2020-09-13T10:14:30Z</time>
      </trkpt>
      <trkpt lat="42.8950200" lon="-2.5533660">
        <ele>518.6</ele>
        <time>2020-09-13T10:14:34Z</time>
      </trkpt>
      <trkpt lat="42.8949860" lon="-2.5532250">
        <ele>518.4</ele>
        <time>2020-09-13T10:14:38Z</time>
      </trkpt>
      <trkpt lat="42.8949530" lon="-2.5530960">
        <ele>518.6</ele>
        <time>2020-09-13T10:14:42Z</time>
      </trkpt>
      <trkpt lat="42.8949330" lon="-2.5530030">
        <ele>518.2</ele>
        <time>2020-09-13T10:14:46Z</time>
      </trkpt>
      <trkpt lat="42.8949260" lon="-2.5529510">
        <ele>518.8</ele>
        <time>2020-09-13T10:14:50Z</time>
      </trkpt>
      <trkpt lat="42.8949260" lon="-2.5529510">
        <ele>518.2</ele>
        <time>2020-09-13T10:14:54Z</time>
      </trkpt>
      <trkpt lat="42.8949260" lon="-2.5529510">
        <ele>518.2</ele>
        <time>2020-09-13T10:14:58Z</time>
      </trkpt>
      <trkpt lat="42.8949260" lon="-2.5529510">
        <ele>518.4</ele>
        <time>2020-09-13T10:15:02Z</time>
      </trkpt>
      <trkpt lat="42.8949060" lon="-2.5529230">
        <ele>518.4</ele>
        <time>2020-09-13T10:15:06Z</time>
      </trkpt>
      <trkpt lat="42.8948910" lon="-2.5529210">
        <ele>518.2</ele>
        <time>2020-09-13T10:15:10Z</time>
      </trkpt>
      <trkpt lat="42.8948710" lon="-2.5528980">
        <ele>518.2</ele>
        <time>2020-09-13T10:15:14Z</time>
      </trkpt>
      <trkpt lat="42.8948710" lon="-2.5528980">
        <ele>517.8</ele>
        <time>2020-09-13T10:15:18Z</time>
      </trkpt>
      <trkpt lat="42.8948710" lon="-2.5528980">
        <ele>518.0</ele>
        <time>2020-09-13T10:15:22Z</time>
      </trkpt>
      <trkpt lat="42.8948710" lon="-2.5528980">
        <ele>518.2</ele>
        <time>2020-09-13T10:15:26Z</time>
      </trkpt>
      <trkpt lat="42.8948710" lon="-2.5528980">
        <ele>518.0</ele>
        <time>2020-09-13T10:15:30Z</time>
      </trkpt>
      <trkpt lat="42.8948710" lon="-2.5528980">
        <ele>518.4</ele>
        <time>2020-09-13T10:15:34Z</time>
      </trkpt>
      <trkpt lat="42.8948710" lon="-2.5528980">
        <ele>519.0</ele>
        <time>2020-09-13T10:15:38Z</time>
      </trkpt>
      <trkpt lat="42.8948710" lon="-2.5528980">
        <ele>518.4</ele>
        <time>2020-09-13T10:15:42Z</time>
      </trkpt>
      <trkpt lat="42.8948710" lon="-2.5528980">
        <ele>518.6</ele>
        <time>2020-09-13T10:15:46Z</time>
      </trkpt>
      <trkpt lat="42.8948710" lon="-2.5528980">
        <ele>518.4</ele>
        <time>2020-09-13T10:15:50Z</time>
      </trkpt>
      <trkpt lat="42.8948710" lon="-2.5528980">
        <ele>518.6</ele>
        <time>2020-09-13T10:15:54Z</time>
      </trkpt>
      <trkpt lat="42.8948710" lon="-2.5528980">
        <ele>518.4</ele>
        <time>2020-09-13T10:15:58Z</time>
      </trkpt>
      <trkpt lat="42.8948710" lon="-2.5528980">
        <ele>518.4</ele>
        <time>2020-09-13T10:16:02Z</time>
      </trkpt>
      <trkpt lat="42.8948710" lon="-2.5528980">
        <ele>518.4</ele>
        <time>2020-09-13T10:16:06Z</time>
      </trkpt>
      <trkpt lat="42.8948710" lon="-2.5528980">
        <ele>518.0</ele>
        <time>2020-09-13T10:16:10Z</time>
      </trkpt>
      <trkpt lat="42.8948710" lon="-2.5528980">
        <ele>518.4</ele>
        <time>2020-09-13T10:16:14Z</time>
      </trkpt>
      <trkpt lat="42.8948710" lon="-2.5528980">
        <ele>518.2</ele>
        <time>2020-09-13T10:16:18Z</time>
      </trkpt>
      <trkpt lat="42.8948710" lon="-2.5528980">
        <ele>518.2</ele>
        <time>2020-09-13T10:16:22Z</time>
      </trkpt>
      <trkpt lat="42.8948710" lon="-2.5528980">
        <ele>518.6</ele>
        <time>2020-09-13T10:16:26Z</time>
      </trkpt>
      <trkpt lat="42.8948710" lon="-2.5528980">
        <ele>518.8</ele>
        <time>2020-09-13T10:16:30Z</time>
      </trkpt>
      <trkpt lat="42.8948710" lon="-2.5528980">
        <ele>518.4</ele>
        <time>2020-09-13T10:16:34Z</time>
      </trkpt>
      <trkpt lat="42.8948710" lon="-2.5528980">
        <ele>518.2</ele>
        <time>2020-09-13T10:16:38Z</time>
      </trkpt>
      <trkpt lat="42.8948330" lon="-2.5528910">
        <ele>518.6</ele>
        <time>2020-09-13T10:16:42Z</time>
      </trkpt>
      <trkpt lat="42.8947930" lon="-2.5528950">
        <ele>518.8</ele>
        <time>2020-09-13T10:16:46Z</time>
      </trkpt>
      <trkpt lat="42.8947380" lon="-2.5529450">
        <ele>519.4</ele>
        <time>2020-09-13T10:16:50Z</time>
      </trkpt>
      <trkpt lat="42.8947130" lon="-2.5529900">
        <ele>519.6</ele>
        <time>2020-09-13T10:16:54Z</time>
      </trkpt>
      <trkpt lat="42.8946810" lon="-2.5530350">
        <ele>520.8</ele>
        <time>2020-09-13T10:16:58Z</time>
      </trkpt>
      <trkpt lat="42.8946350" lon="-2.5530450">
        <ele>520.8</ele>
        <time>2020-09-13T10:17:02Z</time>
      </trkpt>
      <trkpt lat="42.8945980" lon="-2.5530330">
        <ele>521.0</ele>
        <time>2020-09-13T10:17:06Z</time>
      </trkpt>
      <trkpt lat="42.8945750" lon="-2.5529930">
        <ele>521.6</ele>
        <time>2020-09-13T10:17:10Z</time>
      </trkpt>
      <trkpt lat="42.8945660" lon="-2.5529500">
        <ele>521.4</ele>
        <time>2020-09-13T10:17:14Z</time>
      </trkpt>
      <trkpt lat="42.8945600" lon="-2.5529150">
        <ele>522.2</ele>
        <time>2020-09-13T10:17:18Z</time>
      </trkpt>
      <trkpt lat="42.8945500" lon="-2.5528800">
        <ele>521.6</ele>
        <time>2020-09-13T10:17:22Z</time>
      </trkpt>
      <trkpt lat="42.8945400" lon="-2.5528400">
        <ele>522.4</ele>
        <time>2020-09-13T10:17:26Z</time>
      </trkpt>
      <trkpt lat="42.8945330" lon="-2.5527980">
        <ele>522.2</ele>
        <time>2020-09-13T10:17:30Z</time>
      </trkpt>
      <trkpt lat="42.8945200" lon="-2.5527300">
        <ele>522.4</ele>
        <time>2020-09-13T10:17:34Z</time>
      </trkpt>
      <trkpt lat="42.8944960" lon="-2.5526380">
        <ele>522.6</ele>
        <time>2020-09-13T10:17:38Z</time>
      </trkpt>
      <trkpt lat="42.8944710" lon="-2.5525110">
        <ele>522.8</ele>
        <time>2020-09-13T10:17:42Z</time>
      </trkpt>
      <trkpt lat="42.8944430" lon="-2.5523930">
        <ele>523.0</ele>
        <time>2020-09-13T10:17:46Z</time>
      </trkpt>
      <trkpt lat="42.8944430" lon="-2.5523930">
        <ele>523.0</ele>
        <time>2020-09-13T10:17:50Z</time>
      </trkpt>
      <trkpt lat="42.8944430" lon="-2.5523930">
        <ele>523.0</ele>
        <time>2020-09-13T10:17:54Z</time>
      </trkpt>
      <trkpt lat="42.8944430" lon="-2.5523930">
        <ele>523.0</ele>
        <time>2020-09-13T10:17:58Z</time>
      </trkpt>
      <trkpt lat="42.8944430" lon="-2.5523930">
        <ele>523.0</ele>
        <time>2020-09-13T10:18:02Z</time>
      </trkpt>
      <trkpt lat="42.8944430" lon="-2.5523930">
        <ele>523.0</ele>
        <time>2020-09-13T10:18:06Z</time>
      </trkpt>
      <trkpt lat="42.8944430" lon="-2.5523930">
        <ele>523.2</ele>
        <time>2020-09-13T10:18:10Z</time>
      </trkpt>
      <trkpt lat="42.8944430" lon="-2.5523930">
        <ele>523.4</ele>
        <time>2020-09-13T10:18:14Z</time>
      </trkpt>
      <trkpt lat="42.8944430" lon="-2.5523930">
        <ele>523.2</ele>
        <time>2020-09-13T10:18:18Z</time>
      </trkpt>
      <trkpt lat="42.8944430" lon="-2.5523930">
        <ele>523.0</ele>
        <time>2020-09-13T10:18:22Z</time>
      </trkpt>
      <trkpt lat="42.8944430" lon="-2.5523930">
        <ele>523.0</ele>
        <time>2020-09-13T10:18:26Z</time>
      </trkpt>
      <trkpt lat="42.8944430" lon="-2.5523930">
        <ele>523.0</ele>
        <time>2020-09-13T10:18:30Z</time>
      </trkpt>
      <trkpt lat="42.8944430" lon="-2.5523930">
        <ele>522.8</ele>
        <time>2020-09-13T10:18:34Z</time>
      </trkpt>
      <trkpt lat="42.8944430" lon="-2.5523930">
        <ele>523.0</ele>
        <time>2020-09-13T10:18:38Z</time>
      </trkpt>
      <trkpt lat="42.8944430" lon="-2.5523930">
        <ele>523.0</ele>
        <time>2020-09-13T10:18:42Z</time>
      </trkpt>
      <trkpt lat="42.8944430" lon="-2.5523930">
        <ele>523.0</ele>
        <time>2020-09-13T10:18:46Z</time>
      </trkpt>
      <trkpt lat="42.8944430" lon="-2.5523930">
        <ele>523.0</ele>
        <time>2020-09-13T10:18:50Z</time>
      </trkpt>
      <trkpt lat="42.8944430" lon="-2.5523930">
        <ele>522.4</ele>
        <time>2020-09-13T10:18:54Z</time>
      </trkpt>
      <trkpt lat="42.8944430" lon="-2.5523930">
        <ele>523.0</ele>
        <time>2020-09-13T10:18:58Z</time>
      </trkpt>
      <trkpt lat="42.8944430" lon="-2.5523930">
        <ele>522.8</ele>
        <time>2020-09-13T10:19:02Z</time>
      </trkpt>
      <trkpt lat="42.8944480" lon="-2.5522960">
        <ele>522.8</ele>
        <time>2020-09-13T10:19:06Z</time>
      </trkpt>
      <trkpt lat="42.8944550" lon="-2.5522600">
        <ele>523.0</ele>
        <time>2020-09-13T10:19:10Z</time>
      </trkpt>
      <trkpt lat="42.8944580" lon="-2.5521760">
        <ele>523.2</ele>
        <time>2020-09-13T10:19:14Z</time>
      </trkpt>
      <trkpt lat="42.8944600" lon="-2.5520500">
        <ele>523.2</ele>
        <time>2020-09-13T10:19:18Z</time>
      </trkpt>
      <trkpt lat="42.8944560" lon="-2.5518960">
        <ele>523.4</ele>
        <time>2020-09-13T10:19:22Z</time>
      </trkpt>
      <trkpt lat="42.8944450" lon="-2.5517430">
        <ele>523.6</ele>
        <time>2020-09-13T10:19:26Z</time>
      </trkpt>
      <trkpt lat="42.8944250" lon="-2.5515960">
        <ele>523.4</ele>
        <time>2020-09-13T10:19:30Z</time>
      </trkpt>
      <trkpt lat="42.8944180" lon="-2.5514360">
        <ele>523.6</ele>
        <time>2020-09-13T10:19:34Z</time>
      </trkpt>
      <trkpt lat="42.8944210" lon="-2.5513050">
        <ele>523.6</ele>
        <time>2020-09-13T10:19:38Z</time>
      </trkpt>
      <trkpt lat="42.8944260" lon="-2.5512050">
        <ele>523.6</ele>
        <time>2020-09-13T10:19:42Z</time>
      </trkpt>
      <trkpt lat="42.8944460" lon="-2.5511300">
        <ele>523.8</ele>
        <time>2020-09-13T10:19:46Z</time>
      </trkpt>
      <trkpt lat="42.8944580" lon="-2.5510780">
        <ele>524.4</ele>
        <time>2020-09-13T10:19:50Z</time>
      </trkpt>
      <trkpt lat="42.8944900" lon="-2.5510430">
        <ele>525.0</ele>
        <time>2020-09-13T10:19:54Z</time>
      </trkpt>
      <trkpt lat="42.8945160" lon="-2.5510030">
        <ele>524.8</ele>
        <time>2020-09-13T10:19:58Z</time>
      </trkpt>
      <trkpt lat="42.8945250" lon="-2.5509330">
        <ele>525.2</ele>
        <time>2020-09-13T10:20:02Z</time>
      </trkpt>
      <trkpt lat="42.8945410" lon="-2.5508210">
        <ele>525.6</ele>
        <time>2020-09-13T10:20:06Z</time>
      </trkpt>
      <trkpt lat="42.8945580" lon="-2.5507110">
        <ele>526.4</ele>
        <time>2020-09-13T10:20:10Z</time>
      </trkpt>
      <trkpt lat="42.8945530" lon="-2.5505810">
        <ele>526.6</ele>
        <time>2020-09-13T10:20:14Z</time>
      </trkpt>
      <trkpt lat="42.8945550" lon="-2.5504380">
        <ele>526.8</ele>
        <time>2020-09-13T10:20:18Z</time>
      </trkpt>
      <trkpt lat="42.8945680" lon="-2.5502950">
        <ele>526.2</ele>
        <time>2020-09-13T10:20:22Z</time>
      </trkpt>
      <trkpt lat="42.8945800" lon="-2.5501580">
        <ele>525.0</ele>
        <time>2020-09-13T10:20:26Z</time>
      </trkpt>
      <trkpt lat="42.8945950" lon="-2.5500710">
        <ele>525.0</ele>
        <time>2020-09-13T10:20:30Z</time>
      </trkpt>
      <trkpt lat="42.8945950" lon="-2.5500710">
        <ele>525.4</ele>
        <time>2020-09-13T10:20:34Z</time>
      </trkpt>
      <trkpt lat="42.8945950" lon="-2.5500710">
        <ele>525.4</ele>
        <time>2020-09-13T10:20:38Z</time>
      </trkpt>
      <trkpt lat="42.8945810" lon="-2.5500230">
        <ele>524.8</ele>
        <time>2020-09-13T10:20:42Z</time>
      </trkpt>
      <trkpt lat="42.8945610" lon="-2.5499650">
        <ele>523.6</ele>
        <time>2020-09-13T10:20:46Z</time>
      </trkpt>
      <trkpt lat="42.8945230" lon="-2.5498430">
        <ele>524.2</ele>
        <time>2020-09-13T10:20:50Z</time>
      </trkpt>
      <trkpt lat="42.8944860" lon="-2.5497280">
        <ele>522.4</ele>
        <time>2020-09-13T10:20:54Z</time>
      </trkpt>
      <trkpt lat="42.8944310" lon="-2.5496200">
        <ele>521.2</ele>
        <time>2020-09-13T10:20:58Z</time>
      </trkpt>
      <trkpt lat="42.8944000" lon="-2.5495210">
        <ele>519.6</ele>
        <time>2020-09-13T10:21:02Z</time>
      </trkpt>
      <trkpt lat="42.8943980" lon="-2.5494460">
        <ele>518.8</ele>
        <time>2020-09-13T10:21:06Z</time>
      </trkpt>
      <trkpt lat="42.8943980" lon="-2.5494460">
        <ele>519.2</ele>
        <time>2020-09-13T10:21:10Z</time>
      </trkpt>
      <trkpt lat="42.8944030" lon="-2.5494030">
        <ele>518.6</ele>
        <time>2020-09-13T10:21:14Z</time>
      </trkpt>
      <trkpt lat="42.8944030" lon="-2.5494030">
        <ele>518.6</ele>
        <time>2020-09-13T10:21:18Z</time>
      </trkpt>
      <trkpt lat="42.8944030" lon="-2.5494030">
        <ele>518.6</ele>
        <time>2020-09-13T10:21:22Z</time>
      </trkpt>
      <trkpt lat="42.8944030" lon="-2.5494030">
        <ele>518.2</ele>
        <time>2020-09-13T10:21:26Z</time>
      </trkpt>
      <trkpt lat="42.8944030" lon="-2.5494030">
        <ele>518.6</ele>
        <time>2020-09-13T10:21:30Z</time>
      </trkpt>
      <trkpt lat="42.8944030" lon="-2.5494030">
        <ele>519.0</ele>
        <time>2020-09-13T10:21:34Z</time>
      </trkpt>
      <trkpt lat="42.8944030" lon="-2.5494030">
        <ele>520.4</ele>
        <time>2020-09-13T10:21:38Z</time>
      </trkpt>
      <trkpt lat="42.8944030" lon="-2.5494030">
        <ele>520.2</ele>
        <time>2020-09-13T10:21:42Z</time>
      </trkpt>
      <trkpt lat="42.8944030" lon="-2.5494030">
        <ele>519.6</ele>
        <time>2020-09-13T10:21:46Z</time>
      </trkpt>
      <trkpt lat="42.8944030" lon="-2.5494030">
        <ele>519.2</ele>
        <time>2020-09-13T10:21:50Z</time>
      </trkpt>
      <trkpt lat="42.8944030" lon="-2.5494030">
        <ele>519.0</ele>
        <time>2020-09-13T10:21:54Z</time>
      </trkpt>
      <trkpt lat="42.8944030" lon="-2.5494030">
        <ele>519.0</ele>
        <time>2020-09-13T10:21:58Z</time>
      </trkpt>
      <trkpt lat="42.8944030" lon="-2.5494030">
        <ele>519.0</ele>
        <time>2020-09-13T10:22:02Z</time>
      </trkpt>
      <trkpt lat="42.8944030" lon="-2.5494030">
        <ele>518.6</ele>
        <time>2020-09-13T10:22:06Z</time>
      </trkpt>
      <trkpt lat="42.8944030" lon="-2.5494030">
        <ele>519.0</ele>
        <time>2020-09-13T10:22:10Z</time>
      </trkpt>
      <trkpt lat="42.8944030" lon="-2.5494030">
        <ele>518.4</ele>
        <time>2020-09-13T10:22:14Z</time>
      </trkpt>
      <trkpt lat="42.8944030" lon="-2.5494030">
        <ele>518.6</ele>
        <time>2020-09-13T10:22:18Z</time>
      </trkpt>
      <trkpt lat="42.8944030" lon="-2.5494030">
        <ele>519.2</ele>
        <time>2020-09-13T10:22:22Z</time>
      </trkpt>
      <trkpt lat="42.8944030" lon="-2.5494030">
        <ele>519.0</ele>
        <time>2020-09-13T10:22:26Z</time>
      </trkpt>
      <trkpt lat="42.8944030" lon="-2.5494030">
        <ele>519.2</ele>
        <time>2020-09-13T10:22:30Z</time>
      </trkpt>
      <trkpt lat="42.8944030" lon="-2.5494030">
        <ele>519.2</ele>
        <time>2020-09-13T10:22:34Z</time>
      </trkpt>
      <trkpt lat="42.8944030" lon="-2.5494030">
        <ele>519.2</ele>
        <time>2020-09-13T10:22:38Z</time>
      </trkpt>
      <trkpt lat="42.8944030" lon="-2.5494030">
        <ele>519.6</ele>
        <time>2020-09-13T10:22:42Z</time>
      </trkpt>
      <trkpt lat="42.8944030" lon="-2.5494030">
        <ele>519.8</ele>
        <time>2020-09-13T10:22:46Z</time>
      </trkpt>
      <trkpt lat="42.8944030" lon="-2.5494030">
        <ele>519.8</ele>
        <time>2020-09-13T10:22:50Z</time>
      </trkpt>
      <trkpt lat="42.8944030" lon="-2.5494030">
        <ele>519.2</ele>
        <time>2020-09-13T10:22:54Z</time>
      </trkpt>
      <trkpt lat="42.8944030" lon="-2.5494030">
        <ele>519.0</ele>
        <time>2020-09-13T10:22:58Z</time>
      </trkpt>
      <trkpt lat="42.8944030" lon="-2.5494030">
        <ele>519.0</ele>
        <time>2020-09-13T10:23:02Z</time>
      </trkpt>
      <trkpt lat="42.8944160" lon="-2.5493600">
        <ele>519.2</ele>
        <time>2020-09-13T10:23:06Z</time>
      </trkpt>
      <trkpt lat="42.8944430" lon="-2.5493330">
        <ele>519.6</ele>
        <time>2020-09-13T10:23:10Z</time>
      </trkpt>
      <trkpt lat="42.8944960" lon="-2.5492980">
        <ele>520.0</ele>
        <time>2020-09-13T10:23:14Z</time>
      </trkpt>
      <trkpt lat="42.8945710" lon="-2.5493150">
        <ele>519.2</ele>
        <time>2020-09-13T10:23:18Z</time>
      </trkpt>
      <trkpt lat="42.8946260" lon="-2.5493530">
        <ele>519.2</ele>
        <time>2020-09-13T10:23:22Z</time>
      </trkpt>
      <trkpt lat="42.8946600" lon="-2.5493710">
        <ele>519.4</ele>
        <time>2020-09-13T10:23:26Z</time>
      </trkpt>
      <trkpt lat="42.8946600" lon="-2.5493710">
        <ele>519.2</ele>
        <time>2020-09-13T10:23:30Z</time>
      </trkpt>
      <trkpt lat="42.8946810" lon="-2.5493980">
        <ele>519.2</ele>
        <time>2020-09-13T10:23:34Z</time>
      </trkpt>
      <trkpt lat="42.8947050" lon="-2.5493750">
        <ele>519.6</ele>
        <time>2020-09-13T10:23:38Z</time>
      </trkpt>
      <trkpt lat="42.8947050" lon="-2.5493750">
        <ele>519.4</ele>
        <time>2020-09-13T10:23:42Z</time>
      </trkpt>
      <trkpt lat="42.8947050" lon="-2.5493750">
        <ele>519.6</ele>
        <time>2020-09-13T10:23:46Z</time>
      </trkpt>
      <trkpt lat="42.8947050" lon="-2.5493750">
        <ele>519.8</ele>
        <time>2020-09-13T10:23:50Z</time>
      </trkpt>
      <trkpt lat="42.8947050" lon="-2.5493750">
        <ele>520.2</ele>
        <time>2020-09-13T10:23:54Z</time>
      </trkpt>
      <trkpt lat="42.8947200" lon="-2.5493430">
        <ele>519.6</ele>
        <time>2020-09-13T10:23:58Z</time>
      </trkpt>
      <trkpt lat="42.8947280" lon="-2.5493150">
        <ele>519.4</ele>
        <time>2020-09-13T10:24:02Z</time>
      </trkpt>
      <trkpt lat="42.8947410" lon="-2.5492700">
        <ele>520.4</ele>
        <time>2020-09-13T10:24:06Z</time>
      </trkpt>
      <trkpt lat="42.8947500" lon="-2.5492060">
        <ele>519.6</ele>
        <time>2020-09-13T10:24:10Z</time>
      </trkpt>
      <trkpt lat="42.8947610" lon="-2.5491210">
        <ele>519.6</ele>
        <time>2020-09-13T10:24:14Z</time>
      </trkpt>
      <trkpt lat="42.8947660" lon="-2.5490080">
        <ele>519.8</ele>
        <time>2020-09-13T10:24:18Z</time>
      </trkpt>
      <trkpt lat="42.8947760" lon="-2.5489060">
        <ele>519.4</ele>
        <time>2020-09-13T10:24:22Z</time>
      </trkpt>
      <trkpt lat="42.8947950" lon="-2.5487900">
        <ele>520.0</ele>
        <time>2020-09-13T10:24:26Z</time>
      </trkpt>
      <trkpt lat="42.8948110" lon="-2.5486600">
        <ele>520.4</ele>
        <time>2020-09-13T10:24:30Z</time>
      </trkpt>
      <trkpt lat="42.8948180" lon="-2.5485200">
        <ele>520.0</ele>
        <time>2020-09-13T10:24:34Z</time>
      </trkpt>
      <trkpt lat="42.8948260" lon="-2.5483950">
        <ele>520.0</ele>
        <time>2020-09-13T10:24:38Z</time>
      </trkpt>
      <trkpt lat="42.8948310" lon="-2.5483010">
        <ele>519.8</ele>
        <time>2020-09-13T10:24:42Z</time>
      </trkpt>
      <trkpt lat="42.8948310" lon="-2.5483010">
        <ele>519.6</ele>
        <time>2020-09-13T10:24:46Z</time>
      </trkpt>
      <trkpt lat="42.8948310" lon="-2.5483010">
        <ele>519.4</ele>
        <time>2020-09-13T10:24:50Z</time>
      </trkpt>
      <trkpt lat="42.8948300" lon="-2.5482350">
        <ele>519.6</ele>
        <time>2020-09-13T10:24:54Z</time>
      </trkpt>
      <trkpt lat="42.8948300" lon="-2.5482350">
        <ele>519.6</ele>
        <time>2020-09-13T10:24:58Z</time>
      </trkpt>
      <trkpt lat="42.8948300" lon="-2.5482350">
        <ele>519.4</ele>
        <time>2020-09-13T10:25:02Z</time>
      </trkpt>
      <trkpt lat="42.8948300" lon="-2.5482350">
        <ele>519.6</ele>
        <time>2020-09-13T10:25:06Z</time>
      </trkpt>
      <trkpt lat="42.8948300" lon="-2.5482350">
        <ele>520.2</ele>
        <time>2020-09-13T10:25:10Z</time>
      </trkpt>
      <trkpt lat="42.8948300" lon="-2.5482350">
        <ele>519.8</ele>
        <time>2020-09-13T10:25:14Z</time>
      </trkpt>
      <trkpt lat="42.8948300" lon="-2.5482350">
        <ele>519.8</ele>
        <time>2020-09-13T10:25:18Z</time>
      </trkpt>
      <trkpt lat="42.8948300" lon="-2.5482350">
        <ele>519.4</ele>
        <time>2020-09-13T10:25:22Z</time>
      </trkpt>
      <trkpt lat="42.8948300" lon="-2.5482350">
        <ele>519.4</ele>
        <time>2020-09-13T10:25:26Z</time>
      </trkpt>
      <trkpt lat="42.8948300" lon="-2.5482350">
        <ele>519.4</ele>
        <time>2020-09-13T10:25:30Z</time>
      </trkpt>
      <trkpt lat="42.8948300" lon="-2.5482350">
        <ele>519.4</ele>
        <time>2020-09-13T10:25:34Z</time>
      </trkpt>
      <trkpt lat="42.8948300" lon="-2.5482350">
        <ele>519.2</ele>
        <time>2020-09-13T10:25:38Z</time>
      </trkpt>
      <trkpt lat="42.8948300" lon="-2.5482350">
        <ele>519.4</ele>
        <time>2020-09-13T10:25:42Z</time>
      </trkpt>
      <trkpt lat="42.8948300" lon="-2.5482350">
        <ele>519.8</ele>
        <time>2020-09-13T10:25:46Z</time>
      </trkpt>
      <trkpt lat="42.8948300" lon="-2.5482350">
        <ele>519.6</ele>
        <time>2020-09-13T10:25:50Z</time>
      </trkpt>
      <trkpt lat="42.8948300" lon="-2.5482350">
        <ele>520.0</ele>
        <time>2020-09-13T10:25:54Z</time>
      </trkpt>
      <trkpt lat="42.8948300" lon="-2.5482350">
        <ele>519.8</ele>
        <time>2020-09-13T10:25:58Z</time>
      </trkpt>
      <trkpt lat="42.8948300" lon="-2.5482350">
        <ele>519.6</ele>
        <time>2020-09-13T10:26:02Z</time>
      </trkpt>
      <trkpt lat="42.8948300" lon="-2.5482350">
        <ele>519.8</ele>
        <time>2020-09-13T10:26:06Z</time>
      </trkpt>
      <trkpt lat="42.8948300" lon="-2.5482350">
        <ele>519.8</ele>
        <time>2020-09-13T10:26:10Z</time>
      </trkpt>
      <trkpt lat="42.8948300" lon="-2.5482350">
        <ele>520.4</ele>
        <time>2020-09-13T10:26:14Z</time>
      </trkpt>
      <trkpt lat="42.8948300" lon="-2.5482350">
        <ele>520.0</ele>
        <time>2020-09-13T10:26:18Z</time>
      </trkpt>
      <trkpt lat="42.8948660" lon="-2.5482030">
        <ele>520.8</ele>
        <time>2020-09-13T10:26:22Z</time>
      </trkpt>
      <trkpt lat="42.8948500" lon="-2.5481080">
        <ele>520.4</ele>
        <time>2020-09-13T10:26:26Z</time>
      </trkpt>
      <trkpt lat="42.8948050" lon="-2.5480000">
        <ele>520.4</ele>
        <time>2020-09-13T10:26:30Z</time>
      </trkpt>
      <trkpt lat="42.8947760" lon="-2.5479560">
        <ele>521.0</ele>
        <time>2020-09-13T10:26:34Z</time>
      </trkpt>
      <trkpt lat="42.8947760" lon="-2.5479560">
        <ele>520.4</ele>
        <time>2020-09-13T10:26:38Z</time>
      </trkpt>
      <trkpt lat="42.8947760" lon="-2.5479560">
        <ele>520.2</ele>
        <time>2020-09-13T10:26:42Z</time>
      </trkpt>
      <trkpt lat="42.8947760" lon="-2.5479560">
        <ele>520.0</ele>
        <time>2020-09-13T10:26:46Z</time>
      </trkpt>
      <trkpt lat="42.8947760" lon="-2.5479560">
        <ele>519.8</ele>
        <time>2020-09-13T10:26:50Z</time>
      </trkpt>
      <trkpt lat="42.8947180" lon="-2.5479710">
        <ele>519.2</ele>
        <time>2020-09-13T10:26:54Z</time>
      </trkpt>
      <trkpt lat="42.8947000" lon="-2.5479930">
        <ele>518.8</ele>
        <time>2020-09-13T10:26:58Z</time>
      </trkpt>
      <trkpt lat="42.8947000" lon="-2.5479930">
        <ele>518.4</ele>
        <time>2020-09-13T10:27:02Z</time>
      </trkpt>
      <trkpt lat="42.8947000" lon="-2.5479930">
        <ele>518.4</ele>
        <time>2020-09-13T10:27:06Z</time>
      </trkpt>
      <trkpt lat="42.8947000" lon="-2.5479930">
        <ele>518.2</ele>
        <time>2020-09-13T10:27:10Z</time>
      </trkpt>
      <trkpt lat="42.8947000" lon="-2.5479930">
        <ele>518.2</ele>
        <time>2020-09-13T10:27:14Z</time>
      </trkpt>
      <trkpt lat="42.8947000" lon="-2.5479930">
        <ele>517.8</ele>
        <time>2020-09-13T10:27:18Z</time>
      </trkpt>
      <trkpt lat="42.8947000" lon="-2.5479930">
        <ele>518.2</ele>
        <time>2020-09-13T10:27:22Z</time>
      </trkpt>
      <trkpt lat="42.8947000" lon="-2.5479930">
        <ele>518.0</ele>
        <time>2020-09-13T10:27:26Z</time>
      </trkpt>
      <trkpt lat="42.8947000" lon="-2.5479930">
        <ele>518.2</ele>
        <time>2020-09-13T10:27:30Z</time>
      </trkpt>
      <trkpt lat="42.8947000" lon="-2.5479930">
        <ele>518.2</ele>
        <time>2020-09-13T10:27:34Z</time>
      </trkpt>
      <trkpt lat="42.8947000" lon="-2.5479930">
        <ele>518.4</ele>
        <time>2020-09-13T10:27:38Z</time>
      </trkpt>
      <trkpt lat="42.8947000" lon="-2.5479930">
        <ele>518.4</ele>
        <time>2020-09-13T10:27:42Z</time>
      </trkpt>
      <trkpt lat="42.8947000" lon="-2.5479930">
        <ele>518.4</ele>
        <time>2020-09-13T10:27:46Z</time>
      </trkpt>
      <trkpt lat="42.8947000" lon="-2.5479930">
        <ele>518.2</ele>
        <time>2020-09-13T10:27:50Z</time>
      </trkpt>
      <trkpt lat="42.8947000" lon="-2.5479930">
        <ele>518.0</ele>
        <time>2020-09-13T10:27:54Z</time>
      </trkpt>
      <trkpt lat="42.8947000" lon="-2.5479930">
        <ele>518.0</ele>
        <time>2020-09-13T10:27:58Z</time>
      </trkpt>
      <trkpt lat="42.8947000" lon="-2.5479930">
        <ele>517.8</ele>
        <time>2020-09-13T10:28:02Z</time>
      </trkpt>
      <trkpt lat="42.8947000" lon="-2.5479930">
        <ele>517.6</ele>
        <time>2020-09-13T10:28:06Z</time>
      </trkpt>
      <trkpt lat="42.8947000" lon="-2.5479930">
        <ele>517.6</ele>
        <time>2020-09-13T10:28:10Z</time>
      </trkpt>
      <trkpt lat="42.8947000" lon="-2.5479930">
        <ele>517.8</ele>
        <time>2020-09-13T10:28:14Z</time>
      </trkpt>
      <trkpt lat="42.8947000" lon="-2.5479930">
        <ele>517.8</ele>
        <time>2020-09-13T10:28:18Z</time>
      </trkpt>
      <trkpt lat="42.8947000" lon="-2.5479930">
        <ele>518.4</ele>
        <time>2020-09-13T10:28:22Z</time>
      </trkpt>
      <trkpt lat="42.8947000" lon="-2.5479930">
        <ele>518.2</ele>
        <time>2020-09-13T10:28:26Z</time>
      </trkpt>
      <trkpt lat="42.8947000" lon="-2.5479930">
        <ele>518.2</ele>
        <time>2020-09-13T10:28:30Z</time>
      </trkpt>
      <trkpt lat="42.8947000" lon="-2.5479930">
        <ele>518.2</ele>
        <time>2020-09-13T10:28:34Z</time>
      </trkpt>
      <trkpt lat="42.8947000" lon="-2.5479930">
        <ele>518.2</ele>
        <time>2020-09-13T10:28:38Z</time>
      </trkpt>
      <trkpt lat="42.8947000" lon="-2.5479930">
        <ele>518.4</ele>
        <time>2020-09-13T10:28:42Z</time>
      </trkpt>
      <trkpt lat="42.8947000" lon="-2.5479930">
        <ele>518.4</ele>
        <time>2020-09-13T10:28:46Z</time>
      </trkpt>
      <trkpt lat="42.8947000" lon="-2.5479930">
        <ele>517.8</ele>
        <time>2020-09-13T10:28:50Z</time>
      </trkpt>
      <trkpt lat="42.8947000" lon="-2.5479930">
        <ele>518.4</ele>
        <time>2020-09-13T10:28:54Z</time>
      </trkpt>
      <trkpt lat="42.8947000" lon="-2.5479930">
        <ele>517.8</ele>
        <time>2020-09-13T10:28:58Z</time>
      </trkpt>
      <trkpt lat="42.8947000" lon="-2.5479930">
        <ele>518.2</ele>
        <time>2020-09-13T10:29:02Z</time>
      </trkpt>
      <trkpt lat="42.8947000" lon="-2.5479930">
        <ele>518.6</ele>
        <time>2020-09-13T10:29:06Z</time>
      </trkpt>
      <trkpt lat="42.8947000" lon="-2.5479930">
        <ele>518.0</ele>
        <time>2020-09-13T10:29:10Z</time>
      </trkpt>
      <trkpt lat="42.8947000" lon="-2.5479930">
        <ele>517.8</ele>
        <time>2020-09-13T10:29:14Z</time>
      </trkpt>
      <trkpt lat="42.8947000" lon="-2.5479930">
        <ele>518.4</ele>
        <time>2020-09-13T10:29:18Z</time>
      </trkpt>
      <trkpt lat="42.8947000" lon="-2.5479930">
        <ele>518.4</ele>
        <time>2020-09-13T10:29:22Z</time>
      </trkpt>
      <trkpt lat="42.8947000" lon="-2.5479930">
        <ele>518.2</ele>
        <time>2020-09-13T10:29:26Z</time>
      </trkpt>
      <trkpt lat="42.8947000" lon="-2.5479930">
        <ele>518.4</ele>
        <time>2020-09-13T10:29:30Z</time>
      </trkpt>
      <trkpt lat="42.8947000" lon="-2.5479930">
        <ele>518.4</ele>
        <time>2020-09-13T10:29:34Z</time>
      </trkpt>
      <trkpt lat="42.8947000" lon="-2.5479930">
        <ele>517.8</ele>
        <time>2020-09-13T10:29:38Z</time>
      </trkpt>
      <trkpt lat="42.8947000" lon="-2.5479930">
        <ele>518.4</ele>
        <time>2020-09-13T10:29:42Z</time>
      </trkpt>
      <trkpt lat="42.8947000" lon="-2.5479930">
        <ele>518.2</ele>
        <time>2020-09-13T10:29:46Z</time>
      </trkpt>
      <trkpt lat="42.8947000" lon="-2.5479930">
        <ele>518.2</ele>
        <time>2020-09-13T10:29:50Z</time>
      </trkpt>
      <trkpt lat="42.8947000" lon="-2.5479930">
        <ele>518.4</ele>
        <time>2020-09-13T10:29:54Z</time>
      </trkpt>
      <trkpt lat="42.8947000" lon="-2.5479930">
        <ele>518.0</ele>
        <time>2020-09-13T10:29:58Z</time>
      </trkpt>
      <trkpt lat="42.8947000" lon="-2.5479930">
        <ele>518.2</ele>
        <time>2020-09-13T10:30:02Z</time>
      </trkpt>
      <trkpt lat="42.8947000" lon="-2.5479930">
        <ele>518.2</ele>
        <time>2020-09-13T10:30:06Z</time>
      </trkpt>
      <trkpt lat="42.8947000" lon="-2.5479930">
        <ele>518.0</ele>
        <time>2020-09-13T10:30:10Z</time>
      </trkpt>
      <trkpt lat="42.8947000" lon="-2.5479930">
        <ele>517.6</ele>
        <time>2020-09-13T10:30:14Z</time>
      </trkpt>
      <trkpt lat="42.8947000" lon="-2.5479930">
        <ele>518.4</ele>
        <time>2020-09-13T10:30:18Z</time>
      </trkpt>
      <trkpt lat="42.8947000" lon="-2.5479930">
        <ele>518.2</ele>
        <time>2020-09-13T10:30:22Z</time>
      </trkpt>
      <trkpt lat="42.8947000" lon="-2.5479930">
        <ele>518.2</ele>
        <time>2020-09-13T10:30:26Z</time>
      </trkpt>
      <trkpt lat="42.8947000" lon="-2.5479930">
        <ele>518.4</ele>
        <time>2020-09-13T10:30:30Z</time>
      </trkpt>
      <trkpt lat="42.8947000" lon="-2.5479930">
        <ele>518.4</ele>
        <time>2020-09-13T10:30:34Z</time>
      </trkpt>
      <trkpt lat="42.8947000" lon="-2.5479930">
        <ele>518.8</ele>
        <time>2020-09-13T10:30:38Z</time>
      </trkpt>
      <trkpt lat="42.8947000" lon="-2.5479930">
        <ele>518.6</ele>
        <time>2020-09-13T10:30:42Z</time>
      </trkpt>
      <trkpt lat="42.8947000" lon="-2.5479930">
        <ele>518.8</ele>
        <time>2020-09-13T10:30:46Z</time>
      </trkpt>
      <trkpt lat="42.8947000" lon="-2.5479930">
        <ele>519.0</ele>
        <time>2020-09-13T10:30:50Z</time>
      </trkpt>
      <trkpt lat="42.8947000" lon="-2.5479930">
        <ele>518.6</ele>
        <time>2020-09-13T10:30:54Z</time>
      </trkpt>
      <trkpt lat="42.8947000" lon="-2.5479930">
        <ele>518.4</ele>
        <time>2020-09-13T10:30:58Z</time>
      </trkpt>
      <trkpt lat="42.8947000" lon="-2.5479930">
        <ele>518.6</ele>
        <time>2020-09-13T10:31:02Z</time>
      </trkpt>
      <trkpt lat="42.8947000" lon="-2.5479930">
        <ele>518.6</ele>
        <time>2020-09-13T10:31:06Z</time>
      </trkpt>
      <trkpt lat="42.8947000" lon="-2.5479930">
        <ele>518.8</ele>
        <time>2020-09-13T10:31:10Z</time>
      </trkpt>
      <trkpt lat="42.8947000" lon="-2.5479930">
        <ele>518.6</ele>
        <time>2020-09-13T10:31:14Z</time>
      </trkpt>
      <trkpt lat="42.8947000" lon="-2.5479930">
        <ele>518.4</ele>
        <time>2020-09-13T10:31:18Z</time>
      </trkpt>
      <trkpt lat="42.8947000" lon="-2.5479930">
        <ele>518.4</ele>
        <time>2020-09-13T10:31:22Z</time>
      </trkpt>
      <trkpt lat="42.8947000" lon="-2.5479930">
        <ele>518.4</ele>
        <time>2020-09-13T10:31:26Z</time>
      </trkpt>
      <trkpt lat="42.8947000" lon="-2.5479930">
        <ele>518.4</ele>
        <time>2020-09-13T10:31:30Z</time>
      </trkpt>
      <trkpt lat="42.8947000" lon="-2.5479930">
        <ele>518.4</ele>
        <time>2020-09-13T10:31:34Z</time>
      </trkpt>
      <trkpt lat="42.8947000" lon="-2.5479930">
        <ele>518.4</ele>
        <time>2020-09-13T10:31:38Z</time>
      </trkpt>
      <trkpt lat="42.8947000" lon="-2.5479930">
        <ele>518.2</ele>
        <time>2020-09-13T10:31:42Z</time>
      </trkpt>
      <trkpt lat="42.8947000" lon="-2.5479930">
        <ele>518.6</ele>
        <time>2020-09-13T10:31:46Z</time>
      </trkpt>
      <trkpt lat="42.8947000" lon="-2.5479930">
        <ele>518.2</ele>
        <time>2020-09-13T10:31:50Z</time>
      </trkpt>
      <trkpt lat="42.8947000" lon="-2.5479930">
        <ele>518.4</ele>
        <time>2020-09-13T10:31:54Z</time>
      </trkpt>
      <trkpt lat="42.8947000" lon="-2.5479930">
        <ele>518.2</ele>
        <time>2020-09-13T10:31:58Z</time>
      </trkpt>
      <trkpt lat="42.8947000" lon="-2.5479930">
        <ele>518.2</ele>
        <time>2020-09-13T10:32:02Z</time>
      </trkpt>
      <trkpt lat="42.8947000" lon="-2.5479930">
        <ele>518.2</ele>
        <time>2020-09-13T10:32:06Z</time>
      </trkpt>
      <trkpt lat="42.8947000" lon="-2.5479930">
        <ele>518.6</ele>
        <time>2020-09-13T10:32:10Z</time>
      </trkpt>
      <trkpt lat="42.8947000" lon="-2.5479930">
        <ele>518.8</ele>
        <time>2020-09-13T10:32:14Z</time>
      </trkpt>
      <trkpt lat="42.8947000" lon="-2.5479930">
        <ele>518.6</ele>
        <time>2020-09-13T10:32:18Z</time>
      </trkpt>
      <trkpt lat="42.8947000" lon="-2.5479930">
        <ele>518.8</ele>
        <time>2020-09-13T10:32:22Z</time>
      </trkpt>
      <trkpt lat="42.8947000" lon="-2.5479930">
        <ele>518.4</ele>
        <time>2020-09-13T10:32:26Z</time>
      </trkpt>
      <trkpt lat="42.8947000" lon="-2.5479930">
        <ele>518.4</ele>
        <time>2020-09-13T10:32:30Z</time>
      </trkpt>
      <trkpt lat="42.8947000" lon="-2.5479930">
        <ele>518.4</ele>
        <time>2020-09-13T10:32:34Z</time>
      </trkpt>
      <trkpt lat="42.8947000" lon="-2.5479930">
        <ele>518.4</ele>
        <time>2020-09-13T10:32:38Z</time>
      </trkpt>
      <trkpt lat="42.8947000" lon="-2.5479930">
        <ele>519.0</ele>
        <time>2020-09-13T10:32:42Z</time>
      </trkpt>
      <trkpt lat="42.8947000" lon="-2.5479930">
        <ele>518.4</ele>
        <time>2020-09-13T10:32:46Z</time>
      </trkpt>
      <trkpt lat="42.8947000" lon="-2.5479930">
        <ele>518.6</ele>
        <time>2020-09-13T10:32:50Z</time>
      </trkpt>
      <trkpt lat="42.8947000" lon="-2.5479930">
        <ele>518.6</ele>
        <time>2020-09-13T10:32:54Z</time>
      </trkpt>
      <trkpt lat="42.8947000" lon="-2.5479930">
        <ele>518.4</ele>
        <time>2020-09-13T10:32:58Z</time>
      </trkpt>
      <trkpt lat="42.8947000" lon="-2.5479930">
        <ele>518.8</ele>
        <time>2020-09-13T10:33:02Z</time>
      </trkpt>
      <trkpt lat="42.8947000" lon="-2.5479930">
        <ele>518.8</ele>
        <time>2020-09-13T10:33:06Z</time>
      </trkpt>
      <trkpt lat="42.8947000" lon="-2.5479930">
        <ele>518.6</ele>
        <time>2020-09-13T10:33:10Z</time>
      </trkpt>
      <trkpt lat="42.8947000" lon="-2.5479930">
        <ele>518.4</ele>
        <time>2020-09-13T10:33:14Z</time>
      </trkpt>
      <trkpt lat="42.8947000" lon="-2.5479930">
        <ele>518.6</ele>
        <time>2020-09-13T10:33:18Z</time>
      </trkpt>
      <trkpt lat="42.8947000" lon="-2.5479930">
        <ele>518.4</ele>
        <time>2020-09-13T10:33:22Z</time>
      </trkpt>
      <trkpt lat="42.8947000" lon="-2.5479930">
        <ele>519.2</ele>
        <time>2020-09-13T10:33:26Z</time>
      </trkpt>
      <trkpt lat="42.8947000" lon="-2.5479930">
        <ele>518.8</ele>
        <time>2020-09-13T10:33:30Z</time>
      </trkpt>
      <trkpt lat="42.8947000" lon="-2.5479930">
        <ele>518.6</ele>
        <time>2020-09-13T10:33:34Z</time>
      </trkpt>
      <trkpt lat="42.8947000" lon="-2.5479930">
        <ele>518.8</ele>
        <time>2020-09-13T10:33:38Z</time>
      </trkpt>
      <trkpt lat="42.8947000" lon="-2.5479930">
        <ele>518.6</ele>
        <time>2020-09-13T10:33:42Z</time>
      </trkpt>
      <trkpt lat="42.8947000" lon="-2.5479930">
        <ele>518.8</ele>
        <time>2020-09-13T10:33:46Z</time>
      </trkpt>
      <trkpt lat="42.8947000" lon="-2.5479930">
        <ele>518.4</ele>
        <time>2020-09-13T10:33:50Z</time>
      </trkpt>
      <trkpt lat="42.8947000" lon="-2.5479930">
        <ele>518.4</ele>
        <time>2020-09-13T10:33:54Z</time>
      </trkpt>
      <trkpt lat="42.8947000" lon="-2.5479930">
        <ele>518.2</ele>
        <time>2020-09-13T10:33:58Z</time>
      </trkpt>
      <trkpt lat="42.8947000" lon="-2.5479930">
        <ele>519.4</ele>
        <time>2020-09-13T10:34:02Z</time>
      </trkpt>
      <trkpt lat="42.8947000" lon="-2.5479930">
        <ele>519.2</ele>
        <time>2020-09-13T10:34:06Z</time>
      </trkpt>
      <trkpt lat="42.8947000" lon="-2.5479930">
        <ele>519.0</ele>
        <time>2020-09-13T10:34:10Z</time>
      </trkpt>
      <trkpt lat="42.8947000" lon="-2.5479930">
        <ele>519.0</ele>
        <time>2020-09-13T10:34:14Z</time>
      </trkpt>
      <trkpt lat="42.8947000" lon="-2.5479930">
        <ele>518.8</ele>
        <time>2020-09-13T10:34:18Z</time>
      </trkpt>
      <trkpt lat="42.8947000" lon="-2.5479930">
        <ele>518.8</ele>
        <time>2020-09-13T10:34:22Z</time>
      </trkpt>
      <trkpt lat="42.8947000" lon="-2.5479930">
        <ele>519.0</ele>
        <time>2020-09-13T10:34:26Z</time>
      </trkpt>
      <trkpt lat="42.8947000" lon="-2.5479930">
        <ele>518.8</ele>
        <time>2020-09-13T10:34:30Z</time>
      </trkpt>
      <trkpt lat="42.8947000" lon="-2.5479930">
        <ele>518.8</ele>
        <time>2020-09-13T10:34:34Z</time>
      </trkpt>
      <trkpt lat="42.8947000" lon="-2.5479930">
        <ele>519.0</ele>
        <time>2020-09-13T10:34:38Z</time>
      </trkpt>
      <trkpt lat="42.8947000" lon="-2.5479930">
        <ele>519.4</ele>
        <time>2020-09-13T10:34:42Z</time>
      </trkpt>
      <trkpt lat="42.8947000" lon="-2.5479930">
        <ele>519.0</ele>
        <time>2020-09-13T10:34:46Z</time>
      </trkpt>
      <trkpt lat="42.8947000" lon="-2.5479930">
        <ele>518.6</ele>
        <time>2020-09-13T10:34:50Z</time>
      </trkpt>
      <trkpt lat="42.8947000" lon="-2.5479930">
        <ele>519.0</ele>
        <time>2020-09-13T10:34:54Z</time>
      </trkpt>
      <trkpt lat="42.8947000" lon="-2.5479930">
        <ele>518.8</ele>
        <time>2020-09-13T10:34:58Z</time>
      </trkpt>
      <trkpt lat="42.8947000" lon="-2.5479930">
        <ele>519.0</ele>
        <time>2020-09-13T10:35:02Z</time>
      </trkpt>
      <trkpt lat="42.8947000" lon="-2.5479930">
        <ele>518.6</ele>
        <time>2020-09-13T10:35:06Z</time>
      </trkpt>
      <trkpt lat="42.8947000" lon="-2.5479930">
        <ele>519.4</ele>
        <time>2020-09-13T10:35:10Z</time>
      </trkpt>
      <trkpt lat="42.8947000" lon="-2.5479930">
        <ele>519.4</ele>
        <time>2020-09-13T10:35:14Z</time>
      </trkpt>
      <trkpt lat="42.8947000" lon="-2.5479930">
        <ele>519.6</ele>
        <time>2020-09-13T10:35:18Z</time>
      </trkpt>
      <trkpt lat="42.8947000" lon="-2.5479930">
        <ele>518.6</ele>
        <time>2020-09-13T10:35:22Z</time>
      </trkpt>
      <trkpt lat="42.8947000" lon="-2.5479930">
        <ele>518.8</ele>
        <time>2020-09-13T10:35:26Z</time>
      </trkpt>
      <trkpt lat="42.8947000" lon="-2.5479930">
        <ele>519.0</ele>
        <time>2020-09-13T10:35:30Z</time>
      </trkpt>
      <trkpt lat="42.8947000" lon="-2.5479930">
        <ele>518.6</ele>
        <time>2020-09-13T10:35:34Z</time>
      </trkpt>
      <trkpt lat="42.8947000" lon="-2.5479930">
        <ele>519.2</ele>
        <time>2020-09-13T10:35:38Z</time>
      </trkpt>
      <trkpt lat="42.8947000" lon="-2.5479930">
        <ele>519.2</ele>
        <time>2020-09-13T10:35:42Z</time>
      </trkpt>
      <trkpt lat="42.8947000" lon="-2.5479930">
        <ele>519.4</ele>
        <time>2020-09-13T10:35:46Z</time>
      </trkpt>
      <trkpt lat="42.8947000" lon="-2.5479930">
        <ele>519.0</ele>
        <time>2020-09-13T10:35:50Z</time>
      </trkpt>
      <trkpt lat="42.8947000" lon="-2.5479930">
        <ele>519.0</ele>
        <time>2020-09-13T10:35:54Z</time>
      </trkpt>
      <trkpt lat="42.8947000" lon="-2.5479930">
        <ele>518.8</ele>
        <time>2020-09-13T10:35:58Z</time>
      </trkpt>
      <trkpt lat="42.8947000" lon="-2.5479930">
        <ele>518.6</ele>
        <time>2020-09-13T10:36:02Z</time>
      </trkpt>
      <trkpt lat="42.8947000" lon="-2.5479930">
        <ele>519.0</ele>
        <time>2020-09-13T10:36:06Z</time>
      </trkpt>
      <trkpt lat="42.8947000" lon="-2.5479930">
        <ele>518.8</ele>
        <time>2020-09-13T10:36:10Z</time>
      </trkpt>
      <trkpt lat="42.8947000" lon="-2.5479930">
        <ele>518.6</ele>
        <time>2020-09-13T10:36:14Z</time>
      </trkpt>
      <trkpt lat="42.8947000" lon="-2.5479930">
        <ele>518.8</ele>
        <time>2020-09-13T10:36:18Z</time>
      </trkpt>
      <trkpt lat="42.8947000" lon="-2.5479930">
        <ele>519.4</ele>
        <time>2020-09-13T10:36:22Z</time>
      </trkpt>
      <trkpt lat="42.8947000" lon="-2.5479930">
        <ele>519.0</ele>
        <time>2020-09-13T10:36:26Z</time>
      </trkpt>
      <trkpt lat="42.8947000" lon="-2.5479930">
        <ele>518.8</ele>
        <time>2020-09-13T10:36:30Z</time>
      </trkpt>
      <trkpt lat="42.8947000" lon="-2.5479930">
        <ele>518.8</ele>
        <time>2020-09-13T10:36:34Z</time>
      </trkpt>
      <trkpt lat="42.8947000" lon="-2.5479930">
        <ele>519.0</ele>
        <time>2020-09-13T10:36:38Z</time>
      </trkpt>
      <trkpt lat="42.8947000" lon="-2.5479930">
        <ele>519.0</ele>
        <time>2020-09-13T10:36:42Z</time>
      </trkpt>
      <trkpt lat="42.8947000" lon="-2.5479930">
        <ele>518.6</ele>
        <time>2020-09-13T10:36:46Z</time>
      </trkpt>
      <trkpt lat="42.8947000" lon="-2.5479930">
        <ele>519.0</ele>
        <time>2020-09-13T10:36:50Z</time>
      </trkpt>
      <trkpt lat="42.8947000" lon="-2.5479930">
        <ele>519.0</ele>
        <time>2020-09-13T10:36:54Z</time>
      </trkpt>
      <trkpt lat="42.8947000" lon="-2.5479930">
        <ele>519.2</ele>
        <time>2020-09-13T10:36:58Z</time>
      </trkpt>
      <trkpt lat="42.8947000" lon="-2.5479930">
        <ele>518.8</ele>
        <time>2020-09-13T10:37:02Z</time>
      </trkpt>
      <trkpt lat="42.8947000" lon="-2.5479930">
        <ele>518.8</ele>
        <time>2020-09-13T10:37:06Z</time>
      </trkpt>
      <trkpt lat="42.8947000" lon="-2.5479930">
        <ele>519.6</ele>
        <time>2020-09-13T10:37:10Z</time>
      </trkpt>
      <trkpt lat="42.8947000" lon="-2.5479930">
        <ele>518.4</ele>
        <time>2020-09-13T10:37:14Z</time>
      </trkpt>
      <trkpt lat="42.8947000" lon="-2.5479930">
        <ele>518.6</ele>
        <time>2020-09-13T10:37:18Z</time>
      </trkpt>
      <trkpt lat="42.8947000" lon="-2.5479930">
        <ele>518.8</ele>
        <time>2020-09-13T10:37:22Z</time>
      </trkpt>
      <trkpt lat="42.8947000" lon="-2.5479930">
        <ele>518.4</ele>
        <time>2020-09-13T10:37:26Z</time>
      </trkpt>
      <trkpt lat="42.8947000" lon="-2.5479930">
        <ele>518.6</ele>
        <time>2020-09-13T10:37:30Z</time>
      </trkpt>
      <trkpt lat="42.8947000" lon="-2.5479930">
        <ele>518.6</ele>
        <time>2020-09-13T10:37:34Z</time>
      </trkpt>
      <trkpt lat="42.8947000" lon="-2.5479930">
        <ele>518.4</ele>
        <time>2020-09-13T10:37:38Z</time>
      </trkpt>
      <trkpt lat="42.8947000" lon="-2.5479930">
        <ele>518.6</ele>
        <time>2020-09-13T10:37:42Z</time>
      </trkpt>
      <trkpt lat="42.8947000" lon="-2.5479930">
        <ele>518.6</ele>
        <time>2020-09-13T10:37:46Z</time>
      </trkpt>
      <trkpt lat="42.8947000" lon="-2.5479930">
        <ele>519.4</ele>
        <time>2020-09-13T10:37:50Z</time>
      </trkpt>
      <trkpt lat="42.8947000" lon="-2.5479930">
        <ele>518.8</ele>
        <time>2020-09-13T10:37:54Z</time>
      </trkpt>
      <trkpt lat="42.8947000" lon="-2.5479930">
        <ele>518.8</ele>
        <time>2020-09-13T10:37:58Z</time>
      </trkpt>
      <trkpt lat="42.8947000" lon="-2.5479930">
        <ele>518.8</ele>
        <time>2020-09-13T10:38:02Z</time>
      </trkpt>
      <trkpt lat="42.8947000" lon="-2.5479930">
        <ele>519.2</ele>
        <time>2020-09-13T10:38:06Z</time>
      </trkpt>
      <trkpt lat="42.8947000" lon="-2.5479930">
        <ele>518.8</ele>
        <time>2020-09-13T10:38:10Z</time>
      </trkpt>
      <trkpt lat="42.8947000" lon="-2.5479930">
        <ele>519.0</ele>
        <time>2020-09-13T10:38:14Z</time>
      </trkpt>
      <trkpt lat="42.8947000" lon="-2.5479930">
        <ele>519.0</ele>
        <time>2020-09-13T10:38:18Z</time>
      </trkpt>
      <trkpt lat="42.8947000" lon="-2.5479930">
        <ele>519.2</ele>
        <time>2020-09-13T10:38:22Z</time>
      </trkpt>
      <trkpt lat="42.8947000" lon="-2.5479930">
        <ele>519.0</ele>
        <time>2020-09-13T10:38:26Z</time>
      </trkpt>
      <trkpt lat="42.8947000" lon="-2.5479930">
        <ele>519.0</ele>
        <time>2020-09-13T10:38:30Z</time>
      </trkpt>
      <trkpt lat="42.8947000" lon="-2.5479930">
        <ele>518.6</ele>
        <time>2020-09-13T10:38:34Z</time>
      </trkpt>
      <trkpt lat="42.8947000" lon="-2.5479930">
        <ele>518.8</ele>
        <time>2020-09-13T10:38:38Z</time>
      </trkpt>
      <trkpt lat="42.8947000" lon="-2.5479930">
        <ele>518.6</ele>
        <time>2020-09-13T10:38:42Z</time>
      </trkpt>
      <trkpt lat="42.8947000" lon="-2.5479930">
        <ele>518.8</ele>
        <time>2020-09-13T10:38:46Z</time>
      </trkpt>
      <trkpt lat="42.8947000" lon="-2.5479930">
        <ele>518.8</ele>
        <time>2020-09-13T10:38:50Z</time>
      </trkpt>
      <trkpt lat="42.8947000" lon="-2.5479930">
        <ele>518.8</ele>
        <time>2020-09-13T10:38:54Z</time>
      </trkpt>
      <trkpt lat="42.8947000" lon="-2.5479930">
        <ele>518.8</ele>
        <time>2020-09-13T10:38:58Z</time>
      </trkpt>
      <trkpt lat="42.8947000" lon="-2.5479930">
        <ele>519.0</ele>
        <time>2020-09-13T10:39:02Z</time>
      </trkpt>
      <trkpt lat="42.8947000" lon="-2.5479930">
        <ele>519.0</ele>
        <time>2020-09-13T10:39:06Z</time>
      </trkpt>
      <trkpt lat="42.8947000" lon="-2.5479930">
        <ele>519.2</ele>
        <time>2020-09-13T10:39:10Z</time>
      </trkpt>
      <trkpt lat="42.8947000" lon="-2.5479930">
        <ele>519.0</ele>
        <time>2020-09-13T10:39:14Z</time>
      </trkpt>
      <trkpt lat="42.8947000" lon="-2.5479930">
        <ele>519.0</ele>
        <time>2020-09-13T10:39:18Z</time>
      </trkpt>
      <trkpt lat="42.8947000" lon="-2.5479930">
        <ele>518.6</ele>
        <time>2020-09-13T10:39:22Z</time>
      </trkpt>
      <trkpt lat="42.8947000" lon="-2.5479930">
        <ele>519.0</ele>
        <time>2020-09-13T10:39:26Z</time>
      </trkpt>
      <trkpt lat="42.8947000" lon="-2.5479930">
        <ele>518.8</ele>
        <time>2020-09-13T10:39:30Z</time>
      </trkpt>
      <trkpt lat="42.8947000" lon="-2.5479930">
        <ele>518.6</ele>
        <time>2020-09-13T10:39:34Z</time>
      </trkpt>
      <trkpt lat="42.8947000" lon="-2.5479930">
        <ele>518.4</ele>
        <time>2020-09-13T10:39:38Z</time>
      </trkpt>
      <trkpt lat="42.8947000" lon="-2.5479930">
        <ele>519.0</ele>
        <time>2020-09-13T10:39:42Z</time>
      </trkpt>
      <trkpt lat="42.8947000" lon="-2.5479930">
        <ele>518.4</ele>
        <time>2020-09-13T10:39:46Z</time>
      </trkpt>
      <trkpt lat="42.8947000" lon="-2.5479930">
        <ele>518.8</ele>
        <time>2020-09-13T10:39:50Z</time>
      </trkpt>
      <trkpt lat="42.8947000" lon="-2.5479930">
        <ele>518.8</ele>
        <time>2020-09-13T10:39:54Z</time>
      </trkpt>
      <trkpt lat="42.8947000" lon="-2.5479930">
        <ele>519.4</ele>
        <time>2020-09-13T10:39:58Z</time>
      </trkpt>
      <trkpt lat="42.8947000" lon="-2.5479930">
        <ele>519.2</ele>
        <time>2020-09-13T10:40:02Z</time>
      </trkpt>
      <trkpt lat="42.8947000" lon="-2.5479930">
        <ele>518.8</ele>
        <time>2020-09-13T10:40:06Z</time>
      </trkpt>
      <trkpt lat="42.8947000" lon="-2.5479930">
        <ele>519.4</ele>
        <time>2020-09-13T10:40:10Z</time>
      </trkpt>
      <trkpt lat="42.8947000" lon="-2.5479930">
        <ele>519.2</ele>
        <time>2020-09-13T10:40:14Z</time>
      </trkpt>
      <trkpt lat="42.8947000" lon="-2.5479930">
        <ele>519.2</ele>
        <time>2020-09-13T10:40:18Z</time>
      </trkpt>
      <trkpt lat="42.8947000" lon="-2.5479930">
        <ele>519.0</ele>
        <time>2020-09-13T10:40:22Z</time>
      </trkpt>
      <trkpt lat="42.8947000" lon="-2.5479930">
        <ele>519.0</ele>
        <time>2020-09-13T10:40:26Z</time>
      </trkpt>
      <trkpt lat="42.8947000" lon="-2.5479930">
        <ele>519.0</ele>
        <time>2020-09-13T10:40:30Z</time>
      </trkpt>
      <trkpt lat="42.8947000" lon="-2.5479930">
        <ele>519.2</ele>
        <time>2020-09-13T10:40:34Z</time>
      </trkpt>
      <trkpt lat="42.8947000" lon="-2.5479930">
        <ele>519.0</ele>
        <time>2020-09-13T10:40:38Z</time>
      </trkpt>
      <trkpt lat="42.8947000" lon="-2.5479930">
        <ele>518.6</ele>
        <time>2020-09-13T10:40:42Z</time>
      </trkpt>
      <trkpt lat="42.8947000" lon="-2.5479930">
        <ele>519.0</ele>
        <time>2020-09-13T10:40:46Z</time>
      </trkpt>
      <trkpt lat="42.8947000" lon="-2.5479930">
        <ele>519.0</ele>
        <time>2020-09-13T10:40:50Z</time>
      </trkpt>
      <trkpt lat="42.8947000" lon="-2.5479930">
        <ele>518.4</ele>
        <time>2020-09-13T10:40:54Z</time>
      </trkpt>
      <trkpt lat="42.8947000" lon="-2.5479930">
        <ele>518.6</ele>
        <time>2020-09-13T10:40:58Z</time>
      </trkpt>
      <trkpt lat="42.8947000" lon="-2.5479930">
        <ele>518.8</ele>
        <time>2020-09-13T10:41:02Z</time>
      </trkpt>
      <trkpt lat="42.8947000" lon="-2.5479930">
        <ele>518.4</ele>
        <time>2020-09-13T10:41:06Z</time>
      </trkpt>
      <trkpt lat="42.8947000" lon="-2.5479930">
        <ele>518.6</ele>
        <time>2020-09-13T10:41:10Z</time>
      </trkpt>
      <trkpt lat="42.8947000" lon="-2.5479930">
        <ele>519.0</ele>
        <time>2020-09-13T10:41:14Z</time>
      </trkpt>
      <trkpt lat="42.8947000" lon="-2.5479930">
        <ele>519.0</ele>
        <time>2020-09-13T10:41:18Z</time>
      </trkpt>
      <trkpt lat="42.8947000" lon="-2.5479930">
        <ele>518.8</ele>
        <time>2020-09-13T10:41:22Z</time>
      </trkpt>
      <trkpt lat="42.8947000" lon="-2.5479930">
        <ele>518.6</ele>
        <time>2020-09-13T10:41:26Z</time>
      </trkpt>
      <trkpt lat="42.8947000" lon="-2.5479930">
        <ele>518.6</ele>
        <time>2020-09-13T10:41:30Z</time>
      </trkpt>
      <trkpt lat="42.8947000" lon="-2.5479930">
        <ele>518.8</ele>
        <time>2020-09-13T10:41:34Z</time>
      </trkpt>
      <trkpt lat="42.8947000" lon="-2.5479930">
        <ele>519.2</ele>
        <time>2020-09-13T10:41:38Z</time>
      </trkpt>
      <trkpt lat="42.8947000" lon="-2.5479930">
        <ele>519.4</ele>
        <time>2020-09-13T10:41:42Z</time>
      </trkpt>
      <trkpt lat="42.8947000" lon="-2.5479930">
        <ele>519.0</ele>
        <time>2020-09-13T10:41:46Z</time>
      </trkpt>
      <trkpt lat="42.8947000" lon="-2.5479930">
        <ele>518.4</ele>
        <time>2020-09-13T10:41:50Z</time>
      </trkpt>
      <trkpt lat="42.8947000" lon="-2.5479930">
        <ele>519.0</ele>
        <time>2020-09-13T10:41:54Z</time>
      </trkpt>
      <trkpt lat="42.8947000" lon="-2.5479930">
        <ele>518.8</ele>
        <time>2020-09-13T10:41:58Z</time>
      </trkpt>
      <trkpt lat="42.8947000" lon="-2.5479930">
        <ele>518.8</ele>
        <time>2020-09-13T10:42:02Z</time>
      </trkpt>
      <trkpt lat="42.8947000" lon="-2.5479930">
        <ele>519.0</ele>
        <time>2020-09-13T10:42:06Z</time>
      </trkpt>
      <trkpt lat="42.8947000" lon="-2.5479930">
        <ele>518.8</ele>
        <time>2020-09-13T10:42:10Z</time>
      </trkpt>
      <trkpt lat="42.8947000" lon="-2.5479930">
        <ele>519.0</ele>
        <time>2020-09-13T10:42:14Z</time>
      </trkpt>
      <trkpt lat="42.8947000" lon="-2.5479930">
        <ele>518.8</ele>
        <time>2020-09-13T10:42:18Z</time>
      </trkpt>
      <trkpt lat="42.8947000" lon="-2.5479930">
        <ele>519.0</ele>
        <time>2020-09-13T10:42:22Z</time>
      </trkpt>
      <trkpt lat="42.8947000" lon="-2.5479930">
        <ele>518.6</ele>
        <time>2020-09-13T10:42:26Z</time>
      </trkpt>
      <trkpt lat="42.8947000" lon="-2.5479930">
        <ele>519.0</ele>
        <time>2020-09-13T10:42:30Z</time>
      </trkpt>
      <trkpt lat="42.8947000" lon="-2.5479930">
        <ele>519.0</ele>
        <time>2020-09-13T10:42:34Z</time>
      </trkpt>
      <trkpt lat="42.8947000" lon="-2.5479930">
        <ele>518.8</ele>
        <time>2020-09-13T10:42:38Z</time>
      </trkpt>
      <trkpt lat="42.8947000" lon="-2.5479930">
        <ele>519.0</ele>
        <time>2020-09-13T10:42:42Z</time>
      </trkpt>
      <trkpt lat="42.8947000" lon="-2.5479930">
        <ele>519.2</ele>
        <time>2020-09-13T10:42:46Z</time>
      </trkpt>
      <trkpt lat="42.8947000" lon="-2.5479930">
        <ele>519.0</ele>
        <time>2020-09-13T10:42:50Z</time>
      </trkpt>
      <trkpt lat="42.8947000" lon="-2.5479930">
        <ele>518.6</ele>
        <time>2020-09-13T10:42:54Z</time>
      </trkpt>
      <trkpt lat="42.8947000" lon="-2.5479930">
        <ele>519.0</ele>
        <time>2020-09-13T10:42:58Z</time>
      </trkpt>
      <trkpt lat="42.8947000" lon="-2.5479930">
        <ele>518.6</ele>
        <time>2020-09-13T10:43:02Z</time>
      </trkpt>
      <trkpt lat="42.8947000" lon="-2.5479930">
        <ele>519.0</ele>
        <time>2020-09-13T10:43:06Z</time>
      </trkpt>
      <trkpt lat="42.8947000" lon="-2.5479930">
        <ele>518.8</ele>
        <time>2020-09-13T10:43:10Z</time>
      </trkpt>
      <trkpt lat="42.8947000" lon="-2.5479930">
        <ele>519.0</ele>
        <time>2020-09-13T10:43:14Z</time>
      </trkpt>
      <trkpt lat="42.8947000" lon="-2.5479930">
        <ele>519.2</ele>
        <time>2020-09-13T10:43:18Z</time>
      </trkpt>
      <trkpt lat="42.8947000" lon="-2.5479930">
        <ele>518.8</ele>
        <time>2020-09-13T10:43:22Z</time>
      </trkpt>
      <trkpt lat="42.8947000" lon="-2.5479930">
        <ele>518.8</ele>
        <time>2020-09-13T10:43:26Z</time>
      </trkpt>
      <trkpt lat="42.8947000" lon="-2.5479930">
        <ele>518.6</ele>
        <time>2020-09-13T10:43:30Z</time>
      </trkpt>
      <trkpt lat="42.8947000" lon="-2.5479930">
        <ele>519.0</ele>
        <time>2020-09-13T10:43:34Z</time>
      </trkpt>
      <trkpt lat="42.8947000" lon="-2.5479930">
        <ele>519.2</ele>
        <time>2020-09-13T10:43:38Z</time>
      </trkpt>
      <trkpt lat="42.8947000" lon="-2.5479930">
        <ele>518.8</ele>
        <time>2020-09-13T10:43:42Z</time>
      </trkpt>
      <trkpt lat="42.8947000" lon="-2.5479930">
        <ele>518.8</ele>
        <time>2020-09-13T10:43:46Z</time>
      </trkpt>
      <trkpt lat="42.8947000" lon="-2.5479930">
        <ele>519.0</ele>
        <time>2020-09-13T10:43:50Z</time>
      </trkpt>
      <trkpt lat="42.8947000" lon="-2.5479930">
        <ele>518.8</ele>
        <time>2020-09-13T10:43:54Z</time>
      </trkpt>
      <trkpt lat="42.8947000" lon="-2.5479930">
        <ele>519.2</ele>
        <time>2020-09-13T10:43:58Z</time>
      </trkpt>
      <trkpt lat="42.8947000" lon="-2.5479930">
        <ele>519.0</ele>
        <time>2020-09-13T10:44:02Z</time>
      </trkpt>
      <trkpt lat="42.8947000" lon="-2.5479930">
        <ele>519.2</ele>
        <time>2020-09-13T10:44:06Z</time>
      </trkpt>
      <trkpt lat="42.8947000" lon="-2.5479930">
        <ele>519.0</ele>
        <time>2020-09-13T10:44:10Z</time>
      </trkpt>
      <trkpt lat="42.8947000" lon="-2.5479930">
        <ele>519.0</ele>
        <time>2020-09-13T10:44:14Z</time>
      </trkpt>
      <trkpt lat="42.8947000" lon="-2.5479930">
        <ele>519.2</ele>
        <time>2020-09-13T10:44:18Z</time>
      </trkpt>
      <trkpt lat="42.8947000" lon="-2.5479930">
        <ele>519.0</ele>
        <time>2020-09-13T10:44:22Z</time>
      </trkpt>
      <trkpt lat="42.8947000" lon="-2.5479930">
        <ele>518.8</ele>
        <time>2020-09-13T10:44:26Z</time>
      </trkpt>
      <trkpt lat="42.8947000" lon="-2.5479930">
        <ele>519.2</ele>
        <time>2020-09-13T10:44:30Z</time>
      </trkpt>
      <trkpt lat="42.8947000" lon="-2.5479930">
        <ele>519.2</ele>
        <time>2020-09-13T10:44:34Z</time>
      </trkpt>
      <trkpt lat="42.8947000" lon="-2.5479930">
        <ele>519.2</ele>
        <time>2020-09-13T10:44:38Z</time>
      </trkpt>
      <trkpt lat="42.8947000" lon="-2.5479930">
        <ele>519.2</ele>
        <time>2020-09-13T10:44:42Z</time>
      </trkpt>
      <trkpt lat="42.8947000" lon="-2.5479930">
        <ele>519.6</ele>
        <time>2020-09-13T10:44:46Z</time>
      </trkpt>
      <trkpt lat="42.8947000" lon="-2.5479930">
        <ele>519.8</ele>
        <time>2020-09-13T10:44:50Z</time>
      </trkpt>
      <trkpt lat="42.8946780" lon="-2.5479810">
        <ele>520.4</ele>
        <time>2020-09-13T10:44:54Z</time>
      </trkpt>
      <trkpt lat="42.8946960" lon="-2.5479700">
        <ele>520.4</ele>
        <time>2020-09-13T10:44:58Z</time>
      </trkpt>
      <trkpt lat="42.8947330" lon="-2.5479630">
        <ele>521.0</ele>
        <time>2020-09-13T10:45:02Z</time>
      </trkpt>
      <trkpt lat="42.8947330" lon="-2.5479630">
        <ele>521.4</ele>
        <time>2020-09-13T10:45:06Z</time>
      </trkpt>
      <trkpt lat="42.8947480" lon="-2.5479610">
        <ele>521.2</ele>
        <time>2020-09-13T10:45:10Z</time>
      </trkpt>
      <trkpt lat="42.8947450" lon="-2.5479350">
        <ele>521.2</ele>
        <time>2020-09-13T10:45:14Z</time>
      </trkpt>
      <trkpt lat="42.8947450" lon="-2.5479350">
        <ele>521.4</ele>
        <time>2020-09-13T10:45:18Z</time>
      </trkpt>
      <trkpt lat="42.8947450" lon="-2.5479350">
        <ele>521.2</ele>
        <time>2020-09-13T10:45:22Z</time>
      </trkpt>
      <trkpt lat="42.8947410" lon="-2.5479230">
        <ele>521.0</ele>
        <time>2020-09-13T10:45:26Z</time>
      </trkpt>
      <trkpt lat="42.8947080" lon="-2.5478800">
        <ele>521.2</ele>
        <time>2020-09-13T10:45:30Z</time>
      </trkpt>
      <trkpt lat="42.8946700" lon="-2.5478200">
        <ele>521.6</ele>
        <time>2020-09-13T10:45:34Z</time>
      </trkpt>
      <trkpt lat="42.8946460" lon="-2.5477960">
        <ele>521.6</ele>
        <time>2020-09-13T10:45:38Z</time>
      </trkpt>
      <trkpt lat="42.8946460" lon="-2.5477960">
        <ele>521.4</ele>
        <time>2020-09-13T10:45:42Z</time>
      </trkpt>
      <trkpt lat="42.8946460" lon="-2.5477960">
        <ele>520.8</ele>
        <time>2020-09-13T10:45:46Z</time>
      </trkpt>
      <trkpt lat="42.8946350" lon="-2.5477730">
        <ele>521.0</ele>
        <time>2020-09-13T10:45:50Z</time>
      </trkpt>
      <trkpt lat="42.8946150" lon="-2.5477280">
        <ele>520.6</ele>
        <time>2020-09-13T10:45:54Z</time>
      </trkpt>
      <trkpt lat="42.8945830" lon="-2.5476410">
        <ele>521.0</ele>
        <time>2020-09-13T10:45:58Z</time>
      </trkpt>
      <trkpt lat="42.8945410" lon="-2.5475060">
        <ele>520.2</ele>
        <time>2020-09-13T10:46:02Z</time>
      </trkpt>
      <trkpt lat="42.8944950" lon="-2.5473600">
        <ele>521.2</ele>
        <time>2020-09-13T10:46:06Z</time>
      </trkpt>
      <trkpt lat="42.8944360" lon="-2.5472030">
        <ele>520.4</ele>
        <time>2020-09-13T10:46:10Z</time>
      </trkpt>
      <trkpt lat="42.8944110" lon="-2.5470300">
        <ele>521.0</ele>
        <time>2020-09-13T10:46:14Z</time>
      </trkpt>
      <trkpt lat="42.8944210" lon="-2.5468760">
        <ele>520.8</ele>
        <time>2020-09-13T10:46:18Z</time>
      </trkpt>
      <trkpt lat="42.8944450" lon="-2.5467310">
        <ele>521.6</ele>
        <time>2020-09-13T10:46:22Z</time>
      </trkpt>
      <trkpt lat="42.8944710" lon="-2.5465900">
        <ele>523.2</ele>
        <time>2020-09-13T10:46:26Z</time>
      </trkpt>
      <trkpt lat="42.8944880" lon="-2.5464680">
        <ele>524.2</ele>
        <time>2020-09-13T10:46:30Z</time>
      </trkpt>
      <trkpt lat="42.8944960" lon="-2.5463650">
        <ele>525.0</ele>
        <time>2020-09-13T10:46:34Z</time>
      </trkpt>
      <trkpt lat="42.8944950" lon="-2.5462880">
        <ele>526.0</ele>
        <time>2020-09-13T10:46:38Z</time>
      </trkpt>
      <trkpt lat="42.8944980" lon="-2.5462110">
        <ele>526.8</ele>
        <time>2020-09-13T10:46:42Z</time>
      </trkpt>
      <trkpt lat="42.8944850" lon="-2.5461500">
        <ele>526.4</ele>
        <time>2020-09-13T10:46:46Z</time>
      </trkpt>
      <trkpt lat="42.8944800" lon="-2.5461310">
        <ele>526.6</ele>
        <time>2020-09-13T10:46:50Z</time>
      </trkpt>
      <trkpt lat="42.8944800" lon="-2.5461310">
        <ele>526.8</ele>
        <time>2020-09-13T10:46:54Z</time>
      </trkpt>
      <trkpt lat="42.8944800" lon="-2.5461310">
        <ele>526.6</ele>
        <time>2020-09-13T10:46:58Z</time>
      </trkpt>
      <trkpt lat="42.8944800" lon="-2.5461310">
        <ele>526.2</ele>
        <time>2020-09-13T10:47:02Z</time>
      </trkpt>
      <trkpt lat="42.8944800" lon="-2.5461310">
        <ele>526.6</ele>
        <time>2020-09-13T10:47:06Z</time>
      </trkpt>
      <trkpt lat="42.8944800" lon="-2.5461310">
        <ele>527.0</ele>
        <time>2020-09-13T10:47:10Z</time>
      </trkpt>
      <trkpt lat="42.8944760" lon="-2.5461180">
        <ele>526.4</ele>
        <time>2020-09-13T10:47:14Z</time>
      </trkpt>
      <trkpt lat="42.8944800" lon="-2.5460700">
        <ele>527.6</ele>
        <time>2020-09-13T10:47:18Z</time>
      </trkpt>
      <trkpt lat="42.8944730" lon="-2.5460250">
        <ele>527.8</ele>
        <time>2020-09-13T10:47:22Z</time>
      </trkpt>
      <trkpt lat="42.8944680" lon="-2.5459830">
        <ele>527.6</ele>
        <time>2020-09-13T10:47:26Z</time>
      </trkpt>
      <trkpt lat="42.8944680" lon="-2.5459830">
        <ele>527.8</ele>
        <time>2020-09-13T10:47:30Z</time>
      </trkpt>
      <trkpt lat="42.8944680" lon="-2.5459830">
        <ele>528.4</ele>
        <time>2020-09-13T10:47:34Z</time>
      </trkpt>
      <trkpt lat="42.8944680" lon="-2.5459580">
        <ele>528.2</ele>
        <time>2020-09-13T10:47:38Z</time>
      </trkpt>
      <trkpt lat="42.8944600" lon="-2.5459350">
        <ele>528.4</ele>
        <time>2020-09-13T10:47:42Z</time>
      </trkpt>
      <trkpt lat="42.8944560" lon="-2.5458630">
        <ele>529.4</ele>
        <time>2020-09-13T10:47:46Z</time>
      </trkpt>
      <trkpt lat="42.8944280" lon="-2.5457900">
        <ele>529.2</ele>
        <time>2020-09-13T10:47:50Z</time>
      </trkpt>
      <trkpt lat="42.8943910" lon="-2.5457310">
        <ele>529.6</ele>
        <time>2020-09-13T10:47:54Z</time>
      </trkpt>
      <trkpt lat="42.8943810" lon="-2.5456700">
        <ele>530.0</ele>
        <time>2020-09-13T10:47:58Z</time>
      </trkpt>
      <trkpt lat="42.8943880" lon="-2.5456060">
        <ele>530.4</ele>
        <time>2020-09-13T10:48:02Z</time>
      </trkpt>
      <trkpt lat="42.8943650" lon="-2.5455510">
        <ele>530.6</ele>
        <time>2020-09-13T10:48:06Z</time>
      </trkpt>
      <trkpt lat="42.8943510" lon="-2.5454850">
        <ele>530.8</ele>
        <time>2020-09-13T10:48:10Z</time>
      </trkpt>
      <trkpt lat="42.8943310" lon="-2.5454050">
        <ele>531.4</ele>
        <time>2020-09-13T10:48:14Z</time>
      </trkpt>
      <trkpt lat="42.8943180" lon="-2.5453130">
        <ele>531.4</ele>
        <time>2020-09-13T10:48:18Z</time>
      </trkpt>
      <trkpt lat="42.8942950" lon="-2.5452230">
        <ele>532.2</ele>
        <time>2020-09-13T10:48:22Z</time>
      </trkpt>
      <trkpt lat="42.8942810" lon="-2.5450950">
        <ele>532.0</ele>
        <time>2020-09-13T10:48:26Z</time>
      </trkpt>
      <trkpt lat="42.8942650" lon="-2.5449610">
        <ele>532.6</ele>
        <time>2020-09-13T10:48:30Z</time>
      </trkpt>
      <trkpt lat="42.8942530" lon="-2.5448330">
        <ele>532.4</ele>
        <time>2020-09-13T10:48:34Z</time>
      </trkpt>
      <trkpt lat="42.8942400" lon="-2.5447080">
        <ele>532.8</ele>
        <time>2020-09-13T10:48:38Z</time>
      </trkpt>
      <trkpt lat="42.8942350" lon="-2.5445680">
        <ele>533.0</ele>
        <time>2020-09-13T10:48:42Z</time>
      </trkpt>
      <trkpt lat="42.8942230" lon="-2.5444130">
        <ele>533.6</ele>
        <time>2020-09-13T10:48:46Z</time>
      </trkpt>
      <trkpt lat="42.8942110" lon="-2.5442560">
        <ele>533.8</ele>
        <time>2020-09-13T10:48:50Z</time>
      </trkpt>
      <trkpt lat="42.8942050" lon="-2.5441030">
        <ele>533.8</ele>
        <time>2020-09-13T10:48:54Z</time>
      </trkpt>
      <trkpt lat="42.8941900" lon="-2.5439560">
        <ele>534.4</ele>
        <time>2020-09-13T10:48:58Z</time>
      </trkpt>
      <trkpt lat="42.8942000" lon="-2.5438100">
        <ele>534.2</ele>
        <time>2020-09-13T10:49:02Z</time>
      </trkpt>
      <trkpt lat="42.8942280" lon="-2.5436510">
        <ele>534.2</ele>
        <time>2020-09-13T10:49:06Z</time>
      </trkpt>
      <trkpt lat="42.8942630" lon="-2.5435030">
        <ele>535.2</ele>
        <time>2020-09-13T10:49:10Z</time>
      </trkpt>
      <trkpt lat="42.8943010" lon="-2.5433580">
        <ele>534.8</ele>
        <time>2020-09-13T10:49:14Z</time>
      </trkpt>
      <trkpt lat="42.8943350" lon="-2.5432180">
        <ele>535.8</ele>
        <time>2020-09-13T10:49:18Z</time>
      </trkpt>
      <trkpt lat="42.8943710" lon="-2.5430850">
        <ele>536.0</ele>
        <time>2020-09-13T10:49:22Z</time>
      </trkpt>
      <trkpt lat="42.8944060" lon="-2.5429500">
        <ele>535.4</ele>
        <time>2020-09-13T10:49:26Z</time>
      </trkpt>
      <trkpt lat="42.8944450" lon="-2.5428280">
        <ele>535.6</ele>
        <time>2020-09-13T10:49:30Z</time>
      </trkpt>
      <trkpt lat="42.8944680" lon="-2.5427500">
        <ele>535.8</ele>
        <time>2020-09-13T10:49:34Z</time>
      </trkpt>
      <trkpt lat="42.8944680" lon="-2.5427500">
        <ele>536.0</ele>
        <time>2020-09-13T10:49:38Z</time>
      </trkpt>
      <trkpt lat="42.8944680" lon="-2.5427500">
        <ele>535.0</ele>
        <time>2020-09-13T10:49:42Z</time>
      </trkpt>
      <trkpt lat="42.8944680" lon="-2.5427500">
        <ele>535.8</ele>
        <time>2020-09-13T10:49:46Z</time>
      </trkpt>
      <trkpt lat="42.8944680" lon="-2.5427500">
        <ele>535.6</ele>
        <time>2020-09-13T10:49:50Z</time>
      </trkpt>
      <trkpt lat="42.8944710" lon="-2.5427310">
        <ele>536.0</ele>
        <time>2020-09-13T10:49:54Z</time>
      </trkpt>
      <trkpt lat="42.8944900" lon="-2.5426330">
        <ele>536.0</ele>
        <time>2020-09-13T10:49:58Z</time>
      </trkpt>
      <trkpt lat="42.8945260" lon="-2.5424780">
        <ele>536.0</ele>
        <time>2020-09-13T10:50:02Z</time>
      </trkpt>
      <trkpt lat="42.8945560" lon="-2.5423160">
        <ele>537.0</ele>
        <time>2020-09-13T10:50:06Z</time>
      </trkpt>
      <trkpt lat="42.8945860" lon="-2.5421280">
        <ele>536.6</ele>
        <time>2020-09-13T10:50:10Z</time>
      </trkpt>
      <trkpt lat="42.8946150" lon="-2.5419330">
        <ele>537.2</ele>
        <time>2020-09-13T10:50:14Z</time>
      </trkpt>
      <trkpt lat="42.8946310" lon="-2.5417450">
        <ele>536.6</ele>
        <time>2020-09-13T10:50:18Z</time>
      </trkpt>
      <trkpt lat="42.8946560" lon="-2.5415730">
        <ele>536.8</ele>
        <time>2020-09-13T10:50:22Z</time>
      </trkpt>
      <trkpt lat="42.8946730" lon="-2.5414100">
        <ele>536.4</ele>
        <time>2020-09-13T10:50:26Z</time>
      </trkpt>
      <trkpt lat="42.8946800" lon="-2.5412430">
        <ele>536.2</ele>
        <time>2020-09-13T10:50:30Z</time>
      </trkpt>
      <trkpt lat="42.8946410" lon="-2.5411110">
        <ele>536.2</ele>
        <time>2020-09-13T10:50:34Z</time>
      </trkpt>
      <trkpt lat="42.8945410" lon="-2.5410630">
        <ele>535.4</ele>
        <time>2020-09-13T10:50:38Z</time>
      </trkpt>
      <trkpt lat="42.8944160" lon="-2.5410550">
        <ele>534.8</ele>
        <time>2020-09-13T10:50:42Z</time>
      </trkpt>
      <trkpt lat="42.8942700" lon="-2.5410480">
        <ele>534.6</ele>
        <time>2020-09-13T10:50:46Z</time>
      </trkpt>
      <trkpt lat="42.8941030" lon="-2.5410410">
        <ele>534.0</ele>
        <time>2020-09-13T10:50:50Z</time>
      </trkpt>
      <trkpt lat="42.8939360" lon="-2.5410400">
        <ele>534.0</ele>
        <time>2020-09-13T10:50:54Z</time>
      </trkpt>
      <trkpt lat="42.8937730" lon="-2.5410300">
        <ele>533.4</ele>
        <time>2020-09-13T10:50:58Z</time>
      </trkpt>
      <trkpt lat="42.8936130" lon="-2.5409630">
        <ele>533.6</ele>
        <time>2020-09-13T10:51:02Z</time>
      </trkpt>
      <trkpt lat="42.8935360" lon="-2.5407800">
        <ele>534.0</ele>
        <time>2020-09-13T10:51:06Z</time>
      </trkpt>
      <trkpt lat="42.8935180" lon="-2.5405710">
        <ele>534.0</ele>
        <time>2020-09-13T10:51:10Z</time>
      </trkpt>
      <trkpt lat="42.8935100" lon="-2.5403600">
        <ele>533.6</ele>
        <time>2020-09-13T10:51:14Z</time>
      </trkpt>
      <trkpt lat="42.8935200" lon="-2.5401480">
        <ele>533.6</ele>
        <time>2020-09-13T10:51:18Z</time>
      </trkpt>
      <trkpt lat="42.8935460" lon="-2.5399450">
        <ele>533.4</ele>
        <time>2020-09-13T10:51:22Z</time>
      </trkpt>
      <trkpt lat="42.8935700" lon="-2.5397310">
        <ele>533.4</ele>
        <time>2020-09-13T10:51:26Z</time>
      </trkpt>
      <trkpt lat="42.8935930" lon="-2.5395050">
        <ele>533.0</ele>
        <time>2020-09-13T10:51:30Z</time>
      </trkpt>
      <trkpt lat="42.8936210" lon="-2.5392710">
        <ele>532.8</ele>
        <time>2020-09-13T10:51:34Z</time>
      </trkpt>
      <trkpt lat="42.8936500" lon="-2.5390310">
        <ele>532.0</ele>
        <time>2020-09-13T10:51:38Z</time>
      </trkpt>
      <trkpt lat="42.8936750" lon="-2.5387850">
        <ele>532.8</ele>
        <time>2020-09-13T10:51:42Z</time>
      </trkpt>
      <trkpt lat="42.8937030" lon="-2.5385360">
        <ele>531.8</ele>
        <time>2020-09-13T10:51:46Z</time>
      </trkpt>
      <trkpt lat="42.8937310" lon="-2.5382880">
        <ele>531.4</ele>
        <time>2020-09-13T10:51:50Z</time>
      </trkpt>
      <trkpt lat="42.8937610" lon="-2.5380380">
        <ele>530.8</ele>
        <time>2020-09-13T10:51:54Z</time>
      </trkpt>
      <trkpt lat="42.8937850" lon="-2.5377960">
        <ele>530.2</ele>
        <time>2020-09-13T10:51:58Z</time>
      </trkpt>
      <trkpt lat="42.8938080" lon="-2.5375680">
        <ele>530.2</ele>
        <time>2020-09-13T10:52:02Z</time>
      </trkpt>
      <trkpt lat="42.8938360" lon="-2.5373550">
        <ele>530.2</ele>
        <time>2020-09-13T10:52:06Z</time>
      </trkpt>
      <trkpt lat="42.8938550" lon="-2.5371580">
        <ele>529.8</ele>
        <time>2020-09-13T10:52:10Z</time>
      </trkpt>
      <trkpt lat="42.8938800" lon="-2.5369910">
        <ele>530.2</ele>
        <time>2020-09-13T10:52:14Z</time>
      </trkpt>
      <trkpt lat="42.8938960" lon="-2.5368210">
        <ele>530.2</ele>
        <time>2020-09-13T10:52:18Z</time>
      </trkpt>
      <trkpt lat="42.8939180" lon="-2.5366380">
        <ele>529.6</ele>
        <time>2020-09-13T10:52:22Z</time>
      </trkpt>
      <trkpt lat="42.8939350" lon="-2.5364550">
        <ele>529.0</ele>
        <time>2020-09-13T10:52:26Z</time>
      </trkpt>
      <trkpt lat="42.8939480" lon="-2.5362810">
        <ele>529.0</ele>
        <time>2020-09-13T10:52:30Z</time>
      </trkpt>
      <trkpt lat="42.8939430" lon="-2.5361200">
        <ele>529.0</ele>
        <time>2020-09-13T10:52:34Z</time>
      </trkpt>
      <trkpt lat="42.8939360" lon="-2.5360050">
        <ele>528.8</ele>
        <time>2020-09-13T10:52:38Z</time>
      </trkpt>
      <trkpt lat="42.8939850" lon="-2.5359860">
        <ele>528.2</ele>
        <time>2020-09-13T10:52:42Z</time>
      </trkpt>
      <trkpt lat="42.8940200" lon="-2.5360360">
        <ele>527.0</ele>
        <time>2020-09-13T10:52:46Z</time>
      </trkpt>
      <trkpt lat="42.8940680" lon="-2.5361230">
        <ele>526.2</ele>
        <time>2020-09-13T10:52:50Z</time>
      </trkpt>
      <trkpt lat="42.8941760" lon="-2.5363010">
        <ele>525.6</ele>
        <time>2020-09-13T10:52:54Z</time>
      </trkpt>
      <trkpt lat="42.8942860" lon="-2.5364450">
        <ele>525.4</ele>
        <time>2020-09-13T10:52:58Z</time>
      </trkpt>
      <trkpt lat="42.8943900" lon="-2.5365800">
        <ele>524.6</ele>
        <time>2020-09-13T10:53:02Z</time>
      </trkpt>
      <trkpt lat="42.8945000" lon="-2.5367160">
        <ele>523.6</ele>
        <time>2020-09-13T10:53:06Z</time>
      </trkpt>
      <trkpt lat="42.8946160" lon="-2.5368600">
        <ele>524.4</ele>
        <time>2020-09-13T10:53:10Z</time>
      </trkpt>
      <trkpt lat="42.8947500" lon="-2.5369760">
        <ele>524.0</ele>
        <time>2020-09-13T10:53:14Z</time>
      </trkpt>
      <trkpt lat="42.8948750" lon="-2.5370730">
        <ele>524.6</ele>
        <time>2020-09-13T10:53:18Z</time>
      </trkpt>
      <trkpt lat="42.8950100" lon="-2.5371680">
        <ele>525.6</ele>
        <time>2020-09-13T10:53:22Z</time>
      </trkpt>
      <trkpt lat="42.8951400" lon="-2.5372660">
        <ele>526.2</ele>
        <time>2020-09-13T10:53:26Z</time>
      </trkpt>
      <trkpt lat="42.8952660" lon="-2.5373500">
        <ele>526.2</ele>
        <time>2020-09-13T10:53:30Z</time>
      </trkpt>
      <trkpt lat="42.8953850" lon="-2.5374400">
        <ele>527.0</ele>
        <time>2020-09-13T10:53:34Z</time>
      </trkpt>
      <trkpt lat="42.8954780" lon="-2.5375250">
        <ele>527.2</ele>
        <time>2020-09-13T10:53:38Z</time>
      </trkpt>
      <trkpt lat="42.8955710" lon="-2.5375800">
        <ele>526.4</ele>
        <time>2020-09-13T10:53:42Z</time>
      </trkpt>
      <trkpt lat="42.8956760" lon="-2.5375450">
        <ele>525.0</ele>
        <time>2020-09-13T10:53:46Z</time>
      </trkpt>
      <trkpt lat="42.8957730" lon="-2.5374230">
        <ele>524.4</ele>
        <time>2020-09-13T10:53:50Z</time>
      </trkpt>
      <trkpt lat="42.8958710" lon="-2.5372810">
        <ele>523.0</ele>
        <time>2020-09-13T10:53:54Z</time>
      </trkpt>
      <trkpt lat="42.8959530" lon="-2.5371780">
        <ele>521.8</ele>
        <time>2020-09-13T10:53:58Z</time>
      </trkpt>
      <trkpt lat="42.8960030" lon="-2.5370960">
        <ele>521.8</ele>
        <time>2020-09-13T10:54:02Z</time>
      </trkpt>
      <trkpt lat="42.8960280" lon="-2.5370350">
        <ele>521.6</ele>
        <time>2020-09-13T10:54:06Z</time>
      </trkpt>
      <trkpt lat="42.8960510" lon="-2.5369900">
        <ele>521.6</ele>
        <time>2020-09-13T10:54:10Z</time>
      </trkpt>
      <trkpt lat="42.8960800" lon="-2.5370030">
        <ele>521.4</ele>
        <time>2020-09-13T10:54:14Z</time>
      </trkpt>
      <trkpt lat="42.8960900" lon="-2.5369560">
        <ele>521.2</ele>
        <time>2020-09-13T10:54:18Z</time>
      </trkpt>
      <trkpt lat="42.8960510" lon="-2.5368980">
        <ele>521.6</ele>
        <time>2020-09-13T10:54:22Z</time>
      </trkpt>
      <trkpt lat="42.8960110" lon="-2.5368530">
        <ele>521.4</ele>
        <time>2020-09-13T10:54:26Z</time>
      </trkpt>
      <trkpt lat="42.8959660" lon="-2.5367910">
        <ele>521.4</ele>
        <time>2020-09-13T10:54:30Z</time>
      </trkpt>
      <trkpt lat="42.8958950" lon="-2.5367100">
        <ele>522.0</ele>
        <time>2020-09-13T10:54:34Z</time>
      </trkpt>
      <trkpt lat="42.8957960" lon="-2.5366160">
        <ele>522.2</ele>
        <time>2020-09-13T10:54:38Z</time>
      </trkpt>
      <trkpt lat="42.8956760" lon="-2.5365210">
        <ele>522.8</ele>
        <time>2020-09-13T10:54:42Z</time>
      </trkpt>
      <trkpt lat="42.8955480" lon="-2.5364280">
        <ele>522.6</ele>
        <time>2020-09-13T10:54:46Z</time>
      </trkpt>
      <trkpt lat="42.8954130" lon="-2.5363450">
        <ele>523.2</ele>
        <time>2020-09-13T10:54:50Z</time>
      </trkpt>
      <trkpt lat="42.8952950" lon="-2.5362330">
        <ele>522.8</ele>
        <time>2020-09-13T10:54:54Z</time>
      </trkpt>
      <trkpt lat="42.8951930" lon="-2.5360860">
        <ele>521.8</ele>
        <time>2020-09-13T10:54:58Z</time>
      </trkpt>
      <trkpt lat="42.8951350" lon="-2.5359150">
        <ele>522.0</ele>
        <time>2020-09-13T10:55:02Z</time>
      </trkpt>
      <trkpt lat="42.8950880" lon="-2.5357410">
        <ele>522.2</ele>
        <time>2020-09-13T10:55:06Z</time>
      </trkpt>
      <trkpt lat="42.8950950" lon="-2.5355830">
        <ele>521.6</ele>
        <time>2020-09-13T10:55:10Z</time>
      </trkpt>
      <trkpt lat="42.8950680" lon="-2.5354330">
        <ele>521.6</ele>
        <time>2020-09-13T10:55:14Z</time>
      </trkpt>
      <trkpt lat="42.8950050" lon="-2.5353330">
        <ele>522.2</ele>
        <time>2020-09-13T10:55:18Z</time>
      </trkpt>
      <trkpt lat="42.8949700" lon="-2.5352130">
        <ele>521.4</ele>
        <time>2020-09-13T10:55:22Z</time>
      </trkpt>
      <trkpt lat="42.8949600" lon="-2.5350710">
        <ele>522.6</ele>
        <time>2020-09-13T10:55:26Z</time>
      </trkpt>
      <trkpt lat="42.8949360" lon="-2.5349150">
        <ele>522.4</ele>
        <time>2020-09-13T10:55:30Z</time>
      </trkpt>
      <trkpt lat="42.8949100" lon="-2.5347410">
        <ele>522.0</ele>
        <time>2020-09-13T10:55:34Z</time>
      </trkpt>
      <trkpt lat="42.8948850" lon="-2.5345850">
        <ele>521.4</ele>
        <time>2020-09-13T10:55:38Z</time>
      </trkpt>
      <trkpt lat="42.8948580" lon="-2.5344210">
        <ele>522.0</ele>
        <time>2020-09-13T10:55:42Z</time>
      </trkpt>
      <trkpt lat="42.8948330" lon="-2.5342410">
        <ele>521.6</ele>
        <time>2020-09-13T10:55:46Z</time>
      </trkpt>
      <trkpt lat="42.8948030" lon="-2.5340500">
        <ele>521.6</ele>
        <time>2020-09-13T10:55:50Z</time>
      </trkpt>
      <trkpt lat="42.8947750" lon="-2.5338630">
        <ele>522.2</ele>
        <time>2020-09-13T10:55:54Z</time>
      </trkpt>
      <trkpt lat="42.8948180" lon="-2.5337200">
        <ele>522.2</ele>
        <time>2020-09-13T10:55:58Z</time>
      </trkpt>
      <trkpt lat="42.8949200" lon="-2.5336830">
        <ele>521.6</ele>
        <time>2020-09-13T10:56:02Z</time>
      </trkpt>
      <trkpt lat="42.8950300" lon="-2.5336500">
        <ele>521.8</ele>
        <time>2020-09-13T10:56:06Z</time>
      </trkpt>
      <trkpt lat="42.8951350" lon="-2.5335710">
        <ele>522.0</ele>
        <time>2020-09-13T10:56:10Z</time>
      </trkpt>
      <trkpt lat="42.8951910" lon="-2.5334810">
        <ele>522.4</ele>
        <time>2020-09-13T10:56:14Z</time>
      </trkpt>
      <trkpt lat="42.8952250" lon="-2.5333900">
        <ele>522.4</ele>
        <time>2020-09-13T10:56:18Z</time>
      </trkpt>
      <trkpt lat="42.8952710" lon="-2.5332610">
        <ele>522.2</ele>
        <time>2020-09-13T10:56:22Z</time>
      </trkpt>
      <trkpt lat="42.8953410" lon="-2.5331310">
        <ele>522.6</ele>
        <time>2020-09-13T10:56:26Z</time>
      </trkpt>
      <trkpt lat="42.8954330" lon="-2.5330610">
        <ele>523.0</ele>
        <time>2020-09-13T10:56:30Z</time>
      </trkpt>
      <trkpt lat="42.8955480" lon="-2.5329910">
        <ele>522.6</ele>
        <time>2020-09-13T10:56:34Z</time>
      </trkpt>
      <trkpt lat="42.8956830" lon="-2.5329400">
        <ele>522.4</ele>
        <time>2020-09-13T10:56:38Z</time>
      </trkpt>
      <trkpt lat="42.8957960" lon="-2.5329150">
        <ele>522.2</ele>
        <time>2020-09-13T10:56:42Z</time>
      </trkpt>
      <trkpt lat="42.8959130" lon="-2.5329030">
        <ele>522.2</ele>
        <time>2020-09-13T10:56:46Z</time>
      </trkpt>
      <trkpt lat="42.8959950" lon="-2.5329000">
        <ele>522.4</ele>
        <time>2020-09-13T10:56:50Z</time>
      </trkpt>
      <trkpt lat="42.8960800" lon="-2.5328880">
        <ele>522.6</ele>
        <time>2020-09-13T10:56:54Z</time>
      </trkpt>
      <trkpt lat="42.8961680" lon="-2.5328850">
        <ele>522.8</ele>
        <time>2020-09-13T10:56:58Z</time>
      </trkpt>
      <trkpt lat="42.8962600" lon="-2.5329030">
        <ele>522.2</ele>
        <time>2020-09-13T10:57:02Z</time>
      </trkpt>
      <trkpt lat="42.8963650" lon="-2.5329310">
        <ele>522.4</ele>
        <time>2020-09-13T10:57:06Z</time>
      </trkpt>
      <trkpt lat="42.8964400" lon="-2.5329600">
        <ele>522.4</ele>
        <time>2020-09-13T10:57:10Z</time>
      </trkpt>
      <trkpt lat="42.8964900" lon="-2.5329780">
        <ele>522.2</ele>
        <time>2020-09-13T10:57:14Z</time>
      </trkpt>
      <trkpt lat="42.8965510" lon="-2.5330060">
        <ele>522.4</ele>
        <time>2020-09-13T10:57:18Z</time>
      </trkpt>
      <trkpt lat="42.8966460" lon="-2.5330510">
        <ele>522.8</ele>
        <time>2020-09-13T10:57:22Z</time>
      </trkpt>
      <trkpt lat="42.8967580" lon="-2.5331060">
        <ele>522.2</ele>
        <time>2020-09-13T10:57:26Z</time>
      </trkpt>
      <trkpt lat="42.8968660" lon="-2.5331500">
        <ele>523.0</ele>
        <time>2020-09-13T10:57:30Z</time>
      </trkpt>
      <trkpt lat="42.8969550" lon="-2.5332780">
        <ele>522.4</ele>
        <time>2020-09-13T10:57:34Z</time>
      </trkpt>
      <trkpt lat="42.8970750" lon="-2.5333950">
        <ele>522.2</ele>
        <time>2020-09-13T10:57:38Z</time>
      </trkpt>
      <trkpt lat="42.8971780" lon="-2.5335110">
        <ele>522.4</ele>
        <time>2020-09-13T10:57:42Z</time>
      </trkpt>
      <trkpt lat="42.8972960" lon="-2.5335900">
        <ele>522.2</ele>
        <time>2020-09-13T10:57:46Z</time>
      </trkpt>
      <trkpt lat="42.8974080" lon="-2.5336450">
        <ele>522.4</ele>
        <time>2020-09-13T10:57:50Z</time>
      </trkpt>
      <trkpt lat="42.8974880" lon="-2.5337530">
        <ele>522.8</ele>
        <time>2020-09-13T10:57:54Z</time>
      </trkpt>
      <trkpt lat="42.8975700" lon="-2.5338910">
        <ele>521.4</ele>
        <time>2020-09-13T10:57:58Z</time>
      </trkpt>
      <trkpt lat="42.8976300" lon="-2.5340530">
        <ele>521.4</ele>
        <time>2020-09-13T10:58:02Z</time>
      </trkpt>
      <trkpt lat="42.8976850" lon="-2.5341680">
        <ele>521.4</ele>
        <time>2020-09-13T10:58:06Z</time>
      </trkpt>
      <trkpt lat="42.8977610" lon="-2.5342310">
        <ele>521.6</ele>
        <time>2020-09-13T10:58:10Z</time>
      </trkpt>
      <trkpt lat="42.8978810" lon="-2.5342880">
        <ele>522.0</ele>
        <time>2020-09-13T10:58:14Z</time>
      </trkpt>
      <trkpt lat="42.8979210" lon="-2.5343630">
        <ele>521.8</ele>
        <time>2020-09-13T10:58:18Z</time>
      </trkpt>
      <trkpt lat="42.8979410" lon="-2.5344460">
        <ele>521.8</ele>
        <time>2020-09-13T10:58:22Z</time>
      </trkpt>
      <trkpt lat="42.8979880" lon="-2.5345400">
        <ele>521.8</ele>
        <time>2020-09-13T10:58:26Z</time>
      </trkpt>
      <trkpt lat="42.8980530" lon="-2.5346450">
        <ele>521.8</ele>
        <time>2020-09-13T10:58:30Z</time>
      </trkpt>
      <trkpt lat="42.8981530" lon="-2.5347350">
        <ele>522.2</ele>
        <time>2020-09-13T10:58:34Z</time>
      </trkpt>
      <trkpt lat="42.8982530" lon="-2.5347460">
        <ele>523.0</ele>
        <time>2020-09-13T10:58:38Z</time>
      </trkpt>
      <trkpt lat="42.8983700" lon="-2.5347430">
        <ele>522.8</ele>
        <time>2020-09-13T10:58:42Z</time>
      </trkpt>
      <trkpt lat="42.8984730" lon="-2.5347660">
        <ele>523.2</ele>
        <time>2020-09-13T10:58:46Z</time>
      </trkpt>
      <trkpt lat="42.8985680" lon="-2.5347900">
        <ele>523.4</ele>
        <time>2020-09-13T10:58:50Z</time>
      </trkpt>
      <trkpt lat="42.8986810" lon="-2.5348210">
        <ele>523.0</ele>
        <time>2020-09-13T10:58:54Z</time>
      </trkpt>
      <trkpt lat="42.8988030" lon="-2.5348130">
        <ele>523.4</ele>
        <time>2020-09-13T10:58:58Z</time>
      </trkpt>
      <trkpt lat="42.8989110" lon="-2.5348160">
        <ele>522.6</ele>
        <time>2020-09-13T10:59:02Z</time>
      </trkpt>
      <trkpt lat="42.8990260" lon="-2.5348130">
        <ele>525.6</ele>
        <time>2020-09-13T10:59:06Z</time>
      </trkpt>
      <trkpt lat="42.8991310" lon="-2.5348060">
        <ele>523.8</ele>
        <time>2020-09-13T10:59:10Z</time>
      </trkpt>
      <trkpt lat="42.8992180" lon="-2.5347800">
        <ele>524.4</ele>
        <time>2020-09-13T10:59:14Z</time>
      </trkpt>
      <trkpt lat="42.8993060" lon="-2.5347480">
        <ele>524.8</ele>
        <time>2020-09-13T10:59:18Z</time>
      </trkpt>
      <trkpt lat="42.8994110" lon="-2.5347350">
        <ele>525.0</ele>
        <time>2020-09-13T10:59:22Z</time>
      </trkpt>
      <trkpt lat="42.8995130" lon="-2.5347300">
        <ele>524.2</ele>
        <time>2020-09-13T10:59:26Z</time>
      </trkpt>
      <trkpt lat="42.8996110" lon="-2.5347250">
        <ele>525.4</ele>
        <time>2020-09-13T10:59:30Z</time>
      </trkpt>
      <trkpt lat="42.8997160" lon="-2.5347260">
        <ele>525.0</ele>
        <time>2020-09-13T10:59:34Z</time>
      </trkpt>
      <trkpt lat="42.8998110" lon="-2.5347300">
        <ele>525.2</ele>
        <time>2020-09-13T10:59:38Z</time>
      </trkpt>
      <trkpt lat="42.8999060" lon="-2.5347380">
        <ele>525.8</ele>
        <time>2020-09-13T10:59:42Z</time>
      </trkpt>
      <trkpt lat="42.9000030" lon="-2.5347530">
        <ele>525.8</ele>
        <time>2020-09-13T10:59:46Z</time>
      </trkpt>
      <trkpt lat="42.9001050" lon="-2.5347480">
        <ele>526.0</ele>
        <time>2020-09-13T10:59:50Z</time>
      </trkpt>
      <trkpt lat="42.9002010" lon="-2.5347530">
        <ele>525.8</ele>
        <time>2020-09-13T10:59:54Z</time>
      </trkpt>
      <trkpt lat="42.9002900" lon="-2.5347730">
        <ele>526.2</ele>
        <time>2020-09-13T10:59:58Z</time>
      </trkpt>
      <trkpt lat="42.9003930" lon="-2.5347930">
        <ele>527.0</ele>
        <time>2020-09-13T11:00:02Z</time>
      </trkpt>
      <trkpt lat="42.9004830" lon="-2.5348400">
        <ele>526.2</ele>
        <time>2020-09-13T11:00:06Z</time>
      </trkpt>
      <trkpt lat="42.9005830" lon="-2.5348850">
        <ele>527.6</ele>
        <time>2020-09-13T11:00:10Z</time>
      </trkpt>
      <trkpt lat="42.9006900" lon="-2.5349210">
        <ele>527.2</ele>
        <time>2020-09-13T11:00:14Z</time>
      </trkpt>
      <trkpt lat="42.9007860" lon="-2.5349560">
        <ele>528.0</ele>
        <time>2020-09-13T11:00:18Z</time>
      </trkpt>
      <trkpt lat="42.9008600" lon="-2.5349960">
        <ele>527.8</ele>
        <time>2020-09-13T11:00:22Z</time>
      </trkpt>
      <trkpt lat="42.9008810" lon="-2.5350830">
        <ele>527.8</ele>
        <time>2020-09-13T11:00:26Z</time>
      </trkpt>
      <trkpt lat="42.9009100" lon="-2.5351860">
        <ele>528.2</ele>
        <time>2020-09-13T11:00:30Z</time>
      </trkpt>
      <trkpt lat="42.9009460" lon="-2.5352430">
        <ele>528.6</ele>
        <time>2020-09-13T11:00:34Z</time>
      </trkpt>
      <trkpt lat="42.9009730" lon="-2.5353060">
        <ele>529.0</ele>
        <time>2020-09-13T11:00:38Z</time>
      </trkpt>
      <trkpt lat="42.9010160" lon="-2.5353510">
        <ele>529.0</ele>
        <time>2020-09-13T11:00:42Z</time>
      </trkpt>
      <trkpt lat="42.9010430" lon="-2.5353200">
        <ele>528.8</ele>
        <time>2020-09-13T11:00:46Z</time>
      </trkpt>
      <trkpt lat="42.9010430" lon="-2.5353200">
        <ele>529.2</ele>
        <time>2020-09-13T11:00:50Z</time>
      </trkpt>
      <trkpt lat="42.9010430" lon="-2.5353200">
        <ele>529.0</ele>
        <time>2020-09-13T11:00:54Z</time>
      </trkpt>
      <trkpt lat="42.9010430" lon="-2.5353200">
        <ele>528.6</ele>
        <time>2020-09-13T11:00:58Z</time>
      </trkpt>
      <trkpt lat="42.9010430" lon="-2.5353200">
        <ele>528.6</ele>
        <time>2020-09-13T11:01:02Z</time>
      </trkpt>
      <trkpt lat="42.9010430" lon="-2.5353200">
        <ele>528.6</ele>
        <time>2020-09-13T11:01:06Z</time>
      </trkpt>
      <trkpt lat="42.9010430" lon="-2.5353200">
        <ele>528.4</ele>
        <time>2020-09-13T11:01:10Z</time>
      </trkpt>
      <trkpt lat="42.9010430" lon="-2.5353200">
        <ele>528.8</ele>
        <time>2020-09-13T11:01:14Z</time>
      </trkpt>
      <trkpt lat="42.9010430" lon="-2.5353200">
        <ele>528.8</ele>
        <time>2020-09-13T11:01:18Z</time>
      </trkpt>
      <trkpt lat="42.9010430" lon="-2.5353200">
        <ele>528.8</ele>
        <time>2020-09-13T11:01:22Z</time>
      </trkpt>
      <trkpt lat="42.9010430" lon="-2.5353200">
        <ele>528.8</ele>
        <time>2020-09-13T11:01:26Z</time>
      </trkpt>
      <trkpt lat="42.9010430" lon="-2.5353200">
        <ele>529.0</ele>
        <time>2020-09-13T11:01:30Z</time>
      </trkpt>
      <trkpt lat="42.9010430" lon="-2.5353200">
        <ele>528.4</ele>
        <time>2020-09-13T11:01:34Z</time>
      </trkpt>
      <trkpt lat="42.9010430" lon="-2.5353200">
        <ele>529.0</ele>
        <time>2020-09-13T11:01:38Z</time>
      </trkpt>
      <trkpt lat="42.9010430" lon="-2.5353200">
        <ele>528.8</ele>
        <time>2020-09-13T11:01:42Z</time>
      </trkpt>
      <trkpt lat="42.9010430" lon="-2.5353200">
        <ele>528.6</ele>
        <time>2020-09-13T11:01:46Z</time>
      </trkpt>
      <trkpt lat="42.9010430" lon="-2.5353200">
        <ele>528.6</ele>
        <time>2020-09-13T11:01:50Z</time>
      </trkpt>
      <trkpt lat="42.9010430" lon="-2.5353200">
        <ele>528.8</ele>
        <time>2020-09-13T11:01:54Z</time>
      </trkpt>
      <trkpt lat="42.9010430" lon="-2.5353200">
        <ele>528.8</ele>
        <time>2020-09-13T11:01:58Z</time>
      </trkpt>
      <trkpt lat="42.9010430" lon="-2.5353200">
        <ele>528.8</ele>
        <time>2020-09-13T11:02:02Z</time>
      </trkpt>
      <trkpt lat="42.9010430" lon="-2.5353200">
        <ele>528.4</ele>
        <time>2020-09-13T11:02:06Z</time>
      </trkpt>
      <trkpt lat="42.9010430" lon="-2.5353200">
        <ele>529.0</ele>
        <time>2020-09-13T11:02:10Z</time>
      </trkpt>
      <trkpt lat="42.9010430" lon="-2.5353200">
        <ele>528.8</ele>
        <time>2020-09-13T11:02:14Z</time>
      </trkpt>
      <trkpt lat="42.9010430" lon="-2.5353200">
        <ele>529.0</ele>
        <time>2020-09-13T11:02:18Z</time>
      </trkpt>
      <trkpt lat="42.9010430" lon="-2.5353200">
        <ele>528.6</ele>
        <time>2020-09-13T11:02:22Z</time>
      </trkpt>
      <trkpt lat="42.9010430" lon="-2.5353200">
        <ele>528.8</ele>
        <time>2020-09-13T11:02:26Z</time>
      </trkpt>
      <trkpt lat="42.9010430" lon="-2.5353200">
        <ele>528.8</ele>
        <time>2020-09-13T11:02:30Z</time>
      </trkpt>
      <trkpt lat="42.9010430" lon="-2.5353200">
        <ele>529.2</ele>
        <time>2020-09-13T11:02:34Z</time>
      </trkpt>
      <trkpt lat="42.9010430" lon="-2.5353200">
        <ele>529.4</ele>
        <time>2020-09-13T11:02:38Z</time>
      </trkpt>
      <trkpt lat="42.9010430" lon="-2.5353200">
        <ele>529.4</ele>
        <time>2020-09-13T11:02:42Z</time>
      </trkpt>
      <trkpt lat="42.9010430" lon="-2.5353200">
        <ele>528.8</ele>
        <time>2020-09-13T11:02:46Z</time>
      </trkpt>
      <trkpt lat="42.9010430" lon="-2.5353200">
        <ele>528.8</ele>
        <time>2020-09-13T11:02:50Z</time>
      </trkpt>
      <trkpt lat="42.9010430" lon="-2.5353200">
        <ele>528.8</ele>
        <time>2020-09-13T11:02:54Z</time>
      </trkpt>
      <trkpt lat="42.9010430" lon="-2.5353200">
        <ele>528.8</ele>
        <time>2020-09-13T11:02:58Z</time>
      </trkpt>
      <trkpt lat="42.9010430" lon="-2.5353200">
        <ele>528.6</ele>
        <time>2020-09-13T11:03:02Z</time>
      </trkpt>
      <trkpt lat="42.9010430" lon="-2.5353200">
        <ele>528.4</ele>
        <time>2020-09-13T11:03:06Z</time>
      </trkpt>
      <trkpt lat="42.9010430" lon="-2.5353200">
        <ele>528.6</ele>
        <time>2020-09-13T11:03:10Z</time>
      </trkpt>
      <trkpt lat="42.9010430" lon="-2.5353200">
        <ele>528.6</ele>
        <time>2020-09-13T11:03:14Z</time>
      </trkpt>
      <trkpt lat="42.9010430" lon="-2.5353200">
        <ele>528.8</ele>
        <time>2020-09-13T11:03:18Z</time>
      </trkpt>
      <trkpt lat="42.9010430" lon="-2.5353200">
        <ele>528.8</ele>
        <time>2020-09-13T11:03:22Z</time>
      </trkpt>
      <trkpt lat="42.9010430" lon="-2.5353200">
        <ele>528.6</ele>
        <time>2020-09-13T11:03:26Z</time>
      </trkpt>
      <trkpt lat="42.9010430" lon="-2.5353200">
        <ele>528.6</ele>
        <time>2020-09-13T11:03:30Z</time>
      </trkpt>
      <trkpt lat="42.9010430" lon="-2.5353200">
        <ele>529.0</ele>
        <time>2020-09-13T11:03:34Z</time>
      </trkpt>
      <trkpt lat="42.9010430" lon="-2.5353200">
        <ele>528.6</ele>
        <time>2020-09-13T11:03:38Z</time>
      </trkpt>
      <trkpt lat="42.9010430" lon="-2.5353200">
        <ele>529.0</ele>
        <time>2020-09-13T11:03:42Z</time>
      </trkpt>
      <trkpt lat="42.9010430" lon="-2.5353200">
        <ele>529.2</ele>
        <time>2020-09-13T11:03:46Z</time>
      </trkpt>
      <trkpt lat="42.9010610" lon="-2.5353380">
        <ele>529.4</ele>
        <time>2020-09-13T11:03:50Z</time>
      </trkpt>
      <trkpt lat="42.9010610" lon="-2.5353380">
        <ele>528.8</ele>
        <time>2020-09-13T11:03:54Z</time>
      </trkpt>
      <trkpt lat="42.9010630" lon="-2.5353650">
        <ele>528.8</ele>
        <time>2020-09-13T11:03:58Z</time>
      </trkpt>
      <trkpt lat="42.9010400" lon="-2.5353650">
        <ele>529.0</ele>
        <time>2020-09-13T11:04:02Z</time>
      </trkpt>
      <trkpt lat="42.9010130" lon="-2.5354410">
        <ele>528.8</ele>
        <time>2020-09-13T11:04:06Z</time>
      </trkpt>
      <trkpt lat="42.9009760" lon="-2.5355580">
        <ele>529.2</ele>
        <time>2020-09-13T11:04:10Z</time>
      </trkpt>
      <trkpt lat="42.9009460" lon="-2.5357100">
        <ele>527.8</ele>
        <time>2020-09-13T11:04:14Z</time>
      </trkpt>
      <trkpt lat="42.9009300" lon="-2.5358010">
        <ele>527.6</ele>
        <time>2020-09-13T11:04:18Z</time>
      </trkpt>
      <trkpt lat="42.9009300" lon="-2.5358010">
        <ele>527.4</ele>
        <time>2020-09-13T11:04:22Z</time>
      </trkpt>
      <trkpt lat="42.9009300" lon="-2.5358010">
        <ele>528.0</ele>
        <time>2020-09-13T11:04:26Z</time>
      </trkpt>
      <trkpt lat="42.9009210" lon="-2.5358460">
        <ele>527.4</ele>
        <time>2020-09-13T11:04:30Z</time>
      </trkpt>
      <trkpt lat="42.9009360" lon="-2.5358880">
        <ele>527.8</ele>
        <time>2020-09-13T11:04:34Z</time>
      </trkpt>
      <trkpt lat="42.9009510" lon="-2.5359430">
        <ele>528.2</ele>
        <time>2020-09-13T11:04:38Z</time>
      </trkpt>
      <trkpt lat="42.9009880" lon="-2.5360510">
        <ele>528.6</ele>
        <time>2020-09-13T11:04:42Z</time>
      </trkpt>
      <trkpt lat="42.9010110" lon="-2.5362000">
        <ele>529.4</ele>
        <time>2020-09-13T11:04:46Z</time>
      </trkpt>
      <trkpt lat="42.9009810" lon="-2.5363680">
        <ele>529.4</ele>
        <time>2020-09-13T11:04:50Z</time>
      </trkpt>
      <trkpt lat="42.9009600" lon="-2.5365430">
        <ele>528.2</ele>
        <time>2020-09-13T11:04:54Z</time>
      </trkpt>
      <trkpt lat="42.9008680" lon="-2.5367130">
        <ele>525.4</ele>
        <time>2020-09-13T11:04:58Z</time>
      </trkpt>
      <trkpt lat="42.9008730" lon="-2.5369480">
        <ele>526.4</ele>
        <time>2020-09-13T11:05:02Z</time>
      </trkpt>
      <trkpt lat="42.9009310" lon="-2.5370880">
        <ele>525.6</ele>
        <time>2020-09-13T11:05:06Z</time>
      </trkpt>
      <trkpt lat="42.9009930" lon="-2.5372310">
        <ele>527.0</ele>
        <time>2020-09-13T11:05:10Z</time>
      </trkpt>
      <trkpt lat="42.9010400" lon="-2.5373350">
        <ele>526.8</ele>
        <time>2020-09-13T11:05:14Z</time>
      </trkpt>
      <trkpt lat="42.9010810" lon="-2.5374180">
        <ele>526.6</ele>
        <time>2020-09-13T11:05:18Z</time>
      </trkpt>
      <trkpt lat="42.9011100" lon="-2.5374760">
        <ele>526.6</ele>
        <time>2020-09-13T11:05:22Z</time>
      </trkpt>
      <trkpt lat="42.9011130" lon="-2.5375380">
        <ele>526.2</ele>
        <time>2020-09-13T11:05:26Z</time>
      </trkpt>
      <trkpt lat="42.9011130" lon="-2.5375380">
        <ele>526.2</ele>
        <time>2020-09-13T11:05:30Z</time>
      </trkpt>
      <trkpt lat="42.9011130" lon="-2.5375380">
        <ele>525.6</ele>
        <time>2020-09-13T11:05:34Z</time>
      </trkpt>
      <trkpt lat="42.9011130" lon="-2.5375380">
        <ele>526.2</ele>
        <time>2020-09-13T11:05:38Z</time>
      </trkpt>
      <trkpt lat="42.9011130" lon="-2.5375380">
        <ele>525.6</ele>
        <time>2020-09-13T11:05:42Z</time>
      </trkpt>
      <trkpt lat="42.9011130" lon="-2.5375380">
        <ele>525.8</ele>
        <time>2020-09-13T11:05:46Z</time>
      </trkpt>
      <trkpt lat="42.9011130" lon="-2.5375380">
        <ele>525.8</ele>
        <time>2020-09-13T11:05:50Z</time>
      </trkpt>
      <trkpt lat="42.9011130" lon="-2.5375380">
        <ele>525.8</ele>
        <time>2020-09-13T11:05:54Z</time>
      </trkpt>
      <trkpt lat="42.9011130" lon="-2.5375380">
        <ele>526.2</ele>
        <time>2020-09-13T11:05:58Z</time>
      </trkpt>
      <trkpt lat="42.9011180" lon="-2.5375560">
        <ele>525.4</ele>
        <time>2020-09-13T11:06:02Z</time>
      </trkpt>
      <trkpt lat="42.9011060" lon="-2.5376550">
        <ele>525.6</ele>
        <time>2020-09-13T11:06:06Z</time>
      </trkpt>
      <trkpt lat="42.9010960" lon="-2.5378510">
        <ele>526.2</ele>
        <time>2020-09-13T11:06:10Z</time>
      </trkpt>
      <trkpt lat="42.9010950" lon="-2.5380650">
        <ele>524.4</ele>
        <time>2020-09-13T11:06:14Z</time>
      </trkpt>
      <trkpt lat="42.9010960" lon="-2.5382610">
        <ele>524.4</ele>
        <time>2020-09-13T11:06:18Z</time>
      </trkpt>
      <trkpt lat="42.9011030" lon="-2.5384510">
        <ele>524.4</ele>
        <time>2020-09-13T11:06:22Z</time>
      </trkpt>
      <trkpt lat="42.9011130" lon="-2.5386250">
        <ele>524.4</ele>
        <time>2020-09-13T11:06:26Z</time>
      </trkpt>
      <trkpt lat="42.9010600" lon="-2.5386800">
        <ele>524.6</ele>
        <time>2020-09-13T11:06:30Z</time>
      </trkpt>
      <trkpt lat="42.9010430" lon="-2.5385860">
        <ele>524.4</ele>
        <time>2020-09-13T11:06:34Z</time>
      </trkpt>
      <trkpt lat="42.9010430" lon="-2.5385860">
        <ele>524.0</ele>
        <time>2020-09-13T11:06:38Z</time>
      </trkpt>
      <trkpt lat="42.9010450" lon="-2.5385310">
        <ele>524.2</ele>
        <time>2020-09-13T11:06:42Z</time>
      </trkpt>
      <trkpt lat="42.9010730" lon="-2.5385100">
        <ele>524.4</ele>
        <time>2020-09-13T11:06:46Z</time>
      </trkpt>
      <trkpt lat="42.9010950" lon="-2.5385850">
        <ele>524.6</ele>
        <time>2020-09-13T11:06:50Z</time>
      </trkpt>
      <trkpt lat="42.9010860" lon="-2.5386880">
        <ele>524.2</ele>
        <time>2020-09-13T11:06:54Z</time>
      </trkpt>
      <trkpt lat="42.9011000" lon="-2.5388010">
        <ele>524.6</ele>
        <time>2020-09-13T11:06:58Z</time>
      </trkpt>
      <trkpt lat="42.9011260" lon="-2.5389000">
        <ele>524.4</ele>
        <time>2020-09-13T11:07:02Z</time>
      </trkpt>
      <trkpt lat="42.9011380" lon="-2.5390010">
        <ele>524.8</ele>
        <time>2020-09-13T11:07:06Z</time>
      </trkpt>
      <trkpt lat="42.9011600" lon="-2.5391010">
        <ele>525.6</ele>
        <time>2020-09-13T11:07:10Z</time>
      </trkpt>
      <trkpt lat="42.9011910" lon="-2.5392000">
        <ele>525.4</ele>
        <time>2020-09-13T11:07:14Z</time>
      </trkpt>
      <trkpt lat="42.9012400" lon="-2.5393550">
        <ele>525.0</ele>
        <time>2020-09-13T11:07:18Z</time>
      </trkpt>
      <trkpt lat="42.9013010" lon="-2.5395250">
        <ele>525.4</ele>
        <time>2020-09-13T11:07:22Z</time>
      </trkpt>
      <trkpt lat="42.9013250" lon="-2.5397180">
        <ele>525.0</ele>
        <time>2020-09-13T11:07:26Z</time>
      </trkpt>
      <trkpt lat="42.9013080" lon="-2.5399080">
        <ele>525.6</ele>
        <time>2020-09-13T11:07:30Z</time>
      </trkpt>
      <trkpt lat="42.9012750" lon="-2.5400810">
        <ele>524.6</ele>
        <time>2020-09-13T11:07:34Z</time>
      </trkpt>
      <trkpt lat="42.9012630" lon="-2.5402550">
        <ele>525.0</ele>
        <time>2020-09-13T11:07:38Z</time>
      </trkpt>
      <trkpt lat="42.9012450" lon="-2.5404550">
        <ele>524.8</ele>
        <time>2020-09-13T11:07:42Z</time>
      </trkpt>
      <trkpt lat="42.9012260" lon="-2.5406850">
        <ele>524.4</ele>
        <time>2020-09-13T11:07:46Z</time>
      </trkpt>
      <trkpt lat="42.9012030" lon="-2.5409250">
        <ele>524.2</ele>
        <time>2020-09-13T11:07:50Z</time>
      </trkpt>
      <trkpt lat="42.9011750" lon="-2.5411660">
        <ele>523.8</ele>
        <time>2020-09-13T11:07:54Z</time>
      </trkpt>
      <trkpt lat="42.9011510" lon="-2.5413910">
        <ele>523.0</ele>
        <time>2020-09-13T11:07:58Z</time>
      </trkpt>
      <trkpt lat="42.9011450" lon="-2.5416030">
        <ele>524.2</ele>
        <time>2020-09-13T11:08:02Z</time>
      </trkpt>
      <trkpt lat="42.9011780" lon="-2.5417730">
        <ele>525.2</ele>
        <time>2020-09-13T11:08:06Z</time>
      </trkpt>
      <trkpt lat="42.9012200" lon="-2.5419250">
        <ele>524.2</ele>
        <time>2020-09-13T11:08:10Z</time>
      </trkpt>
      <trkpt lat="42.9012660" lon="-2.5420580">
        <ele>524.8</ele>
        <time>2020-09-13T11:08:14Z</time>
      </trkpt>
      <trkpt lat="42.9013230" lon="-2.5421460">
        <ele>524.8</ele>
        <time>2020-09-13T11:08:18Z</time>
      </trkpt>
      <trkpt lat="42.9013550" lon="-2.5423010">
        <ele>524.2</ele>
        <time>2020-09-13T11:08:22Z</time>
      </trkpt>
      <trkpt lat="42.9013780" lon="-2.5424710">
        <ele>525.8</ele>
        <time>2020-09-13T11:08:26Z</time>
      </trkpt>
      <trkpt lat="42.9013780" lon="-2.5426510">
        <ele>526.2</ele>
        <time>2020-09-13T11:08:30Z</time>
      </trkpt>
      <trkpt lat="42.9013700" lon="-2.5428200">
        <ele>525.0</ele>
        <time>2020-09-13T11:08:34Z</time>
      </trkpt>
      <trkpt lat="42.9013610" lon="-2.5429700">
        <ele>525.6</ele>
        <time>2020-09-13T11:08:38Z</time>
      </trkpt>
      <trkpt lat="42.9013650" lon="-2.5430630">
        <ele>525.6</ele>
        <time>2020-09-13T11:08:42Z</time>
      </trkpt>
      <trkpt lat="42.9013760" lon="-2.5431510">
        <ele>525.8</ele>
        <time>2020-09-13T11:08:46Z</time>
      </trkpt>
      <trkpt lat="42.9013700" lon="-2.5432530">
        <ele>525.0</ele>
        <time>2020-09-13T11:08:50Z</time>
      </trkpt>
      <trkpt lat="42.9013660" lon="-2.5433510">
        <ele>524.6</ele>
        <time>2020-09-13T11:08:54Z</time>
      </trkpt>
      <trkpt lat="42.9013710" lon="-2.5434360">
        <ele>523.8</ele>
        <time>2020-09-13T11:08:58Z</time>
      </trkpt>
      <trkpt lat="42.9013810" lon="-2.5435550">
        <ele>524.0</ele>
        <time>2020-09-13T11:09:02Z</time>
      </trkpt>
      <trkpt lat="42.9014010" lon="-2.5437160">
        <ele>523.8</ele>
        <time>2020-09-13T11:09:06Z</time>
      </trkpt>
      <trkpt lat="42.9014080" lon="-2.5438580">
        <ele>523.0</ele>
        <time>2020-09-13T11:09:10Z</time>
      </trkpt>
      <trkpt lat="42.9014130" lon="-2.5440010">
        <ele>522.8</ele>
        <time>2020-09-13T11:09:14Z</time>
      </trkpt>
      <trkpt lat="42.9014180" lon="-2.5441560">
        <ele>523.0</ele>
        <time>2020-09-13T11:09:18Z</time>
      </trkpt>
      <trkpt lat="42.9013650" lon="-2.5442360">
        <ele>522.8</ele>
        <time>2020-09-13T11:09:22Z</time>
      </trkpt>
      <trkpt lat="42.9013250" lon="-2.5441480">
        <ele>523.0</ele>
        <time>2020-09-13T11:09:26Z</time>
      </trkpt>
      <trkpt lat="42.9012950" lon="-2.5440460">
        <ele>524.2</ele>
        <time>2020-09-13T11:09:30Z</time>
      </trkpt>
      <trkpt lat="42.9012300" lon="-2.5439400">
        <ele>521.6</ele>
        <time>2020-09-13T11:09:34Z</time>
      </trkpt>
      <trkpt lat="42.9011430" lon="-2.5438050">
        <ele>522.8</ele>
        <time>2020-09-13T11:09:38Z</time>
      </trkpt>
      <trkpt lat="42.9010400" lon="-2.5436560">
        <ele>521.6</ele>
        <time>2020-09-13T11:09:42Z</time>
      </trkpt>
      <trkpt lat="42.9009750" lon="-2.5435250">
        <ele>522.2</ele>
        <time>2020-09-13T11:09:46Z</time>
      </trkpt>
      <trkpt lat="42.9008830" lon="-2.5434230">
        <ele>521.8</ele>
        <time>2020-09-13T11:09:50Z</time>
      </trkpt>
      <trkpt lat="42.9007960" lon="-2.5433060">
        <ele>522.2</ele>
        <time>2020-09-13T11:09:54Z</time>
      </trkpt>
      <trkpt lat="42.9007580" lon="-2.5431560">
        <ele>522.6</ele>
        <time>2020-09-13T11:09:58Z</time>
      </trkpt>
      <trkpt lat="42.9007130" lon="-2.5430710">
        <ele>523.0</ele>
        <time>2020-09-13T11:10:02Z</time>
      </trkpt>
      <trkpt lat="42.9007030" lon="-2.5429660">
        <ele>523.6</ele>
        <time>2020-09-13T11:10:06Z</time>
      </trkpt>
      <trkpt lat="42.9006260" lon="-2.5429300">
        <ele>522.8</ele>
        <time>2020-09-13T11:10:10Z</time>
      </trkpt>
      <trkpt lat="42.9005710" lon="-2.5428900">
        <ele>523.0</ele>
        <time>2020-09-13T11:10:14Z</time>
      </trkpt>
      <trkpt lat="42.9005710" lon="-2.5428900">
        <ele>522.8</ele>
        <time>2020-09-13T11:10:18Z</time>
      </trkpt>
      <trkpt lat="42.9005710" lon="-2.5428900">
        <ele>523.0</ele>
        <time>2020-09-13T11:10:22Z</time>
      </trkpt>
      <trkpt lat="42.9005710" lon="-2.5428900">
        <ele>522.8</ele>
        <time>2020-09-13T11:10:26Z</time>
      </trkpt>
      <trkpt lat="42.9005710" lon="-2.5428900">
        <ele>522.8</ele>
        <time>2020-09-13T11:10:30Z</time>
      </trkpt>
      <trkpt lat="42.9005710" lon="-2.5428900">
        <ele>522.8</ele>
        <time>2020-09-13T11:10:34Z</time>
      </trkpt>
      <trkpt lat="42.9005710" lon="-2.5428900">
        <ele>523.0</ele>
        <time>2020-09-13T11:10:38Z</time>
      </trkpt>
      <trkpt lat="42.9005710" lon="-2.5428900">
        <ele>522.8</ele>
        <time>2020-09-13T11:10:42Z</time>
      </trkpt>
      <trkpt lat="42.9005710" lon="-2.5428900">
        <ele>523.0</ele>
        <time>2020-09-13T11:10:46Z</time>
      </trkpt>
      <trkpt lat="42.9005710" lon="-2.5428900">
        <ele>522.6</ele>
        <time>2020-09-13T11:10:50Z</time>
      </trkpt>
      <trkpt lat="42.9005710" lon="-2.5428900">
        <ele>523.2</ele>
        <time>2020-09-13T11:10:54Z</time>
      </trkpt>
      <trkpt lat="42.9005710" lon="-2.5428900">
        <ele>523.0</ele>
        <time>2020-09-13T11:10:58Z</time>
      </trkpt>
      <trkpt lat="42.9005710" lon="-2.5428900">
        <ele>522.8</ele>
        <time>2020-09-13T11:11:02Z</time>
      </trkpt>
      <trkpt lat="42.9005710" lon="-2.5428900">
        <ele>523.0</ele>
        <time>2020-09-13T11:11:06Z</time>
      </trkpt>
      <trkpt lat="42.9005710" lon="-2.5428900">
        <ele>522.8</ele>
        <time>2020-09-13T11:11:10Z</time>
      </trkpt>
      <trkpt lat="42.9005710" lon="-2.5428900">
        <ele>522.8</ele>
        <time>2020-09-13T11:11:14Z</time>
      </trkpt>
      <trkpt lat="42.9005710" lon="-2.5428900">
        <ele>523.0</ele>
        <time>2020-09-13T11:11:18Z</time>
      </trkpt>
      <trkpt lat="42.9005710" lon="-2.5428900">
        <ele>523.0</ele>
        <time>2020-09-13T11:11:22Z</time>
      </trkpt>
      <trkpt lat="42.9005710" lon="-2.5428900">
        <ele>523.0</ele>
        <time>2020-09-13T11:11:26Z</time>
      </trkpt>
      <trkpt lat="42.9005710" lon="-2.5428900">
        <ele>523.2</ele>
        <time>2020-09-13T11:11:30Z</time>
      </trkpt>
      <trkpt lat="42.9005710" lon="-2.5428900">
        <ele>523.0</ele>
        <time>2020-09-13T11:11:34Z</time>
      </trkpt>
      <trkpt lat="42.9005710" lon="-2.5428900">
        <ele>523.0</ele>
        <time>2020-09-13T11:11:38Z</time>
      </trkpt>
      <trkpt lat="42.9005710" lon="-2.5428900">
        <ele>523.2</ele>
        <time>2020-09-13T11:11:42Z</time>
      </trkpt>
      <trkpt lat="42.9005710" lon="-2.5428900">
        <ele>523.4</ele>
        <time>2020-09-13T11:11:46Z</time>
      </trkpt>
      <trkpt lat="42.9005710" lon="-2.5428900">
        <ele>523.0</ele>
        <time>2020-09-13T11:11:50Z</time>
      </trkpt>
      <trkpt lat="42.9005710" lon="-2.5428900">
        <ele>523.0</ele>
        <time>2020-09-13T11:11:54Z</time>
      </trkpt>
      <trkpt lat="42.9005710" lon="-2.5428900">
        <ele>523.0</ele>
        <time>2020-09-13T11:11:58Z</time>
      </trkpt>
      <trkpt lat="42.9005710" lon="-2.5428900">
        <ele>523.0</ele>
        <time>2020-09-13T11:12:02Z</time>
      </trkpt>
      <trkpt lat="42.9005710" lon="-2.5428900">
        <ele>523.2</ele>
        <time>2020-09-13T11:12:06Z</time>
      </trkpt>
      <trkpt lat="42.9005710" lon="-2.5428900">
        <ele>523.2</ele>
        <time>2020-09-13T11:12:10Z</time>
      </trkpt>
      <trkpt lat="42.9005710" lon="-2.5428900">
        <ele>523.6</ele>
        <time>2020-09-13T11:12:14Z</time>
      </trkpt>
      <trkpt lat="42.9005710" lon="-2.5428900">
        <ele>523.4</ele>
        <time>2020-09-13T11:12:18Z</time>
      </trkpt>
      <trkpt lat="42.9005710" lon="-2.5428900">
        <ele>523.6</ele>
        <time>2020-09-13T11:12:22Z</time>
      </trkpt>
      <trkpt lat="42.9005710" lon="-2.5428900">
        <ele>523.4</ele>
        <time>2020-09-13T11:12:26Z</time>
      </trkpt>
      <trkpt lat="42.9005710" lon="-2.5428900">
        <ele>523.6</ele>
        <time>2020-09-13T11:12:30Z</time>
      </trkpt>
      <trkpt lat="42.9005710" lon="-2.5428900">
        <ele>523.6</ele>
        <time>2020-09-13T11:12:34Z</time>
      </trkpt>
      <trkpt lat="42.9005710" lon="-2.5428900">
        <ele>523.4</ele>
        <time>2020-09-13T11:12:38Z</time>
      </trkpt>
      <trkpt lat="42.9005710" lon="-2.5428900">
        <ele>523.4</ele>
        <time>2020-09-13T11:12:42Z</time>
      </trkpt>
      <trkpt lat="42.9005710" lon="-2.5428900">
        <ele>523.2</ele>
        <time>2020-09-13T11:12:46Z</time>
      </trkpt>
      <trkpt lat="42.9005710" lon="-2.5428900">
        <ele>523.2</ele>
        <time>2020-09-13T11:12:50Z</time>
      </trkpt>
      <trkpt lat="42.9005710" lon="-2.5428900">
        <ele>523.6</ele>
        <time>2020-09-13T11:12:54Z</time>
      </trkpt>
      <trkpt lat="42.9005710" lon="-2.5428900">
        <ele>523.2</ele>
        <time>2020-09-13T11:12:58Z</time>
      </trkpt>
      <trkpt lat="42.9005710" lon="-2.5428900">
        <ele>523.2</ele>
        <time>2020-09-13T11:13:02Z</time>
      </trkpt>
      <trkpt lat="42.9005710" lon="-2.5428900">
        <ele>523.6</ele>
        <time>2020-09-13T11:13:06Z</time>
      </trkpt>
      <trkpt lat="42.9005710" lon="-2.5428900">
        <ele>523.8</ele>
        <time>2020-09-13T11:13:10Z</time>
      </trkpt>
      <trkpt lat="42.9005710" lon="-2.5428900">
        <ele>523.6</ele>
        <time>2020-09-13T11:13:14Z</time>
      </trkpt>
      <trkpt lat="42.9005710" lon="-2.5428900">
        <ele>523.6</ele>
        <time>2020-09-13T11:13:18Z</time>
      </trkpt>
      <trkpt lat="42.9005710" lon="-2.5428900">
        <ele>523.8</ele>
        <time>2020-09-13T11:13:22Z</time>
      </trkpt>
      <trkpt lat="42.9005710" lon="-2.5428900">
        <ele>523.8</ele>
        <time>2020-09-13T11:13:26Z</time>
      </trkpt>
      <trkpt lat="42.9005710" lon="-2.5428900">
        <ele>523.6</ele>
        <time>2020-09-13T11:13:30Z</time>
      </trkpt>
      <trkpt lat="42.9005710" lon="-2.5428900">
        <ele>523.2</ele>
        <time>2020-09-13T11:13:34Z</time>
      </trkpt>
      <trkpt lat="42.9005710" lon="-2.5428900">
        <ele>523.0</ele>
        <time>2020-09-13T11:13:38Z</time>
      </trkpt>
      <trkpt lat="42.9005710" lon="-2.5428900">
        <ele>523.4</ele>
        <time>2020-09-13T11:13:42Z</time>
      </trkpt>
      <trkpt lat="42.9005710" lon="-2.5428900">
        <ele>523.2</ele>
        <time>2020-09-13T11:13:46Z</time>
      </trkpt>
      <trkpt lat="42.9005710" lon="-2.5428900">
        <ele>523.2</ele>
        <time>2020-09-13T11:13:50Z</time>
      </trkpt>
      <trkpt lat="42.9005710" lon="-2.5428900">
        <ele>523.6</ele>
        <time>2020-09-13T11:13:54Z</time>
      </trkpt>
      <trkpt lat="42.9005710" lon="-2.5428900">
        <ele>523.2</ele>
        <time>2020-09-13T11:13:58Z</time>
      </trkpt>
      <trkpt lat="42.9005710" lon="-2.5428900">
        <ele>523.2</ele>
        <time>2020-09-13T11:14:02Z</time>
      </trkpt>
      <trkpt lat="42.9005710" lon="-2.5428900">
        <ele>523.6</ele>
        <time>2020-09-13T11:14:06Z</time>
      </trkpt>
      <trkpt lat="42.9005710" lon="-2.5428900">
        <ele>523.4</ele>
        <time>2020-09-13T11:14:10Z</time>
      </trkpt>
      <trkpt lat="42.9005710" lon="-2.5428900">
        <ele>523.6</ele>
        <time>2020-09-13T11:14:14Z</time>
      </trkpt>
      <trkpt lat="42.9005710" lon="-2.5428900">
        <ele>523.6</ele>
        <time>2020-09-13T11:14:18Z</time>
      </trkpt>
      <trkpt lat="42.9005710" lon="-2.5428900">
        <ele>523.4</ele>
        <time>2020-09-13T11:14:22Z</time>
      </trkpt>
      <trkpt lat="42.9005710" lon="-2.5428900">
        <ele>523.8</ele>
        <time>2020-09-13T11:14:26Z</time>
      </trkpt>
      <trkpt lat="42.9005710" lon="-2.5428900">
        <ele>523.6</ele>
        <time>2020-09-13T11:14:30Z</time>
      </trkpt>
      <trkpt lat="42.9005710" lon="-2.5428900">
        <ele>523.6</ele>
        <time>2020-09-13T11:14:34Z</time>
      </trkpt>
      <trkpt lat="42.9005710" lon="-2.5428900">
        <ele>523.6</ele>
        <time>2020-09-13T11:14:38Z</time>
      </trkpt>
      <trkpt lat="42.9005710" lon="-2.5428900">
        <ele>523.6</ele>
        <time>2020-09-13T11:14:42Z</time>
      </trkpt>
      <trkpt lat="42.9005710" lon="-2.5428900">
        <ele>523.4</ele>
        <time>2020-09-13T11:14:46Z</time>
      </trkpt>
      <trkpt lat="42.9005710" lon="-2.5428900">
        <ele>523.0</ele>
        <time>2020-09-13T11:14:50Z</time>
      </trkpt>
      <trkpt lat="42.9005710" lon="-2.5428900">
        <ele>523.0</ele>
        <time>2020-09-13T11:14:54Z</time>
      </trkpt>
      <trkpt lat="42.9005710" lon="-2.5428900">
        <ele>523.2</ele>
        <time>2020-09-13T11:14:58Z</time>
      </trkpt>
      <trkpt lat="42.9005710" lon="-2.5428900">
        <ele>523.4</ele>
        <time>2020-09-13T11:15:02Z</time>
      </trkpt>
      <trkpt lat="42.9005710" lon="-2.5428900">
        <ele>523.8</ele>
        <time>2020-09-13T11:15:06Z</time>
      </trkpt>
      <trkpt lat="42.9005710" lon="-2.5428900">
        <ele>523.4</ele>
        <time>2020-09-13T11:15:10Z</time>
      </trkpt>
      <trkpt lat="42.9005710" lon="-2.5428900">
        <ele>523.6</ele>
        <time>2020-09-13T11:15:14Z</time>
      </trkpt>
      <trkpt lat="42.9005710" lon="-2.5428900">
        <ele>523.2</ele>
        <time>2020-09-13T11:15:18Z</time>
      </trkpt>
      <trkpt lat="42.9005710" lon="-2.5428900">
        <ele>523.2</ele>
        <time>2020-09-13T11:15:22Z</time>
      </trkpt>
      <trkpt lat="42.9005710" lon="-2.5428900">
        <ele>523.2</ele>
        <time>2020-09-13T11:15:26Z</time>
      </trkpt>
      <trkpt lat="42.9005710" lon="-2.5428900">
        <ele>523.6</ele>
        <time>2020-09-13T11:15:30Z</time>
      </trkpt>
      <trkpt lat="42.9005710" lon="-2.5428900">
        <ele>523.0</ele>
        <time>2020-09-13T11:15:34Z</time>
      </trkpt>
      <trkpt lat="42.9005710" lon="-2.5428900">
        <ele>523.2</ele>
        <time>2020-09-13T11:15:38Z</time>
      </trkpt>
      <trkpt lat="42.9005710" lon="-2.5428900">
        <ele>523.2</ele>
        <time>2020-09-13T11:15:42Z</time>
      </trkpt>
      <trkpt lat="42.9005710" lon="-2.5428900">
        <ele>523.6</ele>
        <time>2020-09-13T11:15:46Z</time>
      </trkpt>
      <trkpt lat="42.9005710" lon="-2.5428900">
        <ele>523.4</ele>
        <time>2020-09-13T11:15:50Z</time>
      </trkpt>
      <trkpt lat="42.9005710" lon="-2.5428900">
        <ele>523.4</ele>
        <time>2020-09-13T11:15:54Z</time>
      </trkpt>
      <trkpt lat="42.9005710" lon="-2.5428900">
        <ele>523.4</ele>
        <time>2020-09-13T11:15:58Z</time>
      </trkpt>
      <trkpt lat="42.9005710" lon="-2.5428900">
        <ele>523.2</ele>
        <time>2020-09-13T11:16:02Z</time>
      </trkpt>
      <trkpt lat="42.9005710" lon="-2.5428900">
        <ele>523.0</ele>
        <time>2020-09-13T11:16:06Z</time>
      </trkpt>
      <trkpt lat="42.9005710" lon="-2.5428900">
        <ele>523.2</ele>
        <time>2020-09-13T11:16:10Z</time>
      </trkpt>
      <trkpt lat="42.9005710" lon="-2.5428900">
        <ele>523.4</ele>
        <time>2020-09-13T11:16:14Z</time>
      </trkpt>
      <trkpt lat="42.9005710" lon="-2.5428900">
        <ele>522.8</ele>
        <time>2020-09-13T11:16:18Z</time>
      </trkpt>
      <trkpt lat="42.9005710" lon="-2.5428900">
        <ele>523.2</ele>
        <time>2020-09-13T11:16:22Z</time>
      </trkpt>
      <trkpt lat="42.9005710" lon="-2.5428900">
        <ele>523.4</ele>
        <time>2020-09-13T11:16:26Z</time>
      </trkpt>
      <trkpt lat="42.9005710" lon="-2.5428900">
        <ele>523.0</ele>
        <time>2020-09-13T11:16:30Z</time>
      </trkpt>
      <trkpt lat="42.9005710" lon="-2.5428900">
        <ele>523.4</ele>
        <time>2020-09-13T11:16:34Z</time>
      </trkpt>
      <trkpt lat="42.9005710" lon="-2.5428900">
        <ele>523.2</ele>
        <time>2020-09-13T11:16:38Z</time>
      </trkpt>
      <trkpt lat="42.9005710" lon="-2.5428900">
        <ele>523.6</ele>
        <time>2020-09-13T11:16:42Z</time>
      </trkpt>
      <trkpt lat="42.9005710" lon="-2.5428900">
        <ele>523.2</ele>
        <time>2020-09-13T11:16:46Z</time>
      </trkpt>
      <trkpt lat="42.9005710" lon="-2.5428900">
        <ele>523.4</ele>
        <time>2020-09-13T11:16:50Z</time>
      </trkpt>
      <trkpt lat="42.9005710" lon="-2.5428900">
        <ele>523.4</ele>
        <time>2020-09-13T11:16:54Z</time>
      </trkpt>
      <trkpt lat="42.9005710" lon="-2.5428900">
        <ele>523.6</ele>
        <time>2020-09-13T11:16:58Z</time>
      </trkpt>
      <trkpt lat="42.9005710" lon="-2.5428900">
        <ele>523.2</ele>
        <time>2020-09-13T11:17:02Z</time>
      </trkpt>
      <trkpt lat="42.9005710" lon="-2.5428900">
        <ele>523.4</ele>
        <time>2020-09-13T11:17:06Z</time>
      </trkpt>
      <trkpt lat="42.9005710" lon="-2.5428900">
        <ele>523.2</ele>
        <time>2020-09-13T11:17:10Z</time>
      </trkpt>
      <trkpt lat="42.9005710" lon="-2.5428900">
        <ele>523.6</ele>
        <time>2020-09-13T11:17:14Z</time>
      </trkpt>
      <trkpt lat="42.9005710" lon="-2.5428900">
        <ele>523.0</ele>
        <time>2020-09-13T11:17:18Z</time>
      </trkpt>
      <trkpt lat="42.9005710" lon="-2.5428900">
        <ele>523.4</ele>
        <time>2020-09-13T11:17:22Z</time>
      </trkpt>
      <trkpt lat="42.9005710" lon="-2.5428900">
        <ele>523.6</ele>
        <time>2020-09-13T11:17:26Z</time>
      </trkpt>
      <trkpt lat="42.9005710" lon="-2.5428900">
        <ele>523.8</ele>
        <time>2020-09-13T11:17:30Z</time>
      </trkpt>
      <trkpt lat="42.9005710" lon="-2.5428900">
        <ele>523.8</ele>
        <time>2020-09-13T11:17:34Z</time>
      </trkpt>
      <trkpt lat="42.9005710" lon="-2.5428900">
        <ele>523.6</ele>
        <time>2020-09-13T11:17:38Z</time>
      </trkpt>
      <trkpt lat="42.9005710" lon="-2.5428900">
        <ele>523.8</ele>
        <time>2020-09-13T11:17:42Z</time>
      </trkpt>
      <trkpt lat="42.9005710" lon="-2.5428900">
        <ele>524.0</ele>
        <time>2020-09-13T11:17:46Z</time>
      </trkpt>
      <trkpt lat="42.9005710" lon="-2.5428900">
        <ele>524.0</ele>
        <time>2020-09-13T11:17:50Z</time>
      </trkpt>
      <trkpt lat="42.9005710" lon="-2.5428900">
        <ele>523.8</ele>
        <time>2020-09-13T11:17:54Z</time>
      </trkpt>
      <trkpt lat="42.9005710" lon="-2.5428900">
        <ele>523.6</ele>
        <time>2020-09-13T11:17:58Z</time>
      </trkpt>
      <trkpt lat="42.9005710" lon="-2.5428900">
        <ele>523.4</ele>
        <time>2020-09-13T11:18:02Z</time>
      </trkpt>
      <trkpt lat="42.9005710" lon="-2.5428900">
        <ele>523.8</ele>
        <time>2020-09-13T11:18:06Z</time>
      </trkpt>
      <trkpt lat="42.9005710" lon="-2.5428900">
        <ele>523.6</ele>
        <time>2020-09-13T11:18:10Z</time>
      </trkpt>
      <trkpt lat="42.9005710" lon="-2.5428900">
        <ele>523.6</ele>
        <time>2020-09-13T11:18:14Z</time>
      </trkpt>
      <trkpt lat="42.9005710" lon="-2.5428900">
        <ele>523.6</ele>
        <time>2020-09-13T11:18:18Z</time>
      </trkpt>
      <trkpt lat="42.9005710" lon="-2.5428900">
        <ele>523.0</ele>
        <time>2020-09-13T11:18:22Z</time>
      </trkpt>
      <trkpt lat="42.9005710" lon="-2.5428900">
        <ele>524.0</ele>
        <time>2020-09-13T11:18:26Z</time>
      </trkpt>
      <trkpt lat="42.9005710" lon="-2.5428900">
        <ele>523.6</ele>
        <time>2020-09-13T11:18:30Z</time>
      </trkpt>
      <trkpt lat="42.9005710" lon="-2.5428900">
        <ele>523.6</ele>
        <time>2020-09-13T11:18:34Z</time>
      </trkpt>
      <trkpt lat="42.9005710" lon="-2.5428900">
        <ele>523.4</ele>
        <time>2020-09-13T11:18:38Z</time>
      </trkpt>
      <trkpt lat="42.9005710" lon="-2.5428900">
        <ele>523.2</ele>
        <time>2020-09-13T11:18:42Z</time>
      </trkpt>
      <trkpt lat="42.9005710" lon="-2.5428900">
        <ele>523.8</ele>
        <time>2020-09-13T11:18:46Z</time>
      </trkpt>
      <trkpt lat="42.9005710" lon="-2.5428900">
        <ele>523.6</ele>
        <time>2020-09-13T11:18:50Z</time>
      </trkpt>
      <trkpt lat="42.9005710" lon="-2.5428900">
        <ele>523.8</ele>
        <time>2020-09-13T11:18:54Z</time>
      </trkpt>
      <trkpt lat="42.9005710" lon="-2.5428900">
        <ele>523.6</ele>
        <time>2020-09-13T11:18:58Z</time>
      </trkpt>
      <trkpt lat="42.9005710" lon="-2.5428900">
        <ele>524.0</ele>
        <time>2020-09-13T11:19:02Z</time>
      </trkpt>
      <trkpt lat="42.9005710" lon="-2.5428900">
        <ele>523.8</ele>
        <time>2020-09-13T11:19:06Z</time>
      </trkpt>
      <trkpt lat="42.9005710" lon="-2.5428900">
        <ele>523.6</ele>
        <time>2020-09-13T11:19:10Z</time>
      </trkpt>
      <trkpt lat="42.9005710" lon="-2.5428900">
        <ele>523.4</ele>
        <time>2020-09-13T11:19:14Z</time>
      </trkpt>
      <trkpt lat="42.9005710" lon="-2.5428900">
        <ele>523.4</ele>
        <time>2020-09-13T11:19:18Z</time>
      </trkpt>
      <trkpt lat="42.9005710" lon="-2.5428900">
        <ele>523.2</ele>
        <time>2020-09-13T11:19:22Z</time>
      </trkpt>
      <trkpt lat="42.9005710" lon="-2.5428900">
        <ele>523.4</ele>
        <time>2020-09-13T11:19:26Z</time>
      </trkpt>
      <trkpt lat="42.9005710" lon="-2.5428900">
        <ele>523.2</ele>
        <time>2020-09-13T11:19:30Z</time>
      </trkpt>
      <trkpt lat="42.9005710" lon="-2.5428900">
        <ele>523.6</ele>
        <time>2020-09-13T11:19:34Z</time>
      </trkpt>
      <trkpt lat="42.9005710" lon="-2.5428900">
        <ele>523.2</ele>
        <time>2020-09-13T11:19:38Z</time>
      </trkpt>
      <trkpt lat="42.9005710" lon="-2.5428900">
        <ele>523.0</ele>
        <time>2020-09-13T11:19:42Z</time>
      </trkpt>
      <trkpt lat="42.9005710" lon="-2.5428900">
        <ele>523.2</ele>
        <time>2020-09-13T11:19:46Z</time>
      </trkpt>
      <trkpt lat="42.9005710" lon="-2.5428900">
        <ele>523.4</ele>
        <time>2020-09-13T11:19:50Z</time>
      </trkpt>
      <trkpt lat="42.9005710" lon="-2.5428900">
        <ele>523.4</ele>
        <time>2020-09-13T11:19:54Z</time>
      </trkpt>
      <trkpt lat="42.9005710" lon="-2.5428900">
        <ele>523.6</ele>
        <time>2020-09-13T11:19:58Z</time>
      </trkpt>
      <trkpt lat="42.9005710" lon="-2.5428900">
        <ele>523.6</ele>
        <time>2020-09-13T11:20:02Z</time>
      </trkpt>
      <trkpt lat="42.9005710" lon="-2.5428900">
        <ele>523.8</ele>
        <time>2020-09-13T11:20:06Z</time>
      </trkpt>
      <trkpt lat="42.9005710" lon="-2.5428900">
        <ele>523.0</ele>
        <time>2020-09-13T11:20:10Z</time>
      </trkpt>
      <trkpt lat="42.9005710" lon="-2.5428900">
        <ele>523.0</ele>
        <time>2020-09-13T11:20:14Z</time>
      </trkpt>
      <trkpt lat="42.9005710" lon="-2.5428900">
        <ele>523.2</ele>
        <time>2020-09-13T11:20:18Z</time>
      </trkpt>
      <trkpt lat="42.9005710" lon="-2.5428900">
        <ele>523.0</ele>
        <time>2020-09-13T11:20:22Z</time>
      </trkpt>
      <trkpt lat="42.9005710" lon="-2.5428900">
        <ele>523.2</ele>
        <time>2020-09-13T11:20:26Z</time>
      </trkpt>
      <trkpt lat="42.9005710" lon="-2.5428900">
        <ele>523.0</ele>
        <time>2020-09-13T11:20:30Z</time>
      </trkpt>
      <trkpt lat="42.9005710" lon="-2.5428900">
        <ele>523.4</ele>
        <time>2020-09-13T11:20:34Z</time>
      </trkpt>
      <trkpt lat="42.9005710" lon="-2.5428900">
        <ele>523.4</ele>
        <time>2020-09-13T11:20:38Z</time>
      </trkpt>
      <trkpt lat="42.9005710" lon="-2.5428900">
        <ele>523.2</ele>
        <time>2020-09-13T11:20:42Z</time>
      </trkpt>
      <trkpt lat="42.9005710" lon="-2.5428900">
        <ele>523.0</ele>
        <time>2020-09-13T11:20:46Z</time>
      </trkpt>
      <trkpt lat="42.9005710" lon="-2.5428900">
        <ele>523.0</ele>
        <time>2020-09-13T11:20:50Z</time>
      </trkpt>
      <trkpt lat="42.9005710" lon="-2.5428900">
        <ele>523.0</ele>
        <time>2020-09-13T11:20:54Z</time>
      </trkpt>
      <trkpt lat="42.9005710" lon="-2.5428900">
        <ele>523.4</ele>
        <time>2020-09-13T11:20:58Z</time>
      </trkpt>
      <trkpt lat="42.9005710" lon="-2.5428900">
        <ele>523.0</ele>
        <time>2020-09-13T11:21:02Z</time>
      </trkpt>
      <trkpt lat="42.9005710" lon="-2.5428900">
        <ele>523.2</ele>
        <time>2020-09-13T11:21:06Z</time>
      </trkpt>
      <trkpt lat="42.9005710" lon="-2.5428900">
        <ele>523.4</ele>
        <time>2020-09-13T11:21:10Z</time>
      </trkpt>
      <trkpt lat="42.9005710" lon="-2.5428900">
        <ele>523.6</ele>
        <time>2020-09-13T11:21:14Z</time>
      </trkpt>
      <trkpt lat="42.9005710" lon="-2.5428900">
        <ele>523.2</ele>
        <time>2020-09-13T11:21:18Z</time>
      </trkpt>
      <trkpt lat="42.9005710" lon="-2.5428900">
        <ele>523.4</ele>
        <time>2020-09-13T11:21:22Z</time>
      </trkpt>
      <trkpt lat="42.9005710" lon="-2.5428900">
        <ele>523.2</ele>
        <time>2020-09-13T11:21:26Z</time>
      </trkpt>
      <trkpt lat="42.9005710" lon="-2.5428900">
        <ele>523.6</ele>
        <time>2020-09-13T11:21:30Z</time>
      </trkpt>
      <trkpt lat="42.9005710" lon="-2.5428900">
        <ele>523.8</ele>
        <time>2020-09-13T11:21:34Z</time>
      </trkpt>
      <trkpt lat="42.9005710" lon="-2.5428900">
        <ele>523.4</ele>
        <time>2020-09-13T11:21:38Z</time>
      </trkpt>
      <trkpt lat="42.9005710" lon="-2.5428900">
        <ele>523.6</ele>
        <time>2020-09-13T11:21:42Z</time>
      </trkpt>
      <trkpt lat="42.9005710" lon="-2.5428900">
        <ele>523.6</ele>
        <time>2020-09-13T11:21:46Z</time>
      </trkpt>
      <trkpt lat="42.9005710" lon="-2.5428900">
        <ele>523.4</ele>
        <time>2020-09-13T11:21:50Z</time>
      </trkpt>
      <trkpt lat="42.9005710" lon="-2.5428900">
        <ele>523.4</ele>
        <time>2020-09-13T11:21:54Z</time>
      </trkpt>
      <trkpt lat="42.9005710" lon="-2.5428900">
        <ele>523.2</ele>
        <time>2020-09-13T11:21:58Z</time>
      </trkpt>
      <trkpt lat="42.9005710" lon="-2.5428900">
        <ele>523.6</ele>
        <time>2020-09-13T11:22:02Z</time>
      </trkpt>
      <trkpt lat="42.9005710" lon="-2.5428900">
        <ele>523.6</ele>
        <time>2020-09-13T11:22:06Z</time>
      </trkpt>
      <trkpt lat="42.9005710" lon="-2.5428900">
        <ele>523.2</ele>
        <time>2020-09-13T11:22:10Z</time>
      </trkpt>
      <trkpt lat="42.9005710" lon="-2.5428900">
        <ele>523.4</ele>
        <time>2020-09-13T11:22:14Z</time>
      </trkpt>
      <trkpt lat="42.9005710" lon="-2.5428900">
        <ele>523.6</ele>
        <time>2020-09-13T11:22:18Z</time>
      </trkpt>
      <trkpt lat="42.9005710" lon="-2.5428900">
        <ele>523.6</ele>
        <time>2020-09-13T11:22:22Z</time>
      </trkpt>
      <trkpt lat="42.9005710" lon="-2.5428900">
        <ele>523.4</ele>
        <time>2020-09-13T11:22:26Z</time>
      </trkpt>
      <trkpt lat="42.9005710" lon="-2.5428900">
        <ele>523.4</ele>
        <time>2020-09-13T11:22:30Z</time>
      </trkpt>
      <trkpt lat="42.9005710" lon="-2.5428900">
        <ele>523.6</ele>
        <time>2020-09-13T11:22:34Z</time>
      </trkpt>
      <trkpt lat="42.9005710" lon="-2.5428900">
        <ele>523.4</ele>
        <time>2020-09-13T11:22:38Z</time>
      </trkpt>
      <trkpt lat="42.9005710" lon="-2.5428900">
        <ele>523.2</ele>
        <time>2020-09-13T11:22:42Z</time>
      </trkpt>
      <trkpt lat="42.9005710" lon="-2.5428900">
        <ele>523.6</ele>
        <time>2020-09-13T11:22:46Z</time>
      </trkpt>
      <trkpt lat="42.9005710" lon="-2.5428900">
        <ele>524.0</ele>
        <time>2020-09-13T11:22:50Z</time>
      </trkpt>
      <trkpt lat="42.9005710" lon="-2.5428900">
        <ele>523.4</ele>
        <time>2020-09-13T11:22:54Z</time>
      </trkpt>
      <trkpt lat="42.9005710" lon="-2.5428900">
        <ele>523.6</ele>
        <time>2020-09-13T11:22:58Z</time>
      </trkpt>
      <trkpt lat="42.9005710" lon="-2.5428900">
        <ele>523.8</ele>
        <time>2020-09-13T11:23:02Z</time>
      </trkpt>
      <trkpt lat="42.9005710" lon="-2.5428900">
        <ele>523.8</ele>
        <time>2020-09-13T11:23:06Z</time>
      </trkpt>
      <trkpt lat="42.9005710" lon="-2.5428900">
        <ele>523.8</ele>
        <time>2020-09-13T11:23:10Z</time>
      </trkpt>
      <trkpt lat="42.9005710" lon="-2.5428900">
        <ele>523.6</ele>
        <time>2020-09-13T11:23:14Z</time>
      </trkpt>
      <trkpt lat="42.9005710" lon="-2.5428900">
        <ele>523.6</ele>
        <time>2020-09-13T11:23:18Z</time>
      </trkpt>
      <trkpt lat="42.9005710" lon="-2.5428900">
        <ele>523.6</ele>
        <time>2020-09-13T11:23:22Z</time>
      </trkpt>
      <trkpt lat="42.9005710" lon="-2.5428900">
        <ele>523.8</ele>
        <time>2020-09-13T11:23:26Z</time>
      </trkpt>
      <trkpt lat="42.9005710" lon="-2.5428900">
        <ele>523.6</ele>
        <time>2020-09-13T11:23:30Z</time>
      </trkpt>
      <trkpt lat="42.9005710" lon="-2.5428900">
        <ele>523.6</ele>
        <time>2020-09-13T11:23:34Z</time>
      </trkpt>
      <trkpt lat="42.9005710" lon="-2.5428900">
        <ele>523.8</ele>
        <time>2020-09-13T11:23:38Z</time>
      </trkpt>
      <trkpt lat="42.9005710" lon="-2.5428900">
        <ele>523.6</ele>
        <time>2020-09-13T11:23:42Z</time>
      </trkpt>
      <trkpt lat="42.9005710" lon="-2.5428900">
        <ele>523.8</ele>
        <time>2020-09-13T11:23:46Z</time>
      </trkpt>
      <trkpt lat="42.9005710" lon="-2.5428900">
        <ele>523.8</ele>
        <time>2020-09-13T11:23:50Z</time>
      </trkpt>
      <trkpt lat="42.9005710" lon="-2.5428900">
        <ele>524.0</ele>
        <time>2020-09-13T11:23:54Z</time>
      </trkpt>
      <trkpt lat="42.9005710" lon="-2.5428900">
        <ele>523.8</ele>
        <time>2020-09-13T11:23:58Z</time>
      </trkpt>
      <trkpt lat="42.9005710" lon="-2.5428900">
        <ele>524.0</ele>
        <time>2020-09-13T11:24:02Z</time>
      </trkpt>
      <trkpt lat="42.9005710" lon="-2.5428900">
        <ele>523.4</ele>
        <time>2020-09-13T11:24:06Z</time>
      </trkpt>
      <trkpt lat="42.9005710" lon="-2.5428900">
        <ele>523.6</ele>
        <time>2020-09-13T11:24:10Z</time>
      </trkpt>
      <trkpt lat="42.9005710" lon="-2.5428900">
        <ele>523.8</ele>
        <time>2020-09-13T11:24:14Z</time>
      </trkpt>
      <trkpt lat="42.9005710" lon="-2.5428900">
        <ele>523.6</ele>
        <time>2020-09-13T11:24:18Z</time>
      </trkpt>
      <trkpt lat="42.9005710" lon="-2.5428900">
        <ele>523.8</ele>
        <time>2020-09-13T11:24:22Z</time>
      </trkpt>
      <trkpt lat="42.9005710" lon="-2.5428900">
        <ele>524.4</ele>
        <time>2020-09-13T11:24:26Z</time>
      </trkpt>
      <trkpt lat="42.9005710" lon="-2.5428900">
        <ele>524.0</ele>
        <time>2020-09-13T11:24:30Z</time>
      </trkpt>
      <trkpt lat="42.9005710" lon="-2.5428900">
        <ele>523.8</ele>
        <time>2020-09-13T11:24:34Z</time>
      </trkpt>
      <trkpt lat="42.9005710" lon="-2.5428900">
        <ele>524.2</ele>
        <time>2020-09-13T11:24:38Z</time>
      </trkpt>
      <trkpt lat="42.9005710" lon="-2.5428900">
        <ele>524.4</ele>
        <time>2020-09-13T11:24:42Z</time>
      </trkpt>
      <trkpt lat="42.9005710" lon="-2.5428900">
        <ele>524.0</ele>
        <time>2020-09-13T11:24:46Z</time>
      </trkpt>
      <trkpt lat="42.9005710" lon="-2.5428900">
        <ele>524.0</ele>
        <time>2020-09-13T11:24:50Z</time>
      </trkpt>
      <trkpt lat="42.9005710" lon="-2.5428900">
        <ele>524.0</ele>
        <time>2020-09-13T11:24:54Z</time>
      </trkpt>
      <trkpt lat="42.9005710" lon="-2.5428900">
        <ele>523.8</ele>
        <time>2020-09-13T11:24:58Z</time>
      </trkpt>
      <trkpt lat="42.9005710" lon="-2.5428900">
        <ele>524.2</ele>
        <time>2020-09-13T11:25:02Z</time>
      </trkpt>
      <trkpt lat="42.9005710" lon="-2.5428900">
        <ele>523.8</ele>
        <time>2020-09-13T11:25:06Z</time>
      </trkpt>
      <trkpt lat="42.9005710" lon="-2.5428900">
        <ele>524.0</ele>
        <time>2020-09-13T11:25:10Z</time>
      </trkpt>
      <trkpt lat="42.9005710" lon="-2.5428900">
        <ele>523.8</ele>
        <time>2020-09-13T11:25:14Z</time>
      </trkpt>
      <trkpt lat="42.9005710" lon="-2.5428900">
        <ele>523.6</ele>
        <time>2020-09-13T11:25:18Z</time>
      </trkpt>
      <trkpt lat="42.9005710" lon="-2.5428900">
        <ele>523.6</ele>
        <time>2020-09-13T11:25:22Z</time>
      </trkpt>
      <trkpt lat="42.9005710" lon="-2.5428900">
        <ele>524.0</ele>
        <time>2020-09-13T11:25:26Z</time>
      </trkpt>
      <trkpt lat="42.9005710" lon="-2.5428900">
        <ele>524.0</ele>
        <time>2020-09-13T11:25:30Z</time>
      </trkpt>
      <trkpt lat="42.9005710" lon="-2.5428900">
        <ele>523.8</ele>
        <time>2020-09-13T11:25:34Z</time>
      </trkpt>
      <trkpt lat="42.9005710" lon="-2.5428900">
        <ele>523.6</ele>
        <time>2020-09-13T11:25:38Z</time>
      </trkpt>
      <trkpt lat="42.9005710" lon="-2.5428900">
        <ele>523.8</ele>
        <time>2020-09-13T11:25:42Z</time>
      </trkpt>
      <trkpt lat="42.9005710" lon="-2.5428900">
        <ele>523.4</ele>
        <time>2020-09-13T11:25:46Z</time>
      </trkpt>
      <trkpt lat="42.9005710" lon="-2.5428900">
        <ele>524.0</ele>
        <time>2020-09-13T11:25:50Z</time>
      </trkpt>
      <trkpt lat="42.9005710" lon="-2.5428900">
        <ele>523.8</ele>
        <time>2020-09-13T11:25:54Z</time>
      </trkpt>
      <trkpt lat="42.9005710" lon="-2.5428900">
        <ele>524.4</ele>
        <time>2020-09-13T11:25:58Z</time>
      </trkpt>
      <trkpt lat="42.9005710" lon="-2.5428900">
        <ele>523.8</ele>
        <time>2020-09-13T11:26:02Z</time>
      </trkpt>
      <trkpt lat="42.9005710" lon="-2.5428900">
        <ele>523.8</ele>
        <time>2020-09-13T11:26:06Z</time>
      </trkpt>
      <trkpt lat="42.9005710" lon="-2.5428900">
        <ele>524.2</ele>
        <time>2020-09-13T11:26:10Z</time>
      </trkpt>
      <trkpt lat="42.9005710" lon="-2.5428900">
        <ele>524.2</ele>
        <time>2020-09-13T11:26:14Z</time>
      </trkpt>
      <trkpt lat="42.9005710" lon="-2.5428900">
        <ele>524.2</ele>
        <time>2020-09-13T11:26:18Z</time>
      </trkpt>
      <trkpt lat="42.9005710" lon="-2.5428900">
        <ele>523.8</ele>
        <time>2020-09-13T11:26:22Z</time>
      </trkpt>
      <trkpt lat="42.9005710" lon="-2.5428900">
        <ele>523.8</ele>
        <time>2020-09-13T11:26:26Z</time>
      </trkpt>
      <trkpt lat="42.9005710" lon="-2.5428900">
        <ele>523.6</ele>
        <time>2020-09-13T11:26:30Z</time>
      </trkpt>
      <trkpt lat="42.9005710" lon="-2.5428900">
        <ele>523.6</ele>
        <time>2020-09-13T11:26:34Z</time>
      </trkpt>
      <trkpt lat="42.9005710" lon="-2.5428900">
        <ele>523.8</ele>
        <time>2020-09-13T11:26:38Z</time>
      </trkpt>
      <trkpt lat="42.9005710" lon="-2.5428900">
        <ele>523.8</ele>
        <time>2020-09-13T11:26:42Z</time>
      </trkpt>
      <trkpt lat="42.9005710" lon="-2.5428900">
        <ele>523.8</ele>
        <time>2020-09-13T11:26:46Z</time>
      </trkpt>
      <trkpt lat="42.9005710" lon="-2.5428900">
        <ele>523.6</ele>
        <time>2020-09-13T11:26:50Z</time>
      </trkpt>
      <trkpt lat="42.9005710" lon="-2.5428900">
        <ele>523.6</ele>
        <time>2020-09-13T11:26:54Z</time>
      </trkpt>
      <trkpt lat="42.9005710" lon="-2.5428900">
        <ele>523.6</ele>
        <time>2020-09-13T11:26:58Z</time>
      </trkpt>
      <trkpt lat="42.9005710" lon="-2.5428900">
        <ele>523.8</ele>
        <time>2020-09-13T11:27:02Z</time>
      </trkpt>
      <trkpt lat="42.9005710" lon="-2.5428900">
        <ele>523.8</ele>
        <time>2020-09-13T11:27:06Z</time>
      </trkpt>
      <trkpt lat="42.9005710" lon="-2.5428900">
        <ele>524.0</ele>
        <time>2020-09-13T11:27:10Z</time>
      </trkpt>
      <trkpt lat="42.9005710" lon="-2.5428900">
        <ele>523.8</ele>
        <time>2020-09-13T11:27:14Z</time>
      </trkpt>
      <trkpt lat="42.9005710" lon="-2.5428900">
        <ele>523.6</ele>
        <time>2020-09-13T11:27:18Z</time>
      </trkpt>
      <trkpt lat="42.9005710" lon="-2.5428900">
        <ele>523.4</ele>
        <time>2020-09-13T11:27:22Z</time>
      </trkpt>
      <trkpt lat="42.9005710" lon="-2.5428900">
        <ele>523.8</ele>
        <time>2020-09-13T11:27:26Z</time>
      </trkpt>
      <trkpt lat="42.9005710" lon="-2.5428900">
        <ele>523.8</ele>
        <time>2020-09-13T11:27:30Z</time>
      </trkpt>
      <trkpt lat="42.9005710" lon="-2.5428900">
        <ele>523.8</ele>
        <time>2020-09-13T11:27:34Z</time>
      </trkpt>
      <trkpt lat="42.9005710" lon="-2.5428900">
        <ele>523.6</ele>
        <time>2020-09-13T11:27:38Z</time>
      </trkpt>
      <trkpt lat="42.9005710" lon="-2.5428900">
        <ele>523.8</ele>
        <time>2020-09-13T11:27:42Z</time>
      </trkpt>
      <trkpt lat="42.9005710" lon="-2.5428900">
        <ele>524.2</ele>
        <time>2020-09-13T11:27:46Z</time>
      </trkpt>
      <trkpt lat="42.9005710" lon="-2.5428900">
        <ele>524.0</ele>
        <time>2020-09-13T11:27:50Z</time>
      </trkpt>
      <trkpt lat="42.9005710" lon="-2.5428900">
        <ele>524.0</ele>
        <time>2020-09-13T11:27:54Z</time>
      </trkpt>
      <trkpt lat="42.9005710" lon="-2.5428900">
        <ele>523.8</ele>
        <time>2020-09-13T11:27:58Z</time>
      </trkpt>
      <trkpt lat="42.9005710" lon="-2.5428900">
        <ele>523.8</ele>
        <time>2020-09-13T11:28:02Z</time>
      </trkpt>
      <trkpt lat="42.9005710" lon="-2.5428900">
        <ele>524.0</ele>
        <time>2020-09-13T11:28:06Z</time>
      </trkpt>
      <trkpt lat="42.9005710" lon="-2.5428900">
        <ele>523.8</ele>
        <time>2020-09-13T11:28:10Z</time>
      </trkpt>
      <trkpt lat="42.9005710" lon="-2.5428900">
        <ele>523.6</ele>
        <time>2020-09-13T11:28:14Z</time>
      </trkpt>
      <trkpt lat="42.9005710" lon="-2.5428900">
        <ele>524.4</ele>
        <time>2020-09-13T11:28:18Z</time>
      </trkpt>
      <trkpt lat="42.9005710" lon="-2.5428900">
        <ele>524.0</ele>
        <time>2020-09-13T11:28:22Z</time>
      </trkpt>
      <trkpt lat="42.9005710" lon="-2.5428900">
        <ele>523.4</ele>
        <time>2020-09-13T11:28:26Z</time>
      </trkpt>
      <trkpt lat="42.9005710" lon="-2.5428900">
        <ele>524.2</ele>
        <time>2020-09-13T11:28:30Z</time>
      </trkpt>
      <trkpt lat="42.9005710" lon="-2.5428900">
        <ele>523.6</ele>
        <time>2020-09-13T11:28:34Z</time>
      </trkpt>
      <trkpt lat="42.9005710" lon="-2.5428900">
        <ele>523.6</ele>
        <time>2020-09-13T11:28:38Z</time>
      </trkpt>
      <trkpt lat="42.9005710" lon="-2.5428900">
        <ele>523.4</ele>
        <time>2020-09-13T11:28:42Z</time>
      </trkpt>
      <trkpt lat="42.9005710" lon="-2.5428900">
        <ele>523.6</ele>
        <time>2020-09-13T11:28:46Z</time>
      </trkpt>
      <trkpt lat="42.9005710" lon="-2.5428900">
        <ele>524.2</ele>
        <time>2020-09-13T11:28:50Z</time>
      </trkpt>
      <trkpt lat="42.9005710" lon="-2.5428900">
        <ele>524.0</ele>
        <time>2020-09-13T11:28:54Z</time>
      </trkpt>
      <trkpt lat="42.9005710" lon="-2.5428900">
        <ele>524.0</ele>
        <time>2020-09-13T11:28:58Z</time>
      </trkpt>
      <trkpt lat="42.9005710" lon="-2.5428900">
        <ele>524.2</ele>
        <time>2020-09-13T11:29:02Z</time>
      </trkpt>
      <trkpt lat="42.9005710" lon="-2.5428900">
        <ele>524.0</ele>
        <time>2020-09-13T11:29:06Z</time>
      </trkpt>
      <trkpt lat="42.9005710" lon="-2.5428900">
        <ele>524.2</ele>
        <time>2020-09-13T11:29:10Z</time>
      </trkpt>
      <trkpt lat="42.9005710" lon="-2.5428900">
        <ele>524.2</ele>
        <time>2020-09-13T11:29:14Z</time>
      </trkpt>
      <trkpt lat="42.9005710" lon="-2.5428900">
        <ele>524.0</ele>
        <time>2020-09-13T11:29:18Z</time>
      </trkpt>
      <trkpt lat="42.9005710" lon="-2.5428900">
        <ele>524.2</ele>
        <time>2020-09-13T11:29:22Z</time>
      </trkpt>
      <trkpt lat="42.9005710" lon="-2.5428900">
        <ele>524.0</ele>
        <time>2020-09-13T11:29:26Z</time>
      </trkpt>
      <trkpt lat="42.9005710" lon="-2.5428900">
        <ele>524.4</ele>
        <time>2020-09-13T11:29:30Z</time>
      </trkpt>
      <trkpt lat="42.9005710" lon="-2.5428900">
        <ele>524.2</ele>
        <time>2020-09-13T11:29:34Z</time>
      </trkpt>
      <trkpt lat="42.9005710" lon="-2.5428900">
        <ele>524.2</ele>
        <time>2020-09-13T11:29:38Z</time>
      </trkpt>
      <trkpt lat="42.9005710" lon="-2.5428900">
        <ele>524.0</ele>
        <time>2020-09-13T11:29:42Z</time>
      </trkpt>
      <trkpt lat="42.9005710" lon="-2.5428900">
        <ele>524.0</ele>
        <time>2020-09-13T11:29:46Z</time>
      </trkpt>
      <trkpt lat="42.9005710" lon="-2.5428900">
        <ele>524.2</ele>
        <time>2020-09-13T11:29:50Z</time>
      </trkpt>
      <trkpt lat="42.9005710" lon="-2.5428900">
        <ele>524.4</ele>
        <time>2020-09-13T11:29:54Z</time>
      </trkpt>
      <trkpt lat="42.9005710" lon="-2.5428900">
        <ele>524.2</ele>
        <time>2020-09-13T11:29:58Z</time>
      </trkpt>
      <trkpt lat="42.9005710" lon="-2.5428900">
        <ele>524.6</ele>
        <time>2020-09-13T11:30:02Z</time>
      </trkpt>
      <trkpt lat="42.9005710" lon="-2.5428900">
        <ele>524.4</ele>
        <time>2020-09-13T11:30:06Z</time>
      </trkpt>
      <trkpt lat="42.9005710" lon="-2.5428900">
        <ele>524.2</ele>
        <time>2020-09-13T11:30:10Z</time>
      </trkpt>
      <trkpt lat="42.9005710" lon="-2.5428900">
        <ele>524.0</ele>
        <time>2020-09-13T11:30:14Z</time>
      </trkpt>
      <trkpt lat="42.9005710" lon="-2.5428900">
        <ele>524.6</ele>
        <time>2020-09-13T11:30:18Z</time>
      </trkpt>
      <trkpt lat="42.9005710" lon="-2.5428900">
        <ele>525.0</ele>
        <time>2020-09-13T11:30:22Z</time>
      </trkpt>
      <trkpt lat="42.9005710" lon="-2.5428900">
        <ele>524.4</ele>
        <time>2020-09-13T11:30:26Z</time>
      </trkpt>
      <trkpt lat="42.9005710" lon="-2.5428900">
        <ele>524.2</ele>
        <time>2020-09-13T11:30:30Z</time>
      </trkpt>
      <trkpt lat="42.9005710" lon="-2.5428900">
        <ele>524.2</ele>
        <time>2020-09-13T11:30:34Z</time>
      </trkpt>
      <trkpt lat="42.9005710" lon="-2.5428900">
        <ele>524.0</ele>
        <time>2020-09-13T11:30:38Z</time>
      </trkpt>
      <trkpt lat="42.9005710" lon="-2.5428900">
        <ele>524.2</ele>
        <time>2020-09-13T11:30:42Z</time>
      </trkpt>
      <trkpt lat="42.9005710" lon="-2.5428900">
        <ele>524.4</ele>
        <time>2020-09-13T11:30:46Z</time>
      </trkpt>
      <trkpt lat="42.9005710" lon="-2.5428900">
        <ele>524.2</ele>
        <time>2020-09-13T11:30:50Z</time>
      </trkpt>
      <trkpt lat="42.9005710" lon="-2.5428900">
        <ele>524.6</ele>
        <time>2020-09-13T11:30:54Z</time>
      </trkpt>
      <trkpt lat="42.9005710" lon="-2.5428900">
        <ele>524.6</ele>
        <time>2020-09-13T11:30:58Z</time>
      </trkpt>
      <trkpt lat="42.9005710" lon="-2.5428900">
        <ele>524.4</ele>
        <time>2020-09-13T11:31:02Z</time>
      </trkpt>
      <trkpt lat="42.9005710" lon="-2.5428900">
        <ele>524.6</ele>
        <time>2020-09-13T11:31:06Z</time>
      </trkpt>
      <trkpt lat="42.9005710" lon="-2.5428900">
        <ele>524.8</ele>
        <time>2020-09-13T11:31:10Z</time>
      </trkpt>
      <trkpt lat="42.9005710" lon="-2.5428900">
        <ele>524.4</ele>
        <time>2020-09-13T11:31:14Z</time>
      </trkpt>
      <trkpt lat="42.9005710" lon="-2.5428900">
        <ele>524.6</ele>
        <time>2020-09-13T11:31:18Z</time>
      </trkpt>
      <trkpt lat="42.9005710" lon="-2.5428900">
        <ele>524.6</ele>
        <time>2020-09-13T11:31:22Z</time>
      </trkpt>
      <trkpt lat="42.9005710" lon="-2.5428900">
        <ele>524.4</ele>
        <time>2020-09-13T11:31:26Z</time>
      </trkpt>
      <trkpt lat="42.9005710" lon="-2.5428900">
        <ele>524.2</ele>
        <time>2020-09-13T11:31:30Z</time>
      </trkpt>
      <trkpt lat="42.9005710" lon="-2.5428900">
        <ele>524.4</ele>
        <time>2020-09-13T11:31:34Z</time>
      </trkpt>
      <trkpt lat="42.9005710" lon="-2.5428900">
        <ele>524.2</ele>
        <time>2020-09-13T11:31:38Z</time>
      </trkpt>
      <trkpt lat="42.9005710" lon="-2.5428900">
        <ele>524.2</ele>
        <time>2020-09-13T11:31:42Z</time>
      </trkpt>
      <trkpt lat="42.9005710" lon="-2.5428900">
        <ele>524.2</ele>
        <time>2020-09-13T11:31:46Z</time>
      </trkpt>
      <trkpt lat="42.9005710" lon="-2.5428900">
        <ele>524.2</ele>
        <time>2020-09-13T11:31:50Z</time>
      </trkpt>
      <trkpt lat="42.9005710" lon="-2.5428900">
        <ele>524.4</ele>
        <time>2020-09-13T11:31:54Z</time>
      </trkpt>
      <trkpt lat="42.9005710" lon="-2.5428900">
        <ele>524.4</ele>
        <time>2020-09-13T11:31:58Z</time>
      </trkpt>
      <trkpt lat="42.9005710" lon="-2.5428900">
        <ele>524.2</ele>
        <time>2020-09-13T11:32:02Z</time>
      </trkpt>
      <trkpt lat="42.9005710" lon="-2.5428900">
        <ele>524.6</ele>
        <time>2020-09-13T11:32:06Z</time>
      </trkpt>
      <trkpt lat="42.9005710" lon="-2.5428900">
        <ele>524.0</ele>
        <time>2020-09-13T11:32:10Z</time>
      </trkpt>
      <trkpt lat="42.9005710" lon="-2.5428900">
        <ele>524.6</ele>
        <time>2020-09-13T11:32:14Z</time>
      </trkpt>
      <trkpt lat="42.9005710" lon="-2.5428900">
        <ele>524.4</ele>
        <time>2020-09-13T11:32:18Z</time>
      </trkpt>
      <trkpt lat="42.9005710" lon="-2.5428900">
        <ele>524.2</ele>
        <time>2020-09-13T11:32:22Z</time>
      </trkpt>
      <trkpt lat="42.9005710" lon="-2.5428900">
        <ele>524.2</ele>
        <time>2020-09-13T11:32:26Z</time>
      </trkpt>
      <trkpt lat="42.9005710" lon="-2.5428900">
        <ele>524.4</ele>
        <time>2020-09-13T11:32:30Z</time>
      </trkpt>
      <trkpt lat="42.9005710" lon="-2.5428900">
        <ele>524.6</ele>
        <time>2020-09-13T11:32:34Z</time>
      </trkpt>
      <trkpt lat="42.9005710" lon="-2.5428900">
        <ele>524.4</ele>
        <time>2020-09-13T11:32:38Z</time>
      </trkpt>
      <trkpt lat="42.9005710" lon="-2.5428900">
        <ele>524.6</ele>
        <time>2020-09-13T11:32:42Z</time>
      </trkpt>
      <trkpt lat="42.9005710" lon="-2.5428900">
        <ele>524.2</ele>
        <time>2020-09-13T11:32:46Z</time>
      </trkpt>
      <trkpt lat="42.9005710" lon="-2.5428900">
        <ele>524.2</ele>
        <time>2020-09-13T11:32:50Z</time>
      </trkpt>
      <trkpt lat="42.9005710" lon="-2.5428900">
        <ele>525.0</ele>
        <time>2020-09-13T11:32:54Z</time>
      </trkpt>
      <trkpt lat="42.9005710" lon="-2.5428900">
        <ele>524.4</ele>
        <time>2020-09-13T11:32:58Z</time>
      </trkpt>
      <trkpt lat="42.9005710" lon="-2.5428900">
        <ele>524.2</ele>
        <time>2020-09-13T11:33:02Z</time>
      </trkpt>
      <trkpt lat="42.9005710" lon="-2.5428900">
        <ele>524.0</ele>
        <time>2020-09-13T11:33:06Z</time>
      </trkpt>
      <trkpt lat="42.9005710" lon="-2.5428900">
        <ele>524.4</ele>
        <time>2020-09-13T11:33:10Z</time>
      </trkpt>
      <trkpt lat="42.9005710" lon="-2.5428900">
        <ele>524.4</ele>
        <time>2020-09-13T11:33:14Z</time>
      </trkpt>
      <trkpt lat="42.9005710" lon="-2.5428900">
        <ele>524.6</ele>
        <time>2020-09-13T11:33:18Z</time>
      </trkpt>
      <trkpt lat="42.9005710" lon="-2.5428900">
        <ele>524.2</ele>
        <time>2020-09-13T11:33:22Z</time>
      </trkpt>
      <trkpt lat="42.9005710" lon="-2.5428900">
        <ele>525.0</ele>
        <time>2020-09-13T11:33:26Z</time>
      </trkpt>
      <trkpt lat="42.9005710" lon="-2.5428900">
        <ele>524.4</ele>
        <time>2020-09-13T11:33:30Z</time>
      </trkpt>
      <trkpt lat="42.9005710" lon="-2.5428900">
        <ele>524.4</ele>
        <time>2020-09-13T11:33:34Z</time>
      </trkpt>
      <trkpt lat="42.9005710" lon="-2.5428900">
        <ele>524.4</ele>
        <time>2020-09-13T11:33:38Z</time>
      </trkpt>
      <trkpt lat="42.9005710" lon="-2.5428900">
        <ele>524.6</ele>
        <time>2020-09-13T11:33:42Z</time>
      </trkpt>
      <trkpt lat="42.9005710" lon="-2.5428900">
        <ele>524.6</ele>
        <time>2020-09-13T11:33:46Z</time>
      </trkpt>
      <trkpt lat="42.9005710" lon="-2.5428900">
        <ele>524.6</ele>
        <time>2020-09-13T11:33:50Z</time>
      </trkpt>
      <trkpt lat="42.9005710" lon="-2.5428900">
        <ele>524.2</ele>
        <time>2020-09-13T11:33:54Z</time>
      </trkpt>
      <trkpt lat="42.9005710" lon="-2.5428900">
        <ele>524.2</ele>
        <time>2020-09-13T11:33:58Z</time>
      </trkpt>
      <trkpt lat="42.9005710" lon="-2.5428900">
        <ele>525.0</ele>
        <time>2020-09-13T11:34:02Z</time>
      </trkpt>
      <trkpt lat="42.9005710" lon="-2.5428900">
        <ele>524.4</ele>
        <time>2020-09-13T11:34:06Z</time>
      </trkpt>
      <trkpt lat="42.9005710" lon="-2.5428900">
        <ele>524.6</ele>
        <time>2020-09-13T11:34:10Z</time>
      </trkpt>
      <trkpt lat="42.9005710" lon="-2.5428900">
        <ele>524.8</ele>
        <time>2020-09-13T11:34:14Z</time>
      </trkpt>
      <trkpt lat="42.9005710" lon="-2.5428900">
        <ele>524.4</ele>
        <time>2020-09-13T11:34:18Z</time>
      </trkpt>
      <trkpt lat="42.9005710" lon="-2.5428900">
        <ele>524.0</ele>
        <time>2020-09-13T11:34:22Z</time>
      </trkpt>
      <trkpt lat="42.9005710" lon="-2.5428900">
        <ele>524.2</ele>
        <time>2020-09-13T11:34:26Z</time>
      </trkpt>
      <trkpt lat="42.9005710" lon="-2.5428900">
        <ele>524.6</ele>
        <time>2020-09-13T11:34:30Z</time>
      </trkpt>
      <trkpt lat="42.9005710" lon="-2.5428900">
        <ele>525.0</ele>
        <time>2020-09-13T11:34:34Z</time>
      </trkpt>
      <trkpt lat="42.9005710" lon="-2.5428900">
        <ele>524.6</ele>
        <time>2020-09-13T11:34:38Z</time>
      </trkpt>
      <trkpt lat="42.9005710" lon="-2.5428900">
        <ele>524.2</ele>
        <time>2020-09-13T11:34:42Z</time>
      </trkpt>
      <trkpt lat="42.9005710" lon="-2.5428900">
        <ele>524.6</ele>
        <time>2020-09-13T11:34:46Z</time>
      </trkpt>
      <trkpt lat="42.9005710" lon="-2.5428900">
        <ele>525.0</ele>
        <time>2020-09-13T11:34:50Z</time>
      </trkpt>
      <trkpt lat="42.9005710" lon="-2.5428900">
        <ele>524.8</ele>
        <time>2020-09-13T11:34:54Z</time>
      </trkpt>
      <trkpt lat="42.9005710" lon="-2.5428900">
        <ele>525.0</ele>
        <time>2020-09-13T11:34:58Z</time>
      </trkpt>
      <trkpt lat="42.9005710" lon="-2.5428900">
        <ele>525.0</ele>
        <time>2020-09-13T11:35:02Z</time>
      </trkpt>
      <trkpt lat="42.9005710" lon="-2.5428900">
        <ele>524.8</ele>
        <time>2020-09-13T11:35:06Z</time>
      </trkpt>
      <trkpt lat="42.9005710" lon="-2.5428900">
        <ele>524.4</ele>
        <time>2020-09-13T11:35:10Z</time>
      </trkpt>
      <trkpt lat="42.9005710" lon="-2.5428900">
        <ele>524.8</ele>
        <time>2020-09-13T11:35:14Z</time>
      </trkpt>
      <trkpt lat="42.9005710" lon="-2.5428900">
        <ele>524.6</ele>
        <time>2020-09-13T11:35:18Z</time>
      </trkpt>
      <trkpt lat="42.9005710" lon="-2.5428900">
        <ele>524.8</ele>
        <time>2020-09-13T11:35:22Z</time>
      </trkpt>
      <trkpt lat="42.9005710" lon="-2.5428900">
        <ele>525.0</ele>
        <time>2020-09-13T11:35:26Z</time>
      </trkpt>
      <trkpt lat="42.9005710" lon="-2.5428900">
        <ele>525.0</ele>
        <time>2020-09-13T11:35:30Z</time>
      </trkpt>
      <trkpt lat="42.9005710" lon="-2.5428900">
        <ele>524.4</ele>
        <time>2020-09-13T11:35:34Z</time>
      </trkpt>
      <trkpt lat="42.9005710" lon="-2.5428900">
        <ele>524.6</ele>
        <time>2020-09-13T11:35:38Z</time>
      </trkpt>
      <trkpt lat="42.9005710" lon="-2.5428900">
        <ele>524.6</ele>
        <time>2020-09-13T11:35:42Z</time>
      </trkpt>
      <trkpt lat="42.9005710" lon="-2.5428900">
        <ele>524.8</ele>
        <time>2020-09-13T11:35:46Z</time>
      </trkpt>
      <trkpt lat="42.9005710" lon="-2.5428900">
        <ele>524.6</ele>
        <time>2020-09-13T11:35:50Z</time>
      </trkpt>
      <trkpt lat="42.9005710" lon="-2.5428900">
        <ele>524.4</ele>
        <time>2020-09-13T11:35:54Z</time>
      </trkpt>
      <trkpt lat="42.9005710" lon="-2.5428900">
        <ele>524.2</ele>
        <time>2020-09-13T11:35:58Z</time>
      </trkpt>
      <trkpt lat="42.9005710" lon="-2.5428900">
        <ele>524.8</ele>
        <time>2020-09-13T11:36:02Z</time>
      </trkpt>
      <trkpt lat="42.9005710" lon="-2.5428900">
        <ele>524.4</ele>
        <time>2020-09-13T11:36:06Z</time>
      </trkpt>
      <trkpt lat="42.9005710" lon="-2.5428900">
        <ele>524.6</ele>
        <time>2020-09-13T11:36:10Z</time>
      </trkpt>
      <trkpt lat="42.9005710" lon="-2.5428900">
        <ele>525.0</ele>
        <time>2020-09-13T11:36:14Z</time>
      </trkpt>
      <trkpt lat="42.9005710" lon="-2.5428900">
        <ele>525.0</ele>
        <time>2020-09-13T11:36:18Z</time>
      </trkpt>
      <trkpt lat="42.9005710" lon="-2.5428900">
        <ele>524.4</ele>
        <time>2020-09-13T11:36:22Z</time>
      </trkpt>
      <trkpt lat="42.9005710" lon="-2.5428900">
        <ele>524.4</ele>
        <time>2020-09-13T11:36:26Z</time>
      </trkpt>
      <trkpt lat="42.9005710" lon="-2.5428900">
        <ele>524.6</ele>
        <time>2020-09-13T11:36:30Z</time>
      </trkpt>
      <trkpt lat="42.9005710" lon="-2.5428900">
        <ele>525.0</ele>
        <time>2020-09-13T11:36:34Z</time>
      </trkpt>
      <trkpt lat="42.9005710" lon="-2.5428900">
        <ele>524.8</ele>
        <time>2020-09-13T11:36:38Z</time>
      </trkpt>
      <trkpt lat="42.9005710" lon="-2.5428900">
        <ele>524.8</ele>
        <time>2020-09-13T11:36:42Z</time>
      </trkpt>
      <trkpt lat="42.9005710" lon="-2.5428900">
        <ele>524.4</ele>
        <time>2020-09-13T11:36:46Z</time>
      </trkpt>
      <trkpt lat="42.9005710" lon="-2.5428900">
        <ele>524.8</ele>
        <time>2020-09-13T11:36:50Z</time>
      </trkpt>
      <trkpt lat="42.9005710" lon="-2.5428900">
        <ele>524.6</ele>
        <time>2020-09-13T11:36:54Z</time>
      </trkpt>
      <trkpt lat="42.9005710" lon="-2.5428900">
        <ele>525.0</ele>
        <time>2020-09-13T11:36:58Z</time>
      </trkpt>
      <trkpt lat="42.9005710" lon="-2.5428900">
        <ele>525.0</ele>
        <time>2020-09-13T11:37:02Z</time>
      </trkpt>
      <trkpt lat="42.9005710" lon="-2.5428900">
        <ele>524.8</ele>
        <time>2020-09-13T11:37:06Z</time>
      </trkpt>
      <trkpt lat="42.9005710" lon="-2.5428900">
        <ele>525.0</ele>
        <time>2020-09-13T11:37:10Z</time>
      </trkpt>
      <trkpt lat="42.9005710" lon="-2.5428900">
        <ele>524.6</ele>
        <time>2020-09-13T11:37:14Z</time>
      </trkpt>
      <trkpt lat="42.9005710" lon="-2.5428900">
        <ele>525.0</ele>
        <time>2020-09-13T11:37:18Z</time>
      </trkpt>
      <trkpt lat="42.9005710" lon="-2.5428900">
        <ele>524.4</ele>
        <time>2020-09-13T11:37:22Z</time>
      </trkpt>
      <trkpt lat="42.9005710" lon="-2.5428900">
        <ele>525.0</ele>
        <time>2020-09-13T11:37:26Z</time>
      </trkpt>
      <trkpt lat="42.9005710" lon="-2.5428900">
        <ele>524.8</ele>
        <time>2020-09-13T11:37:30Z</time>
      </trkpt>
      <trkpt lat="42.9005710" lon="-2.5428900">
        <ele>525.2</ele>
        <time>2020-09-13T11:37:34Z</time>
      </trkpt>
      <trkpt lat="42.9005710" lon="-2.5428900">
        <ele>524.4</ele>
        <time>2020-09-13T11:37:38Z</time>
      </trkpt>
      <trkpt lat="42.9005710" lon="-2.5428900">
        <ele>524.6</ele>
        <time>2020-09-13T11:37:42Z</time>
      </trkpt>
      <trkpt lat="42.9005710" lon="-2.5428900">
        <ele>524.8</ele>
        <time>2020-09-13T11:37:46Z</time>
      </trkpt>
      <trkpt lat="42.9005710" lon="-2.5428900">
        <ele>525.0</ele>
        <time>2020-09-13T11:37:50Z</time>
      </trkpt>
      <trkpt lat="42.9005710" lon="-2.5428900">
        <ele>524.8</ele>
        <time>2020-09-13T11:37:54Z</time>
      </trkpt>
      <trkpt lat="42.9005710" lon="-2.5428900">
        <ele>524.8</ele>
        <time>2020-09-13T11:37:58Z</time>
      </trkpt>
      <trkpt lat="42.9005710" lon="-2.5428900">
        <ele>524.6</ele>
        <time>2020-09-13T11:38:02Z</time>
      </trkpt>
      <trkpt lat="42.9005710" lon="-2.5428900">
        <ele>524.8</ele>
        <time>2020-09-13T11:38:06Z</time>
      </trkpt>
      <trkpt lat="42.9005710" lon="-2.5428900">
        <ele>524.6</ele>
        <time>2020-09-13T11:38:10Z</time>
      </trkpt>
      <trkpt lat="42.9005710" lon="-2.5428900">
        <ele>524.6</ele>
        <time>2020-09-13T11:38:14Z</time>
      </trkpt>
      <trkpt lat="42.9005710" lon="-2.5428900">
        <ele>524.6</ele>
        <time>2020-09-13T11:38:18Z</time>
      </trkpt>
      <trkpt lat="42.9005710" lon="-2.5428900">
        <ele>524.6</ele>
        <time>2020-09-13T11:38:22Z</time>
      </trkpt>
      <trkpt lat="42.9005710" lon="-2.5428900">
        <ele>524.6</ele>
        <time>2020-09-13T11:38:26Z</time>
      </trkpt>
      <trkpt lat="42.9005710" lon="-2.5428900">
        <ele>524.8</ele>
        <time>2020-09-13T11:38:30Z</time>
      </trkpt>
      <trkpt lat="42.9005710" lon="-2.5428900">
        <ele>524.6</ele>
        <time>2020-09-13T11:38:34Z</time>
      </trkpt>
      <trkpt lat="42.9005710" lon="-2.5428900">
        <ele>524.4</ele>
        <time>2020-09-13T11:38:38Z</time>
      </trkpt>
      <trkpt lat="42.9005710" lon="-2.5428900">
        <ele>524.6</ele>
        <time>2020-09-13T11:38:42Z</time>
      </trkpt>
      <trkpt lat="42.9005710" lon="-2.5428900">
        <ele>525.0</ele>
        <time>2020-09-13T11:38:46Z</time>
      </trkpt>
      <trkpt lat="42.9005710" lon="-2.5428900">
        <ele>525.0</ele>
        <time>2020-09-13T11:38:50Z</time>
      </trkpt>
      <trkpt lat="42.9005710" lon="-2.5428900">
        <ele>525.4</ele>
        <time>2020-09-13T11:38:54Z</time>
      </trkpt>
      <trkpt lat="42.9005710" lon="-2.5428900">
        <ele>525.0</ele>
        <time>2020-09-13T11:38:58Z</time>
      </trkpt>
      <trkpt lat="42.9005710" lon="-2.5428900">
        <ele>525.0</ele>
        <time>2020-09-13T11:39:02Z</time>
      </trkpt>
      <trkpt lat="42.9005710" lon="-2.5428900">
        <ele>524.6</ele>
        <time>2020-09-13T11:39:06Z</time>
      </trkpt>
      <trkpt lat="42.9005710" lon="-2.5428900">
        <ele>524.6</ele>
        <time>2020-09-13T11:39:10Z</time>
      </trkpt>
      <trkpt lat="42.9005710" lon="-2.5428900">
        <ele>524.6</ele>
        <time>2020-09-13T11:39:14Z</time>
      </trkpt>
      <trkpt lat="42.9005710" lon="-2.5428900">
        <ele>524.6</ele>
        <time>2020-09-13T11:39:18Z</time>
      </trkpt>
      <trkpt lat="42.9005710" lon="-2.5428900">
        <ele>524.8</ele>
        <time>2020-09-13T11:39:22Z</time>
      </trkpt>
      <trkpt lat="42.9005710" lon="-2.5428900">
        <ele>525.0</ele>
        <time>2020-09-13T11:39:26Z</time>
      </trkpt>
      <trkpt lat="42.9005710" lon="-2.5428900">
        <ele>525.0</ele>
        <time>2020-09-13T11:39:30Z</time>
      </trkpt>
      <trkpt lat="42.9005710" lon="-2.5428900">
        <ele>524.6</ele>
        <time>2020-09-13T11:39:34Z</time>
      </trkpt>
      <trkpt lat="42.9005710" lon="-2.5428900">
        <ele>524.8</ele>
        <time>2020-09-13T11:39:38Z</time>
      </trkpt>
      <trkpt lat="42.9005710" lon="-2.5428900">
        <ele>524.8</ele>
        <time>2020-09-13T11:39:42Z</time>
      </trkpt>
      <trkpt lat="42.9005710" lon="-2.5428900">
        <ele>524.6</ele>
        <time>2020-09-13T11:39:46Z</time>
      </trkpt>
      <trkpt lat="42.9005710" lon="-2.5428900">
        <ele>524.6</ele>
        <time>2020-09-13T11:39:50Z</time>
      </trkpt>
      <trkpt lat="42.9005710" lon="-2.5428900">
        <ele>524.6</ele>
        <time>2020-09-13T11:39:54Z</time>
      </trkpt>
      <trkpt lat="42.9005710" lon="-2.5428900">
        <ele>524.6</ele>
        <time>2020-09-13T11:39:58Z</time>
      </trkpt>
      <trkpt lat="42.9005710" lon="-2.5428900">
        <ele>524.6</ele>
        <time>2020-09-13T11:40:02Z</time>
      </trkpt>
      <trkpt lat="42.9005710" lon="-2.5428900">
        <ele>524.8</ele>
        <time>2020-09-13T11:40:06Z</time>
      </trkpt>
      <trkpt lat="42.9005710" lon="-2.5428900">
        <ele>524.8</ele>
        <time>2020-09-13T11:40:10Z</time>
      </trkpt>
      <trkpt lat="42.9005710" lon="-2.5428900">
        <ele>524.8</ele>
        <time>2020-09-13T11:40:14Z</time>
      </trkpt>
      <trkpt lat="42.9005710" lon="-2.5428900">
        <ele>524.6</ele>
        <time>2020-09-13T11:40:18Z</time>
      </trkpt>
      <trkpt lat="42.9005710" lon="-2.5428900">
        <ele>524.8</ele>
        <time>2020-09-13T11:40:22Z</time>
      </trkpt>
      <trkpt lat="42.9005710" lon="-2.5428900">
        <ele>525.0</ele>
        <time>2020-09-13T11:40:26Z</time>
      </trkpt>
      <trkpt lat="42.9005710" lon="-2.5428900">
        <ele>525.2</ele>
        <time>2020-09-13T11:40:30Z</time>
      </trkpt>
      <trkpt lat="42.9005710" lon="-2.5428900">
        <ele>524.4</ele>
        <time>2020-09-13T11:40:34Z</time>
      </trkpt>
      <trkpt lat="42.9005710" lon="-2.5428900">
        <ele>525.0</ele>
        <time>2020-09-13T11:40:38Z</time>
      </trkpt>
      <trkpt lat="42.9005710" lon="-2.5428900">
        <ele>525.0</ele>
        <time>2020-09-13T11:40:42Z</time>
      </trkpt>
      <trkpt lat="42.9005710" lon="-2.5428900">
        <ele>525.0</ele>
        <time>2020-09-13T11:40:46Z</time>
      </trkpt>
      <trkpt lat="42.9005710" lon="-2.5428900">
        <ele>525.0</ele>
        <time>2020-09-13T11:40:50Z</time>
      </trkpt>
      <trkpt lat="42.9005710" lon="-2.5428900">
        <ele>525.0</ele>
        <time>2020-09-13T11:40:54Z</time>
      </trkpt>
      <trkpt lat="42.9005710" lon="-2.5428900">
        <ele>524.8</ele>
        <time>2020-09-13T11:40:58Z</time>
      </trkpt>
      <trkpt lat="42.9005710" lon="-2.5428900">
        <ele>525.0</ele>
        <time>2020-09-13T11:41:02Z</time>
      </trkpt>
      <trkpt lat="42.9005710" lon="-2.5428900">
        <ele>525.0</ele>
        <time>2020-09-13T11:41:06Z</time>
      </trkpt>
      <trkpt lat="42.9005710" lon="-2.5428900">
        <ele>525.2</ele>
        <time>2020-09-13T11:41:10Z</time>
      </trkpt>
      <trkpt lat="42.9005710" lon="-2.5428900">
        <ele>525.0</ele>
        <time>2020-09-13T11:41:14Z</time>
      </trkpt>
      <trkpt lat="42.9005710" lon="-2.5428900">
        <ele>525.0</ele>
        <time>2020-09-13T11:41:18Z</time>
      </trkpt>
      <trkpt lat="42.9005710" lon="-2.5428900">
        <ele>525.0</ele>
        <time>2020-09-13T11:41:22Z</time>
      </trkpt>
      <trkpt lat="42.9005710" lon="-2.5428900">
        <ele>525.2</ele>
        <time>2020-09-13T11:41:26Z</time>
      </trkpt>
      <trkpt lat="42.9005710" lon="-2.5428900">
        <ele>525.4</ele>
        <time>2020-09-13T11:41:30Z</time>
      </trkpt>
      <trkpt lat="42.9005710" lon="-2.5428900">
        <ele>525.2</ele>
        <time>2020-09-13T11:41:34Z</time>
      </trkpt>
      <trkpt lat="42.9005710" lon="-2.5428900">
        <ele>524.8</ele>
        <time>2020-09-13T11:41:38Z</time>
      </trkpt>
      <trkpt lat="42.9005710" lon="-2.5428900">
        <ele>525.4</ele>
        <time>2020-09-13T11:41:42Z</time>
      </trkpt>
      <trkpt lat="42.9005710" lon="-2.5428900">
        <ele>525.0</ele>
        <time>2020-09-13T11:41:46Z</time>
      </trkpt>
      <trkpt lat="42.9005710" lon="-2.5428900">
        <ele>525.0</ele>
        <time>2020-09-13T11:41:50Z</time>
      </trkpt>
      <trkpt lat="42.9005710" lon="-2.5428900">
        <ele>525.0</ele>
        <time>2020-09-13T11:41:54Z</time>
      </trkpt>
      <trkpt lat="42.9005710" lon="-2.5428900">
        <ele>525.0</ele>
        <time>2020-09-13T11:41:58Z</time>
      </trkpt>
      <trkpt lat="42.9005710" lon="-2.5428900">
        <ele>525.0</ele>
        <time>2020-09-13T11:42:02Z</time>
      </trkpt>
      <trkpt lat="42.9005710" lon="-2.5428900">
        <ele>525.6</ele>
        <time>2020-09-13T11:42:06Z</time>
      </trkpt>
      <trkpt lat="42.9005710" lon="-2.5428900">
        <ele>525.0</ele>
        <time>2020-09-13T11:42:10Z</time>
      </trkpt>
      <trkpt lat="42.9005710" lon="-2.5428900">
        <ele>525.4</ele>
        <time>2020-09-13T11:42:14Z</time>
      </trkpt>
      <trkpt lat="42.9005710" lon="-2.5428900">
        <ele>525.4</ele>
        <time>2020-09-13T11:42:18Z</time>
      </trkpt>
      <trkpt lat="42.9005710" lon="-2.5428900">
        <ele>524.8</ele>
        <time>2020-09-13T11:42:22Z</time>
      </trkpt>
      <trkpt lat="42.9005710" lon="-2.5428900">
        <ele>525.2</ele>
        <time>2020-09-13T11:42:26Z</time>
      </trkpt>
      <trkpt lat="42.9005710" lon="-2.5428900">
        <ele>525.0</ele>
        <time>2020-09-13T11:42:30Z</time>
      </trkpt>
      <trkpt lat="42.9005710" lon="-2.5428900">
        <ele>525.4</ele>
        <time>2020-09-13T11:42:34Z</time>
      </trkpt>
      <trkpt lat="42.9005710" lon="-2.5428900">
        <ele>525.0</ele>
        <time>2020-09-13T11:42:38Z</time>
      </trkpt>
      <trkpt lat="42.9005710" lon="-2.5428900">
        <ele>525.4</ele>
        <time>2020-09-13T11:42:42Z</time>
      </trkpt>
      <trkpt lat="42.9005710" lon="-2.5428900">
        <ele>525.4</ele>
        <time>2020-09-13T11:42:46Z</time>
      </trkpt>
      <trkpt lat="42.9005710" lon="-2.5428900">
        <ele>525.2</ele>
        <time>2020-09-13T11:42:50Z</time>
      </trkpt>
      <trkpt lat="42.9005710" lon="-2.5428900">
        <ele>525.4</ele>
        <time>2020-09-13T11:42:54Z</time>
      </trkpt>
      <trkpt lat="42.9005710" lon="-2.5428900">
        <ele>525.0</ele>
        <time>2020-09-13T11:42:58Z</time>
      </trkpt>
      <trkpt lat="42.9005710" lon="-2.5428900">
        <ele>525.0</ele>
        <time>2020-09-13T11:43:02Z</time>
      </trkpt>
      <trkpt lat="42.9005710" lon="-2.5428900">
        <ele>525.0</ele>
        <time>2020-09-13T11:43:06Z</time>
      </trkpt>
      <trkpt lat="42.9005710" lon="-2.5428900">
        <ele>525.0</ele>
        <time>2020-09-13T11:43:10Z</time>
      </trkpt>
      <trkpt lat="42.9005710" lon="-2.5428900">
        <ele>525.2</ele>
        <time>2020-09-13T11:43:14Z</time>
      </trkpt>
      <trkpt lat="42.9005710" lon="-2.5428900">
        <ele>524.8</ele>
        <time>2020-09-13T11:43:18Z</time>
      </trkpt>
      <trkpt lat="42.9005710" lon="-2.5428900">
        <ele>525.0</ele>
        <time>2020-09-13T11:43:22Z</time>
      </trkpt>
      <trkpt lat="42.9005710" lon="-2.5428900">
        <ele>525.4</ele>
        <time>2020-09-13T11:43:26Z</time>
      </trkpt>
      <trkpt lat="42.9005710" lon="-2.5428900">
        <ele>525.4</ele>
        <time>2020-09-13T11:43:30Z</time>
      </trkpt>
      <trkpt lat="42.9005710" lon="-2.5428900">
        <ele>525.0</ele>
        <time>2020-09-13T11:43:34Z</time>
      </trkpt>
      <trkpt lat="42.9005710" lon="-2.5428900">
        <ele>525.4</ele>
        <time>2020-09-13T11:43:38Z</time>
      </trkpt>
      <trkpt lat="42.9005710" lon="-2.5428900">
        <ele>525.6</ele>
        <time>2020-09-13T11:43:42Z</time>
      </trkpt>
      <trkpt lat="42.9005710" lon="-2.5428900">
        <ele>525.2</ele>
        <time>2020-09-13T11:43:46Z</time>
      </trkpt>
      <trkpt lat="42.9005710" lon="-2.5428900">
        <ele>525.6</ele>
        <time>2020-09-13T11:43:50Z</time>
      </trkpt>
      <trkpt lat="42.9005710" lon="-2.5428900">
        <ele>525.4</ele>
        <time>2020-09-13T11:43:54Z</time>
      </trkpt>
      <trkpt lat="42.9005710" lon="-2.5428900">
        <ele>525.6</ele>
        <time>2020-09-13T11:43:58Z</time>
      </trkpt>
      <trkpt lat="42.9005710" lon="-2.5428900">
        <ele>525.6</ele>
        <time>2020-09-13T11:44:02Z</time>
      </trkpt>
      <trkpt lat="42.9005710" lon="-2.5428900">
        <ele>525.4</ele>
        <time>2020-09-13T11:44:06Z</time>
      </trkpt>
      <trkpt lat="42.9005710" lon="-2.5428900">
        <ele>525.6</ele>
        <time>2020-09-13T11:44:10Z</time>
      </trkpt>
      <trkpt lat="42.9005710" lon="-2.5428900">
        <ele>525.0</ele>
        <time>2020-09-13T11:44:14Z</time>
      </trkpt>
      <trkpt lat="42.9005710" lon="-2.5428900">
        <ele>525.2</ele>
        <time>2020-09-13T11:44:18Z</time>
      </trkpt>
      <trkpt lat="42.9005710" lon="-2.5428900">
        <ele>525.6</ele>
        <time>2020-09-13T11:44:22Z</time>
      </trkpt>
      <trkpt lat="42.9005710" lon="-2.5428900">
        <ele>525.6</ele>
        <time>2020-09-13T11:44:26Z</time>
      </trkpt>
      <trkpt lat="42.9005710" lon="-2.5428900">
        <ele>525.2</ele>
        <time>2020-09-13T11:44:30Z</time>
      </trkpt>
      <trkpt lat="42.9005710" lon="-2.5428900">
        <ele>525.6</ele>
        <time>2020-09-13T11:44:34Z</time>
      </trkpt>
      <trkpt lat="42.9005710" lon="-2.5428900">
        <ele>525.0</ele>
        <time>2020-09-13T11:44:38Z</time>
      </trkpt>
      <trkpt lat="42.9005710" lon="-2.5428900">
        <ele>525.4</ele>
        <time>2020-09-13T11:44:42Z</time>
      </trkpt>
      <trkpt lat="42.9005710" lon="-2.5428900">
        <ele>525.4</ele>
        <time>2020-09-13T11:44:46Z</time>
      </trkpt>
      <trkpt lat="42.9005710" lon="-2.5428900">
        <ele>525.0</ele>
        <time>2020-09-13T11:44:50Z</time>
      </trkpt>
      <trkpt lat="42.9005710" lon="-2.5428900">
        <ele>525.6</ele>
        <time>2020-09-13T11:44:54Z</time>
      </trkpt>
      <trkpt lat="42.9005710" lon="-2.5428900">
        <ele>525.6</ele>
        <time>2020-09-13T11:44:58Z</time>
      </trkpt>
      <trkpt lat="42.9005710" lon="-2.5428900">
        <ele>525.6</ele>
        <time>2020-09-13T11:45:02Z</time>
      </trkpt>
      <trkpt lat="42.9005710" lon="-2.5428900">
        <ele>525.4</ele>
        <time>2020-09-13T11:45:06Z</time>
      </trkpt>
      <trkpt lat="42.9005710" lon="-2.5428900">
        <ele>525.6</ele>
        <time>2020-09-13T11:45:10Z</time>
      </trkpt>
      <trkpt lat="42.9005710" lon="-2.5428900">
        <ele>525.6</ele>
        <time>2020-09-13T11:45:14Z</time>
      </trkpt>
      <trkpt lat="42.9005710" lon="-2.5428900">
        <ele>525.4</ele>
        <time>2020-09-13T11:45:18Z</time>
      </trkpt>
      <trkpt lat="42.9005710" lon="-2.5428900">
        <ele>525.6</ele>
        <time>2020-09-13T11:45:22Z</time>
      </trkpt>
      <trkpt lat="42.9005710" lon="-2.5428900">
        <ele>525.6</ele>
        <time>2020-09-13T11:45:26Z</time>
      </trkpt>
      <trkpt lat="42.9005710" lon="-2.5428900">
        <ele>525.4</ele>
        <time>2020-09-13T11:45:30Z</time>
      </trkpt>
      <trkpt lat="42.9005710" lon="-2.5428900">
        <ele>525.6</ele>
        <time>2020-09-13T11:45:34Z</time>
      </trkpt>
      <trkpt lat="42.9005710" lon="-2.5428900">
        <ele>525.6</ele>
        <time>2020-09-13T11:45:38Z</time>
      </trkpt>
      <trkpt lat="42.9005710" lon="-2.5428900">
        <ele>525.6</ele>
        <time>2020-09-13T11:45:42Z</time>
      </trkpt>
      <trkpt lat="42.9005710" lon="-2.5428900">
        <ele>525.6</ele>
        <time>2020-09-13T11:45:46Z</time>
      </trkpt>
      <trkpt lat="42.9005710" lon="-2.5428900">
        <ele>525.6</ele>
        <time>2020-09-13T11:45:50Z</time>
      </trkpt>
      <trkpt lat="42.9005710" lon="-2.5428900">
        <ele>525.8</ele>
        <time>2020-09-13T11:45:54Z</time>
      </trkpt>
      <trkpt lat="42.9005710" lon="-2.5428900">
        <ele>525.6</ele>
        <time>2020-09-13T11:45:58Z</time>
      </trkpt>
      <trkpt lat="42.9005710" lon="-2.5428900">
        <ele>526.0</ele>
        <time>2020-09-13T11:46:02Z</time>
      </trkpt>
      <trkpt lat="42.9005710" lon="-2.5428900">
        <ele>525.2</ele>
        <time>2020-09-13T11:46:06Z</time>
      </trkpt>
      <trkpt lat="42.9005710" lon="-2.5428900">
        <ele>525.6</ele>
        <time>2020-09-13T11:46:10Z</time>
      </trkpt>
      <trkpt lat="42.9005710" lon="-2.5428900">
        <ele>525.6</ele>
        <time>2020-09-13T11:46:14Z</time>
      </trkpt>
      <trkpt lat="42.9005710" lon="-2.5428900">
        <ele>525.4</ele>
        <time>2020-09-13T11:46:18Z</time>
      </trkpt>
      <trkpt lat="42.9005710" lon="-2.5428900">
        <ele>525.4</ele>
        <time>2020-09-13T11:46:22Z</time>
      </trkpt>
      <trkpt lat="42.9005710" lon="-2.5428900">
        <ele>525.6</ele>
        <time>2020-09-13T11:46:26Z</time>
      </trkpt>
      <trkpt lat="42.9005710" lon="-2.5428900">
        <ele>525.6</ele>
        <time>2020-09-13T11:46:30Z</time>
      </trkpt>
      <trkpt lat="42.9005710" lon="-2.5428900">
        <ele>525.6</ele>
        <time>2020-09-13T11:46:34Z</time>
      </trkpt>
      <trkpt lat="42.9005710" lon="-2.5428900">
        <ele>525.2</ele>
        <time>2020-09-13T11:46:38Z</time>
      </trkpt>
      <trkpt lat="42.9005710" lon="-2.5428900">
        <ele>525.6</ele>
        <time>2020-09-13T11:46:42Z</time>
      </trkpt>
      <trkpt lat="42.9005710" lon="-2.5428900">
        <ele>525.4</ele>
        <time>2020-09-13T11:46:46Z</time>
      </trkpt>
      <trkpt lat="42.9005710" lon="-2.5428900">
        <ele>525.4</ele>
        <time>2020-09-13T11:46:50Z</time>
      </trkpt>
      <trkpt lat="42.9005710" lon="-2.5428900">
        <ele>525.6</ele>
        <time>2020-09-13T11:46:54Z</time>
      </trkpt>
      <trkpt lat="42.9005710" lon="-2.5428900">
        <ele>525.6</ele>
        <time>2020-09-13T11:46:58Z</time>
      </trkpt>
      <trkpt lat="42.9005710" lon="-2.5428900">
        <ele>525.6</ele>
        <time>2020-09-13T11:47:02Z</time>
      </trkpt>
      <trkpt lat="42.9005710" lon="-2.5428900">
        <ele>526.2</ele>
        <time>2020-09-13T11:47:06Z</time>
      </trkpt>
      <trkpt lat="42.9005710" lon="-2.5428900">
        <ele>525.6</ele>
        <time>2020-09-13T11:47:10Z</time>
      </trkpt>
      <trkpt lat="42.9005710" lon="-2.5428900">
        <ele>525.6</ele>
        <time>2020-09-13T11:47:14Z</time>
      </trkpt>
      <trkpt lat="42.9005710" lon="-2.5428900">
        <ele>525.8</ele>
        <time>2020-09-13T11:47:18Z</time>
      </trkpt>
      <trkpt lat="42.9005710" lon="-2.5428900">
        <ele>525.6</ele>
        <time>2020-09-13T11:47:22Z</time>
      </trkpt>
      <trkpt lat="42.9005710" lon="-2.5428900">
        <ele>525.6</ele>
        <time>2020-09-13T11:47:26Z</time>
      </trkpt>
      <trkpt lat="42.9005710" lon="-2.5428900">
        <ele>526.0</ele>
        <time>2020-09-13T11:47:30Z</time>
      </trkpt>
      <trkpt lat="42.9005710" lon="-2.5428900">
        <ele>525.6</ele>
        <time>2020-09-13T11:47:34Z</time>
      </trkpt>
      <trkpt lat="42.9005710" lon="-2.5428900">
        <ele>525.6</ele>
        <time>2020-09-13T11:47:38Z</time>
      </trkpt>
      <trkpt lat="42.9005710" lon="-2.5428900">
        <ele>526.0</ele>
        <time>2020-09-13T11:47:42Z</time>
      </trkpt>
      <trkpt lat="42.9005710" lon="-2.5428900">
        <ele>525.6</ele>
        <time>2020-09-13T11:47:46Z</time>
      </trkpt>
      <trkpt lat="42.9005710" lon="-2.5428900">
        <ele>525.6</ele>
        <time>2020-09-13T11:47:50Z</time>
      </trkpt>
      <trkpt lat="42.9005710" lon="-2.5428900">
        <ele>525.8</ele>
        <time>2020-09-13T11:47:54Z</time>
      </trkpt>
      <trkpt lat="42.9005710" lon="-2.5428900">
        <ele>525.6</ele>
        <time>2020-09-13T11:47:58Z</time>
      </trkpt>
      <trkpt lat="42.9005710" lon="-2.5428900">
        <ele>525.6</ele>
        <time>2020-09-13T11:48:02Z</time>
      </trkpt>
      <trkpt lat="42.9005710" lon="-2.5428900">
        <ele>525.6</ele>
        <time>2020-09-13T11:48:06Z</time>
      </trkpt>
      <trkpt lat="42.9005710" lon="-2.5428900">
        <ele>525.6</ele>
        <time>2020-09-13T11:48:10Z</time>
      </trkpt>
      <trkpt lat="42.9005710" lon="-2.5428900">
        <ele>525.6</ele>
        <time>2020-09-13T11:48:14Z</time>
      </trkpt>
      <trkpt lat="42.9005710" lon="-2.5428900">
        <ele>525.4</ele>
        <time>2020-09-13T11:48:18Z</time>
      </trkpt>
      <trkpt lat="42.9005710" lon="-2.5428900">
        <ele>525.6</ele>
        <time>2020-09-13T11:48:22Z</time>
      </trkpt>
      <trkpt lat="42.9005710" lon="-2.5428900">
        <ele>525.6</ele>
        <time>2020-09-13T11:48:26Z</time>
      </trkpt>
      <trkpt lat="42.9005710" lon="-2.5428900">
        <ele>525.6</ele>
        <time>2020-09-13T11:48:30Z</time>
      </trkpt>
      <trkpt lat="42.9005710" lon="-2.5428900">
        <ele>525.6</ele>
        <time>2020-09-13T11:48:34Z</time>
      </trkpt>
      <trkpt lat="42.9005710" lon="-2.5428900">
        <ele>525.4</ele>
        <time>2020-09-13T11:48:38Z</time>
      </trkpt>
      <trkpt lat="42.9005710" lon="-2.5428900">
        <ele>525.6</ele>
        <time>2020-09-13T11:48:42Z</time>
      </trkpt>
      <trkpt lat="42.9005710" lon="-2.5428900">
        <ele>526.0</ele>
        <time>2020-09-13T11:48:46Z</time>
      </trkpt>
      <trkpt lat="42.9005710" lon="-2.5428900">
        <ele>525.8</ele>
        <time>2020-09-13T11:48:50Z</time>
      </trkpt>
      <trkpt lat="42.9005710" lon="-2.5428900">
        <ele>525.8</ele>
        <time>2020-09-13T11:48:54Z</time>
      </trkpt>
      <trkpt lat="42.9005710" lon="-2.5428900">
        <ele>525.6</ele>
        <time>2020-09-13T11:48:58Z</time>
      </trkpt>
      <trkpt lat="42.9005710" lon="-2.5428900">
        <ele>525.8</ele>
        <time>2020-09-13T11:49:02Z</time>
      </trkpt>
      <trkpt lat="42.9005710" lon="-2.5428900">
        <ele>525.6</ele>
        <time>2020-09-13T11:49:06Z</time>
      </trkpt>
      <trkpt lat="42.9005710" lon="-2.5428900">
        <ele>525.8</ele>
        <time>2020-09-13T11:49:10Z</time>
      </trkpt>
      <trkpt lat="42.9005710" lon="-2.5428900">
        <ele>525.8</ele>
        <time>2020-09-13T11:49:14Z</time>
      </trkpt>
      <trkpt lat="42.9005710" lon="-2.5428900">
        <ele>526.0</ele>
        <time>2020-09-13T11:49:18Z</time>
      </trkpt>
      <trkpt lat="42.9005710" lon="-2.5428900">
        <ele>525.8</ele>
        <time>2020-09-13T11:49:22Z</time>
      </trkpt>
      <trkpt lat="42.9005710" lon="-2.5428900">
        <ele>526.0</ele>
        <time>2020-09-13T11:49:26Z</time>
      </trkpt>
      <trkpt lat="42.9005710" lon="-2.5428900">
        <ele>526.2</ele>
        <time>2020-09-13T11:49:30Z</time>
      </trkpt>
      <trkpt lat="42.9005710" lon="-2.5428900">
        <ele>526.0</ele>
        <time>2020-09-13T11:49:34Z</time>
      </trkpt>
      <trkpt lat="42.9005710" lon="-2.5428900">
        <ele>526.2</ele>
        <time>2020-09-13T11:49:38Z</time>
      </trkpt>
      <trkpt lat="42.9005710" lon="-2.5428900">
        <ele>526.2</ele>
        <time>2020-09-13T11:49:42Z</time>
      </trkpt>
      <trkpt lat="42.9005710" lon="-2.5428900">
        <ele>526.2</ele>
        <time>2020-09-13T11:49:46Z</time>
      </trkpt>
      <trkpt lat="42.9005710" lon="-2.5428900">
        <ele>526.2</ele>
        <time>2020-09-13T11:49:50Z</time>
      </trkpt>
      <trkpt lat="42.9005710" lon="-2.5428900">
        <ele>526.0</ele>
        <time>2020-09-13T11:49:54Z</time>
      </trkpt>
      <trkpt lat="42.9005710" lon="-2.5428900">
        <ele>526.0</ele>
        <time>2020-09-13T11:49:58Z</time>
      </trkpt>
      <trkpt lat="42.9005710" lon="-2.5428900">
        <ele>525.6</ele>
        <time>2020-09-13T11:50:02Z</time>
      </trkpt>
      <trkpt lat="42.9005710" lon="-2.5428900">
        <ele>525.6</ele>
        <time>2020-09-13T11:50:06Z</time>
      </trkpt>
      <trkpt lat="42.9005710" lon="-2.5428900">
        <ele>526.0</ele>
        <time>2020-09-13T11:50:10Z</time>
      </trkpt>
      <trkpt lat="42.9005710" lon="-2.5428900">
        <ele>526.2</ele>
        <time>2020-09-13T11:50:14Z</time>
      </trkpt>
      <trkpt lat="42.9005710" lon="-2.5428900">
        <ele>526.2</ele>
        <time>2020-09-13T11:50:18Z</time>
      </trkpt>
      <trkpt lat="42.9005710" lon="-2.5428900">
        <ele>526.0</ele>
        <time>2020-09-13T11:50:22Z</time>
      </trkpt>
      <trkpt lat="42.9005710" lon="-2.5428900">
        <ele>525.8</ele>
        <time>2020-09-13T11:50:26Z</time>
      </trkpt>
      <trkpt lat="42.9005710" lon="-2.5428900">
        <ele>526.0</ele>
        <time>2020-09-13T11:50:30Z</time>
      </trkpt>
      <trkpt lat="42.9005710" lon="-2.5428900">
        <ele>526.0</ele>
        <time>2020-09-13T11:50:34Z</time>
      </trkpt>
      <trkpt lat="42.9005710" lon="-2.5428900">
        <ele>526.0</ele>
        <time>2020-09-13T11:50:38Z</time>
      </trkpt>
      <trkpt lat="42.9005710" lon="-2.5428900">
        <ele>525.6</ele>
        <time>2020-09-13T11:50:42Z</time>
      </trkpt>
      <trkpt lat="42.9005710" lon="-2.5428900">
        <ele>525.6</ele>
        <time>2020-09-13T11:50:46Z</time>
      </trkpt>
      <trkpt lat="42.9005710" lon="-2.5428900">
        <ele>526.0</ele>
        <time>2020-09-13T11:50:50Z</time>
      </trkpt>
      <trkpt lat="42.9005710" lon="-2.5428900">
        <ele>525.6</ele>
        <time>2020-09-13T11:50:54Z</time>
      </trkpt>
      <trkpt lat="42.9005710" lon="-2.5428900">
        <ele>525.8</ele>
        <time>2020-09-13T11:50:58Z</time>
      </trkpt>
      <trkpt lat="42.9005710" lon="-2.5428900">
        <ele>526.0</ele>
        <time>2020-09-13T11:51:02Z</time>
      </trkpt>
      <trkpt lat="42.9005710" lon="-2.5428900">
        <ele>526.0</ele>
        <time>2020-09-13T11:51:06Z</time>
      </trkpt>
      <trkpt lat="42.9005710" lon="-2.5428900">
        <ele>525.6</ele>
        <time>2020-09-13T11:51:10Z</time>
      </trkpt>
      <trkpt lat="42.9005710" lon="-2.5428900">
        <ele>525.6</ele>
        <time>2020-09-13T11:51:14Z</time>
      </trkpt>
      <trkpt lat="42.9005710" lon="-2.5428900">
        <ele>525.8</ele>
        <time>2020-09-13T11:51:18Z</time>
      </trkpt>
      <trkpt lat="42.9005710" lon="-2.5428900">
        <ele>525.8</ele>
        <time>2020-09-13T11:51:22Z</time>
      </trkpt>
      <trkpt lat="42.9005710" lon="-2.5428900">
        <ele>525.8</ele>
        <time>2020-09-13T11:51:26Z</time>
      </trkpt>
      <trkpt lat="42.9005710" lon="-2.5428900">
        <ele>525.6</ele>
        <time>2020-09-13T11:51:30Z</time>
      </trkpt>
      <trkpt lat="42.9005710" lon="-2.5428900">
        <ele>526.0</ele>
        <time>2020-09-13T11:51:34Z</time>
      </trkpt>
      <trkpt lat="42.9005710" lon="-2.5428900">
        <ele>525.8</ele>
        <time>2020-09-13T11:51:38Z</time>
      </trkpt>
      <trkpt lat="42.9005710" lon="-2.5428900">
        <ele>526.0</ele>
        <time>2020-09-13T11:51:42Z</time>
      </trkpt>
      <trkpt lat="42.9005710" lon="-2.5428900">
        <ele>525.8</ele>
        <time>2020-09-13T11:51:46Z</time>
      </trkpt>
      <trkpt lat="42.9005710" lon="-2.5428900">
        <ele>526.0</ele>
        <time>2020-09-13T11:51:50Z</time>
      </trkpt>
      <trkpt lat="42.9005710" lon="-2.5428900">
        <ele>526.0</ele>
        <time>2020-09-13T11:51:54Z</time>
      </trkpt>
      <trkpt lat="42.9005710" lon="-2.5428900">
        <ele>526.2</ele>
        <time>2020-09-13T11:51:58Z</time>
      </trkpt>
      <trkpt lat="42.9005710" lon="-2.5428900">
        <ele>526.2</ele>
        <time>2020-09-13T11:52:02Z</time>
      </trkpt>
      <trkpt lat="42.9005710" lon="-2.5428900">
        <ele>526.2</ele>
        <time>2020-09-13T11:52:06Z</time>
      </trkpt>
      <trkpt lat="42.9005710" lon="-2.5428900">
        <ele>526.0</ele>
        <time>2020-09-13T11:52:10Z</time>
      </trkpt>
      <trkpt lat="42.9005710" lon="-2.5428900">
        <ele>526.0</ele>
        <time>2020-09-13T11:52:14Z</time>
      </trkpt>
      <trkpt lat="42.9005710" lon="-2.5428900">
        <ele>525.6</ele>
        <time>2020-09-13T11:52:18Z</time>
      </trkpt>
      <trkpt lat="42.9005710" lon="-2.5428900">
        <ele>526.0</ele>
        <time>2020-09-13T11:52:22Z</time>
      </trkpt>
      <trkpt lat="42.9005710" lon="-2.5428900">
        <ele>526.2</ele>
        <time>2020-09-13T11:52:26Z</time>
      </trkpt>
      <trkpt lat="42.9005710" lon="-2.5428900">
        <ele>525.6</ele>
        <time>2020-09-13T11:52:30Z</time>
      </trkpt>
      <trkpt lat="42.9005710" lon="-2.5428900">
        <ele>525.6</ele>
        <time>2020-09-13T11:52:34Z</time>
      </trkpt>
      <trkpt lat="42.9005710" lon="-2.5428900">
        <ele>525.8</ele>
        <time>2020-09-13T11:52:38Z</time>
      </trkpt>
      <trkpt lat="42.9005710" lon="-2.5428900">
        <ele>526.2</ele>
        <time>2020-09-13T11:52:42Z</time>
      </trkpt>
      <trkpt lat="42.9005710" lon="-2.5428900">
        <ele>526.0</ele>
        <time>2020-09-13T11:52:46Z</time>
      </trkpt>
      <trkpt lat="42.9005710" lon="-2.5428900">
        <ele>525.6</ele>
        <time>2020-09-13T11:52:50Z</time>
      </trkpt>
      <trkpt lat="42.9005710" lon="-2.5428900">
        <ele>526.0</ele>
        <time>2020-09-13T11:52:54Z</time>
      </trkpt>
      <trkpt lat="42.9005710" lon="-2.5428900">
        <ele>525.6</ele>
        <time>2020-09-13T11:52:58Z</time>
      </trkpt>
      <trkpt lat="42.9005710" lon="-2.5428900">
        <ele>526.0</ele>
        <time>2020-09-13T11:53:02Z</time>
      </trkpt>
      <trkpt lat="42.9005710" lon="-2.5428900">
        <ele>525.6</ele>
        <time>2020-09-13T11:53:06Z</time>
      </trkpt>
      <trkpt lat="42.9005710" lon="-2.5428900">
        <ele>526.2</ele>
        <time>2020-09-13T11:53:10Z</time>
      </trkpt>
      <trkpt lat="42.9005710" lon="-2.5428900">
        <ele>526.2</ele>
        <time>2020-09-13T11:53:14Z</time>
      </trkpt>
      <trkpt lat="42.9005710" lon="-2.5428900">
        <ele>526.2</ele>
        <time>2020-09-13T11:53:18Z</time>
      </trkpt>
      <trkpt lat="42.9005710" lon="-2.5428900">
        <ele>526.2</ele>
        <time>2020-09-13T11:53:22Z</time>
      </trkpt>
      <trkpt lat="42.9005710" lon="-2.5428900">
        <ele>526.2</ele>
        <time>2020-09-13T11:53:26Z</time>
      </trkpt>
      <trkpt lat="42.9005710" lon="-2.5428900">
        <ele>525.6</ele>
        <time>2020-09-13T11:53:30Z</time>
      </trkpt>
      <trkpt lat="42.9005710" lon="-2.5428900">
        <ele>525.8</ele>
        <time>2020-09-13T11:53:34Z</time>
      </trkpt>
      <trkpt lat="42.9005710" lon="-2.5428900">
        <ele>525.8</ele>
        <time>2020-09-13T11:53:38Z</time>
      </trkpt>
      <trkpt lat="42.9005710" lon="-2.5428900">
        <ele>526.0</ele>
        <time>2020-09-13T11:53:42Z</time>
      </trkpt>
      <trkpt lat="42.9005710" lon="-2.5428900">
        <ele>526.2</ele>
        <time>2020-09-13T11:53:46Z</time>
      </trkpt>
      <trkpt lat="42.9005710" lon="-2.5428900">
        <ele>525.6</ele>
        <time>2020-09-13T11:53:50Z</time>
      </trkpt>
      <trkpt lat="42.9005710" lon="-2.5428900">
        <ele>525.8</ele>
        <time>2020-09-13T11:53:54Z</time>
      </trkpt>
      <trkpt lat="42.9005710" lon="-2.5428900">
        <ele>526.0</ele>
        <time>2020-09-13T11:53:58Z</time>
      </trkpt>
      <trkpt lat="42.9005710" lon="-2.5428900">
        <ele>526.2</ele>
        <time>2020-09-13T11:54:02Z</time>
      </trkpt>
      <trkpt lat="42.9005710" lon="-2.5428900">
        <ele>526.2</ele>
        <time>2020-09-13T11:54:06Z</time>
      </trkpt>
      <trkpt lat="42.9005710" lon="-2.5428900">
        <ele>526.2</ele>
        <time>2020-09-13T11:54:10Z</time>
      </trkpt>
      <trkpt lat="42.9005710" lon="-2.5428900">
        <ele>526.2</ele>
        <time>2020-09-13T11:54:14Z</time>
      </trkpt>
      <trkpt lat="42.9005710" lon="-2.5428900">
        <ele>526.2</ele>
        <time>2020-09-13T11:54:18Z</time>
      </trkpt>
      <trkpt lat="42.9005710" lon="-2.5428900">
        <ele>526.2</ele>
        <time>2020-09-13T11:54:22Z</time>
      </trkpt>
      <trkpt lat="42.9005710" lon="-2.5428900">
        <ele>526.2</ele>
        <time>2020-09-13T11:54:26Z</time>
      </trkpt>
      <trkpt lat="42.9005710" lon="-2.5428900">
        <ele>526.2</ele>
        <time>2020-09-13T11:54:30Z</time>
      </trkpt>
      <trkpt lat="42.9005710" lon="-2.5428900">
        <ele>526.2</ele>
        <time>2020-09-13T11:54:34Z</time>
      </trkpt>
      <trkpt lat="42.9005710" lon="-2.5428900">
        <ele>526.4</ele>
        <time>2020-09-13T11:54:38Z</time>
      </trkpt>
      <trkpt lat="42.9005710" lon="-2.5428900">
        <ele>526.2</ele>
        <time>2020-09-13T11:54:42Z</time>
      </trkpt>
      <trkpt lat="42.9005710" lon="-2.5428900">
        <ele>526.2</ele>
        <time>2020-09-13T11:54:46Z</time>
      </trkpt>
      <trkpt lat="42.9005710" lon="-2.5428900">
        <ele>526.2</ele>
        <time>2020-09-13T11:54:50Z</time>
      </trkpt>
      <trkpt lat="42.9005710" lon="-2.5428900">
        <ele>526.2</ele>
        <time>2020-09-13T11:54:54Z</time>
      </trkpt>
      <trkpt lat="42.9005710" lon="-2.5428900">
        <ele>526.2</ele>
        <time>2020-09-13T11:54:58Z</time>
      </trkpt>
      <trkpt lat="42.9005710" lon="-2.5428900">
        <ele>526.2</ele>
        <time>2020-09-13T11:55:02Z</time>
      </trkpt>
      <trkpt lat="42.9005710" lon="-2.5428900">
        <ele>526.2</ele>
        <time>2020-09-13T11:55:06Z</time>
      </trkpt>
      <trkpt lat="42.9005710" lon="-2.5428900">
        <ele>526.2</ele>
        <time>2020-09-13T11:55:10Z</time>
      </trkpt>
      <trkpt lat="42.9005710" lon="-2.5428900">
        <ele>526.2</ele>
        <time>2020-09-13T11:55:14Z</time>
      </trkpt>
      <trkpt lat="42.9005710" lon="-2.5428900">
        <ele>526.2</ele>
        <time>2020-09-13T11:55:18Z</time>
      </trkpt>
      <trkpt lat="42.9005710" lon="-2.5428900">
        <ele>526.0</ele>
        <time>2020-09-13T11:55:22Z</time>
      </trkpt>
      <trkpt lat="42.9005710" lon="-2.5428900">
        <ele>526.2</ele>
        <time>2020-09-13T11:55:26Z</time>
      </trkpt>
      <trkpt lat="42.9005710" lon="-2.5428900">
        <ele>526.0</ele>
        <time>2020-09-13T11:55:30Z</time>
      </trkpt>
      <trkpt lat="42.9005710" lon="-2.5428900">
        <ele>526.4</ele>
        <time>2020-09-13T11:55:34Z</time>
      </trkpt>
      <trkpt lat="42.9005710" lon="-2.5428900">
        <ele>526.2</ele>
        <time>2020-09-13T11:55:38Z</time>
      </trkpt>
      <trkpt lat="42.9005710" lon="-2.5428900">
        <ele>526.2</ele>
        <time>2020-09-13T11:55:42Z</time>
      </trkpt>
      <trkpt lat="42.9005710" lon="-2.5428900">
        <ele>526.0</ele>
        <time>2020-09-13T11:55:46Z</time>
      </trkpt>
      <trkpt lat="42.9005710" lon="-2.5428900">
        <ele>526.4</ele>
        <time>2020-09-13T11:55:50Z</time>
      </trkpt>
      <trkpt lat="42.9005710" lon="-2.5428900">
        <ele>526.2</ele>
        <time>2020-09-13T11:55:54Z</time>
      </trkpt>
      <trkpt lat="42.9005710" lon="-2.5428900">
        <ele>526.4</ele>
        <time>2020-09-13T11:55:58Z</time>
      </trkpt>
      <trkpt lat="42.9005710" lon="-2.5428900">
        <ele>526.2</ele>
        <time>2020-09-13T11:56:02Z</time>
      </trkpt>
      <trkpt lat="42.9005710" lon="-2.5428900">
        <ele>526.4</ele>
        <time>2020-09-13T11:56:06Z</time>
      </trkpt>
      <trkpt lat="42.9005710" lon="-2.5428900">
        <ele>526.0</ele>
        <time>2020-09-13T11:56:10Z</time>
      </trkpt>
      <trkpt lat="42.9005710" lon="-2.5428900">
        <ele>526.0</ele>
        <time>2020-09-13T11:56:14Z</time>
      </trkpt>
      <trkpt lat="42.9005710" lon="-2.5428900">
        <ele>526.2</ele>
        <time>2020-09-13T11:56:18Z</time>
      </trkpt>
      <trkpt lat="42.9005710" lon="-2.5428900">
        <ele>526.2</ele>
        <time>2020-09-13T11:56:22Z</time>
      </trkpt>
      <trkpt lat="42.9005710" lon="-2.5428900">
        <ele>526.2</ele>
        <time>2020-09-13T11:56:26Z</time>
      </trkpt>
      <trkpt lat="42.9005710" lon="-2.5428900">
        <ele>526.0</ele>
        <time>2020-09-13T11:56:30Z</time>
      </trkpt>
      <trkpt lat="42.9005710" lon="-2.5428900">
        <ele>526.2</ele>
        <time>2020-09-13T11:56:34Z</time>
      </trkpt>
      <trkpt lat="42.9005710" lon="-2.5428900">
        <ele>526.0</ele>
        <time>2020-09-13T11:56:38Z</time>
      </trkpt>
      <trkpt lat="42.9005710" lon="-2.5428900">
        <ele>526.2</ele>
        <time>2020-09-13T11:56:42Z</time>
      </trkpt>
      <trkpt lat="42.9005710" lon="-2.5428900">
        <ele>526.2</ele>
        <time>2020-09-13T11:56:46Z</time>
      </trkpt>
      <trkpt lat="42.9005710" lon="-2.5428900">
        <ele>526.2</ele>
        <time>2020-09-13T11:56:50Z</time>
      </trkpt>
      <trkpt lat="42.9005710" lon="-2.5428900">
        <ele>526.4</ele>
        <time>2020-09-13T11:56:54Z</time>
      </trkpt>
      <trkpt lat="42.9005710" lon="-2.5428900">
        <ele>525.8</ele>
        <time>2020-09-13T11:56:58Z</time>
      </trkpt>
      <trkpt lat="42.9005710" lon="-2.5428900">
        <ele>526.2</ele>
        <time>2020-09-13T11:57:02Z</time>
      </trkpt>
      <trkpt lat="42.9005710" lon="-2.5428900">
        <ele>526.2</ele>
        <time>2020-09-13T11:57:06Z</time>
      </trkpt>
      <trkpt lat="42.9005710" lon="-2.5428900">
        <ele>526.0</ele>
        <time>2020-09-13T11:57:10Z</time>
      </trkpt>
      <trkpt lat="42.9005710" lon="-2.5428900">
        <ele>526.0</ele>
        <time>2020-09-13T11:57:14Z</time>
      </trkpt>
      <trkpt lat="42.9005710" lon="-2.5428900">
        <ele>526.4</ele>
        <time>2020-09-13T11:57:18Z</time>
      </trkpt>
      <trkpt lat="42.9005710" lon="-2.5428900">
        <ele>526.0</ele>
        <time>2020-09-13T11:57:22Z</time>
      </trkpt>
      <trkpt lat="42.9005710" lon="-2.5428900">
        <ele>526.4</ele>
        <time>2020-09-13T11:57:26Z</time>
      </trkpt>
      <trkpt lat="42.9005710" lon="-2.5428900">
        <ele>527.0</ele>
        <time>2020-09-13T11:57:30Z</time>
      </trkpt>
      <trkpt lat="42.9005710" lon="-2.5428900">
        <ele>526.2</ele>
        <time>2020-09-13T11:57:34Z</time>
      </trkpt>
      <trkpt lat="42.9005710" lon="-2.5428900">
        <ele>526.2</ele>
        <time>2020-09-13T11:57:38Z</time>
      </trkpt>
      <trkpt lat="42.9005710" lon="-2.5428900">
        <ele>526.6</ele>
        <time>2020-09-13T11:57:42Z</time>
      </trkpt>
      <trkpt lat="42.9005710" lon="-2.5428900">
        <ele>526.2</ele>
        <time>2020-09-13T11:57:46Z</time>
      </trkpt>
      <trkpt lat="42.9005710" lon="-2.5428900">
        <ele>526.8</ele>
        <time>2020-09-13T11:57:50Z</time>
      </trkpt>
      <trkpt lat="42.9005710" lon="-2.5428900">
        <ele>526.8</ele>
        <time>2020-09-13T11:57:54Z</time>
      </trkpt>
      <trkpt lat="42.9005710" lon="-2.5428900">
        <ele>526.2</ele>
        <time>2020-09-13T11:57:58Z</time>
      </trkpt>
      <trkpt lat="42.9005710" lon="-2.5428900">
        <ele>526.4</ele>
        <time>2020-09-13T11:58:02Z</time>
      </trkpt>
      <trkpt lat="42.9005710" lon="-2.5428900">
        <ele>526.2</ele>
        <time>2020-09-13T11:58:06Z</time>
      </trkpt>
      <trkpt lat="42.9005710" lon="-2.5428900">
        <ele>526.0</ele>
        <time>2020-09-13T11:58:10Z</time>
      </trkpt>
      <trkpt lat="42.9005710" lon="-2.5428900">
        <ele>526.0</ele>
        <time>2020-09-13T11:58:14Z</time>
      </trkpt>
      <trkpt lat="42.9005710" lon="-2.5428900">
        <ele>526.2</ele>
        <time>2020-09-13T11:58:18Z</time>
      </trkpt>
      <trkpt lat="42.9005710" lon="-2.5428900">
        <ele>526.4</ele>
        <time>2020-09-13T11:58:22Z</time>
      </trkpt>
      <trkpt lat="42.9005710" lon="-2.5428900">
        <ele>526.2</ele>
        <time>2020-09-13T11:58:26Z</time>
      </trkpt>
      <trkpt lat="42.9005710" lon="-2.5428900">
        <ele>526.2</ele>
        <time>2020-09-13T11:58:30Z</time>
      </trkpt>
      <trkpt lat="42.9005710" lon="-2.5428900">
        <ele>526.6</ele>
        <time>2020-09-13T11:58:34Z</time>
      </trkpt>
      <trkpt lat="42.9005710" lon="-2.5428900">
        <ele>526.2</ele>
        <time>2020-09-13T11:58:38Z</time>
      </trkpt>
      <trkpt lat="42.9005710" lon="-2.5428900">
        <ele>526.2</ele>
        <time>2020-09-13T11:58:42Z</time>
      </trkpt>
      <trkpt lat="42.9005710" lon="-2.5428900">
        <ele>526.2</ele>
        <time>2020-09-13T11:58:46Z</time>
      </trkpt>
      <trkpt lat="42.9005710" lon="-2.5428900">
        <ele>526.0</ele>
        <time>2020-09-13T11:58:50Z</time>
      </trkpt>
      <trkpt lat="42.9005710" lon="-2.5428900">
        <ele>526.2</ele>
        <time>2020-09-13T11:58:54Z</time>
      </trkpt>
      <trkpt lat="42.9005710" lon="-2.5428900">
        <ele>526.2</ele>
        <time>2020-09-13T11:58:58Z</time>
      </trkpt>
      <trkpt lat="42.9005710" lon="-2.5428900">
        <ele>526.2</ele>
        <time>2020-09-13T11:59:02Z</time>
      </trkpt>
      <trkpt lat="42.9005710" lon="-2.5428900">
        <ele>526.2</ele>
        <time>2020-09-13T11:59:06Z</time>
      </trkpt>
      <trkpt lat="42.9005710" lon="-2.5428900">
        <ele>526.2</ele>
        <time>2020-09-13T11:59:10Z</time>
      </trkpt>
      <trkpt lat="42.9005710" lon="-2.5428900">
        <ele>526.2</ele>
        <time>2020-09-13T11:59:14Z</time>
      </trkpt>
      <trkpt lat="42.9005710" lon="-2.5428900">
        <ele>526.2</ele>
        <time>2020-09-13T11:59:18Z</time>
      </trkpt>
      <trkpt lat="42.9005710" lon="-2.5428900">
        <ele>526.2</ele>
        <time>2020-09-13T11:59:22Z</time>
      </trkpt>
      <trkpt lat="42.9005710" lon="-2.5428900">
        <ele>526.4</ele>
        <time>2020-09-13T11:59:26Z</time>
      </trkpt>
      <trkpt lat="42.9005710" lon="-2.5428900">
        <ele>526.2</ele>
        <time>2020-09-13T11:59:30Z</time>
      </trkpt>
      <trkpt lat="42.9005710" lon="-2.5428900">
        <ele>526.0</ele>
        <time>2020-09-13T11:59:34Z</time>
      </trkpt>
      <trkpt lat="42.9005710" lon="-2.5428900">
        <ele>526.4</ele>
        <time>2020-09-13T11:59:38Z</time>
      </trkpt>
      <trkpt lat="42.9005710" lon="-2.5428900">
        <ele>526.8</ele>
        <time>2020-09-13T11:59:42Z</time>
      </trkpt>
      <trkpt lat="42.9005710" lon="-2.5428900">
        <ele>526.4</ele>
        <time>2020-09-13T11:59:46Z</time>
      </trkpt>
      <trkpt lat="42.9005710" lon="-2.5428900">
        <ele>526.2</ele>
        <time>2020-09-13T11:59:50Z</time>
      </trkpt>
      <trkpt lat="42.9005710" lon="-2.5428900">
        <ele>526.2</ele>
        <time>2020-09-13T11:59:54Z</time>
      </trkpt>
      <trkpt lat="42.9005710" lon="-2.5428900">
        <ele>526.2</ele>
        <time>2020-09-13T11:59:58Z</time>
      </trkpt>
      <trkpt lat="42.9005710" lon="-2.5428900">
        <ele>526.2</ele>
        <time>2020-09-13T12:00:02Z</time>
      </trkpt>
      <trkpt lat="42.9005710" lon="-2.5428900">
        <ele>526.2</ele>
        <time>2020-09-13T12:00:06Z</time>
      </trkpt>
      <trkpt lat="42.9005710" lon="-2.5428900">
        <ele>526.2</ele>
        <time>2020-09-13T12:00:10Z</time>
      </trkpt>
      <trkpt lat="42.9005710" lon="-2.5428900">
        <ele>526.2</ele>
        <time>2020-09-13T12:00:14Z</time>
      </trkpt>
      <trkpt lat="42.9005710" lon="-2.5428900">
        <ele>526.0</ele>
        <time>2020-09-13T12:00:18Z</time>
      </trkpt>
      <trkpt lat="42.9005710" lon="-2.5428900">
        <ele>526.2</ele>
        <time>2020-09-13T12:00:22Z</time>
      </trkpt>
      <trkpt lat="42.9005710" lon="-2.5428900">
        <ele>526.0</ele>
        <time>2020-09-13T12:00:26Z</time>
      </trkpt>
      <trkpt lat="42.9005710" lon="-2.5428900">
        <ele>526.2</ele>
        <time>2020-09-13T12:00:30Z</time>
      </trkpt>
      <trkpt lat="42.9005710" lon="-2.5428900">
        <ele>526.2</ele>
        <time>2020-09-13T12:00:34Z</time>
      </trkpt>
      <trkpt lat="42.9005710" lon="-2.5428900">
        <ele>526.4</ele>
        <time>2020-09-13T12:00:38Z</time>
      </trkpt>
      <trkpt lat="42.9005710" lon="-2.5428900">
        <ele>526.8</ele>
        <time>2020-09-13T12:00:42Z</time>
      </trkpt>
      <trkpt lat="42.9005710" lon="-2.5428900">
        <ele>526.4</ele>
        <time>2020-09-13T12:00:46Z</time>
      </trkpt>
      <trkpt lat="42.9005710" lon="-2.5428900">
        <ele>526.4</ele>
        <time>2020-09-13T12:00:50Z</time>
      </trkpt>
      <trkpt lat="42.9005710" lon="-2.5428900">
        <ele>526.4</ele>
        <time>2020-09-13T12:00:54Z</time>
      </trkpt>
      <trkpt lat="42.9005710" lon="-2.5428900">
        <ele>526.6</ele>
        <time>2020-09-13T12:00:58Z</time>
      </trkpt>
      <trkpt lat="42.9005710" lon="-2.5428900">
        <ele>526.4</ele>
        <time>2020-09-13T12:01:02Z</time>
      </trkpt>
      <trkpt lat="42.9005710" lon="-2.5428900">
        <ele>526.6</ele>
        <time>2020-09-13T12:01:06Z</time>
      </trkpt>
      <trkpt lat="42.9005710" lon="-2.5428900">
        <ele>526.6</ele>
        <time>2020-09-13T12:01:10Z</time>
      </trkpt>
      <trkpt lat="42.9005710" lon="-2.5428900">
        <ele>526.2</ele>
        <time>2020-09-13T12:01:14Z</time>
      </trkpt>
      <trkpt lat="42.9005710" lon="-2.5428900">
        <ele>526.8</ele>
        <time>2020-09-13T12:01:18Z</time>
      </trkpt>
      <trkpt lat="42.9005710" lon="-2.5428900">
        <ele>526.6</ele>
        <time>2020-09-13T12:01:22Z</time>
      </trkpt>
      <trkpt lat="42.9005710" lon="-2.5428900">
        <ele>526.4</ele>
        <time>2020-09-13T12:01:26Z</time>
      </trkpt>
      <trkpt lat="42.9005710" lon="-2.5428900">
        <ele>526.8</ele>
        <time>2020-09-13T12:01:30Z</time>
      </trkpt>
      <trkpt lat="42.9005710" lon="-2.5428900">
        <ele>526.8</ele>
        <time>2020-09-13T12:01:34Z</time>
      </trkpt>
      <trkpt lat="42.9005710" lon="-2.5428900">
        <ele>526.8</ele>
        <time>2020-09-13T12:01:38Z</time>
      </trkpt>
      <trkpt lat="42.9005710" lon="-2.5428900">
        <ele>526.8</ele>
        <time>2020-09-13T12:01:42Z</time>
      </trkpt>
      <trkpt lat="42.9005710" lon="-2.5428900">
        <ele>526.8</ele>
        <time>2020-09-13T12:01:46Z</time>
      </trkpt>
      <trkpt lat="42.9005710" lon="-2.5428900">
        <ele>527.0</ele>
        <time>2020-09-13T12:01:50Z</time>
      </trkpt>
      <trkpt lat="42.9005710" lon="-2.5428900">
        <ele>526.8</ele>
        <time>2020-09-13T12:01:54Z</time>
      </trkpt>
      <trkpt lat="42.9005710" lon="-2.5428900">
        <ele>526.8</ele>
        <time>2020-09-13T12:01:58Z</time>
      </trkpt>
      <trkpt lat="42.9005710" lon="-2.5428900">
        <ele>526.8</ele>
        <time>2020-09-13T12:02:02Z</time>
      </trkpt>
      <trkpt lat="42.9005710" lon="-2.5428900">
        <ele>526.4</ele>
        <time>2020-09-13T12:02:06Z</time>
      </trkpt>
      <trkpt lat="42.9005710" lon="-2.5428900">
        <ele>526.8</ele>
        <time>2020-09-13T12:02:10Z</time>
      </trkpt>
      <trkpt lat="42.9005710" lon="-2.5428900">
        <ele>527.0</ele>
        <time>2020-09-13T12:02:14Z</time>
      </trkpt>
      <trkpt lat="42.9005710" lon="-2.5428900">
        <ele>527.0</ele>
        <time>2020-09-13T12:02:18Z</time>
      </trkpt>
      <trkpt lat="42.9005710" lon="-2.5428900">
        <ele>527.0</ele>
        <time>2020-09-13T12:02:22Z</time>
      </trkpt>
      <trkpt lat="42.9005710" lon="-2.5428900">
        <ele>527.0</ele>
        <time>2020-09-13T12:02:26Z</time>
      </trkpt>
      <trkpt lat="42.9005710" lon="-2.5428900">
        <ele>527.0</ele>
        <time>2020-09-13T12:02:30Z</time>
      </trkpt>
      <trkpt lat="42.9005710" lon="-2.5428900">
        <ele>527.0</ele>
        <time>2020-09-13T12:02:34Z</time>
      </trkpt>
      <trkpt lat="42.9005710" lon="-2.5428900">
        <ele>526.8</ele>
        <time>2020-09-13T12:02:38Z</time>
      </trkpt>
      <trkpt lat="42.9005710" lon="-2.5428900">
        <ele>527.0</ele>
        <time>2020-09-13T12:02:42Z</time>
      </trkpt>
      <trkpt lat="42.9005710" lon="-2.5428900">
        <ele>527.2</ele>
        <time>2020-09-13T12:02:46Z</time>
      </trkpt>
      <trkpt lat="42.9005710" lon="-2.5428900">
        <ele>527.0</ele>
        <time>2020-09-13T12:02:50Z</time>
      </trkpt>
      <trkpt lat="42.9005710" lon="-2.5428900">
        <ele>526.8</ele>
        <time>2020-09-13T12:02:54Z</time>
      </trkpt>
      <trkpt lat="42.9005710" lon="-2.5428900">
        <ele>526.8</ele>
        <time>2020-09-13T12:02:58Z</time>
      </trkpt>
      <trkpt lat="42.9005710" lon="-2.5428900">
        <ele>527.0</ele>
        <time>2020-09-13T12:03:02Z</time>
      </trkpt>
      <trkpt lat="42.9005710" lon="-2.5428900">
        <ele>526.8</ele>
        <time>2020-09-13T12:03:06Z</time>
      </trkpt>
      <trkpt lat="42.9005710" lon="-2.5428900">
        <ele>526.8</ele>
        <time>2020-09-13T12:03:10Z</time>
      </trkpt>
      <trkpt lat="42.9005710" lon="-2.5428900">
        <ele>526.8</ele>
        <time>2020-09-13T12:03:14Z</time>
      </trkpt>
      <trkpt lat="42.9005710" lon="-2.5428900">
        <ele>527.0</ele>
        <time>2020-09-13T12:03:18Z</time>
      </trkpt>
      <trkpt lat="42.9005710" lon="-2.5428900">
        <ele>527.0</ele>
        <time>2020-09-13T12:03:22Z</time>
      </trkpt>
      <trkpt lat="42.9005710" lon="-2.5428900">
        <ele>526.8</ele>
        <time>2020-09-13T12:03:26Z</time>
      </trkpt>
      <trkpt lat="42.9005710" lon="-2.5428900">
        <ele>527.4</ele>
        <time>2020-09-13T12:03:30Z</time>
      </trkpt>
      <trkpt lat="42.9005710" lon="-2.5428900">
        <ele>526.8</ele>
        <time>2020-09-13T12:03:34Z</time>
      </trkpt>
      <trkpt lat="42.9005710" lon="-2.5428900">
        <ele>526.8</ele>
        <time>2020-09-13T12:03:38Z</time>
      </trkpt>
      <trkpt lat="42.9005710" lon="-2.5428900">
        <ele>527.0</ele>
        <time>2020-09-13T12:03:42Z</time>
      </trkpt>
      <trkpt lat="42.9005710" lon="-2.5428900">
        <ele>527.0</ele>
        <time>2020-09-13T12:03:46Z</time>
      </trkpt>
      <trkpt lat="42.9005710" lon="-2.5428900">
        <ele>526.8</ele>
        <time>2020-09-13T12:03:50Z</time>
      </trkpt>
      <trkpt lat="42.9005710" lon="-2.5428900">
        <ele>526.8</ele>
        <time>2020-09-13T12:03:54Z</time>
      </trkpt>
      <trkpt lat="42.9005710" lon="-2.5428900">
        <ele>527.4</ele>
        <time>2020-09-13T12:03:58Z</time>
      </trkpt>
      <trkpt lat="42.9005710" lon="-2.5428900">
        <ele>527.2</ele>
        <time>2020-09-13T12:04:02Z</time>
      </trkpt>
      <trkpt lat="42.9005710" lon="-2.5428900">
        <ele>527.0</ele>
        <time>2020-09-13T12:04:06Z</time>
      </trkpt>
      <trkpt lat="42.9005710" lon="-2.5428900">
        <ele>527.2</ele>
        <time>2020-09-13T12:04:10Z</time>
      </trkpt>
      <trkpt lat="42.9005710" lon="-2.5428900">
        <ele>527.0</ele>
        <time>2020-09-13T12:04:14Z</time>
      </trkpt>
      <trkpt lat="42.9005710" lon="-2.5428900">
        <ele>527.2</ele>
        <time>2020-09-13T12:04:18Z</time>
      </trkpt>
      <trkpt lat="42.9005710" lon="-2.5428900">
        <ele>527.0</ele>
        <time>2020-09-13T12:04:22Z</time>
      </trkpt>
      <trkpt lat="42.9005710" lon="-2.5428900">
        <ele>526.8</ele>
        <time>2020-09-13T12:04:26Z</time>
      </trkpt>
      <trkpt lat="42.9005710" lon="-2.5428900">
        <ele>526.8</ele>
        <time>2020-09-13T12:04:30Z</time>
      </trkpt>
      <trkpt lat="42.9005710" lon="-2.5428900">
        <ele>527.0</ele>
        <time>2020-09-13T12:04:34Z</time>
      </trkpt>
      <trkpt lat="42.9005710" lon="-2.5428900">
        <ele>527.2</ele>
        <time>2020-09-13T12:04:38Z</time>
      </trkpt>
      <trkpt lat="42.9005710" lon="-2.5428900">
        <ele>527.4</ele>
        <time>2020-09-13T12:04:42Z</time>
      </trkpt>
      <trkpt lat="42.9005710" lon="-2.5428900">
        <ele>527.0</ele>
        <time>2020-09-13T12:04:46Z</time>
      </trkpt>
      <trkpt lat="42.9005710" lon="-2.5428900">
        <ele>527.2</ele>
        <time>2020-09-13T12:04:50Z</time>
      </trkpt>
      <trkpt lat="42.9005710" lon="-2.5428900">
        <ele>527.2</ele>
        <time>2020-09-13T12:04:54Z</time>
      </trkpt>
      <trkpt lat="42.9005710" lon="-2.5428900">
        <ele>527.4</ele>
        <time>2020-09-13T12:04:58Z</time>
      </trkpt>
      <trkpt lat="42.9005710" lon="-2.5428900">
        <ele>527.2</ele>
        <time>2020-09-13T12:05:02Z</time>
      </trkpt>
      <trkpt lat="42.9005710" lon="-2.5428900">
        <ele>527.0</ele>
        <time>2020-09-13T12:05:06Z</time>
      </trkpt>
      <trkpt lat="42.9005710" lon="-2.5428900">
        <ele>527.0</ele>
        <time>2020-09-13T12:05:10Z</time>
      </trkpt>
      <trkpt lat="42.9005710" lon="-2.5428900">
        <ele>527.2</ele>
        <time>2020-09-13T12:05:14Z</time>
      </trkpt>
      <trkpt lat="42.9005710" lon="-2.5428900">
        <ele>527.2</ele>
        <time>2020-09-13T12:05:18Z</time>
      </trkpt>
      <trkpt lat="42.9005710" lon="-2.5428900">
        <ele>527.0</ele>
        <time>2020-09-13T12:05:22Z</time>
      </trkpt>
      <trkpt lat="42.9005710" lon="-2.5428900">
        <ele>526.8</ele>
        <time>2020-09-13T12:05:26Z</time>
      </trkpt>
      <trkpt lat="42.9005710" lon="-2.5428900">
        <ele>526.8</ele>
        <time>2020-09-13T12:05:30Z</time>
      </trkpt>
      <trkpt lat="42.9005710" lon="-2.5428900">
        <ele>527.2</ele>
        <time>2020-09-13T12:05:34Z</time>
      </trkpt>
      <trkpt lat="42.9005710" lon="-2.5428900">
        <ele>527.2</ele>
        <time>2020-09-13T12:05:38Z</time>
      </trkpt>
      <trkpt lat="42.9005710" lon="-2.5428900">
        <ele>527.2</ele>
        <time>2020-09-13T12:05:42Z</time>
      </trkpt>
      <trkpt lat="42.9005710" lon="-2.5428900">
        <ele>526.8</ele>
        <time>2020-09-13T12:05:46Z</time>
      </trkpt>
      <trkpt lat="42.9005710" lon="-2.5428900">
        <ele>527.2</ele>
        <time>2020-09-13T12:05:50Z</time>
      </trkpt>
      <trkpt lat="42.9005710" lon="-2.5428900">
        <ele>527.2</ele>
        <time>2020-09-13T12:05:54Z</time>
      </trkpt>
      <trkpt lat="42.9005710" lon="-2.5428900">
        <ele>527.6</ele>
        <time>2020-09-13T12:05:58Z</time>
      </trkpt>
      <trkpt lat="42.9005710" lon="-2.5428900">
        <ele>527.2</ele>
        <time>2020-09-13T12:06:02Z</time>
      </trkpt>
      <trkpt lat="42.9005710" lon="-2.5428900">
        <ele>527.4</ele>
        <time>2020-09-13T12:06:06Z</time>
      </trkpt>
      <trkpt lat="42.9005710" lon="-2.5428900">
        <ele>527.4</ele>
        <time>2020-09-13T12:06:10Z</time>
      </trkpt>
      <trkpt lat="42.9005710" lon="-2.5428900">
        <ele>527.6</ele>
        <time>2020-09-13T12:06:14Z</time>
      </trkpt>
      <trkpt lat="42.9005710" lon="-2.5428900">
        <ele>527.6</ele>
        <time>2020-09-13T12:06:18Z</time>
      </trkpt>
      <trkpt lat="42.9005710" lon="-2.5428900">
        <ele>527.2</ele>
        <time>2020-09-13T12:06:22Z</time>
      </trkpt>
      <trkpt lat="42.9005710" lon="-2.5428900">
        <ele>527.6</ele>
        <time>2020-09-13T12:06:26Z</time>
      </trkpt>
      <trkpt lat="42.9005710" lon="-2.5428900">
        <ele>527.6</ele>
        <time>2020-09-13T12:06:30Z</time>
      </trkpt>
      <trkpt lat="42.9005710" lon="-2.5428900">
        <ele>527.6</ele>
        <time>2020-09-13T12:06:34Z</time>
      </trkpt>
      <trkpt lat="42.9005710" lon="-2.5428900">
        <ele>527.6</ele>
        <time>2020-09-13T12:06:38Z</time>
      </trkpt>
      <trkpt lat="42.9005710" lon="-2.5428900">
        <ele>527.4</ele>
        <time>2020-09-13T12:06:42Z</time>
      </trkpt>
      <trkpt lat="42.9005710" lon="-2.5428900">
        <ele>527.6</ele>
        <time>2020-09-13T12:06:46Z</time>
      </trkpt>
      <trkpt lat="42.9005710" lon="-2.5428900">
        <ele>527.2</ele>
        <time>2020-09-13T12:06:50Z</time>
      </trkpt>
      <trkpt lat="42.9005710" lon="-2.5428900">
        <ele>527.2</ele>
        <time>2020-09-13T12:06:54Z</time>
      </trkpt>
      <trkpt lat="42.9005710" lon="-2.5428900">
        <ele>527.6</ele>
        <time>2020-09-13T12:06:58Z</time>
      </trkpt>
      <trkpt lat="42.9005710" lon="-2.5428900">
        <ele>527.8</ele>
        <time>2020-09-13T12:07:02Z</time>
      </trkpt>
      <trkpt lat="42.9005710" lon="-2.5428900">
        <ele>527.4</ele>
        <time>2020-09-13T12:07:06Z</time>
      </trkpt>
      <trkpt lat="42.9005710" lon="-2.5428900">
        <ele>527.6</ele>
        <time>2020-09-13T12:07:10Z</time>
      </trkpt>
      <trkpt lat="42.9005710" lon="-2.5428900">
        <ele>527.8</ele>
        <time>2020-09-13T12:07:14Z</time>
      </trkpt>
      <trkpt lat="42.9005710" lon="-2.5428900">
        <ele>527.8</ele>
        <time>2020-09-13T12:07:18Z</time>
      </trkpt>
      <trkpt lat="42.9005710" lon="-2.5428900">
        <ele>528.2</ele>
        <time>2020-09-13T12:07:22Z</time>
      </trkpt>
      <trkpt lat="42.9005710" lon="-2.5428900">
        <ele>528.0</ele>
        <time>2020-09-13T12:07:26Z</time>
      </trkpt>
      <trkpt lat="42.9005710" lon="-2.5428900">
        <ele>528.0</ele>
        <time>2020-09-13T12:07:30Z</time>
      </trkpt>
      <trkpt lat="42.9005710" lon="-2.5428900">
        <ele>527.8</ele>
        <time>2020-09-13T12:07:34Z</time>
      </trkpt>
      <trkpt lat="42.9005710" lon="-2.5428900">
        <ele>527.8</ele>
        <time>2020-09-13T12:07:38Z</time>
      </trkpt>
      <trkpt lat="42.9005710" lon="-2.5428900">
        <ele>527.8</ele>
        <time>2020-09-13T12:07:42Z</time>
      </trkpt>
      <trkpt lat="42.9005710" lon="-2.5428900">
        <ele>527.8</ele>
        <time>2020-09-13T12:07:46Z</time>
      </trkpt>
      <trkpt lat="42.9005710" lon="-2.5428900">
        <ele>527.6</ele>
        <time>2020-09-13T12:07:50Z</time>
      </trkpt>
      <trkpt lat="42.9005710" lon="-2.5428900">
        <ele>528.0</ele>
        <time>2020-09-13T12:07:54Z</time>
      </trkpt>
      <trkpt lat="42.9005710" lon="-2.5428900">
        <ele>528.0</ele>
        <time>2020-09-13T12:07:58Z</time>
      </trkpt>
      <trkpt lat="42.9005710" lon="-2.5428900">
        <ele>528.2</ele>
        <time>2020-09-13T12:08:02Z</time>
      </trkpt>
      <trkpt lat="42.9005710" lon="-2.5428900">
        <ele>528.4</ele>
        <time>2020-09-13T12:08:06Z</time>
      </trkpt>
      <trkpt lat="42.9005710" lon="-2.5428900">
        <ele>528.4</ele>
        <time>2020-09-13T12:08:10Z</time>
      </trkpt>
      <trkpt lat="42.9005710" lon="-2.5428900">
        <ele>528.8</ele>
        <time>2020-09-13T12:08:14Z</time>
      </trkpt>
      <trkpt lat="42.9005710" lon="-2.5428900">
        <ele>527.8</ele>
        <time>2020-09-13T12:08:18Z</time>
      </trkpt>
      <trkpt lat="42.9005710" lon="-2.5428900">
        <ele>527.8</ele>
        <time>2020-09-13T12:08:22Z</time>
      </trkpt>
      <trkpt lat="42.9005710" lon="-2.5428900">
        <ele>527.4</ele>
        <time>2020-09-13T12:08:26Z</time>
      </trkpt>
      <trkpt lat="42.9005710" lon="-2.5428900">
        <ele>528.2</ele>
        <time>2020-09-13T12:08:30Z</time>
      </trkpt>
      <trkpt lat="42.9005710" lon="-2.5428900">
        <ele>528.0</ele>
        <time>2020-09-13T12:08:34Z</time>
      </trkpt>
      <trkpt lat="42.9005710" lon="-2.5428900">
        <ele>528.0</ele>
        <time>2020-09-13T12:08:38Z</time>
      </trkpt>
      <trkpt lat="42.9005710" lon="-2.5428900">
        <ele>528.2</ele>
        <time>2020-09-13T12:08:42Z</time>
      </trkpt>
      <trkpt lat="42.9005710" lon="-2.5428900">
        <ele>528.0</ele>
        <time>2020-09-13T12:08:46Z</time>
      </trkpt>
      <trkpt lat="42.9005710" lon="-2.5428900">
        <ele>528.2</ele>
        <time>2020-09-13T12:08:50Z</time>
      </trkpt>
      <trkpt lat="42.9005710" lon="-2.5428900">
        <ele>528.0</ele>
        <time>2020-09-13T12:08:54Z</time>
      </trkpt>
      <trkpt lat="42.9005710" lon="-2.5428900">
        <ele>527.8</ele>
        <time>2020-09-13T12:08:58Z</time>
      </trkpt>
      <trkpt lat="42.9005710" lon="-2.5428900">
        <ele>528.0</ele>
        <time>2020-09-13T12:09:02Z</time>
      </trkpt>
      <trkpt lat="42.9005710" lon="-2.5428900">
        <ele>527.8</ele>
        <time>2020-09-13T12:09:06Z</time>
      </trkpt>
      <trkpt lat="42.9005710" lon="-2.5428900">
        <ele>527.8</ele>
        <time>2020-09-13T12:09:10Z</time>
      </trkpt>
      <trkpt lat="42.9005710" lon="-2.5428900">
        <ele>527.8</ele>
        <time>2020-09-13T12:09:14Z</time>
      </trkpt>
      <trkpt lat="42.9005710" lon="-2.5428900">
        <ele>527.6</ele>
        <time>2020-09-13T12:09:18Z</time>
      </trkpt>
      <trkpt lat="42.9005710" lon="-2.5428900">
        <ele>527.8</ele>
        <time>2020-09-13T12:09:22Z</time>
      </trkpt>
      <trkpt lat="42.9005710" lon="-2.5428900">
        <ele>528.0</ele>
        <time>2020-09-13T12:09:26Z</time>
      </trkpt>
      <trkpt lat="42.9005710" lon="-2.5428900">
        <ele>527.8</ele>
        <time>2020-09-13T12:09:30Z</time>
      </trkpt>
      <trkpt lat="42.9005710" lon="-2.5428900">
        <ele>527.8</ele>
        <time>2020-09-13T12:09:34Z</time>
      </trkpt>
      <trkpt lat="42.9005710" lon="-2.5428900">
        <ele>527.6</ele>
        <time>2020-09-13T12:09:38Z</time>
      </trkpt>
      <trkpt lat="42.9005710" lon="-2.5428900">
        <ele>527.4</ele>
        <time>2020-09-13T12:09:42Z</time>
      </trkpt>
      <trkpt lat="42.9005710" lon="-2.5428900">
        <ele>527.6</ele>
        <time>2020-09-13T12:09:46Z</time>
      </trkpt>
      <trkpt lat="42.9005710" lon="-2.5428900">
        <ele>527.6</ele>
        <time>2020-09-13T12:09:50Z</time>
      </trkpt>
      <trkpt lat="42.9005710" lon="-2.5428900">
        <ele>527.4</ele>
        <time>2020-09-13T12:09:54Z</time>
      </trkpt>
      <trkpt lat="42.9005710" lon="-2.5428900">
        <ele>527.6</ele>
        <time>2020-09-13T12:09:58Z</time>
      </trkpt>
      <trkpt lat="42.9005710" lon="-2.5428900">
        <ele>527.6</ele>
        <time>2020-09-13T12:10:02Z</time>
      </trkpt>
      <trkpt lat="42.9005710" lon="-2.5428900">
        <ele>527.4</ele>
        <time>2020-09-13T12:10:06Z</time>
      </trkpt>
      <trkpt lat="42.9005710" lon="-2.5428900">
        <ele>527.6</ele>
        <time>2020-09-13T12:10:10Z</time>
      </trkpt>
      <trkpt lat="42.9005710" lon="-2.5428900">
        <ele>527.4</ele>
        <time>2020-09-13T12:10:14Z</time>
      </trkpt>
      <trkpt lat="42.9005710" lon="-2.5428900">
        <ele>527.4</ele>
        <time>2020-09-13T12:10:18Z</time>
      </trkpt>
      <trkpt lat="42.9005710" lon="-2.5428900">
        <ele>527.6</ele>
        <time>2020-09-13T12:10:22Z</time>
      </trkpt>
      <trkpt lat="42.9005710" lon="-2.5428900">
        <ele>527.2</ele>
        <time>2020-09-13T12:10:26Z</time>
      </trkpt>
      <trkpt lat="42.9005710" lon="-2.5428900">
        <ele>527.2</ele>
        <time>2020-09-13T12:10:30Z</time>
      </trkpt>
      <trkpt lat="42.9005710" lon="-2.5428900">
        <ele>527.4</ele>
        <time>2020-09-13T12:10:34Z</time>
      </trkpt>
      <trkpt lat="42.9005710" lon="-2.5428900">
        <ele>527.6</ele>
        <time>2020-09-13T12:10:38Z</time>
      </trkpt>
      <trkpt lat="42.9005710" lon="-2.5428900">
        <ele>527.4</ele>
        <time>2020-09-13T12:10:42Z</time>
      </trkpt>
      <trkpt lat="42.9005710" lon="-2.5428900">
        <ele>527.2</ele>
        <time>2020-09-13T12:10:46Z</time>
      </trkpt>
      <trkpt lat="42.9005710" lon="-2.5428900">
        <ele>527.8</ele>
        <time>2020-09-13T12:10:50Z</time>
      </trkpt>
      <trkpt lat="42.9005710" lon="-2.5428900">
        <ele>527.6</ele>
        <time>2020-09-13T12:10:54Z</time>
      </trkpt>
      <trkpt lat="42.9005710" lon="-2.5428900">
        <ele>527.8</ele>
        <time>2020-09-13T12:10:58Z</time>
      </trkpt>
      <trkpt lat="42.9005710" lon="-2.5428900">
        <ele>527.6</ele>
        <time>2020-09-13T12:11:02Z</time>
      </trkpt>
      <trkpt lat="42.9005710" lon="-2.5428900">
        <ele>527.6</ele>
        <time>2020-09-13T12:11:06Z</time>
      </trkpt>
      <trkpt lat="42.9005710" lon="-2.5428900">
        <ele>527.6</ele>
        <time>2020-09-13T12:11:10Z</time>
      </trkpt>
      <trkpt lat="42.9005710" lon="-2.5428900">
        <ele>527.6</ele>
        <time>2020-09-13T12:11:14Z</time>
      </trkpt>
      <trkpt lat="42.9005710" lon="-2.5428900">
        <ele>527.4</ele>
        <time>2020-09-13T12:11:18Z</time>
      </trkpt>
      <trkpt lat="42.9005710" lon="-2.5428900">
        <ele>527.2</ele>
        <time>2020-09-13T12:11:22Z</time>
      </trkpt>
      <trkpt lat="42.9005710" lon="-2.5428900">
        <ele>527.6</ele>
        <time>2020-09-13T12:11:26Z</time>
      </trkpt>
      <trkpt lat="42.9005710" lon="-2.5428900">
        <ele>527.6</ele>
        <time>2020-09-13T12:11:30Z</time>
      </trkpt>
      <trkpt lat="42.9005710" lon="-2.5428900">
        <ele>527.6</ele>
        <time>2020-09-13T12:11:34Z</time>
      </trkpt>
      <trkpt lat="42.9005710" lon="-2.5428900">
        <ele>527.6</ele>
        <time>2020-09-13T12:11:38Z</time>
      </trkpt>
      <trkpt lat="42.9005710" lon="-2.5428900">
        <ele>527.8</ele>
        <time>2020-09-13T12:11:42Z</time>
      </trkpt>
      <trkpt lat="42.9005710" lon="-2.5428900">
        <ele>527.8</ele>
        <time>2020-09-13T12:11:46Z</time>
      </trkpt>
      <trkpt lat="42.9005710" lon="-2.5428900">
        <ele>527.8</ele>
        <time>2020-09-13T12:11:50Z</time>
      </trkpt>
      <trkpt lat="42.9005710" lon="-2.5428900">
        <ele>527.8</ele>
        <time>2020-09-13T12:11:54Z</time>
      </trkpt>
      <trkpt lat="42.9005710" lon="-2.5428900">
        <ele>527.6</ele>
        <time>2020-09-13T12:11:58Z</time>
      </trkpt>
      <trkpt lat="42.9005710" lon="-2.5428900">
        <ele>527.8</ele>
        <time>2020-09-13T12:12:02Z</time>
      </trkpt>
      <trkpt lat="42.9005710" lon="-2.5428900">
        <ele>527.6</ele>
        <time>2020-09-13T12:12:06Z</time>
      </trkpt>
      <trkpt lat="42.9005710" lon="-2.5428900">
        <ele>527.8</ele>
        <time>2020-09-13T12:12:10Z</time>
      </trkpt>
      <trkpt lat="42.9005710" lon="-2.5428900">
        <ele>527.8</ele>
        <time>2020-09-13T12:12:14Z</time>
      </trkpt>
      <trkpt lat="42.9005710" lon="-2.5428900">
        <ele>527.8</ele>
        <time>2020-09-13T12:12:18Z</time>
      </trkpt>
      <trkpt lat="42.9005710" lon="-2.5428900">
        <ele>527.8</ele>
        <time>2020-09-13T12:12:22Z</time>
      </trkpt>
      <trkpt lat="42.9005710" lon="-2.5428900">
        <ele>527.8</ele>
        <time>2020-09-13T12:12:26Z</time>
      </trkpt>
      <trkpt lat="42.9005710" lon="-2.5428900">
        <ele>527.8</ele>
        <time>2020-09-13T12:12:30Z</time>
      </trkpt>
      <trkpt lat="42.9005710" lon="-2.5428900">
        <ele>528.0</ele>
        <time>2020-09-13T12:12:34Z</time>
      </trkpt>
      <trkpt lat="42.9005710" lon="-2.5428900">
        <ele>528.0</ele>
        <time>2020-09-13T12:12:38Z</time>
      </trkpt>
      <trkpt lat="42.9005710" lon="-2.5428900">
        <ele>527.8</ele>
        <time>2020-09-13T12:12:42Z</time>
      </trkpt>
      <trkpt lat="42.9005710" lon="-2.5428900">
        <ele>527.6</ele>
        <time>2020-09-13T12:12:46Z</time>
      </trkpt>
      <trkpt lat="42.9005710" lon="-2.5428900">
        <ele>527.8</ele>
        <time>2020-09-13T12:12:50Z</time>
      </trkpt>
      <trkpt lat="42.9005710" lon="-2.5428900">
        <ele>527.8</ele>
        <time>2020-09-13T12:12:54Z</time>
      </trkpt>
      <trkpt lat="42.9005710" lon="-2.5428900">
        <ele>527.6</ele>
        <time>2020-09-13T12:12:58Z</time>
      </trkpt>
      <trkpt lat="42.9005710" lon="-2.5428900">
        <ele>527.8</ele>
        <time>2020-09-13T12:13:02Z</time>
      </trkpt>
      <trkpt lat="42.9005710" lon="-2.5428900">
        <ele>528.0</ele>
        <time>2020-09-13T12:13:06Z</time>
      </trkpt>
      <trkpt lat="42.9005710" lon="-2.5428900">
        <ele>528.0</ele>
        <time>2020-09-13T12:13:10Z</time>
      </trkpt>
      <trkpt lat="42.9005710" lon="-2.5428900">
        <ele>527.6</ele>
        <time>2020-09-13T12:13:14Z</time>
      </trkpt>
      <trkpt lat="42.9005710" lon="-2.5428900">
        <ele>528.0</ele>
        <time>2020-09-13T12:13:18Z</time>
      </trkpt>
      <trkpt lat="42.9005710" lon="-2.5428900">
        <ele>527.6</ele>
        <time>2020-09-13T12:13:22Z</time>
      </trkpt>
      <trkpt lat="42.9005710" lon="-2.5428900">
        <ele>528.0</ele>
        <time>2020-09-13T12:13:26Z</time>
      </trkpt>
      <trkpt lat="42.9005710" lon="-2.5428900">
        <ele>527.8</ele>
        <time>2020-09-13T12:13:30Z</time>
      </trkpt>
      <trkpt lat="42.9005710" lon="-2.5428900">
        <ele>527.6</ele>
        <time>2020-09-13T12:13:34Z</time>
      </trkpt>
      <trkpt lat="42.9005710" lon="-2.5428900">
        <ele>527.4</ele>
        <time>2020-09-13T12:13:38Z</time>
      </trkpt>
      <trkpt lat="42.9005710" lon="-2.5428900">
        <ele>527.6</ele>
        <time>2020-09-13T12:13:42Z</time>
      </trkpt>
      <trkpt lat="42.9005710" lon="-2.5428900">
        <ele>527.6</ele>
        <time>2020-09-13T12:13:46Z</time>
      </trkpt>
      <trkpt lat="42.9005710" lon="-2.5428900">
        <ele>527.6</ele>
        <time>2020-09-13T12:13:50Z</time>
      </trkpt>
      <trkpt lat="42.9005710" lon="-2.5428900">
        <ele>527.8</ele>
        <time>2020-09-13T12:13:54Z</time>
      </trkpt>
      <trkpt lat="42.9005710" lon="-2.5428900">
        <ele>527.6</ele>
        <time>2020-09-13T12:13:58Z</time>
      </trkpt>
      <trkpt lat="42.9005710" lon="-2.5428900">
        <ele>527.8</ele>
        <time>2020-09-13T12:14:02Z</time>
      </trkpt>
      <trkpt lat="42.9005710" lon="-2.5428900">
        <ele>527.4</ele>
        <time>2020-09-13T12:14:06Z</time>
      </trkpt>
      <trkpt lat="42.9005710" lon="-2.5428900">
        <ele>527.6</ele>
        <time>2020-09-13T12:14:10Z</time>
      </trkpt>
      <trkpt lat="42.9005710" lon="-2.5428900">
        <ele>527.4</ele>
        <time>2020-09-13T12:14:14Z</time>
      </trkpt>
      <trkpt lat="42.9005710" lon="-2.5428900">
        <ele>527.6</ele>
        <time>2020-09-13T12:14:18Z</time>
      </trkpt>
      <trkpt lat="42.9005710" lon="-2.5428900">
        <ele>527.6</ele>
        <time>2020-09-13T12:14:22Z</time>
      </trkpt>
      <trkpt lat="42.9005710" lon="-2.5428900">
        <ele>527.6</ele>
        <time>2020-09-13T12:14:26Z</time>
      </trkpt>
      <trkpt lat="42.9005710" lon="-2.5428900">
        <ele>527.8</ele>
        <time>2020-09-13T12:14:30Z</time>
      </trkpt>
      <trkpt lat="42.9005710" lon="-2.5428900">
        <ele>527.6</ele>
        <time>2020-09-13T12:14:34Z</time>
      </trkpt>
      <trkpt lat="42.9005710" lon="-2.5428900">
        <ele>527.8</ele>
        <time>2020-09-13T12:14:38Z</time>
      </trkpt>
      <trkpt lat="42.9005710" lon="-2.5428900">
        <ele>527.8</ele>
        <time>2020-09-13T12:14:42Z</time>
      </trkpt>
      <trkpt lat="42.9005710" lon="-2.5428900">
        <ele>527.6</ele>
        <time>2020-09-13T12:14:46Z</time>
      </trkpt>
      <trkpt lat="42.9005710" lon="-2.5428900">
        <ele>527.8</ele>
        <time>2020-09-13T12:14:50Z</time>
      </trkpt>
      <trkpt lat="42.9005710" lon="-2.5428900">
        <ele>527.8</ele>
        <time>2020-09-13T12:14:54Z</time>
      </trkpt>
      <trkpt lat="42.9005710" lon="-2.5428900">
        <ele>527.6</ele>
        <time>2020-09-13T12:14:58Z</time>
      </trkpt>
      <trkpt lat="42.9005710" lon="-2.5428900">
        <ele>528.0</ele>
        <time>2020-09-13T12:15:02Z</time>
      </trkpt>
      <trkpt lat="42.9005710" lon="-2.5428900">
        <ele>527.6</ele>
        <time>2020-09-13T12:15:06Z</time>
      </trkpt>
      <trkpt lat="42.9005710" lon="-2.5428900">
        <ele>527.8</ele>
        <time>2020-09-13T12:15:10Z</time>
      </trkpt>
      <trkpt lat="42.9005710" lon="-2.5428900">
        <ele>527.8</ele>
        <time>2020-09-13T12:15:14Z</time>
      </trkpt>
      <trkpt lat="42.9005710" lon="-2.5428900">
        <ele>527.8</ele>
        <time>2020-09-13T12:15:18Z</time>
      </trkpt>
      <trkpt lat="42.9005710" lon="-2.5428900">
        <ele>527.4</ele>
        <time>2020-09-13T12:15:22Z</time>
      </trkpt>
      <trkpt lat="42.9005710" lon="-2.5428900">
        <ele>527.6</ele>
        <time>2020-09-13T12:15:26Z</time>
      </trkpt>
      <trkpt lat="42.9005710" lon="-2.5428900">
        <ele>528.0</ele>
        <time>2020-09-13T12:15:30Z</time>
      </trkpt>
      <trkpt lat="42.9005710" lon="-2.5428900">
        <ele>527.6</ele>
        <time>2020-09-13T12:15:34Z</time>
      </trkpt>
      <trkpt lat="42.9005710" lon="-2.5428900">
        <ele>527.8</ele>
        <time>2020-09-13T12:15:38Z</time>
      </trkpt>
      <trkpt lat="42.9005710" lon="-2.5428900">
        <ele>527.8</ele>
        <time>2020-09-13T12:15:42Z</time>
      </trkpt>
      <trkpt lat="42.9005710" lon="-2.5428900">
        <ele>528.0</ele>
        <time>2020-09-13T12:15:46Z</time>
      </trkpt>
      <trkpt lat="42.9005710" lon="-2.5428900">
        <ele>527.6</ele>
        <time>2020-09-13T12:15:50Z</time>
      </trkpt>
      <trkpt lat="42.9005710" lon="-2.5428900">
        <ele>527.8</ele>
        <time>2020-09-13T12:15:54Z</time>
      </trkpt>
      <trkpt lat="42.9005710" lon="-2.5428900">
        <ele>527.8</ele>
        <time>2020-09-13T12:15:58Z</time>
      </trkpt>
      <trkpt lat="42.9005710" lon="-2.5428900">
        <ele>527.8</ele>
        <time>2020-09-13T12:16:02Z</time>
      </trkpt>
      <trkpt lat="42.9005710" lon="-2.5428900">
        <ele>527.6</ele>
        <time>2020-09-13T12:16:06Z</time>
      </trkpt>
      <trkpt lat="42.9005710" lon="-2.5428900">
        <ele>527.8</ele>
        <time>2020-09-13T12:16:10Z</time>
      </trkpt>
      <trkpt lat="42.9005710" lon="-2.5428900">
        <ele>528.0</ele>
        <time>2020-09-13T12:16:14Z</time>
      </trkpt>
      <trkpt lat="42.9005710" lon="-2.5428900">
        <ele>527.6</ele>
        <time>2020-09-13T12:16:18Z</time>
      </trkpt>
      <trkpt lat="42.9005710" lon="-2.5428900">
        <ele>527.6</ele>
        <time>2020-09-13T12:16:22Z</time>
      </trkpt>
      <trkpt lat="42.9005710" lon="-2.5428900">
        <ele>527.4</ele>
        <time>2020-09-13T12:16:26Z</time>
      </trkpt>
      <trkpt lat="42.9005710" lon="-2.5428900">
        <ele>528.0</ele>
        <time>2020-09-13T12:16:30Z</time>
      </trkpt>
      <trkpt lat="42.9005710" lon="-2.5428900">
        <ele>527.6</ele>
        <time>2020-09-13T12:16:34Z</time>
      </trkpt>
      <trkpt lat="42.9005710" lon="-2.5428900">
        <ele>527.6</ele>
        <time>2020-09-13T12:16:38Z</time>
      </trkpt>
      <trkpt lat="42.9005710" lon="-2.5428900">
        <ele>527.6</ele>
        <time>2020-09-13T12:16:42Z</time>
      </trkpt>
      <trkpt lat="42.9005710" lon="-2.5428900">
        <ele>527.4</ele>
        <time>2020-09-13T12:16:46Z</time>
      </trkpt>
      <trkpt lat="42.9005710" lon="-2.5428900">
        <ele>527.6</ele>
        <time>2020-09-13T12:16:50Z</time>
      </trkpt>
      <trkpt lat="42.9005710" lon="-2.5428900">
        <ele>527.4</ele>
        <time>2020-09-13T12:16:54Z</time>
      </trkpt>
      <trkpt lat="42.9005710" lon="-2.5428900">
        <ele>527.6</ele>
        <time>2020-09-13T12:16:58Z</time>
      </trkpt>
      <trkpt lat="42.9005710" lon="-2.5428900">
        <ele>527.6</ele>
        <time>2020-09-13T12:17:02Z</time>
      </trkpt>
      <trkpt lat="42.9005710" lon="-2.5428900">
        <ele>527.6</ele>
        <time>2020-09-13T12:17:06Z</time>
      </trkpt>
      <trkpt lat="42.9005710" lon="-2.5428900">
        <ele>527.6</ele>
        <time>2020-09-13T12:17:10Z</time>
      </trkpt>
      <trkpt lat="42.9005710" lon="-2.5428900">
        <ele>527.6</ele>
        <time>2020-09-13T12:17:14Z</time>
      </trkpt>
      <trkpt lat="42.9005710" lon="-2.5428900">
        <ele>527.6</ele>
        <time>2020-09-13T12:17:18Z</time>
      </trkpt>
      <trkpt lat="42.9005710" lon="-2.5428900">
        <ele>527.6</ele>
        <time>2020-09-13T12:17:22Z</time>
      </trkpt>
      <trkpt lat="42.9005710" lon="-2.5428900">
        <ele>527.6</ele>
        <time>2020-09-13T12:17:26Z</time>
      </trkpt>
      <trkpt lat="42.9005710" lon="-2.5428900">
        <ele>527.6</ele>
        <time>2020-09-13T12:17:30Z</time>
      </trkpt>
      <trkpt lat="42.9005710" lon="-2.5428900">
        <ele>527.8</ele>
        <time>2020-09-13T12:17:34Z</time>
      </trkpt>
      <trkpt lat="42.9005710" lon="-2.5428900">
        <ele>527.8</ele>
        <time>2020-09-13T12:17:38Z</time>
      </trkpt>
      <trkpt lat="42.9005710" lon="-2.5428900">
        <ele>527.8</ele>
        <time>2020-09-13T12:17:42Z</time>
      </trkpt>
      <trkpt lat="42.9005710" lon="-2.5428900">
        <ele>528.0</ele>
        <time>2020-09-13T12:17:46Z</time>
      </trkpt>
      <trkpt lat="42.9005710" lon="-2.5428900">
        <ele>527.8</ele>
        <time>2020-09-13T12:17:50Z</time>
      </trkpt>
      <trkpt lat="42.9005710" lon="-2.5428900">
        <ele>528.0</ele>
        <time>2020-09-13T12:17:54Z</time>
      </trkpt>
      <trkpt lat="42.9005710" lon="-2.5428900">
        <ele>527.6</ele>
        <time>2020-09-13T12:17:58Z</time>
      </trkpt>
      <trkpt lat="42.9005710" lon="-2.5428900">
        <ele>527.8</ele>
        <time>2020-09-13T12:18:02Z</time>
      </trkpt>
      <trkpt lat="42.9005710" lon="-2.5428900">
        <ele>528.0</ele>
        <time>2020-09-13T12:18:06Z</time>
      </trkpt>
      <trkpt lat="42.9005710" lon="-2.5428900">
        <ele>528.2</ele>
        <time>2020-09-13T12:18:10Z</time>
      </trkpt>
      <trkpt lat="42.9005710" lon="-2.5428900">
        <ele>528.2</ele>
        <time>2020-09-13T12:18:14Z</time>
      </trkpt>
      <trkpt lat="42.9005710" lon="-2.5428900">
        <ele>528.2</ele>
        <time>2020-09-13T12:18:18Z</time>
      </trkpt>
      <trkpt lat="42.9005710" lon="-2.5428900">
        <ele>528.0</ele>
        <time>2020-09-13T12:18:22Z</time>
      </trkpt>
      <trkpt lat="42.9005710" lon="-2.5428900">
        <ele>528.0</ele>
        <time>2020-09-13T12:18:26Z</time>
      </trkpt>
      <trkpt lat="42.9005710" lon="-2.5428900">
        <ele>527.8</ele>
        <time>2020-09-13T12:18:30Z</time>
      </trkpt>
      <trkpt lat="42.9005710" lon="-2.5428900">
        <ele>527.6</ele>
        <time>2020-09-13T12:18:34Z</time>
      </trkpt>
      <trkpt lat="42.9005710" lon="-2.5428900">
        <ele>527.8</ele>
        <time>2020-09-13T12:18:38Z</time>
      </trkpt>
      <trkpt lat="42.9005710" lon="-2.5428900">
        <ele>527.6</ele>
        <time>2020-09-13T12:18:42Z</time>
      </trkpt>
      <trkpt lat="42.9005710" lon="-2.5428900">
        <ele>527.6</ele>
        <time>2020-09-13T12:18:46Z</time>
      </trkpt>
      <trkpt lat="42.9005710" lon="-2.5428900">
        <ele>527.6</ele>
        <time>2020-09-13T12:18:50Z</time>
      </trkpt>
      <trkpt lat="42.9005710" lon="-2.5428900">
        <ele>527.8</ele>
        <time>2020-09-13T12:18:54Z</time>
      </trkpt>
      <trkpt lat="42.9005710" lon="-2.5428900">
        <ele>527.6</ele>
        <time>2020-09-13T12:18:58Z</time>
      </trkpt>
      <trkpt lat="42.9005710" lon="-2.5428900">
        <ele>527.4</ele>
        <time>2020-09-13T12:19:02Z</time>
      </trkpt>
      <trkpt lat="42.9005710" lon="-2.5428900">
        <ele>527.8</ele>
        <time>2020-09-13T12:19:06Z</time>
      </trkpt>
      <trkpt lat="42.9005710" lon="-2.5428900">
        <ele>527.6</ele>
        <time>2020-09-13T12:19:10Z</time>
      </trkpt>
      <trkpt lat="42.9005710" lon="-2.5428900">
        <ele>527.6</ele>
        <time>2020-09-13T12:19:14Z</time>
      </trkpt>
      <trkpt lat="42.9005710" lon="-2.5428900">
        <ele>527.4</ele>
        <time>2020-09-13T12:19:18Z</time>
      </trkpt>
      <trkpt lat="42.9005710" lon="-2.5428900">
        <ele>527.6</ele>
        <time>2020-09-13T12:19:22Z</time>
      </trkpt>
      <trkpt lat="42.9005710" lon="-2.5428900">
        <ele>527.6</ele>
        <time>2020-09-13T12:19:26Z</time>
      </trkpt>
      <trkpt lat="42.9005710" lon="-2.5428900">
        <ele>527.8</ele>
        <time>2020-09-13T12:19:30Z</time>
      </trkpt>
      <trkpt lat="42.9005710" lon="-2.5428900">
        <ele>528.2</ele>
        <time>2020-09-13T12:19:34Z</time>
      </trkpt>
      <trkpt lat="42.9005710" lon="-2.5428900">
        <ele>528.2</ele>
        <time>2020-09-13T12:19:38Z</time>
      </trkpt>
      <trkpt lat="42.9005710" lon="-2.5428900">
        <ele>528.0</ele>
        <time>2020-09-13T12:19:42Z</time>
      </trkpt>
      <trkpt lat="42.9005710" lon="-2.5428900">
        <ele>528.4</ele>
        <time>2020-09-13T12:19:46Z</time>
      </trkpt>
      <trkpt lat="42.9005710" lon="-2.5428900">
        <ele>528.2</ele>
        <time>2020-09-13T12:19:50Z</time>
      </trkpt>
      <trkpt lat="42.9005710" lon="-2.5428900">
        <ele>528.0</ele>
        <time>2020-09-13T12:19:54Z</time>
      </trkpt>
      <trkpt lat="42.9005710" lon="-2.5428900">
        <ele>528.2</ele>
        <time>2020-09-13T12:19:58Z</time>
      </trkpt>
      <trkpt lat="42.9005710" lon="-2.5428900">
        <ele>528.2</ele>
        <time>2020-09-13T12:20:02Z</time>
      </trkpt>
      <trkpt lat="42.9005710" lon="-2.5428900">
        <ele>528.0</ele>
        <time>2020-09-13T12:20:06Z</time>
      </trkpt>
      <trkpt lat="42.9005710" lon="-2.5428900">
        <ele>528.4</ele>
        <time>2020-09-13T12:20:10Z</time>
      </trkpt>
      <trkpt lat="42.9005710" lon="-2.5428900">
        <ele>528.2</ele>
        <time>2020-09-13T12:20:14Z</time>
      </trkpt>
      <trkpt lat="42.9005710" lon="-2.5428900">
        <ele>528.6</ele>
        <time>2020-09-13T12:20:18Z</time>
      </trkpt>
      <trkpt lat="42.9005710" lon="-2.5428900">
        <ele>528.4</ele>
        <time>2020-09-13T12:20:22Z</time>
      </trkpt>
      <trkpt lat="42.9005710" lon="-2.5428900">
        <ele>528.4</ele>
        <time>2020-09-13T12:20:26Z</time>
      </trkpt>
      <trkpt lat="42.9005710" lon="-2.5428900">
        <ele>528.6</ele>
        <time>2020-09-13T12:20:30Z</time>
      </trkpt>
      <trkpt lat="42.9005710" lon="-2.5428900">
        <ele>528.2</ele>
        <time>2020-09-13T12:20:34Z</time>
      </trkpt>
      <trkpt lat="42.9005710" lon="-2.5428900">
        <ele>528.6</ele>
        <time>2020-09-13T12:20:38Z</time>
      </trkpt>
      <trkpt lat="42.9005710" lon="-2.5428900">
        <ele>528.6</ele>
        <time>2020-09-13T12:20:42Z</time>
      </trkpt>
      <trkpt lat="42.9005710" lon="-2.5428900">
        <ele>528.4</ele>
        <time>2020-09-13T12:20:46Z</time>
      </trkpt>
      <trkpt lat="42.9005710" lon="-2.5428900">
        <ele>528.4</ele>
        <time>2020-09-13T12:20:50Z</time>
      </trkpt>
      <trkpt lat="42.9005710" lon="-2.5428900">
        <ele>528.4</ele>
        <time>2020-09-13T12:20:54Z</time>
      </trkpt>
      <trkpt lat="42.9005710" lon="-2.5428900">
        <ele>528.4</ele>
        <time>2020-09-13T12:20:58Z</time>
      </trkpt>
      <trkpt lat="42.9005710" lon="-2.5428900">
        <ele>528.2</ele>
        <time>2020-09-13T12:21:02Z</time>
      </trkpt>
      <trkpt lat="42.9005710" lon="-2.5428900">
        <ele>528.4</ele>
        <time>2020-09-13T12:21:06Z</time>
      </trkpt>
      <trkpt lat="42.9005710" lon="-2.5428900">
        <ele>528.2</ele>
        <time>2020-09-13T12:21:10Z</time>
      </trkpt>
      <trkpt lat="42.9005710" lon="-2.5428900">
        <ele>528.2</ele>
        <time>2020-09-13T12:21:14Z</time>
      </trkpt>
      <trkpt lat="42.9005710" lon="-2.5428900">
        <ele>528.0</ele>
        <time>2020-09-13T12:21:18Z</time>
      </trkpt>
      <trkpt lat="42.9005710" lon="-2.5428900">
        <ele>527.8</ele>
        <time>2020-09-13T12:21:22Z</time>
      </trkpt>
      <trkpt lat="42.9005710" lon="-2.5428900">
        <ele>528.0</ele>
        <time>2020-09-13T12:21:26Z</time>
      </trkpt>
      <trkpt lat="42.9005710" lon="-2.5428900">
        <ele>527.6</ele>
        <time>2020-09-13T12:21:30Z</time>
      </trkpt>
      <trkpt lat="42.9005710" lon="-2.5428900">
        <ele>527.8</ele>
        <time>2020-09-13T12:21:34Z</time>
      </trkpt>
      <trkpt lat="42.9005710" lon="-2.5428900">
        <ele>527.8</ele>
        <time>2020-09-13T12:21:38Z</time>
      </trkpt>
      <trkpt lat="42.9005710" lon="-2.5428900">
        <ele>528.0</ele>
        <time>2020-09-13T12:21:42Z</time>
      </trkpt>
      <trkpt lat="42.9005710" lon="-2.5428900">
        <ele>528.0</ele>
        <time>2020-09-13T12:21:46Z</time>
      </trkpt>
      <trkpt lat="42.9005710" lon="-2.5428900">
        <ele>528.0</ele>
        <time>2020-09-13T12:21:50Z</time>
      </trkpt>
      <trkpt lat="42.9005710" lon="-2.5428900">
        <ele>528.0</ele>
        <time>2020-09-13T12:21:54Z</time>
      </trkpt>
      <trkpt lat="42.9005710" lon="-2.5428900">
        <ele>527.8</ele>
        <time>2020-09-13T12:21:58Z</time>
      </trkpt>
      <trkpt lat="42.9005710" lon="-2.5428900">
        <ele>528.2</ele>
        <time>2020-09-13T12:22:02Z</time>
      </trkpt>
      <trkpt lat="42.9005710" lon="-2.5428900">
        <ele>528.0</ele>
        <time>2020-09-13T12:22:06Z</time>
      </trkpt>
      <trkpt lat="42.9005710" lon="-2.5428900">
        <ele>528.0</ele>
        <time>2020-09-13T12:22:10Z</time>
      </trkpt>
      <trkpt lat="42.9005710" lon="-2.5428900">
        <ele>527.8</ele>
        <time>2020-09-13T12:22:14Z</time>
      </trkpt>
      <trkpt lat="42.9005710" lon="-2.5428900">
        <ele>527.8</ele>
        <time>2020-09-13T12:22:18Z</time>
      </trkpt>
      <trkpt lat="42.9005710" lon="-2.5428900">
        <ele>528.0</ele>
        <time>2020-09-13T12:22:22Z</time>
      </trkpt>
      <trkpt lat="42.9005710" lon="-2.5428900">
        <ele>528.2</ele>
        <time>2020-09-13T12:22:26Z</time>
      </trkpt>
      <trkpt lat="42.9005710" lon="-2.5428900">
        <ele>528.0</ele>
        <time>2020-09-13T12:22:30Z</time>
      </trkpt>
      <trkpt lat="42.9005710" lon="-2.5428900">
        <ele>528.0</ele>
        <time>2020-09-13T12:22:34Z</time>
      </trkpt>
      <trkpt lat="42.9005710" lon="-2.5428900">
        <ele>528.2</ele>
        <time>2020-09-13T12:22:38Z</time>
      </trkpt>
      <trkpt lat="42.9005710" lon="-2.5428900">
        <ele>528.2</ele>
        <time>2020-09-13T12:22:42Z</time>
      </trkpt>
      <trkpt lat="42.9005710" lon="-2.5428900">
        <ele>527.8</ele>
        <time>2020-09-13T12:22:46Z</time>
      </trkpt>
      <trkpt lat="42.9005710" lon="-2.5428900">
        <ele>528.2</ele>
        <time>2020-09-13T12:22:50Z</time>
      </trkpt>
      <trkpt lat="42.9005710" lon="-2.5428900">
        <ele>528.4</ele>
        <time>2020-09-13T12:22:54Z</time>
      </trkpt>
      <trkpt lat="42.9005710" lon="-2.5428900">
        <ele>528.2</ele>
        <time>2020-09-13T12:22:58Z</time>
      </trkpt>
      <trkpt lat="42.9005710" lon="-2.5428900">
        <ele>527.8</ele>
        <time>2020-09-13T12:23:02Z</time>
      </trkpt>
      <trkpt lat="42.9005710" lon="-2.5428900">
        <ele>528.2</ele>
        <time>2020-09-13T12:23:06Z</time>
      </trkpt>
      <trkpt lat="42.9005710" lon="-2.5428900">
        <ele>528.2</ele>
        <time>2020-09-13T12:23:10Z</time>
      </trkpt>
      <trkpt lat="42.9005710" lon="-2.5428900">
        <ele>528.2</ele>
        <time>2020-09-13T12:23:14Z</time>
      </trkpt>
      <trkpt lat="42.9005710" lon="-2.5428900">
        <ele>528.2</ele>
        <time>2020-09-13T12:23:18Z</time>
      </trkpt>
      <trkpt lat="42.9005710" lon="-2.5428900">
        <ele>528.2</ele>
        <time>2020-09-13T12:23:22Z</time>
      </trkpt>
      <trkpt lat="42.9005710" lon="-2.5428900">
        <ele>528.0</ele>
        <time>2020-09-13T12:23:26Z</time>
      </trkpt>
      <trkpt lat="42.9005710" lon="-2.5428900">
        <ele>528.0</ele>
        <time>2020-09-13T12:23:30Z</time>
      </trkpt>
      <trkpt lat="42.9005710" lon="-2.5428900">
        <ele>528.2</ele>
        <time>2020-09-13T12:23:34Z</time>
      </trkpt>
      <trkpt lat="42.9005710" lon="-2.5428900">
        <ele>528.0</ele>
        <time>2020-09-13T12:23:38Z</time>
      </trkpt>
      <trkpt lat="42.9005710" lon="-2.5428900">
        <ele>528.6</ele>
        <time>2020-09-13T12:23:42Z</time>
      </trkpt>
      <trkpt lat="42.9005710" lon="-2.5428900">
        <ele>528.0</ele>
        <time>2020-09-13T12:23:46Z</time>
      </trkpt>
      <trkpt lat="42.9005710" lon="-2.5428900">
        <ele>527.8</ele>
        <time>2020-09-13T12:23:50Z</time>
      </trkpt>
      <trkpt lat="42.9005710" lon="-2.5428900">
        <ele>528.0</ele>
        <time>2020-09-13T12:23:54Z</time>
      </trkpt>
      <trkpt lat="42.9005710" lon="-2.5428900">
        <ele>528.0</ele>
        <time>2020-09-13T12:23:58Z</time>
      </trkpt>
      <trkpt lat="42.9005710" lon="-2.5428900">
        <ele>528.2</ele>
        <time>2020-09-13T12:24:02Z</time>
      </trkpt>
      <trkpt lat="42.9005710" lon="-2.5428900">
        <ele>528.2</ele>
        <time>2020-09-13T12:24:06Z</time>
      </trkpt>
      <trkpt lat="42.9005710" lon="-2.5428900">
        <ele>528.0</ele>
        <time>2020-09-13T12:24:10Z</time>
      </trkpt>
      <trkpt lat="42.9005710" lon="-2.5428900">
        <ele>527.8</ele>
        <time>2020-09-13T12:24:14Z</time>
      </trkpt>
      <trkpt lat="42.9005710" lon="-2.5428900">
        <ele>528.0</ele>
        <time>2020-09-13T12:24:18Z</time>
      </trkpt>
      <trkpt lat="42.9005710" lon="-2.5428900">
        <ele>528.2</ele>
        <time>2020-09-13T12:24:22Z</time>
      </trkpt>
      <trkpt lat="42.9005710" lon="-2.5428900">
        <ele>528.2</ele>
        <time>2020-09-13T12:24:26Z</time>
      </trkpt>
      <trkpt lat="42.9005710" lon="-2.5428900">
        <ele>528.0</ele>
        <time>2020-09-13T12:24:30Z</time>
      </trkpt>
      <trkpt lat="42.9005710" lon="-2.5428900">
        <ele>528.0</ele>
        <time>2020-09-13T12:24:34Z</time>
      </trkpt>
      <trkpt lat="42.9005710" lon="-2.5428900">
        <ele>528.4</ele>
        <time>2020-09-13T12:24:38Z</time>
      </trkpt>
      <trkpt lat="42.9005710" lon="-2.5428900">
        <ele>528.2</ele>
        <time>2020-09-13T12:24:42Z</time>
      </trkpt>
      <trkpt lat="42.9005710" lon="-2.5428900">
        <ele>528.2</ele>
        <time>2020-09-13T12:24:46Z</time>
      </trkpt>
      <trkpt lat="42.9005710" lon="-2.5428900">
        <ele>528.4</ele>
        <time>2020-09-13T12:24:50Z</time>
      </trkpt>
      <trkpt lat="42.9005710" lon="-2.5428900">
        <ele>528.2</ele>
        <time>2020-09-13T12:24:54Z</time>
      </trkpt>
      <trkpt lat="42.9005710" lon="-2.5428900">
        <ele>528.6</ele>
        <time>2020-09-13T12:24:58Z</time>
      </trkpt>
      <trkpt lat="42.9005710" lon="-2.5428900">
        <ele>528.4</ele>
        <time>2020-09-13T12:25:02Z</time>
      </trkpt>
      <trkpt lat="42.9005710" lon="-2.5428900">
        <ele>527.8</ele>
        <time>2020-09-13T12:25:06Z</time>
      </trkpt>
      <trkpt lat="42.9005710" lon="-2.5428900">
        <ele>528.0</ele>
        <time>2020-09-13T12:25:10Z</time>
      </trkpt>
      <trkpt lat="42.9005710" lon="-2.5428900">
        <ele>528.0</ele>
        <time>2020-09-13T12:25:14Z</time>
      </trkpt>
      <trkpt lat="42.9005710" lon="-2.5428900">
        <ele>528.0</ele>
        <time>2020-09-13T12:25:18Z</time>
      </trkpt>
      <trkpt lat="42.9005710" lon="-2.5428900">
        <ele>528.0</ele>
        <time>2020-09-13T12:25:22Z</time>
      </trkpt>
      <trkpt lat="42.9005710" lon="-2.5428900">
        <ele>528.0</ele>
        <time>2020-09-13T12:25:26Z</time>
      </trkpt>
      <trkpt lat="42.9005710" lon="-2.5428900">
        <ele>528.2</ele>
        <time>2020-09-13T12:25:30Z</time>
      </trkpt>
      <trkpt lat="42.9005710" lon="-2.5428900">
        <ele>528.2</ele>
        <time>2020-09-13T12:25:34Z</time>
      </trkpt>
      <trkpt lat="42.9005710" lon="-2.5428900">
        <ele>528.2</ele>
        <time>2020-09-13T12:25:38Z</time>
      </trkpt>
      <trkpt lat="42.9005710" lon="-2.5428900">
        <ele>528.0</ele>
        <time>2020-09-13T12:25:42Z</time>
      </trkpt>
      <trkpt lat="42.9005710" lon="-2.5428900">
        <ele>528.0</ele>
        <time>2020-09-13T12:25:46Z</time>
      </trkpt>
      <trkpt lat="42.9005710" lon="-2.5428900">
        <ele>527.8</ele>
        <time>2020-09-13T12:25:50Z</time>
      </trkpt>
      <trkpt lat="42.9005710" lon="-2.5428900">
        <ele>528.2</ele>
        <time>2020-09-13T12:25:54Z</time>
      </trkpt>
      <trkpt lat="42.9005710" lon="-2.5428900">
        <ele>527.8</ele>
        <time>2020-09-13T12:25:58Z</time>
      </trkpt>
      <trkpt lat="42.9005710" lon="-2.5428900">
        <ele>528.0</ele>
        <time>2020-09-13T12:26:02Z</time>
      </trkpt>
      <trkpt lat="42.9005710" lon="-2.5428900">
        <ele>527.8</ele>
        <time>2020-09-13T12:26:06Z</time>
      </trkpt>
      <trkpt lat="42.9005710" lon="-2.5428900">
        <ele>527.8</ele>
        <time>2020-09-13T12:26:10Z</time>
      </trkpt>
      <trkpt lat="42.9005710" lon="-2.5428900">
        <ele>527.6</ele>
        <time>2020-09-13T12:26:14Z</time>
      </trkpt>
      <trkpt lat="42.9005710" lon="-2.5428900">
        <ele>528.0</ele>
        <time>2020-09-13T12:26:18Z</time>
      </trkpt>
      <trkpt lat="42.9005710" lon="-2.5428900">
        <ele>527.8</ele>
        <time>2020-09-13T12:26:22Z</time>
      </trkpt>
      <trkpt lat="42.9005710" lon="-2.5428900">
        <ele>528.2</ele>
        <time>2020-09-13T12:26:26Z</time>
      </trkpt>
      <trkpt lat="42.9005710" lon="-2.5428900">
        <ele>528.6</ele>
        <time>2020-09-13T12:26:30Z</time>
      </trkpt>
      <trkpt lat="42.9005710" lon="-2.5428900">
        <ele>528.2</ele>
        <time>2020-09-13T12:26:34Z</time>
      </trkpt>
      <trkpt lat="42.9005710" lon="-2.5428900">
        <ele>528.0</ele>
        <time>2020-09-13T12:26:38Z</time>
      </trkpt>
      <trkpt lat="42.9005710" lon="-2.5428900">
        <ele>528.4</ele>
        <time>2020-09-13T12:26:42Z</time>
      </trkpt>
      <trkpt lat="42.9005710" lon="-2.5428900">
        <ele>528.4</ele>
        <time>2020-09-13T12:26:46Z</time>
      </trkpt>
      <trkpt lat="42.9005710" lon="-2.5428900">
        <ele>528.2</ele>
        <time>2020-09-13T12:26:50Z</time>
      </trkpt>
      <trkpt lat="42.9005710" lon="-2.5428900">
        <ele>527.6</ele>
        <time>2020-09-13T12:26:54Z</time>
      </trkpt>
      <trkpt lat="42.9005710" lon="-2.5428900">
        <ele>528.0</ele>
        <time>2020-09-13T12:26:58Z</time>
      </trkpt>
      <trkpt lat="42.9005710" lon="-2.5428900">
        <ele>527.8</ele>
        <time>2020-09-13T12:27:02Z</time>
      </trkpt>
      <trkpt lat="42.9005710" lon="-2.5428900">
        <ele>528.0</ele>
        <time>2020-09-13T12:27:06Z</time>
      </trkpt>
      <trkpt lat="42.9005710" lon="-2.5428900">
        <ele>527.6</ele>
        <time>2020-09-13T12:27:10Z</time>
      </trkpt>
      <trkpt lat="42.9005710" lon="-2.5428900">
        <ele>527.8</ele>
        <time>2020-09-13T12:27:14Z</time>
      </trkpt>
      <trkpt lat="42.9005710" lon="-2.5428900">
        <ele>528.2</ele>
        <time>2020-09-13T12:27:18Z</time>
      </trkpt>
      <trkpt lat="42.9005710" lon="-2.5428900">
        <ele>528.2</ele>
        <time>2020-09-13T12:27:22Z</time>
      </trkpt>
      <trkpt lat="42.9005710" lon="-2.5428900">
        <ele>528.4</ele>
        <time>2020-09-13T12:27:26Z</time>
      </trkpt>
      <trkpt lat="42.9005710" lon="-2.5428900">
        <ele>528.2</ele>
        <time>2020-09-13T12:27:30Z</time>
      </trkpt>
      <trkpt lat="42.9005710" lon="-2.5428900">
        <ele>528.2</ele>
        <time>2020-09-13T12:27:34Z</time>
      </trkpt>
      <trkpt lat="42.9005710" lon="-2.5428900">
        <ele>528.4</ele>
        <time>2020-09-13T12:27:38Z</time>
      </trkpt>
      <trkpt lat="42.9005710" lon="-2.5428900">
        <ele>528.6</ele>
        <time>2020-09-13T12:27:42Z</time>
      </trkpt>
      <trkpt lat="42.9005710" lon="-2.5428900">
        <ele>528.4</ele>
        <time>2020-09-13T12:27:46Z</time>
      </trkpt>
      <trkpt lat="42.9005710" lon="-2.5428900">
        <ele>528.6</ele>
        <time>2020-09-13T12:27:50Z</time>
      </trkpt>
      <trkpt lat="42.9005710" lon="-2.5428900">
        <ele>528.4</ele>
        <time>2020-09-13T12:27:54Z</time>
      </trkpt>
      <trkpt lat="42.9005710" lon="-2.5428900">
        <ele>528.0</ele>
        <time>2020-09-13T12:27:58Z</time>
      </trkpt>
      <trkpt lat="42.9005710" lon="-2.5428900">
        <ele>528.0</ele>
        <time>2020-09-13T12:28:02Z</time>
      </trkpt>
      <trkpt lat="42.9005710" lon="-2.5428900">
        <ele>528.0</ele>
        <time>2020-09-13T12:28:06Z</time>
      </trkpt>
      <trkpt lat="42.9005710" lon="-2.5428900">
        <ele>528.4</ele>
        <time>2020-09-13T12:28:10Z</time>
      </trkpt>
      <trkpt lat="42.9005710" lon="-2.5428900">
        <ele>528.4</ele>
        <time>2020-09-13T12:28:14Z</time>
      </trkpt>
      <trkpt lat="42.9005710" lon="-2.5428900">
        <ele>528.0</ele>
        <time>2020-09-13T12:28:18Z</time>
      </trkpt>
      <trkpt lat="42.9005710" lon="-2.5428900">
        <ele>528.2</ele>
        <time>2020-09-13T12:28:22Z</time>
      </trkpt>
      <trkpt lat="42.9005710" lon="-2.5428900">
        <ele>528.2</ele>
        <time>2020-09-13T12:28:26Z</time>
      </trkpt>
      <trkpt lat="42.9005710" lon="-2.5428900">
        <ele>528.4</ele>
        <time>2020-09-13T12:28:30Z</time>
      </trkpt>
      <trkpt lat="42.9005710" lon="-2.5428900">
        <ele>528.6</ele>
        <time>2020-09-13T12:28:34Z</time>
      </trkpt>
      <trkpt lat="42.9005710" lon="-2.5428900">
        <ele>528.4</ele>
        <time>2020-09-13T12:28:38Z</time>
      </trkpt>
      <trkpt lat="42.9005710" lon="-2.5428900">
        <ele>528.2</ele>
        <time>2020-09-13T12:28:42Z</time>
      </trkpt>
      <trkpt lat="42.9005710" lon="-2.5428900">
        <ele>528.4</ele>
        <time>2020-09-13T12:28:46Z</time>
      </trkpt>
      <trkpt lat="42.9005710" lon="-2.5428900">
        <ele>528.4</ele>
        <time>2020-09-13T12:28:50Z</time>
      </trkpt>
      <trkpt lat="42.9005710" lon="-2.5428900">
        <ele>528.4</ele>
        <time>2020-09-13T12:28:54Z</time>
      </trkpt>
      <trkpt lat="42.9005710" lon="-2.5428900">
        <ele>528.2</ele>
        <time>2020-09-13T12:28:58Z</time>
      </trkpt>
      <trkpt lat="42.9005710" lon="-2.5428900">
        <ele>528.6</ele>
        <time>2020-09-13T12:29:02Z</time>
      </trkpt>
      <trkpt lat="42.9005710" lon="-2.5428900">
        <ele>528.6</ele>
        <time>2020-09-13T12:29:06Z</time>
      </trkpt>
      <trkpt lat="42.9005710" lon="-2.5428900">
        <ele>528.6</ele>
        <time>2020-09-13T12:29:10Z</time>
      </trkpt>
      <trkpt lat="42.9005710" lon="-2.5428900">
        <ele>528.2</ele>
        <time>2020-09-13T12:29:14Z</time>
      </trkpt>
      <trkpt lat="42.9005710" lon="-2.5428900">
        <ele>528.4</ele>
        <time>2020-09-13T12:29:18Z</time>
      </trkpt>
      <trkpt lat="42.9005710" lon="-2.5428900">
        <ele>528.6</ele>
        <time>2020-09-13T12:29:22Z</time>
      </trkpt>
      <trkpt lat="42.9005710" lon="-2.5428900">
        <ele>528.2</ele>
        <time>2020-09-13T12:29:26Z</time>
      </trkpt>
      <trkpt lat="42.9005710" lon="-2.5428900">
        <ele>528.6</ele>
        <time>2020-09-13T12:29:30Z</time>
      </trkpt>
      <trkpt lat="42.9005710" lon="-2.5428900">
        <ele>528.6</ele>
        <time>2020-09-13T12:29:34Z</time>
      </trkpt>
      <trkpt lat="42.9005710" lon="-2.5428900">
        <ele>528.2</ele>
        <time>2020-09-13T12:29:38Z</time>
      </trkpt>
      <trkpt lat="42.9005710" lon="-2.5428900">
        <ele>528.8</ele>
        <time>2020-09-13T12:29:42Z</time>
      </trkpt>
      <trkpt lat="42.9005710" lon="-2.5428900">
        <ele>528.8</ele>
        <time>2020-09-13T12:29:46Z</time>
      </trkpt>
      <trkpt lat="42.9005710" lon="-2.5428900">
        <ele>528.8</ele>
        <time>2020-09-13T12:29:50Z</time>
      </trkpt>
      <trkpt lat="42.9005710" lon="-2.5428900">
        <ele>528.6</ele>
        <time>2020-09-13T12:29:54Z</time>
      </trkpt>
      <trkpt lat="42.9005710" lon="-2.5428900">
        <ele>528.6</ele>
        <time>2020-09-13T12:29:58Z</time>
      </trkpt>
      <trkpt lat="42.9005710" lon="-2.5428900">
        <ele>528.8</ele>
        <time>2020-09-13T12:30:02Z</time>
      </trkpt>
      <trkpt lat="42.9005710" lon="-2.5428900">
        <ele>528.4</ele>
        <time>2020-09-13T12:30:06Z</time>
      </trkpt>
      <trkpt lat="42.9005710" lon="-2.5428900">
        <ele>528.6</ele>
        <time>2020-09-13T12:30:10Z</time>
      </trkpt>
      <trkpt lat="42.9005710" lon="-2.5428900">
        <ele>528.6</ele>
        <time>2020-09-13T12:30:14Z</time>
      </trkpt>
      <trkpt lat="42.9005710" lon="-2.5428900">
        <ele>528.4</ele>
        <time>2020-09-13T12:30:18Z</time>
      </trkpt>
      <trkpt lat="42.9005710" lon="-2.5428900">
        <ele>528.6</ele>
        <time>2020-09-13T12:30:22Z</time>
      </trkpt>
      <trkpt lat="42.9005710" lon="-2.5428900">
        <ele>528.8</ele>
        <time>2020-09-13T12:30:26Z</time>
      </trkpt>
      <trkpt lat="42.9005710" lon="-2.5428900">
        <ele>528.8</ele>
        <time>2020-09-13T12:30:30Z</time>
      </trkpt>
      <trkpt lat="42.9005710" lon="-2.5428900">
        <ele>528.6</ele>
        <time>2020-09-13T12:30:34Z</time>
      </trkpt>
      <trkpt lat="42.9005710" lon="-2.5428900">
        <ele>528.8</ele>
        <time>2020-09-13T12:30:38Z</time>
      </trkpt>
      <trkpt lat="42.9005710" lon="-2.5428900">
        <ele>529.0</ele>
        <time>2020-09-13T12:30:42Z</time>
      </trkpt>
      <trkpt lat="42.9005710" lon="-2.5428900">
        <ele>529.0</ele>
        <time>2020-09-13T12:30:46Z</time>
      </trkpt>
      <trkpt lat="42.9005710" lon="-2.5428900">
        <ele>529.0</ele>
        <time>2020-09-13T12:30:50Z</time>
      </trkpt>
      <trkpt lat="42.9005710" lon="-2.5428900">
        <ele>528.8</ele>
        <time>2020-09-13T12:30:54Z</time>
      </trkpt>
      <trkpt lat="42.9005710" lon="-2.5428900">
        <ele>528.8</ele>
        <time>2020-09-13T12:30:58Z</time>
      </trkpt>
      <trkpt lat="42.9005710" lon="-2.5428900">
        <ele>529.0</ele>
        <time>2020-09-13T12:31:02Z</time>
      </trkpt>
      <trkpt lat="42.9005710" lon="-2.5428900">
        <ele>528.8</ele>
        <time>2020-09-13T12:31:06Z</time>
      </trkpt>
      <trkpt lat="42.9005710" lon="-2.5428900">
        <ele>529.0</ele>
        <time>2020-09-13T12:31:10Z</time>
      </trkpt>
      <trkpt lat="42.9005710" lon="-2.5428900">
        <ele>529.0</ele>
        <time>2020-09-13T12:31:14Z</time>
      </trkpt>
      <trkpt lat="42.9005710" lon="-2.5428900">
        <ele>529.0</ele>
        <time>2020-09-13T12:31:18Z</time>
      </trkpt>
      <trkpt lat="42.9005710" lon="-2.5428900">
        <ele>529.0</ele>
        <time>2020-09-13T12:31:22Z</time>
      </trkpt>
      <trkpt lat="42.9005710" lon="-2.5428900">
        <ele>529.2</ele>
        <time>2020-09-13T12:31:26Z</time>
      </trkpt>
      <trkpt lat="42.9005710" lon="-2.5428900">
        <ele>529.2</ele>
        <time>2020-09-13T12:31:30Z</time>
      </trkpt>
      <trkpt lat="42.9005710" lon="-2.5428900">
        <ele>528.8</ele>
        <time>2020-09-13T12:31:34Z</time>
      </trkpt>
      <trkpt lat="42.9005710" lon="-2.5428900">
        <ele>529.2</ele>
        <time>2020-09-13T12:31:38Z</time>
      </trkpt>
      <trkpt lat="42.9005710" lon="-2.5428900">
        <ele>529.2</ele>
        <time>2020-09-13T12:31:42Z</time>
      </trkpt>
      <trkpt lat="42.9005710" lon="-2.5428900">
        <ele>528.8</ele>
        <time>2020-09-13T12:31:46Z</time>
      </trkpt>
      <trkpt lat="42.9005710" lon="-2.5428900">
        <ele>529.2</ele>
        <time>2020-09-13T12:31:50Z</time>
      </trkpt>
      <trkpt lat="42.9005710" lon="-2.5428900">
        <ele>529.2</ele>
        <time>2020-09-13T12:31:54Z</time>
      </trkpt>
      <trkpt lat="42.9005710" lon="-2.5428900">
        <ele>529.0</ele>
        <time>2020-09-13T12:31:58Z</time>
      </trkpt>
      <trkpt lat="42.9005710" lon="-2.5428900">
        <ele>528.8</ele>
        <time>2020-09-13T12:32:02Z</time>
      </trkpt>
      <trkpt lat="42.9005710" lon="-2.5428900">
        <ele>529.0</ele>
        <time>2020-09-13T12:32:06Z</time>
      </trkpt>
      <trkpt lat="42.9005710" lon="-2.5428900">
        <ele>528.8</ele>
        <time>2020-09-13T12:32:10Z</time>
      </trkpt>
      <trkpt lat="42.9005710" lon="-2.5428900">
        <ele>529.0</ele>
        <time>2020-09-13T12:32:14Z</time>
      </trkpt>
      <trkpt lat="42.9005710" lon="-2.5428900">
        <ele>528.8</ele>
        <time>2020-09-13T12:32:18Z</time>
      </trkpt>
      <trkpt lat="42.9005710" lon="-2.5428900">
        <ele>528.8</ele>
        <time>2020-09-13T12:32:22Z</time>
      </trkpt>
      <trkpt lat="42.9005710" lon="-2.5428900">
        <ele>529.0</ele>
        <time>2020-09-13T12:32:26Z</time>
      </trkpt>
      <trkpt lat="42.9005710" lon="-2.5428900">
        <ele>529.0</ele>
        <time>2020-09-13T12:32:30Z</time>
      </trkpt>
      <trkpt lat="42.9005710" lon="-2.5428900">
        <ele>529.0</ele>
        <time>2020-09-13T12:32:34Z</time>
      </trkpt>
      <trkpt lat="42.9005710" lon="-2.5428900">
        <ele>528.8</ele>
        <time>2020-09-13T12:32:38Z</time>
      </trkpt>
      <trkpt lat="42.9005710" lon="-2.5428900">
        <ele>529.0</ele>
        <time>2020-09-13T12:32:42Z</time>
      </trkpt>
      <trkpt lat="42.9005710" lon="-2.5428900">
        <ele>528.8</ele>
        <time>2020-09-13T12:32:46Z</time>
      </trkpt>
      <trkpt lat="42.9005710" lon="-2.5428900">
        <ele>528.8</ele>
        <time>2020-09-13T12:32:50Z</time>
      </trkpt>
      <trkpt lat="42.9005710" lon="-2.5428900">
        <ele>529.0</ele>
        <time>2020-09-13T12:32:54Z</time>
      </trkpt>
      <trkpt lat="42.9005710" lon="-2.5428900">
        <ele>529.0</ele>
        <time>2020-09-13T12:32:58Z</time>
      </trkpt>
      <trkpt lat="42.9005710" lon="-2.5428900">
        <ele>529.0</ele>
        <time>2020-09-13T12:33:02Z</time>
      </trkpt>
      <trkpt lat="42.9005710" lon="-2.5428900">
        <ele>529.2</ele>
        <time>2020-09-13T12:33:06Z</time>
      </trkpt>
      <trkpt lat="42.9005710" lon="-2.5428900">
        <ele>529.4</ele>
        <time>2020-09-13T12:33:10Z</time>
      </trkpt>
      <trkpt lat="42.9005710" lon="-2.5428900">
        <ele>529.4</ele>
        <time>2020-09-13T12:33:14Z</time>
      </trkpt>
      <trkpt lat="42.9005710" lon="-2.5428900">
        <ele>529.6</ele>
        <time>2020-09-13T12:33:18Z</time>
      </trkpt>
      <trkpt lat="42.9005710" lon="-2.5428900">
        <ele>529.6</ele>
        <time>2020-09-13T12:33:22Z</time>
      </trkpt>
      <trkpt lat="42.9005710" lon="-2.5428900">
        <ele>529.0</ele>
        <time>2020-09-13T12:33:26Z</time>
      </trkpt>
      <trkpt lat="42.9005710" lon="-2.5428900">
        <ele>529.8</ele>
        <time>2020-09-13T12:33:30Z</time>
      </trkpt>
      <trkpt lat="42.9005710" lon="-2.5428900">
        <ele>529.0</ele>
        <time>2020-09-13T12:33:34Z</time>
      </trkpt>
      <trkpt lat="42.9005710" lon="-2.5428900">
        <ele>529.2</ele>
        <time>2020-09-13T12:33:38Z</time>
      </trkpt>
      <trkpt lat="42.9005710" lon="-2.5428900">
        <ele>529.6</ele>
        <time>2020-09-13T12:33:42Z</time>
      </trkpt>
      <trkpt lat="42.9005710" lon="-2.5428900">
        <ele>529.0</ele>
        <time>2020-09-13T12:33:46Z</time>
      </trkpt>
      <trkpt lat="42.9005710" lon="-2.5428900">
        <ele>529.4</ele>
        <time>2020-09-13T12:33:50Z</time>
      </trkpt>
      <trkpt lat="42.9005710" lon="-2.5428900">
        <ele>529.4</ele>
        <time>2020-09-13T12:33:54Z</time>
      </trkpt>
      <trkpt lat="42.9005710" lon="-2.5428900">
        <ele>529.4</ele>
        <time>2020-09-13T12:33:58Z</time>
      </trkpt>
      <trkpt lat="42.9005710" lon="-2.5428900">
        <ele>529.4</ele>
        <time>2020-09-13T12:34:02Z</time>
      </trkpt>
      <trkpt lat="42.9005710" lon="-2.5428900">
        <ele>529.4</ele>
        <time>2020-09-13T12:34:06Z</time>
      </trkpt>
      <trkpt lat="42.9005710" lon="-2.5428900">
        <ele>529.4</ele>
        <time>2020-09-13T12:34:10Z</time>
      </trkpt>
      <trkpt lat="42.9005710" lon="-2.5428900">
        <ele>529.4</ele>
        <time>2020-09-13T12:34:14Z</time>
      </trkpt>
      <trkpt lat="42.9005710" lon="-2.5428900">
        <ele>529.6</ele>
        <time>2020-09-13T12:34:18Z</time>
      </trkpt>
      <trkpt lat="42.9005710" lon="-2.5428900">
        <ele>529.4</ele>
        <time>2020-09-13T12:34:22Z</time>
      </trkpt>
      <trkpt lat="42.9005710" lon="-2.5428900">
        <ele>529.6</ele>
        <time>2020-09-13T12:34:26Z</time>
      </trkpt>
      <trkpt lat="42.9005710" lon="-2.5428900">
        <ele>529.2</ele>
        <time>2020-09-13T12:34:30Z</time>
      </trkpt>
      <trkpt lat="42.9005710" lon="-2.5428900">
        <ele>529.2</ele>
        <time>2020-09-13T12:34:34Z</time>
      </trkpt>
      <trkpt lat="42.9005710" lon="-2.5428900">
        <ele>529.4</ele>
        <time>2020-09-13T12:34:38Z</time>
      </trkpt>
      <trkpt lat="42.9005710" lon="-2.5428900">
        <ele>529.6</ele>
        <time>2020-09-13T12:34:42Z</time>
      </trkpt>
      <trkpt lat="42.9005710" lon="-2.5428900">
        <ele>529.4</ele>
        <time>2020-09-13T12:34:46Z</time>
      </trkpt>
      <trkpt lat="42.9005710" lon="-2.5428900">
        <ele>529.8</ele>
        <time>2020-09-13T12:34:50Z</time>
      </trkpt>
      <trkpt lat="42.9005710" lon="-2.5428900">
        <ele>529.2</ele>
        <time>2020-09-13T12:34:54Z</time>
      </trkpt>
      <trkpt lat="42.9005710" lon="-2.5428900">
        <ele>529.4</ele>
        <time>2020-09-13T12:34:58Z</time>
      </trkpt>
      <trkpt lat="42.9005710" lon="-2.5428900">
        <ele>529.6</ele>
        <time>2020-09-13T12:35:02Z</time>
      </trkpt>
      <trkpt lat="42.9005710" lon="-2.5428900">
        <ele>529.4</ele>
        <time>2020-09-13T12:35:06Z</time>
      </trkpt>
      <trkpt lat="42.9005710" lon="-2.5428900">
        <ele>529.4</ele>
        <time>2020-09-13T12:35:10Z</time>
      </trkpt>
      <trkpt lat="42.9005710" lon="-2.5428900">
        <ele>529.6</ele>
        <time>2020-09-13T12:35:14Z</time>
      </trkpt>
      <trkpt lat="42.9005710" lon="-2.5428900">
        <ele>529.6</ele>
        <time>2020-09-13T12:35:18Z</time>
      </trkpt>
      <trkpt lat="42.9005710" lon="-2.5428900">
        <ele>529.2</ele>
        <time>2020-09-13T12:35:22Z</time>
      </trkpt>
      <trkpt lat="42.9005710" lon="-2.5428900">
        <ele>529.4</ele>
        <time>2020-09-13T12:35:26Z</time>
      </trkpt>
      <trkpt lat="42.9005710" lon="-2.5428900">
        <ele>529.4</ele>
        <time>2020-09-13T12:35:30Z</time>
      </trkpt>
      <trkpt lat="42.9005710" lon="-2.5428900">
        <ele>529.2</ele>
        <time>2020-09-13T12:35:34Z</time>
      </trkpt>
      <trkpt lat="42.9005710" lon="-2.5428900">
        <ele>529.4</ele>
        <time>2020-09-13T12:35:38Z</time>
      </trkpt>
      <trkpt lat="42.9005710" lon="-2.5428900">
        <ele>529.4</ele>
        <time>2020-09-13T12:35:42Z</time>
      </trkpt>
      <trkpt lat="42.9005710" lon="-2.5428900">
        <ele>529.4</ele>
        <time>2020-09-13T12:35:46Z</time>
      </trkpt>
      <trkpt lat="42.9005710" lon="-2.5428900">
        <ele>529.8</ele>
        <time>2020-09-13T12:35:50Z</time>
      </trkpt>
      <trkpt lat="42.9005710" lon="-2.5428900">
        <ele>529.4</ele>
        <time>2020-09-13T12:35:54Z</time>
      </trkpt>
      <trkpt lat="42.9005710" lon="-2.5428900">
        <ele>529.2</ele>
        <time>2020-09-13T12:35:58Z</time>
      </trkpt>
      <trkpt lat="42.9005710" lon="-2.5428900">
        <ele>529.6</ele>
        <time>2020-09-13T12:36:02Z</time>
      </trkpt>
      <trkpt lat="42.9005710" lon="-2.5428900">
        <ele>529.6</ele>
        <time>2020-09-13T12:36:06Z</time>
      </trkpt>
      <trkpt lat="42.9005710" lon="-2.5428900">
        <ele>529.8</ele>
        <time>2020-09-13T12:36:10Z</time>
      </trkpt>
      <trkpt lat="42.9005710" lon="-2.5428900">
        <ele>529.2</ele>
        <time>2020-09-13T12:36:14Z</time>
      </trkpt>
      <trkpt lat="42.9005710" lon="-2.5428900">
        <ele>529.4</ele>
        <time>2020-09-13T12:36:18Z</time>
      </trkpt>
      <trkpt lat="42.9005710" lon="-2.5428900">
        <ele>529.8</ele>
        <time>2020-09-13T12:36:22Z</time>
      </trkpt>
      <trkpt lat="42.9005710" lon="-2.5428900">
        <ele>529.6</ele>
        <time>2020-09-13T12:36:26Z</time>
      </trkpt>
      <trkpt lat="42.9005710" lon="-2.5428900">
        <ele>529.6</ele>
        <time>2020-09-13T12:36:30Z</time>
      </trkpt>
      <trkpt lat="42.9005710" lon="-2.5428900">
        <ele>529.6</ele>
        <time>2020-09-13T12:36:34Z</time>
      </trkpt>
      <trkpt lat="42.9005710" lon="-2.5428900">
        <ele>529.6</ele>
        <time>2020-09-13T12:36:38Z</time>
      </trkpt>
      <trkpt lat="42.9005710" lon="-2.5428900">
        <ele>529.8</ele>
        <time>2020-09-13T12:36:42Z</time>
      </trkpt>
      <trkpt lat="42.9005710" lon="-2.5428900">
        <ele>529.6</ele>
        <time>2020-09-13T12:36:46Z</time>
      </trkpt>
      <trkpt lat="42.9005710" lon="-2.5428900">
        <ele>529.8</ele>
        <time>2020-09-13T12:36:50Z</time>
      </trkpt>
      <trkpt lat="42.9005710" lon="-2.5428900">
        <ele>529.8</ele>
        <time>2020-09-13T12:36:54Z</time>
      </trkpt>
      <trkpt lat="42.9005710" lon="-2.5428900">
        <ele>530.0</ele>
        <time>2020-09-13T12:36:58Z</time>
      </trkpt>
      <trkpt lat="42.9005710" lon="-2.5428900">
        <ele>530.0</ele>
        <time>2020-09-13T12:37:02Z</time>
      </trkpt>
      <trkpt lat="42.9005710" lon="-2.5428900">
        <ele>529.6</ele>
        <time>2020-09-13T12:37:06Z</time>
      </trkpt>
      <trkpt lat="42.9005710" lon="-2.5428900">
        <ele>530.2</ele>
        <time>2020-09-13T12:37:10Z</time>
      </trkpt>
      <trkpt lat="42.9005710" lon="-2.5428900">
        <ele>530.2</ele>
        <time>2020-09-13T12:37:14Z</time>
      </trkpt>
      <trkpt lat="42.9005710" lon="-2.5428900">
        <ele>530.0</ele>
        <time>2020-09-13T12:37:18Z</time>
      </trkpt>
      <trkpt lat="42.9005710" lon="-2.5428900">
        <ele>530.2</ele>
        <time>2020-09-13T12:37:22Z</time>
      </trkpt>
      <trkpt lat="42.9005710" lon="-2.5428900">
        <ele>530.0</ele>
        <time>2020-09-13T12:37:26Z</time>
      </trkpt>
      <trkpt lat="42.9005710" lon="-2.5428900">
        <ele>530.2</ele>
        <time>2020-09-13T12:37:30Z</time>
      </trkpt>
      <trkpt lat="42.9005710" lon="-2.5428900">
        <ele>530.0</ele>
        <time>2020-09-13T12:37:34Z</time>
      </trkpt>
      <trkpt lat="42.9005710" lon="-2.5428900">
        <ele>530.2</ele>
        <time>2020-09-13T12:37:38Z</time>
      </trkpt>
      <trkpt lat="42.9005710" lon="-2.5428900">
        <ele>529.8</ele>
        <time>2020-09-13T12:37:42Z</time>
      </trkpt>
      <trkpt lat="42.9005710" lon="-2.5428900">
        <ele>530.2</ele>
        <time>2020-09-13T12:37:46Z</time>
      </trkpt>
      <trkpt lat="42.9005710" lon="-2.5428900">
        <ele>530.2</ele>
        <time>2020-09-13T12:37:50Z</time>
      </trkpt>
      <trkpt lat="42.9005710" lon="-2.5428900">
        <ele>530.2</ele>
        <time>2020-09-13T12:37:54Z</time>
      </trkpt>
      <trkpt lat="42.9005710" lon="-2.5428900">
        <ele>530.2</ele>
        <time>2020-09-13T12:37:58Z</time>
      </trkpt>
      <trkpt lat="42.9005710" lon="-2.5428900">
        <ele>530.4</ele>
        <time>2020-09-13T12:38:02Z</time>
      </trkpt>
      <trkpt lat="42.9005710" lon="-2.5428900">
        <ele>530.0</ele>
        <time>2020-09-13T12:38:06Z</time>
      </trkpt>
      <trkpt lat="42.9005710" lon="-2.5428900">
        <ele>530.0</ele>
        <time>2020-09-13T12:38:10Z</time>
      </trkpt>
      <trkpt lat="42.9005710" lon="-2.5428900">
        <ele>530.2</ele>
        <time>2020-09-13T12:38:14Z</time>
      </trkpt>
      <trkpt lat="42.9005710" lon="-2.5428900">
        <ele>530.0</ele>
        <time>2020-09-13T12:38:18Z</time>
      </trkpt>
      <trkpt lat="42.9005710" lon="-2.5428900">
        <ele>530.0</ele>
        <time>2020-09-13T12:38:22Z</time>
      </trkpt>
      <trkpt lat="42.9005710" lon="-2.5428900">
        <ele>530.4</ele>
        <time>2020-09-13T12:38:26Z</time>
      </trkpt>
      <trkpt lat="42.9005710" lon="-2.5428900">
        <ele>530.2</ele>
        <time>2020-09-13T12:38:30Z</time>
      </trkpt>
      <trkpt lat="42.9005710" lon="-2.5428900">
        <ele>530.4</ele>
        <time>2020-09-13T12:38:34Z</time>
      </trkpt>
      <trkpt lat="42.9005710" lon="-2.5428900">
        <ele>529.6</ele>
        <time>2020-09-13T12:38:38Z</time>
      </trkpt>
      <trkpt lat="42.9005710" lon="-2.5428900">
        <ele>530.0</ele>
        <time>2020-09-13T12:38:42Z</time>
      </trkpt>
      <trkpt lat="42.9005710" lon="-2.5428900">
        <ele>530.2</ele>
        <time>2020-09-13T12:38:46Z</time>
      </trkpt>
      <trkpt lat="42.9005710" lon="-2.5428900">
        <ele>529.8</ele>
        <time>2020-09-13T12:38:50Z</time>
      </trkpt>
      <trkpt lat="42.9005710" lon="-2.5428900">
        <ele>529.8</ele>
        <time>2020-09-13T12:38:54Z</time>
      </trkpt>
      <trkpt lat="42.9005710" lon="-2.5428900">
        <ele>530.2</ele>
        <time>2020-09-13T12:38:58Z</time>
      </trkpt>
      <trkpt lat="42.9005710" lon="-2.5428900">
        <ele>530.0</ele>
        <time>2020-09-13T12:39:02Z</time>
      </trkpt>
      <trkpt lat="42.9005710" lon="-2.5428900">
        <ele>530.0</ele>
        <time>2020-09-13T12:39:06Z</time>
      </trkpt>
      <trkpt lat="42.9005710" lon="-2.5428900">
        <ele>530.0</ele>
        <time>2020-09-13T12:39:10Z</time>
      </trkpt>
      <trkpt lat="42.9005710" lon="-2.5428900">
        <ele>530.2</ele>
        <time>2020-09-13T12:39:14Z</time>
      </trkpt>
      <trkpt lat="42.9005710" lon="-2.5428900">
        <ele>530.0</ele>
        <time>2020-09-13T12:39:18Z</time>
      </trkpt>
      <trkpt lat="42.9005710" lon="-2.5428900">
        <ele>530.2</ele>
        <time>2020-09-13T12:39:22Z</time>
      </trkpt>
      <trkpt lat="42.9005710" lon="-2.5428900">
        <ele>530.2</ele>
        <time>2020-09-13T12:39:26Z</time>
      </trkpt>
      <trkpt lat="42.9005710" lon="-2.5428900">
        <ele>530.0</ele>
        <time>2020-09-13T12:39:30Z</time>
      </trkpt>
      <trkpt lat="42.9005710" lon="-2.5428900">
        <ele>530.0</ele>
        <time>2020-09-13T12:39:34Z</time>
      </trkpt>
      <trkpt lat="42.9005710" lon="-2.5428900">
        <ele>530.0</ele>
        <time>2020-09-13T12:39:38Z</time>
      </trkpt>
      <trkpt lat="42.9005710" lon="-2.5428900">
        <ele>530.0</ele>
        <time>2020-09-13T12:39:42Z</time>
      </trkpt>
      <trkpt lat="42.9005710" lon="-2.5428900">
        <ele>529.8</ele>
        <time>2020-09-13T12:39:46Z</time>
      </trkpt>
      <trkpt lat="42.9005710" lon="-2.5428900">
        <ele>530.0</ele>
        <time>2020-09-13T12:39:50Z</time>
      </trkpt>
      <trkpt lat="42.9005710" lon="-2.5428900">
        <ele>530.2</ele>
        <time>2020-09-13T12:39:54Z</time>
      </trkpt>
      <trkpt lat="42.9005710" lon="-2.5428900">
        <ele>530.4</ele>
        <time>2020-09-13T12:39:58Z</time>
      </trkpt>
      <trkpt lat="42.9005710" lon="-2.5428900">
        <ele>530.2</ele>
        <time>2020-09-13T12:40:02Z</time>
      </trkpt>
      <trkpt lat="42.9005710" lon="-2.5428900">
        <ele>530.6</ele>
        <time>2020-09-13T12:40:06Z</time>
      </trkpt>
      <trkpt lat="42.9005710" lon="-2.5428900">
        <ele>530.6</ele>
        <time>2020-09-13T12:40:10Z</time>
      </trkpt>
      <trkpt lat="42.9005710" lon="-2.5428900">
        <ele>529.8</ele>
        <time>2020-09-13T12:40:14Z</time>
      </trkpt>
      <trkpt lat="42.9005710" lon="-2.5428900">
        <ele>530.2</ele>
        <time>2020-09-13T12:40:18Z</time>
      </trkpt>
      <trkpt lat="42.9005710" lon="-2.5428900">
        <ele>530.4</ele>
        <time>2020-09-13T12:40:22Z</time>
      </trkpt>
      <trkpt lat="42.9005710" lon="-2.5428900">
        <ele>530.6</ele>
        <time>2020-09-13T12:40:26Z</time>
      </trkpt>
      <trkpt lat="42.9005710" lon="-2.5428900">
        <ele>530.4</ele>
        <time>2020-09-13T12:40:30Z</time>
      </trkpt>
      <trkpt lat="42.9005710" lon="-2.5428900">
        <ele>530.2</ele>
        <time>2020-09-13T12:40:34Z</time>
      </trkpt>
      <trkpt lat="42.9005710" lon="-2.5428900">
        <ele>530.2</ele>
        <time>2020-09-13T12:40:38Z</time>
      </trkpt>
      <trkpt lat="42.9005710" lon="-2.5428900">
        <ele>530.0</ele>
        <time>2020-09-13T12:40:42Z</time>
      </trkpt>
      <trkpt lat="42.9005710" lon="-2.5428900">
        <ele>529.8</ele>
        <time>2020-09-13T12:40:46Z</time>
      </trkpt>
      <trkpt lat="42.9005710" lon="-2.5428900">
        <ele>530.2</ele>
        <time>2020-09-13T12:40:50Z</time>
      </trkpt>
      <trkpt lat="42.9005710" lon="-2.5428900">
        <ele>530.4</ele>
        <time>2020-09-13T12:40:54Z</time>
      </trkpt>
      <trkpt lat="42.9005710" lon="-2.5428900">
        <ele>530.4</ele>
        <time>2020-09-13T12:40:58Z</time>
      </trkpt>
      <trkpt lat="42.9005710" lon="-2.5428900">
        <ele>530.4</ele>
        <time>2020-09-13T12:41:02Z</time>
      </trkpt>
      <trkpt lat="42.9005710" lon="-2.5428900">
        <ele>530.6</ele>
        <time>2020-09-13T12:41:06Z</time>
      </trkpt>
      <trkpt lat="42.9005710" lon="-2.5428900">
        <ele>530.4</ele>
        <time>2020-09-13T12:41:10Z</time>
      </trkpt>
      <trkpt lat="42.9005710" lon="-2.5428900">
        <ele>530.4</ele>
        <time>2020-09-13T12:41:14Z</time>
      </trkpt>
      <trkpt lat="42.9005710" lon="-2.5428900">
        <ele>530.4</ele>
        <time>2020-09-13T12:41:18Z</time>
      </trkpt>
      <trkpt lat="42.9005710" lon="-2.5428900">
        <ele>530.4</ele>
        <time>2020-09-13T12:41:22Z</time>
      </trkpt>
      <trkpt lat="42.9005710" lon="-2.5428900">
        <ele>530.4</ele>
        <time>2020-09-13T12:41:26Z</time>
      </trkpt>
      <trkpt lat="42.9005710" lon="-2.5428900">
        <ele>530.4</ele>
        <time>2020-09-13T12:41:30Z</time>
      </trkpt>
      <trkpt lat="42.9005710" lon="-2.5428900">
        <ele>530.4</ele>
        <time>2020-09-13T12:41:34Z</time>
      </trkpt>
      <trkpt lat="42.9005710" lon="-2.5428900">
        <ele>530.2</ele>
        <time>2020-09-13T12:41:38Z</time>
      </trkpt>
      <trkpt lat="42.9005710" lon="-2.5428900">
        <ele>530.2</ele>
        <time>2020-09-13T12:41:42Z</time>
      </trkpt>
      <trkpt lat="42.9005710" lon="-2.5428900">
        <ele>530.2</ele>
        <time>2020-09-13T12:41:46Z</time>
      </trkpt>
      <trkpt lat="42.9005710" lon="-2.5428900">
        <ele>530.2</ele>
        <time>2020-09-13T12:41:50Z</time>
      </trkpt>
      <trkpt lat="42.9005710" lon="-2.5428900">
        <ele>530.0</ele>
        <time>2020-09-13T12:41:54Z</time>
      </trkpt>
      <trkpt lat="42.9005710" lon="-2.5428900">
        <ele>530.4</ele>
        <time>2020-09-13T12:41:58Z</time>
      </trkpt>
      <trkpt lat="42.9005710" lon="-2.5428900">
        <ele>530.4</ele>
        <time>2020-09-13T12:42:02Z</time>
      </trkpt>
      <trkpt lat="42.9005710" lon="-2.5428900">
        <ele>530.2</ele>
        <time>2020-09-13T12:42:06Z</time>
      </trkpt>
      <trkpt lat="42.9005710" lon="-2.5428900">
        <ele>530.6</ele>
        <time>2020-09-13T12:42:10Z</time>
      </trkpt>
      <trkpt lat="42.9005710" lon="-2.5428900">
        <ele>530.4</ele>
        <time>2020-09-13T12:42:14Z</time>
      </trkpt>
      <trkpt lat="42.9005710" lon="-2.5428900">
        <ele>530.2</ele>
        <time>2020-09-13T12:42:18Z</time>
      </trkpt>
      <trkpt lat="42.9005710" lon="-2.5428900">
        <ele>530.4</ele>
        <time>2020-09-13T12:42:22Z</time>
      </trkpt>
      <trkpt lat="42.9005710" lon="-2.5428900">
        <ele>530.2</ele>
        <time>2020-09-13T12:42:26Z</time>
      </trkpt>
      <trkpt lat="42.9005710" lon="-2.5428900">
        <ele>529.8</ele>
        <time>2020-09-13T12:42:30Z</time>
      </trkpt>
      <trkpt lat="42.9005710" lon="-2.5428900">
        <ele>530.2</ele>
        <time>2020-09-13T12:42:34Z</time>
      </trkpt>
      <trkpt lat="42.9005710" lon="-2.5428900">
        <ele>530.2</ele>
        <time>2020-09-13T12:42:38Z</time>
      </trkpt>
      <trkpt lat="42.9005710" lon="-2.5428900">
        <ele>530.2</ele>
        <time>2020-09-13T12:42:42Z</time>
      </trkpt>
      <trkpt lat="42.9005710" lon="-2.5428900">
        <ele>530.0</ele>
        <time>2020-09-13T12:42:46Z</time>
      </trkpt>
      <trkpt lat="42.9005710" lon="-2.5428900">
        <ele>530.0</ele>
        <time>2020-09-13T12:42:50Z</time>
      </trkpt>
      <trkpt lat="42.9005710" lon="-2.5428900">
        <ele>529.8</ele>
        <time>2020-09-13T12:42:54Z</time>
      </trkpt>
      <trkpt lat="42.9005710" lon="-2.5428900">
        <ele>530.2</ele>
        <time>2020-09-13T12:42:58Z</time>
      </trkpt>
      <trkpt lat="42.9005710" lon="-2.5428900">
        <ele>530.0</ele>
        <time>2020-09-13T12:43:02Z</time>
      </trkpt>
      <trkpt lat="42.9005710" lon="-2.5428900">
        <ele>530.6</ele>
        <time>2020-09-13T12:43:06Z</time>
      </trkpt>
      <trkpt lat="42.9005710" lon="-2.5428900">
        <ele>530.6</ele>
        <time>2020-09-13T12:43:10Z</time>
      </trkpt>
      <trkpt lat="42.9005710" lon="-2.5428900">
        <ele>530.4</ele>
        <time>2020-09-13T12:43:14Z</time>
      </trkpt>
      <trkpt lat="42.9005710" lon="-2.5428900">
        <ele>530.6</ele>
        <time>2020-09-13T12:43:18Z</time>
      </trkpt>
      <trkpt lat="42.9005710" lon="-2.5428900">
        <ele>530.8</ele>
        <time>2020-09-13T12:43:22Z</time>
      </trkpt>
      <trkpt lat="42.9005710" lon="-2.5428900">
        <ele>530.6</ele>
        <time>2020-09-13T12:43:26Z</time>
      </trkpt>
      <trkpt lat="42.9005710" lon="-2.5428900">
        <ele>530.2</ele>
        <time>2020-09-13T12:43:30Z</time>
      </trkpt>
      <trkpt lat="42.9005710" lon="-2.5428900">
        <ele>530.4</ele>
        <time>2020-09-13T12:43:34Z</time>
      </trkpt>
      <trkpt lat="42.9005710" lon="-2.5428900">
        <ele>530.2</ele>
        <time>2020-09-13T12:43:38Z</time>
      </trkpt>
      <trkpt lat="42.9005710" lon="-2.5428900">
        <ele>530.2</ele>
        <time>2020-09-13T12:43:42Z</time>
      </trkpt>
      <trkpt lat="42.9005710" lon="-2.5428900">
        <ele>530.4</ele>
        <time>2020-09-13T12:43:46Z</time>
      </trkpt>
      <trkpt lat="42.9005710" lon="-2.5428900">
        <ele>530.2</ele>
        <time>2020-09-13T12:43:50Z</time>
      </trkpt>
      <trkpt lat="42.9005710" lon="-2.5428900">
        <ele>530.2</ele>
        <time>2020-09-13T12:43:54Z</time>
      </trkpt>
      <trkpt lat="42.9005710" lon="-2.5428900">
        <ele>530.2</ele>
        <time>2020-09-13T12:43:58Z</time>
      </trkpt>
      <trkpt lat="42.9005710" lon="-2.5428900">
        <ele>530.4</ele>
        <time>2020-09-13T12:44:02Z</time>
      </trkpt>
      <trkpt lat="42.9005710" lon="-2.5428900">
        <ele>530.2</ele>
        <time>2020-09-13T12:44:06Z</time>
      </trkpt>
      <trkpt lat="42.9005710" lon="-2.5428900">
        <ele>530.4</ele>
        <time>2020-09-13T12:44:10Z</time>
      </trkpt>
      <trkpt lat="42.9005710" lon="-2.5428900">
        <ele>530.6</ele>
        <time>2020-09-13T12:44:14Z</time>
      </trkpt>
      <trkpt lat="42.9005710" lon="-2.5428900">
        <ele>530.4</ele>
        <time>2020-09-13T12:44:18Z</time>
      </trkpt>
      <trkpt lat="42.9005710" lon="-2.5428900">
        <ele>530.2</ele>
        <time>2020-09-13T12:44:22Z</time>
      </trkpt>
      <trkpt lat="42.9005710" lon="-2.5428900">
        <ele>530.6</ele>
        <time>2020-09-13T12:44:26Z</time>
      </trkpt>
      <trkpt lat="42.9005710" lon="-2.5428900">
        <ele>530.6</ele>
        <time>2020-09-13T12:44:30Z</time>
      </trkpt>
      <trkpt lat="42.9005710" lon="-2.5428900">
        <ele>530.6</ele>
        <time>2020-09-13T12:44:34Z</time>
      </trkpt>
      <trkpt lat="42.9005710" lon="-2.5428900">
        <ele>530.6</ele>
        <time>2020-09-13T12:44:38Z</time>
      </trkpt>
      <trkpt lat="42.9005710" lon="-2.5428900">
        <ele>530.4</ele>
        <time>2020-09-13T12:44:42Z</time>
      </trkpt>
      <trkpt lat="42.9005710" lon="-2.5428900">
        <ele>530.8</ele>
        <time>2020-09-13T12:44:46Z</time>
      </trkpt>
      <trkpt lat="42.9005710" lon="-2.5428900">
        <ele>530.4</ele>
        <time>2020-09-13T12:44:50Z</time>
      </trkpt>
      <trkpt lat="42.9005710" lon="-2.5428900">
        <ele>530.4</ele>
        <time>2020-09-13T12:44:54Z</time>
      </trkpt>
      <trkpt lat="42.9005710" lon="-2.5428900">
        <ele>530.8</ele>
        <time>2020-09-13T12:44:58Z</time>
      </trkpt>
      <trkpt lat="42.9005710" lon="-2.5428900">
        <ele>530.8</ele>
        <time>2020-09-13T12:45:02Z</time>
      </trkpt>
      <trkpt lat="42.9005710" lon="-2.5428900">
        <ele>530.8</ele>
        <time>2020-09-13T12:45:06Z</time>
      </trkpt>
      <trkpt lat="42.9005710" lon="-2.5428900">
        <ele>530.8</ele>
        <time>2020-09-13T12:45:10Z</time>
      </trkpt>
      <trkpt lat="42.9005710" lon="-2.5428900">
        <ele>530.6</ele>
        <time>2020-09-13T12:45:14Z</time>
      </trkpt>
      <trkpt lat="42.9005710" lon="-2.5428900">
        <ele>531.0</ele>
        <time>2020-09-13T12:45:18Z</time>
      </trkpt>
      <trkpt lat="42.9005710" lon="-2.5428900">
        <ele>531.2</ele>
        <time>2020-09-13T12:45:22Z</time>
      </trkpt>
      <trkpt lat="42.9005710" lon="-2.5428900">
        <ele>530.8</ele>
        <time>2020-09-13T12:45:26Z</time>
      </trkpt>
      <trkpt lat="42.9005710" lon="-2.5428900">
        <ele>531.4</ele>
        <time>2020-09-13T12:45:30Z</time>
      </trkpt>
      <trkpt lat="42.9005710" lon="-2.5428900">
        <ele>531.0</ele>
        <time>2020-09-13T12:45:34Z</time>
      </trkpt>
      <trkpt lat="42.9005710" lon="-2.5428900">
        <ele>531.0</ele>
        <time>2020-09-13T12:45:38Z</time>
      </trkpt>
      <trkpt lat="42.9005710" lon="-2.5428900">
        <ele>530.8</ele>
        <time>2020-09-13T12:45:42Z</time>
      </trkpt>
      <trkpt lat="42.9005710" lon="-2.5428900">
        <ele>531.0</ele>
        <time>2020-09-13T12:45:46Z</time>
      </trkpt>
      <trkpt lat="42.9005710" lon="-2.5428900">
        <ele>531.0</ele>
        <time>2020-09-13T12:45:50Z</time>
      </trkpt>
      <trkpt lat="42.9005710" lon="-2.5428900">
        <ele>530.8</ele>
        <time>2020-09-13T12:45:54Z</time>
      </trkpt>
      <trkpt lat="42.9005710" lon="-2.5428900">
        <ele>530.8</ele>
        <time>2020-09-13T12:45:58Z</time>
      </trkpt>
      <trkpt lat="42.9005710" lon="-2.5428900">
        <ele>530.8</ele>
        <time>2020-09-13T12:46:02Z</time>
      </trkpt>
      <trkpt lat="42.9005710" lon="-2.5428900">
        <ele>530.8</ele>
        <time>2020-09-13T12:46:06Z</time>
      </trkpt>
      <trkpt lat="42.9005710" lon="-2.5428900">
        <ele>530.6</ele>
        <time>2020-09-13T12:46:10Z</time>
      </trkpt>
      <trkpt lat="42.9005710" lon="-2.5428900">
        <ele>530.6</ele>
        <time>2020-09-13T12:46:14Z</time>
      </trkpt>
      <trkpt lat="42.9005710" lon="-2.5428900">
        <ele>530.8</ele>
        <time>2020-09-13T12:46:18Z</time>
      </trkpt>
      <trkpt lat="42.9005710" lon="-2.5428900">
        <ele>531.0</ele>
        <time>2020-09-13T12:46:22Z</time>
      </trkpt>
      <trkpt lat="42.9005710" lon="-2.5428900">
        <ele>530.8</ele>
        <time>2020-09-13T12:46:26Z</time>
      </trkpt>
      <trkpt lat="42.9005710" lon="-2.5428900">
        <ele>530.4</ele>
        <time>2020-09-13T12:46:30Z</time>
      </trkpt>
      <trkpt lat="42.9005710" lon="-2.5428900">
        <ele>530.8</ele>
        <time>2020-09-13T12:46:34Z</time>
      </trkpt>
      <trkpt lat="42.9005710" lon="-2.5428900">
        <ele>530.8</ele>
        <time>2020-09-13T12:46:38Z</time>
      </trkpt>
      <trkpt lat="42.9005710" lon="-2.5428900">
        <ele>530.8</ele>
        <time>2020-09-13T12:46:42Z</time>
      </trkpt>
      <trkpt lat="42.9005710" lon="-2.5428900">
        <ele>530.8</ele>
        <time>2020-09-13T12:46:46Z</time>
      </trkpt>
      <trkpt lat="42.9005710" lon="-2.5428900">
        <ele>530.6</ele>
        <time>2020-09-13T12:46:50Z</time>
      </trkpt>
      <trkpt lat="42.9005710" lon="-2.5428900">
        <ele>530.6</ele>
        <time>2020-09-13T12:46:54Z</time>
      </trkpt>
      <trkpt lat="42.9005710" lon="-2.5428900">
        <ele>530.8</ele>
        <time>2020-09-13T12:46:58Z</time>
      </trkpt>
      <trkpt lat="42.9005710" lon="-2.5428900">
        <ele>530.6</ele>
        <time>2020-09-13T12:47:02Z</time>
      </trkpt>
      <trkpt lat="42.9005710" lon="-2.5428900">
        <ele>530.8</ele>
        <time>2020-09-13T12:47:06Z</time>
      </trkpt>
      <trkpt lat="42.9005710" lon="-2.5428900">
        <ele>530.8</ele>
        <time>2020-09-13T12:47:10Z</time>
      </trkpt>
      <trkpt lat="42.9005710" lon="-2.5428900">
        <ele>530.6</ele>
        <time>2020-09-13T12:47:14Z</time>
      </trkpt>
      <trkpt lat="42.9005710" lon="-2.5428900">
        <ele>530.4</ele>
        <time>2020-09-13T12:47:18Z</time>
      </trkpt>
      <trkpt lat="42.9005710" lon="-2.5428900">
        <ele>530.8</ele>
        <time>2020-09-13T12:47:22Z</time>
      </trkpt>
      <trkpt lat="42.9005710" lon="-2.5428900">
        <ele>530.2</ele>
        <time>2020-09-13T12:47:26Z</time>
      </trkpt>
      <trkpt lat="42.9005710" lon="-2.5428900">
        <ele>530.6</ele>
        <time>2020-09-13T12:47:30Z</time>
      </trkpt>
      <trkpt lat="42.9005710" lon="-2.5428900">
        <ele>530.8</ele>
        <time>2020-09-13T12:47:34Z</time>
      </trkpt>
      <trkpt lat="42.9005710" lon="-2.5428900">
        <ele>530.8</ele>
        <time>2020-09-13T12:47:38Z</time>
      </trkpt>
      <trkpt lat="42.9005710" lon="-2.5428900">
        <ele>530.8</ele>
        <time>2020-09-13T12:47:42Z</time>
      </trkpt>
      <trkpt lat="42.9005710" lon="-2.5428900">
        <ele>531.0</ele>
        <time>2020-09-13T12:47:46Z</time>
      </trkpt>
      <trkpt lat="42.9005710" lon="-2.5428900">
        <ele>531.0</ele>
        <time>2020-09-13T12:47:50Z</time>
      </trkpt>
      <trkpt lat="42.9005710" lon="-2.5428900">
        <ele>530.4</ele>
        <time>2020-09-13T12:47:54Z</time>
      </trkpt>
      <trkpt lat="42.9005710" lon="-2.5428900">
        <ele>530.8</ele>
        <time>2020-09-13T12:47:58Z</time>
      </trkpt>
      <trkpt lat="42.9005710" lon="-2.5428900">
        <ele>531.0</ele>
        <time>2020-09-13T12:48:02Z</time>
      </trkpt>
      <trkpt lat="42.9005710" lon="-2.5428900">
        <ele>531.0</ele>
        <time>2020-09-13T12:48:06Z</time>
      </trkpt>
      <trkpt lat="42.9005710" lon="-2.5428900">
        <ele>531.0</ele>
        <time>2020-09-13T12:48:10Z</time>
      </trkpt>
      <trkpt lat="42.9005710" lon="-2.5428900">
        <ele>531.0</ele>
        <time>2020-09-13T12:48:14Z</time>
      </trkpt>
      <trkpt lat="42.9005710" lon="-2.5428900">
        <ele>531.2</ele>
        <time>2020-09-13T12:48:18Z</time>
      </trkpt>
      <trkpt lat="42.9005710" lon="-2.5428900">
        <ele>531.0</ele>
        <time>2020-09-13T12:48:22Z</time>
      </trkpt>
      <trkpt lat="42.9005710" lon="-2.5428900">
        <ele>531.2</ele>
        <time>2020-09-13T12:48:26Z</time>
      </trkpt>
      <trkpt lat="42.9005710" lon="-2.5428900">
        <ele>531.0</ele>
        <time>2020-09-13T12:48:30Z</time>
      </trkpt>
      <trkpt lat="42.9005710" lon="-2.5428900">
        <ele>531.2</ele>
        <time>2020-09-13T12:48:34Z</time>
      </trkpt>
      <trkpt lat="42.9005710" lon="-2.5428900">
        <ele>531.0</ele>
        <time>2020-09-13T12:48:38Z</time>
      </trkpt>
      <trkpt lat="42.9005710" lon="-2.5428900">
        <ele>530.8</ele>
        <time>2020-09-13T12:48:42Z</time>
      </trkpt>
      <trkpt lat="42.9005710" lon="-2.5428900">
        <ele>531.0</ele>
        <time>2020-09-13T12:48:46Z</time>
      </trkpt>
      <trkpt lat="42.9005710" lon="-2.5428900">
        <ele>530.8</ele>
        <time>2020-09-13T12:48:50Z</time>
      </trkpt>
      <trkpt lat="42.9005710" lon="-2.5428900">
        <ele>531.0</ele>
        <time>2020-09-13T12:48:54Z</time>
      </trkpt>
      <trkpt lat="42.9005710" lon="-2.5428900">
        <ele>531.0</ele>
        <time>2020-09-13T12:48:58Z</time>
      </trkpt>
      <trkpt lat="42.9005710" lon="-2.5428900">
        <ele>530.8</ele>
        <time>2020-09-13T12:49:02Z</time>
      </trkpt>
      <trkpt lat="42.9005710" lon="-2.5428900">
        <ele>530.8</ele>
        <time>2020-09-13T12:49:06Z</time>
      </trkpt>
      <trkpt lat="42.9005710" lon="-2.5428900">
        <ele>530.8</ele>
        <time>2020-09-13T12:49:10Z</time>
      </trkpt>
      <trkpt lat="42.9005710" lon="-2.5428900">
        <ele>530.8</ele>
        <time>2020-09-13T12:49:14Z</time>
      </trkpt>
      <trkpt lat="42.9005710" lon="-2.5428900">
        <ele>530.8</ele>
        <time>2020-09-13T12:49:18Z</time>
      </trkpt>
      <trkpt lat="42.9005710" lon="-2.5428900">
        <ele>531.0</ele>
        <time>2020-09-13T12:49:22Z</time>
      </trkpt>
      <trkpt lat="42.9005710" lon="-2.5428900">
        <ele>530.8</ele>
        <time>2020-09-13T12:49:26Z</time>
      </trkpt>
      <trkpt lat="42.9005710" lon="-2.5428900">
        <ele>530.8</ele>
        <time>2020-09-13T12:49:30Z</time>
      </trkpt>
      <trkpt lat="42.9005710" lon="-2.5428900">
        <ele>531.0</ele>
        <time>2020-09-13T12:49:34Z</time>
      </trkpt>
      <trkpt lat="42.9005710" lon="-2.5428900">
        <ele>530.8</ele>
        <time>2020-09-13T12:49:38Z</time>
      </trkpt>
      <trkpt lat="42.9005710" lon="-2.5428900">
        <ele>530.8</ele>
        <time>2020-09-13T12:49:42Z</time>
      </trkpt>
      <trkpt lat="42.9005710" lon="-2.5428900">
        <ele>531.0</ele>
        <time>2020-09-13T12:49:46Z</time>
      </trkpt>
      <trkpt lat="42.9005710" lon="-2.5428900">
        <ele>530.8</ele>
        <time>2020-09-13T12:49:50Z</time>
      </trkpt>
      <trkpt lat="42.9005710" lon="-2.5428900">
        <ele>531.2</ele>
        <time>2020-09-13T12:49:54Z</time>
      </trkpt>
      <trkpt lat="42.9005710" lon="-2.5428900">
        <ele>531.4</ele>
        <time>2020-09-13T12:49:58Z</time>
      </trkpt>
      <trkpt lat="42.9005710" lon="-2.5428900">
        <ele>530.8</ele>
        <time>2020-09-13T12:50:02Z</time>
      </trkpt>
      <trkpt lat="42.9005710" lon="-2.5428900">
        <ele>530.8</ele>
        <time>2020-09-13T12:50:06Z</time>
      </trkpt>
      <trkpt lat="42.9005710" lon="-2.5428900">
        <ele>531.0</ele>
        <time>2020-09-13T12:50:10Z</time>
      </trkpt>
      <trkpt lat="42.9005710" lon="-2.5428900">
        <ele>531.0</ele>
        <time>2020-09-13T12:50:14Z</time>
      </trkpt>
      <trkpt lat="42.9005710" lon="-2.5428900">
        <ele>530.8</ele>
        <time>2020-09-13T12:50:18Z</time>
      </trkpt>
      <trkpt lat="42.9005710" lon="-2.5428900">
        <ele>530.6</ele>
        <time>2020-09-13T12:50:22Z</time>
      </trkpt>
      <trkpt lat="42.9005710" lon="-2.5428900">
        <ele>531.0</ele>
        <time>2020-09-13T12:50:26Z</time>
      </trkpt>
      <trkpt lat="42.9005710" lon="-2.5428900">
        <ele>531.0</ele>
        <time>2020-09-13T12:50:30Z</time>
      </trkpt>
      <trkpt lat="42.9005710" lon="-2.5428900">
        <ele>530.8</ele>
        <time>2020-09-13T12:50:34Z</time>
      </trkpt>
      <trkpt lat="42.9005710" lon="-2.5428900">
        <ele>530.8</ele>
        <time>2020-09-13T12:50:38Z</time>
      </trkpt>
      <trkpt lat="42.9005710" lon="-2.5428900">
        <ele>531.0</ele>
        <time>2020-09-13T12:50:42Z</time>
      </trkpt>
      <trkpt lat="42.9005710" lon="-2.5428900">
        <ele>531.0</ele>
        <time>2020-09-13T12:50:46Z</time>
      </trkpt>
      <trkpt lat="42.9005710" lon="-2.5428900">
        <ele>531.0</ele>
        <time>2020-09-13T12:50:50Z</time>
      </trkpt>
      <trkpt lat="42.9005710" lon="-2.5428900">
        <ele>531.0</ele>
        <time>2020-09-13T12:50:54Z</time>
      </trkpt>
      <trkpt lat="42.9005710" lon="-2.5428900">
        <ele>530.8</ele>
        <time>2020-09-13T12:50:58Z</time>
      </trkpt>
      <trkpt lat="42.9005710" lon="-2.5428900">
        <ele>531.0</ele>
        <time>2020-09-13T12:51:02Z</time>
      </trkpt>
      <trkpt lat="42.9005710" lon="-2.5428900">
        <ele>531.2</ele>
        <time>2020-09-13T12:51:06Z</time>
      </trkpt>
      <trkpt lat="42.9005710" lon="-2.5428900">
        <ele>530.8</ele>
        <time>2020-09-13T12:51:10Z</time>
      </trkpt>
      <trkpt lat="42.9005710" lon="-2.5428900">
        <ele>530.8</ele>
        <time>2020-09-13T12:51:14Z</time>
      </trkpt>
      <trkpt lat="42.9005710" lon="-2.5428900">
        <ele>530.8</ele>
        <time>2020-09-13T12:51:18Z</time>
      </trkpt>
      <trkpt lat="42.9005710" lon="-2.5428900">
        <ele>530.8</ele>
        <time>2020-09-13T12:51:22Z</time>
      </trkpt>
      <trkpt lat="42.9005710" lon="-2.5428900">
        <ele>530.8</ele>
        <time>2020-09-13T12:51:26Z</time>
      </trkpt>
      <trkpt lat="42.9005710" lon="-2.5428900">
        <ele>531.4</ele>
        <time>2020-09-13T12:51:30Z</time>
      </trkpt>
      <trkpt lat="42.9005710" lon="-2.5428900">
        <ele>531.2</ele>
        <time>2020-09-13T12:51:34Z</time>
      </trkpt>
      <trkpt lat="42.9005710" lon="-2.5428900">
        <ele>531.0</ele>
        <time>2020-09-13T12:51:38Z</time>
      </trkpt>
      <trkpt lat="42.9005710" lon="-2.5428900">
        <ele>531.2</ele>
        <time>2020-09-13T12:51:42Z</time>
      </trkpt>
      <trkpt lat="42.9005710" lon="-2.5428900">
        <ele>531.6</ele>
        <time>2020-09-13T12:51:46Z</time>
      </trkpt>
      <trkpt lat="42.9005710" lon="-2.5428900">
        <ele>531.2</ele>
        <time>2020-09-13T12:51:50Z</time>
      </trkpt>
      <trkpt lat="42.9005710" lon="-2.5428900">
        <ele>531.4</ele>
        <time>2020-09-13T12:51:54Z</time>
      </trkpt>
      <trkpt lat="42.9005710" lon="-2.5428900">
        <ele>531.2</ele>
        <time>2020-09-13T12:51:58Z</time>
      </trkpt>
      <trkpt lat="42.9005710" lon="-2.5428900">
        <ele>530.8</ele>
        <time>2020-09-13T12:52:02Z</time>
      </trkpt>
      <trkpt lat="42.9005710" lon="-2.5428900">
        <ele>531.0</ele>
        <time>2020-09-13T12:52:06Z</time>
      </trkpt>
      <trkpt lat="42.9005710" lon="-2.5428900">
        <ele>531.2</ele>
        <time>2020-09-13T12:52:10Z</time>
      </trkpt>
      <trkpt lat="42.9005710" lon="-2.5428900">
        <ele>530.8</ele>
        <time>2020-09-13T12:52:14Z</time>
      </trkpt>
      <trkpt lat="42.9005710" lon="-2.5428900">
        <ele>531.2</ele>
        <time>2020-09-13T12:52:18Z</time>
      </trkpt>
      <trkpt lat="42.9005710" lon="-2.5428900">
        <ele>531.0</ele>
        <time>2020-09-13T12:52:22Z</time>
      </trkpt>
      <trkpt lat="42.9005710" lon="-2.5428900">
        <ele>531.0</ele>
        <time>2020-09-13T12:52:26Z</time>
      </trkpt>
      <trkpt lat="42.9005710" lon="-2.5428900">
        <ele>531.0</ele>
        <time>2020-09-13T12:52:30Z</time>
      </trkpt>
      <trkpt lat="42.9005710" lon="-2.5428900">
        <ele>531.2</ele>
        <time>2020-09-13T12:52:34Z</time>
      </trkpt>
      <trkpt lat="42.9005710" lon="-2.5428900">
        <ele>531.2</ele>
        <time>2020-09-13T12:52:38Z</time>
      </trkpt>
      <trkpt lat="42.9005710" lon="-2.5428900">
        <ele>531.4</ele>
        <time>2020-09-13T12:52:42Z</time>
      </trkpt>
      <trkpt lat="42.9005710" lon="-2.5428900">
        <ele>531.2</ele>
        <time>2020-09-13T12:52:46Z</time>
      </trkpt>
      <trkpt lat="42.9005710" lon="-2.5428900">
        <ele>531.2</ele>
        <time>2020-09-13T12:52:50Z</time>
      </trkpt>
      <trkpt lat="42.9005710" lon="-2.5428900">
        <ele>531.2</ele>
        <time>2020-09-13T12:52:54Z</time>
      </trkpt>
      <trkpt lat="42.9005710" lon="-2.5428900">
        <ele>531.4</ele>
        <time>2020-09-13T12:52:58Z</time>
      </trkpt>
      <trkpt lat="42.9005710" lon="-2.5428900">
        <ele>531.6</ele>
        <time>2020-09-13T12:53:02Z</time>
      </trkpt>
      <trkpt lat="42.9005710" lon="-2.5428900">
        <ele>531.6</ele>
        <time>2020-09-13T12:53:06Z</time>
      </trkpt>
      <trkpt lat="42.9005710" lon="-2.5428900">
        <ele>531.6</ele>
        <time>2020-09-13T12:53:10Z</time>
      </trkpt>
      <trkpt lat="42.9005710" lon="-2.5428900">
        <ele>531.4</ele>
        <time>2020-09-13T12:53:14Z</time>
      </trkpt>
      <trkpt lat="42.9005710" lon="-2.5428900">
        <ele>531.6</ele>
        <time>2020-09-13T12:53:18Z</time>
      </trkpt>
      <trkpt lat="42.9005710" lon="-2.5428900">
        <ele>531.4</ele>
        <time>2020-09-13T12:53:22Z</time>
      </trkpt>
      <trkpt lat="42.9005710" lon="-2.5428900">
        <ele>531.4</ele>
        <time>2020-09-13T12:53:26Z</time>
      </trkpt>
      <trkpt lat="42.9005710" lon="-2.5428900">
        <ele>531.0</ele>
        <time>2020-09-13T12:53:30Z</time>
      </trkpt>
      <trkpt lat="42.9005710" lon="-2.5428900">
        <ele>531.0</ele>
        <time>2020-09-13T12:53:34Z</time>
      </trkpt>
      <trkpt lat="42.9005710" lon="-2.5428900">
        <ele>531.4</ele>
        <time>2020-09-13T12:53:38Z</time>
      </trkpt>
      <trkpt lat="42.9005710" lon="-2.5428900">
        <ele>531.4</ele>
        <time>2020-09-13T12:53:42Z</time>
      </trkpt>
      <trkpt lat="42.9005710" lon="-2.5428900">
        <ele>531.4</ele>
        <time>2020-09-13T12:53:46Z</time>
      </trkpt>
      <trkpt lat="42.9005710" lon="-2.5428900">
        <ele>531.8</ele>
        <time>2020-09-13T12:53:50Z</time>
      </trkpt>
      <trkpt lat="42.9005710" lon="-2.5428900">
        <ele>531.2</ele>
        <time>2020-09-13T12:53:54Z</time>
      </trkpt>
      <trkpt lat="42.9005710" lon="-2.5428900">
        <ele>531.4</ele>
        <time>2020-09-13T12:53:58Z</time>
      </trkpt>
      <trkpt lat="42.9005710" lon="-2.5428900">
        <ele>531.4</ele>
        <time>2020-09-13T12:54:02Z</time>
      </trkpt>
      <trkpt lat="42.9005710" lon="-2.5428900">
        <ele>531.4</ele>
        <time>2020-09-13T12:54:06Z</time>
      </trkpt>
      <trkpt lat="42.9005710" lon="-2.5428900">
        <ele>531.8</ele>
        <time>2020-09-13T12:54:10Z</time>
      </trkpt>
      <trkpt lat="42.9005710" lon="-2.5428900">
        <ele>531.4</ele>
        <time>2020-09-13T12:54:14Z</time>
      </trkpt>
      <trkpt lat="42.9005710" lon="-2.5428900">
        <ele>531.6</ele>
        <time>2020-09-13T12:54:18Z</time>
      </trkpt>
      <trkpt lat="42.9005710" lon="-2.5428900">
        <ele>531.4</ele>
        <time>2020-09-13T12:54:22Z</time>
      </trkpt>
      <trkpt lat="42.9005710" lon="-2.5428900">
        <ele>531.4</ele>
        <time>2020-09-13T12:54:26Z</time>
      </trkpt>
      <trkpt lat="42.9005710" lon="-2.5428900">
        <ele>531.2</ele>
        <time>2020-09-13T12:54:30Z</time>
      </trkpt>
      <trkpt lat="42.9005710" lon="-2.5428900">
        <ele>531.4</ele>
        <time>2020-09-13T12:54:34Z</time>
      </trkpt>
      <trkpt lat="42.9005710" lon="-2.5428900">
        <ele>531.6</ele>
        <time>2020-09-13T12:54:38Z</time>
      </trkpt>
      <trkpt lat="42.9005710" lon="-2.5428900">
        <ele>531.2</ele>
        <time>2020-09-13T12:54:42Z</time>
      </trkpt>
      <trkpt lat="42.9005710" lon="-2.5428900">
        <ele>531.4</ele>
        <time>2020-09-13T12:54:46Z</time>
      </trkpt>
      <trkpt lat="42.9005710" lon="-2.5428900">
        <ele>531.8</ele>
        <time>2020-09-13T12:54:50Z</time>
      </trkpt>
      <trkpt lat="42.9005710" lon="-2.5428900">
        <ele>531.4</ele>
        <time>2020-09-13T12:54:54Z</time>
      </trkpt>
      <trkpt lat="42.9005710" lon="-2.5428900">
        <ele>531.4</ele>
        <time>2020-09-13T12:54:58Z</time>
      </trkpt>
      <trkpt lat="42.9005710" lon="-2.5428900">
        <ele>531.4</ele>
        <time>2020-09-13T12:55:02Z</time>
      </trkpt>
      <trkpt lat="42.9005710" lon="-2.5428900">
        <ele>531.2</ele>
        <time>2020-09-13T12:55:06Z</time>
      </trkpt>
      <trkpt lat="42.9005710" lon="-2.5428900">
        <ele>531.4</ele>
        <time>2020-09-13T12:55:10Z</time>
      </trkpt>
      <trkpt lat="42.9005710" lon="-2.5428900">
        <ele>531.6</ele>
        <time>2020-09-13T12:55:14Z</time>
      </trkpt>
      <trkpt lat="42.9005710" lon="-2.5428900">
        <ele>531.4</ele>
        <time>2020-09-13T12:55:18Z</time>
      </trkpt>
      <trkpt lat="42.9005710" lon="-2.5428900">
        <ele>531.6</ele>
        <time>2020-09-13T12:55:22Z</time>
      </trkpt>
      <trkpt lat="42.9005710" lon="-2.5428900">
        <ele>531.6</ele>
        <time>2020-09-13T12:55:26Z</time>
      </trkpt>
      <trkpt lat="42.9005710" lon="-2.5428900">
        <ele>531.4</ele>
        <time>2020-09-13T12:55:30Z</time>
      </trkpt>
      <trkpt lat="42.9005710" lon="-2.5428900">
        <ele>531.0</ele>
        <time>2020-09-13T12:55:34Z</time>
      </trkpt>
      <trkpt lat="42.9005710" lon="-2.5428900">
        <ele>531.4</ele>
        <time>2020-09-13T12:55:38Z</time>
      </trkpt>
      <trkpt lat="42.9005710" lon="-2.5428900">
        <ele>531.4</ele>
        <time>2020-09-13T12:55:42Z</time>
      </trkpt>
      <trkpt lat="42.9005710" lon="-2.5428900">
        <ele>531.6</ele>
        <time>2020-09-13T12:55:46Z</time>
      </trkpt>
      <trkpt lat="42.9005710" lon="-2.5428900">
        <ele>531.4</ele>
        <time>2020-09-13T12:55:50Z</time>
      </trkpt>
      <trkpt lat="42.9005710" lon="-2.5428900">
        <ele>531.8</ele>
        <time>2020-09-13T12:55:54Z</time>
      </trkpt>
      <trkpt lat="42.9005710" lon="-2.5428900">
        <ele>532.0</ele>
        <time>2020-09-13T12:55:58Z</time>
      </trkpt>
      <trkpt lat="42.9005710" lon="-2.5428900">
        <ele>531.6</ele>
        <time>2020-09-13T12:56:02Z</time>
      </trkpt>
      <trkpt lat="42.9005710" lon="-2.5428900">
        <ele>531.8</ele>
        <time>2020-09-13T12:56:06Z</time>
      </trkpt>
      <trkpt lat="42.9005710" lon="-2.5428900">
        <ele>532.2</ele>
        <time>2020-09-13T12:56:10Z</time>
      </trkpt>
      <trkpt lat="42.9005710" lon="-2.5428900">
        <ele>531.6</ele>
        <time>2020-09-13T12:56:14Z</time>
      </trkpt>
      <trkpt lat="42.9005710" lon="-2.5428900">
        <ele>531.6</ele>
        <time>2020-09-13T12:56:18Z</time>
      </trkpt>
      <trkpt lat="42.9005710" lon="-2.5428900">
        <ele>531.8</ele>
        <time>2020-09-13T12:56:22Z</time>
      </trkpt>
      <trkpt lat="42.9005710" lon="-2.5428900">
        <ele>531.4</ele>
        <time>2020-09-13T12:56:26Z</time>
      </trkpt>
      <trkpt lat="42.9005710" lon="-2.5428900">
        <ele>531.8</ele>
        <time>2020-09-13T12:56:30Z</time>
      </trkpt>
      <trkpt lat="42.9005710" lon="-2.5428900">
        <ele>532.2</ele>
        <time>2020-09-13T12:56:34Z</time>
      </trkpt>
      <trkpt lat="42.9005710" lon="-2.5428900">
        <ele>532.2</ele>
        <time>2020-09-13T12:56:38Z</time>
      </trkpt>
      <trkpt lat="42.9005710" lon="-2.5428900">
        <ele>532.4</ele>
        <time>2020-09-13T12:56:42Z</time>
      </trkpt>
      <trkpt lat="42.9005710" lon="-2.5428900">
        <ele>532.4</ele>
        <time>2020-09-13T12:56:46Z</time>
      </trkpt>
      <trkpt lat="42.9005710" lon="-2.5428900">
        <ele>532.0</ele>
        <time>2020-09-13T12:56:50Z</time>
      </trkpt>
      <trkpt lat="42.9005710" lon="-2.5428900">
        <ele>532.6</ele>
        <time>2020-09-13T12:56:54Z</time>
      </trkpt>
      <trkpt lat="42.9005710" lon="-2.5428900">
        <ele>531.8</ele>
        <time>2020-09-13T12:56:58Z</time>
      </trkpt>
      <trkpt lat="42.9005710" lon="-2.5428900">
        <ele>532.0</ele>
        <time>2020-09-13T12:57:02Z</time>
      </trkpt>
      <trkpt lat="42.9005710" lon="-2.5428900">
        <ele>532.2</ele>
        <time>2020-09-13T12:57:06Z</time>
      </trkpt>
      <trkpt lat="42.9005710" lon="-2.5428900">
        <ele>532.2</ele>
        <time>2020-09-13T12:57:10Z</time>
      </trkpt>
      <trkpt lat="42.9005710" lon="-2.5428900">
        <ele>532.0</ele>
        <time>2020-09-13T12:57:14Z</time>
      </trkpt>
      <trkpt lat="42.9005710" lon="-2.5428900">
        <ele>532.0</ele>
        <time>2020-09-13T12:57:18Z</time>
      </trkpt>
      <trkpt lat="42.9005710" lon="-2.5428900">
        <ele>532.0</ele>
        <time>2020-09-13T12:57:22Z</time>
      </trkpt>
      <trkpt lat="42.9005710" lon="-2.5428900">
        <ele>532.2</ele>
        <time>2020-09-13T12:57:26Z</time>
      </trkpt>
      <trkpt lat="42.9005710" lon="-2.5428900">
        <ele>532.2</ele>
        <time>2020-09-13T12:57:30Z</time>
      </trkpt>
      <trkpt lat="42.9005710" lon="-2.5428900">
        <ele>532.2</ele>
        <time>2020-09-13T12:57:34Z</time>
      </trkpt>
      <trkpt lat="42.9005710" lon="-2.5428900">
        <ele>532.0</ele>
        <time>2020-09-13T12:57:38Z</time>
      </trkpt>
      <trkpt lat="42.9005710" lon="-2.5428900">
        <ele>532.0</ele>
        <time>2020-09-13T12:57:42Z</time>
      </trkpt>
      <trkpt lat="42.9005710" lon="-2.5428900">
        <ele>532.0</ele>
        <time>2020-09-13T12:57:46Z</time>
      </trkpt>
      <trkpt lat="42.9005710" lon="-2.5428900">
        <ele>532.0</ele>
        <time>2020-09-13T12:57:50Z</time>
      </trkpt>
      <trkpt lat="42.9005710" lon="-2.5428900">
        <ele>531.8</ele>
        <time>2020-09-13T12:57:54Z</time>
      </trkpt>
      <trkpt lat="42.9005710" lon="-2.5428900">
        <ele>532.2</ele>
        <time>2020-09-13T12:57:58Z</time>
      </trkpt>
      <trkpt lat="42.9005710" lon="-2.5428900">
        <ele>532.2</ele>
        <time>2020-09-13T12:58:02Z</time>
      </trkpt>
      <trkpt lat="42.9005710" lon="-2.5428900">
        <ele>532.6</ele>
        <time>2020-09-13T12:58:06Z</time>
      </trkpt>
      <trkpt lat="42.9005710" lon="-2.5428900">
        <ele>532.0</ele>
        <time>2020-09-13T12:58:10Z</time>
      </trkpt>
      <trkpt lat="42.9005710" lon="-2.5428900">
        <ele>532.0</ele>
        <time>2020-09-13T12:58:14Z</time>
      </trkpt>
      <trkpt lat="42.9005710" lon="-2.5428900">
        <ele>532.2</ele>
        <time>2020-09-13T12:58:18Z</time>
      </trkpt>
      <trkpt lat="42.9005710" lon="-2.5428900">
        <ele>532.2</ele>
        <time>2020-09-13T12:58:22Z</time>
      </trkpt>
      <trkpt lat="42.9005710" lon="-2.5428900">
        <ele>532.4</ele>
        <time>2020-09-13T12:58:26Z</time>
      </trkpt>
      <trkpt lat="42.9005710" lon="-2.5428900">
        <ele>532.0</ele>
        <time>2020-09-13T12:58:30Z</time>
      </trkpt>
      <trkpt lat="42.9005710" lon="-2.5428900">
        <ele>531.8</ele>
        <time>2020-09-13T12:58:34Z</time>
      </trkpt>
      <trkpt lat="42.9005710" lon="-2.5428900">
        <ele>532.0</ele>
        <time>2020-09-13T12:58:38Z</time>
      </trkpt>
      <trkpt lat="42.9005710" lon="-2.5428900">
        <ele>532.6</ele>
        <time>2020-09-13T12:58:42Z</time>
      </trkpt>
      <trkpt lat="42.9005710" lon="-2.5428900">
        <ele>532.2</ele>
        <time>2020-09-13T12:58:46Z</time>
      </trkpt>
      <trkpt lat="42.9005710" lon="-2.5428900">
        <ele>531.8</ele>
        <time>2020-09-13T12:58:50Z</time>
      </trkpt>
      <trkpt lat="42.9005710" lon="-2.5428900">
        <ele>531.8</ele>
        <time>2020-09-13T12:58:54Z</time>
      </trkpt>
      <trkpt lat="42.9005710" lon="-2.5428900">
        <ele>532.0</ele>
        <time>2020-09-13T12:58:58Z</time>
      </trkpt>
      <trkpt lat="42.9005710" lon="-2.5428900">
        <ele>531.8</ele>
        <time>2020-09-13T12:59:02Z</time>
      </trkpt>
      <trkpt lat="42.9005710" lon="-2.5428900">
        <ele>531.8</ele>
        <time>2020-09-13T12:59:06Z</time>
      </trkpt>
      <trkpt lat="42.9005710" lon="-2.5428900">
        <ele>532.0</ele>
        <time>2020-09-13T12:59:10Z</time>
      </trkpt>
      <trkpt lat="42.9005710" lon="-2.5428900">
        <ele>532.0</ele>
        <time>2020-09-13T12:59:14Z</time>
      </trkpt>
      <trkpt lat="42.9005710" lon="-2.5428900">
        <ele>532.0</ele>
        <time>2020-09-13T12:59:18Z</time>
      </trkpt>
      <trkpt lat="42.9005710" lon="-2.5428900">
        <ele>531.8</ele>
        <time>2020-09-13T12:59:22Z</time>
      </trkpt>
      <trkpt lat="42.9005710" lon="-2.5428900">
        <ele>531.8</ele>
        <time>2020-09-13T12:59:26Z</time>
      </trkpt>
      <trkpt lat="42.9005710" lon="-2.5428900">
        <ele>532.0</ele>
        <time>2020-09-13T12:59:30Z</time>
      </trkpt>
      <trkpt lat="42.9005710" lon="-2.5428900">
        <ele>532.0</ele>
        <time>2020-09-13T12:59:34Z</time>
      </trkpt>
      <trkpt lat="42.9005710" lon="-2.5428900">
        <ele>532.0</ele>
        <time>2020-09-13T12:59:38Z</time>
      </trkpt>
      <trkpt lat="42.9005710" lon="-2.5428900">
        <ele>531.8</ele>
        <time>2020-09-13T12:59:42Z</time>
      </trkpt>
      <trkpt lat="42.9005710" lon="-2.5428900">
        <ele>531.8</ele>
        <time>2020-09-13T12:59:46Z</time>
      </trkpt>
      <trkpt lat="42.9005710" lon="-2.5428900">
        <ele>532.0</ele>
        <time>2020-09-13T12:59:50Z</time>
      </trkpt>
      <trkpt lat="42.9005710" lon="-2.5428900">
        <ele>532.0</ele>
        <time>2020-09-13T12:59:54Z</time>
      </trkpt>
      <trkpt lat="42.9005710" lon="-2.5428900">
        <ele>531.8</ele>
        <time>2020-09-13T12:59:58Z</time>
      </trkpt>
      <trkpt lat="42.9005710" lon="-2.5428900">
        <ele>532.0</ele>
        <time>2020-09-13T13:00:02Z</time>
      </trkpt>
      <trkpt lat="42.9005710" lon="-2.5428900">
        <ele>532.0</ele>
        <time>2020-09-13T13:00:06Z</time>
      </trkpt>
      <trkpt lat="42.9005710" lon="-2.5428900">
        <ele>532.0</ele>
        <time>2020-09-13T13:00:10Z</time>
      </trkpt>
      <trkpt lat="42.9005710" lon="-2.5428900">
        <ele>532.0</ele>
        <time>2020-09-13T13:00:14Z</time>
      </trkpt>
      <trkpt lat="42.9005710" lon="-2.5428900">
        <ele>532.0</ele>
        <time>2020-09-13T13:00:18Z</time>
      </trkpt>
      <trkpt lat="42.9005710" lon="-2.5428900">
        <ele>531.8</ele>
        <time>2020-09-13T13:00:22Z</time>
      </trkpt>
      <trkpt lat="42.9005710" lon="-2.5428900">
        <ele>532.2</ele>
        <time>2020-09-13T13:00:26Z</time>
      </trkpt>
      <trkpt lat="42.9005710" lon="-2.5428900">
        <ele>532.4</ele>
        <time>2020-09-13T13:00:30Z</time>
      </trkpt>
      <trkpt lat="42.9005710" lon="-2.5428900">
        <ele>532.4</ele>
        <time>2020-09-13T13:00:34Z</time>
      </trkpt>
      <trkpt lat="42.9005710" lon="-2.5428900">
        <ele>532.0</ele>
        <time>2020-09-13T13:00:38Z</time>
      </trkpt>
      <trkpt lat="42.9005710" lon="-2.5428900">
        <ele>532.0</ele>
        <time>2020-09-13T13:00:42Z</time>
      </trkpt>
      <trkpt lat="42.9005710" lon="-2.5428900">
        <ele>532.0</ele>
        <time>2020-09-13T13:00:46Z</time>
      </trkpt>
      <trkpt lat="42.9005710" lon="-2.5428900">
        <ele>532.6</ele>
        <time>2020-09-13T13:00:50Z</time>
      </trkpt>
      <trkpt lat="42.9005710" lon="-2.5428900">
        <ele>532.4</ele>
        <time>2020-09-13T13:00:54Z</time>
      </trkpt>
      <trkpt lat="42.9005710" lon="-2.5428900">
        <ele>532.0</ele>
        <time>2020-09-13T13:00:58Z</time>
      </trkpt>
      <trkpt lat="42.9005710" lon="-2.5428900">
        <ele>532.0</ele>
        <time>2020-09-13T13:01:02Z</time>
      </trkpt>
      <trkpt lat="42.9005710" lon="-2.5428900">
        <ele>532.2</ele>
        <time>2020-09-13T13:01:06Z</time>
      </trkpt>
      <trkpt lat="42.9005710" lon="-2.5428900">
        <ele>532.0</ele>
        <time>2020-09-13T13:01:10Z</time>
      </trkpt>
      <trkpt lat="42.9005710" lon="-2.5428900">
        <ele>532.4</ele>
        <time>2020-09-13T13:01:14Z</time>
      </trkpt>
      <trkpt lat="42.9005710" lon="-2.5428900">
        <ele>532.4</ele>
        <time>2020-09-13T13:01:18Z</time>
      </trkpt>
      <trkpt lat="42.9005710" lon="-2.5428900">
        <ele>532.2</ele>
        <time>2020-09-13T13:01:22Z</time>
      </trkpt>
      <trkpt lat="42.9005710" lon="-2.5428900">
        <ele>532.4</ele>
        <time>2020-09-13T13:01:26Z</time>
      </trkpt>
      <trkpt lat="42.9005710" lon="-2.5428900">
        <ele>532.4</ele>
        <time>2020-09-13T13:01:30Z</time>
      </trkpt>
      <trkpt lat="42.9005710" lon="-2.5428900">
        <ele>532.2</ele>
        <time>2020-09-13T13:01:34Z</time>
      </trkpt>
      <trkpt lat="42.9005710" lon="-2.5428900">
        <ele>532.4</ele>
        <time>2020-09-13T13:01:38Z</time>
      </trkpt>
      <trkpt lat="42.9005710" lon="-2.5428900">
        <ele>532.8</ele>
        <time>2020-09-13T13:01:42Z</time>
      </trkpt>
      <trkpt lat="42.9005710" lon="-2.5428900">
        <ele>532.8</ele>
        <time>2020-09-13T13:01:46Z</time>
      </trkpt>
      <trkpt lat="42.9005710" lon="-2.5428900">
        <ele>532.8</ele>
        <time>2020-09-13T13:01:50Z</time>
      </trkpt>
      <trkpt lat="42.9005710" lon="-2.5428900">
        <ele>532.0</ele>
        <time>2020-09-13T13:01:54Z</time>
      </trkpt>
      <trkpt lat="42.9005710" lon="-2.5428900">
        <ele>532.4</ele>
        <time>2020-09-13T13:01:58Z</time>
      </trkpt>
      <trkpt lat="42.9005710" lon="-2.5428900">
        <ele>532.6</ele>
        <time>2020-09-13T13:02:02Z</time>
      </trkpt>
      <trkpt lat="42.9005710" lon="-2.5428900">
        <ele>532.4</ele>
        <time>2020-09-13T13:02:06Z</time>
      </trkpt>
      <trkpt lat="42.9005710" lon="-2.5428900">
        <ele>532.8</ele>
        <time>2020-09-13T13:02:10Z</time>
      </trkpt>
      <trkpt lat="42.9005710" lon="-2.5428900">
        <ele>532.6</ele>
        <time>2020-09-13T13:02:14Z</time>
      </trkpt>
      <trkpt lat="42.9005710" lon="-2.5428900">
        <ele>532.2</ele>
        <time>2020-09-13T13:02:18Z</time>
      </trkpt>
      <trkpt lat="42.9005710" lon="-2.5428900">
        <ele>532.6</ele>
        <time>2020-09-13T13:02:22Z</time>
      </trkpt>
      <trkpt lat="42.9005710" lon="-2.5428900">
        <ele>532.2</ele>
        <time>2020-09-13T13:02:26Z</time>
      </trkpt>
      <trkpt lat="42.9005710" lon="-2.5428900">
        <ele>532.4</ele>
        <time>2020-09-13T13:02:30Z</time>
      </trkpt>
      <trkpt lat="42.9005710" lon="-2.5428900">
        <ele>532.2</ele>
        <time>2020-09-13T13:02:34Z</time>
      </trkpt>
      <trkpt lat="42.9005710" lon="-2.5428900">
        <ele>532.4</ele>
        <time>2020-09-13T13:02:38Z</time>
      </trkpt>
      <trkpt lat="42.9005710" lon="-2.5428900">
        <ele>532.6</ele>
        <time>2020-09-13T13:02:42Z</time>
      </trkpt>
      <trkpt lat="42.9005710" lon="-2.5428900">
        <ele>532.6</ele>
        <time>2020-09-13T13:02:46Z</time>
      </trkpt>
      <trkpt lat="42.9005710" lon="-2.5428900">
        <ele>532.6</ele>
        <time>2020-09-13T13:02:50Z</time>
      </trkpt>
      <trkpt lat="42.9005710" lon="-2.5428900">
        <ele>532.2</ele>
        <time>2020-09-13T13:02:54Z</time>
      </trkpt>
      <trkpt lat="42.9005710" lon="-2.5428900">
        <ele>532.6</ele>
        <time>2020-09-13T13:02:58Z</time>
      </trkpt>
      <trkpt lat="42.9005710" lon="-2.5428900">
        <ele>532.2</ele>
        <time>2020-09-13T13:03:02Z</time>
      </trkpt>
      <trkpt lat="42.9005710" lon="-2.5428900">
        <ele>532.2</ele>
        <time>2020-09-13T13:03:06Z</time>
      </trkpt>
      <trkpt lat="42.9005710" lon="-2.5428900">
        <ele>532.8</ele>
        <time>2020-09-13T13:03:10Z</time>
      </trkpt>
      <trkpt lat="42.9005710" lon="-2.5428900">
        <ele>532.8</ele>
        <time>2020-09-13T13:03:14Z</time>
      </trkpt>
      <trkpt lat="42.9005710" lon="-2.5428900">
        <ele>532.8</ele>
        <time>2020-09-13T13:03:18Z</time>
      </trkpt>
      <trkpt lat="42.9005710" lon="-2.5428900">
        <ele>532.4</ele>
        <time>2020-09-13T13:03:22Z</time>
      </trkpt>
      <trkpt lat="42.9005710" lon="-2.5428900">
        <ele>532.4</ele>
        <time>2020-09-13T13:03:26Z</time>
      </trkpt>
      <trkpt lat="42.9005710" lon="-2.5428900">
        <ele>532.4</ele>
        <time>2020-09-13T13:03:30Z</time>
      </trkpt>
      <trkpt lat="42.9005710" lon="-2.5428900">
        <ele>533.2</ele>
        <time>2020-09-13T13:03:34Z</time>
      </trkpt>
      <trkpt lat="42.9005710" lon="-2.5428900">
        <ele>533.0</ele>
        <time>2020-09-13T13:03:38Z</time>
      </trkpt>
      <trkpt lat="42.9005710" lon="-2.5428900">
        <ele>532.8</ele>
        <time>2020-09-13T13:03:42Z</time>
      </trkpt>
      <trkpt lat="42.9005710" lon="-2.5428900">
        <ele>533.0</ele>
        <time>2020-09-13T13:03:46Z</time>
      </trkpt>
      <trkpt lat="42.9005710" lon="-2.5428900">
        <ele>532.8</ele>
        <time>2020-09-13T13:03:50Z</time>
      </trkpt>
      <trkpt lat="42.9005710" lon="-2.5428900">
        <ele>532.2</ele>
        <time>2020-09-13T13:03:54Z</time>
      </trkpt>
      <trkpt lat="42.9005710" lon="-2.5428900">
        <ele>532.8</ele>
        <time>2020-09-13T13:03:58Z</time>
      </trkpt>
      <trkpt lat="42.9005710" lon="-2.5428900">
        <ele>532.8</ele>
        <time>2020-09-13T13:04:02Z</time>
      </trkpt>
      <trkpt lat="42.9005710" lon="-2.5428900">
        <ele>532.8</ele>
        <time>2020-09-13T13:04:06Z</time>
      </trkpt>
      <trkpt lat="42.9005710" lon="-2.5428900">
        <ele>532.8</ele>
        <time>2020-09-13T13:04:10Z</time>
      </trkpt>
      <trkpt lat="42.9005710" lon="-2.5428900">
        <ele>532.4</ele>
        <time>2020-09-13T13:04:14Z</time>
      </trkpt>
      <trkpt lat="42.9005710" lon="-2.5428900">
        <ele>532.6</ele>
        <time>2020-09-13T13:04:18Z</time>
      </trkpt>
      <trkpt lat="42.9005710" lon="-2.5428900">
        <ele>532.6</ele>
        <time>2020-09-13T13:04:22Z</time>
      </trkpt>
      <trkpt lat="42.9005710" lon="-2.5428900">
        <ele>532.8</ele>
        <time>2020-09-13T13:04:26Z</time>
      </trkpt>
      <trkpt lat="42.9005710" lon="-2.5428900">
        <ele>532.6</ele>
        <time>2020-09-13T13:04:30Z</time>
      </trkpt>
      <trkpt lat="42.9005710" lon="-2.5428900">
        <ele>532.6</ele>
        <time>2020-09-13T13:04:34Z</time>
      </trkpt>
      <trkpt lat="42.9005710" lon="-2.5428900">
        <ele>532.4</ele>
        <time>2020-09-13T13:04:38Z</time>
      </trkpt>
      <trkpt lat="42.9005710" lon="-2.5428900">
        <ele>532.4</ele>
        <time>2020-09-13T13:04:42Z</time>
      </trkpt>
      <trkpt lat="42.9005710" lon="-2.5428900">
        <ele>532.8</ele>
        <time>2020-09-13T13:04:46Z</time>
      </trkpt>
      <trkpt lat="42.9005710" lon="-2.5428900">
        <ele>532.4</ele>
        <time>2020-09-13T13:04:50Z</time>
      </trkpt>
      <trkpt lat="42.9005710" lon="-2.5428900">
        <ele>532.6</ele>
        <time>2020-09-13T13:04:54Z</time>
      </trkpt>
      <trkpt lat="42.9005710" lon="-2.5428900">
        <ele>532.6</ele>
        <time>2020-09-13T13:04:58Z</time>
      </trkpt>
      <trkpt lat="42.9005710" lon="-2.5428900">
        <ele>532.6</ele>
        <time>2020-09-13T13:05:02Z</time>
      </trkpt>
      <trkpt lat="42.9005710" lon="-2.5428900">
        <ele>532.6</ele>
        <time>2020-09-13T13:05:06Z</time>
      </trkpt>
      <trkpt lat="42.9005710" lon="-2.5428900">
        <ele>532.4</ele>
        <time>2020-09-13T13:05:10Z</time>
      </trkpt>
      <trkpt lat="42.9005710" lon="-2.5428900">
        <ele>532.8</ele>
        <time>2020-09-13T13:05:14Z</time>
      </trkpt>
      <trkpt lat="42.9005710" lon="-2.5428900">
        <ele>532.8</ele>
        <time>2020-09-13T13:05:18Z</time>
      </trkpt>
      <trkpt lat="42.9005710" lon="-2.5428900">
        <ele>532.4</ele>
        <time>2020-09-13T13:05:22Z</time>
      </trkpt>
      <trkpt lat="42.9005710" lon="-2.5428900">
        <ele>532.2</ele>
        <time>2020-09-13T13:05:26Z</time>
      </trkpt>
      <trkpt lat="42.9005710" lon="-2.5428900">
        <ele>532.4</ele>
        <time>2020-09-13T13:05:30Z</time>
      </trkpt>
      <trkpt lat="42.9005710" lon="-2.5428900">
        <ele>532.8</ele>
        <time>2020-09-13T13:05:34Z</time>
      </trkpt>
      <trkpt lat="42.9005710" lon="-2.5428900">
        <ele>532.8</ele>
        <time>2020-09-13T13:05:38Z</time>
      </trkpt>
      <trkpt lat="42.9005710" lon="-2.5428900">
        <ele>532.8</ele>
        <time>2020-09-13T13:05:42Z</time>
      </trkpt>
      <trkpt lat="42.9005710" lon="-2.5428900">
        <ele>532.8</ele>
        <time>2020-09-13T13:05:46Z</time>
      </trkpt>
      <trkpt lat="42.9005710" lon="-2.5428900">
        <ele>532.8</ele>
        <time>2020-09-13T13:05:50Z</time>
      </trkpt>
      <trkpt lat="42.9005710" lon="-2.5428900">
        <ele>532.6</ele>
        <time>2020-09-13T13:05:54Z</time>
      </trkpt>
      <trkpt lat="42.9005710" lon="-2.5428900">
        <ele>532.6</ele>
        <time>2020-09-13T13:05:58Z</time>
      </trkpt>
      <trkpt lat="42.9005710" lon="-2.5428900">
        <ele>532.8</ele>
        <time>2020-09-13T13:06:02Z</time>
      </trkpt>
      <trkpt lat="42.9005710" lon="-2.5428900">
        <ele>532.8</ele>
        <time>2020-09-13T13:06:06Z</time>
      </trkpt>
      <trkpt lat="42.9005710" lon="-2.5428900">
        <ele>532.4</ele>
        <time>2020-09-13T13:06:10Z</time>
      </trkpt>
      <trkpt lat="42.9005710" lon="-2.5428900">
        <ele>532.8</ele>
        <time>2020-09-13T13:06:14Z</time>
      </trkpt>
      <trkpt lat="42.9005710" lon="-2.5428900">
        <ele>532.8</ele>
        <time>2020-09-13T13:06:18Z</time>
      </trkpt>
      <trkpt lat="42.9005710" lon="-2.5428900">
        <ele>532.8</ele>
        <time>2020-09-13T13:06:22Z</time>
      </trkpt>
      <trkpt lat="42.9005710" lon="-2.5428900">
        <ele>532.8</ele>
        <time>2020-09-13T13:06:26Z</time>
      </trkpt>
      <trkpt lat="42.9005710" lon="-2.5428900">
        <ele>532.8</ele>
        <time>2020-09-13T13:06:30Z</time>
      </trkpt>
      <trkpt lat="42.9005710" lon="-2.5428900">
        <ele>532.2</ele>
        <time>2020-09-13T13:06:34Z</time>
      </trkpt>
      <trkpt lat="42.9005710" lon="-2.5428900">
        <ele>532.8</ele>
        <time>2020-09-13T13:06:38Z</time>
      </trkpt>
      <trkpt lat="42.9005710" lon="-2.5428900">
        <ele>532.6</ele>
        <time>2020-09-13T13:06:42Z</time>
      </trkpt>
      <trkpt lat="42.9005710" lon="-2.5428900">
        <ele>532.6</ele>
        <time>2020-09-13T13:06:46Z</time>
      </trkpt>
      <trkpt lat="42.9005710" lon="-2.5428900">
        <ele>533.0</ele>
        <time>2020-09-13T13:06:50Z</time>
      </trkpt>
      <trkpt lat="42.9005710" lon="-2.5428900">
        <ele>532.4</ele>
        <time>2020-09-13T13:06:54Z</time>
      </trkpt>
      <trkpt lat="42.9005710" lon="-2.5428900">
        <ele>532.8</ele>
        <time>2020-09-13T13:06:58Z</time>
      </trkpt>
      <trkpt lat="42.9005710" lon="-2.5428900">
        <ele>533.0</ele>
        <time>2020-09-13T13:07:02Z</time>
      </trkpt>
      <trkpt lat="42.9005710" lon="-2.5428900">
        <ele>533.0</ele>
        <time>2020-09-13T13:07:06Z</time>
      </trkpt>
      <trkpt lat="42.9005710" lon="-2.5428900">
        <ele>532.8</ele>
        <time>2020-09-13T13:07:10Z</time>
      </trkpt>
      <trkpt lat="42.9005710" lon="-2.5428900">
        <ele>532.6</ele>
        <time>2020-09-13T13:07:14Z</time>
      </trkpt>
      <trkpt lat="42.9005710" lon="-2.5428900">
        <ele>532.6</ele>
        <time>2020-09-13T13:07:18Z</time>
      </trkpt>
      <trkpt lat="42.9005710" lon="-2.5428900">
        <ele>532.6</ele>
        <time>2020-09-13T13:07:22Z</time>
      </trkpt>
      <trkpt lat="42.9005710" lon="-2.5428900">
        <ele>532.4</ele>
        <time>2020-09-13T13:07:26Z</time>
      </trkpt>
      <trkpt lat="42.9005710" lon="-2.5428900">
        <ele>532.8</ele>
        <time>2020-09-13T13:07:30Z</time>
      </trkpt>
      <trkpt lat="42.9005710" lon="-2.5428900">
        <ele>532.6</ele>
        <time>2020-09-13T13:07:34Z</time>
      </trkpt>
      <trkpt lat="42.9005710" lon="-2.5428900">
        <ele>532.8</ele>
        <time>2020-09-13T13:07:38Z</time>
      </trkpt>
      <trkpt lat="42.9005710" lon="-2.5428900">
        <ele>532.8</ele>
        <time>2020-09-13T13:07:42Z</time>
      </trkpt>
      <trkpt lat="42.9005710" lon="-2.5428900">
        <ele>532.8</ele>
        <time>2020-09-13T13:07:46Z</time>
      </trkpt>
      <trkpt lat="42.9005710" lon="-2.5428900">
        <ele>533.0</ele>
        <time>2020-09-13T13:07:50Z</time>
      </trkpt>
      <trkpt lat="42.9005710" lon="-2.5428900">
        <ele>532.8</ele>
        <time>2020-09-13T13:07:54Z</time>
      </trkpt>
      <trkpt lat="42.9005710" lon="-2.5428900">
        <ele>532.8</ele>
        <time>2020-09-13T13:07:58Z</time>
      </trkpt>
      <trkpt lat="42.9005710" lon="-2.5428900">
        <ele>532.6</ele>
        <time>2020-09-13T13:08:02Z</time>
      </trkpt>
      <trkpt lat="42.9005710" lon="-2.5428900">
        <ele>532.6</ele>
        <time>2020-09-13T13:08:06Z</time>
      </trkpt>
      <trkpt lat="42.9005710" lon="-2.5428900">
        <ele>532.6</ele>
        <time>2020-09-13T13:08:10Z</time>
      </trkpt>
      <trkpt lat="42.9005710" lon="-2.5428900">
        <ele>532.6</ele>
        <time>2020-09-13T13:08:14Z</time>
      </trkpt>
      <trkpt lat="42.9005710" lon="-2.5428900">
        <ele>532.6</ele>
        <time>2020-09-13T13:08:18Z</time>
      </trkpt>
      <trkpt lat="42.9005710" lon="-2.5428900">
        <ele>532.6</ele>
        <time>2020-09-13T13:08:22Z</time>
      </trkpt>
      <trkpt lat="42.9005710" lon="-2.5428900">
        <ele>532.8</ele>
        <time>2020-09-13T13:08:26Z</time>
      </trkpt>
      <trkpt lat="42.9005710" lon="-2.5428900">
        <ele>533.0</ele>
        <time>2020-09-13T13:08:30Z</time>
      </trkpt>
      <trkpt lat="42.9005710" lon="-2.5428900">
        <ele>532.2</ele>
        <time>2020-09-13T13:08:34Z</time>
      </trkpt>
      <trkpt lat="42.9005710" lon="-2.5428900">
        <ele>532.6</ele>
        <time>2020-09-13T13:08:38Z</time>
      </trkpt>
      <trkpt lat="42.9005710" lon="-2.5428900">
        <ele>532.6</ele>
        <time>2020-09-13T13:08:42Z</time>
      </trkpt>
      <trkpt lat="42.9005710" lon="-2.5428900">
        <ele>532.6</ele>
        <time>2020-09-13T13:08:46Z</time>
      </trkpt>
      <trkpt lat="42.9005710" lon="-2.5428900">
        <ele>532.6</ele>
        <time>2020-09-13T13:08:50Z</time>
      </trkpt>
      <trkpt lat="42.9005710" lon="-2.5428900">
        <ele>532.6</ele>
        <time>2020-09-13T13:08:54Z</time>
      </trkpt>
      <trkpt lat="42.9005710" lon="-2.5428900">
        <ele>532.8</ele>
        <time>2020-09-13T13:08:58Z</time>
      </trkpt>
      <trkpt lat="42.9005710" lon="-2.5428900">
        <ele>532.6</ele>
        <time>2020-09-13T13:09:02Z</time>
      </trkpt>
      <trkpt lat="42.9005710" lon="-2.5428900">
        <ele>532.8</ele>
        <time>2020-09-13T13:09:06Z</time>
      </trkpt>
      <trkpt lat="42.9005710" lon="-2.5428900">
        <ele>532.8</ele>
        <time>2020-09-13T13:09:10Z</time>
      </trkpt>
      <trkpt lat="42.9005710" lon="-2.5428900">
        <ele>532.8</ele>
        <time>2020-09-13T13:09:14Z</time>
      </trkpt>
      <trkpt lat="42.9005710" lon="-2.5428900">
        <ele>533.0</ele>
        <time>2020-09-13T13:09:18Z</time>
      </trkpt>
      <trkpt lat="42.9005710" lon="-2.5428900">
        <ele>532.6</ele>
        <time>2020-09-13T13:09:22Z</time>
      </trkpt>
      <trkpt lat="42.9005710" lon="-2.5428900">
        <ele>532.4</ele>
        <time>2020-09-13T13:09:26Z</time>
      </trkpt>
      <trkpt lat="42.9005710" lon="-2.5428900">
        <ele>532.8</ele>
        <time>2020-09-13T13:09:30Z</time>
      </trkpt>
      <trkpt lat="42.9005710" lon="-2.5428900">
        <ele>532.8</ele>
        <time>2020-09-13T13:09:34Z</time>
      </trkpt>
      <trkpt lat="42.9005710" lon="-2.5428900">
        <ele>532.8</ele>
        <time>2020-09-13T13:09:38Z</time>
      </trkpt>
      <trkpt lat="42.9005710" lon="-2.5428900">
        <ele>532.8</ele>
        <time>2020-09-13T13:09:42Z</time>
      </trkpt>
      <trkpt lat="42.9005710" lon="-2.5428900">
        <ele>532.6</ele>
        <time>2020-09-13T13:09:46Z</time>
      </trkpt>
      <trkpt lat="42.9005710" lon="-2.5428900">
        <ele>532.8</ele>
        <time>2020-09-13T13:09:50Z</time>
      </trkpt>
      <trkpt lat="42.9005710" lon="-2.5428900">
        <ele>533.0</ele>
        <time>2020-09-13T13:09:54Z</time>
      </trkpt>
      <trkpt lat="42.9005710" lon="-2.5428900">
        <ele>532.8</ele>
        <time>2020-09-13T13:09:58Z</time>
      </trkpt>
      <trkpt lat="42.9005710" lon="-2.5428900">
        <ele>532.6</ele>
        <time>2020-09-13T13:10:02Z</time>
      </trkpt>
      <trkpt lat="42.9005710" lon="-2.5428900">
        <ele>532.8</ele>
        <time>2020-09-13T13:10:06Z</time>
      </trkpt>
      <trkpt lat="42.9005710" lon="-2.5428900">
        <ele>532.8</ele>
        <time>2020-09-13T13:10:10Z</time>
      </trkpt>
      <trkpt lat="42.9005710" lon="-2.5428900">
        <ele>532.8</ele>
        <time>2020-09-13T13:10:14Z</time>
      </trkpt>
      <trkpt lat="42.9005710" lon="-2.5428900">
        <ele>533.0</ele>
        <time>2020-09-13T13:10:18Z</time>
      </trkpt>
      <trkpt lat="42.9005710" lon="-2.5428900">
        <ele>532.8</ele>
        <time>2020-09-13T13:10:22Z</time>
      </trkpt>
      <trkpt lat="42.9005710" lon="-2.5428900">
        <ele>532.8</ele>
        <time>2020-09-13T13:10:26Z</time>
      </trkpt>
      <trkpt lat="42.9005710" lon="-2.5428900">
        <ele>532.6</ele>
        <time>2020-09-13T13:10:30Z</time>
      </trkpt>
      <trkpt lat="42.9005710" lon="-2.5428900">
        <ele>532.6</ele>
        <time>2020-09-13T13:10:34Z</time>
      </trkpt>
      <trkpt lat="42.9005710" lon="-2.5428900">
        <ele>532.8</ele>
        <time>2020-09-13T13:10:38Z</time>
      </trkpt>
      <trkpt lat="42.9005710" lon="-2.5428900">
        <ele>532.6</ele>
        <time>2020-09-13T13:10:42Z</time>
      </trkpt>
      <trkpt lat="42.9005710" lon="-2.5428900">
        <ele>532.6</ele>
        <time>2020-09-13T13:10:46Z</time>
      </trkpt>
      <trkpt lat="42.9005710" lon="-2.5428900">
        <ele>532.8</ele>
        <time>2020-09-13T13:10:50Z</time>
      </trkpt>
      <trkpt lat="42.9005710" lon="-2.5428900">
        <ele>532.6</ele>
        <time>2020-09-13T13:10:54Z</time>
      </trkpt>
      <trkpt lat="42.9005710" lon="-2.5428900">
        <ele>533.0</ele>
        <time>2020-09-13T13:10:58Z</time>
      </trkpt>
      <trkpt lat="42.9005710" lon="-2.5428900">
        <ele>532.6</ele>
        <time>2020-09-13T13:11:02Z</time>
      </trkpt>
      <trkpt lat="42.9005710" lon="-2.5428900">
        <ele>532.8</ele>
        <time>2020-09-13T13:11:06Z</time>
      </trkpt>
      <trkpt lat="42.9005710" lon="-2.5428900">
        <ele>532.4</ele>
        <time>2020-09-13T13:11:10Z</time>
      </trkpt>
      <trkpt lat="42.9005710" lon="-2.5428900">
        <ele>533.0</ele>
        <time>2020-09-13T13:11:14Z</time>
      </trkpt>
      <trkpt lat="42.9005710" lon="-2.5428900">
        <ele>532.4</ele>
        <time>2020-09-13T13:11:18Z</time>
      </trkpt>
      <trkpt lat="42.9005710" lon="-2.5428900">
        <ele>533.2</ele>
        <time>2020-09-13T13:11:22Z</time>
      </trkpt>
      <trkpt lat="42.9005710" lon="-2.5428900">
        <ele>532.8</ele>
        <time>2020-09-13T13:11:26Z</time>
      </trkpt>
      <trkpt lat="42.9005710" lon="-2.5428900">
        <ele>533.2</ele>
        <time>2020-09-13T13:11:30Z</time>
      </trkpt>
      <trkpt lat="42.9005710" lon="-2.5428900">
        <ele>533.0</ele>
        <time>2020-09-13T13:11:34Z</time>
      </trkpt>
      <trkpt lat="42.9005710" lon="-2.5428900">
        <ele>533.0</ele>
        <time>2020-09-13T13:11:38Z</time>
      </trkpt>
      <trkpt lat="42.9005710" lon="-2.5428900">
        <ele>532.8</ele>
        <time>2020-09-13T13:11:42Z</time>
      </trkpt>
      <trkpt lat="42.9005710" lon="-2.5428900">
        <ele>532.8</ele>
        <time>2020-09-13T13:11:46Z</time>
      </trkpt>
      <trkpt lat="42.9005710" lon="-2.5428900">
        <ele>532.8</ele>
        <time>2020-09-13T13:11:50Z</time>
      </trkpt>
      <trkpt lat="42.9005710" lon="-2.5428900">
        <ele>532.8</ele>
        <time>2020-09-13T13:11:54Z</time>
      </trkpt>
      <trkpt lat="42.9005710" lon="-2.5428900">
        <ele>532.6</ele>
        <time>2020-09-13T13:11:58Z</time>
      </trkpt>
      <trkpt lat="42.9005710" lon="-2.5428900">
        <ele>533.0</ele>
        <time>2020-09-13T13:12:02Z</time>
      </trkpt>
      <trkpt lat="42.9005710" lon="-2.5428900">
        <ele>533.2</ele>
        <time>2020-09-13T13:12:06Z</time>
      </trkpt>
      <trkpt lat="42.9005710" lon="-2.5428900">
        <ele>533.0</ele>
        <time>2020-09-13T13:12:10Z</time>
      </trkpt>
      <trkpt lat="42.9005710" lon="-2.5428900">
        <ele>532.8</ele>
        <time>2020-09-13T13:12:14Z</time>
      </trkpt>
      <trkpt lat="42.9005710" lon="-2.5428900">
        <ele>533.0</ele>
        <time>2020-09-13T13:12:18Z</time>
      </trkpt>
      <trkpt lat="42.9005710" lon="-2.5428900">
        <ele>533.0</ele>
        <time>2020-09-13T13:12:22Z</time>
      </trkpt>
      <trkpt lat="42.9005710" lon="-2.5428900">
        <ele>532.8</ele>
        <time>2020-09-13T13:12:26Z</time>
      </trkpt>
      <trkpt lat="42.9005710" lon="-2.5428900">
        <ele>533.2</ele>
        <time>2020-09-13T13:12:30Z</time>
      </trkpt>
      <trkpt lat="42.9005710" lon="-2.5428900">
        <ele>533.0</ele>
        <time>2020-09-13T13:12:34Z</time>
      </trkpt>
      <trkpt lat="42.9005710" lon="-2.5428900">
        <ele>533.0</ele>
        <time>2020-09-13T13:12:38Z</time>
      </trkpt>
      <trkpt lat="42.9005710" lon="-2.5428900">
        <ele>532.8</ele>
        <time>2020-09-13T13:12:42Z</time>
      </trkpt>
      <trkpt lat="42.9005710" lon="-2.5428900">
        <ele>533.0</ele>
        <time>2020-09-13T13:12:46Z</time>
      </trkpt>
      <trkpt lat="42.9005710" lon="-2.5428900">
        <ele>532.8</ele>
        <time>2020-09-13T13:12:50Z</time>
      </trkpt>
      <trkpt lat="42.9005710" lon="-2.5428900">
        <ele>533.0</ele>
        <time>2020-09-13T13:12:54Z</time>
      </trkpt>
      <trkpt lat="42.9005710" lon="-2.5428900">
        <ele>533.0</ele>
        <time>2020-09-13T13:12:58Z</time>
      </trkpt>
      <trkpt lat="42.9005710" lon="-2.5428900">
        <ele>533.0</ele>
        <time>2020-09-13T13:13:02Z</time>
      </trkpt>
      <trkpt lat="42.9005710" lon="-2.5428900">
        <ele>533.4</ele>
        <time>2020-09-13T13:13:06Z</time>
      </trkpt>
      <trkpt lat="42.9005710" lon="-2.5428900">
        <ele>533.0</ele>
        <time>2020-09-13T13:13:10Z</time>
      </trkpt>
      <trkpt lat="42.9005710" lon="-2.5428900">
        <ele>532.8</ele>
        <time>2020-09-13T13:13:14Z</time>
      </trkpt>
      <trkpt lat="42.9005710" lon="-2.5428900">
        <ele>533.0</ele>
        <time>2020-09-13T13:13:18Z</time>
      </trkpt>
      <trkpt lat="42.9005710" lon="-2.5428900">
        <ele>533.0</ele>
        <time>2020-09-13T13:13:22Z</time>
      </trkpt>
      <trkpt lat="42.9005710" lon="-2.5428900">
        <ele>533.2</ele>
        <time>2020-09-13T13:13:26Z</time>
      </trkpt>
      <trkpt lat="42.9005710" lon="-2.5428900">
        <ele>533.0</ele>
        <time>2020-09-13T13:13:30Z</time>
      </trkpt>
      <trkpt lat="42.9005710" lon="-2.5428900">
        <ele>533.0</ele>
        <time>2020-09-13T13:13:34Z</time>
      </trkpt>
      <trkpt lat="42.9005710" lon="-2.5428900">
        <ele>533.2</ele>
        <time>2020-09-13T13:13:38Z</time>
      </trkpt>
      <trkpt lat="42.9005710" lon="-2.5428900">
        <ele>533.2</ele>
        <time>2020-09-13T13:13:42Z</time>
      </trkpt>
      <trkpt lat="42.9005710" lon="-2.5428900">
        <ele>533.2</ele>
        <time>2020-09-13T13:13:46Z</time>
      </trkpt>
      <trkpt lat="42.9005710" lon="-2.5428900">
        <ele>533.0</ele>
        <time>2020-09-13T13:13:50Z</time>
      </trkpt>
      <trkpt lat="42.9005710" lon="-2.5428900">
        <ele>533.2</ele>
        <time>2020-09-13T13:13:54Z</time>
      </trkpt>
      <trkpt lat="42.9005710" lon="-2.5428900">
        <ele>533.4</ele>
        <time>2020-09-13T13:13:58Z</time>
      </trkpt>
      <trkpt lat="42.9005710" lon="-2.5428900">
        <ele>533.0</ele>
        <time>2020-09-13T13:14:02Z</time>
      </trkpt>
      <trkpt lat="42.9005710" lon="-2.5428900">
        <ele>533.2</ele>
        <time>2020-09-13T13:14:06Z</time>
      </trkpt>
      <trkpt lat="42.9005710" lon="-2.5428900">
        <ele>533.4</ele>
        <time>2020-09-13T13:14:10Z</time>
      </trkpt>
      <trkpt lat="42.9005710" lon="-2.5428900">
        <ele>533.0</ele>
        <time>2020-09-13T13:14:14Z</time>
      </trkpt>
      <trkpt lat="42.9005710" lon="-2.5428900">
        <ele>533.0</ele>
        <time>2020-09-13T13:14:18Z</time>
      </trkpt>
      <trkpt lat="42.9005710" lon="-2.5428900">
        <ele>533.4</ele>
        <time>2020-09-13T13:14:22Z</time>
      </trkpt>
      <trkpt lat="42.9005710" lon="-2.5428900">
        <ele>533.0</ele>
        <time>2020-09-13T13:14:26Z</time>
      </trkpt>
      <trkpt lat="42.9005710" lon="-2.5428900">
        <ele>533.6</ele>
        <time>2020-09-13T13:14:30Z</time>
      </trkpt>
      <trkpt lat="42.9005710" lon="-2.5428900">
        <ele>533.4</ele>
        <time>2020-09-13T13:14:34Z</time>
      </trkpt>
      <trkpt lat="42.9005710" lon="-2.5428900">
        <ele>533.4</ele>
        <time>2020-09-13T13:14:38Z</time>
      </trkpt>
      <trkpt lat="42.9005710" lon="-2.5428900">
        <ele>533.2</ele>
        <time>2020-09-13T13:14:42Z</time>
      </trkpt>
      <trkpt lat="42.9005710" lon="-2.5428900">
        <ele>533.2</ele>
        <time>2020-09-13T13:14:46Z</time>
      </trkpt>
      <trkpt lat="42.9005710" lon="-2.5428900">
        <ele>533.2</ele>
        <time>2020-09-13T13:14:50Z</time>
      </trkpt>
      <trkpt lat="42.9005710" lon="-2.5428900">
        <ele>533.0</ele>
        <time>2020-09-13T13:14:54Z</time>
      </trkpt>
      <trkpt lat="42.9005710" lon="-2.5428900">
        <ele>533.4</ele>
        <time>2020-09-13T13:14:58Z</time>
      </trkpt>
      <trkpt lat="42.9005710" lon="-2.5428900">
        <ele>533.2</ele>
        <time>2020-09-13T13:15:02Z</time>
      </trkpt>
      <trkpt lat="42.9005710" lon="-2.5428900">
        <ele>532.6</ele>
        <time>2020-09-13T13:15:06Z</time>
      </trkpt>
      <trkpt lat="42.9005710" lon="-2.5428900">
        <ele>532.8</ele>
        <time>2020-09-13T13:15:10Z</time>
      </trkpt>
      <trkpt lat="42.9005710" lon="-2.5428900">
        <ele>532.6</ele>
        <time>2020-09-13T13:15:14Z</time>
      </trkpt>
      <trkpt lat="42.9005710" lon="-2.5428900">
        <ele>533.0</ele>
        <time>2020-09-13T13:15:18Z</time>
      </trkpt>
      <trkpt lat="42.9005710" lon="-2.5428900">
        <ele>532.8</ele>
        <time>2020-09-13T13:15:22Z</time>
      </trkpt>
      <trkpt lat="42.9005710" lon="-2.5428900">
        <ele>533.0</ele>
        <time>2020-09-13T13:15:26Z</time>
      </trkpt>
      <trkpt lat="42.9005710" lon="-2.5428900">
        <ele>533.0</ele>
        <time>2020-09-13T13:15:30Z</time>
      </trkpt>
      <trkpt lat="42.9005710" lon="-2.5428900">
        <ele>532.8</ele>
        <time>2020-09-13T13:15:34Z</time>
      </trkpt>
      <trkpt lat="42.9005710" lon="-2.5428900">
        <ele>533.0</ele>
        <time>2020-09-13T13:15:38Z</time>
      </trkpt>
      <trkpt lat="42.9005710" lon="-2.5428900">
        <ele>532.8</ele>
        <time>2020-09-13T13:15:42Z</time>
      </trkpt>
      <trkpt lat="42.9005710" lon="-2.5428900">
        <ele>533.2</ele>
        <time>2020-09-13T13:15:46Z</time>
      </trkpt>
      <trkpt lat="42.9005710" lon="-2.5428900">
        <ele>533.4</ele>
        <time>2020-09-13T13:15:50Z</time>
      </trkpt>
      <trkpt lat="42.9005710" lon="-2.5428900">
        <ele>532.8</ele>
        <time>2020-09-13T13:15:54Z</time>
      </trkpt>
      <trkpt lat="42.9005710" lon="-2.5428900">
        <ele>533.4</ele>
        <time>2020-09-13T13:15:58Z</time>
      </trkpt>
      <trkpt lat="42.9005710" lon="-2.5428900">
        <ele>533.2</ele>
        <time>2020-09-13T13:16:02Z</time>
      </trkpt>
      <trkpt lat="42.9005710" lon="-2.5428900">
        <ele>533.0</ele>
        <time>2020-09-13T13:16:06Z</time>
      </trkpt>
      <trkpt lat="42.9005710" lon="-2.5428900">
        <ele>533.2</ele>
        <time>2020-09-13T13:16:10Z</time>
      </trkpt>
      <trkpt lat="42.9005710" lon="-2.5428900">
        <ele>533.0</ele>
        <time>2020-09-13T13:16:14Z</time>
      </trkpt>
      <trkpt lat="42.9005710" lon="-2.5428900">
        <ele>533.0</ele>
        <time>2020-09-13T13:16:18Z</time>
      </trkpt>
      <trkpt lat="42.9005710" lon="-2.5428900">
        <ele>533.2</ele>
        <time>2020-09-13T13:16:22Z</time>
      </trkpt>
      <trkpt lat="42.9005710" lon="-2.5428900">
        <ele>533.4</ele>
        <time>2020-09-13T13:16:26Z</time>
      </trkpt>
      <trkpt lat="42.9005710" lon="-2.5428900">
        <ele>532.8</ele>
        <time>2020-09-13T13:16:30Z</time>
      </trkpt>
      <trkpt lat="42.9005710" lon="-2.5428900">
        <ele>533.0</ele>
        <time>2020-09-13T13:16:34Z</time>
      </trkpt>
      <trkpt lat="42.9005710" lon="-2.5428900">
        <ele>533.4</ele>
        <time>2020-09-13T13:16:38Z</time>
      </trkpt>
      <trkpt lat="42.9005710" lon="-2.5428900">
        <ele>533.2</ele>
        <time>2020-09-13T13:16:42Z</time>
      </trkpt>
      <trkpt lat="42.9005710" lon="-2.5428900">
        <ele>533.4</ele>
        <time>2020-09-13T13:16:46Z</time>
      </trkpt>
      <trkpt lat="42.9005710" lon="-2.5428900">
        <ele>533.2</ele>
        <time>2020-09-13T13:16:50Z</time>
      </trkpt>
      <trkpt lat="42.9005710" lon="-2.5428900">
        <ele>533.4</ele>
        <time>2020-09-13T13:16:54Z</time>
      </trkpt>
      <trkpt lat="42.9005710" lon="-2.5428900">
        <ele>533.4</ele>
        <time>2020-09-13T13:16:58Z</time>
      </trkpt>
      <trkpt lat="42.9005710" lon="-2.5428900">
        <ele>533.4</ele>
        <time>2020-09-13T13:17:02Z</time>
      </trkpt>
      <trkpt lat="42.9005710" lon="-2.5428900">
        <ele>533.4</ele>
        <time>2020-09-13T13:17:06Z</time>
      </trkpt>
      <trkpt lat="42.9005710" lon="-2.5428900">
        <ele>533.4</ele>
        <time>2020-09-13T13:17:10Z</time>
      </trkpt>
      <trkpt lat="42.9005710" lon="-2.5428900">
        <ele>533.2</ele>
        <time>2020-09-13T13:17:14Z</time>
      </trkpt>
      <trkpt lat="42.9005710" lon="-2.5428900">
        <ele>533.4</ele>
        <time>2020-09-13T13:17:18Z</time>
      </trkpt>
      <trkpt lat="42.9005710" lon="-2.5428900">
        <ele>533.4</ele>
        <time>2020-09-13T13:17:22Z</time>
      </trkpt>
      <trkpt lat="42.9005710" lon="-2.5428900">
        <ele>533.4</ele>
        <time>2020-09-13T13:17:26Z</time>
      </trkpt>
      <trkpt lat="42.9005710" lon="-2.5428900">
        <ele>533.4</ele>
        <time>2020-09-13T13:17:30Z</time>
      </trkpt>
      <trkpt lat="42.9005710" lon="-2.5428900">
        <ele>533.4</ele>
        <time>2020-09-13T13:17:34Z</time>
      </trkpt>
      <trkpt lat="42.9005710" lon="-2.5428900">
        <ele>533.4</ele>
        <time>2020-09-13T13:17:38Z</time>
      </trkpt>
      <trkpt lat="42.9005710" lon="-2.5428900">
        <ele>533.4</ele>
        <time>2020-09-13T13:17:42Z</time>
      </trkpt>
      <trkpt lat="42.9005710" lon="-2.5428900">
        <ele>533.6</ele>
        <time>2020-09-13T13:17:46Z</time>
      </trkpt>
      <trkpt lat="42.9005710" lon="-2.5428900">
        <ele>533.2</ele>
        <time>2020-09-13T13:17:50Z</time>
      </trkpt>
      <trkpt lat="42.9005710" lon="-2.5428900">
        <ele>533.6</ele>
        <time>2020-09-13T13:17:54Z</time>
      </trkpt>
      <trkpt lat="42.9005710" lon="-2.5428900">
        <ele>533.6</ele>
        <time>2020-09-13T13:17:58Z</time>
      </trkpt>
      <trkpt lat="42.9005710" lon="-2.5428900">
        <ele>533.4</ele>
        <time>2020-09-13T13:18:02Z</time>
      </trkpt>
      <trkpt lat="42.9005710" lon="-2.5428900">
        <ele>533.8</ele>
        <time>2020-09-13T13:18:06Z</time>
      </trkpt>
      <trkpt lat="42.9005710" lon="-2.5428900">
        <ele>533.4</ele>
        <time>2020-09-13T13:18:10Z</time>
      </trkpt>
      <trkpt lat="42.9005710" lon="-2.5428900">
        <ele>533.4</ele>
        <time>2020-09-13T13:18:14Z</time>
      </trkpt>
      <trkpt lat="42.9005710" lon="-2.5428900">
        <ele>533.4</ele>
        <time>2020-09-13T13:18:18Z</time>
      </trkpt>
      <trkpt lat="42.9005710" lon="-2.5428900">
        <ele>533.4</ele>
        <time>2020-09-13T13:18:22Z</time>
      </trkpt>
      <trkpt lat="42.9005710" lon="-2.5428900">
        <ele>533.4</ele>
        <time>2020-09-13T13:18:26Z</time>
      </trkpt>
      <trkpt lat="42.9005710" lon="-2.5428900">
        <ele>533.6</ele>
        <time>2020-09-13T13:18:30Z</time>
      </trkpt>
      <trkpt lat="42.9005710" lon="-2.5428900">
        <ele>533.8</ele>
        <time>2020-09-13T13:18:34Z</time>
      </trkpt>
      <trkpt lat="42.9005710" lon="-2.5428900">
        <ele>533.6</ele>
        <time>2020-09-13T13:18:38Z</time>
      </trkpt>
      <trkpt lat="42.9005710" lon="-2.5428900">
        <ele>533.6</ele>
        <time>2020-09-13T13:18:42Z</time>
      </trkpt>
      <trkpt lat="42.9005710" lon="-2.5428900">
        <ele>533.8</ele>
        <time>2020-09-13T13:18:46Z</time>
      </trkpt>
      <trkpt lat="42.9005710" lon="-2.5428900">
        <ele>533.8</ele>
        <time>2020-09-13T13:18:50Z</time>
      </trkpt>
      <trkpt lat="42.9005710" lon="-2.5428900">
        <ele>533.4</ele>
        <time>2020-09-13T13:18:54Z</time>
      </trkpt>
      <trkpt lat="42.9005710" lon="-2.5428900">
        <ele>533.4</ele>
        <time>2020-09-13T13:18:58Z</time>
      </trkpt>
      <trkpt lat="42.9005710" lon="-2.5428900">
        <ele>533.6</ele>
        <time>2020-09-13T13:19:02Z</time>
      </trkpt>
      <trkpt lat="42.9005710" lon="-2.5428900">
        <ele>533.4</ele>
        <time>2020-09-13T13:19:06Z</time>
      </trkpt>
      <trkpt lat="42.9005710" lon="-2.5428900">
        <ele>533.4</ele>
        <time>2020-09-13T13:19:10Z</time>
      </trkpt>
      <trkpt lat="42.9005710" lon="-2.5428900">
        <ele>533.2</ele>
        <time>2020-09-13T13:19:14Z</time>
      </trkpt>
      <trkpt lat="42.9005710" lon="-2.5428900">
        <ele>533.4</ele>
        <time>2020-09-13T13:19:18Z</time>
      </trkpt>
      <trkpt lat="42.9005710" lon="-2.5428900">
        <ele>533.2</ele>
        <time>2020-09-13T13:19:22Z</time>
      </trkpt>
      <trkpt lat="42.9005710" lon="-2.5428900">
        <ele>533.4</ele>
        <time>2020-09-13T13:19:26Z</time>
      </trkpt>
      <trkpt lat="42.9005710" lon="-2.5428900">
        <ele>533.4</ele>
        <time>2020-09-13T13:19:30Z</time>
      </trkpt>
      <trkpt lat="42.9005710" lon="-2.5428900">
        <ele>533.6</ele>
        <time>2020-09-13T13:19:34Z</time>
      </trkpt>
      <trkpt lat="42.9005710" lon="-2.5428900">
        <ele>533.4</ele>
        <time>2020-09-13T13:19:38Z</time>
      </trkpt>
      <trkpt lat="42.9005710" lon="-2.5428900">
        <ele>533.8</ele>
        <time>2020-09-13T13:19:42Z</time>
      </trkpt>
      <trkpt lat="42.9005710" lon="-2.5428900">
        <ele>533.4</ele>
        <time>2020-09-13T13:19:46Z</time>
      </trkpt>
      <trkpt lat="42.9005710" lon="-2.5428900">
        <ele>533.6</ele>
        <time>2020-09-13T13:19:50Z</time>
      </trkpt>
      <trkpt lat="42.9005710" lon="-2.5428900">
        <ele>533.4</ele>
        <time>2020-09-13T13:19:54Z</time>
      </trkpt>
      <trkpt lat="42.9005710" lon="-2.5428900">
        <ele>533.6</ele>
        <time>2020-09-13T13:19:58Z</time>
      </trkpt>
      <trkpt lat="42.9005710" lon="-2.5428900">
        <ele>533.2</ele>
        <time>2020-09-13T13:20:02Z</time>
      </trkpt>
      <trkpt lat="42.9005710" lon="-2.5428900">
        <ele>533.2</ele>
        <time>2020-09-13T13:20:06Z</time>
      </trkpt>
      <trkpt lat="42.9005710" lon="-2.5428900">
        <ele>533.0</ele>
        <time>2020-09-13T13:20:10Z</time>
      </trkpt>
      <trkpt lat="42.9005710" lon="-2.5428900">
        <ele>533.2</ele>
        <time>2020-09-13T13:20:14Z</time>
      </trkpt>
      <trkpt lat="42.9005710" lon="-2.5428900">
        <ele>533.4</ele>
        <time>2020-09-13T13:20:18Z</time>
      </trkpt>
      <trkpt lat="42.9005710" lon="-2.5428900">
        <ele>533.6</ele>
        <time>2020-09-13T13:20:22Z</time>
      </trkpt>
      <trkpt lat="42.9005710" lon="-2.5428900">
        <ele>533.4</ele>
        <time>2020-09-13T13:20:26Z</time>
      </trkpt>
      <trkpt lat="42.9005710" lon="-2.5428900">
        <ele>533.4</ele>
        <time>2020-09-13T13:20:30Z</time>
      </trkpt>
      <trkpt lat="42.9005710" lon="-2.5428900">
        <ele>533.4</ele>
        <time>2020-09-13T13:20:34Z</time>
      </trkpt>
      <trkpt lat="42.9005710" lon="-2.5428900">
        <ele>533.6</ele>
        <time>2020-09-13T13:20:38Z</time>
      </trkpt>
      <trkpt lat="42.9005710" lon="-2.5428900">
        <ele>533.6</ele>
        <time>2020-09-13T13:20:42Z</time>
      </trkpt>
      <trkpt lat="42.9005710" lon="-2.5428900">
        <ele>533.2</ele>
        <time>2020-09-13T13:20:46Z</time>
      </trkpt>
      <trkpt lat="42.9005710" lon="-2.5428900">
        <ele>533.4</ele>
        <time>2020-09-13T13:20:50Z</time>
      </trkpt>
      <trkpt lat="42.9005710" lon="-2.5428900">
        <ele>533.2</ele>
        <time>2020-09-13T13:20:54Z</time>
      </trkpt>
      <trkpt lat="42.9005710" lon="-2.5428900">
        <ele>533.4</ele>
        <time>2020-09-13T13:20:58Z</time>
      </trkpt>
      <trkpt lat="42.9005710" lon="-2.5428900">
        <ele>533.4</ele>
        <time>2020-09-13T13:21:02Z</time>
      </trkpt>
      <trkpt lat="42.9005710" lon="-2.5428900">
        <ele>533.4</ele>
        <time>2020-09-13T13:21:06Z</time>
      </trkpt>
      <trkpt lat="42.9005710" lon="-2.5428900">
        <ele>533.4</ele>
        <time>2020-09-13T13:21:10Z</time>
      </trkpt>
      <trkpt lat="42.9005710" lon="-2.5428900">
        <ele>533.6</ele>
        <time>2020-09-13T13:21:14Z</time>
      </trkpt>
      <trkpt lat="42.9005710" lon="-2.5428900">
        <ele>533.6</ele>
        <time>2020-09-13T13:21:18Z</time>
      </trkpt>
      <trkpt lat="42.9005710" lon="-2.5428900">
        <ele>533.4</ele>
        <time>2020-09-13T13:21:22Z</time>
      </trkpt>
      <trkpt lat="42.9005710" lon="-2.5428900">
        <ele>533.0</ele>
        <time>2020-09-13T13:21:26Z</time>
      </trkpt>
      <trkpt lat="42.9005710" lon="-2.5428900">
        <ele>533.2</ele>
        <time>2020-09-13T13:21:30Z</time>
      </trkpt>
      <trkpt lat="42.9005710" lon="-2.5428900">
        <ele>533.4</ele>
        <time>2020-09-13T13:21:34Z</time>
      </trkpt>
      <trkpt lat="42.9005710" lon="-2.5428900">
        <ele>533.4</ele>
        <time>2020-09-13T13:21:38Z</time>
      </trkpt>
      <trkpt lat="42.9005710" lon="-2.5428900">
        <ele>533.4</ele>
        <time>2020-09-13T13:21:42Z</time>
      </trkpt>
      <trkpt lat="42.9005710" lon="-2.5428900">
        <ele>533.4</ele>
        <time>2020-09-13T13:21:46Z</time>
      </trkpt>
      <trkpt lat="42.9005710" lon="-2.5428900">
        <ele>533.4</ele>
        <time>2020-09-13T13:21:50Z</time>
      </trkpt>
      <trkpt lat="42.9005710" lon="-2.5428900">
        <ele>534.0</ele>
        <time>2020-09-13T13:21:54Z</time>
      </trkpt>
      <trkpt lat="42.9005710" lon="-2.5428900">
        <ele>533.4</ele>
        <time>2020-09-13T13:21:58Z</time>
      </trkpt>
      <trkpt lat="42.9005710" lon="-2.5428900">
        <ele>533.6</ele>
        <time>2020-09-13T13:22:02Z</time>
      </trkpt>
      <trkpt lat="42.9005710" lon="-2.5428900">
        <ele>533.4</ele>
        <time>2020-09-13T13:22:06Z</time>
      </trkpt>
      <trkpt lat="42.9005710" lon="-2.5428900">
        <ele>533.4</ele>
        <time>2020-09-13T13:22:10Z</time>
      </trkpt>
      <trkpt lat="42.9005710" lon="-2.5428900">
        <ele>533.4</ele>
        <time>2020-09-13T13:22:14Z</time>
      </trkpt>
      <trkpt lat="42.9005710" lon="-2.5428900">
        <ele>533.4</ele>
        <time>2020-09-13T13:22:18Z</time>
      </trkpt>
      <trkpt lat="42.9005710" lon="-2.5428900">
        <ele>533.6</ele>
        <time>2020-09-13T13:22:22Z</time>
      </trkpt>
      <trkpt lat="42.9005710" lon="-2.5428900">
        <ele>533.6</ele>
        <time>2020-09-13T13:22:26Z</time>
      </trkpt>
      <trkpt lat="42.9005710" lon="-2.5428900">
        <ele>533.4</ele>
        <time>2020-09-13T13:22:30Z</time>
      </trkpt>
      <trkpt lat="42.9005710" lon="-2.5428900">
        <ele>533.8</ele>
        <time>2020-09-13T13:22:34Z</time>
      </trkpt>
      <trkpt lat="42.9005710" lon="-2.5428900">
        <ele>533.4</ele>
        <time>2020-09-13T13:22:38Z</time>
      </trkpt>
      <trkpt lat="42.9005710" lon="-2.5428900">
        <ele>533.8</ele>
        <time>2020-09-13T13:22:42Z</time>
      </trkpt>
      <trkpt lat="42.9005710" lon="-2.5428900">
        <ele>533.8</ele>
        <time>2020-09-13T13:22:46Z</time>
      </trkpt>
      <trkpt lat="42.9005710" lon="-2.5428900">
        <ele>533.4</ele>
        <time>2020-09-13T13:22:50Z</time>
      </trkpt>
      <trkpt lat="42.9005710" lon="-2.5428900">
        <ele>533.8</ele>
        <time>2020-09-13T13:22:54Z</time>
      </trkpt>
      <trkpt lat="42.9005710" lon="-2.5428900">
        <ele>533.4</ele>
        <time>2020-09-13T13:22:58Z</time>
      </trkpt>
      <trkpt lat="42.9005710" lon="-2.5428900">
        <ele>533.4</ele>
        <time>2020-09-13T13:23:02Z</time>
      </trkpt>
      <trkpt lat="42.9005710" lon="-2.5428900">
        <ele>533.6</ele>
        <time>2020-09-13T13:23:06Z</time>
      </trkpt>
      <trkpt lat="42.9005710" lon="-2.5428900">
        <ele>533.4</ele>
        <time>2020-09-13T13:23:10Z</time>
      </trkpt>
      <trkpt lat="42.9005710" lon="-2.5428900">
        <ele>533.4</ele>
        <time>2020-09-13T13:23:14Z</time>
      </trkpt>
      <trkpt lat="42.9005710" lon="-2.5428900">
        <ele>533.6</ele>
        <time>2020-09-13T13:23:18Z</time>
      </trkpt>
      <trkpt lat="42.9005710" lon="-2.5428900">
        <ele>533.8</ele>
        <time>2020-09-13T13:23:22Z</time>
      </trkpt>
      <trkpt lat="42.9005710" lon="-2.5428900">
        <ele>533.8</ele>
        <time>2020-09-13T13:23:26Z</time>
      </trkpt>
      <trkpt lat="42.9005710" lon="-2.5428900">
        <ele>533.8</ele>
        <time>2020-09-13T13:23:30Z</time>
      </trkpt>
      <trkpt lat="42.9005710" lon="-2.5428900">
        <ele>533.8</ele>
        <time>2020-09-13T13:23:34Z</time>
      </trkpt>
      <trkpt lat="42.9005710" lon="-2.5428900">
        <ele>533.8</ele>
        <time>2020-09-13T13:23:38Z</time>
      </trkpt>
      <trkpt lat="42.9005710" lon="-2.5428900">
        <ele>533.6</ele>
        <time>2020-09-13T13:23:42Z</time>
      </trkpt>
      <trkpt lat="42.9005710" lon="-2.5428900">
        <ele>533.8</ele>
        <time>2020-09-13T13:23:46Z</time>
      </trkpt>
      <trkpt lat="42.9005710" lon="-2.5428900">
        <ele>533.6</ele>
        <time>2020-09-13T13:23:50Z</time>
      </trkpt>
      <trkpt lat="42.9005710" lon="-2.5428900">
        <ele>533.8</ele>
        <time>2020-09-13T13:23:54Z</time>
      </trkpt>
      <trkpt lat="42.9005710" lon="-2.5428900">
        <ele>533.8</ele>
        <time>2020-09-13T13:23:58Z</time>
      </trkpt>
      <trkpt lat="42.9005710" lon="-2.5428900">
        <ele>533.8</ele>
        <time>2020-09-13T13:24:02Z</time>
      </trkpt>
      <trkpt lat="42.9005710" lon="-2.5428900">
        <ele>533.4</ele>
        <time>2020-09-13T13:24:06Z</time>
      </trkpt>
      <trkpt lat="42.9005710" lon="-2.5428900">
        <ele>534.0</ele>
        <time>2020-09-13T13:24:10Z</time>
      </trkpt>
      <trkpt lat="42.9005710" lon="-2.5428900">
        <ele>534.0</ele>
        <time>2020-09-13T13:24:14Z</time>
      </trkpt>
      <trkpt lat="42.9005710" lon="-2.5428900">
        <ele>533.8</ele>
        <time>2020-09-13T13:24:18Z</time>
      </trkpt>
      <trkpt lat="42.9005710" lon="-2.5428900">
        <ele>534.0</ele>
        <time>2020-09-13T13:24:22Z</time>
      </trkpt>
      <trkpt lat="42.9005710" lon="-2.5428900">
        <ele>533.6</ele>
        <time>2020-09-13T13:24:26Z</time>
      </trkpt>
      <trkpt lat="42.9005710" lon="-2.5428900">
        <ele>534.0</ele>
        <time>2020-09-13T13:24:30Z</time>
      </trkpt>
      <trkpt lat="42.9005710" lon="-2.5428900">
        <ele>534.0</ele>
        <time>2020-09-13T13:24:34Z</time>
      </trkpt>
      <trkpt lat="42.9005710" lon="-2.5428900">
        <ele>533.8</ele>
        <time>2020-09-13T13:24:38Z</time>
      </trkpt>
      <trkpt lat="42.9005710" lon="-2.5428900">
        <ele>533.8</ele>
        <time>2020-09-13T13:24:42Z</time>
      </trkpt>
      <trkpt lat="42.9005710" lon="-2.5428900">
        <ele>533.8</ele>
        <time>2020-09-13T13:24:46Z</time>
      </trkpt>
      <trkpt lat="42.9005710" lon="-2.5428900">
        <ele>533.8</ele>
        <time>2020-09-13T13:24:50Z</time>
      </trkpt>
      <trkpt lat="42.9005710" lon="-2.5428900">
        <ele>534.0</ele>
        <time>2020-09-13T13:24:54Z</time>
      </trkpt>
      <trkpt lat="42.9005710" lon="-2.5428900">
        <ele>533.8</ele>
        <time>2020-09-13T13:24:58Z</time>
      </trkpt>
      <trkpt lat="42.9005710" lon="-2.5428900">
        <ele>534.0</ele>
        <time>2020-09-13T13:25:02Z</time>
      </trkpt>
      <trkpt lat="42.9005710" lon="-2.5428900">
        <ele>534.0</ele>
        <time>2020-09-13T13:25:06Z</time>
      </trkpt>
      <trkpt lat="42.9005710" lon="-2.5428900">
        <ele>533.6</ele>
        <time>2020-09-13T13:25:10Z</time>
      </trkpt>
      <trkpt lat="42.9005710" lon="-2.5428900">
        <ele>533.8</ele>
        <time>2020-09-13T13:25:14Z</time>
      </trkpt>
      <trkpt lat="42.9005710" lon="-2.5428900">
        <ele>533.8</ele>
        <time>2020-09-13T13:25:18Z</time>
      </trkpt>
      <trkpt lat="42.9005710" lon="-2.5428900">
        <ele>533.8</ele>
        <time>2020-09-13T13:25:22Z</time>
      </trkpt>
      <trkpt lat="42.9005710" lon="-2.5428900">
        <ele>533.6</ele>
        <time>2020-09-13T13:25:26Z</time>
      </trkpt>
      <trkpt lat="42.9005710" lon="-2.5428900">
        <ele>534.0</ele>
        <time>2020-09-13T13:25:30Z</time>
      </trkpt>
      <trkpt lat="42.9005710" lon="-2.5428900">
        <ele>534.0</ele>
        <time>2020-09-13T13:25:34Z</time>
      </trkpt>
      <trkpt lat="42.9005710" lon="-2.5428900">
        <ele>533.8</ele>
        <time>2020-09-13T13:25:38Z</time>
      </trkpt>
      <trkpt lat="42.9005710" lon="-2.5428900">
        <ele>534.0</ele>
        <time>2020-09-13T13:25:42Z</time>
      </trkpt>
      <trkpt lat="42.9005710" lon="-2.5428900">
        <ele>534.0</ele>
        <time>2020-09-13T13:25:46Z</time>
      </trkpt>
      <trkpt lat="42.9005710" lon="-2.5428900">
        <ele>534.0</ele>
        <time>2020-09-13T13:25:50Z</time>
      </trkpt>
      <trkpt lat="42.9005710" lon="-2.5428900">
        <ele>534.2</ele>
        <time>2020-09-13T13:25:54Z</time>
      </trkpt>
      <trkpt lat="42.9005710" lon="-2.5428900">
        <ele>533.6</ele>
        <time>2020-09-13T13:25:58Z</time>
      </trkpt>
      <trkpt lat="42.9005710" lon="-2.5428900">
        <ele>533.8</ele>
        <time>2020-09-13T13:26:02Z</time>
      </trkpt>
      <trkpt lat="42.9005710" lon="-2.5428900">
        <ele>533.8</ele>
        <time>2020-09-13T13:26:06Z</time>
      </trkpt>
      <trkpt lat="42.9005710" lon="-2.5428900">
        <ele>533.8</ele>
        <time>2020-09-13T13:26:10Z</time>
      </trkpt>
      <trkpt lat="42.9005710" lon="-2.5428900">
        <ele>534.0</ele>
        <time>2020-09-13T13:26:14Z</time>
      </trkpt>
      <trkpt lat="42.9005710" lon="-2.5428900">
        <ele>534.2</ele>
        <time>2020-09-13T13:26:18Z</time>
      </trkpt>
      <trkpt lat="42.9005710" lon="-2.5428900">
        <ele>534.0</ele>
        <time>2020-09-13T13:26:22Z</time>
      </trkpt>
      <trkpt lat="42.9005710" lon="-2.5428900">
        <ele>534.4</ele>
        <time>2020-09-13T13:26:26Z</time>
      </trkpt>
      <trkpt lat="42.9005710" lon="-2.5428900">
        <ele>534.2</ele>
        <time>2020-09-13T13:26:30Z</time>
      </trkpt>
      <trkpt lat="42.9005710" lon="-2.5428900">
        <ele>534.2</ele>
        <time>2020-09-13T13:26:34Z</time>
      </trkpt>
      <trkpt lat="42.9005710" lon="-2.5428900">
        <ele>534.2</ele>
        <time>2020-09-13T13:26:38Z</time>
      </trkpt>
      <trkpt lat="42.9005710" lon="-2.5428900">
        <ele>534.4</ele>
        <time>2020-09-13T13:26:42Z</time>
      </trkpt>
      <trkpt lat="42.9005710" lon="-2.5428900">
        <ele>534.0</ele>
        <time>2020-09-13T13:26:46Z</time>
      </trkpt>
      <trkpt lat="42.9005710" lon="-2.5428900">
        <ele>534.6</ele>
        <time>2020-09-13T13:26:50Z</time>
      </trkpt>
      <trkpt lat="42.9005710" lon="-2.5428900">
        <ele>534.0</ele>
        <time>2020-09-13T13:26:54Z</time>
      </trkpt>
      <trkpt lat="42.9005710" lon="-2.5428900">
        <ele>534.0</ele>
        <time>2020-09-13T13:26:58Z</time>
      </trkpt>
      <trkpt lat="42.9005710" lon="-2.5428900">
        <ele>534.0</ele>
        <time>2020-09-13T13:27:02Z</time>
      </trkpt>
      <trkpt lat="42.9005710" lon="-2.5428900">
        <ele>534.4</ele>
        <time>2020-09-13T13:27:06Z</time>
      </trkpt>
      <trkpt lat="42.9005710" lon="-2.5428900">
        <ele>534.4</ele>
        <time>2020-09-13T13:27:10Z</time>
      </trkpt>
      <trkpt lat="42.9005710" lon="-2.5428900">
        <ele>534.4</ele>
        <time>2020-09-13T13:27:14Z</time>
      </trkpt>
      <trkpt lat="42.9005710" lon="-2.5428900">
        <ele>534.8</ele>
        <time>2020-09-13T13:27:18Z</time>
      </trkpt>
      <trkpt lat="42.9005710" lon="-2.5428900">
        <ele>533.8</ele>
        <time>2020-09-13T13:27:22Z</time>
      </trkpt>
      <trkpt lat="42.9005710" lon="-2.5428900">
        <ele>534.0</ele>
        <time>2020-09-13T13:27:26Z</time>
      </trkpt>
      <trkpt lat="42.9005710" lon="-2.5428900">
        <ele>534.4</ele>
        <time>2020-09-13T13:27:30Z</time>
      </trkpt>
      <trkpt lat="42.9005710" lon="-2.5428900">
        <ele>534.6</ele>
        <time>2020-09-13T13:27:34Z</time>
      </trkpt>
      <trkpt lat="42.9005710" lon="-2.5428900">
        <ele>534.4</ele>
        <time>2020-09-13T13:27:38Z</time>
      </trkpt>
      <trkpt lat="42.9005710" lon="-2.5428900">
        <ele>534.4</ele>
        <time>2020-09-13T13:27:42Z</time>
      </trkpt>
      <trkpt lat="42.9005710" lon="-2.5428900">
        <ele>534.2</ele>
        <time>2020-09-13T13:27:46Z</time>
      </trkpt>
      <trkpt lat="42.9005710" lon="-2.5428900">
        <ele>534.0</ele>
        <time>2020-09-13T13:27:50Z</time>
      </trkpt>
      <trkpt lat="42.9005710" lon="-2.5428900">
        <ele>534.0</ele>
        <time>2020-09-13T13:27:54Z</time>
      </trkpt>
      <trkpt lat="42.9005710" lon="-2.5428900">
        <ele>533.8</ele>
        <time>2020-09-13T13:27:58Z</time>
      </trkpt>
      <trkpt lat="42.9005710" lon="-2.5428900">
        <ele>534.0</ele>
        <time>2020-09-13T13:28:02Z</time>
      </trkpt>
      <trkpt lat="42.9005710" lon="-2.5428900">
        <ele>534.2</ele>
        <time>2020-09-13T13:28:06Z</time>
      </trkpt>
      <trkpt lat="42.9005710" lon="-2.5428900">
        <ele>534.0</ele>
        <time>2020-09-13T13:28:10Z</time>
      </trkpt>
      <trkpt lat="42.9005710" lon="-2.5428900">
        <ele>534.0</ele>
        <time>2020-09-13T13:28:14Z</time>
      </trkpt>
      <trkpt lat="42.9005710" lon="-2.5428900">
        <ele>534.2</ele>
        <time>2020-09-13T13:28:18Z</time>
      </trkpt>
      <trkpt lat="42.9005710" lon="-2.5428900">
        <ele>534.0</ele>
        <time>2020-09-13T13:28:22Z</time>
      </trkpt>
      <trkpt lat="42.9005710" lon="-2.5428900">
        <ele>533.8</ele>
        <time>2020-09-13T13:28:26Z</time>
      </trkpt>
      <trkpt lat="42.9005710" lon="-2.5428900">
        <ele>534.2</ele>
        <time>2020-09-13T13:28:30Z</time>
      </trkpt>
      <trkpt lat="42.9005710" lon="-2.5428900">
        <ele>534.2</ele>
        <time>2020-09-13T13:28:34Z</time>
      </trkpt>
      <trkpt lat="42.9005710" lon="-2.5428900">
        <ele>534.4</ele>
        <time>2020-09-13T13:28:38Z</time>
      </trkpt>
      <trkpt lat="42.9005710" lon="-2.5428900">
        <ele>534.2</ele>
        <time>2020-09-13T13:28:42Z</time>
      </trkpt>
      <trkpt lat="42.9005710" lon="-2.5428900">
        <ele>534.4</ele>
        <time>2020-09-13T13:28:46Z</time>
      </trkpt>
      <trkpt lat="42.9005710" lon="-2.5428900">
        <ele>533.8</ele>
        <time>2020-09-13T13:28:50Z</time>
      </trkpt>
      <trkpt lat="42.9005710" lon="-2.5428900">
        <ele>534.0</ele>
        <time>2020-09-13T13:28:54Z</time>
      </trkpt>
      <trkpt lat="42.9005710" lon="-2.5428900">
        <ele>534.0</ele>
        <time>2020-09-13T13:28:58Z</time>
      </trkpt>
      <trkpt lat="42.9005710" lon="-2.5428900">
        <ele>533.8</ele>
        <time>2020-09-13T13:29:02Z</time>
      </trkpt>
      <trkpt lat="42.9005710" lon="-2.5428900">
        <ele>534.0</ele>
        <time>2020-09-13T13:29:06Z</time>
      </trkpt>
      <trkpt lat="42.9005710" lon="-2.5428900">
        <ele>534.0</ele>
        <time>2020-09-13T13:29:10Z</time>
      </trkpt>
      <trkpt lat="42.9005710" lon="-2.5428900">
        <ele>534.0</ele>
        <time>2020-09-13T13:29:14Z</time>
      </trkpt>
      <trkpt lat="42.9005710" lon="-2.5428900">
        <ele>534.0</ele>
        <time>2020-09-13T13:29:18Z</time>
      </trkpt>
      <trkpt lat="42.9005710" lon="-2.5428900">
        <ele>534.0</ele>
        <time>2020-09-13T13:29:22Z</time>
      </trkpt>
      <trkpt lat="42.9005710" lon="-2.5428900">
        <ele>534.0</ele>
        <time>2020-09-13T13:29:26Z</time>
      </trkpt>
      <trkpt lat="42.9005710" lon="-2.5428900">
        <ele>534.0</ele>
        <time>2020-09-13T13:29:30Z</time>
      </trkpt>
      <trkpt lat="42.9005710" lon="-2.5428900">
        <ele>534.0</ele>
        <time>2020-09-13T13:29:34Z</time>
      </trkpt>
      <trkpt lat="42.9005710" lon="-2.5428900">
        <ele>533.6</ele>
        <time>2020-09-13T13:29:38Z</time>
      </trkpt>
      <trkpt lat="42.9005710" lon="-2.5428900">
        <ele>533.6</ele>
        <time>2020-09-13T13:29:42Z</time>
      </trkpt>
      <trkpt lat="42.9005710" lon="-2.5428900">
        <ele>533.6</ele>
        <time>2020-09-13T13:29:46Z</time>
      </trkpt>
      <trkpt lat="42.9005710" lon="-2.5428900">
        <ele>533.8</ele>
        <time>2020-09-13T13:29:50Z</time>
      </trkpt>
      <trkpt lat="42.9005710" lon="-2.5428900">
        <ele>534.0</ele>
        <time>2020-09-13T13:29:54Z</time>
      </trkpt>
      <trkpt lat="42.9005710" lon="-2.5428900">
        <ele>533.6</ele>
        <time>2020-09-13T13:29:58Z</time>
      </trkpt>
      <trkpt lat="42.9005710" lon="-2.5428900">
        <ele>533.8</ele>
        <time>2020-09-13T13:30:02Z</time>
      </trkpt>
      <trkpt lat="42.9005710" lon="-2.5428900">
        <ele>534.0</ele>
        <time>2020-09-13T13:30:06Z</time>
      </trkpt>
      <trkpt lat="42.9005710" lon="-2.5428900">
        <ele>534.2</ele>
        <time>2020-09-13T13:30:10Z</time>
      </trkpt>
      <trkpt lat="42.9005710" lon="-2.5428900">
        <ele>534.4</ele>
        <time>2020-09-13T13:30:14Z</time>
      </trkpt>
      <trkpt lat="42.9005710" lon="-2.5428900">
        <ele>534.4</ele>
        <time>2020-09-13T13:30:18Z</time>
      </trkpt>
      <trkpt lat="42.9005710" lon="-2.5428900">
        <ele>534.0</ele>
        <time>2020-09-13T13:30:22Z</time>
      </trkpt>
      <trkpt lat="42.9005710" lon="-2.5428900">
        <ele>533.8</ele>
        <time>2020-09-13T13:30:26Z</time>
      </trkpt>
      <trkpt lat="42.9005710" lon="-2.5428900">
        <ele>534.0</ele>
        <time>2020-09-13T13:30:30Z</time>
      </trkpt>
      <trkpt lat="42.9005710" lon="-2.5428900">
        <ele>534.0</ele>
        <time>2020-09-13T13:30:34Z</time>
      </trkpt>
      <trkpt lat="42.9005710" lon="-2.5428900">
        <ele>534.0</ele>
        <time>2020-09-13T13:30:38Z</time>
      </trkpt>
      <trkpt lat="42.9005710" lon="-2.5428900">
        <ele>534.0</ele>
        <time>2020-09-13T13:30:42Z</time>
      </trkpt>
      <trkpt lat="42.9005710" lon="-2.5428900">
        <ele>534.2</ele>
        <time>2020-09-13T13:30:46Z</time>
      </trkpt>
      <trkpt lat="42.9005710" lon="-2.5428900">
        <ele>534.2</ele>
        <time>2020-09-13T13:30:50Z</time>
      </trkpt>
      <trkpt lat="42.9005710" lon="-2.5428900">
        <ele>534.6</ele>
        <time>2020-09-13T13:30:54Z</time>
      </trkpt>
      <trkpt lat="42.9005710" lon="-2.5428900">
        <ele>534.2</ele>
        <time>2020-09-13T13:30:58Z</time>
      </trkpt>
      <trkpt lat="42.9005710" lon="-2.5428900">
        <ele>534.2</ele>
        <time>2020-09-13T13:31:02Z</time>
      </trkpt>
      <trkpt lat="42.9005710" lon="-2.5428900">
        <ele>534.0</ele>
        <time>2020-09-13T13:31:06Z</time>
      </trkpt>
      <trkpt lat="42.9005710" lon="-2.5428900">
        <ele>534.2</ele>
        <time>2020-09-13T13:31:10Z</time>
      </trkpt>
      <trkpt lat="42.9005710" lon="-2.5428900">
        <ele>534.2</ele>
        <time>2020-09-13T13:31:14Z</time>
      </trkpt>
      <trkpt lat="42.9005710" lon="-2.5428900">
        <ele>534.6</ele>
        <time>2020-09-13T13:31:18Z</time>
      </trkpt>
      <trkpt lat="42.9005710" lon="-2.5428900">
        <ele>534.6</ele>
        <time>2020-09-13T13:31:22Z</time>
      </trkpt>
      <trkpt lat="42.9005710" lon="-2.5428900">
        <ele>534.2</ele>
        <time>2020-09-13T13:31:26Z</time>
      </trkpt>
      <trkpt lat="42.9005710" lon="-2.5428900">
        <ele>534.4</ele>
        <time>2020-09-13T13:31:30Z</time>
      </trkpt>
      <trkpt lat="42.9005710" lon="-2.5428900">
        <ele>534.4</ele>
        <time>2020-09-13T13:31:34Z</time>
      </trkpt>
      <trkpt lat="42.9005710" lon="-2.5428900">
        <ele>534.2</ele>
        <time>2020-09-13T13:31:38Z</time>
      </trkpt>
      <trkpt lat="42.9005710" lon="-2.5428900">
        <ele>534.4</ele>
        <time>2020-09-13T13:31:42Z</time>
      </trkpt>
      <trkpt lat="42.9005710" lon="-2.5428900">
        <ele>534.2</ele>
        <time>2020-09-13T13:31:46Z</time>
      </trkpt>
      <trkpt lat="42.9005710" lon="-2.5428900">
        <ele>534.0</ele>
        <time>2020-09-13T13:31:50Z</time>
      </trkpt>
      <trkpt lat="42.9005710" lon="-2.5428900">
        <ele>534.0</ele>
        <time>2020-09-13T13:31:54Z</time>
      </trkpt>
      <trkpt lat="42.9005710" lon="-2.5428900">
        <ele>534.4</ele>
        <time>2020-09-13T13:31:58Z</time>
      </trkpt>
      <trkpt lat="42.9005710" lon="-2.5428900">
        <ele>534.2</ele>
        <time>2020-09-13T13:32:02Z</time>
      </trkpt>
      <trkpt lat="42.9005710" lon="-2.5428900">
        <ele>534.0</ele>
        <time>2020-09-13T13:32:06Z</time>
      </trkpt>
      <trkpt lat="42.9005710" lon="-2.5428900">
        <ele>534.2</ele>
        <time>2020-09-13T13:32:10Z</time>
      </trkpt>
      <trkpt lat="42.9005710" lon="-2.5428900">
        <ele>534.2</ele>
        <time>2020-09-13T13:32:14Z</time>
      </trkpt>
      <trkpt lat="42.9005710" lon="-2.5428900">
        <ele>534.6</ele>
        <time>2020-09-13T13:32:18Z</time>
      </trkpt>
      <trkpt lat="42.9005710" lon="-2.5428900">
        <ele>534.4</ele>
        <time>2020-09-13T13:32:22Z</time>
      </trkpt>
      <trkpt lat="42.9005710" lon="-2.5428900">
        <ele>534.4</ele>
        <time>2020-09-13T13:32:26Z</time>
      </trkpt>
      <trkpt lat="42.9005710" lon="-2.5428900">
        <ele>534.4</ele>
        <time>2020-09-13T13:32:30Z</time>
      </trkpt>
      <trkpt lat="42.9005710" lon="-2.5428900">
        <ele>534.6</ele>
        <time>2020-09-13T13:32:34Z</time>
      </trkpt>
      <trkpt lat="42.9005710" lon="-2.5428900">
        <ele>534.4</ele>
        <time>2020-09-13T13:32:38Z</time>
      </trkpt>
      <trkpt lat="42.9005710" lon="-2.5428900">
        <ele>534.4</ele>
        <time>2020-09-13T13:32:42Z</time>
      </trkpt>
      <trkpt lat="42.9005710" lon="-2.5428900">
        <ele>534.6</ele>
        <time>2020-09-13T13:32:46Z</time>
      </trkpt>
      <trkpt lat="42.9005710" lon="-2.5428900">
        <ele>534.6</ele>
        <time>2020-09-13T13:32:50Z</time>
      </trkpt>
      <trkpt lat="42.9005710" lon="-2.5428900">
        <ele>534.8</ele>
        <time>2020-09-13T13:32:54Z</time>
      </trkpt>
      <trkpt lat="42.9005710" lon="-2.5428900">
        <ele>534.8</ele>
        <time>2020-09-13T13:32:58Z</time>
      </trkpt>
      <trkpt lat="42.9005710" lon="-2.5428900">
        <ele>534.4</ele>
        <time>2020-09-13T13:33:02Z</time>
      </trkpt>
      <trkpt lat="42.9005710" lon="-2.5428900">
        <ele>534.8</ele>
        <time>2020-09-13T13:33:06Z</time>
      </trkpt>
      <trkpt lat="42.9005710" lon="-2.5428900">
        <ele>534.8</ele>
        <time>2020-09-13T13:33:10Z</time>
      </trkpt>
      <trkpt lat="42.9005710" lon="-2.5428900">
        <ele>534.6</ele>
        <time>2020-09-13T13:33:14Z</time>
      </trkpt>
      <trkpt lat="42.9005710" lon="-2.5428900">
        <ele>534.6</ele>
        <time>2020-09-13T13:33:18Z</time>
      </trkpt>
      <trkpt lat="42.9005710" lon="-2.5428900">
        <ele>534.6</ele>
        <time>2020-09-13T13:33:22Z</time>
      </trkpt>
      <trkpt lat="42.9005710" lon="-2.5428900">
        <ele>534.4</ele>
        <time>2020-09-13T13:33:26Z</time>
      </trkpt>
      <trkpt lat="42.9005710" lon="-2.5428900">
        <ele>534.2</ele>
        <time>2020-09-13T13:33:30Z</time>
      </trkpt>
      <trkpt lat="42.9005710" lon="-2.5428900">
        <ele>534.4</ele>
        <time>2020-09-13T13:33:34Z</time>
      </trkpt>
      <trkpt lat="42.9005710" lon="-2.5428900">
        <ele>534.4</ele>
        <time>2020-09-13T13:33:38Z</time>
      </trkpt>
      <trkpt lat="42.9005710" lon="-2.5428900">
        <ele>534.2</ele>
        <time>2020-09-13T13:33:42Z</time>
      </trkpt>
      <trkpt lat="42.9005710" lon="-2.5428900">
        <ele>534.4</ele>
        <time>2020-09-13T13:33:46Z</time>
      </trkpt>
      <trkpt lat="42.9005710" lon="-2.5428900">
        <ele>534.6</ele>
        <time>2020-09-13T13:33:50Z</time>
      </trkpt>
      <trkpt lat="42.9005710" lon="-2.5428900">
        <ele>534.4</ele>
        <time>2020-09-13T13:33:54Z</time>
      </trkpt>
      <trkpt lat="42.9005710" lon="-2.5428900">
        <ele>534.4</ele>
        <time>2020-09-13T13:33:58Z</time>
      </trkpt>
      <trkpt lat="42.9005710" lon="-2.5428900">
        <ele>534.4</ele>
        <time>2020-09-13T13:34:02Z</time>
      </trkpt>
      <trkpt lat="42.9005710" lon="-2.5428900">
        <ele>534.0</ele>
        <time>2020-09-13T13:34:06Z</time>
      </trkpt>
      <trkpt lat="42.9005710" lon="-2.5428900">
        <ele>534.2</ele>
        <time>2020-09-13T13:34:10Z</time>
      </trkpt>
      <trkpt lat="42.9005710" lon="-2.5428900">
        <ele>534.4</ele>
        <time>2020-09-13T13:34:14Z</time>
      </trkpt>
      <trkpt lat="42.9005710" lon="-2.5428900">
        <ele>534.2</ele>
        <time>2020-09-13T13:34:18Z</time>
      </trkpt>
      <trkpt lat="42.9005710" lon="-2.5428900">
        <ele>534.2</ele>
        <time>2020-09-13T13:34:22Z</time>
      </trkpt>
      <trkpt lat="42.9005710" lon="-2.5428900">
        <ele>534.4</ele>
        <time>2020-09-13T13:34:26Z</time>
      </trkpt>
      <trkpt lat="42.9005710" lon="-2.5428900">
        <ele>534.8</ele>
        <time>2020-09-13T13:34:30Z</time>
      </trkpt>
      <trkpt lat="42.9005710" lon="-2.5428900">
        <ele>534.8</ele>
        <time>2020-09-13T13:34:34Z</time>
      </trkpt>
      <trkpt lat="42.9005710" lon="-2.5428900">
        <ele>534.6</ele>
        <time>2020-09-13T13:34:38Z</time>
      </trkpt>
      <trkpt lat="42.9005710" lon="-2.5428900">
        <ele>534.6</ele>
        <time>2020-09-13T13:34:42Z</time>
      </trkpt>
      <trkpt lat="42.9005710" lon="-2.5428900">
        <ele>535.2</ele>
        <time>2020-09-13T13:34:46Z</time>
      </trkpt>
      <trkpt lat="42.9005710" lon="-2.5428900">
        <ele>534.6</ele>
        <time>2020-09-13T13:34:50Z</time>
      </trkpt>
      <trkpt lat="42.9005710" lon="-2.5428900">
        <ele>534.6</ele>
        <time>2020-09-13T13:34:54Z</time>
      </trkpt>
      <trkpt lat="42.9005710" lon="-2.5428900">
        <ele>534.4</ele>
        <time>2020-09-13T13:34:58Z</time>
      </trkpt>
      <trkpt lat="42.9005710" lon="-2.5428900">
        <ele>534.6</ele>
        <time>2020-09-13T13:35:02Z</time>
      </trkpt>
      <trkpt lat="42.9005710" lon="-2.5428900">
        <ele>534.6</ele>
        <time>2020-09-13T13:35:06Z</time>
      </trkpt>
      <trkpt lat="42.9005710" lon="-2.5428900">
        <ele>534.8</ele>
        <time>2020-09-13T13:35:10Z</time>
      </trkpt>
      <trkpt lat="42.9005710" lon="-2.5428900">
        <ele>535.0</ele>
        <time>2020-09-13T13:35:14Z</time>
      </trkpt>
      <trkpt lat="42.9005710" lon="-2.5428900">
        <ele>534.8</ele>
        <time>2020-09-13T13:35:18Z</time>
      </trkpt>
      <trkpt lat="42.9005710" lon="-2.5428900">
        <ele>534.8</ele>
        <time>2020-09-13T13:35:22Z</time>
      </trkpt>
      <trkpt lat="42.9005710" lon="-2.5428900">
        <ele>534.8</ele>
        <time>2020-09-13T13:35:26Z</time>
      </trkpt>
      <trkpt lat="42.9005710" lon="-2.5428900">
        <ele>535.0</ele>
        <time>2020-09-13T13:35:30Z</time>
      </trkpt>
      <trkpt lat="42.9005710" lon="-2.5428900">
        <ele>535.0</ele>
        <time>2020-09-13T13:35:34Z</time>
      </trkpt>
      <trkpt lat="42.9005710" lon="-2.5428900">
        <ele>534.8</ele>
        <time>2020-09-13T13:35:38Z</time>
      </trkpt>
      <trkpt lat="42.9005710" lon="-2.5428900">
        <ele>535.0</ele>
        <time>2020-09-13T13:35:42Z</time>
      </trkpt>
      <trkpt lat="42.9005710" lon="-2.5428900">
        <ele>535.0</ele>
        <time>2020-09-13T13:35:46Z</time>
      </trkpt>
      <trkpt lat="42.9005710" lon="-2.5428900">
        <ele>534.6</ele>
        <time>2020-09-13T13:35:50Z</time>
      </trkpt>
      <trkpt lat="42.9005710" lon="-2.5428900">
        <ele>534.0</ele>
        <time>2020-09-13T13:35:54Z</time>
      </trkpt>
      <trkpt lat="42.9005710" lon="-2.5428900">
        <ele>534.6</ele>
        <time>2020-09-13T13:35:58Z</time>
      </trkpt>
      <trkpt lat="42.9005710" lon="-2.5428900">
        <ele>535.0</ele>
        <time>2020-09-13T13:36:02Z</time>
      </trkpt>
      <trkpt lat="42.9005710" lon="-2.5428900">
        <ele>534.4</ele>
        <time>2020-09-13T13:36:06Z</time>
      </trkpt>
      <trkpt lat="42.9005710" lon="-2.5428900">
        <ele>534.8</ele>
        <time>2020-09-13T13:36:10Z</time>
      </trkpt>
      <trkpt lat="42.9005710" lon="-2.5428900">
        <ele>534.8</ele>
        <time>2020-09-13T13:36:14Z</time>
      </trkpt>
      <trkpt lat="42.9005710" lon="-2.5428900">
        <ele>534.6</ele>
        <time>2020-09-13T13:36:18Z</time>
      </trkpt>
      <trkpt lat="42.9005710" lon="-2.5428900">
        <ele>534.4</ele>
        <time>2020-09-13T13:36:22Z</time>
      </trkpt>
      <trkpt lat="42.9005710" lon="-2.5428900">
        <ele>534.2</ele>
        <time>2020-09-13T13:36:26Z</time>
      </trkpt>
      <trkpt lat="42.9005710" lon="-2.5428900">
        <ele>534.4</ele>
        <time>2020-09-13T13:36:30Z</time>
      </trkpt>
      <trkpt lat="42.9005710" lon="-2.5428900">
        <ele>534.6</ele>
        <time>2020-09-13T13:36:34Z</time>
      </trkpt>
      <trkpt lat="42.9005710" lon="-2.5428900">
        <ele>534.8</ele>
        <time>2020-09-13T13:36:38Z</time>
      </trkpt>
      <trkpt lat="42.9005710" lon="-2.5428900">
        <ele>534.8</ele>
        <time>2020-09-13T13:36:42Z</time>
      </trkpt>
      <trkpt lat="42.9005710" lon="-2.5428900">
        <ele>534.8</ele>
        <time>2020-09-13T13:36:46Z</time>
      </trkpt>
      <trkpt lat="42.9005710" lon="-2.5428900">
        <ele>534.8</ele>
        <time>2020-09-13T13:36:50Z</time>
      </trkpt>
      <trkpt lat="42.9005710" lon="-2.5428900">
        <ele>534.8</ele>
        <time>2020-09-13T13:36:54Z</time>
      </trkpt>
      <trkpt lat="42.9005710" lon="-2.5428900">
        <ele>534.8</ele>
        <time>2020-09-13T13:36:58Z</time>
      </trkpt>
      <trkpt lat="42.9005710" lon="-2.5428900">
        <ele>534.4</ele>
        <time>2020-09-13T13:37:02Z</time>
      </trkpt>
      <trkpt lat="42.9005710" lon="-2.5428900">
        <ele>534.2</ele>
        <time>2020-09-13T13:37:06Z</time>
      </trkpt>
      <trkpt lat="42.9005710" lon="-2.5428900">
        <ele>534.8</ele>
        <time>2020-09-13T13:37:10Z</time>
      </trkpt>
      <trkpt lat="42.9005710" lon="-2.5428900">
        <ele>534.8</ele>
        <time>2020-09-13T13:37:14Z</time>
      </trkpt>
      <trkpt lat="42.9005710" lon="-2.5428900">
        <ele>534.4</ele>
        <time>2020-09-13T13:37:18Z</time>
      </trkpt>
      <trkpt lat="42.9005710" lon="-2.5428900">
        <ele>534.8</ele>
        <time>2020-09-13T13:37:22Z</time>
      </trkpt>
      <trkpt lat="42.9005710" lon="-2.5428900">
        <ele>534.8</ele>
        <time>2020-09-13T13:37:26Z</time>
      </trkpt>
      <trkpt lat="42.9005710" lon="-2.5428900">
        <ele>534.8</ele>
        <time>2020-09-13T13:37:30Z</time>
      </trkpt>
      <trkpt lat="42.9005710" lon="-2.5428900">
        <ele>534.6</ele>
        <time>2020-09-13T13:37:34Z</time>
      </trkpt>
      <trkpt lat="42.9005710" lon="-2.5428900">
        <ele>534.6</ele>
        <time>2020-09-13T13:37:38Z</time>
      </trkpt>
      <trkpt lat="42.9005710" lon="-2.5428900">
        <ele>534.8</ele>
        <time>2020-09-13T13:37:42Z</time>
      </trkpt>
      <trkpt lat="42.9005710" lon="-2.5428900">
        <ele>534.4</ele>
        <time>2020-09-13T13:37:46Z</time>
      </trkpt>
      <trkpt lat="42.9005710" lon="-2.5428900">
        <ele>535.0</ele>
        <time>2020-09-13T13:37:50Z</time>
      </trkpt>
      <trkpt lat="42.9005710" lon="-2.5428900">
        <ele>534.6</ele>
        <time>2020-09-13T13:37:54Z</time>
      </trkpt>
      <trkpt lat="42.9005710" lon="-2.5428900">
        <ele>534.8</ele>
        <time>2020-09-13T13:37:58Z</time>
      </trkpt>
      <trkpt lat="42.9005710" lon="-2.5428900">
        <ele>534.8</ele>
        <time>2020-09-13T13:38:02Z</time>
      </trkpt>
      <trkpt lat="42.9005710" lon="-2.5428900">
        <ele>535.0</ele>
        <time>2020-09-13T13:38:06Z</time>
      </trkpt>
      <trkpt lat="42.9005710" lon="-2.5428900">
        <ele>535.0</ele>
        <time>2020-09-13T13:38:10Z</time>
      </trkpt>
      <trkpt lat="42.9005710" lon="-2.5428900">
        <ele>535.0</ele>
        <time>2020-09-13T13:38:14Z</time>
      </trkpt>
      <trkpt lat="42.9005710" lon="-2.5428900">
        <ele>535.2</ele>
        <time>2020-09-13T13:38:18Z</time>
      </trkpt>
      <trkpt lat="42.9005710" lon="-2.5428900">
        <ele>535.0</ele>
        <time>2020-09-13T13:38:22Z</time>
      </trkpt>
      <trkpt lat="42.9005710" lon="-2.5428900">
        <ele>534.8</ele>
        <time>2020-09-13T13:38:26Z</time>
      </trkpt>
      <trkpt lat="42.9005710" lon="-2.5428900">
        <ele>534.8</ele>
        <time>2020-09-13T13:38:30Z</time>
      </trkpt>
      <trkpt lat="42.9005710" lon="-2.5428900">
        <ele>534.4</ele>
        <time>2020-09-13T13:38:34Z</time>
      </trkpt>
      <trkpt lat="42.9005710" lon="-2.5428900">
        <ele>534.4</ele>
        <time>2020-09-13T13:38:38Z</time>
      </trkpt>
      <trkpt lat="42.9005710" lon="-2.5428900">
        <ele>534.2</ele>
        <time>2020-09-13T13:38:42Z</time>
      </trkpt>
      <trkpt lat="42.9005710" lon="-2.5428900">
        <ele>534.4</ele>
        <time>2020-09-13T13:38:46Z</time>
      </trkpt>
      <trkpt lat="42.9005710" lon="-2.5428900">
        <ele>534.4</ele>
        <time>2020-09-13T13:38:50Z</time>
      </trkpt>
      <trkpt lat="42.9005710" lon="-2.5428900">
        <ele>534.8</ele>
        <time>2020-09-13T13:38:54Z</time>
      </trkpt>
      <trkpt lat="42.9005710" lon="-2.5428900">
        <ele>534.4</ele>
        <time>2020-09-13T13:38:58Z</time>
      </trkpt>
      <trkpt lat="42.9005710" lon="-2.5428900">
        <ele>534.4</ele>
        <time>2020-09-13T13:39:02Z</time>
      </trkpt>
      <trkpt lat="42.9005710" lon="-2.5428900">
        <ele>534.4</ele>
        <time>2020-09-13T13:39:06Z</time>
      </trkpt>
      <trkpt lat="42.9005710" lon="-2.5428900">
        <ele>534.8</ele>
        <time>2020-09-13T13:39:10Z</time>
      </trkpt>
      <trkpt lat="42.9005710" lon="-2.5428900">
        <ele>534.6</ele>
        <time>2020-09-13T13:39:14Z</time>
      </trkpt>
      <trkpt lat="42.9005710" lon="-2.5428900">
        <ele>534.8</ele>
        <time>2020-09-13T13:39:18Z</time>
      </trkpt>
      <trkpt lat="42.9005710" lon="-2.5428900">
        <ele>534.8</ele>
        <time>2020-09-13T13:39:22Z</time>
      </trkpt>
      <trkpt lat="42.9005710" lon="-2.5428900">
        <ele>534.2</ele>
        <time>2020-09-13T13:39:26Z</time>
      </trkpt>
      <trkpt lat="42.9005710" lon="-2.5428900">
        <ele>534.2</ele>
        <time>2020-09-13T13:39:30Z</time>
      </trkpt>
      <trkpt lat="42.9005710" lon="-2.5428900">
        <ele>534.6</ele>
        <time>2020-09-13T13:39:34Z</time>
      </trkpt>
      <trkpt lat="42.9005710" lon="-2.5428900">
        <ele>534.8</ele>
        <time>2020-09-13T13:39:38Z</time>
      </trkpt>
      <trkpt lat="42.9005710" lon="-2.5428900">
        <ele>534.8</ele>
        <time>2020-09-13T13:39:42Z</time>
      </trkpt>
      <trkpt lat="42.9005710" lon="-2.5428900">
        <ele>534.8</ele>
        <time>2020-09-13T13:39:46Z</time>
      </trkpt>
      <trkpt lat="42.9005710" lon="-2.5428900">
        <ele>535.2</ele>
        <time>2020-09-13T13:39:50Z</time>
      </trkpt>
      <trkpt lat="42.9005710" lon="-2.5428900">
        <ele>534.8</ele>
        <time>2020-09-13T13:39:54Z</time>
      </trkpt>
      <trkpt lat="42.9005710" lon="-2.5428900">
        <ele>535.0</ele>
        <time>2020-09-13T13:39:58Z</time>
      </trkpt>
      <trkpt lat="42.9005710" lon="-2.5428900">
        <ele>535.2</ele>
        <time>2020-09-13T13:40:02Z</time>
      </trkpt>
      <trkpt lat="42.9005710" lon="-2.5428900">
        <ele>535.0</ele>
        <time>2020-09-13T13:40:06Z</time>
      </trkpt>
      <trkpt lat="42.9005710" lon="-2.5428900">
        <ele>535.2</ele>
        <time>2020-09-13T13:40:10Z</time>
      </trkpt>
      <trkpt lat="42.9005710" lon="-2.5428900">
        <ele>535.0</ele>
        <time>2020-09-13T13:40:14Z</time>
      </trkpt>
      <trkpt lat="42.9005710" lon="-2.5428900">
        <ele>535.0</ele>
        <time>2020-09-13T13:40:18Z</time>
      </trkpt>
      <trkpt lat="42.9005710" lon="-2.5428900">
        <ele>534.6</ele>
        <time>2020-09-13T13:40:22Z</time>
      </trkpt>
      <trkpt lat="42.9005710" lon="-2.5428900">
        <ele>535.0</ele>
        <time>2020-09-13T13:40:26Z</time>
      </trkpt>
      <trkpt lat="42.9005710" lon="-2.5428900">
        <ele>534.8</ele>
        <time>2020-09-13T13:40:30Z</time>
      </trkpt>
      <trkpt lat="42.9005710" lon="-2.5428900">
        <ele>535.0</ele>
        <time>2020-09-13T13:40:34Z</time>
      </trkpt>
      <trkpt lat="42.9005710" lon="-2.5428900">
        <ele>534.8</ele>
        <time>2020-09-13T13:40:38Z</time>
      </trkpt>
      <trkpt lat="42.9005710" lon="-2.5428900">
        <ele>534.8</ele>
        <time>2020-09-13T13:40:42Z</time>
      </trkpt>
      <trkpt lat="42.9005710" lon="-2.5428900">
        <ele>535.2</ele>
        <time>2020-09-13T13:40:46Z</time>
      </trkpt>
      <trkpt lat="42.9005710" lon="-2.5428900">
        <ele>534.8</ele>
        <time>2020-09-13T13:40:50Z</time>
      </trkpt>
      <trkpt lat="42.9005710" lon="-2.5428900">
        <ele>535.0</ele>
        <time>2020-09-13T13:40:54Z</time>
      </trkpt>
      <trkpt lat="42.9005710" lon="-2.5428900">
        <ele>534.8</ele>
        <time>2020-09-13T13:40:58Z</time>
      </trkpt>
      <trkpt lat="42.9005710" lon="-2.5428900">
        <ele>534.8</ele>
        <time>2020-09-13T13:41:02Z</time>
      </trkpt>
      <trkpt lat="42.9005710" lon="-2.5428900">
        <ele>534.6</ele>
        <time>2020-09-13T13:41:06Z</time>
      </trkpt>
      <trkpt lat="42.9005710" lon="-2.5428900">
        <ele>534.8</ele>
        <time>2020-09-13T13:41:10Z</time>
      </trkpt>
      <trkpt lat="42.9005710" lon="-2.5428900">
        <ele>534.8</ele>
        <time>2020-09-13T13:41:14Z</time>
      </trkpt>
      <trkpt lat="42.9005710" lon="-2.5428900">
        <ele>534.8</ele>
        <time>2020-09-13T13:41:18Z</time>
      </trkpt>
      <trkpt lat="42.9005710" lon="-2.5428900">
        <ele>535.2</ele>
        <time>2020-09-13T13:41:22Z</time>
      </trkpt>
      <trkpt lat="42.9005710" lon="-2.5428900">
        <ele>534.8</ele>
        <time>2020-09-13T13:41:26Z</time>
      </trkpt>
      <trkpt lat="42.9005710" lon="-2.5428900">
        <ele>535.2</ele>
        <time>2020-09-13T13:41:30Z</time>
      </trkpt>
      <trkpt lat="42.9005710" lon="-2.5428900">
        <ele>534.8</ele>
        <time>2020-09-13T13:41:34Z</time>
      </trkpt>
      <trkpt lat="42.9005710" lon="-2.5428900">
        <ele>535.2</ele>
        <time>2020-09-13T13:41:38Z</time>
      </trkpt>
      <trkpt lat="42.9005710" lon="-2.5428900">
        <ele>535.0</ele>
        <time>2020-09-13T13:41:42Z</time>
      </trkpt>
      <trkpt lat="42.9005710" lon="-2.5428900">
        <ele>534.6</ele>
        <time>2020-09-13T13:41:46Z</time>
      </trkpt>
      <trkpt lat="42.9005710" lon="-2.5428900">
        <ele>534.8</ele>
        <time>2020-09-13T13:41:50Z</time>
      </trkpt>
      <trkpt lat="42.9005710" lon="-2.5428900">
        <ele>535.0</ele>
        <time>2020-09-13T13:41:54Z</time>
      </trkpt>
      <trkpt lat="42.9005710" lon="-2.5428900">
        <ele>534.8</ele>
        <time>2020-09-13T13:41:58Z</time>
      </trkpt>
      <trkpt lat="42.9005710" lon="-2.5428900">
        <ele>535.2</ele>
        <time>2020-09-13T13:42:02Z</time>
      </trkpt>
      <trkpt lat="42.9005710" lon="-2.5428900">
        <ele>534.8</ele>
        <time>2020-09-13T13:42:06Z</time>
      </trkpt>
      <trkpt lat="42.9005710" lon="-2.5428900">
        <ele>535.0</ele>
        <time>2020-09-13T13:42:10Z</time>
      </trkpt>
      <trkpt lat="42.9005710" lon="-2.5428900">
        <ele>534.8</ele>
        <time>2020-09-13T13:42:14Z</time>
      </trkpt>
      <trkpt lat="42.9005710" lon="-2.5428900">
        <ele>534.6</ele>
        <time>2020-09-13T13:42:18Z</time>
      </trkpt>
      <trkpt lat="42.9005710" lon="-2.5428900">
        <ele>535.0</ele>
        <time>2020-09-13T13:42:22Z</time>
      </trkpt>
      <trkpt lat="42.9005710" lon="-2.5428900">
        <ele>534.8</ele>
        <time>2020-09-13T13:42:26Z</time>
      </trkpt>
      <trkpt lat="42.9005710" lon="-2.5428900">
        <ele>534.8</ele>
        <time>2020-09-13T13:42:30Z</time>
      </trkpt>
      <trkpt lat="42.9005710" lon="-2.5428900">
        <ele>534.6</ele>
        <time>2020-09-13T13:42:34Z</time>
      </trkpt>
      <trkpt lat="42.9005710" lon="-2.5428900">
        <ele>534.8</ele>
        <time>2020-09-13T13:42:38Z</time>
      </trkpt>
      <trkpt lat="42.9005710" lon="-2.5428900">
        <ele>534.8</ele>
        <time>2020-09-13T13:42:42Z</time>
      </trkpt>
      <trkpt lat="42.9005710" lon="-2.5428900">
        <ele>534.8</ele>
        <time>2020-09-13T13:42:46Z</time>
      </trkpt>
      <trkpt lat="42.9005710" lon="-2.5428900">
        <ele>534.8</ele>
        <time>2020-09-13T13:42:50Z</time>
      </trkpt>
      <trkpt lat="42.9005710" lon="-2.5428900">
        <ele>535.0</ele>
        <time>2020-09-13T13:42:54Z</time>
      </trkpt>
      <trkpt lat="42.9005710" lon="-2.5428900">
        <ele>534.6</ele>
        <time>2020-09-13T13:42:58Z</time>
      </trkpt>
      <trkpt lat="42.9005710" lon="-2.5428900">
        <ele>534.8</ele>
        <time>2020-09-13T13:43:02Z</time>
      </trkpt>
      <trkpt lat="42.9005710" lon="-2.5428900">
        <ele>535.0</ele>
        <time>2020-09-13T13:43:06Z</time>
      </trkpt>
      <trkpt lat="42.9005710" lon="-2.5428900">
        <ele>535.0</ele>
        <time>2020-09-13T13:43:10Z</time>
      </trkpt>
      <trkpt lat="42.9005710" lon="-2.5428900">
        <ele>535.4</ele>
        <time>2020-09-13T13:43:14Z</time>
      </trkpt>
      <trkpt lat="42.9005710" lon="-2.5428900">
        <ele>535.4</ele>
        <time>2020-09-13T13:43:18Z</time>
      </trkpt>
      <trkpt lat="42.9005710" lon="-2.5428900">
        <ele>535.2</ele>
        <time>2020-09-13T13:43:22Z</time>
      </trkpt>
      <trkpt lat="42.9005710" lon="-2.5428900">
        <ele>535.0</ele>
        <time>2020-09-13T13:43:26Z</time>
      </trkpt>
      <trkpt lat="42.9005710" lon="-2.5428900">
        <ele>534.8</ele>
        <time>2020-09-13T13:43:30Z</time>
      </trkpt>
      <trkpt lat="42.9005710" lon="-2.5428900">
        <ele>534.8</ele>
        <time>2020-09-13T13:43:34Z</time>
      </trkpt>
      <trkpt lat="42.9005710" lon="-2.5428900">
        <ele>534.8</ele>
        <time>2020-09-13T13:43:38Z</time>
      </trkpt>
      <trkpt lat="42.9005710" lon="-2.5428900">
        <ele>534.8</ele>
        <time>2020-09-13T13:43:42Z</time>
      </trkpt>
      <trkpt lat="42.9005710" lon="-2.5428900">
        <ele>535.0</ele>
        <time>2020-09-13T13:43:46Z</time>
      </trkpt>
      <trkpt lat="42.9005710" lon="-2.5428900">
        <ele>534.8</ele>
        <time>2020-09-13T13:43:50Z</time>
      </trkpt>
      <trkpt lat="42.9005710" lon="-2.5428900">
        <ele>534.8</ele>
        <time>2020-09-13T13:43:54Z</time>
      </trkpt>
      <trkpt lat="42.9005710" lon="-2.5428900">
        <ele>535.0</ele>
        <time>2020-09-13T13:43:58Z</time>
      </trkpt>
      <trkpt lat="42.9005710" lon="-2.5428900">
        <ele>534.8</ele>
        <time>2020-09-13T13:44:02Z</time>
      </trkpt>
      <trkpt lat="42.9005710" lon="-2.5428900">
        <ele>535.0</ele>
        <time>2020-09-13T13:44:06Z</time>
      </trkpt>
      <trkpt lat="42.9005710" lon="-2.5428900">
        <ele>535.0</ele>
        <time>2020-09-13T13:44:10Z</time>
      </trkpt>
      <trkpt lat="42.9005710" lon="-2.5428900">
        <ele>534.6</ele>
        <time>2020-09-13T13:44:14Z</time>
      </trkpt>
      <trkpt lat="42.9005710" lon="-2.5428900">
        <ele>534.8</ele>
        <time>2020-09-13T13:44:18Z</time>
      </trkpt>
      <trkpt lat="42.9005710" lon="-2.5428900">
        <ele>534.8</ele>
        <time>2020-09-13T13:44:22Z</time>
      </trkpt>
      <trkpt lat="42.9005710" lon="-2.5428900">
        <ele>534.6</ele>
        <time>2020-09-13T13:44:26Z</time>
      </trkpt>
      <trkpt lat="42.9005710" lon="-2.5428900">
        <ele>535.0</ele>
        <time>2020-09-13T13:44:30Z</time>
      </trkpt>
      <trkpt lat="42.9005710" lon="-2.5428900">
        <ele>534.8</ele>
        <time>2020-09-13T13:44:34Z</time>
      </trkpt>
      <trkpt lat="42.9005710" lon="-2.5428900">
        <ele>535.0</ele>
        <time>2020-09-13T13:44:38Z</time>
      </trkpt>
      <trkpt lat="42.9005710" lon="-2.5428900">
        <ele>534.6</ele>
        <time>2020-09-13T13:44:42Z</time>
      </trkpt>
      <trkpt lat="42.9005710" lon="-2.5428900">
        <ele>534.6</ele>
        <time>2020-09-13T13:44:46Z</time>
      </trkpt>
      <trkpt lat="42.9005710" lon="-2.5428900">
        <ele>534.8</ele>
        <time>2020-09-13T13:44:50Z</time>
      </trkpt>
      <trkpt lat="42.9005710" lon="-2.5428900">
        <ele>535.0</ele>
        <time>2020-09-13T13:44:54Z</time>
      </trkpt>
      <trkpt lat="42.9005710" lon="-2.5428900">
        <ele>534.8</ele>
        <time>2020-09-13T13:44:58Z</time>
      </trkpt>
      <trkpt lat="42.9005710" lon="-2.5428900">
        <ele>535.0</ele>
        <time>2020-09-13T13:45:02Z</time>
      </trkpt>
      <trkpt lat="42.9005710" lon="-2.5428900">
        <ele>535.0</ele>
        <time>2020-09-13T13:45:06Z</time>
      </trkpt>
      <trkpt lat="42.9005710" lon="-2.5428900">
        <ele>534.8</ele>
        <time>2020-09-13T13:45:10Z</time>
      </trkpt>
      <trkpt lat="42.9005710" lon="-2.5428900">
        <ele>534.8</ele>
        <time>2020-09-13T13:45:14Z</time>
      </trkpt>
      <trkpt lat="42.9005710" lon="-2.5428900">
        <ele>534.8</ele>
        <time>2020-09-13T13:45:18Z</time>
      </trkpt>
      <trkpt lat="42.9005710" lon="-2.5428900">
        <ele>534.4</ele>
        <time>2020-09-13T13:45:22Z</time>
      </trkpt>
      <trkpt lat="42.9005710" lon="-2.5428900">
        <ele>534.6</ele>
        <time>2020-09-13T13:45:26Z</time>
      </trkpt>
      <trkpt lat="42.9005710" lon="-2.5428900">
        <ele>535.4</ele>
        <time>2020-09-13T13:45:30Z</time>
      </trkpt>
      <trkpt lat="42.9005710" lon="-2.5428900">
        <ele>534.4</ele>
        <time>2020-09-13T13:45:34Z</time>
      </trkpt>
      <trkpt lat="42.9005710" lon="-2.5428900">
        <ele>534.6</ele>
        <time>2020-09-13T13:45:38Z</time>
      </trkpt>
      <trkpt lat="42.9005710" lon="-2.5428900">
        <ele>534.4</ele>
        <time>2020-09-13T13:45:42Z</time>
      </trkpt>
      <trkpt lat="42.9005710" lon="-2.5428900">
        <ele>534.8</ele>
        <time>2020-09-13T13:45:46Z</time>
      </trkpt>
      <trkpt lat="42.9005710" lon="-2.5428900">
        <ele>534.8</ele>
        <time>2020-09-13T13:45:50Z</time>
      </trkpt>
      <trkpt lat="42.9005710" lon="-2.5428900">
        <ele>534.6</ele>
        <time>2020-09-13T13:45:54Z</time>
      </trkpt>
      <trkpt lat="42.9005710" lon="-2.5428900">
        <ele>534.8</ele>
        <time>2020-09-13T13:45:58Z</time>
      </trkpt>
      <trkpt lat="42.9005710" lon="-2.5428900">
        <ele>535.2</ele>
        <time>2020-09-13T13:46:02Z</time>
      </trkpt>
      <trkpt lat="42.9005710" lon="-2.5428900">
        <ele>535.0</ele>
        <time>2020-09-13T13:46:06Z</time>
      </trkpt>
      <trkpt lat="42.9005710" lon="-2.5428900">
        <ele>534.8</ele>
        <time>2020-09-13T13:46:10Z</time>
      </trkpt>
      <trkpt lat="42.9005710" lon="-2.5428900">
        <ele>534.8</ele>
        <time>2020-09-13T13:46:14Z</time>
      </trkpt>
      <trkpt lat="42.9005710" lon="-2.5428900">
        <ele>535.0</ele>
        <time>2020-09-13T13:46:18Z</time>
      </trkpt>
      <trkpt lat="42.9005710" lon="-2.5428900">
        <ele>534.8</ele>
        <time>2020-09-13T13:46:22Z</time>
      </trkpt>
      <trkpt lat="42.9005710" lon="-2.5428900">
        <ele>535.0</ele>
        <time>2020-09-13T13:46:26Z</time>
      </trkpt>
      <trkpt lat="42.9005710" lon="-2.5428900">
        <ele>534.6</ele>
        <time>2020-09-13T13:46:30Z</time>
      </trkpt>
      <trkpt lat="42.9005710" lon="-2.5428900">
        <ele>534.8</ele>
        <time>2020-09-13T13:46:34Z</time>
      </trkpt>
      <trkpt lat="42.9005710" lon="-2.5428900">
        <ele>534.8</ele>
        <time>2020-09-13T13:46:38Z</time>
      </trkpt>
      <trkpt lat="42.9005710" lon="-2.5428900">
        <ele>534.8</ele>
        <time>2020-09-13T13:46:42Z</time>
      </trkpt>
      <trkpt lat="42.9005710" lon="-2.5428900">
        <ele>535.0</ele>
        <time>2020-09-13T13:46:46Z</time>
      </trkpt>
      <trkpt lat="42.9005710" lon="-2.5428900">
        <ele>535.2</ele>
        <time>2020-09-13T13:46:50Z</time>
      </trkpt>
      <trkpt lat="42.9005710" lon="-2.5428900">
        <ele>535.0</ele>
        <time>2020-09-13T13:46:54Z</time>
      </trkpt>
      <trkpt lat="42.9005710" lon="-2.5428900">
        <ele>535.2</ele>
        <time>2020-09-13T13:46:58Z</time>
      </trkpt>
      <trkpt lat="42.9005710" lon="-2.5428900">
        <ele>535.0</ele>
        <time>2020-09-13T13:47:02Z</time>
      </trkpt>
      <trkpt lat="42.9005710" lon="-2.5428900">
        <ele>535.2</ele>
        <time>2020-09-13T13:47:06Z</time>
      </trkpt>
      <trkpt lat="42.9005710" lon="-2.5428900">
        <ele>534.8</ele>
        <time>2020-09-13T13:47:10Z</time>
      </trkpt>
      <trkpt lat="42.9005710" lon="-2.5428900">
        <ele>535.0</ele>
        <time>2020-09-13T13:47:14Z</time>
      </trkpt>
      <trkpt lat="42.9005710" lon="-2.5428900">
        <ele>535.2</ele>
        <time>2020-09-13T13:47:18Z</time>
      </trkpt>
      <trkpt lat="42.9005710" lon="-2.5428900">
        <ele>535.2</ele>
        <time>2020-09-13T13:47:22Z</time>
      </trkpt>
      <trkpt lat="42.9005710" lon="-2.5428900">
        <ele>535.4</ele>
        <time>2020-09-13T13:47:26Z</time>
      </trkpt>
      <trkpt lat="42.9005710" lon="-2.5428900">
        <ele>535.4</ele>
        <time>2020-09-13T13:47:30Z</time>
      </trkpt>
      <trkpt lat="42.9005710" lon="-2.5428900">
        <ele>535.4</ele>
        <time>2020-09-13T13:47:34Z</time>
      </trkpt>
      <trkpt lat="42.9005710" lon="-2.5428900">
        <ele>535.4</ele>
        <time>2020-09-13T13:47:38Z</time>
      </trkpt>
      <trkpt lat="42.9005710" lon="-2.5428900">
        <ele>535.2</ele>
        <time>2020-09-13T13:47:42Z</time>
      </trkpt>
      <trkpt lat="42.9005710" lon="-2.5428900">
        <ele>535.6</ele>
        <time>2020-09-13T13:47:46Z</time>
      </trkpt>
      <trkpt lat="42.9005710" lon="-2.5428900">
        <ele>535.6</ele>
        <time>2020-09-13T13:47:50Z</time>
      </trkpt>
      <trkpt lat="42.9005710" lon="-2.5428900">
        <ele>535.4</ele>
        <time>2020-09-13T13:47:54Z</time>
      </trkpt>
      <trkpt lat="42.9005710" lon="-2.5428900">
        <ele>535.4</ele>
        <time>2020-09-13T13:47:58Z</time>
      </trkpt>
      <trkpt lat="42.9005710" lon="-2.5428900">
        <ele>535.4</ele>
        <time>2020-09-13T13:48:02Z</time>
      </trkpt>
      <trkpt lat="42.9005710" lon="-2.5428900">
        <ele>535.4</ele>
        <time>2020-09-13T13:48:06Z</time>
      </trkpt>
      <trkpt lat="42.9005710" lon="-2.5428900">
        <ele>535.6</ele>
        <time>2020-09-13T13:48:10Z</time>
      </trkpt>
      <trkpt lat="42.9005710" lon="-2.5428900">
        <ele>535.6</ele>
        <time>2020-09-13T13:48:14Z</time>
      </trkpt>
      <trkpt lat="42.9005710" lon="-2.5428900">
        <ele>535.6</ele>
        <time>2020-09-13T13:48:18Z</time>
      </trkpt>
      <trkpt lat="42.9005710" lon="-2.5428900">
        <ele>535.6</ele>
        <time>2020-09-13T13:48:22Z</time>
      </trkpt>
      <trkpt lat="42.9005710" lon="-2.5428900">
        <ele>535.6</ele>
        <time>2020-09-13T13:48:26Z</time>
      </trkpt>
      <trkpt lat="42.9005710" lon="-2.5428900">
        <ele>535.4</ele>
        <time>2020-09-13T13:48:30Z</time>
      </trkpt>
      <trkpt lat="42.9005710" lon="-2.5428900">
        <ele>535.6</ele>
        <time>2020-09-13T13:48:34Z</time>
      </trkpt>
      <trkpt lat="42.9005710" lon="-2.5428900">
        <ele>535.4</ele>
        <time>2020-09-13T13:48:38Z</time>
      </trkpt>
      <trkpt lat="42.9005710" lon="-2.5428900">
        <ele>535.4</ele>
        <time>2020-09-13T13:48:42Z</time>
      </trkpt>
      <trkpt lat="42.9005710" lon="-2.5428900">
        <ele>535.4</ele>
        <time>2020-09-13T13:48:46Z</time>
      </trkpt>
      <trkpt lat="42.9005710" lon="-2.5428900">
        <ele>535.4</ele>
        <time>2020-09-13T13:48:50Z</time>
      </trkpt>
      <trkpt lat="42.9005710" lon="-2.5428900">
        <ele>535.2</ele>
        <time>2020-09-13T13:48:54Z</time>
      </trkpt>
      <trkpt lat="42.9005710" lon="-2.5428900">
        <ele>535.4</ele>
        <time>2020-09-13T13:48:58Z</time>
      </trkpt>
      <trkpt lat="42.9005710" lon="-2.5428900">
        <ele>535.4</ele>
        <time>2020-09-13T13:49:02Z</time>
      </trkpt>
      <trkpt lat="42.9005710" lon="-2.5428900">
        <ele>535.4</ele>
        <time>2020-09-13T13:49:06Z</time>
      </trkpt>
      <trkpt lat="42.9005710" lon="-2.5428900">
        <ele>535.6</ele>
        <time>2020-09-13T13:49:10Z</time>
      </trkpt>
      <trkpt lat="42.9005710" lon="-2.5428900">
        <ele>535.4</ele>
        <time>2020-09-13T13:49:14Z</time>
      </trkpt>
      <trkpt lat="42.9005710" lon="-2.5428900">
        <ele>535.0</ele>
        <time>2020-09-13T13:49:18Z</time>
      </trkpt>
      <trkpt lat="42.9005710" lon="-2.5428900">
        <ele>535.2</ele>
        <time>2020-09-13T13:49:22Z</time>
      </trkpt>
      <trkpt lat="42.9005710" lon="-2.5428900">
        <ele>535.4</ele>
        <time>2020-09-13T13:49:26Z</time>
      </trkpt>
      <trkpt lat="42.9005710" lon="-2.5428900">
        <ele>535.4</ele>
        <time>2020-09-13T13:49:30Z</time>
      </trkpt>
      <trkpt lat="42.9005710" lon="-2.5428900">
        <ele>535.4</ele>
        <time>2020-09-13T13:49:34Z</time>
      </trkpt>
      <trkpt lat="42.9005710" lon="-2.5428900">
        <ele>535.2</ele>
        <time>2020-09-13T13:49:38Z</time>
      </trkpt>
      <trkpt lat="42.9005710" lon="-2.5428900">
        <ele>535.4</ele>
        <time>2020-09-13T13:49:42Z</time>
      </trkpt>
      <trkpt lat="42.9005710" lon="-2.5428900">
        <ele>535.6</ele>
        <time>2020-09-13T13:49:46Z</time>
      </trkpt>
      <trkpt lat="42.9005710" lon="-2.5428900">
        <ele>535.4</ele>
        <time>2020-09-13T13:49:50Z</time>
      </trkpt>
      <trkpt lat="42.9005710" lon="-2.5428900">
        <ele>535.4</ele>
        <time>2020-09-13T13:49:54Z</time>
      </trkpt>
      <trkpt lat="42.9005710" lon="-2.5428900">
        <ele>535.4</ele>
        <time>2020-09-13T13:49:58Z</time>
      </trkpt>
      <trkpt lat="42.9005710" lon="-2.5428900">
        <ele>535.2</ele>
        <time>2020-09-13T13:50:02Z</time>
      </trkpt>
      <trkpt lat="42.9005710" lon="-2.5428900">
        <ele>535.4</ele>
        <time>2020-09-13T13:50:06Z</time>
      </trkpt>
      <trkpt lat="42.9005710" lon="-2.5428900">
        <ele>535.4</ele>
        <time>2020-09-13T13:50:10Z</time>
      </trkpt>
      <trkpt lat="42.9005710" lon="-2.5428900">
        <ele>535.8</ele>
        <time>2020-09-13T13:50:14Z</time>
      </trkpt>
      <trkpt lat="42.9005710" lon="-2.5428900">
        <ele>535.4</ele>
        <time>2020-09-13T13:50:18Z</time>
      </trkpt>
      <trkpt lat="42.9005710" lon="-2.5428900">
        <ele>535.4</ele>
        <time>2020-09-13T13:50:22Z</time>
      </trkpt>
      <trkpt lat="42.9005710" lon="-2.5428900">
        <ele>535.6</ele>
        <time>2020-09-13T13:50:26Z</time>
      </trkpt>
      <trkpt lat="42.9005710" lon="-2.5428900">
        <ele>535.6</ele>
        <time>2020-09-13T13:50:30Z</time>
      </trkpt>
      <trkpt lat="42.9005710" lon="-2.5428900">
        <ele>535.4</ele>
        <time>2020-09-13T13:50:34Z</time>
      </trkpt>
      <trkpt lat="42.9005710" lon="-2.5428900">
        <ele>535.6</ele>
        <time>2020-09-13T13:50:38Z</time>
      </trkpt>
      <trkpt lat="42.9005710" lon="-2.5428900">
        <ele>535.6</ele>
        <time>2020-09-13T13:50:42Z</time>
      </trkpt>
      <trkpt lat="42.9005710" lon="-2.5428900">
        <ele>536.0</ele>
        <time>2020-09-13T13:50:46Z</time>
      </trkpt>
      <trkpt lat="42.9005710" lon="-2.5428900">
        <ele>535.6</ele>
        <time>2020-09-13T13:50:50Z</time>
      </trkpt>
      <trkpt lat="42.9005710" lon="-2.5428900">
        <ele>535.6</ele>
        <time>2020-09-13T13:50:54Z</time>
      </trkpt>
      <trkpt lat="42.9005710" lon="-2.5428900">
        <ele>535.8</ele>
        <time>2020-09-13T13:50:58Z</time>
      </trkpt>
      <trkpt lat="42.9005710" lon="-2.5428900">
        <ele>535.6</ele>
        <time>2020-09-13T13:51:02Z</time>
      </trkpt>
      <trkpt lat="42.9005710" lon="-2.5428900">
        <ele>535.8</ele>
        <time>2020-09-13T13:51:06Z</time>
      </trkpt>
      <trkpt lat="42.9005710" lon="-2.5428900">
        <ele>535.6</ele>
        <time>2020-09-13T13:51:10Z</time>
      </trkpt>
      <trkpt lat="42.9005710" lon="-2.5428900">
        <ele>536.0</ele>
        <time>2020-09-13T13:51:14Z</time>
      </trkpt>
      <trkpt lat="42.9005710" lon="-2.5428900">
        <ele>535.6</ele>
        <time>2020-09-13T13:51:18Z</time>
      </trkpt>
      <trkpt lat="42.9005710" lon="-2.5428900">
        <ele>536.0</ele>
        <time>2020-09-13T13:51:22Z</time>
      </trkpt>
      <trkpt lat="42.9005710" lon="-2.5428900">
        <ele>536.0</ele>
        <time>2020-09-13T13:51:26Z</time>
      </trkpt>
      <trkpt lat="42.9005710" lon="-2.5428900">
        <ele>535.6</ele>
        <time>2020-09-13T13:51:30Z</time>
      </trkpt>
      <trkpt lat="42.9005710" lon="-2.5428900">
        <ele>536.0</ele>
        <time>2020-09-13T13:51:34Z</time>
      </trkpt>
      <trkpt lat="42.9005710" lon="-2.5428900">
        <ele>536.0</ele>
        <time>2020-09-13T13:51:38Z</time>
      </trkpt>
      <trkpt lat="42.9005710" lon="-2.5428900">
        <ele>535.8</ele>
        <time>2020-09-13T13:51:42Z</time>
      </trkpt>
      <trkpt lat="42.9005710" lon="-2.5428900">
        <ele>536.0</ele>
        <time>2020-09-13T13:51:46Z</time>
      </trkpt>
      <trkpt lat="42.9005710" lon="-2.5428900">
        <ele>536.0</ele>
        <time>2020-09-13T13:51:50Z</time>
      </trkpt>
      <trkpt lat="42.9005710" lon="-2.5428900">
        <ele>536.0</ele>
        <time>2020-09-13T13:51:54Z</time>
      </trkpt>
      <trkpt lat="42.9005710" lon="-2.5428900">
        <ele>536.6</ele>
        <time>2020-09-13T13:51:58Z</time>
      </trkpt>
      <trkpt lat="42.9005710" lon="-2.5428900">
        <ele>536.0</ele>
        <time>2020-09-13T13:52:02Z</time>
      </trkpt>
      <trkpt lat="42.9005710" lon="-2.5428900">
        <ele>536.0</ele>
        <time>2020-09-13T13:52:06Z</time>
      </trkpt>
      <trkpt lat="42.9005710" lon="-2.5428900">
        <ele>536.2</ele>
        <time>2020-09-13T13:52:10Z</time>
      </trkpt>
      <trkpt lat="42.9005710" lon="-2.5428900">
        <ele>536.2</ele>
        <time>2020-09-13T13:52:14Z</time>
      </trkpt>
      <trkpt lat="42.9005710" lon="-2.5428900">
        <ele>536.0</ele>
        <time>2020-09-13T13:52:18Z</time>
      </trkpt>
      <trkpt lat="42.9005710" lon="-2.5428900">
        <ele>535.6</ele>
        <time>2020-09-13T13:52:22Z</time>
      </trkpt>
      <trkpt lat="42.9005710" lon="-2.5428900">
        <ele>535.8</ele>
        <time>2020-09-13T13:52:26Z</time>
      </trkpt>
      <trkpt lat="42.9005710" lon="-2.5428900">
        <ele>535.6</ele>
        <time>2020-09-13T13:52:30Z</time>
      </trkpt>
      <trkpt lat="42.9005710" lon="-2.5428900">
        <ele>535.8</ele>
        <time>2020-09-13T13:52:34Z</time>
      </trkpt>
      <trkpt lat="42.9005710" lon="-2.5428900">
        <ele>535.6</ele>
        <time>2020-09-13T13:52:38Z</time>
      </trkpt>
      <trkpt lat="42.9005710" lon="-2.5428900">
        <ele>535.6</ele>
        <time>2020-09-13T13:52:42Z</time>
      </trkpt>
      <trkpt lat="42.9005710" lon="-2.5428900">
        <ele>536.0</ele>
        <time>2020-09-13T13:52:46Z</time>
      </trkpt>
      <trkpt lat="42.9005710" lon="-2.5428900">
        <ele>536.0</ele>
        <time>2020-09-13T13:52:50Z</time>
      </trkpt>
      <trkpt lat="42.9005710" lon="-2.5428900">
        <ele>536.4</ele>
        <time>2020-09-13T13:52:54Z</time>
      </trkpt>
      <trkpt lat="42.9005710" lon="-2.5428900">
        <ele>535.8</ele>
        <time>2020-09-13T13:52:58Z</time>
      </trkpt>
      <trkpt lat="42.9005710" lon="-2.5428900">
        <ele>536.0</ele>
        <time>2020-09-13T13:53:02Z</time>
      </trkpt>
      <trkpt lat="42.9005710" lon="-2.5428900">
        <ele>535.8</ele>
        <time>2020-09-13T13:53:06Z</time>
      </trkpt>
      <trkpt lat="42.9005710" lon="-2.5428900">
        <ele>536.0</ele>
        <time>2020-09-13T13:53:10Z</time>
      </trkpt>
      <trkpt lat="42.9005710" lon="-2.5428900">
        <ele>535.8</ele>
        <time>2020-09-13T13:53:14Z</time>
      </trkpt>
      <trkpt lat="42.9005710" lon="-2.5428900">
        <ele>536.0</ele>
        <time>2020-09-13T13:53:18Z</time>
      </trkpt>
      <trkpt lat="42.9005710" lon="-2.5428900">
        <ele>535.8</ele>
        <time>2020-09-13T13:53:22Z</time>
      </trkpt>
      <trkpt lat="42.9005710" lon="-2.5428900">
        <ele>536.4</ele>
        <time>2020-09-13T13:53:26Z</time>
      </trkpt>
      <trkpt lat="42.9005710" lon="-2.5428900">
        <ele>536.2</ele>
        <time>2020-09-13T13:53:30Z</time>
      </trkpt>
      <trkpt lat="42.9005710" lon="-2.5428900">
        <ele>536.2</ele>
        <time>2020-09-13T13:53:34Z</time>
      </trkpt>
      <trkpt lat="42.9005710" lon="-2.5428900">
        <ele>536.0</ele>
        <time>2020-09-13T13:53:38Z</time>
      </trkpt>
      <trkpt lat="42.9005710" lon="-2.5428900">
        <ele>536.0</ele>
        <time>2020-09-13T13:53:42Z</time>
      </trkpt>
      <trkpt lat="42.9005710" lon="-2.5428900">
        <ele>535.8</ele>
        <time>2020-09-13T13:53:46Z</time>
      </trkpt>
      <trkpt lat="42.9005710" lon="-2.5428900">
        <ele>536.0</ele>
        <time>2020-09-13T13:53:50Z</time>
      </trkpt>
      <trkpt lat="42.9005710" lon="-2.5428900">
        <ele>536.0</ele>
        <time>2020-09-13T13:53:54Z</time>
      </trkpt>
      <trkpt lat="42.9005710" lon="-2.5428900">
        <ele>536.2</ele>
        <time>2020-09-13T13:53:58Z</time>
      </trkpt>
      <trkpt lat="42.9005710" lon="-2.5428900">
        <ele>536.0</ele>
        <time>2020-09-13T13:54:02Z</time>
      </trkpt>
      <trkpt lat="42.9005710" lon="-2.5428900">
        <ele>536.0</ele>
        <time>2020-09-13T13:54:06Z</time>
      </trkpt>
      <trkpt lat="42.9005710" lon="-2.5428900">
        <ele>536.0</ele>
        <time>2020-09-13T13:54:10Z</time>
      </trkpt>
      <trkpt lat="42.9005710" lon="-2.5428900">
        <ele>535.8</ele>
        <time>2020-09-13T13:54:14Z</time>
      </trkpt>
      <trkpt lat="42.9005710" lon="-2.5428900">
        <ele>535.6</ele>
        <time>2020-09-13T13:54:18Z</time>
      </trkpt>
      <trkpt lat="42.9005710" lon="-2.5428900">
        <ele>535.8</ele>
        <time>2020-09-13T13:54:22Z</time>
      </trkpt>
      <trkpt lat="42.9005710" lon="-2.5428900">
        <ele>536.4</ele>
        <time>2020-09-13T13:54:26Z</time>
      </trkpt>
      <trkpt lat="42.9005710" lon="-2.5428900">
        <ele>536.2</ele>
        <time>2020-09-13T13:54:30Z</time>
      </trkpt>
      <trkpt lat="42.9005710" lon="-2.5428900">
        <ele>535.8</ele>
        <time>2020-09-13T13:54:34Z</time>
      </trkpt>
      <trkpt lat="42.9005710" lon="-2.5428900">
        <ele>536.0</ele>
        <time>2020-09-13T13:54:38Z</time>
      </trkpt>
      <trkpt lat="42.9005710" lon="-2.5428900">
        <ele>536.2</ele>
        <time>2020-09-13T13:54:42Z</time>
      </trkpt>
      <trkpt lat="42.9005710" lon="-2.5428900">
        <ele>536.2</ele>
        <time>2020-09-13T13:54:46Z</time>
      </trkpt>
      <trkpt lat="42.9005710" lon="-2.5428900">
        <ele>536.4</ele>
        <time>2020-09-13T13:54:50Z</time>
      </trkpt>
      <trkpt lat="42.9005710" lon="-2.5428900">
        <ele>536.0</ele>
        <time>2020-09-13T13:54:54Z</time>
      </trkpt>
      <trkpt lat="42.9005710" lon="-2.5428900">
        <ele>535.8</ele>
        <time>2020-09-13T13:54:58Z</time>
      </trkpt>
      <trkpt lat="42.9005710" lon="-2.5428900">
        <ele>536.8</ele>
        <time>2020-09-13T13:55:02Z</time>
      </trkpt>
      <trkpt lat="42.9005710" lon="-2.5428900">
        <ele>536.2</ele>
        <time>2020-09-13T13:55:06Z</time>
      </trkpt>
      <trkpt lat="42.9005710" lon="-2.5428900">
        <ele>536.2</ele>
        <time>2020-09-13T13:55:10Z</time>
      </trkpt>
      <trkpt lat="42.9005710" lon="-2.5428900">
        <ele>536.2</ele>
        <time>2020-09-13T13:55:14Z</time>
      </trkpt>
      <trkpt lat="42.9005710" lon="-2.5428900">
        <ele>536.4</ele>
        <time>2020-09-13T13:55:18Z</time>
      </trkpt>
      <trkpt lat="42.9005710" lon="-2.5428900">
        <ele>536.0</ele>
        <time>2020-09-13T13:55:22Z</time>
      </trkpt>
      <trkpt lat="42.9005710" lon="-2.5428900">
        <ele>536.6</ele>
        <time>2020-09-13T13:55:26Z</time>
      </trkpt>
      <trkpt lat="42.9005710" lon="-2.5428900">
        <ele>536.4</ele>
        <time>2020-09-13T13:55:30Z</time>
      </trkpt>
      <trkpt lat="42.9005710" lon="-2.5428900">
        <ele>536.4</ele>
        <time>2020-09-13T13:55:34Z</time>
      </trkpt>
      <trkpt lat="42.9005710" lon="-2.5428900">
        <ele>536.2</ele>
        <time>2020-09-13T13:55:38Z</time>
      </trkpt>
      <trkpt lat="42.9005710" lon="-2.5428900">
        <ele>536.2</ele>
        <time>2020-09-13T13:55:42Z</time>
      </trkpt>
      <trkpt lat="42.9005710" lon="-2.5428900">
        <ele>536.4</ele>
        <time>2020-09-13T13:55:46Z</time>
      </trkpt>
      <trkpt lat="42.9005710" lon="-2.5428900">
        <ele>536.2</ele>
        <time>2020-09-13T13:55:50Z</time>
      </trkpt>
      <trkpt lat="42.9005710" lon="-2.5428900">
        <ele>536.2</ele>
        <time>2020-09-13T13:55:54Z</time>
      </trkpt>
      <trkpt lat="42.9005710" lon="-2.5428900">
        <ele>536.4</ele>
        <time>2020-09-13T13:55:58Z</time>
      </trkpt>
      <trkpt lat="42.9005710" lon="-2.5428900">
        <ele>536.4</ele>
        <time>2020-09-13T13:56:02Z</time>
      </trkpt>
      <trkpt lat="42.9005710" lon="-2.5428900">
        <ele>536.4</ele>
        <time>2020-09-13T13:56:06Z</time>
      </trkpt>
      <trkpt lat="42.9005710" lon="-2.5428900">
        <ele>536.4</ele>
        <time>2020-09-13T13:56:10Z</time>
      </trkpt>
      <trkpt lat="42.9005710" lon="-2.5428900">
        <ele>536.4</ele>
        <time>2020-09-13T13:56:14Z</time>
      </trkpt>
      <trkpt lat="42.9005710" lon="-2.5428900">
        <ele>536.0</ele>
        <time>2020-09-13T13:56:18Z</time>
      </trkpt>
      <trkpt lat="42.9005710" lon="-2.5428900">
        <ele>536.6</ele>
        <time>2020-09-13T13:56:22Z</time>
      </trkpt>
      <trkpt lat="42.9005710" lon="-2.5428900">
        <ele>536.2</ele>
        <time>2020-09-13T13:56:26Z</time>
      </trkpt>
      <trkpt lat="42.9005710" lon="-2.5428900">
        <ele>536.6</ele>
        <time>2020-09-13T13:56:30Z</time>
      </trkpt>
      <trkpt lat="42.9005710" lon="-2.5428900">
        <ele>536.4</ele>
        <time>2020-09-13T13:56:34Z</time>
      </trkpt>
      <trkpt lat="42.9005710" lon="-2.5428900">
        <ele>536.4</ele>
        <time>2020-09-13T13:56:38Z</time>
      </trkpt>
      <trkpt lat="42.9005710" lon="-2.5428900">
        <ele>536.2</ele>
        <time>2020-09-13T13:56:42Z</time>
      </trkpt>
      <trkpt lat="42.9005710" lon="-2.5428900">
        <ele>536.4</ele>
        <time>2020-09-13T13:56:46Z</time>
      </trkpt>
      <trkpt lat="42.9005710" lon="-2.5428900">
        <ele>536.4</ele>
        <time>2020-09-13T13:56:50Z</time>
      </trkpt>
      <trkpt lat="42.9005710" lon="-2.5428900">
        <ele>536.6</ele>
        <time>2020-09-13T13:56:54Z</time>
      </trkpt>
      <trkpt lat="42.9005710" lon="-2.5428900">
        <ele>536.6</ele>
        <time>2020-09-13T13:56:58Z</time>
      </trkpt>
      <trkpt lat="42.9005710" lon="-2.5428900">
        <ele>536.4</ele>
        <time>2020-09-13T13:57:02Z</time>
      </trkpt>
      <trkpt lat="42.9005710" lon="-2.5428900">
        <ele>536.6</ele>
        <time>2020-09-13T13:57:06Z</time>
      </trkpt>
      <trkpt lat="42.9005710" lon="-2.5428900">
        <ele>536.6</ele>
        <time>2020-09-13T13:57:10Z</time>
      </trkpt>
      <trkpt lat="42.9005710" lon="-2.5428900">
        <ele>536.6</ele>
        <time>2020-09-13T13:57:14Z</time>
      </trkpt>
      <trkpt lat="42.9005710" lon="-2.5428900">
        <ele>536.6</ele>
        <time>2020-09-13T13:57:18Z</time>
      </trkpt>
      <trkpt lat="42.9005710" lon="-2.5428900">
        <ele>536.6</ele>
        <time>2020-09-13T13:57:22Z</time>
      </trkpt>
      <trkpt lat="42.9005710" lon="-2.5428900">
        <ele>536.6</ele>
        <time>2020-09-13T13:57:26Z</time>
      </trkpt>
      <trkpt lat="42.9005710" lon="-2.5428900">
        <ele>536.6</ele>
        <time>2020-09-13T13:57:30Z</time>
      </trkpt>
      <trkpt lat="42.9005710" lon="-2.5428900">
        <ele>536.6</ele>
        <time>2020-09-13T13:57:34Z</time>
      </trkpt>
      <trkpt lat="42.9005710" lon="-2.5428900">
        <ele>536.6</ele>
        <time>2020-09-13T13:57:38Z</time>
      </trkpt>
      <trkpt lat="42.9005710" lon="-2.5428900">
        <ele>536.6</ele>
        <time>2020-09-13T13:57:42Z</time>
      </trkpt>
      <trkpt lat="42.9005710" lon="-2.5428900">
        <ele>536.6</ele>
        <time>2020-09-13T13:57:46Z</time>
      </trkpt>
      <trkpt lat="42.9005710" lon="-2.5428900">
        <ele>536.8</ele>
        <time>2020-09-13T13:57:50Z</time>
      </trkpt>
      <trkpt lat="42.9005710" lon="-2.5428900">
        <ele>536.4</ele>
        <time>2020-09-13T13:57:54Z</time>
      </trkpt>
      <trkpt lat="42.9005710" lon="-2.5428900">
        <ele>536.8</ele>
        <time>2020-09-13T13:57:58Z</time>
      </trkpt>
      <trkpt lat="42.9005710" lon="-2.5428900">
        <ele>536.4</ele>
        <time>2020-09-13T13:58:02Z</time>
      </trkpt>
      <trkpt lat="42.9005710" lon="-2.5428900">
        <ele>536.6</ele>
        <time>2020-09-13T13:58:06Z</time>
      </trkpt>
      <trkpt lat="42.9005710" lon="-2.5428900">
        <ele>536.4</ele>
        <time>2020-09-13T13:58:10Z</time>
      </trkpt>
      <trkpt lat="42.9005710" lon="-2.5428900">
        <ele>536.6</ele>
        <time>2020-09-13T13:58:14Z</time>
      </trkpt>
      <trkpt lat="42.9005710" lon="-2.5428900">
        <ele>536.4</ele>
        <time>2020-09-13T13:58:18Z</time>
      </trkpt>
      <trkpt lat="42.9005710" lon="-2.5428900">
        <ele>536.8</ele>
        <time>2020-09-13T13:58:22Z</time>
      </trkpt>
      <trkpt lat="42.9005710" lon="-2.5428900">
        <ele>536.8</ele>
        <time>2020-09-13T13:58:26Z</time>
      </trkpt>
      <trkpt lat="42.9005710" lon="-2.5428900">
        <ele>536.4</ele>
        <time>2020-09-13T13:58:30Z</time>
      </trkpt>
      <trkpt lat="42.9005710" lon="-2.5428900">
        <ele>536.6</ele>
        <time>2020-09-13T13:58:34Z</time>
      </trkpt>
      <trkpt lat="42.9005710" lon="-2.5428900">
        <ele>536.8</ele>
        <time>2020-09-13T13:58:38Z</time>
      </trkpt>
      <trkpt lat="42.9005710" lon="-2.5428900">
        <ele>536.8</ele>
        <time>2020-09-13T13:58:42Z</time>
      </trkpt>
      <trkpt lat="42.9005710" lon="-2.5428900">
        <ele>536.6</ele>
        <time>2020-09-13T13:58:46Z</time>
      </trkpt>
      <trkpt lat="42.9005710" lon="-2.5428900">
        <ele>536.6</ele>
        <time>2020-09-13T13:58:50Z</time>
      </trkpt>
      <trkpt lat="42.9005710" lon="-2.5428900">
        <ele>536.6</ele>
        <time>2020-09-13T13:58:54Z</time>
      </trkpt>
      <trkpt lat="42.9005710" lon="-2.5428900">
        <ele>537.4</ele>
        <time>2020-09-13T13:58:58Z</time>
      </trkpt>
      <trkpt lat="42.9005710" lon="-2.5428900">
        <ele>537.2</ele>
        <time>2020-09-13T13:59:02Z</time>
      </trkpt>
      <trkpt lat="42.9005710" lon="-2.5428900">
        <ele>536.6</ele>
        <time>2020-09-13T13:59:06Z</time>
      </trkpt>
      <trkpt lat="42.9005710" lon="-2.5428900">
        <ele>536.8</ele>
        <time>2020-09-13T13:59:10Z</time>
      </trkpt>
      <trkpt lat="42.9005710" lon="-2.5428900">
        <ele>536.6</ele>
        <time>2020-09-13T13:59:14Z</time>
      </trkpt>
      <trkpt lat="42.9005710" lon="-2.5428900">
        <ele>536.6</ele>
        <time>2020-09-13T13:59:18Z</time>
      </trkpt>
      <trkpt lat="42.9005710" lon="-2.5428900">
        <ele>536.8</ele>
        <time>2020-09-13T13:59:22Z</time>
      </trkpt>
      <trkpt lat="42.9005710" lon="-2.5428900">
        <ele>536.6</ele>
        <time>2020-09-13T13:59:26Z</time>
      </trkpt>
      <trkpt lat="42.9005710" lon="-2.5428900">
        <ele>537.0</ele>
        <time>2020-09-13T13:59:30Z</time>
      </trkpt>
      <trkpt lat="42.9005710" lon="-2.5428900">
        <ele>536.6</ele>
        <time>2020-09-13T13:59:34Z</time>
      </trkpt>
      <trkpt lat="42.9005710" lon="-2.5428900">
        <ele>536.6</ele>
        <time>2020-09-13T13:59:38Z</time>
      </trkpt>
      <trkpt lat="42.9005710" lon="-2.5428900">
        <ele>536.8</ele>
        <time>2020-09-13T13:59:42Z</time>
      </trkpt>
      <trkpt lat="42.9005710" lon="-2.5428900">
        <ele>537.2</ele>
        <time>2020-09-13T13:59:46Z</time>
      </trkpt>
      <trkpt lat="42.9005710" lon="-2.5428900">
        <ele>536.6</ele>
        <time>2020-09-13T13:59:50Z</time>
      </trkpt>
      <trkpt lat="42.9005710" lon="-2.5428900">
        <ele>537.0</ele>
        <time>2020-09-13T13:59:54Z</time>
      </trkpt>
      <trkpt lat="42.9005710" lon="-2.5428900">
        <ele>536.8</ele>
        <time>2020-09-13T13:59:58Z</time>
      </trkpt>
      <trkpt lat="42.9005710" lon="-2.5428900">
        <ele>536.8</ele>
        <time>2020-09-13T14:00:02Z</time>
      </trkpt>
      <trkpt lat="42.9005710" lon="-2.5428900">
        <ele>536.8</ele>
        <time>2020-09-13T14:00:06Z</time>
      </trkpt>
      <trkpt lat="42.9005710" lon="-2.5428900">
        <ele>536.8</ele>
        <time>2020-09-13T14:00:10Z</time>
      </trkpt>
      <trkpt lat="42.9005710" lon="-2.5428900">
        <ele>536.8</ele>
        <time>2020-09-13T14:00:14Z</time>
      </trkpt>
      <trkpt lat="42.9005710" lon="-2.5428900">
        <ele>536.8</ele>
        <time>2020-09-13T14:00:18Z</time>
      </trkpt>
      <trkpt lat="42.9005710" lon="-2.5428900">
        <ele>537.0</ele>
        <time>2020-09-13T14:00:22Z</time>
      </trkpt>
      <trkpt lat="42.9005710" lon="-2.5428900">
        <ele>536.8</ele>
        <time>2020-09-13T14:00:26Z</time>
      </trkpt>
      <trkpt lat="42.9005710" lon="-2.5428900">
        <ele>536.8</ele>
        <time>2020-09-13T14:00:30Z</time>
      </trkpt>
      <trkpt lat="42.9005710" lon="-2.5428900">
        <ele>536.8</ele>
        <time>2020-09-13T14:00:34Z</time>
      </trkpt>
      <trkpt lat="42.9005710" lon="-2.5428900">
        <ele>537.0</ele>
        <time>2020-09-13T14:00:38Z</time>
      </trkpt>
      <trkpt lat="42.9005710" lon="-2.5428900">
        <ele>536.6</ele>
        <time>2020-09-13T14:00:42Z</time>
      </trkpt>
      <trkpt lat="42.9005710" lon="-2.5428900">
        <ele>536.6</ele>
        <time>2020-09-13T14:00:46Z</time>
      </trkpt>
      <trkpt lat="42.9005710" lon="-2.5428900">
        <ele>536.4</ele>
        <time>2020-09-13T14:00:50Z</time>
      </trkpt>
      <trkpt lat="42.9005710" lon="-2.5428900">
        <ele>537.4</ele>
        <time>2020-09-13T14:00:54Z</time>
      </trkpt>
      <trkpt lat="42.9005710" lon="-2.5428900">
        <ele>537.4</ele>
        <time>2020-09-13T14:00:58Z</time>
      </trkpt>
      <trkpt lat="42.9005710" lon="-2.5428900">
        <ele>536.8</ele>
        <time>2020-09-13T14:01:02Z</time>
      </trkpt>
      <trkpt lat="42.9005710" lon="-2.5428900">
        <ele>536.8</ele>
        <time>2020-09-13T14:01:06Z</time>
      </trkpt>
      <trkpt lat="42.9005710" lon="-2.5428900">
        <ele>536.8</ele>
        <time>2020-09-13T14:01:10Z</time>
      </trkpt>
      <trkpt lat="42.9005710" lon="-2.5428900">
        <ele>537.0</ele>
        <time>2020-09-13T14:01:14Z</time>
      </trkpt>
      <trkpt lat="42.9005710" lon="-2.5428900">
        <ele>536.8</ele>
        <time>2020-09-13T14:01:18Z</time>
      </trkpt>
      <trkpt lat="42.9005710" lon="-2.5428900">
        <ele>536.8</ele>
        <time>2020-09-13T14:01:22Z</time>
      </trkpt>
      <trkpt lat="42.9005710" lon="-2.5428900">
        <ele>536.8</ele>
        <time>2020-09-13T14:01:26Z</time>
      </trkpt>
      <trkpt lat="42.9005710" lon="-2.5428900">
        <ele>537.2</ele>
        <time>2020-09-13T14:01:30Z</time>
      </trkpt>
      <trkpt lat="42.9005710" lon="-2.5428900">
        <ele>536.8</ele>
        <time>2020-09-13T14:01:34Z</time>
      </trkpt>
      <trkpt lat="42.9005710" lon="-2.5428900">
        <ele>537.6</ele>
        <time>2020-09-13T14:01:38Z</time>
      </trkpt>
      <trkpt lat="42.9005710" lon="-2.5428900">
        <ele>536.8</ele>
        <time>2020-09-13T14:01:42Z</time>
      </trkpt>
      <trkpt lat="42.9005710" lon="-2.5428900">
        <ele>537.2</ele>
        <time>2020-09-13T14:01:46Z</time>
      </trkpt>
      <trkpt lat="42.9005710" lon="-2.5428900">
        <ele>537.2</ele>
        <time>2020-09-13T14:01:50Z</time>
      </trkpt>
      <trkpt lat="42.9005710" lon="-2.5428900">
        <ele>537.6</ele>
        <time>2020-09-13T14:01:54Z</time>
      </trkpt>
      <trkpt lat="42.9005710" lon="-2.5428900">
        <ele>537.2</ele>
        <time>2020-09-13T14:01:58Z</time>
      </trkpt>
      <trkpt lat="42.9005710" lon="-2.5428900">
        <ele>537.6</ele>
        <time>2020-09-13T14:02:02Z</time>
      </trkpt>
      <trkpt lat="42.9005710" lon="-2.5428900">
        <ele>537.4</ele>
        <time>2020-09-13T14:02:06Z</time>
      </trkpt>
      <trkpt lat="42.9005710" lon="-2.5428900">
        <ele>537.2</ele>
        <time>2020-09-13T14:02:10Z</time>
      </trkpt>
      <trkpt lat="42.9005710" lon="-2.5428900">
        <ele>537.4</ele>
        <time>2020-09-13T14:02:14Z</time>
      </trkpt>
      <trkpt lat="42.9005710" lon="-2.5428900">
        <ele>537.2</ele>
        <time>2020-09-13T14:02:18Z</time>
      </trkpt>
      <trkpt lat="42.9005710" lon="-2.5428900">
        <ele>537.4</ele>
        <time>2020-09-13T14:02:22Z</time>
      </trkpt>
      <trkpt lat="42.9005710" lon="-2.5428900">
        <ele>537.4</ele>
        <time>2020-09-13T14:02:26Z</time>
      </trkpt>
      <trkpt lat="42.9005710" lon="-2.5428900">
        <ele>537.6</ele>
        <time>2020-09-13T14:02:30Z</time>
      </trkpt>
      <trkpt lat="42.9005710" lon="-2.5428900">
        <ele>537.6</ele>
        <time>2020-09-13T14:02:34Z</time>
      </trkpt>
      <trkpt lat="42.9005710" lon="-2.5428900">
        <ele>537.4</ele>
        <time>2020-09-13T14:02:38Z</time>
      </trkpt>
      <trkpt lat="42.9005710" lon="-2.5428900">
        <ele>537.4</ele>
        <time>2020-09-13T14:02:42Z</time>
      </trkpt>
      <trkpt lat="42.9005710" lon="-2.5428900">
        <ele>537.4</ele>
        <time>2020-09-13T14:02:46Z</time>
      </trkpt>
      <trkpt lat="42.9005710" lon="-2.5428900">
        <ele>537.6</ele>
        <time>2020-09-13T14:02:50Z</time>
      </trkpt>
      <trkpt lat="42.9005710" lon="-2.5428900">
        <ele>537.6</ele>
        <time>2020-09-13T14:02:54Z</time>
      </trkpt>
      <trkpt lat="42.9005710" lon="-2.5428900">
        <ele>537.2</ele>
        <time>2020-09-13T14:02:58Z</time>
      </trkpt>
      <trkpt lat="42.9005710" lon="-2.5428900">
        <ele>537.2</ele>
        <time>2020-09-13T14:03:02Z</time>
      </trkpt>
      <trkpt lat="42.9005710" lon="-2.5428900">
        <ele>537.6</ele>
        <time>2020-09-13T14:03:06Z</time>
      </trkpt>
      <trkpt lat="42.9005710" lon="-2.5428900">
        <ele>537.6</ele>
        <time>2020-09-13T14:03:10Z</time>
      </trkpt>
      <trkpt lat="42.9005710" lon="-2.5428900">
        <ele>536.6</ele>
        <time>2020-09-13T14:03:14Z</time>
      </trkpt>
      <trkpt lat="42.9005710" lon="-2.5428900">
        <ele>537.2</ele>
        <time>2020-09-13T14:03:18Z</time>
      </trkpt>
      <trkpt lat="42.9005710" lon="-2.5428900">
        <ele>537.4</ele>
        <time>2020-09-13T14:03:22Z</time>
      </trkpt>
      <trkpt lat="42.9005710" lon="-2.5428900">
        <ele>537.2</ele>
        <time>2020-09-13T14:03:26Z</time>
      </trkpt>
      <trkpt lat="42.9005710" lon="-2.5428900">
        <ele>537.2</ele>
        <time>2020-09-13T14:03:30Z</time>
      </trkpt>
      <trkpt lat="42.9005710" lon="-2.5428900">
        <ele>537.4</ele>
        <time>2020-09-13T14:03:34Z</time>
      </trkpt>
      <trkpt lat="42.9005710" lon="-2.5428900">
        <ele>537.4</ele>
        <time>2020-09-13T14:03:38Z</time>
      </trkpt>
      <trkpt lat="42.9005710" lon="-2.5428900">
        <ele>537.8</ele>
        <time>2020-09-13T14:03:42Z</time>
      </trkpt>
      <trkpt lat="42.9005710" lon="-2.5428900">
        <ele>537.6</ele>
        <time>2020-09-13T14:03:46Z</time>
      </trkpt>
      <trkpt lat="42.9005710" lon="-2.5428900">
        <ele>537.6</ele>
        <time>2020-09-13T14:03:50Z</time>
      </trkpt>
      <trkpt lat="42.9005710" lon="-2.5428900">
        <ele>537.8</ele>
        <time>2020-09-13T14:03:54Z</time>
      </trkpt>
      <trkpt lat="42.9005710" lon="-2.5428900">
        <ele>537.6</ele>
        <time>2020-09-13T14:03:58Z</time>
      </trkpt>
      <trkpt lat="42.9005710" lon="-2.5428900">
        <ele>537.4</ele>
        <time>2020-09-13T14:04:02Z</time>
      </trkpt>
      <trkpt lat="42.9005710" lon="-2.5428900">
        <ele>538.0</ele>
        <time>2020-09-13T14:04:06Z</time>
      </trkpt>
      <trkpt lat="42.9005710" lon="-2.5428900">
        <ele>538.0</ele>
        <time>2020-09-13T14:04:10Z</time>
      </trkpt>
      <trkpt lat="42.9005710" lon="-2.5428900">
        <ele>537.4</ele>
        <time>2020-09-13T14:04:14Z</time>
      </trkpt>
      <trkpt lat="42.9005710" lon="-2.5428900">
        <ele>537.2</ele>
        <time>2020-09-13T14:04:18Z</time>
      </trkpt>
      <trkpt lat="42.9005710" lon="-2.5428900">
        <ele>537.4</ele>
        <time>2020-09-13T14:04:22Z</time>
      </trkpt>
      <trkpt lat="42.9005710" lon="-2.5428900">
        <ele>537.4</ele>
        <time>2020-09-13T14:04:26Z</time>
      </trkpt>
      <trkpt lat="42.9005710" lon="-2.5428900">
        <ele>537.4</ele>
        <time>2020-09-13T14:04:30Z</time>
      </trkpt>
      <trkpt lat="42.9005710" lon="-2.5428900">
        <ele>537.6</ele>
        <time>2020-09-13T14:04:34Z</time>
      </trkpt>
      <trkpt lat="42.9005710" lon="-2.5428900">
        <ele>537.8</ele>
        <time>2020-09-13T14:04:38Z</time>
      </trkpt>
      <trkpt lat="42.9005710" lon="-2.5428900">
        <ele>537.6</ele>
        <time>2020-09-13T14:04:42Z</time>
      </trkpt>
      <trkpt lat="42.9005710" lon="-2.5428900">
        <ele>537.6</ele>
        <time>2020-09-13T14:04:46Z</time>
      </trkpt>
      <trkpt lat="42.9005710" lon="-2.5428900">
        <ele>537.6</ele>
        <time>2020-09-13T14:04:50Z</time>
      </trkpt>
      <trkpt lat="42.9005710" lon="-2.5428900">
        <ele>537.8</ele>
        <time>2020-09-13T14:04:54Z</time>
      </trkpt>
      <trkpt lat="42.9005710" lon="-2.5428900">
        <ele>537.4</ele>
        <time>2020-09-13T14:04:58Z</time>
      </trkpt>
      <trkpt lat="42.9005710" lon="-2.5428900">
        <ele>537.4</ele>
        <time>2020-09-13T14:05:02Z</time>
      </trkpt>
      <trkpt lat="42.9005710" lon="-2.5428900">
        <ele>537.6</ele>
        <time>2020-09-13T14:05:06Z</time>
      </trkpt>
      <trkpt lat="42.9005710" lon="-2.5428900">
        <ele>537.8</ele>
        <time>2020-09-13T14:05:10Z</time>
      </trkpt>
      <trkpt lat="42.9005710" lon="-2.5428900">
        <ele>537.4</ele>
        <time>2020-09-13T14:05:14Z</time>
      </trkpt>
      <trkpt lat="42.9005710" lon="-2.5428900">
        <ele>537.8</ele>
        <time>2020-09-13T14:05:18Z</time>
      </trkpt>
      <trkpt lat="42.9005710" lon="-2.5428900">
        <ele>537.8</ele>
        <time>2020-09-13T14:05:22Z</time>
      </trkpt>
      <trkpt lat="42.9005710" lon="-2.5428900">
        <ele>537.8</ele>
        <time>2020-09-13T14:05:26Z</time>
      </trkpt>
      <trkpt lat="42.9005710" lon="-2.5428900">
        <ele>538.0</ele>
        <time>2020-09-13T14:05:30Z</time>
      </trkpt>
      <trkpt lat="42.9005710" lon="-2.5428900">
        <ele>538.0</ele>
        <time>2020-09-13T14:05:34Z</time>
      </trkpt>
      <trkpt lat="42.9005710" lon="-2.5428900">
        <ele>537.8</ele>
        <time>2020-09-13T14:05:38Z</time>
      </trkpt>
      <trkpt lat="42.9005710" lon="-2.5428900">
        <ele>537.6</ele>
        <time>2020-09-13T14:05:42Z</time>
      </trkpt>
      <trkpt lat="42.9005710" lon="-2.5428900">
        <ele>537.8</ele>
        <time>2020-09-13T14:05:46Z</time>
      </trkpt>
      <trkpt lat="42.9005710" lon="-2.5428900">
        <ele>538.0</ele>
        <time>2020-09-13T14:05:50Z</time>
      </trkpt>
      <trkpt lat="42.9005710" lon="-2.5428900">
        <ele>538.2</ele>
        <time>2020-09-13T14:05:54Z</time>
      </trkpt>
      <trkpt lat="42.9005710" lon="-2.5428900">
        <ele>538.0</ele>
        <time>2020-09-13T14:05:58Z</time>
      </trkpt>
      <trkpt lat="42.9005710" lon="-2.5428900">
        <ele>538.0</ele>
        <time>2020-09-13T14:06:02Z</time>
      </trkpt>
      <trkpt lat="42.9005710" lon="-2.5428900">
        <ele>538.2</ele>
        <time>2020-09-13T14:06:06Z</time>
      </trkpt>
      <trkpt lat="42.9005710" lon="-2.5428900">
        <ele>537.8</ele>
        <time>2020-09-13T14:06:10Z</time>
      </trkpt>
      <trkpt lat="42.9005710" lon="-2.5428900">
        <ele>537.6</ele>
        <time>2020-09-13T14:06:14Z</time>
      </trkpt>
      <trkpt lat="42.9005710" lon="-2.5428900">
        <ele>538.0</ele>
        <time>2020-09-13T14:06:18Z</time>
      </trkpt>
      <trkpt lat="42.9005710" lon="-2.5428900">
        <ele>538.2</ele>
        <time>2020-09-13T14:06:22Z</time>
      </trkpt>
      <trkpt lat="42.9005710" lon="-2.5428900">
        <ele>538.0</ele>
        <time>2020-09-13T14:06:26Z</time>
      </trkpt>
      <trkpt lat="42.9005710" lon="-2.5428900">
        <ele>538.0</ele>
        <time>2020-09-13T14:06:30Z</time>
      </trkpt>
      <trkpt lat="42.9005710" lon="-2.5428900">
        <ele>538.0</ele>
        <time>2020-09-13T14:06:34Z</time>
      </trkpt>
      <trkpt lat="42.9005710" lon="-2.5428900">
        <ele>537.6</ele>
        <time>2020-09-13T14:06:38Z</time>
      </trkpt>
      <trkpt lat="42.9005710" lon="-2.5428900">
        <ele>537.8</ele>
        <time>2020-09-13T14:06:42Z</time>
      </trkpt>
      <trkpt lat="42.9005710" lon="-2.5428900">
        <ele>538.0</ele>
        <time>2020-09-13T14:06:46Z</time>
      </trkpt>
      <trkpt lat="42.9005710" lon="-2.5428900">
        <ele>538.2</ele>
        <time>2020-09-13T14:06:50Z</time>
      </trkpt>
      <trkpt lat="42.9005710" lon="-2.5428900">
        <ele>538.0</ele>
        <time>2020-09-13T14:06:54Z</time>
      </trkpt>
      <trkpt lat="42.9005710" lon="-2.5428900">
        <ele>538.4</ele>
        <time>2020-09-13T14:06:58Z</time>
      </trkpt>
      <trkpt lat="42.9005710" lon="-2.5428900">
        <ele>538.0</ele>
        <time>2020-09-13T14:07:02Z</time>
      </trkpt>
      <trkpt lat="42.9005710" lon="-2.5428900">
        <ele>537.8</ele>
        <time>2020-09-13T14:07:06Z</time>
      </trkpt>
      <trkpt lat="42.9005710" lon="-2.5428900">
        <ele>537.8</ele>
        <time>2020-09-13T14:07:10Z</time>
      </trkpt>
      <trkpt lat="42.9005710" lon="-2.5428900">
        <ele>538.0</ele>
        <time>2020-09-13T14:07:14Z</time>
      </trkpt>
      <trkpt lat="42.9005710" lon="-2.5428900">
        <ele>538.2</ele>
        <time>2020-09-13T14:07:18Z</time>
      </trkpt>
      <trkpt lat="42.9005710" lon="-2.5428900">
        <ele>538.0</ele>
        <time>2020-09-13T14:07:22Z</time>
      </trkpt>
      <trkpt lat="42.9005710" lon="-2.5428900">
        <ele>538.0</ele>
        <time>2020-09-13T14:07:26Z</time>
      </trkpt>
      <trkpt lat="42.9005710" lon="-2.5428900">
        <ele>538.0</ele>
        <time>2020-09-13T14:07:30Z</time>
      </trkpt>
      <trkpt lat="42.9005710" lon="-2.5428900">
        <ele>538.0</ele>
        <time>2020-09-13T14:07:34Z</time>
      </trkpt>
      <trkpt lat="42.9005710" lon="-2.5428900">
        <ele>538.0</ele>
        <time>2020-09-13T14:07:38Z</time>
      </trkpt>
      <trkpt lat="42.9005710" lon="-2.5428900">
        <ele>538.0</ele>
        <time>2020-09-13T14:07:42Z</time>
      </trkpt>
      <trkpt lat="42.9005710" lon="-2.5428900">
        <ele>537.8</ele>
        <time>2020-09-13T14:07:46Z</time>
      </trkpt>
      <trkpt lat="42.9005710" lon="-2.5428900">
        <ele>538.0</ele>
        <time>2020-09-13T14:07:50Z</time>
      </trkpt>
      <trkpt lat="42.9005710" lon="-2.5428900">
        <ele>538.2</ele>
        <time>2020-09-13T14:07:54Z</time>
      </trkpt>
      <trkpt lat="42.9005710" lon="-2.5428900">
        <ele>538.2</ele>
        <time>2020-09-13T14:07:58Z</time>
      </trkpt>
      <trkpt lat="42.9005710" lon="-2.5428900">
        <ele>538.8</ele>
        <time>2020-09-13T14:08:02Z</time>
      </trkpt>
      <trkpt lat="42.9005710" lon="-2.5428900">
        <ele>538.8</ele>
        <time>2020-09-13T14:08:06Z</time>
      </trkpt>
      <trkpt lat="42.9005710" lon="-2.5428900">
        <ele>538.6</ele>
        <time>2020-09-13T14:08:10Z</time>
      </trkpt>
      <trkpt lat="42.9005710" lon="-2.5428900">
        <ele>538.4</ele>
        <time>2020-09-13T14:08:14Z</time>
      </trkpt>
      <trkpt lat="42.9005710" lon="-2.5428900">
        <ele>538.6</ele>
        <time>2020-09-13T14:08:18Z</time>
      </trkpt>
      <trkpt lat="42.9005710" lon="-2.5428900">
        <ele>538.6</ele>
        <time>2020-09-13T14:08:22Z</time>
      </trkpt>
      <trkpt lat="42.9005710" lon="-2.5428900">
        <ele>538.6</ele>
        <time>2020-09-13T14:08:26Z</time>
      </trkpt>
      <trkpt lat="42.9005710" lon="-2.5428900">
        <ele>538.6</ele>
        <time>2020-09-13T14:08:30Z</time>
      </trkpt>
      <trkpt lat="42.9005710" lon="-2.5428900">
        <ele>539.0</ele>
        <time>2020-09-13T14:08:34Z</time>
      </trkpt>
      <trkpt lat="42.9005710" lon="-2.5428900">
        <ele>538.8</ele>
        <time>2020-09-13T14:08:38Z</time>
      </trkpt>
      <trkpt lat="42.9005710" lon="-2.5428900">
        <ele>538.2</ele>
        <time>2020-09-13T14:08:42Z</time>
      </trkpt>
      <trkpt lat="42.9005710" lon="-2.5428900">
        <ele>538.0</ele>
        <time>2020-09-13T14:08:46Z</time>
      </trkpt>
      <trkpt lat="42.9005710" lon="-2.5428900">
        <ele>537.8</ele>
        <time>2020-09-13T14:08:50Z</time>
      </trkpt>
      <trkpt lat="42.9005710" lon="-2.5428900">
        <ele>538.0</ele>
        <time>2020-09-13T14:08:54Z</time>
      </trkpt>
      <trkpt lat="42.9005710" lon="-2.5428900">
        <ele>538.0</ele>
        <time>2020-09-13T14:08:58Z</time>
      </trkpt>
      <trkpt lat="42.9005710" lon="-2.5428900">
        <ele>538.2</ele>
        <time>2020-09-13T14:09:02Z</time>
      </trkpt>
      <trkpt lat="42.9005710" lon="-2.5428900">
        <ele>538.0</ele>
        <time>2020-09-13T14:09:06Z</time>
      </trkpt>
      <trkpt lat="42.9005710" lon="-2.5428900">
        <ele>537.8</ele>
        <time>2020-09-13T14:09:10Z</time>
      </trkpt>
      <trkpt lat="42.9005710" lon="-2.5428900">
        <ele>538.0</ele>
        <time>2020-09-13T14:09:14Z</time>
      </trkpt>
      <trkpt lat="42.9005710" lon="-2.5428900">
        <ele>537.8</ele>
        <time>2020-09-13T14:09:18Z</time>
      </trkpt>
      <trkpt lat="42.9005710" lon="-2.5428900">
        <ele>537.8</ele>
        <time>2020-09-13T14:09:22Z</time>
      </trkpt>
      <trkpt lat="42.9005710" lon="-2.5428900">
        <ele>537.8</ele>
        <time>2020-09-13T14:09:26Z</time>
      </trkpt>
      <trkpt lat="42.9005710" lon="-2.5428900">
        <ele>537.8</ele>
        <time>2020-09-13T14:09:30Z</time>
      </trkpt>
      <trkpt lat="42.9005710" lon="-2.5428900">
        <ele>538.0</ele>
        <time>2020-09-13T14:09:34Z</time>
      </trkpt>
      <trkpt lat="42.9005710" lon="-2.5428900">
        <ele>537.8</ele>
        <time>2020-09-13T14:09:38Z</time>
      </trkpt>
      <trkpt lat="42.9005710" lon="-2.5428900">
        <ele>538.0</ele>
        <time>2020-09-13T14:09:42Z</time>
      </trkpt>
      <trkpt lat="42.9005710" lon="-2.5428900">
        <ele>537.6</ele>
        <time>2020-09-13T14:09:46Z</time>
      </trkpt>
      <trkpt lat="42.9005710" lon="-2.5428900">
        <ele>537.8</ele>
        <time>2020-09-13T14:09:50Z</time>
      </trkpt>
      <trkpt lat="42.9005710" lon="-2.5428900">
        <ele>538.0</ele>
        <time>2020-09-13T14:09:54Z</time>
      </trkpt>
      <trkpt lat="42.9005710" lon="-2.5428900">
        <ele>538.0</ele>
        <time>2020-09-13T14:09:58Z</time>
      </trkpt>
      <trkpt lat="42.9005710" lon="-2.5428900">
        <ele>538.0</ele>
        <time>2020-09-13T14:10:02Z</time>
      </trkpt>
      <trkpt lat="42.9005710" lon="-2.5428900">
        <ele>538.0</ele>
        <time>2020-09-13T14:10:06Z</time>
      </trkpt>
      <trkpt lat="42.9005710" lon="-2.5428900">
        <ele>537.8</ele>
        <time>2020-09-13T14:10:10Z</time>
      </trkpt>
      <trkpt lat="42.9005710" lon="-2.5428900">
        <ele>538.0</ele>
        <time>2020-09-13T14:10:14Z</time>
      </trkpt>
      <trkpt lat="42.9005710" lon="-2.5428900">
        <ele>538.0</ele>
        <time>2020-09-13T14:10:18Z</time>
      </trkpt>
      <trkpt lat="42.9005710" lon="-2.5428900">
        <ele>538.0</ele>
        <time>2020-09-13T14:10:22Z</time>
      </trkpt>
      <trkpt lat="42.9005710" lon="-2.5428900">
        <ele>538.4</ele>
        <time>2020-09-13T14:10:26Z</time>
      </trkpt>
      <trkpt lat="42.9005710" lon="-2.5428900">
        <ele>538.4</ele>
        <time>2020-09-13T14:10:30Z</time>
      </trkpt>
      <trkpt lat="42.9005710" lon="-2.5428900">
        <ele>538.2</ele>
        <time>2020-09-13T14:10:34Z</time>
      </trkpt>
      <trkpt lat="42.9005710" lon="-2.5428900">
        <ele>538.0</ele>
        <time>2020-09-13T14:10:38Z</time>
      </trkpt>
      <trkpt lat="42.9005710" lon="-2.5428900">
        <ele>538.2</ele>
        <time>2020-09-13T14:10:42Z</time>
      </trkpt>
      <trkpt lat="42.9005710" lon="-2.5428900">
        <ele>537.6</ele>
        <time>2020-09-13T14:10:46Z</time>
      </trkpt>
      <trkpt lat="42.9005710" lon="-2.5428900">
        <ele>538.0</ele>
        <time>2020-09-13T14:10:50Z</time>
      </trkpt>
      <trkpt lat="42.9005710" lon="-2.5428900">
        <ele>538.0</ele>
        <time>2020-09-13T14:10:54Z</time>
      </trkpt>
      <trkpt lat="42.9005710" lon="-2.5428900">
        <ele>538.2</ele>
        <time>2020-09-13T14:10:58Z</time>
      </trkpt>
      <trkpt lat="42.9005710" lon="-2.5428900">
        <ele>537.8</ele>
        <time>2020-09-13T14:11:02Z</time>
      </trkpt>
      <trkpt lat="42.9005710" lon="-2.5428900">
        <ele>538.2</ele>
        <time>2020-09-13T14:11:06Z</time>
      </trkpt>
      <trkpt lat="42.9005710" lon="-2.5428900">
        <ele>538.0</ele>
        <time>2020-09-13T14:11:10Z</time>
      </trkpt>
      <trkpt lat="42.9005710" lon="-2.5428900">
        <ele>538.0</ele>
        <time>2020-09-13T14:11:14Z</time>
      </trkpt>
      <trkpt lat="42.9005710" lon="-2.5428900">
        <ele>538.0</ele>
        <time>2020-09-13T14:11:18Z</time>
      </trkpt>
      <trkpt lat="42.9005710" lon="-2.5428900">
        <ele>538.0</ele>
        <time>2020-09-13T14:11:22Z</time>
      </trkpt>
      <trkpt lat="42.9005710" lon="-2.5428900">
        <ele>538.2</ele>
        <time>2020-09-13T14:11:26Z</time>
      </trkpt>
      <trkpt lat="42.9005710" lon="-2.5428900">
        <ele>538.0</ele>
        <time>2020-09-13T14:11:30Z</time>
      </trkpt>
      <trkpt lat="42.9005710" lon="-2.5428900">
        <ele>538.0</ele>
        <time>2020-09-13T14:11:34Z</time>
      </trkpt>
      <trkpt lat="42.9005710" lon="-2.5428900">
        <ele>538.0</ele>
        <time>2020-09-13T14:11:38Z</time>
      </trkpt>
      <trkpt lat="42.9005710" lon="-2.5428900">
        <ele>537.6</ele>
        <time>2020-09-13T14:11:42Z</time>
      </trkpt>
      <trkpt lat="42.9005710" lon="-2.5428900">
        <ele>538.0</ele>
        <time>2020-09-13T14:11:46Z</time>
      </trkpt>
      <trkpt lat="42.9005710" lon="-2.5428900">
        <ele>538.0</ele>
        <time>2020-09-13T14:11:50Z</time>
      </trkpt>
      <trkpt lat="42.9005710" lon="-2.5428900">
        <ele>538.0</ele>
        <time>2020-09-13T14:11:54Z</time>
      </trkpt>
      <trkpt lat="42.9005710" lon="-2.5428900">
        <ele>537.8</ele>
        <time>2020-09-13T14:11:58Z</time>
      </trkpt>
      <trkpt lat="42.9005710" lon="-2.5428900">
        <ele>537.6</ele>
        <time>2020-09-13T14:12:02Z</time>
      </trkpt>
      <trkpt lat="42.9005710" lon="-2.5428900">
        <ele>537.8</ele>
        <time>2020-09-13T14:12:06Z</time>
      </trkpt>
      <trkpt lat="42.9005710" lon="-2.5428900">
        <ele>537.8</ele>
        <time>2020-09-13T14:12:10Z</time>
      </trkpt>
      <trkpt lat="42.9005710" lon="-2.5428900">
        <ele>538.0</ele>
        <time>2020-09-13T14:12:14Z</time>
      </trkpt>
      <trkpt lat="42.9005710" lon="-2.5428900">
        <ele>538.2</ele>
        <time>2020-09-13T14:12:18Z</time>
      </trkpt>
      <trkpt lat="42.9005710" lon="-2.5428900">
        <ele>537.8</ele>
        <time>2020-09-13T14:12:22Z</time>
      </trkpt>
      <trkpt lat="42.9005710" lon="-2.5428900">
        <ele>538.0</ele>
        <time>2020-09-13T14:12:26Z</time>
      </trkpt>
      <trkpt lat="42.9005710" lon="-2.5428900">
        <ele>538.0</ele>
        <time>2020-09-13T14:12:30Z</time>
      </trkpt>
      <trkpt lat="42.9005710" lon="-2.5428900">
        <ele>538.0</ele>
        <time>2020-09-13T14:12:34Z</time>
      </trkpt>
      <trkpt lat="42.9005710" lon="-2.5428900">
        <ele>538.0</ele>
        <time>2020-09-13T14:12:38Z</time>
      </trkpt>
      <trkpt lat="42.9005710" lon="-2.5428900">
        <ele>538.0</ele>
        <time>2020-09-13T14:12:42Z</time>
      </trkpt>
      <trkpt lat="42.9005710" lon="-2.5428900">
        <ele>538.0</ele>
        <time>2020-09-13T14:12:46Z</time>
      </trkpt>
      <trkpt lat="42.9005710" lon="-2.5428900">
        <ele>538.0</ele>
        <time>2020-09-13T14:12:50Z</time>
      </trkpt>
      <trkpt lat="42.9005710" lon="-2.5428900">
        <ele>538.0</ele>
        <time>2020-09-13T14:12:54Z</time>
      </trkpt>
      <trkpt lat="42.9005710" lon="-2.5428900">
        <ele>538.0</ele>
        <time>2020-09-13T14:12:58Z</time>
      </trkpt>
      <trkpt lat="42.9005710" lon="-2.5428900">
        <ele>538.0</ele>
        <time>2020-09-13T14:13:02Z</time>
      </trkpt>
      <trkpt lat="42.9005710" lon="-2.5428900">
        <ele>538.2</ele>
        <time>2020-09-13T14:13:06Z</time>
      </trkpt>
      <trkpt lat="42.9005710" lon="-2.5428900">
        <ele>538.2</ele>
        <time>2020-09-13T14:13:10Z</time>
      </trkpt>
      <trkpt lat="42.9005710" lon="-2.5428900">
        <ele>538.2</ele>
        <time>2020-09-13T14:13:14Z</time>
      </trkpt>
      <trkpt lat="42.9005710" lon="-2.5428900">
        <ele>538.2</ele>
        <time>2020-09-13T14:13:18Z</time>
      </trkpt>
      <trkpt lat="42.9005710" lon="-2.5428900">
        <ele>538.2</ele>
        <time>2020-09-13T14:13:22Z</time>
      </trkpt>
      <trkpt lat="42.9005710" lon="-2.5428900">
        <ele>538.6</ele>
        <time>2020-09-13T14:13:26Z</time>
      </trkpt>
      <trkpt lat="42.9005710" lon="-2.5428900">
        <ele>539.0</ele>
        <time>2020-09-13T14:13:30Z</time>
      </trkpt>
      <trkpt lat="42.9005710" lon="-2.5428900">
        <ele>538.4</ele>
        <time>2020-09-13T14:13:34Z</time>
      </trkpt>
      <trkpt lat="42.9005710" lon="-2.5428900">
        <ele>538.0</ele>
        <time>2020-09-13T14:13:38Z</time>
      </trkpt>
      <trkpt lat="42.9005710" lon="-2.5428900">
        <ele>538.2</ele>
        <time>2020-09-13T14:13:42Z</time>
      </trkpt>
      <trkpt lat="42.9005710" lon="-2.5428900">
        <ele>538.0</ele>
        <time>2020-09-13T14:13:46Z</time>
      </trkpt>
      <trkpt lat="42.9005710" lon="-2.5428900">
        <ele>538.2</ele>
        <time>2020-09-13T14:13:50Z</time>
      </trkpt>
      <trkpt lat="42.9005710" lon="-2.5428900">
        <ele>538.2</ele>
        <time>2020-09-13T14:13:54Z</time>
      </trkpt>
      <trkpt lat="42.9005710" lon="-2.5428900">
        <ele>538.0</ele>
        <time>2020-09-13T14:13:58Z</time>
      </trkpt>
      <trkpt lat="42.9005710" lon="-2.5428900">
        <ele>538.0</ele>
        <time>2020-09-13T14:14:02Z</time>
      </trkpt>
      <trkpt lat="42.9005710" lon="-2.5428900">
        <ele>538.0</ele>
        <time>2020-09-13T14:14:06Z</time>
      </trkpt>
      <trkpt lat="42.9005710" lon="-2.5428900">
        <ele>538.0</ele>
        <time>2020-09-13T14:14:10Z</time>
      </trkpt>
      <trkpt lat="42.9005710" lon="-2.5428900">
        <ele>538.0</ele>
        <time>2020-09-13T14:14:14Z</time>
      </trkpt>
      <trkpt lat="42.9005710" lon="-2.5428900">
        <ele>538.0</ele>
        <time>2020-09-13T14:14:18Z</time>
      </trkpt>
      <trkpt lat="42.9005710" lon="-2.5428900">
        <ele>538.4</ele>
        <time>2020-09-13T14:14:22Z</time>
      </trkpt>
      <trkpt lat="42.9005710" lon="-2.5428900">
        <ele>538.4</ele>
        <time>2020-09-13T14:14:26Z</time>
      </trkpt>
      <trkpt lat="42.9005710" lon="-2.5428900">
        <ele>538.4</ele>
        <time>2020-09-13T14:14:30Z</time>
      </trkpt>
      <trkpt lat="42.9005710" lon="-2.5428900">
        <ele>538.6</ele>
        <time>2020-09-13T14:14:34Z</time>
      </trkpt>
      <trkpt lat="42.9005710" lon="-2.5428900">
        <ele>538.2</ele>
        <time>2020-09-13T14:14:38Z</time>
      </trkpt>
      <trkpt lat="42.9005710" lon="-2.5428900">
        <ele>538.2</ele>
        <time>2020-09-13T14:14:42Z</time>
      </trkpt>
      <trkpt lat="42.9005710" lon="-2.5428900">
        <ele>538.2</ele>
        <time>2020-09-13T14:14:46Z</time>
      </trkpt>
      <trkpt lat="42.9005710" lon="-2.5428900">
        <ele>538.0</ele>
        <time>2020-09-13T14:14:50Z</time>
      </trkpt>
      <trkpt lat="42.9005710" lon="-2.5428900">
        <ele>538.0</ele>
        <time>2020-09-13T14:14:54Z</time>
      </trkpt>
      <trkpt lat="42.9005710" lon="-2.5428900">
        <ele>538.2</ele>
        <time>2020-09-13T14:14:58Z</time>
      </trkpt>
      <trkpt lat="42.9005710" lon="-2.5428900">
        <ele>538.0</ele>
        <time>2020-09-13T14:15:02Z</time>
      </trkpt>
      <trkpt lat="42.9005710" lon="-2.5428900">
        <ele>538.4</ele>
        <time>2020-09-13T14:15:06Z</time>
      </trkpt>
      <trkpt lat="42.9005710" lon="-2.5428900">
        <ele>538.2</ele>
        <time>2020-09-13T14:15:10Z</time>
      </trkpt>
      <trkpt lat="42.9005710" lon="-2.5428900">
        <ele>538.2</ele>
        <time>2020-09-13T14:15:14Z</time>
      </trkpt>
      <trkpt lat="42.9005710" lon="-2.5428900">
        <ele>538.4</ele>
        <time>2020-09-13T14:15:18Z</time>
      </trkpt>
      <trkpt lat="42.9005710" lon="-2.5428900">
        <ele>538.2</ele>
        <time>2020-09-13T14:15:22Z</time>
      </trkpt>
      <trkpt lat="42.9005710" lon="-2.5428900">
        <ele>538.4</ele>
        <time>2020-09-13T14:15:26Z</time>
      </trkpt>
      <trkpt lat="42.9005710" lon="-2.5428900">
        <ele>538.4</ele>
        <time>2020-09-13T14:15:30Z</time>
      </trkpt>
      <trkpt lat="42.9005710" lon="-2.5428900">
        <ele>538.4</ele>
        <time>2020-09-13T14:15:34Z</time>
      </trkpt>
      <trkpt lat="42.9005710" lon="-2.5428900">
        <ele>538.2</ele>
        <time>2020-09-13T14:15:38Z</time>
      </trkpt>
      <trkpt lat="42.9005710" lon="-2.5428900">
        <ele>538.6</ele>
        <time>2020-09-13T14:15:42Z</time>
      </trkpt>
      <trkpt lat="42.9005710" lon="-2.5428900">
        <ele>538.4</ele>
        <time>2020-09-13T14:15:46Z</time>
      </trkpt>
      <trkpt lat="42.9005710" lon="-2.5428900">
        <ele>538.2</ele>
        <time>2020-09-13T14:15:50Z</time>
      </trkpt>
      <trkpt lat="42.9005710" lon="-2.5428900">
        <ele>538.0</ele>
        <time>2020-09-13T14:15:54Z</time>
      </trkpt>
      <trkpt lat="42.9005710" lon="-2.5428900">
        <ele>538.6</ele>
        <time>2020-09-13T14:15:58Z</time>
      </trkpt>
      <trkpt lat="42.9005710" lon="-2.5428900">
        <ele>538.0</ele>
        <time>2020-09-13T14:16:02Z</time>
      </trkpt>
      <trkpt lat="42.9005710" lon="-2.5428900">
        <ele>538.8</ele>
        <time>2020-09-13T14:16:06Z</time>
      </trkpt>
      <trkpt lat="42.9005710" lon="-2.5428900">
        <ele>538.6</ele>
        <time>2020-09-13T14:16:10Z</time>
      </trkpt>
      <trkpt lat="42.9005710" lon="-2.5428900">
        <ele>538.0</ele>
        <time>2020-09-13T14:16:14Z</time>
      </trkpt>
      <trkpt lat="42.9005710" lon="-2.5428900">
        <ele>538.0</ele>
        <time>2020-09-13T14:16:18Z</time>
      </trkpt>
      <trkpt lat="42.9005710" lon="-2.5428900">
        <ele>538.0</ele>
        <time>2020-09-13T14:16:22Z</time>
      </trkpt>
      <trkpt lat="42.9005710" lon="-2.5428900">
        <ele>538.6</ele>
        <time>2020-09-13T14:16:26Z</time>
      </trkpt>
      <trkpt lat="42.9005710" lon="-2.5428900">
        <ele>538.2</ele>
        <time>2020-09-13T14:16:30Z</time>
      </trkpt>
      <trkpt lat="42.9005710" lon="-2.5428900">
        <ele>538.4</ele>
        <time>2020-09-13T14:16:34Z</time>
      </trkpt>
      <trkpt lat="42.9005710" lon="-2.5428900">
        <ele>538.4</ele>
        <time>2020-09-13T14:16:38Z</time>
      </trkpt>
      <trkpt lat="42.9005710" lon="-2.5428900">
        <ele>539.4</ele>
        <time>2020-09-13T14:16:42Z</time>
      </trkpt>
      <trkpt lat="42.9005710" lon="-2.5428900">
        <ele>538.6</ele>
        <time>2020-09-13T14:16:46Z</time>
      </trkpt>
      <trkpt lat="42.9005710" lon="-2.5428900">
        <ele>539.0</ele>
        <time>2020-09-13T14:16:50Z</time>
      </trkpt>
      <trkpt lat="42.9005710" lon="-2.5428900">
        <ele>538.2</ele>
        <time>2020-09-13T14:16:54Z</time>
      </trkpt>
      <trkpt lat="42.9005710" lon="-2.5428900">
        <ele>538.2</ele>
        <time>2020-09-13T14:16:58Z</time>
      </trkpt>
      <trkpt lat="42.9005710" lon="-2.5428900">
        <ele>538.8</ele>
        <time>2020-09-13T14:17:02Z</time>
      </trkpt>
      <trkpt lat="42.9005710" lon="-2.5428900">
        <ele>538.6</ele>
        <time>2020-09-13T14:17:06Z</time>
      </trkpt>
      <trkpt lat="42.9005710" lon="-2.5428900">
        <ele>538.6</ele>
        <time>2020-09-13T14:17:10Z</time>
      </trkpt>
      <trkpt lat="42.9005710" lon="-2.5428900">
        <ele>539.2</ele>
        <time>2020-09-13T14:17:14Z</time>
      </trkpt>
      <trkpt lat="42.9005710" lon="-2.5428900">
        <ele>538.6</ele>
        <time>2020-09-13T14:17:18Z</time>
      </trkpt>
      <trkpt lat="42.9005710" lon="-2.5428900">
        <ele>538.6</ele>
        <time>2020-09-13T14:17:22Z</time>
      </trkpt>
      <trkpt lat="42.9005710" lon="-2.5428900">
        <ele>538.8</ele>
        <time>2020-09-13T14:17:26Z</time>
      </trkpt>
      <trkpt lat="42.9005710" lon="-2.5428900">
        <ele>538.4</ele>
        <time>2020-09-13T14:17:30Z</time>
      </trkpt>
      <trkpt lat="42.9005710" lon="-2.5428900">
        <ele>538.6</ele>
        <time>2020-09-13T14:17:34Z</time>
      </trkpt>
      <trkpt lat="42.9005710" lon="-2.5428900">
        <ele>538.8</ele>
        <time>2020-09-13T14:17:38Z</time>
      </trkpt>
      <trkpt lat="42.9005710" lon="-2.5428900">
        <ele>538.6</ele>
        <time>2020-09-13T14:17:42Z</time>
      </trkpt>
      <trkpt lat="42.9005710" lon="-2.5428900">
        <ele>538.8</ele>
        <time>2020-09-13T14:17:46Z</time>
      </trkpt>
      <trkpt lat="42.9005710" lon="-2.5428900">
        <ele>538.6</ele>
        <time>2020-09-13T14:17:50Z</time>
      </trkpt>
      <trkpt lat="42.9005710" lon="-2.5428900">
        <ele>539.0</ele>
        <time>2020-09-13T14:17:54Z</time>
      </trkpt>
      <trkpt lat="42.9005710" lon="-2.5428900">
        <ele>538.4</ele>
        <time>2020-09-13T14:17:58Z</time>
      </trkpt>
      <trkpt lat="42.9005710" lon="-2.5428900">
        <ele>538.6</ele>
        <time>2020-09-13T14:18:02Z</time>
      </trkpt>
      <trkpt lat="42.9005710" lon="-2.5428900">
        <ele>538.2</ele>
        <time>2020-09-13T14:18:06Z</time>
      </trkpt>
      <trkpt lat="42.9005710" lon="-2.5428900">
        <ele>538.8</ele>
        <time>2020-09-13T14:18:10Z</time>
      </trkpt>
      <trkpt lat="42.9005710" lon="-2.5428900">
        <ele>538.6</ele>
        <time>2020-09-13T14:18:14Z</time>
      </trkpt>
      <trkpt lat="42.9005710" lon="-2.5428900">
        <ele>538.8</ele>
        <time>2020-09-13T14:18:18Z</time>
      </trkpt>
      <trkpt lat="42.9005710" lon="-2.5428900">
        <ele>538.8</ele>
        <time>2020-09-13T14:18:22Z</time>
      </trkpt>
      <trkpt lat="42.9005710" lon="-2.5428900">
        <ele>538.6</ele>
        <time>2020-09-13T14:18:26Z</time>
      </trkpt>
      <trkpt lat="42.9005710" lon="-2.5428900">
        <ele>538.6</ele>
        <time>2020-09-13T14:18:30Z</time>
      </trkpt>
      <trkpt lat="42.9005710" lon="-2.5428900">
        <ele>539.0</ele>
        <time>2020-09-13T14:18:34Z</time>
      </trkpt>
      <trkpt lat="42.9005710" lon="-2.5428900">
        <ele>539.0</ele>
        <time>2020-09-13T14:18:38Z</time>
      </trkpt>
      <trkpt lat="42.9005710" lon="-2.5428900">
        <ele>539.0</ele>
        <time>2020-09-13T14:18:42Z</time>
      </trkpt>
      <trkpt lat="42.9005710" lon="-2.5428900">
        <ele>539.2</ele>
        <time>2020-09-13T14:18:46Z</time>
      </trkpt>
      <trkpt lat="42.9005710" lon="-2.5428900">
        <ele>538.6</ele>
        <time>2020-09-13T14:18:50Z</time>
      </trkpt>
      <trkpt lat="42.9005710" lon="-2.5428900">
        <ele>538.2</ele>
        <time>2020-09-13T14:18:54Z</time>
      </trkpt>
      <trkpt lat="42.9005710" lon="-2.5428900">
        <ele>538.8</ele>
        <time>2020-09-13T14:18:58Z</time>
      </trkpt>
      <trkpt lat="42.9005710" lon="-2.5428900">
        <ele>538.4</ele>
        <time>2020-09-13T14:19:02Z</time>
      </trkpt>
      <trkpt lat="42.9005710" lon="-2.5428900">
        <ele>538.6</ele>
        <time>2020-09-13T14:19:06Z</time>
      </trkpt>
      <trkpt lat="42.9005710" lon="-2.5428900">
        <ele>538.6</ele>
        <time>2020-09-13T14:19:10Z</time>
      </trkpt>
      <trkpt lat="42.9005710" lon="-2.5428900">
        <ele>538.6</ele>
        <time>2020-09-13T14:19:14Z</time>
      </trkpt>
      <trkpt lat="42.9005710" lon="-2.5428900">
        <ele>538.0</ele>
        <time>2020-09-13T14:19:18Z</time>
      </trkpt>
      <trkpt lat="42.9005710" lon="-2.5428900">
        <ele>538.6</ele>
        <time>2020-09-13T14:19:22Z</time>
      </trkpt>
      <trkpt lat="42.9005710" lon="-2.5428900">
        <ele>538.4</ele>
        <time>2020-09-13T14:19:26Z</time>
      </trkpt>
      <trkpt lat="42.9005710" lon="-2.5428900">
        <ele>538.6</ele>
        <time>2020-09-13T14:19:30Z</time>
      </trkpt>
      <trkpt lat="42.9005710" lon="-2.5428900">
        <ele>538.4</ele>
        <time>2020-09-13T14:19:34Z</time>
      </trkpt>
      <trkpt lat="42.9005710" lon="-2.5428900">
        <ele>538.4</ele>
        <time>2020-09-13T14:19:38Z</time>
      </trkpt>
      <trkpt lat="42.9005710" lon="-2.5428900">
        <ele>539.0</ele>
        <time>2020-09-13T14:19:42Z</time>
      </trkpt>
      <trkpt lat="42.9005710" lon="-2.5428900">
        <ele>538.4</ele>
        <time>2020-09-13T14:19:46Z</time>
      </trkpt>
      <trkpt lat="42.9005710" lon="-2.5428900">
        <ele>538.6</ele>
        <time>2020-09-13T14:19:50Z</time>
      </trkpt>
      <trkpt lat="42.9005710" lon="-2.5428900">
        <ele>538.6</ele>
        <time>2020-09-13T14:19:54Z</time>
      </trkpt>
      <trkpt lat="42.9005710" lon="-2.5428900">
        <ele>539.2</ele>
        <time>2020-09-13T14:19:58Z</time>
      </trkpt>
      <trkpt lat="42.9005710" lon="-2.5428900">
        <ele>538.8</ele>
        <time>2020-09-13T14:20:02Z</time>
      </trkpt>
      <trkpt lat="42.9005710" lon="-2.5428900">
        <ele>539.0</ele>
        <time>2020-09-13T14:20:06Z</time>
      </trkpt>
      <trkpt lat="42.9005710" lon="-2.5428900">
        <ele>538.6</ele>
        <time>2020-09-13T14:20:10Z</time>
      </trkpt>
      <trkpt lat="42.9005710" lon="-2.5428900">
        <ele>538.6</ele>
        <time>2020-09-13T14:20:14Z</time>
      </trkpt>
      <trkpt lat="42.9005710" lon="-2.5428900">
        <ele>539.0</ele>
        <time>2020-09-13T14:20:18Z</time>
      </trkpt>
      <trkpt lat="42.9005710" lon="-2.5428900">
        <ele>538.6</ele>
        <time>2020-09-13T14:20:22Z</time>
      </trkpt>
      <trkpt lat="42.9005710" lon="-2.5428900">
        <ele>539.0</ele>
        <time>2020-09-13T14:20:26Z</time>
      </trkpt>
      <trkpt lat="42.9005710" lon="-2.5428900">
        <ele>538.6</ele>
        <time>2020-09-13T14:20:30Z</time>
      </trkpt>
      <trkpt lat="42.9005710" lon="-2.5428900">
        <ele>538.4</ele>
        <time>2020-09-13T14:20:34Z</time>
      </trkpt>
      <trkpt lat="42.9005710" lon="-2.5428900">
        <ele>538.8</ele>
        <time>2020-09-13T14:20:38Z</time>
      </trkpt>
      <trkpt lat="42.9005710" lon="-2.5428900">
        <ele>538.6</ele>
        <time>2020-09-13T14:20:42Z</time>
      </trkpt>
      <trkpt lat="42.9005710" lon="-2.5428900">
        <ele>538.6</ele>
        <time>2020-09-13T14:20:46Z</time>
      </trkpt>
      <trkpt lat="42.9005710" lon="-2.5428900">
        <ele>538.6</ele>
        <time>2020-09-13T14:20:50Z</time>
      </trkpt>
      <trkpt lat="42.9005710" lon="-2.5428900">
        <ele>538.6</ele>
        <time>2020-09-13T14:20:54Z</time>
      </trkpt>
      <trkpt lat="42.9005710" lon="-2.5428900">
        <ele>538.6</ele>
        <time>2020-09-13T14:20:58Z</time>
      </trkpt>
      <trkpt lat="42.9005710" lon="-2.5428900">
        <ele>539.0</ele>
        <time>2020-09-13T14:21:02Z</time>
      </trkpt>
      <trkpt lat="42.9005710" lon="-2.5428900">
        <ele>538.8</ele>
        <time>2020-09-13T14:21:06Z</time>
      </trkpt>
      <trkpt lat="42.9005710" lon="-2.5428900">
        <ele>539.0</ele>
        <time>2020-09-13T14:21:10Z</time>
      </trkpt>
      <trkpt lat="42.9005710" lon="-2.5428900">
        <ele>538.6</ele>
        <time>2020-09-13T14:21:14Z</time>
      </trkpt>
      <trkpt lat="42.9005710" lon="-2.5428900">
        <ele>538.6</ele>
        <time>2020-09-13T14:21:18Z</time>
      </trkpt>
      <trkpt lat="42.9005710" lon="-2.5428900">
        <ele>538.8</ele>
        <time>2020-09-13T14:21:22Z</time>
      </trkpt>
      <trkpt lat="42.9005710" lon="-2.5428900">
        <ele>539.2</ele>
        <time>2020-09-13T14:21:26Z</time>
      </trkpt>
      <trkpt lat="42.9005710" lon="-2.5428900">
        <ele>539.2</ele>
        <time>2020-09-13T14:21:30Z</time>
      </trkpt>
      <trkpt lat="42.9005710" lon="-2.5428900">
        <ele>539.4</ele>
        <time>2020-09-13T14:21:34Z</time>
      </trkpt>
      <trkpt lat="42.9005710" lon="-2.5428900">
        <ele>539.4</ele>
        <time>2020-09-13T14:21:38Z</time>
      </trkpt>
      <trkpt lat="42.9005710" lon="-2.5428900">
        <ele>539.0</ele>
        <time>2020-09-13T14:21:42Z</time>
      </trkpt>
      <trkpt lat="42.9005710" lon="-2.5428900">
        <ele>539.0</ele>
        <time>2020-09-13T14:21:46Z</time>
      </trkpt>
      <trkpt lat="42.9005710" lon="-2.5428900">
        <ele>538.8</ele>
        <time>2020-09-13T14:21:50Z</time>
      </trkpt>
      <trkpt lat="42.9005710" lon="-2.5428900">
        <ele>538.6</ele>
        <time>2020-09-13T14:21:54Z</time>
      </trkpt>
      <trkpt lat="42.9005710" lon="-2.5428900">
        <ele>538.8</ele>
        <time>2020-09-13T14:21:58Z</time>
      </trkpt>
      <trkpt lat="42.9005710" lon="-2.5428900">
        <ele>539.0</ele>
        <time>2020-09-13T14:22:02Z</time>
      </trkpt>
      <trkpt lat="42.9005710" lon="-2.5428900">
        <ele>538.6</ele>
        <time>2020-09-13T14:22:06Z</time>
      </trkpt>
      <trkpt lat="42.9005710" lon="-2.5428900">
        <ele>538.8</ele>
        <time>2020-09-13T14:22:10Z</time>
      </trkpt>
      <trkpt lat="42.9005710" lon="-2.5428900">
        <ele>538.6</ele>
        <time>2020-09-13T14:22:14Z</time>
      </trkpt>
      <trkpt lat="42.9005710" lon="-2.5428900">
        <ele>538.8</ele>
        <time>2020-09-13T14:22:18Z</time>
      </trkpt>
      <trkpt lat="42.9005710" lon="-2.5428900">
        <ele>538.8</ele>
        <time>2020-09-13T14:22:22Z</time>
      </trkpt>
      <trkpt lat="42.9005710" lon="-2.5428900">
        <ele>539.0</ele>
        <time>2020-09-13T14:22:26Z</time>
      </trkpt>
      <trkpt lat="42.9005710" lon="-2.5428900">
        <ele>538.6</ele>
        <time>2020-09-13T14:22:30Z</time>
      </trkpt>
      <trkpt lat="42.9005710" lon="-2.5428900">
        <ele>539.0</ele>
        <time>2020-09-13T14:22:34Z</time>
      </trkpt>
      <trkpt lat="42.9005710" lon="-2.5428900">
        <ele>538.8</ele>
        <time>2020-09-13T14:22:38Z</time>
      </trkpt>
      <trkpt lat="42.9005710" lon="-2.5428900">
        <ele>538.6</ele>
        <time>2020-09-13T14:22:42Z</time>
      </trkpt>
      <trkpt lat="42.9005710" lon="-2.5428900">
        <ele>538.6</ele>
        <time>2020-09-13T14:22:46Z</time>
      </trkpt>
      <trkpt lat="42.9005710" lon="-2.5428900">
        <ele>538.6</ele>
        <time>2020-09-13T14:22:50Z</time>
      </trkpt>
      <trkpt lat="42.9005710" lon="-2.5428900">
        <ele>538.4</ele>
        <time>2020-09-13T14:22:54Z</time>
      </trkpt>
      <trkpt lat="42.9005710" lon="-2.5428900">
        <ele>538.6</ele>
        <time>2020-09-13T14:22:58Z</time>
      </trkpt>
      <trkpt lat="42.9005710" lon="-2.5428900">
        <ele>538.6</ele>
        <time>2020-09-13T14:23:02Z</time>
      </trkpt>
      <trkpt lat="42.9005710" lon="-2.5428900">
        <ele>538.8</ele>
        <time>2020-09-13T14:23:06Z</time>
      </trkpt>
      <trkpt lat="42.9005710" lon="-2.5428900">
        <ele>538.6</ele>
        <time>2020-09-13T14:23:10Z</time>
      </trkpt>
      <trkpt lat="42.9005710" lon="-2.5428900">
        <ele>538.6</ele>
        <time>2020-09-13T14:23:14Z</time>
      </trkpt>
      <trkpt lat="42.9005710" lon="-2.5428900">
        <ele>538.6</ele>
        <time>2020-09-13T14:23:18Z</time>
      </trkpt>
      <trkpt lat="42.9005710" lon="-2.5428900">
        <ele>538.6</ele>
        <time>2020-09-13T14:23:22Z</time>
      </trkpt>
      <trkpt lat="42.9005710" lon="-2.5428900">
        <ele>539.0</ele>
        <time>2020-09-13T14:23:26Z</time>
      </trkpt>
      <trkpt lat="42.9005710" lon="-2.5428900">
        <ele>539.0</ele>
        <time>2020-09-13T14:23:30Z</time>
      </trkpt>
      <trkpt lat="42.9005710" lon="-2.5428900">
        <ele>539.4</ele>
        <time>2020-09-13T14:23:34Z</time>
      </trkpt>
      <trkpt lat="42.9005710" lon="-2.5428900">
        <ele>538.6</ele>
        <time>2020-09-13T14:23:38Z</time>
      </trkpt>
      <trkpt lat="42.9005710" lon="-2.5428900">
        <ele>538.6</ele>
        <time>2020-09-13T14:23:42Z</time>
      </trkpt>
      <trkpt lat="42.9005710" lon="-2.5428900">
        <ele>538.6</ele>
        <time>2020-09-13T14:23:46Z</time>
      </trkpt>
      <trkpt lat="42.9005710" lon="-2.5428900">
        <ele>538.6</ele>
        <time>2020-09-13T14:23:50Z</time>
      </trkpt>
      <trkpt lat="42.9005710" lon="-2.5428900">
        <ele>538.6</ele>
        <time>2020-09-13T14:23:54Z</time>
      </trkpt>
      <trkpt lat="42.9005710" lon="-2.5428900">
        <ele>538.8</ele>
        <time>2020-09-13T14:23:58Z</time>
      </trkpt>
      <trkpt lat="42.9005710" lon="-2.5428900">
        <ele>538.6</ele>
        <time>2020-09-13T14:24:02Z</time>
      </trkpt>
      <trkpt lat="42.9005710" lon="-2.5428900">
        <ele>538.8</ele>
        <time>2020-09-13T14:24:06Z</time>
      </trkpt>
      <trkpt lat="42.9005710" lon="-2.5428900">
        <ele>539.0</ele>
        <time>2020-09-13T14:24:10Z</time>
      </trkpt>
      <trkpt lat="42.9005710" lon="-2.5428900">
        <ele>539.0</ele>
        <time>2020-09-13T14:24:14Z</time>
      </trkpt>
      <trkpt lat="42.9005710" lon="-2.5428900">
        <ele>539.2</ele>
        <time>2020-09-13T14:24:18Z</time>
      </trkpt>
      <trkpt lat="42.9005710" lon="-2.5428900">
        <ele>538.6</ele>
        <time>2020-09-13T14:24:22Z</time>
      </trkpt>
      <trkpt lat="42.9005710" lon="-2.5428900">
        <ele>538.8</ele>
        <time>2020-09-13T14:24:26Z</time>
      </trkpt>
      <trkpt lat="42.9005710" lon="-2.5428900">
        <ele>539.0</ele>
        <time>2020-09-13T14:24:30Z</time>
      </trkpt>
      <trkpt lat="42.9005710" lon="-2.5428900">
        <ele>538.6</ele>
        <time>2020-09-13T14:24:34Z</time>
      </trkpt>
      <trkpt lat="42.9005710" lon="-2.5428900">
        <ele>538.8</ele>
        <time>2020-09-13T14:24:38Z</time>
      </trkpt>
      <trkpt lat="42.9005710" lon="-2.5428900">
        <ele>538.6</ele>
        <time>2020-09-13T14:24:42Z</time>
      </trkpt>
      <trkpt lat="42.9005710" lon="-2.5428900">
        <ele>539.2</ele>
        <time>2020-09-13T14:24:46Z</time>
      </trkpt>
      <trkpt lat="42.9005710" lon="-2.5428900">
        <ele>538.8</ele>
        <time>2020-09-13T14:24:50Z</time>
      </trkpt>
      <trkpt lat="42.9005710" lon="-2.5428900">
        <ele>539.4</ele>
        <time>2020-09-13T14:24:54Z</time>
      </trkpt>
      <trkpt lat="42.9005710" lon="-2.5428900">
        <ele>539.4</ele>
        <time>2020-09-13T14:24:58Z</time>
      </trkpt>
      <trkpt lat="42.9005710" lon="-2.5428900">
        <ele>538.8</ele>
        <time>2020-09-13T14:25:02Z</time>
      </trkpt>
      <trkpt lat="42.9005710" lon="-2.5428900">
        <ele>539.2</ele>
        <time>2020-09-13T14:25:06Z</time>
      </trkpt>
      <trkpt lat="42.9005710" lon="-2.5428900">
        <ele>539.4</ele>
        <time>2020-09-13T14:25:10Z</time>
      </trkpt>
      <trkpt lat="42.9005710" lon="-2.5428900">
        <ele>539.0</ele>
        <time>2020-09-13T14:25:14Z</time>
      </trkpt>
      <trkpt lat="42.9005710" lon="-2.5428900">
        <ele>538.6</ele>
        <time>2020-09-13T14:25:18Z</time>
      </trkpt>
      <trkpt lat="42.9005710" lon="-2.5428900">
        <ele>539.0</ele>
        <time>2020-09-13T14:25:22Z</time>
      </trkpt>
      <trkpt lat="42.9005710" lon="-2.5428900">
        <ele>538.8</ele>
        <time>2020-09-13T14:25:26Z</time>
      </trkpt>
      <trkpt lat="42.9005710" lon="-2.5428900">
        <ele>539.0</ele>
        <time>2020-09-13T14:25:30Z</time>
      </trkpt>
      <trkpt lat="42.9005710" lon="-2.5428900">
        <ele>538.0</ele>
        <time>2020-09-13T14:25:34Z</time>
      </trkpt>
      <trkpt lat="42.9005710" lon="-2.5428900">
        <ele>538.6</ele>
        <time>2020-09-13T14:25:38Z</time>
      </trkpt>
      <trkpt lat="42.9005710" lon="-2.5428900">
        <ele>538.6</ele>
        <time>2020-09-13T14:25:42Z</time>
      </trkpt>
      <trkpt lat="42.9005710" lon="-2.5428900">
        <ele>538.8</ele>
        <time>2020-09-13T14:25:46Z</time>
      </trkpt>
      <trkpt lat="42.9005710" lon="-2.5428900">
        <ele>539.2</ele>
        <time>2020-09-13T14:25:50Z</time>
      </trkpt>
      <trkpt lat="42.9005710" lon="-2.5428900">
        <ele>538.6</ele>
        <time>2020-09-13T14:25:54Z</time>
      </trkpt>
      <trkpt lat="42.9005710" lon="-2.5428900">
        <ele>538.2</ele>
        <time>2020-09-13T14:25:58Z</time>
      </trkpt>
      <trkpt lat="42.9005710" lon="-2.5428900">
        <ele>538.0</ele>
        <time>2020-09-13T14:26:02Z</time>
      </trkpt>
      <trkpt lat="42.9005710" lon="-2.5428900">
        <ele>538.6</ele>
        <time>2020-09-13T14:26:06Z</time>
      </trkpt>
      <trkpt lat="42.9005710" lon="-2.5428900">
        <ele>538.6</ele>
        <time>2020-09-13T14:26:10Z</time>
      </trkpt>
      <trkpt lat="42.9005710" lon="-2.5428900">
        <ele>538.6</ele>
        <time>2020-09-13T14:26:14Z</time>
      </trkpt>
      <trkpt lat="42.9005710" lon="-2.5428900">
        <ele>538.2</ele>
        <time>2020-09-13T14:26:18Z</time>
      </trkpt>
      <trkpt lat="42.9005710" lon="-2.5428900">
        <ele>539.0</ele>
        <time>2020-09-13T14:26:22Z</time>
      </trkpt>
      <trkpt lat="42.9005710" lon="-2.5428900">
        <ele>539.0</ele>
        <time>2020-09-13T14:26:26Z</time>
      </trkpt>
      <trkpt lat="42.9005710" lon="-2.5428900">
        <ele>538.8</ele>
        <time>2020-09-13T14:26:30Z</time>
      </trkpt>
      <trkpt lat="42.9005710" lon="-2.5428900">
        <ele>539.0</ele>
        <time>2020-09-13T14:26:34Z</time>
      </trkpt>
      <trkpt lat="42.9005710" lon="-2.5428900">
        <ele>538.8</ele>
        <time>2020-09-13T14:26:38Z</time>
      </trkpt>
      <trkpt lat="42.9005710" lon="-2.5428900">
        <ele>538.8</ele>
        <time>2020-09-13T14:26:42Z</time>
      </trkpt>
      <trkpt lat="42.9005710" lon="-2.5428900">
        <ele>538.6</ele>
        <time>2020-09-13T14:26:46Z</time>
      </trkpt>
      <trkpt lat="42.9005710" lon="-2.5428900">
        <ele>538.8</ele>
        <time>2020-09-13T14:26:50Z</time>
      </trkpt>
      <trkpt lat="42.9005710" lon="-2.5428900">
        <ele>538.8</ele>
        <time>2020-09-13T14:26:54Z</time>
      </trkpt>
      <trkpt lat="42.9005710" lon="-2.5428900">
        <ele>538.8</ele>
        <time>2020-09-13T14:26:58Z</time>
      </trkpt>
      <trkpt lat="42.9005710" lon="-2.5428900">
        <ele>539.0</ele>
        <time>2020-09-13T14:27:02Z</time>
      </trkpt>
      <trkpt lat="42.9005710" lon="-2.5428900">
        <ele>538.6</ele>
        <time>2020-09-13T14:27:06Z</time>
      </trkpt>
      <trkpt lat="42.9005710" lon="-2.5428900">
        <ele>538.4</ele>
        <time>2020-09-13T14:27:10Z</time>
      </trkpt>
      <trkpt lat="42.9005710" lon="-2.5428900">
        <ele>538.8</ele>
        <time>2020-09-13T14:27:14Z</time>
      </trkpt>
      <trkpt lat="42.9005710" lon="-2.5428900">
        <ele>538.8</ele>
        <time>2020-09-13T14:27:18Z</time>
      </trkpt>
      <trkpt lat="42.9005710" lon="-2.5428900">
        <ele>538.8</ele>
        <time>2020-09-13T14:27:22Z</time>
      </trkpt>
      <trkpt lat="42.9005710" lon="-2.5428900">
        <ele>538.8</ele>
        <time>2020-09-13T14:27:26Z</time>
      </trkpt>
      <trkpt lat="42.9005710" lon="-2.5428900">
        <ele>539.0</ele>
        <time>2020-09-13T14:27:30Z</time>
      </trkpt>
      <trkpt lat="42.9005710" lon="-2.5428900">
        <ele>538.8</ele>
        <time>2020-09-13T14:27:34Z</time>
      </trkpt>
      <trkpt lat="42.9005710" lon="-2.5428900">
        <ele>538.8</ele>
        <time>2020-09-13T14:27:38Z</time>
      </trkpt>
      <trkpt lat="42.9005710" lon="-2.5428900">
        <ele>538.6</ele>
        <time>2020-09-13T14:27:42Z</time>
      </trkpt>
      <trkpt lat="42.9005710" lon="-2.5428900">
        <ele>538.8</ele>
        <time>2020-09-13T14:27:46Z</time>
      </trkpt>
      <trkpt lat="42.9005710" lon="-2.5428900">
        <ele>538.8</ele>
        <time>2020-09-13T14:27:50Z</time>
      </trkpt>
      <trkpt lat="42.9005710" lon="-2.5428900">
        <ele>539.2</ele>
        <time>2020-09-13T14:27:54Z</time>
      </trkpt>
      <trkpt lat="42.9005710" lon="-2.5428900">
        <ele>538.6</ele>
        <time>2020-09-13T14:27:58Z</time>
      </trkpt>
      <trkpt lat="42.9005710" lon="-2.5428900">
        <ele>538.4</ele>
        <time>2020-09-13T14:28:02Z</time>
      </trkpt>
      <trkpt lat="42.9005710" lon="-2.5428900">
        <ele>538.8</ele>
        <time>2020-09-13T14:28:06Z</time>
      </trkpt>
      <trkpt lat="42.9005710" lon="-2.5428900">
        <ele>538.2</ele>
        <time>2020-09-13T14:28:10Z</time>
      </trkpt>
      <trkpt lat="42.9005710" lon="-2.5428900">
        <ele>538.6</ele>
        <time>2020-09-13T14:28:14Z</time>
      </trkpt>
      <trkpt lat="42.9005710" lon="-2.5428900">
        <ele>538.8</ele>
        <time>2020-09-13T14:28:18Z</time>
      </trkpt>
      <trkpt lat="42.9005710" lon="-2.5428900">
        <ele>538.8</ele>
        <time>2020-09-13T14:28:22Z</time>
      </trkpt>
      <trkpt lat="42.9005710" lon="-2.5428900">
        <ele>538.8</ele>
        <time>2020-09-13T14:28:26Z</time>
      </trkpt>
      <trkpt lat="42.9005710" lon="-2.5428900">
        <ele>538.6</ele>
        <time>2020-09-13T14:28:30Z</time>
      </trkpt>
      <trkpt lat="42.9005710" lon="-2.5428900">
        <ele>538.6</ele>
        <time>2020-09-13T14:28:34Z</time>
      </trkpt>
      <trkpt lat="42.9005710" lon="-2.5428900">
        <ele>538.6</ele>
        <time>2020-09-13T14:28:38Z</time>
      </trkpt>
      <trkpt lat="42.9005710" lon="-2.5428900">
        <ele>538.6</ele>
        <time>2020-09-13T14:28:42Z</time>
      </trkpt>
      <trkpt lat="42.9005710" lon="-2.5428900">
        <ele>538.4</ele>
        <time>2020-09-13T14:28:46Z</time>
      </trkpt>
      <trkpt lat="42.9005710" lon="-2.5428900">
        <ele>538.6</ele>
        <time>2020-09-13T14:28:50Z</time>
      </trkpt>
      <trkpt lat="42.9005710" lon="-2.5428900">
        <ele>538.6</ele>
        <time>2020-09-13T14:28:54Z</time>
      </trkpt>
      <trkpt lat="42.9005710" lon="-2.5428900">
        <ele>538.8</ele>
        <time>2020-09-13T14:28:58Z</time>
      </trkpt>
      <trkpt lat="42.9005710" lon="-2.5428900">
        <ele>538.8</ele>
        <time>2020-09-13T14:29:02Z</time>
      </trkpt>
      <trkpt lat="42.9005710" lon="-2.5428900">
        <ele>538.6</ele>
        <time>2020-09-13T14:29:06Z</time>
      </trkpt>
      <trkpt lat="42.9005710" lon="-2.5428900">
        <ele>538.8</ele>
        <time>2020-09-13T14:29:10Z</time>
      </trkpt>
      <trkpt lat="42.9005710" lon="-2.5428900">
        <ele>538.8</ele>
        <time>2020-09-13T14:29:14Z</time>
      </trkpt>
      <trkpt lat="42.9005710" lon="-2.5428900">
        <ele>538.6</ele>
        <time>2020-09-13T14:29:18Z</time>
      </trkpt>
      <trkpt lat="42.9005710" lon="-2.5428900">
        <ele>539.0</ele>
        <time>2020-09-13T14:29:22Z</time>
      </trkpt>
      <trkpt lat="42.9005710" lon="-2.5428900">
        <ele>538.6</ele>
        <time>2020-09-13T14:29:26Z</time>
      </trkpt>
      <trkpt lat="42.9005710" lon="-2.5428900">
        <ele>538.6</ele>
        <time>2020-09-13T14:29:30Z</time>
      </trkpt>
      <trkpt lat="42.9005710" lon="-2.5428900">
        <ele>538.8</ele>
        <time>2020-09-13T14:29:34Z</time>
      </trkpt>
      <trkpt lat="42.9005710" lon="-2.5428900">
        <ele>538.8</ele>
        <time>2020-09-13T14:29:38Z</time>
      </trkpt>
      <trkpt lat="42.9005710" lon="-2.5428900">
        <ele>538.6</ele>
        <time>2020-09-13T14:29:42Z</time>
      </trkpt>
      <trkpt lat="42.9005710" lon="-2.5428900">
        <ele>538.8</ele>
        <time>2020-09-13T14:29:46Z</time>
      </trkpt>
      <trkpt lat="42.9005710" lon="-2.5428900">
        <ele>538.8</ele>
        <time>2020-09-13T14:29:50Z</time>
      </trkpt>
      <trkpt lat="42.9005710" lon="-2.5428900">
        <ele>539.0</ele>
        <time>2020-09-13T14:29:54Z</time>
      </trkpt>
      <trkpt lat="42.9005710" lon="-2.5428900">
        <ele>538.8</ele>
        <time>2020-09-13T14:29:58Z</time>
      </trkpt>
      <trkpt lat="42.9005710" lon="-2.5428900">
        <ele>538.8</ele>
        <time>2020-09-13T14:30:02Z</time>
      </trkpt>
      <trkpt lat="42.9005710" lon="-2.5428900">
        <ele>538.8</ele>
        <time>2020-09-13T14:30:06Z</time>
      </trkpt>
      <trkpt lat="42.9005710" lon="-2.5428900">
        <ele>539.0</ele>
        <time>2020-09-13T14:30:10Z</time>
      </trkpt>
      <trkpt lat="42.9005710" lon="-2.5428900">
        <ele>538.6</ele>
        <time>2020-09-13T14:30:14Z</time>
      </trkpt>
      <trkpt lat="42.9005710" lon="-2.5428900">
        <ele>538.6</ele>
        <time>2020-09-13T14:30:18Z</time>
      </trkpt>
      <trkpt lat="42.9005710" lon="-2.5428900">
        <ele>538.8</ele>
        <time>2020-09-13T14:30:22Z</time>
      </trkpt>
      <trkpt lat="42.9005710" lon="-2.5428900">
        <ele>538.8</ele>
        <time>2020-09-13T14:30:26Z</time>
      </trkpt>
      <trkpt lat="42.9005710" lon="-2.5428900">
        <ele>539.0</ele>
        <time>2020-09-13T14:30:30Z</time>
      </trkpt>
      <trkpt lat="42.9005710" lon="-2.5428900">
        <ele>538.4</ele>
        <time>2020-09-13T14:30:34Z</time>
      </trkpt>
      <trkpt lat="42.9005710" lon="-2.5428900">
        <ele>538.8</ele>
        <time>2020-09-13T14:30:38Z</time>
      </trkpt>
      <trkpt lat="42.9005710" lon="-2.5428900">
        <ele>538.6</ele>
        <time>2020-09-13T14:30:42Z</time>
      </trkpt>
      <trkpt lat="42.9005710" lon="-2.5428900">
        <ele>538.4</ele>
        <time>2020-09-13T14:30:46Z</time>
      </trkpt>
      <trkpt lat="42.9005710" lon="-2.5428900">
        <ele>538.6</ele>
        <time>2020-09-13T14:30:50Z</time>
      </trkpt>
      <trkpt lat="42.9005710" lon="-2.5428900">
        <ele>539.4</ele>
        <time>2020-09-13T14:30:54Z</time>
      </trkpt>
      <trkpt lat="42.9005710" lon="-2.5428900">
        <ele>538.6</ele>
        <time>2020-09-13T14:30:58Z</time>
      </trkpt>
      <trkpt lat="42.9005710" lon="-2.5428900">
        <ele>538.6</ele>
        <time>2020-09-13T14:31:02Z</time>
      </trkpt>
      <trkpt lat="42.9005710" lon="-2.5428900">
        <ele>538.6</ele>
        <time>2020-09-13T14:31:06Z</time>
      </trkpt>
      <trkpt lat="42.9005710" lon="-2.5428900">
        <ele>538.6</ele>
        <time>2020-09-13T14:31:10Z</time>
      </trkpt>
      <trkpt lat="42.9005710" lon="-2.5428900">
        <ele>538.6</ele>
        <time>2020-09-13T14:31:14Z</time>
      </trkpt>
      <trkpt lat="42.9005710" lon="-2.5428900">
        <ele>538.6</ele>
        <time>2020-09-13T14:31:18Z</time>
      </trkpt>
      <trkpt lat="42.9005710" lon="-2.5428900">
        <ele>538.8</ele>
        <time>2020-09-13T14:31:22Z</time>
      </trkpt>
      <trkpt lat="42.9005710" lon="-2.5428900">
        <ele>538.6</ele>
        <time>2020-09-13T14:31:26Z</time>
      </trkpt>
      <trkpt lat="42.9005710" lon="-2.5428900">
        <ele>538.4</ele>
        <time>2020-09-13T14:31:30Z</time>
      </trkpt>
      <trkpt lat="42.9005710" lon="-2.5428900">
        <ele>538.6</ele>
        <time>2020-09-13T14:31:34Z</time>
      </trkpt>
      <trkpt lat="42.9005710" lon="-2.5428900">
        <ele>538.6</ele>
        <time>2020-09-13T14:31:38Z</time>
      </trkpt>
      <trkpt lat="42.9005710" lon="-2.5428900">
        <ele>538.6</ele>
        <time>2020-09-13T14:31:42Z</time>
      </trkpt>
      <trkpt lat="42.9005710" lon="-2.5428900">
        <ele>538.6</ele>
        <time>2020-09-13T14:31:46Z</time>
      </trkpt>
      <trkpt lat="42.9005710" lon="-2.5428900">
        <ele>538.6</ele>
        <time>2020-09-13T14:31:50Z</time>
      </trkpt>
      <trkpt lat="42.9005710" lon="-2.5428900">
        <ele>538.6</ele>
        <time>2020-09-13T14:31:54Z</time>
      </trkpt>
      <trkpt lat="42.9005710" lon="-2.5428900">
        <ele>539.0</ele>
        <time>2020-09-13T14:31:58Z</time>
      </trkpt>
      <trkpt lat="42.9005710" lon="-2.5428900">
        <ele>539.0</ele>
        <time>2020-09-13T14:32:02Z</time>
      </trkpt>
      <trkpt lat="42.9005710" lon="-2.5428900">
        <ele>538.8</ele>
        <time>2020-09-13T14:32:06Z</time>
      </trkpt>
      <trkpt lat="42.9005710" lon="-2.5428900">
        <ele>538.8</ele>
        <time>2020-09-13T14:32:10Z</time>
      </trkpt>
      <trkpt lat="42.9005710" lon="-2.5428900">
        <ele>538.8</ele>
        <time>2020-09-13T14:32:14Z</time>
      </trkpt>
      <trkpt lat="42.9005710" lon="-2.5428900">
        <ele>539.0</ele>
        <time>2020-09-13T14:32:18Z</time>
      </trkpt>
      <trkpt lat="42.9005710" lon="-2.5428900">
        <ele>539.2</ele>
        <time>2020-09-13T14:32:22Z</time>
      </trkpt>
      <trkpt lat="42.9005710" lon="-2.5428900">
        <ele>538.8</ele>
        <time>2020-09-13T14:32:26Z</time>
      </trkpt>
      <trkpt lat="42.9005710" lon="-2.5428900">
        <ele>539.0</ele>
        <time>2020-09-13T14:32:30Z</time>
      </trkpt>
      <trkpt lat="42.9005710" lon="-2.5428900">
        <ele>538.6</ele>
        <time>2020-09-13T14:32:34Z</time>
      </trkpt>
      <trkpt lat="42.9005710" lon="-2.5428900">
        <ele>539.0</ele>
        <time>2020-09-13T14:32:38Z</time>
      </trkpt>
      <trkpt lat="42.9005710" lon="-2.5428900">
        <ele>538.6</ele>
        <time>2020-09-13T14:32:42Z</time>
      </trkpt>
      <trkpt lat="42.9005710" lon="-2.5428900">
        <ele>538.6</ele>
        <time>2020-09-13T14:32:46Z</time>
      </trkpt>
      <trkpt lat="42.9005710" lon="-2.5428900">
        <ele>538.4</ele>
        <time>2020-09-13T14:32:50Z</time>
      </trkpt>
      <trkpt lat="42.9005710" lon="-2.5428900">
        <ele>539.0</ele>
        <time>2020-09-13T14:32:54Z</time>
      </trkpt>
      <trkpt lat="42.9005710" lon="-2.5428900">
        <ele>538.6</ele>
        <time>2020-09-13T14:32:58Z</time>
      </trkpt>
      <trkpt lat="42.9005710" lon="-2.5428900">
        <ele>538.6</ele>
        <time>2020-09-13T14:33:02Z</time>
      </trkpt>
      <trkpt lat="42.9005710" lon="-2.5428900">
        <ele>539.0</ele>
        <time>2020-09-13T14:33:06Z</time>
      </trkpt>
      <trkpt lat="42.9005710" lon="-2.5428900">
        <ele>538.8</ele>
        <time>2020-09-13T14:33:10Z</time>
      </trkpt>
      <trkpt lat="42.9005710" lon="-2.5428900">
        <ele>539.0</ele>
        <time>2020-09-13T14:33:14Z</time>
      </trkpt>
      <trkpt lat="42.9005710" lon="-2.5428900">
        <ele>538.8</ele>
        <time>2020-09-13T14:33:18Z</time>
      </trkpt>
      <trkpt lat="42.9005710" lon="-2.5428900">
        <ele>538.6</ele>
        <time>2020-09-13T14:33:22Z</time>
      </trkpt>
      <trkpt lat="42.9005710" lon="-2.5428900">
        <ele>538.2</ele>
        <time>2020-09-13T14:33:26Z</time>
      </trkpt>
      <trkpt lat="42.9005710" lon="-2.5428900">
        <ele>538.4</ele>
        <time>2020-09-13T14:33:30Z</time>
      </trkpt>
      <trkpt lat="42.9005710" lon="-2.5428900">
        <ele>539.4</ele>
        <time>2020-09-13T14:33:34Z</time>
      </trkpt>
      <trkpt lat="42.9005710" lon="-2.5428900">
        <ele>539.4</ele>
        <time>2020-09-13T14:33:38Z</time>
      </trkpt>
      <trkpt lat="42.9005710" lon="-2.5428900">
        <ele>538.6</ele>
        <time>2020-09-13T14:33:42Z</time>
      </trkpt>
      <trkpt lat="42.9005710" lon="-2.5428900">
        <ele>539.0</ele>
        <time>2020-09-13T14:33:46Z</time>
      </trkpt>
      <trkpt lat="42.9005710" lon="-2.5428900">
        <ele>538.8</ele>
        <time>2020-09-13T14:33:50Z</time>
      </trkpt>
      <trkpt lat="42.9005710" lon="-2.5428900">
        <ele>538.8</ele>
        <time>2020-09-13T14:33:54Z</time>
      </trkpt>
      <trkpt lat="42.9005710" lon="-2.5428900">
        <ele>538.4</ele>
        <time>2020-09-13T14:33:58Z</time>
      </trkpt>
      <trkpt lat="42.9005710" lon="-2.5428900">
        <ele>538.8</ele>
        <time>2020-09-13T14:34:02Z</time>
      </trkpt>
      <trkpt lat="42.9005710" lon="-2.5428900">
        <ele>538.6</ele>
        <time>2020-09-13T14:34:06Z</time>
      </trkpt>
      <trkpt lat="42.9005710" lon="-2.5428900">
        <ele>539.0</ele>
        <time>2020-09-13T14:34:10Z</time>
      </trkpt>
      <trkpt lat="42.9005710" lon="-2.5428900">
        <ele>538.8</ele>
        <time>2020-09-13T14:34:14Z</time>
      </trkpt>
      <trkpt lat="42.9005710" lon="-2.5428900">
        <ele>538.6</ele>
        <time>2020-09-13T14:34:18Z</time>
      </trkpt>
      <trkpt lat="42.9005710" lon="-2.5428900">
        <ele>538.6</ele>
        <time>2020-09-13T14:34:22Z</time>
      </trkpt>
      <trkpt lat="42.9005710" lon="-2.5428900">
        <ele>538.2</ele>
        <time>2020-09-13T14:34:26Z</time>
      </trkpt>
      <trkpt lat="42.9005710" lon="-2.5428900">
        <ele>538.6</ele>
        <time>2020-09-13T14:34:30Z</time>
      </trkpt>
      <trkpt lat="42.9005710" lon="-2.5428900">
        <ele>538.6</ele>
        <time>2020-09-13T14:34:34Z</time>
      </trkpt>
      <trkpt lat="42.9005710" lon="-2.5428900">
        <ele>538.2</ele>
        <time>2020-09-13T14:34:38Z</time>
      </trkpt>
      <trkpt lat="42.9005710" lon="-2.5428900">
        <ele>538.2</ele>
        <time>2020-09-13T14:34:42Z</time>
      </trkpt>
      <trkpt lat="42.9005710" lon="-2.5428900">
        <ele>538.2</ele>
        <time>2020-09-13T14:34:46Z</time>
      </trkpt>
      <trkpt lat="42.9005710" lon="-2.5428900">
        <ele>538.2</ele>
        <time>2020-09-13T14:34:50Z</time>
      </trkpt>
      <trkpt lat="42.9005710" lon="-2.5428900">
        <ele>538.6</ele>
        <time>2020-09-13T14:34:54Z</time>
      </trkpt>
      <trkpt lat="42.9005710" lon="-2.5428900">
        <ele>538.6</ele>
        <time>2020-09-13T14:34:58Z</time>
      </trkpt>
      <trkpt lat="42.9005710" lon="-2.5428900">
        <ele>538.6</ele>
        <time>2020-09-13T14:35:02Z</time>
      </trkpt>
      <trkpt lat="42.9005710" lon="-2.5428900">
        <ele>538.2</ele>
        <time>2020-09-13T14:35:06Z</time>
      </trkpt>
      <trkpt lat="42.9005710" lon="-2.5428900">
        <ele>538.6</ele>
        <time>2020-09-13T14:35:10Z</time>
      </trkpt>
      <trkpt lat="42.9005710" lon="-2.5428900">
        <ele>538.2</ele>
        <time>2020-09-13T14:35:14Z</time>
      </trkpt>
      <trkpt lat="42.9005710" lon="-2.5428900">
        <ele>538.4</ele>
        <time>2020-09-13T14:35:18Z</time>
      </trkpt>
      <trkpt lat="42.9005710" lon="-2.5428900">
        <ele>538.6</ele>
        <time>2020-09-13T14:35:22Z</time>
      </trkpt>
      <trkpt lat="42.9005710" lon="-2.5428900">
        <ele>538.8</ele>
        <time>2020-09-13T14:35:26Z</time>
      </trkpt>
      <trkpt lat="42.9005710" lon="-2.5428900">
        <ele>538.4</ele>
        <time>2020-09-13T14:35:30Z</time>
      </trkpt>
      <trkpt lat="42.9005710" lon="-2.5428900">
        <ele>538.6</ele>
        <time>2020-09-13T14:35:34Z</time>
      </trkpt>
      <trkpt lat="42.9005710" lon="-2.5428900">
        <ele>538.6</ele>
        <time>2020-09-13T14:35:38Z</time>
      </trkpt>
      <trkpt lat="42.9005710" lon="-2.5428900">
        <ele>538.6</ele>
        <time>2020-09-13T14:35:42Z</time>
      </trkpt>
      <trkpt lat="42.9005710" lon="-2.5428900">
        <ele>538.2</ele>
        <time>2020-09-13T14:35:46Z</time>
      </trkpt>
      <trkpt lat="42.9005710" lon="-2.5428900">
        <ele>539.0</ele>
        <time>2020-09-13T14:35:50Z</time>
      </trkpt>
      <trkpt lat="42.9005710" lon="-2.5428900">
        <ele>538.6</ele>
        <time>2020-09-13T14:35:54Z</time>
      </trkpt>
      <trkpt lat="42.9005710" lon="-2.5428900">
        <ele>538.4</ele>
        <time>2020-09-13T14:35:58Z</time>
      </trkpt>
      <trkpt lat="42.9005710" lon="-2.5428900">
        <ele>538.6</ele>
        <time>2020-09-13T14:36:02Z</time>
      </trkpt>
      <trkpt lat="42.9005710" lon="-2.5428900">
        <ele>538.8</ele>
        <time>2020-09-13T14:36:06Z</time>
      </trkpt>
      <trkpt lat="42.9005710" lon="-2.5428900">
        <ele>539.0</ele>
        <time>2020-09-13T14:36:10Z</time>
      </trkpt>
      <trkpt lat="42.9005710" lon="-2.5428900">
        <ele>539.0</ele>
        <time>2020-09-13T14:36:14Z</time>
      </trkpt>
      <trkpt lat="42.9005710" lon="-2.5428900">
        <ele>538.8</ele>
        <time>2020-09-13T14:36:18Z</time>
      </trkpt>
      <trkpt lat="42.9005710" lon="-2.5428900">
        <ele>538.6</ele>
        <time>2020-09-13T14:36:22Z</time>
      </trkpt>
      <trkpt lat="42.9005710" lon="-2.5428900">
        <ele>538.6</ele>
        <time>2020-09-13T14:36:26Z</time>
      </trkpt>
      <trkpt lat="42.9005710" lon="-2.5428900">
        <ele>538.6</ele>
        <time>2020-09-13T14:36:30Z</time>
      </trkpt>
      <trkpt lat="42.9005710" lon="-2.5428900">
        <ele>538.6</ele>
        <time>2020-09-13T14:36:34Z</time>
      </trkpt>
      <trkpt lat="42.9005710" lon="-2.5428900">
        <ele>538.6</ele>
        <time>2020-09-13T14:36:38Z</time>
      </trkpt>
      <trkpt lat="42.9005710" lon="-2.5428900">
        <ele>538.8</ele>
        <time>2020-09-13T14:36:42Z</time>
      </trkpt>
      <trkpt lat="42.9005710" lon="-2.5428900">
        <ele>538.8</ele>
        <time>2020-09-13T14:36:46Z</time>
      </trkpt>
      <trkpt lat="42.9005710" lon="-2.5428900">
        <ele>538.8</ele>
        <time>2020-09-13T14:36:50Z</time>
      </trkpt>
      <trkpt lat="42.9005710" lon="-2.5428900">
        <ele>539.2</ele>
        <time>2020-09-13T14:36:54Z</time>
      </trkpt>
      <trkpt lat="42.9005710" lon="-2.5428900">
        <ele>538.8</ele>
        <time>2020-09-13T14:36:58Z</time>
      </trkpt>
      <trkpt lat="42.9005710" lon="-2.5428900">
        <ele>539.4</ele>
        <time>2020-09-13T14:37:02Z</time>
      </trkpt>
      <trkpt lat="42.9005710" lon="-2.5428900">
        <ele>538.6</ele>
        <time>2020-09-13T14:37:06Z</time>
      </trkpt>
      <trkpt lat="42.9005710" lon="-2.5428900">
        <ele>538.6</ele>
        <time>2020-09-13T14:37:10Z</time>
      </trkpt>
      <trkpt lat="42.9005710" lon="-2.5428900">
        <ele>538.8</ele>
        <time>2020-09-13T14:37:14Z</time>
      </trkpt>
      <trkpt lat="42.9005710" lon="-2.5428900">
        <ele>539.4</ele>
        <time>2020-09-13T14:37:18Z</time>
      </trkpt>
      <trkpt lat="42.9005710" lon="-2.5428900">
        <ele>538.6</ele>
        <time>2020-09-13T14:37:22Z</time>
      </trkpt>
      <trkpt lat="42.9005710" lon="-2.5428900">
        <ele>538.6</ele>
        <time>2020-09-13T14:37:26Z</time>
      </trkpt>
      <trkpt lat="42.9005710" lon="-2.5428900">
        <ele>539.0</ele>
        <time>2020-09-13T14:37:30Z</time>
      </trkpt>
      <trkpt lat="42.9005710" lon="-2.5428900">
        <ele>538.6</ele>
        <time>2020-09-13T14:37:34Z</time>
      </trkpt>
      <trkpt lat="42.9005710" lon="-2.5428900">
        <ele>538.6</ele>
        <time>2020-09-13T14:37:38Z</time>
      </trkpt>
      <trkpt lat="42.9005710" lon="-2.5428900">
        <ele>539.0</ele>
        <time>2020-09-13T14:37:42Z</time>
      </trkpt>
      <trkpt lat="42.9005710" lon="-2.5428900">
        <ele>539.0</ele>
        <time>2020-09-13T14:37:46Z</time>
      </trkpt>
      <trkpt lat="42.9005710" lon="-2.5428900">
        <ele>538.6</ele>
        <time>2020-09-13T14:37:50Z</time>
      </trkpt>
      <trkpt lat="42.9005710" lon="-2.5428900">
        <ele>538.8</ele>
        <time>2020-09-13T14:37:54Z</time>
      </trkpt>
      <trkpt lat="42.9005710" lon="-2.5428900">
        <ele>538.6</ele>
        <time>2020-09-13T14:37:58Z</time>
      </trkpt>
      <trkpt lat="42.9005710" lon="-2.5428900">
        <ele>538.6</ele>
        <time>2020-09-13T14:38:02Z</time>
      </trkpt>
      <trkpt lat="42.9005710" lon="-2.5428900">
        <ele>538.6</ele>
        <time>2020-09-13T14:38:06Z</time>
      </trkpt>
      <trkpt lat="42.9005710" lon="-2.5428900">
        <ele>538.6</ele>
        <time>2020-09-13T14:38:10Z</time>
      </trkpt>
      <trkpt lat="42.9005710" lon="-2.5428900">
        <ele>538.6</ele>
        <time>2020-09-13T14:38:14Z</time>
      </trkpt>
      <trkpt lat="42.9005710" lon="-2.5428900">
        <ele>538.8</ele>
        <time>2020-09-13T14:38:18Z</time>
      </trkpt>
      <trkpt lat="42.9005710" lon="-2.5428900">
        <ele>538.6</ele>
        <time>2020-09-13T14:38:22Z</time>
      </trkpt>
      <trkpt lat="42.9005710" lon="-2.5428900">
        <ele>539.2</ele>
        <time>2020-09-13T14:38:26Z</time>
      </trkpt>
      <trkpt lat="42.9005710" lon="-2.5428900">
        <ele>539.0</ele>
        <time>2020-09-13T14:38:30Z</time>
      </trkpt>
      <trkpt lat="42.9005710" lon="-2.5428900">
        <ele>539.2</ele>
        <time>2020-09-13T14:38:34Z</time>
      </trkpt>
      <trkpt lat="42.9005710" lon="-2.5428900">
        <ele>538.8</ele>
        <time>2020-09-13T14:38:38Z</time>
      </trkpt>
      <trkpt lat="42.9005710" lon="-2.5428900">
        <ele>538.8</ele>
        <time>2020-09-13T14:38:42Z</time>
      </trkpt>
      <trkpt lat="42.9005710" lon="-2.5428900">
        <ele>539.0</ele>
        <time>2020-09-13T14:38:46Z</time>
      </trkpt>
      <trkpt lat="42.9005710" lon="-2.5428900">
        <ele>538.8</ele>
        <time>2020-09-13T14:38:50Z</time>
      </trkpt>
      <trkpt lat="42.9005710" lon="-2.5428900">
        <ele>539.0</ele>
        <time>2020-09-13T14:38:54Z</time>
      </trkpt>
      <trkpt lat="42.9005710" lon="-2.5428900">
        <ele>539.4</ele>
        <time>2020-09-13T14:38:58Z</time>
      </trkpt>
      <trkpt lat="42.9005710" lon="-2.5428900">
        <ele>539.4</ele>
        <time>2020-09-13T14:39:02Z</time>
      </trkpt>
      <trkpt lat="42.9005710" lon="-2.5428900">
        <ele>539.0</ele>
        <time>2020-09-13T14:39:06Z</time>
      </trkpt>
      <trkpt lat="42.9005710" lon="-2.5428900">
        <ele>538.6</ele>
        <time>2020-09-13T14:39:10Z</time>
      </trkpt>
      <trkpt lat="42.9005710" lon="-2.5428900">
        <ele>539.0</ele>
        <time>2020-09-13T14:39:14Z</time>
      </trkpt>
      <trkpt lat="42.9005710" lon="-2.5428900">
        <ele>539.4</ele>
        <time>2020-09-13T14:39:18Z</time>
      </trkpt>
      <trkpt lat="42.9005710" lon="-2.5428900">
        <ele>539.0</ele>
        <time>2020-09-13T14:39:22Z</time>
      </trkpt>
      <trkpt lat="42.9005710" lon="-2.5428900">
        <ele>539.4</ele>
        <time>2020-09-13T14:39:26Z</time>
      </trkpt>
      <trkpt lat="42.9005710" lon="-2.5428900">
        <ele>538.8</ele>
        <time>2020-09-13T14:39:30Z</time>
      </trkpt>
      <trkpt lat="42.9005710" lon="-2.5428900">
        <ele>539.2</ele>
        <time>2020-09-13T14:39:34Z</time>
      </trkpt>
      <trkpt lat="42.9005710" lon="-2.5428900">
        <ele>539.0</ele>
        <time>2020-09-13T14:39:38Z</time>
      </trkpt>
      <trkpt lat="42.9005710" lon="-2.5428900">
        <ele>538.8</ele>
        <time>2020-09-13T14:39:42Z</time>
      </trkpt>
      <trkpt lat="42.9005710" lon="-2.5428900">
        <ele>539.0</ele>
        <time>2020-09-13T14:39:46Z</time>
      </trkpt>
      <trkpt lat="42.9005710" lon="-2.5428900">
        <ele>539.4</ele>
        <time>2020-09-13T14:39:50Z</time>
      </trkpt>
      <trkpt lat="42.9005710" lon="-2.5428900">
        <ele>539.6</ele>
        <time>2020-09-13T14:39:54Z</time>
      </trkpt>
      <trkpt lat="42.9005710" lon="-2.5428900">
        <ele>539.4</ele>
        <time>2020-09-13T14:39:58Z</time>
      </trkpt>
      <trkpt lat="42.9005710" lon="-2.5428900">
        <ele>539.4</ele>
        <time>2020-09-13T14:40:02Z</time>
      </trkpt>
      <trkpt lat="42.9005710" lon="-2.5428900">
        <ele>539.4</ele>
        <time>2020-09-13T14:40:06Z</time>
      </trkpt>
      <trkpt lat="42.9005710" lon="-2.5428900">
        <ele>539.2</ele>
        <time>2020-09-13T14:40:10Z</time>
      </trkpt>
      <trkpt lat="42.9005710" lon="-2.5428900">
        <ele>539.4</ele>
        <time>2020-09-13T14:40:14Z</time>
      </trkpt>
      <trkpt lat="42.9005710" lon="-2.5428900">
        <ele>539.4</ele>
        <time>2020-09-13T14:40:18Z</time>
      </trkpt>
      <trkpt lat="42.9005710" lon="-2.5428900">
        <ele>539.4</ele>
        <time>2020-09-13T14:40:22Z</time>
      </trkpt>
      <trkpt lat="42.9005710" lon="-2.5428900">
        <ele>539.4</ele>
        <time>2020-09-13T14:40:26Z</time>
      </trkpt>
      <trkpt lat="42.9005710" lon="-2.5428900">
        <ele>539.2</ele>
        <time>2020-09-13T14:40:30Z</time>
      </trkpt>
      <trkpt lat="42.9005710" lon="-2.5428900">
        <ele>539.4</ele>
        <time>2020-09-13T14:40:34Z</time>
      </trkpt>
      <trkpt lat="42.9005710" lon="-2.5428900">
        <ele>539.4</ele>
        <time>2020-09-13T14:40:38Z</time>
      </trkpt>
      <trkpt lat="42.9005710" lon="-2.5428900">
        <ele>539.4</ele>
        <time>2020-09-13T14:40:42Z</time>
      </trkpt>
      <trkpt lat="42.9005710" lon="-2.5428900">
        <ele>540.0</ele>
        <time>2020-09-13T14:40:46Z</time>
      </trkpt>
      <trkpt lat="42.9005710" lon="-2.5428900">
        <ele>540.0</ele>
        <time>2020-09-13T14:40:50Z</time>
      </trkpt>
      <trkpt lat="42.9005710" lon="-2.5428900">
        <ele>539.6</ele>
        <time>2020-09-13T14:40:54Z</time>
      </trkpt>
      <trkpt lat="42.9005710" lon="-2.5428900">
        <ele>539.4</ele>
        <time>2020-09-13T14:40:58Z</time>
      </trkpt>
      <trkpt lat="42.9005710" lon="-2.5428900">
        <ele>539.4</ele>
        <time>2020-09-13T14:41:02Z</time>
      </trkpt>
      <trkpt lat="42.9005710" lon="-2.5428900">
        <ele>539.0</ele>
        <time>2020-09-13T14:41:06Z</time>
      </trkpt>
      <trkpt lat="42.9005710" lon="-2.5428900">
        <ele>539.2</ele>
        <time>2020-09-13T14:41:10Z</time>
      </trkpt>
      <trkpt lat="42.9005710" lon="-2.5428900">
        <ele>539.4</ele>
        <time>2020-09-13T14:41:14Z</time>
      </trkpt>
      <trkpt lat="42.9005710" lon="-2.5428900">
        <ele>539.4</ele>
        <time>2020-09-13T14:41:18Z</time>
      </trkpt>
      <trkpt lat="42.9005710" lon="-2.5428900">
        <ele>539.4</ele>
        <time>2020-09-13T14:41:22Z</time>
      </trkpt>
      <trkpt lat="42.9005710" lon="-2.5428900">
        <ele>539.6</ele>
        <time>2020-09-13T14:41:26Z</time>
      </trkpt>
      <trkpt lat="42.9005710" lon="-2.5428900">
        <ele>539.4</ele>
        <time>2020-09-13T14:41:30Z</time>
      </trkpt>
      <trkpt lat="42.9005710" lon="-2.5428900">
        <ele>539.4</ele>
        <time>2020-09-13T14:41:34Z</time>
      </trkpt>
      <trkpt lat="42.9005710" lon="-2.5428900">
        <ele>539.6</ele>
        <time>2020-09-13T14:41:38Z</time>
      </trkpt>
      <trkpt lat="42.9005710" lon="-2.5428900">
        <ele>539.4</ele>
        <time>2020-09-13T14:41:42Z</time>
      </trkpt>
      <trkpt lat="42.9005710" lon="-2.5428900">
        <ele>539.4</ele>
        <time>2020-09-13T14:41:46Z</time>
      </trkpt>
      <trkpt lat="42.9005710" lon="-2.5428900">
        <ele>539.4</ele>
        <time>2020-09-13T14:41:50Z</time>
      </trkpt>
      <trkpt lat="42.9005710" lon="-2.5428900">
        <ele>540.0</ele>
        <time>2020-09-13T14:41:54Z</time>
      </trkpt>
      <trkpt lat="42.9005710" lon="-2.5428900">
        <ele>540.0</ele>
        <time>2020-09-13T14:41:58Z</time>
      </trkpt>
      <trkpt lat="42.9005710" lon="-2.5428900">
        <ele>540.2</ele>
        <time>2020-09-13T14:42:02Z</time>
      </trkpt>
      <trkpt lat="42.9005710" lon="-2.5428900">
        <ele>539.4</ele>
        <time>2020-09-13T14:42:06Z</time>
      </trkpt>
      <trkpt lat="42.9005710" lon="-2.5428900">
        <ele>539.4</ele>
        <time>2020-09-13T14:42:10Z</time>
      </trkpt>
      <trkpt lat="42.9005710" lon="-2.5428900">
        <ele>539.4</ele>
        <time>2020-09-13T14:42:14Z</time>
      </trkpt>
      <trkpt lat="42.9005710" lon="-2.5428900">
        <ele>539.6</ele>
        <time>2020-09-13T14:42:18Z</time>
      </trkpt>
      <trkpt lat="42.9005710" lon="-2.5428900">
        <ele>539.8</ele>
        <time>2020-09-13T14:42:22Z</time>
      </trkpt>
      <trkpt lat="42.9005710" lon="-2.5428900">
        <ele>540.0</ele>
        <time>2020-09-13T14:42:26Z</time>
      </trkpt>
      <trkpt lat="42.9005710" lon="-2.5428900">
        <ele>539.4</ele>
        <time>2020-09-13T14:42:30Z</time>
      </trkpt>
      <trkpt lat="42.9005710" lon="-2.5428900">
        <ele>540.2</ele>
        <time>2020-09-13T14:42:34Z</time>
      </trkpt>
      <trkpt lat="42.9005710" lon="-2.5428900">
        <ele>539.6</ele>
        <time>2020-09-13T14:42:38Z</time>
      </trkpt>
      <trkpt lat="42.9005710" lon="-2.5428900">
        <ele>539.6</ele>
        <time>2020-09-13T14:42:42Z</time>
      </trkpt>
      <trkpt lat="42.9005710" lon="-2.5428900">
        <ele>540.0</ele>
        <time>2020-09-13T14:42:46Z</time>
      </trkpt>
      <trkpt lat="42.9005710" lon="-2.5428900">
        <ele>539.6</ele>
        <time>2020-09-13T14:42:50Z</time>
      </trkpt>
      <trkpt lat="42.9005710" lon="-2.5428900">
        <ele>539.6</ele>
        <time>2020-09-13T14:42:54Z</time>
      </trkpt>
      <trkpt lat="42.9005710" lon="-2.5428900">
        <ele>540.0</ele>
        <time>2020-09-13T14:42:58Z</time>
      </trkpt>
      <trkpt lat="42.9005710" lon="-2.5428900">
        <ele>540.0</ele>
        <time>2020-09-13T14:43:02Z</time>
      </trkpt>
      <trkpt lat="42.9005710" lon="-2.5428900">
        <ele>540.0</ele>
        <time>2020-09-13T14:43:06Z</time>
      </trkpt>
      <trkpt lat="42.9005710" lon="-2.5428900">
        <ele>540.0</ele>
        <time>2020-09-13T14:43:10Z</time>
      </trkpt>
      <trkpt lat="42.9005710" lon="-2.5428900">
        <ele>539.8</ele>
        <time>2020-09-13T14:43:14Z</time>
      </trkpt>
      <trkpt lat="42.9005710" lon="-2.5428900">
        <ele>539.6</ele>
        <time>2020-09-13T14:43:18Z</time>
      </trkpt>
      <trkpt lat="42.9005710" lon="-2.5428900">
        <ele>539.6</ele>
        <time>2020-09-13T14:43:22Z</time>
      </trkpt>
      <trkpt lat="42.9005710" lon="-2.5428900">
        <ele>540.0</ele>
        <time>2020-09-13T14:43:26Z</time>
      </trkpt>
      <trkpt lat="42.9005710" lon="-2.5428900">
        <ele>539.4</ele>
        <time>2020-09-13T14:43:30Z</time>
      </trkpt>
      <trkpt lat="42.9005710" lon="-2.5428900">
        <ele>540.0</ele>
        <time>2020-09-13T14:43:34Z</time>
      </trkpt>
      <trkpt lat="42.9005710" lon="-2.5428900">
        <ele>540.0</ele>
        <time>2020-09-13T14:43:38Z</time>
      </trkpt>
      <trkpt lat="42.9005710" lon="-2.5428900">
        <ele>540.0</ele>
        <time>2020-09-13T14:43:42Z</time>
      </trkpt>
      <trkpt lat="42.9005710" lon="-2.5428900">
        <ele>539.6</ele>
        <time>2020-09-13T14:43:46Z</time>
      </trkpt>
      <trkpt lat="42.9005710" lon="-2.5428900">
        <ele>539.6</ele>
        <time>2020-09-13T14:43:50Z</time>
      </trkpt>
      <trkpt lat="42.9005710" lon="-2.5428900">
        <ele>539.6</ele>
        <time>2020-09-13T14:43:54Z</time>
      </trkpt>
      <trkpt lat="42.9005710" lon="-2.5428900">
        <ele>539.8</ele>
        <time>2020-09-13T14:43:58Z</time>
      </trkpt>
      <trkpt lat="42.9005710" lon="-2.5428900">
        <ele>540.0</ele>
        <time>2020-09-13T14:44:02Z</time>
      </trkpt>
      <trkpt lat="42.9005710" lon="-2.5428900">
        <ele>539.6</ele>
        <time>2020-09-13T14:44:06Z</time>
      </trkpt>
      <trkpt lat="42.9005710" lon="-2.5428900">
        <ele>539.4</ele>
        <time>2020-09-13T14:44:10Z</time>
      </trkpt>
      <trkpt lat="42.9005710" lon="-2.5428900">
        <ele>539.4</ele>
        <time>2020-09-13T14:44:14Z</time>
      </trkpt>
      <trkpt lat="42.9005710" lon="-2.5428900">
        <ele>539.6</ele>
        <time>2020-09-13T14:44:18Z</time>
      </trkpt>
      <trkpt lat="42.9005710" lon="-2.5428900">
        <ele>540.0</ele>
        <time>2020-09-13T14:44:22Z</time>
      </trkpt>
      <trkpt lat="42.9005710" lon="-2.5428900">
        <ele>539.6</ele>
        <time>2020-09-13T14:44:26Z</time>
      </trkpt>
      <trkpt lat="42.9005710" lon="-2.5428900">
        <ele>540.2</ele>
        <time>2020-09-13T14:44:30Z</time>
      </trkpt>
      <trkpt lat="42.9005710" lon="-2.5428900">
        <ele>540.0</ele>
        <time>2020-09-13T14:44:34Z</time>
      </trkpt>
      <trkpt lat="42.9005710" lon="-2.5428900">
        <ele>539.6</ele>
        <time>2020-09-13T14:44:38Z</time>
      </trkpt>
      <trkpt lat="42.9005710" lon="-2.5428900">
        <ele>540.0</ele>
        <time>2020-09-13T14:44:42Z</time>
      </trkpt>
      <trkpt lat="42.9005710" lon="-2.5428900">
        <ele>540.0</ele>
        <time>2020-09-13T14:44:46Z</time>
      </trkpt>
      <trkpt lat="42.9005710" lon="-2.5428900">
        <ele>540.0</ele>
        <time>2020-09-13T14:44:50Z</time>
      </trkpt>
      <trkpt lat="42.9005710" lon="-2.5428900">
        <ele>539.6</ele>
        <time>2020-09-13T14:44:54Z</time>
      </trkpt>
      <trkpt lat="42.9005710" lon="-2.5428900">
        <ele>539.8</ele>
        <time>2020-09-13T14:44:58Z</time>
      </trkpt>
      <trkpt lat="42.9005710" lon="-2.5428900">
        <ele>539.8</ele>
        <time>2020-09-13T14:45:02Z</time>
      </trkpt>
      <trkpt lat="42.9005710" lon="-2.5428900">
        <ele>540.0</ele>
        <time>2020-09-13T14:45:06Z</time>
      </trkpt>
      <trkpt lat="42.9005710" lon="-2.5428900">
        <ele>539.4</ele>
        <time>2020-09-13T14:45:10Z</time>
      </trkpt>
      <trkpt lat="42.9005710" lon="-2.5428900">
        <ele>539.6</ele>
        <time>2020-09-13T14:45:14Z</time>
      </trkpt>
      <trkpt lat="42.9005710" lon="-2.5428900">
        <ele>539.6</ele>
        <time>2020-09-13T14:45:18Z</time>
      </trkpt>
      <trkpt lat="42.9005710" lon="-2.5428900">
        <ele>539.4</ele>
        <time>2020-09-13T14:45:22Z</time>
      </trkpt>
      <trkpt lat="42.9005710" lon="-2.5428900">
        <ele>540.0</ele>
        <time>2020-09-13T14:45:26Z</time>
      </trkpt>
      <trkpt lat="42.9005710" lon="-2.5428900">
        <ele>540.0</ele>
        <time>2020-09-13T14:45:30Z</time>
      </trkpt>
      <trkpt lat="42.9005710" lon="-2.5428900">
        <ele>540.0</ele>
        <time>2020-09-13T14:45:34Z</time>
      </trkpt>
      <trkpt lat="42.9005710" lon="-2.5428900">
        <ele>539.6</ele>
        <time>2020-09-13T14:45:38Z</time>
      </trkpt>
      <trkpt lat="42.9005710" lon="-2.5428900">
        <ele>539.8</ele>
        <time>2020-09-13T14:45:42Z</time>
      </trkpt>
      <trkpt lat="42.9005710" lon="-2.5428900">
        <ele>539.8</ele>
        <time>2020-09-13T14:45:46Z</time>
      </trkpt>
      <trkpt lat="42.9005710" lon="-2.5428900">
        <ele>539.6</ele>
        <time>2020-09-13T14:45:50Z</time>
      </trkpt>
      <trkpt lat="42.9005710" lon="-2.5428900">
        <ele>540.0</ele>
        <time>2020-09-13T14:45:54Z</time>
      </trkpt>
      <trkpt lat="42.9005710" lon="-2.5428900">
        <ele>540.0</ele>
        <time>2020-09-13T14:45:58Z</time>
      </trkpt>
      <trkpt lat="42.9005710" lon="-2.5428900">
        <ele>540.0</ele>
        <time>2020-09-13T14:46:02Z</time>
      </trkpt>
      <trkpt lat="42.9005710" lon="-2.5428900">
        <ele>540.0</ele>
        <time>2020-09-13T14:46:06Z</time>
      </trkpt>
      <trkpt lat="42.9005710" lon="-2.5428900">
        <ele>540.2</ele>
        <time>2020-09-13T14:46:10Z</time>
      </trkpt>
      <trkpt lat="42.9005710" lon="-2.5428900">
        <ele>540.0</ele>
        <time>2020-09-13T14:46:14Z</time>
      </trkpt>
      <trkpt lat="42.9005710" lon="-2.5428900">
        <ele>540.2</ele>
        <time>2020-09-13T14:46:18Z</time>
      </trkpt>
      <trkpt lat="42.9005710" lon="-2.5428900">
        <ele>539.6</ele>
        <time>2020-09-13T14:46:22Z</time>
      </trkpt>
      <trkpt lat="42.9005710" lon="-2.5428900">
        <ele>540.2</ele>
        <time>2020-09-13T14:46:26Z</time>
      </trkpt>
      <trkpt lat="42.9005710" lon="-2.5428900">
        <ele>540.0</ele>
        <time>2020-09-13T14:46:30Z</time>
      </trkpt>
      <trkpt lat="42.9005710" lon="-2.5428900">
        <ele>540.0</ele>
        <time>2020-09-13T14:46:34Z</time>
      </trkpt>
      <trkpt lat="42.9005710" lon="-2.5428900">
        <ele>540.0</ele>
        <time>2020-09-13T14:46:38Z</time>
      </trkpt>
      <trkpt lat="42.9005710" lon="-2.5428900">
        <ele>539.6</ele>
        <time>2020-09-13T14:46:42Z</time>
      </trkpt>
      <trkpt lat="42.9005710" lon="-2.5428900">
        <ele>539.8</ele>
        <time>2020-09-13T14:46:46Z</time>
      </trkpt>
      <trkpt lat="42.9005710" lon="-2.5428900">
        <ele>539.6</ele>
        <time>2020-09-13T14:46:50Z</time>
      </trkpt>
      <trkpt lat="42.9005710" lon="-2.5428900">
        <ele>539.6</ele>
        <time>2020-09-13T14:46:54Z</time>
      </trkpt>
      <trkpt lat="42.9005710" lon="-2.5428900">
        <ele>540.2</ele>
        <time>2020-09-13T14:46:58Z</time>
      </trkpt>
      <trkpt lat="42.9005710" lon="-2.5428900">
        <ele>540.2</ele>
        <time>2020-09-13T14:47:02Z</time>
      </trkpt>
      <trkpt lat="42.9005710" lon="-2.5428900">
        <ele>540.2</ele>
        <time>2020-09-13T14:47:06Z</time>
      </trkpt>
      <trkpt lat="42.9005710" lon="-2.5428900">
        <ele>540.0</ele>
        <time>2020-09-13T14:47:10Z</time>
      </trkpt>
      <trkpt lat="42.9005710" lon="-2.5428900">
        <ele>540.0</ele>
        <time>2020-09-13T14:47:14Z</time>
      </trkpt>
      <trkpt lat="42.9005710" lon="-2.5428900">
        <ele>540.0</ele>
        <time>2020-09-13T14:47:18Z</time>
      </trkpt>
      <trkpt lat="42.9005710" lon="-2.5428900">
        <ele>540.0</ele>
        <time>2020-09-13T14:47:22Z</time>
      </trkpt>
      <trkpt lat="42.9005710" lon="-2.5428900">
        <ele>540.0</ele>
        <time>2020-09-13T14:47:26Z</time>
      </trkpt>
      <trkpt lat="42.9005710" lon="-2.5428900">
        <ele>540.4</ele>
        <time>2020-09-13T14:47:30Z</time>
      </trkpt>
      <trkpt lat="42.9005710" lon="-2.5428900">
        <ele>540.2</ele>
        <time>2020-09-13T14:47:34Z</time>
      </trkpt>
      <trkpt lat="42.9005710" lon="-2.5428900">
        <ele>540.0</ele>
        <time>2020-09-13T14:47:38Z</time>
      </trkpt>
      <trkpt lat="42.9005710" lon="-2.5428900">
        <ele>540.0</ele>
        <time>2020-09-13T14:47:42Z</time>
      </trkpt>
      <trkpt lat="42.9005710" lon="-2.5428900">
        <ele>540.2</ele>
        <time>2020-09-13T14:47:46Z</time>
      </trkpt>
      <trkpt lat="42.9005710" lon="-2.5428900">
        <ele>540.6</ele>
        <time>2020-09-13T14:47:50Z</time>
      </trkpt>
      <trkpt lat="42.9005710" lon="-2.5428900">
        <ele>540.4</ele>
        <time>2020-09-13T14:47:54Z</time>
      </trkpt>
      <trkpt lat="42.9005710" lon="-2.5428900">
        <ele>540.6</ele>
        <time>2020-09-13T14:47:58Z</time>
      </trkpt>
      <trkpt lat="42.9005710" lon="-2.5428900">
        <ele>540.2</ele>
        <time>2020-09-13T14:48:02Z</time>
      </trkpt>
      <trkpt lat="42.9005710" lon="-2.5428900">
        <ele>540.4</ele>
        <time>2020-09-13T14:48:06Z</time>
      </trkpt>
      <trkpt lat="42.9005710" lon="-2.5428900">
        <ele>540.2</ele>
        <time>2020-09-13T14:48:10Z</time>
      </trkpt>
      <trkpt lat="42.9005710" lon="-2.5428900">
        <ele>540.4</ele>
        <time>2020-09-13T14:48:14Z</time>
      </trkpt>
      <trkpt lat="42.9005710" lon="-2.5428900">
        <ele>540.2</ele>
        <time>2020-09-13T14:48:18Z</time>
      </trkpt>
      <trkpt lat="42.9005710" lon="-2.5428900">
        <ele>540.2</ele>
        <time>2020-09-13T14:48:22Z</time>
      </trkpt>
      <trkpt lat="42.9005710" lon="-2.5428900">
        <ele>540.2</ele>
        <time>2020-09-13T14:48:26Z</time>
      </trkpt>
      <trkpt lat="42.9005710" lon="-2.5428900">
        <ele>540.6</ele>
        <time>2020-09-13T14:48:30Z</time>
      </trkpt>
      <trkpt lat="42.9005710" lon="-2.5428900">
        <ele>540.2</ele>
        <time>2020-09-13T14:48:34Z</time>
      </trkpt>
      <trkpt lat="42.9005710" lon="-2.5428900">
        <ele>540.2</ele>
        <time>2020-09-13T14:48:38Z</time>
      </trkpt>
      <trkpt lat="42.9005710" lon="-2.5428900">
        <ele>540.0</ele>
        <time>2020-09-13T14:48:42Z</time>
      </trkpt>
      <trkpt lat="42.9005710" lon="-2.5428900">
        <ele>540.4</ele>
        <time>2020-09-13T14:48:46Z</time>
      </trkpt>
      <trkpt lat="42.9005710" lon="-2.5428900">
        <ele>540.2</ele>
        <time>2020-09-13T14:48:50Z</time>
      </trkpt>
      <trkpt lat="42.9005710" lon="-2.5428900">
        <ele>540.2</ele>
        <time>2020-09-13T14:48:54Z</time>
      </trkpt>
      <trkpt lat="42.9005710" lon="-2.5428900">
        <ele>540.6</ele>
        <time>2020-09-13T14:48:58Z</time>
      </trkpt>
      <trkpt lat="42.9005710" lon="-2.5428900">
        <ele>540.8</ele>
        <time>2020-09-13T14:49:02Z</time>
      </trkpt>
      <trkpt lat="42.9005710" lon="-2.5428900">
        <ele>540.6</ele>
        <time>2020-09-13T14:49:06Z</time>
      </trkpt>
      <trkpt lat="42.9005710" lon="-2.5428900">
        <ele>540.0</ele>
        <time>2020-09-13T14:49:10Z</time>
      </trkpt>
      <trkpt lat="42.9005710" lon="-2.5428900">
        <ele>540.4</ele>
        <time>2020-09-13T14:49:14Z</time>
      </trkpt>
      <trkpt lat="42.9005710" lon="-2.5428900">
        <ele>540.6</ele>
        <time>2020-09-13T14:49:18Z</time>
      </trkpt>
      <trkpt lat="42.9005710" lon="-2.5428900">
        <ele>540.2</ele>
        <time>2020-09-13T14:49:22Z</time>
      </trkpt>
      <trkpt lat="42.9005710" lon="-2.5428900">
        <ele>540.2</ele>
        <time>2020-09-13T14:49:26Z</time>
      </trkpt>
      <trkpt lat="42.9005710" lon="-2.5428900">
        <ele>540.6</ele>
        <time>2020-09-13T14:49:30Z</time>
      </trkpt>
      <trkpt lat="42.9005710" lon="-2.5428900">
        <ele>540.6</ele>
        <time>2020-09-13T14:49:34Z</time>
      </trkpt>
      <trkpt lat="42.9005710" lon="-2.5428900">
        <ele>540.4</ele>
        <time>2020-09-13T14:49:38Z</time>
      </trkpt>
      <trkpt lat="42.9005710" lon="-2.5428900">
        <ele>540.4</ele>
        <time>2020-09-13T14:49:42Z</time>
      </trkpt>
      <trkpt lat="42.9005710" lon="-2.5428900">
        <ele>540.4</ele>
        <time>2020-09-13T14:49:46Z</time>
      </trkpt>
      <trkpt lat="42.9005710" lon="-2.5428900">
        <ele>540.4</ele>
        <time>2020-09-13T14:49:50Z</time>
      </trkpt>
      <trkpt lat="42.9005710" lon="-2.5428900">
        <ele>540.2</ele>
        <time>2020-09-13T14:49:54Z</time>
      </trkpt>
      <trkpt lat="42.9005710" lon="-2.5428900">
        <ele>540.8</ele>
        <time>2020-09-13T14:49:58Z</time>
      </trkpt>
      <trkpt lat="42.9005710" lon="-2.5428900">
        <ele>540.6</ele>
        <time>2020-09-13T14:50:02Z</time>
      </trkpt>
      <trkpt lat="42.9005710" lon="-2.5428900">
        <ele>540.6</ele>
        <time>2020-09-13T14:50:06Z</time>
      </trkpt>
      <trkpt lat="42.9005710" lon="-2.5428900">
        <ele>540.6</ele>
        <time>2020-09-13T14:50:10Z</time>
      </trkpt>
      <trkpt lat="42.9005710" lon="-2.5428900">
        <ele>540.4</ele>
        <time>2020-09-13T14:50:14Z</time>
      </trkpt>
      <trkpt lat="42.9005710" lon="-2.5428900">
        <ele>540.2</ele>
        <time>2020-09-13T14:50:18Z</time>
      </trkpt>
      <trkpt lat="42.9005710" lon="-2.5428900">
        <ele>540.6</ele>
        <time>2020-09-13T14:50:22Z</time>
      </trkpt>
      <trkpt lat="42.9005710" lon="-2.5428900">
        <ele>540.4</ele>
        <time>2020-09-13T14:50:26Z</time>
      </trkpt>
      <trkpt lat="42.9005710" lon="-2.5428900">
        <ele>540.8</ele>
        <time>2020-09-13T14:50:30Z</time>
      </trkpt>
      <trkpt lat="42.9005710" lon="-2.5428900">
        <ele>540.8</ele>
        <time>2020-09-13T14:50:34Z</time>
      </trkpt>
      <trkpt lat="42.9005710" lon="-2.5428900">
        <ele>540.6</ele>
        <time>2020-09-13T14:50:38Z</time>
      </trkpt>
      <trkpt lat="42.9005710" lon="-2.5428900">
        <ele>540.4</ele>
        <time>2020-09-13T14:50:42Z</time>
      </trkpt>
      <trkpt lat="42.9005710" lon="-2.5428900">
        <ele>540.4</ele>
        <time>2020-09-13T14:50:46Z</time>
      </trkpt>
      <trkpt lat="42.9005710" lon="-2.5428900">
        <ele>540.6</ele>
        <time>2020-09-13T14:50:50Z</time>
      </trkpt>
      <trkpt lat="42.9005710" lon="-2.5428900">
        <ele>540.4</ele>
        <time>2020-09-13T14:50:54Z</time>
      </trkpt>
      <trkpt lat="42.9005710" lon="-2.5428900">
        <ele>540.6</ele>
        <time>2020-09-13T14:50:58Z</time>
      </trkpt>
      <trkpt lat="42.9005710" lon="-2.5428900">
        <ele>540.6</ele>
        <time>2020-09-13T14:51:02Z</time>
      </trkpt>
      <trkpt lat="42.9005710" lon="-2.5428900">
        <ele>540.4</ele>
        <time>2020-09-13T14:51:06Z</time>
      </trkpt>
      <trkpt lat="42.9005710" lon="-2.5428900">
        <ele>540.6</ele>
        <time>2020-09-13T14:51:10Z</time>
      </trkpt>
      <trkpt lat="42.9005710" lon="-2.5428900">
        <ele>540.4</ele>
        <time>2020-09-13T14:51:14Z</time>
      </trkpt>
      <trkpt lat="42.9005710" lon="-2.5428900">
        <ele>540.4</ele>
        <time>2020-09-13T14:51:18Z</time>
      </trkpt>
      <trkpt lat="42.9005710" lon="-2.5428900">
        <ele>540.8</ele>
        <time>2020-09-13T14:51:22Z</time>
      </trkpt>
      <trkpt lat="42.9005710" lon="-2.5428900">
        <ele>540.6</ele>
        <time>2020-09-13T14:51:26Z</time>
      </trkpt>
      <trkpt lat="42.9005710" lon="-2.5428900">
        <ele>540.6</ele>
        <time>2020-09-13T14:51:30Z</time>
      </trkpt>
      <trkpt lat="42.9005710" lon="-2.5428900">
        <ele>540.4</ele>
        <time>2020-09-13T14:51:34Z</time>
      </trkpt>
      <trkpt lat="42.9005710" lon="-2.5428900">
        <ele>540.6</ele>
        <time>2020-09-13T14:51:38Z</time>
      </trkpt>
      <trkpt lat="42.9005710" lon="-2.5428900">
        <ele>540.6</ele>
        <time>2020-09-13T14:51:42Z</time>
      </trkpt>
      <trkpt lat="42.9005710" lon="-2.5428900">
        <ele>540.4</ele>
        <time>2020-09-13T14:51:46Z</time>
      </trkpt>
      <trkpt lat="42.9005710" lon="-2.5428900">
        <ele>540.4</ele>
        <time>2020-09-13T14:51:50Z</time>
      </trkpt>
      <trkpt lat="42.9005710" lon="-2.5428900">
        <ele>540.2</ele>
        <time>2020-09-13T14:51:54Z</time>
      </trkpt>
      <trkpt lat="42.9005710" lon="-2.5428900">
        <ele>540.6</ele>
        <time>2020-09-13T14:51:58Z</time>
      </trkpt>
      <trkpt lat="42.9005710" lon="-2.5428900">
        <ele>540.6</ele>
        <time>2020-09-13T14:52:02Z</time>
      </trkpt>
      <trkpt lat="42.9005710" lon="-2.5428900">
        <ele>540.2</ele>
        <time>2020-09-13T14:52:06Z</time>
      </trkpt>
      <trkpt lat="42.9005710" lon="-2.5428900">
        <ele>540.2</ele>
        <time>2020-09-13T14:52:10Z</time>
      </trkpt>
      <trkpt lat="42.9005710" lon="-2.5428900">
        <ele>540.2</ele>
        <time>2020-09-13T14:52:14Z</time>
      </trkpt>
      <trkpt lat="42.9005710" lon="-2.5428900">
        <ele>540.6</ele>
        <time>2020-09-13T14:52:18Z</time>
      </trkpt>
      <trkpt lat="42.9005710" lon="-2.5428900">
        <ele>540.2</ele>
        <time>2020-09-13T14:52:22Z</time>
      </trkpt>
      <trkpt lat="42.9005710" lon="-2.5428900">
        <ele>540.2</ele>
        <time>2020-09-13T14:52:26Z</time>
      </trkpt>
      <trkpt lat="42.9005710" lon="-2.5428900">
        <ele>540.4</ele>
        <time>2020-09-13T14:52:30Z</time>
      </trkpt>
      <trkpt lat="42.9005710" lon="-2.5428900">
        <ele>540.6</ele>
        <time>2020-09-13T14:52:34Z</time>
      </trkpt>
      <trkpt lat="42.9005710" lon="-2.5428900">
        <ele>540.4</ele>
        <time>2020-09-13T14:52:38Z</time>
      </trkpt>
      <trkpt lat="42.9005710" lon="-2.5428900">
        <ele>540.2</ele>
        <time>2020-09-13T14:52:42Z</time>
      </trkpt>
      <trkpt lat="42.9005710" lon="-2.5428900">
        <ele>540.2</ele>
        <time>2020-09-13T14:52:46Z</time>
      </trkpt>
      <trkpt lat="42.9005710" lon="-2.5428900">
        <ele>540.4</ele>
        <time>2020-09-13T14:52:50Z</time>
      </trkpt>
      <trkpt lat="42.9005710" lon="-2.5428900">
        <ele>540.6</ele>
        <time>2020-09-13T14:52:54Z</time>
      </trkpt>
      <trkpt lat="42.9005710" lon="-2.5428900">
        <ele>540.6</ele>
        <time>2020-09-13T14:52:58Z</time>
      </trkpt>
      <trkpt lat="42.9005710" lon="-2.5428900">
        <ele>540.6</ele>
        <time>2020-09-13T14:53:02Z</time>
      </trkpt>
      <trkpt lat="42.9005710" lon="-2.5428900">
        <ele>540.2</ele>
        <time>2020-09-13T14:53:06Z</time>
      </trkpt>
      <trkpt lat="42.9005710" lon="-2.5428900">
        <ele>540.2</ele>
        <time>2020-09-13T14:53:10Z</time>
      </trkpt>
      <trkpt lat="42.9005710" lon="-2.5428900">
        <ele>540.4</ele>
        <time>2020-09-13T14:53:14Z</time>
      </trkpt>
      <trkpt lat="42.9005710" lon="-2.5428900">
        <ele>540.4</ele>
        <time>2020-09-13T14:53:18Z</time>
      </trkpt>
      <trkpt lat="42.9005710" lon="-2.5428900">
        <ele>540.2</ele>
        <time>2020-09-13T14:53:22Z</time>
      </trkpt>
      <trkpt lat="42.9005710" lon="-2.5428900">
        <ele>540.2</ele>
        <time>2020-09-13T14:53:26Z</time>
      </trkpt>
      <trkpt lat="42.9005710" lon="-2.5428900">
        <ele>540.2</ele>
        <time>2020-09-13T14:53:30Z</time>
      </trkpt>
      <trkpt lat="42.9005710" lon="-2.5428900">
        <ele>540.2</ele>
        <time>2020-09-13T14:53:34Z</time>
      </trkpt>
      <trkpt lat="42.9005710" lon="-2.5428900">
        <ele>540.4</ele>
        <time>2020-09-13T14:53:38Z</time>
      </trkpt>
      <trkpt lat="42.9005710" lon="-2.5428900">
        <ele>540.2</ele>
        <time>2020-09-13T14:53:42Z</time>
      </trkpt>
      <trkpt lat="42.9005710" lon="-2.5428900">
        <ele>540.2</ele>
        <time>2020-09-13T14:53:46Z</time>
      </trkpt>
      <trkpt lat="42.9005710" lon="-2.5428900">
        <ele>540.2</ele>
        <time>2020-09-13T14:53:50Z</time>
      </trkpt>
      <trkpt lat="42.9005710" lon="-2.5428900">
        <ele>540.4</ele>
        <time>2020-09-13T14:53:54Z</time>
      </trkpt>
      <trkpt lat="42.9005710" lon="-2.5428900">
        <ele>540.0</ele>
        <time>2020-09-13T14:53:58Z</time>
      </trkpt>
      <trkpt lat="42.9005710" lon="-2.5428900">
        <ele>540.2</ele>
        <time>2020-09-13T14:54:02Z</time>
      </trkpt>
      <trkpt lat="42.9005710" lon="-2.5428900">
        <ele>540.4</ele>
        <time>2020-09-13T14:54:06Z</time>
      </trkpt>
      <trkpt lat="42.9005710" lon="-2.5428900">
        <ele>540.0</ele>
        <time>2020-09-13T14:54:10Z</time>
      </trkpt>
      <trkpt lat="42.9005710" lon="-2.5428900">
        <ele>540.2</ele>
        <time>2020-09-13T14:54:14Z</time>
      </trkpt>
      <trkpt lat="42.9005710" lon="-2.5428900">
        <ele>541.0</ele>
        <time>2020-09-13T14:54:18Z</time>
      </trkpt>
      <trkpt lat="42.9005710" lon="-2.5428900">
        <ele>540.6</ele>
        <time>2020-09-13T14:54:22Z</time>
      </trkpt>
      <trkpt lat="42.9005710" lon="-2.5428900">
        <ele>540.6</ele>
        <time>2020-09-13T14:54:26Z</time>
      </trkpt>
      <trkpt lat="42.9005710" lon="-2.5428900">
        <ele>540.4</ele>
        <time>2020-09-13T14:54:30Z</time>
      </trkpt>
      <trkpt lat="42.9005710" lon="-2.5428900">
        <ele>540.4</ele>
        <time>2020-09-13T14:54:34Z</time>
      </trkpt>
      <trkpt lat="42.9005710" lon="-2.5428900">
        <ele>540.6</ele>
        <time>2020-09-13T14:54:38Z</time>
      </trkpt>
      <trkpt lat="42.9005710" lon="-2.5428900">
        <ele>540.8</ele>
        <time>2020-09-13T14:54:42Z</time>
      </trkpt>
      <trkpt lat="42.9005710" lon="-2.5428900">
        <ele>540.4</ele>
        <time>2020-09-13T14:54:46Z</time>
      </trkpt>
      <trkpt lat="42.9005710" lon="-2.5428900">
        <ele>540.6</ele>
        <time>2020-09-13T14:54:50Z</time>
      </trkpt>
      <trkpt lat="42.9005710" lon="-2.5428900">
        <ele>540.6</ele>
        <time>2020-09-13T14:54:54Z</time>
      </trkpt>
      <trkpt lat="42.9005710" lon="-2.5428900">
        <ele>540.4</ele>
        <time>2020-09-13T14:54:58Z</time>
      </trkpt>
      <trkpt lat="42.9005710" lon="-2.5428900">
        <ele>540.4</ele>
        <time>2020-09-13T14:55:02Z</time>
      </trkpt>
      <trkpt lat="42.9005710" lon="-2.5428900">
        <ele>540.6</ele>
        <time>2020-09-13T14:55:06Z</time>
      </trkpt>
      <trkpt lat="42.9005710" lon="-2.5428900">
        <ele>540.4</ele>
        <time>2020-09-13T14:55:10Z</time>
      </trkpt>
      <trkpt lat="42.9005710" lon="-2.5428900">
        <ele>540.8</ele>
        <time>2020-09-13T14:55:14Z</time>
      </trkpt>
      <trkpt lat="42.9005710" lon="-2.5428900">
        <ele>540.4</ele>
        <time>2020-09-13T14:55:18Z</time>
      </trkpt>
      <trkpt lat="42.9005710" lon="-2.5428900">
        <ele>540.4</ele>
        <time>2020-09-13T14:55:22Z</time>
      </trkpt>
      <trkpt lat="42.9005710" lon="-2.5428900">
        <ele>540.6</ele>
        <time>2020-09-13T14:55:26Z</time>
      </trkpt>
      <trkpt lat="42.9005710" lon="-2.5428900">
        <ele>540.0</ele>
        <time>2020-09-13T14:55:30Z</time>
      </trkpt>
      <trkpt lat="42.9005710" lon="-2.5428900">
        <ele>540.8</ele>
        <time>2020-09-13T14:55:34Z</time>
      </trkpt>
      <trkpt lat="42.9005710" lon="-2.5428900">
        <ele>540.6</ele>
        <time>2020-09-13T14:55:38Z</time>
      </trkpt>
      <trkpt lat="42.9005710" lon="-2.5428900">
        <ele>540.6</ele>
        <time>2020-09-13T14:55:42Z</time>
      </trkpt>
      <trkpt lat="42.9005710" lon="-2.5428900">
        <ele>540.6</ele>
        <time>2020-09-13T14:55:46Z</time>
      </trkpt>
      <trkpt lat="42.9005710" lon="-2.5428900">
        <ele>540.8</ele>
        <time>2020-09-13T14:55:50Z</time>
      </trkpt>
      <trkpt lat="42.9005710" lon="-2.5428900">
        <ele>541.2</ele>
        <time>2020-09-13T14:55:54Z</time>
      </trkpt>
      <trkpt lat="42.9005710" lon="-2.5428900">
        <ele>540.4</ele>
        <time>2020-09-13T14:55:58Z</time>
      </trkpt>
      <trkpt lat="42.9005710" lon="-2.5428900">
        <ele>540.6</ele>
        <time>2020-09-13T14:56:02Z</time>
      </trkpt>
      <trkpt lat="42.9005710" lon="-2.5428900">
        <ele>540.4</ele>
        <time>2020-09-13T14:56:06Z</time>
      </trkpt>
      <trkpt lat="42.9005710" lon="-2.5428900">
        <ele>540.6</ele>
        <time>2020-09-13T14:56:10Z</time>
      </trkpt>
      <trkpt lat="42.9005710" lon="-2.5428900">
        <ele>540.2</ele>
        <time>2020-09-13T14:56:14Z</time>
      </trkpt>
      <trkpt lat="42.9005710" lon="-2.5428900">
        <ele>540.0</ele>
        <time>2020-09-13T14:56:18Z</time>
      </trkpt>
      <trkpt lat="42.9005710" lon="-2.5428900">
        <ele>540.4</ele>
        <time>2020-09-13T14:56:22Z</time>
      </trkpt>
      <trkpt lat="42.9005710" lon="-2.5428900">
        <ele>540.6</ele>
        <time>2020-09-13T14:56:26Z</time>
      </trkpt>
      <trkpt lat="42.9005710" lon="-2.5428900">
        <ele>540.6</ele>
        <time>2020-09-13T14:56:30Z</time>
      </trkpt>
      <trkpt lat="42.9005710" lon="-2.5428900">
        <ele>540.2</ele>
        <time>2020-09-13T14:56:34Z</time>
      </trkpt>
      <trkpt lat="42.9005710" lon="-2.5428900">
        <ele>540.2</ele>
        <time>2020-09-13T14:56:38Z</time>
      </trkpt>
      <trkpt lat="42.9005710" lon="-2.5428900">
        <ele>541.0</ele>
        <time>2020-09-13T14:56:42Z</time>
      </trkpt>
      <trkpt lat="42.9005710" lon="-2.5428900">
        <ele>540.8</ele>
        <time>2020-09-13T14:56:46Z</time>
      </trkpt>
      <trkpt lat="42.9005710" lon="-2.5428900">
        <ele>540.6</ele>
        <time>2020-09-13T14:56:50Z</time>
      </trkpt>
      <trkpt lat="42.9005710" lon="-2.5428900">
        <ele>540.8</ele>
        <time>2020-09-13T14:56:54Z</time>
      </trkpt>
      <trkpt lat="42.9005710" lon="-2.5428900">
        <ele>541.0</ele>
        <time>2020-09-13T14:56:58Z</time>
      </trkpt>
      <trkpt lat="42.9005710" lon="-2.5428900">
        <ele>540.6</ele>
        <time>2020-09-13T14:57:02Z</time>
      </trkpt>
      <trkpt lat="42.9005710" lon="-2.5428900">
        <ele>540.4</ele>
        <time>2020-09-13T14:57:06Z</time>
      </trkpt>
      <trkpt lat="42.9005710" lon="-2.5428900">
        <ele>540.4</ele>
        <time>2020-09-13T14:57:10Z</time>
      </trkpt>
      <trkpt lat="42.9005710" lon="-2.5428900">
        <ele>540.6</ele>
        <time>2020-09-13T14:57:14Z</time>
      </trkpt>
      <trkpt lat="42.9005710" lon="-2.5428900">
        <ele>540.2</ele>
        <time>2020-09-13T14:57:18Z</time>
      </trkpt>
      <trkpt lat="42.9005710" lon="-2.5428900">
        <ele>540.2</ele>
        <time>2020-09-13T14:57:22Z</time>
      </trkpt>
      <trkpt lat="42.9005710" lon="-2.5428900">
        <ele>540.6</ele>
        <time>2020-09-13T14:57:26Z</time>
      </trkpt>
      <trkpt lat="42.9005710" lon="-2.5428900">
        <ele>540.6</ele>
        <time>2020-09-13T14:57:30Z</time>
      </trkpt>
      <trkpt lat="42.9005710" lon="-2.5428900">
        <ele>540.2</ele>
        <time>2020-09-13T14:57:34Z</time>
      </trkpt>
      <trkpt lat="42.9005710" lon="-2.5428900">
        <ele>540.4</ele>
        <time>2020-09-13T14:57:38Z</time>
      </trkpt>
      <trkpt lat="42.9005710" lon="-2.5428900">
        <ele>540.2</ele>
        <time>2020-09-13T14:57:42Z</time>
      </trkpt>
      <trkpt lat="42.9005710" lon="-2.5428900">
        <ele>540.4</ele>
        <time>2020-09-13T14:57:46Z</time>
      </trkpt>
      <trkpt lat="42.9005710" lon="-2.5428900">
        <ele>540.2</ele>
        <time>2020-09-13T14:57:50Z</time>
      </trkpt>
      <trkpt lat="42.9005710" lon="-2.5428900">
        <ele>540.4</ele>
        <time>2020-09-13T14:57:54Z</time>
      </trkpt>
      <trkpt lat="42.9005710" lon="-2.5428900">
        <ele>540.4</ele>
        <time>2020-09-13T14:57:58Z</time>
      </trkpt>
      <trkpt lat="42.9005710" lon="-2.5428900">
        <ele>540.6</ele>
        <time>2020-09-13T14:58:02Z</time>
      </trkpt>
      <trkpt lat="42.9005710" lon="-2.5428900">
        <ele>540.4</ele>
        <time>2020-09-13T14:58:06Z</time>
      </trkpt>
      <trkpt lat="42.9005710" lon="-2.5428900">
        <ele>540.4</ele>
        <time>2020-09-13T14:58:10Z</time>
      </trkpt>
      <trkpt lat="42.9005710" lon="-2.5428900">
        <ele>540.2</ele>
        <time>2020-09-13T14:58:14Z</time>
      </trkpt>
      <trkpt lat="42.9005710" lon="-2.5428900">
        <ele>540.6</ele>
        <time>2020-09-13T14:58:18Z</time>
      </trkpt>
      <trkpt lat="42.9005710" lon="-2.5428900">
        <ele>540.8</ele>
        <time>2020-09-13T14:58:22Z</time>
      </trkpt>
      <trkpt lat="42.9005710" lon="-2.5428900">
        <ele>540.8</ele>
        <time>2020-09-13T14:58:26Z</time>
      </trkpt>
      <trkpt lat="42.9005710" lon="-2.5428900">
        <ele>540.6</ele>
        <time>2020-09-13T14:58:30Z</time>
      </trkpt>
      <trkpt lat="42.9005710" lon="-2.5428900">
        <ele>540.6</ele>
        <time>2020-09-13T14:58:34Z</time>
      </trkpt>
      <trkpt lat="42.9005710" lon="-2.5428900">
        <ele>540.6</ele>
        <time>2020-09-13T14:58:38Z</time>
      </trkpt>
      <trkpt lat="42.9005710" lon="-2.5428900">
        <ele>540.6</ele>
        <time>2020-09-13T14:58:42Z</time>
      </trkpt>
      <trkpt lat="42.9005710" lon="-2.5428900">
        <ele>540.6</ele>
        <time>2020-09-13T14:58:46Z</time>
      </trkpt>
      <trkpt lat="42.9005710" lon="-2.5428900">
        <ele>540.4</ele>
        <time>2020-09-13T14:58:50Z</time>
      </trkpt>
      <trkpt lat="42.9005710" lon="-2.5428900">
        <ele>540.4</ele>
        <time>2020-09-13T14:58:54Z</time>
      </trkpt>
      <trkpt lat="42.9005710" lon="-2.5428900">
        <ele>540.4</ele>
        <time>2020-09-13T14:58:58Z</time>
      </trkpt>
      <trkpt lat="42.9005710" lon="-2.5428900">
        <ele>540.2</ele>
        <time>2020-09-13T14:59:02Z</time>
      </trkpt>
      <trkpt lat="42.9005710" lon="-2.5428900">
        <ele>540.8</ele>
        <time>2020-09-13T14:59:06Z</time>
      </trkpt>
      <trkpt lat="42.9005710" lon="-2.5428900">
        <ele>540.6</ele>
        <time>2020-09-13T14:59:10Z</time>
      </trkpt>
      <trkpt lat="42.9005710" lon="-2.5428900">
        <ele>540.6</ele>
        <time>2020-09-13T14:59:14Z</time>
      </trkpt>
      <trkpt lat="42.9005710" lon="-2.5428900">
        <ele>540.8</ele>
        <time>2020-09-13T14:59:18Z</time>
      </trkpt>
      <trkpt lat="42.9005710" lon="-2.5428900">
        <ele>540.8</ele>
        <time>2020-09-13T14:59:22Z</time>
      </trkpt>
      <trkpt lat="42.9005710" lon="-2.5428900">
        <ele>540.6</ele>
        <time>2020-09-13T14:59:26Z</time>
      </trkpt>
      <trkpt lat="42.9005710" lon="-2.5428900">
        <ele>540.6</ele>
        <time>2020-09-13T14:59:30Z</time>
      </trkpt>
      <trkpt lat="42.9005710" lon="-2.5428900">
        <ele>540.8</ele>
        <time>2020-09-13T14:59:34Z</time>
      </trkpt>
      <trkpt lat="42.9005710" lon="-2.5428900">
        <ele>540.8</ele>
        <time>2020-09-13T14:59:38Z</time>
      </trkpt>
      <trkpt lat="42.9005710" lon="-2.5428900">
        <ele>540.8</ele>
        <time>2020-09-13T14:59:42Z</time>
      </trkpt>
      <trkpt lat="42.9005710" lon="-2.5428900">
        <ele>540.6</ele>
        <time>2020-09-13T14:59:46Z</time>
      </trkpt>
      <trkpt lat="42.9005710" lon="-2.5428900">
        <ele>540.8</ele>
        <time>2020-09-13T14:59:50Z</time>
      </trkpt>
      <trkpt lat="42.9005710" lon="-2.5428900">
        <ele>540.8</ele>
        <time>2020-09-13T14:59:54Z</time>
      </trkpt>
      <trkpt lat="42.9005710" lon="-2.5428900">
        <ele>540.8</ele>
        <time>2020-09-13T14:59:58Z</time>
      </trkpt>
      <trkpt lat="42.9005710" lon="-2.5428900">
        <ele>540.6</ele>
        <time>2020-09-13T15:00:02Z</time>
      </trkpt>
      <trkpt lat="42.9005710" lon="-2.5428900">
        <ele>540.6</ele>
        <time>2020-09-13T15:00:06Z</time>
      </trkpt>
      <trkpt lat="42.9005710" lon="-2.5428900">
        <ele>540.6</ele>
        <time>2020-09-13T15:00:10Z</time>
      </trkpt>
      <trkpt lat="42.9005710" lon="-2.5428900">
        <ele>540.8</ele>
        <time>2020-09-13T15:00:14Z</time>
      </trkpt>
      <trkpt lat="42.9005710" lon="-2.5428900">
        <ele>540.6</ele>
        <time>2020-09-13T15:00:18Z</time>
      </trkpt>
      <trkpt lat="42.9005710" lon="-2.5428900">
        <ele>540.6</ele>
        <time>2020-09-13T15:00:22Z</time>
      </trkpt>
      <trkpt lat="42.9005710" lon="-2.5428900">
        <ele>540.6</ele>
        <time>2020-09-13T15:00:26Z</time>
      </trkpt>
      <trkpt lat="42.9005710" lon="-2.5428900">
        <ele>540.8</ele>
        <time>2020-09-13T15:00:30Z</time>
      </trkpt>
      <trkpt lat="42.9005710" lon="-2.5428900">
        <ele>540.6</ele>
        <time>2020-09-13T15:00:34Z</time>
      </trkpt>
      <trkpt lat="42.9005710" lon="-2.5428900">
        <ele>540.8</ele>
        <time>2020-09-13T15:00:38Z</time>
      </trkpt>
      <trkpt lat="42.9005710" lon="-2.5428900">
        <ele>541.0</ele>
        <time>2020-09-13T15:00:42Z</time>
      </trkpt>
      <trkpt lat="42.9005710" lon="-2.5428900">
        <ele>540.8</ele>
        <time>2020-09-13T15:00:46Z</time>
      </trkpt>
      <trkpt lat="42.9005710" lon="-2.5428900">
        <ele>540.8</ele>
        <time>2020-09-13T15:00:50Z</time>
      </trkpt>
      <trkpt lat="42.9005710" lon="-2.5428900">
        <ele>541.0</ele>
        <time>2020-09-13T15:00:54Z</time>
      </trkpt>
      <trkpt lat="42.9005710" lon="-2.5428900">
        <ele>540.8</ele>
        <time>2020-09-13T15:00:58Z</time>
      </trkpt>
      <trkpt lat="42.9005710" lon="-2.5428900">
        <ele>541.0</ele>
        <time>2020-09-13T15:01:02Z</time>
      </trkpt>
      <trkpt lat="42.9005710" lon="-2.5428900">
        <ele>540.6</ele>
        <time>2020-09-13T15:01:06Z</time>
      </trkpt>
      <trkpt lat="42.9005710" lon="-2.5428900">
        <ele>541.4</ele>
        <time>2020-09-13T15:01:10Z</time>
      </trkpt>
      <trkpt lat="42.9005710" lon="-2.5428900">
        <ele>541.4</ele>
        <time>2020-09-13T15:01:14Z</time>
      </trkpt>
      <trkpt lat="42.9005710" lon="-2.5428900">
        <ele>541.0</ele>
        <time>2020-09-13T15:01:18Z</time>
      </trkpt>
      <trkpt lat="42.9005710" lon="-2.5428900">
        <ele>540.8</ele>
        <time>2020-09-13T15:01:22Z</time>
      </trkpt>
      <trkpt lat="42.9005710" lon="-2.5428900">
        <ele>541.0</ele>
        <time>2020-09-13T15:01:26Z</time>
      </trkpt>
      <trkpt lat="42.9005710" lon="-2.5428900">
        <ele>541.0</ele>
        <time>2020-09-13T15:01:30Z</time>
      </trkpt>
      <trkpt lat="42.9005710" lon="-2.5428900">
        <ele>541.0</ele>
        <time>2020-09-13T15:01:34Z</time>
      </trkpt>
      <trkpt lat="42.9005710" lon="-2.5428900">
        <ele>541.0</ele>
        <time>2020-09-13T15:01:38Z</time>
      </trkpt>
      <trkpt lat="42.9005710" lon="-2.5428900">
        <ele>541.4</ele>
        <time>2020-09-13T15:01:42Z</time>
      </trkpt>
      <trkpt lat="42.9005710" lon="-2.5428900">
        <ele>541.2</ele>
        <time>2020-09-13T15:01:46Z</time>
      </trkpt>
      <trkpt lat="42.9005710" lon="-2.5428900">
        <ele>541.0</ele>
        <time>2020-09-13T15:01:50Z</time>
      </trkpt>
      <trkpt lat="42.9005710" lon="-2.5428900">
        <ele>541.0</ele>
        <time>2020-09-13T15:01:54Z</time>
      </trkpt>
      <trkpt lat="42.9005710" lon="-2.5428900">
        <ele>541.2</ele>
        <time>2020-09-13T15:01:58Z</time>
      </trkpt>
      <trkpt lat="42.9005710" lon="-2.5428900">
        <ele>540.8</ele>
        <time>2020-09-13T15:02:02Z</time>
      </trkpt>
      <trkpt lat="42.9005710" lon="-2.5428900">
        <ele>541.0</ele>
        <time>2020-09-13T15:02:06Z</time>
      </trkpt>
      <trkpt lat="42.9005710" lon="-2.5428900">
        <ele>540.8</ele>
        <time>2020-09-13T15:02:10Z</time>
      </trkpt>
      <trkpt lat="42.9005710" lon="-2.5428900">
        <ele>541.4</ele>
        <time>2020-09-13T15:02:14Z</time>
      </trkpt>
      <trkpt lat="42.9005710" lon="-2.5428900">
        <ele>540.6</ele>
        <time>2020-09-13T15:02:18Z</time>
      </trkpt>
      <trkpt lat="42.9005710" lon="-2.5428900">
        <ele>540.6</ele>
        <time>2020-09-13T15:02:22Z</time>
      </trkpt>
      <trkpt lat="42.9005710" lon="-2.5428900">
        <ele>540.6</ele>
        <time>2020-09-13T15:02:26Z</time>
      </trkpt>
      <trkpt lat="42.9005710" lon="-2.5428900">
        <ele>540.6</ele>
        <time>2020-09-13T15:02:30Z</time>
      </trkpt>
      <trkpt lat="42.9005710" lon="-2.5428900">
        <ele>541.0</ele>
        <time>2020-09-13T15:02:34Z</time>
      </trkpt>
      <trkpt lat="42.9005710" lon="-2.5428900">
        <ele>540.6</ele>
        <time>2020-09-13T15:02:38Z</time>
      </trkpt>
      <trkpt lat="42.9005710" lon="-2.5428900">
        <ele>540.6</ele>
        <time>2020-09-13T15:02:42Z</time>
      </trkpt>
      <trkpt lat="42.9005710" lon="-2.5428900">
        <ele>540.8</ele>
        <time>2020-09-13T15:02:46Z</time>
      </trkpt>
      <trkpt lat="42.9005710" lon="-2.5428900">
        <ele>540.6</ele>
        <time>2020-09-13T15:02:50Z</time>
      </trkpt>
      <trkpt lat="42.9005710" lon="-2.5428900">
        <ele>540.6</ele>
        <time>2020-09-13T15:02:54Z</time>
      </trkpt>
      <trkpt lat="42.9005710" lon="-2.5428900">
        <ele>541.0</ele>
        <time>2020-09-13T15:02:58Z</time>
      </trkpt>
      <trkpt lat="42.9005710" lon="-2.5428900">
        <ele>540.8</ele>
        <time>2020-09-13T15:03:02Z</time>
      </trkpt>
      <trkpt lat="42.9005710" lon="-2.5428900">
        <ele>541.0</ele>
        <time>2020-09-13T15:03:06Z</time>
      </trkpt>
      <trkpt lat="42.9005710" lon="-2.5428900">
        <ele>541.2</ele>
        <time>2020-09-13T15:03:10Z</time>
      </trkpt>
      <trkpt lat="42.9005710" lon="-2.5428900">
        <ele>541.0</ele>
        <time>2020-09-13T15:03:14Z</time>
      </trkpt>
      <trkpt lat="42.9005710" lon="-2.5428900">
        <ele>540.8</ele>
        <time>2020-09-13T15:03:18Z</time>
      </trkpt>
      <trkpt lat="42.9005710" lon="-2.5428900">
        <ele>541.6</ele>
        <time>2020-09-13T15:03:22Z</time>
      </trkpt>
      <trkpt lat="42.9005710" lon="-2.5428900">
        <ele>540.8</ele>
        <time>2020-09-13T15:03:26Z</time>
      </trkpt>
      <trkpt lat="42.9005710" lon="-2.5428900">
        <ele>540.8</ele>
        <time>2020-09-13T15:03:30Z</time>
      </trkpt>
      <trkpt lat="42.9005710" lon="-2.5428900">
        <ele>540.6</ele>
        <time>2020-09-13T15:03:34Z</time>
      </trkpt>
      <trkpt lat="42.9005710" lon="-2.5428900">
        <ele>540.8</ele>
        <time>2020-09-13T15:03:38Z</time>
      </trkpt>
      <trkpt lat="42.9005710" lon="-2.5428900">
        <ele>540.8</ele>
        <time>2020-09-13T15:03:42Z</time>
      </trkpt>
      <trkpt lat="42.9005710" lon="-2.5428900">
        <ele>540.6</ele>
        <time>2020-09-13T15:03:46Z</time>
      </trkpt>
      <trkpt lat="42.9005710" lon="-2.5428900">
        <ele>540.8</ele>
        <time>2020-09-13T15:03:50Z</time>
      </trkpt>
      <trkpt lat="42.9005710" lon="-2.5428900">
        <ele>540.8</ele>
        <time>2020-09-13T15:03:54Z</time>
      </trkpt>
      <trkpt lat="42.9005710" lon="-2.5428900">
        <ele>540.8</ele>
        <time>2020-09-13T15:03:58Z</time>
      </trkpt>
      <trkpt lat="42.9005710" lon="-2.5428900">
        <ele>540.6</ele>
        <time>2020-09-13T15:04:02Z</time>
      </trkpt>
      <trkpt lat="42.9005710" lon="-2.5428900">
        <ele>540.6</ele>
        <time>2020-09-13T15:04:06Z</time>
      </trkpt>
      <trkpt lat="42.9005710" lon="-2.5428900">
        <ele>541.0</ele>
        <time>2020-09-13T15:04:10Z</time>
      </trkpt>
      <trkpt lat="42.9005710" lon="-2.5428900">
        <ele>541.0</ele>
        <time>2020-09-13T15:04:14Z</time>
      </trkpt>
      <trkpt lat="42.9005710" lon="-2.5428900">
        <ele>540.8</ele>
        <time>2020-09-13T15:04:18Z</time>
      </trkpt>
      <trkpt lat="42.9005710" lon="-2.5428900">
        <ele>541.0</ele>
        <time>2020-09-13T15:04:22Z</time>
      </trkpt>
      <trkpt lat="42.9005710" lon="-2.5428900">
        <ele>541.2</ele>
        <time>2020-09-13T15:04:26Z</time>
      </trkpt>
      <trkpt lat="42.9005710" lon="-2.5428900">
        <ele>541.0</ele>
        <time>2020-09-13T15:04:30Z</time>
      </trkpt>
      <trkpt lat="42.9005710" lon="-2.5428900">
        <ele>540.8</ele>
        <time>2020-09-13T15:04:34Z</time>
      </trkpt>
      <trkpt lat="42.9005710" lon="-2.5428900">
        <ele>540.6</ele>
        <time>2020-09-13T15:04:38Z</time>
      </trkpt>
      <trkpt lat="42.9005710" lon="-2.5428900">
        <ele>541.0</ele>
        <time>2020-09-13T15:04:42Z</time>
      </trkpt>
      <trkpt lat="42.9005710" lon="-2.5428900">
        <ele>541.0</ele>
        <time>2020-09-13T15:04:46Z</time>
      </trkpt>
      <trkpt lat="42.9005710" lon="-2.5428900">
        <ele>540.8</ele>
        <time>2020-09-13T15:04:50Z</time>
      </trkpt>
      <trkpt lat="42.9005710" lon="-2.5428900">
        <ele>541.0</ele>
        <time>2020-09-13T15:04:54Z</time>
      </trkpt>
      <trkpt lat="42.9005710" lon="-2.5428900">
        <ele>540.6</ele>
        <time>2020-09-13T15:04:58Z</time>
      </trkpt>
      <trkpt lat="42.9005710" lon="-2.5428900">
        <ele>540.8</ele>
        <time>2020-09-13T15:05:02Z</time>
      </trkpt>
      <trkpt lat="42.9005710" lon="-2.5428900">
        <ele>540.8</ele>
        <time>2020-09-13T15:05:06Z</time>
      </trkpt>
      <trkpt lat="42.9005710" lon="-2.5428900">
        <ele>541.4</ele>
        <time>2020-09-13T15:05:10Z</time>
      </trkpt>
      <trkpt lat="42.9005710" lon="-2.5428900">
        <ele>540.8</ele>
        <time>2020-09-13T15:05:14Z</time>
      </trkpt>
      <trkpt lat="42.9005710" lon="-2.5428900">
        <ele>541.0</ele>
        <time>2020-09-13T15:05:18Z</time>
      </trkpt>
      <trkpt lat="42.9005710" lon="-2.5428900">
        <ele>540.8</ele>
        <time>2020-09-13T15:05:22Z</time>
      </trkpt>
      <trkpt lat="42.9005710" lon="-2.5428900">
        <ele>540.6</ele>
        <time>2020-09-13T15:05:26Z</time>
      </trkpt>
      <trkpt lat="42.9005710" lon="-2.5428900">
        <ele>540.6</ele>
        <time>2020-09-13T15:05:30Z</time>
      </trkpt>
      <trkpt lat="42.9005710" lon="-2.5428900">
        <ele>541.0</ele>
        <time>2020-09-13T15:05:34Z</time>
      </trkpt>
      <trkpt lat="42.9005710" lon="-2.5428900">
        <ele>541.0</ele>
        <time>2020-09-13T15:05:38Z</time>
      </trkpt>
      <trkpt lat="42.9005710" lon="-2.5428900">
        <ele>540.8</ele>
        <time>2020-09-13T15:05:42Z</time>
      </trkpt>
      <trkpt lat="42.9005710" lon="-2.5428900">
        <ele>541.2</ele>
        <time>2020-09-13T15:05:46Z</time>
      </trkpt>
      <trkpt lat="42.9005710" lon="-2.5428900">
        <ele>541.0</ele>
        <time>2020-09-13T15:05:50Z</time>
      </trkpt>
      <trkpt lat="42.9005710" lon="-2.5428900">
        <ele>541.0</ele>
        <time>2020-09-13T15:05:54Z</time>
      </trkpt>
      <trkpt lat="42.9005710" lon="-2.5428900">
        <ele>541.4</ele>
        <time>2020-09-13T15:05:58Z</time>
      </trkpt>
      <trkpt lat="42.9005710" lon="-2.5428900">
        <ele>540.8</ele>
        <time>2020-09-13T15:06:02Z</time>
      </trkpt>
      <trkpt lat="42.9005710" lon="-2.5428900">
        <ele>541.0</ele>
        <time>2020-09-13T15:06:06Z</time>
      </trkpt>
      <trkpt lat="42.9005710" lon="-2.5428900">
        <ele>541.0</ele>
        <time>2020-09-13T15:06:10Z</time>
      </trkpt>
      <trkpt lat="42.9005710" lon="-2.5428900">
        <ele>540.8</ele>
        <time>2020-09-13T15:06:14Z</time>
      </trkpt>
      <trkpt lat="42.9005710" lon="-2.5428900">
        <ele>541.2</ele>
        <time>2020-09-13T15:06:18Z</time>
      </trkpt>
      <trkpt lat="42.9005710" lon="-2.5428900">
        <ele>541.2</ele>
        <time>2020-09-13T15:06:22Z</time>
      </trkpt>
      <trkpt lat="42.9005710" lon="-2.5428900">
        <ele>541.0</ele>
        <time>2020-09-13T15:06:26Z</time>
      </trkpt>
      <trkpt lat="42.9005710" lon="-2.5428900">
        <ele>541.0</ele>
        <time>2020-09-13T15:06:30Z</time>
      </trkpt>
      <trkpt lat="42.9005710" lon="-2.5428900">
        <ele>541.0</ele>
        <time>2020-09-13T15:06:34Z</time>
      </trkpt>
      <trkpt lat="42.9005710" lon="-2.5428900">
        <ele>541.0</ele>
        <time>2020-09-13T15:06:38Z</time>
      </trkpt>
      <trkpt lat="42.9005710" lon="-2.5428900">
        <ele>541.2</ele>
        <time>2020-09-13T15:06:42Z</time>
      </trkpt>
      <trkpt lat="42.9005710" lon="-2.5428900">
        <ele>541.4</ele>
        <time>2020-09-13T15:06:46Z</time>
      </trkpt>
      <trkpt lat="42.9005710" lon="-2.5428900">
        <ele>541.0</ele>
        <time>2020-09-13T15:06:50Z</time>
      </trkpt>
      <trkpt lat="42.9005710" lon="-2.5428900">
        <ele>541.4</ele>
        <time>2020-09-13T15:06:54Z</time>
      </trkpt>
      <trkpt lat="42.9005710" lon="-2.5428900">
        <ele>541.2</ele>
        <time>2020-09-13T15:06:58Z</time>
      </trkpt>
      <trkpt lat="42.9005710" lon="-2.5428900">
        <ele>541.6</ele>
        <time>2020-09-13T15:07:02Z</time>
      </trkpt>
      <trkpt lat="42.9005710" lon="-2.5428900">
        <ele>541.4</ele>
        <time>2020-09-13T15:07:06Z</time>
      </trkpt>
      <trkpt lat="42.9005710" lon="-2.5428900">
        <ele>541.4</ele>
        <time>2020-09-13T15:07:10Z</time>
      </trkpt>
      <trkpt lat="42.9005710" lon="-2.5428900">
        <ele>541.2</ele>
        <time>2020-09-13T15:07:14Z</time>
      </trkpt>
      <trkpt lat="42.9005710" lon="-2.5428900">
        <ele>541.4</ele>
        <time>2020-09-13T15:07:18Z</time>
      </trkpt>
      <trkpt lat="42.9005710" lon="-2.5428900">
        <ele>541.4</ele>
        <time>2020-09-13T15:07:22Z</time>
      </trkpt>
      <trkpt lat="42.9005710" lon="-2.5428900">
        <ele>541.2</ele>
        <time>2020-09-13T15:07:26Z</time>
      </trkpt>
      <trkpt lat="42.9005710" lon="-2.5428900">
        <ele>541.4</ele>
        <time>2020-09-13T15:07:30Z</time>
      </trkpt>
      <trkpt lat="42.9005710" lon="-2.5428900">
        <ele>541.4</ele>
        <time>2020-09-13T15:07:34Z</time>
      </trkpt>
      <trkpt lat="42.9005710" lon="-2.5428900">
        <ele>542.0</ele>
        <time>2020-09-13T15:07:38Z</time>
      </trkpt>
      <trkpt lat="42.9005710" lon="-2.5428900">
        <ele>541.0</ele>
        <time>2020-09-13T15:07:42Z</time>
      </trkpt>
      <trkpt lat="42.9005710" lon="-2.5428900">
        <ele>541.0</ele>
        <time>2020-09-13T15:07:46Z</time>
      </trkpt>
      <trkpt lat="42.9005710" lon="-2.5428900">
        <ele>541.0</ele>
        <time>2020-09-13T15:07:50Z</time>
      </trkpt>
      <trkpt lat="42.9005710" lon="-2.5428900">
        <ele>540.8</ele>
        <time>2020-09-13T15:07:54Z</time>
      </trkpt>
      <trkpt lat="42.9005710" lon="-2.5428900">
        <ele>541.0</ele>
        <time>2020-09-13T15:07:58Z</time>
      </trkpt>
      <trkpt lat="42.9005710" lon="-2.5428900">
        <ele>541.4</ele>
        <time>2020-09-13T15:08:02Z</time>
      </trkpt>
      <trkpt lat="42.9005710" lon="-2.5428900">
        <ele>541.4</ele>
        <time>2020-09-13T15:08:06Z</time>
      </trkpt>
      <trkpt lat="42.9005710" lon="-2.5428900">
        <ele>541.2</ele>
        <time>2020-09-13T15:08:10Z</time>
      </trkpt>
      <trkpt lat="42.9005710" lon="-2.5428900">
        <ele>541.2</ele>
        <time>2020-09-13T15:08:14Z</time>
      </trkpt>
      <trkpt lat="42.9005710" lon="-2.5428900">
        <ele>541.4</ele>
        <time>2020-09-13T15:08:18Z</time>
      </trkpt>
      <trkpt lat="42.9005710" lon="-2.5428900">
        <ele>541.0</ele>
        <time>2020-09-13T15:08:22Z</time>
      </trkpt>
      <trkpt lat="42.9005710" lon="-2.5428900">
        <ele>541.4</ele>
        <time>2020-09-13T15:08:26Z</time>
      </trkpt>
      <trkpt lat="42.9005710" lon="-2.5428900">
        <ele>541.0</ele>
        <time>2020-09-13T15:08:30Z</time>
      </trkpt>
      <trkpt lat="42.9005710" lon="-2.5428900">
        <ele>541.4</ele>
        <time>2020-09-13T15:08:34Z</time>
      </trkpt>
      <trkpt lat="42.9005710" lon="-2.5428900">
        <ele>541.4</ele>
        <time>2020-09-13T15:08:38Z</time>
      </trkpt>
      <trkpt lat="42.9005710" lon="-2.5428900">
        <ele>541.4</ele>
        <time>2020-09-13T15:08:42Z</time>
      </trkpt>
      <trkpt lat="42.9005710" lon="-2.5428900">
        <ele>541.4</ele>
        <time>2020-09-13T15:08:46Z</time>
      </trkpt>
      <trkpt lat="42.9005710" lon="-2.5428900">
        <ele>541.0</ele>
        <time>2020-09-13T15:08:50Z</time>
      </trkpt>
      <trkpt lat="42.9005710" lon="-2.5428900">
        <ele>541.6</ele>
        <time>2020-09-13T15:08:54Z</time>
      </trkpt>
      <trkpt lat="42.9005710" lon="-2.5428900">
        <ele>541.0</ele>
        <time>2020-09-13T15:08:58Z</time>
      </trkpt>
      <trkpt lat="42.9005710" lon="-2.5428900">
        <ele>541.6</ele>
        <time>2020-09-13T15:09:02Z</time>
      </trkpt>
      <trkpt lat="42.9005710" lon="-2.5428900">
        <ele>541.6</ele>
        <time>2020-09-13T15:09:06Z</time>
      </trkpt>
      <trkpt lat="42.9005710" lon="-2.5428900">
        <ele>541.2</ele>
        <time>2020-09-13T15:09:10Z</time>
      </trkpt>
      <trkpt lat="42.9005710" lon="-2.5428900">
        <ele>541.4</ele>
        <time>2020-09-13T15:09:14Z</time>
      </trkpt>
      <trkpt lat="42.9005710" lon="-2.5428900">
        <ele>541.4</ele>
        <time>2020-09-13T15:09:18Z</time>
      </trkpt>
      <trkpt lat="42.9005710" lon="-2.5428900">
        <ele>541.4</ele>
        <time>2020-09-13T15:09:22Z</time>
      </trkpt>
      <trkpt lat="42.9005710" lon="-2.5428900">
        <ele>541.2</ele>
        <time>2020-09-13T15:09:26Z</time>
      </trkpt>
      <trkpt lat="42.9005710" lon="-2.5428900">
        <ele>541.6</ele>
        <time>2020-09-13T15:09:30Z</time>
      </trkpt>
      <trkpt lat="42.9005710" lon="-2.5428900">
        <ele>541.4</ele>
        <time>2020-09-13T15:09:34Z</time>
      </trkpt>
      <trkpt lat="42.9005710" lon="-2.5428900">
        <ele>541.4</ele>
        <time>2020-09-13T15:09:38Z</time>
      </trkpt>
      <trkpt lat="42.9005710" lon="-2.5428900">
        <ele>540.8</ele>
        <time>2020-09-13T15:09:42Z</time>
      </trkpt>
      <trkpt lat="42.9005710" lon="-2.5428900">
        <ele>541.0</ele>
        <time>2020-09-13T15:09:46Z</time>
      </trkpt>
      <trkpt lat="42.9005710" lon="-2.5428900">
        <ele>541.4</ele>
        <time>2020-09-13T15:09:50Z</time>
      </trkpt>
      <trkpt lat="42.9005710" lon="-2.5428900">
        <ele>541.4</ele>
        <time>2020-09-13T15:09:54Z</time>
      </trkpt>
      <trkpt lat="42.9005710" lon="-2.5428900">
        <ele>541.6</ele>
        <time>2020-09-13T15:09:58Z</time>
      </trkpt>
      <trkpt lat="42.9005710" lon="-2.5428900">
        <ele>541.6</ele>
        <time>2020-09-13T15:10:02Z</time>
      </trkpt>
      <trkpt lat="42.9005710" lon="-2.5428900">
        <ele>541.6</ele>
        <time>2020-09-13T15:10:06Z</time>
      </trkpt>
      <trkpt lat="42.9005710" lon="-2.5428900">
        <ele>541.6</ele>
        <time>2020-09-13T15:10:10Z</time>
      </trkpt>
      <trkpt lat="42.9005710" lon="-2.5428900">
        <ele>541.4</ele>
        <time>2020-09-13T15:10:14Z</time>
      </trkpt>
      <trkpt lat="42.9005710" lon="-2.5428900">
        <ele>541.4</ele>
        <time>2020-09-13T15:10:18Z</time>
      </trkpt>
      <trkpt lat="42.9005710" lon="-2.5428900">
        <ele>541.4</ele>
        <time>2020-09-13T15:10:22Z</time>
      </trkpt>
      <trkpt lat="42.9005710" lon="-2.5428900">
        <ele>541.8</ele>
        <time>2020-09-13T15:10:26Z</time>
      </trkpt>
      <trkpt lat="42.9005710" lon="-2.5428900">
        <ele>541.4</ele>
        <time>2020-09-13T15:10:30Z</time>
      </trkpt>
      <trkpt lat="42.9005710" lon="-2.5428900">
        <ele>541.6</ele>
        <time>2020-09-13T15:10:34Z</time>
      </trkpt>
      <trkpt lat="42.9005710" lon="-2.5428900">
        <ele>541.4</ele>
        <time>2020-09-13T15:10:38Z</time>
      </trkpt>
      <trkpt lat="42.9005710" lon="-2.5428900">
        <ele>541.6</ele>
        <time>2020-09-13T15:10:42Z</time>
      </trkpt>
      <trkpt lat="42.9005710" lon="-2.5428900">
        <ele>541.8</ele>
        <time>2020-09-13T15:10:46Z</time>
      </trkpt>
      <trkpt lat="42.9005710" lon="-2.5428900">
        <ele>541.6</ele>
        <time>2020-09-13T15:10:50Z</time>
      </trkpt>
      <trkpt lat="42.9005710" lon="-2.5428900">
        <ele>541.6</ele>
        <time>2020-09-13T15:10:54Z</time>
      </trkpt>
      <trkpt lat="42.9005710" lon="-2.5428900">
        <ele>541.6</ele>
        <time>2020-09-13T15:10:58Z</time>
      </trkpt>
      <trkpt lat="42.9005710" lon="-2.5428900">
        <ele>541.6</ele>
        <time>2020-09-13T15:11:02Z</time>
      </trkpt>
      <trkpt lat="42.9005710" lon="-2.5428900">
        <ele>541.4</ele>
        <time>2020-09-13T15:11:06Z</time>
      </trkpt>
      <trkpt lat="42.9005710" lon="-2.5428900">
        <ele>541.6</ele>
        <time>2020-09-13T15:11:10Z</time>
      </trkpt>
      <trkpt lat="42.9005710" lon="-2.5428900">
        <ele>541.6</ele>
        <time>2020-09-13T15:11:14Z</time>
      </trkpt>
      <trkpt lat="42.9005710" lon="-2.5428900">
        <ele>541.6</ele>
        <time>2020-09-13T15:11:18Z</time>
      </trkpt>
      <trkpt lat="42.9005710" lon="-2.5428900">
        <ele>541.4</ele>
        <time>2020-09-13T15:11:22Z</time>
      </trkpt>
      <trkpt lat="42.9005710" lon="-2.5428900">
        <ele>541.8</ele>
        <time>2020-09-13T15:11:26Z</time>
      </trkpt>
      <trkpt lat="42.9005710" lon="-2.5428900">
        <ele>541.6</ele>
        <time>2020-09-13T15:11:30Z</time>
      </trkpt>
      <trkpt lat="42.9005710" lon="-2.5428900">
        <ele>541.4</ele>
        <time>2020-09-13T15:11:34Z</time>
      </trkpt>
      <trkpt lat="42.9005710" lon="-2.5428900">
        <ele>541.6</ele>
        <time>2020-09-13T15:11:38Z</time>
      </trkpt>
      <trkpt lat="42.9005710" lon="-2.5428900">
        <ele>541.8</ele>
        <time>2020-09-13T15:11:42Z</time>
      </trkpt>
      <trkpt lat="42.9005710" lon="-2.5428900">
        <ele>542.2</ele>
        <time>2020-09-13T15:11:46Z</time>
      </trkpt>
      <trkpt lat="42.9005710" lon="-2.5428900">
        <ele>542.2</ele>
        <time>2020-09-13T15:11:50Z</time>
      </trkpt>
      <trkpt lat="42.9005710" lon="-2.5428900">
        <ele>541.8</ele>
        <time>2020-09-13T15:11:54Z</time>
      </trkpt>
      <trkpt lat="42.9005710" lon="-2.5428900">
        <ele>542.2</ele>
        <time>2020-09-13T15:11:58Z</time>
      </trkpt>
      <trkpt lat="42.9005710" lon="-2.5428900">
        <ele>542.0</ele>
        <time>2020-09-13T15:12:02Z</time>
      </trkpt>
      <trkpt lat="42.9005710" lon="-2.5428900">
        <ele>542.2</ele>
        <time>2020-09-13T15:12:06Z</time>
      </trkpt>
      <trkpt lat="42.9005710" lon="-2.5428900">
        <ele>542.0</ele>
        <time>2020-09-13T15:12:10Z</time>
      </trkpt>
      <trkpt lat="42.9005710" lon="-2.5428900">
        <ele>541.8</ele>
        <time>2020-09-13T15:12:14Z</time>
      </trkpt>
      <trkpt lat="42.9005710" lon="-2.5428900">
        <ele>542.2</ele>
        <time>2020-09-13T15:12:18Z</time>
      </trkpt>
      <trkpt lat="42.9005710" lon="-2.5428900">
        <ele>542.0</ele>
        <time>2020-09-13T15:12:22Z</time>
      </trkpt>
      <trkpt lat="42.9005710" lon="-2.5428900">
        <ele>542.2</ele>
        <time>2020-09-13T15:12:26Z</time>
      </trkpt>
      <trkpt lat="42.9005710" lon="-2.5428900">
        <ele>542.2</ele>
        <time>2020-09-13T15:12:30Z</time>
      </trkpt>
      <trkpt lat="42.9005710" lon="-2.5428900">
        <ele>542.2</ele>
        <time>2020-09-13T15:12:34Z</time>
      </trkpt>
      <trkpt lat="42.9005710" lon="-2.5428900">
        <ele>541.6</ele>
        <time>2020-09-13T15:12:38Z</time>
      </trkpt>
      <trkpt lat="42.9005710" lon="-2.5428900">
        <ele>542.0</ele>
        <time>2020-09-13T15:12:42Z</time>
      </trkpt>
      <trkpt lat="42.9005710" lon="-2.5428900">
        <ele>541.6</ele>
        <time>2020-09-13T15:12:46Z</time>
      </trkpt>
      <trkpt lat="42.9005710" lon="-2.5428900">
        <ele>541.6</ele>
        <time>2020-09-13T15:12:50Z</time>
      </trkpt>
      <trkpt lat="42.9005710" lon="-2.5428900">
        <ele>542.0</ele>
        <time>2020-09-13T15:12:54Z</time>
      </trkpt>
      <trkpt lat="42.9005710" lon="-2.5428900">
        <ele>542.0</ele>
        <time>2020-09-13T15:12:58Z</time>
      </trkpt>
      <trkpt lat="42.9005710" lon="-2.5428900">
        <ele>541.6</ele>
        <time>2020-09-13T15:13:02Z</time>
      </trkpt>
      <trkpt lat="42.9005710" lon="-2.5428900">
        <ele>541.8</ele>
        <time>2020-09-13T15:13:06Z</time>
      </trkpt>
      <trkpt lat="42.9005710" lon="-2.5428900">
        <ele>541.8</ele>
        <time>2020-09-13T15:13:10Z</time>
      </trkpt>
      <trkpt lat="42.9005710" lon="-2.5428900">
        <ele>542.0</ele>
        <time>2020-09-13T15:13:14Z</time>
      </trkpt>
      <trkpt lat="42.9005710" lon="-2.5428900">
        <ele>541.6</ele>
        <time>2020-09-13T15:13:18Z</time>
      </trkpt>
      <trkpt lat="42.9005710" lon="-2.5428900">
        <ele>541.8</ele>
        <time>2020-09-13T15:13:22Z</time>
      </trkpt>
      <trkpt lat="42.9005710" lon="-2.5428900">
        <ele>541.8</ele>
        <time>2020-09-13T15:13:26Z</time>
      </trkpt>
      <trkpt lat="42.9005710" lon="-2.5428900">
        <ele>541.8</ele>
        <time>2020-09-13T15:13:30Z</time>
      </trkpt>
      <trkpt lat="42.9005710" lon="-2.5428900">
        <ele>541.8</ele>
        <time>2020-09-13T15:13:34Z</time>
      </trkpt>
      <trkpt lat="42.9005710" lon="-2.5428900">
        <ele>542.0</ele>
        <time>2020-09-13T15:13:38Z</time>
      </trkpt>
      <trkpt lat="42.9005710" lon="-2.5428900">
        <ele>541.8</ele>
        <time>2020-09-13T15:13:42Z</time>
      </trkpt>
      <trkpt lat="42.9005710" lon="-2.5428900">
        <ele>541.8</ele>
        <time>2020-09-13T15:13:46Z</time>
      </trkpt>
      <trkpt lat="42.9005710" lon="-2.5428900">
        <ele>541.6</ele>
        <time>2020-09-13T15:13:50Z</time>
      </trkpt>
      <trkpt lat="42.9005710" lon="-2.5428900">
        <ele>541.8</ele>
        <time>2020-09-13T15:13:54Z</time>
      </trkpt>
      <trkpt lat="42.9005710" lon="-2.5428900">
        <ele>541.8</ele>
        <time>2020-09-13T15:13:58Z</time>
      </trkpt>
      <trkpt lat="42.9005710" lon="-2.5428900">
        <ele>541.4</ele>
        <time>2020-09-13T15:14:02Z</time>
      </trkpt>
      <trkpt lat="42.9005710" lon="-2.5428900">
        <ele>541.6</ele>
        <time>2020-09-13T15:14:06Z</time>
      </trkpt>
      <trkpt lat="42.9005710" lon="-2.5428900">
        <ele>541.6</ele>
        <time>2020-09-13T15:14:10Z</time>
      </trkpt>
      <trkpt lat="42.9005710" lon="-2.5428900">
        <ele>541.6</ele>
        <time>2020-09-13T15:14:14Z</time>
      </trkpt>
      <trkpt lat="42.9005710" lon="-2.5428900">
        <ele>541.6</ele>
        <time>2020-09-13T15:14:18Z</time>
      </trkpt>
      <trkpt lat="42.9005710" lon="-2.5428900">
        <ele>541.6</ele>
        <time>2020-09-13T15:14:22Z</time>
      </trkpt>
      <trkpt lat="42.9005710" lon="-2.5428900">
        <ele>541.8</ele>
        <time>2020-09-13T15:14:26Z</time>
      </trkpt>
      <trkpt lat="42.9005710" lon="-2.5428900">
        <ele>541.8</ele>
        <time>2020-09-13T15:14:30Z</time>
      </trkpt>
      <trkpt lat="42.9005710" lon="-2.5428900">
        <ele>541.6</ele>
        <time>2020-09-13T15:14:34Z</time>
      </trkpt>
      <trkpt lat="42.9005710" lon="-2.5428900">
        <ele>541.6</ele>
        <time>2020-09-13T15:14:38Z</time>
      </trkpt>
      <trkpt lat="42.9005710" lon="-2.5428900">
        <ele>541.6</ele>
        <time>2020-09-13T15:14:42Z</time>
      </trkpt>
      <trkpt lat="42.9005710" lon="-2.5428900">
        <ele>541.6</ele>
        <time>2020-09-13T15:14:46Z</time>
      </trkpt>
      <trkpt lat="42.9005710" lon="-2.5428900">
        <ele>541.8</ele>
        <time>2020-09-13T15:14:50Z</time>
      </trkpt>
      <trkpt lat="42.9005710" lon="-2.5428900">
        <ele>541.8</ele>
        <time>2020-09-13T15:14:54Z</time>
      </trkpt>
      <trkpt lat="42.9005710" lon="-2.5428900">
        <ele>541.6</ele>
        <time>2020-09-13T15:14:58Z</time>
      </trkpt>
      <trkpt lat="42.9005710" lon="-2.5428900">
        <ele>542.0</ele>
        <time>2020-09-13T15:15:02Z</time>
      </trkpt>
      <trkpt lat="42.9005710" lon="-2.5428900">
        <ele>541.8</ele>
        <time>2020-09-13T15:15:06Z</time>
      </trkpt>
      <trkpt lat="42.9005710" lon="-2.5428900">
        <ele>542.2</ele>
        <time>2020-09-13T15:15:10Z</time>
      </trkpt>
      <trkpt lat="42.9005710" lon="-2.5428900">
        <ele>541.6</ele>
        <time>2020-09-13T15:15:14Z</time>
      </trkpt>
      <trkpt lat="42.9005710" lon="-2.5428900">
        <ele>541.6</ele>
        <time>2020-09-13T15:15:18Z</time>
      </trkpt>
      <trkpt lat="42.9005710" lon="-2.5428900">
        <ele>541.6</ele>
        <time>2020-09-13T15:15:22Z</time>
      </trkpt>
      <trkpt lat="42.9005710" lon="-2.5428900">
        <ele>541.6</ele>
        <time>2020-09-13T15:15:26Z</time>
      </trkpt>
      <trkpt lat="42.9005710" lon="-2.5428900">
        <ele>541.6</ele>
        <time>2020-09-13T15:15:30Z</time>
      </trkpt>
      <trkpt lat="42.9005710" lon="-2.5428900">
        <ele>541.4</ele>
        <time>2020-09-13T15:15:34Z</time>
      </trkpt>
      <trkpt lat="42.9005710" lon="-2.5428900">
        <ele>541.6</ele>
        <time>2020-09-13T15:15:38Z</time>
      </trkpt>
      <trkpt lat="42.9005710" lon="-2.5428900">
        <ele>541.8</ele>
        <time>2020-09-13T15:15:42Z</time>
      </trkpt>
      <trkpt lat="42.9005710" lon="-2.5428900">
        <ele>541.4</ele>
        <time>2020-09-13T15:15:46Z</time>
      </trkpt>
      <trkpt lat="42.9005710" lon="-2.5428900">
        <ele>541.4</ele>
        <time>2020-09-13T15:15:50Z</time>
      </trkpt>
      <trkpt lat="42.9005710" lon="-2.5428900">
        <ele>541.4</ele>
        <time>2020-09-13T15:15:54Z</time>
      </trkpt>
      <trkpt lat="42.9005710" lon="-2.5428900">
        <ele>541.6</ele>
        <time>2020-09-13T15:15:58Z</time>
      </trkpt>
      <trkpt lat="42.9005710" lon="-2.5428900">
        <ele>541.6</ele>
        <time>2020-09-13T15:16:02Z</time>
      </trkpt>
      <trkpt lat="42.9005710" lon="-2.5428900">
        <ele>541.4</ele>
        <time>2020-09-13T15:16:06Z</time>
      </trkpt>
      <trkpt lat="42.9005710" lon="-2.5428900">
        <ele>541.4</ele>
        <time>2020-09-13T15:16:10Z</time>
      </trkpt>
      <trkpt lat="42.9005710" lon="-2.5428900">
        <ele>541.6</ele>
        <time>2020-09-13T15:16:14Z</time>
      </trkpt>
      <trkpt lat="42.9005710" lon="-2.5428900">
        <ele>541.6</ele>
        <time>2020-09-13T15:16:18Z</time>
      </trkpt>
      <trkpt lat="42.9005710" lon="-2.5428900">
        <ele>541.4</ele>
        <time>2020-09-13T15:16:22Z</time>
      </trkpt>
      <trkpt lat="42.9005710" lon="-2.5428900">
        <ele>541.6</ele>
        <time>2020-09-13T15:16:26Z</time>
      </trkpt>
      <trkpt lat="42.9005710" lon="-2.5428900">
        <ele>542.0</ele>
        <time>2020-09-13T15:16:30Z</time>
      </trkpt>
      <trkpt lat="42.9005710" lon="-2.5428900">
        <ele>541.8</ele>
        <time>2020-09-13T15:16:34Z</time>
      </trkpt>
      <trkpt lat="42.9005710" lon="-2.5428900">
        <ele>541.8</ele>
        <time>2020-09-13T15:16:38Z</time>
      </trkpt>
      <trkpt lat="42.9005710" lon="-2.5428900">
        <ele>541.6</ele>
        <time>2020-09-13T15:16:42Z</time>
      </trkpt>
      <trkpt lat="42.9005710" lon="-2.5428900">
        <ele>541.8</ele>
        <time>2020-09-13T15:16:46Z</time>
      </trkpt>
      <trkpt lat="42.9005710" lon="-2.5428900">
        <ele>541.6</ele>
        <time>2020-09-13T15:16:50Z</time>
      </trkpt>
      <trkpt lat="42.9005710" lon="-2.5428900">
        <ele>542.0</ele>
        <time>2020-09-13T15:16:54Z</time>
      </trkpt>
      <trkpt lat="42.9005710" lon="-2.5428900">
        <ele>542.2</ele>
        <time>2020-09-13T15:16:58Z</time>
      </trkpt>
      <trkpt lat="42.9005710" lon="-2.5428900">
        <ele>541.8</ele>
        <time>2020-09-13T15:17:02Z</time>
      </trkpt>
      <trkpt lat="42.9005710" lon="-2.5428900">
        <ele>541.4</ele>
        <time>2020-09-13T15:17:06Z</time>
      </trkpt>
      <trkpt lat="42.9005710" lon="-2.5428900">
        <ele>541.6</ele>
        <time>2020-09-13T15:17:10Z</time>
      </trkpt>
      <trkpt lat="42.9005710" lon="-2.5428900">
        <ele>541.8</ele>
        <time>2020-09-13T15:17:14Z</time>
      </trkpt>
      <trkpt lat="42.9005710" lon="-2.5428900">
        <ele>541.4</ele>
        <time>2020-09-13T15:17:18Z</time>
      </trkpt>
      <trkpt lat="42.9005710" lon="-2.5428900">
        <ele>541.8</ele>
        <time>2020-09-13T15:17:22Z</time>
      </trkpt>
      <trkpt lat="42.9005710" lon="-2.5428900">
        <ele>541.6</ele>
        <time>2020-09-13T15:17:26Z</time>
      </trkpt>
      <trkpt lat="42.9005710" lon="-2.5428900">
        <ele>541.6</ele>
        <time>2020-09-13T15:17:30Z</time>
      </trkpt>
      <trkpt lat="42.9005710" lon="-2.5428900">
        <ele>541.4</ele>
        <time>2020-09-13T15:17:34Z</time>
      </trkpt>
      <trkpt lat="42.9005710" lon="-2.5428900">
        <ele>541.4</ele>
        <time>2020-09-13T15:17:38Z</time>
      </trkpt>
      <trkpt lat="42.9005710" lon="-2.5428900">
        <ele>541.6</ele>
        <time>2020-09-13T15:17:42Z</time>
      </trkpt>
      <trkpt lat="42.9005710" lon="-2.5428900">
        <ele>541.4</ele>
        <time>2020-09-13T15:17:46Z</time>
      </trkpt>
      <trkpt lat="42.9005710" lon="-2.5428900">
        <ele>541.4</ele>
        <time>2020-09-13T15:17:50Z</time>
      </trkpt>
      <trkpt lat="42.9005710" lon="-2.5428900">
        <ele>541.6</ele>
        <time>2020-09-13T15:17:54Z</time>
      </trkpt>
      <trkpt lat="42.9005710" lon="-2.5428900">
        <ele>541.0</ele>
        <time>2020-09-13T15:17:58Z</time>
      </trkpt>
      <trkpt lat="42.9005710" lon="-2.5428900">
        <ele>541.6</ele>
        <time>2020-09-13T15:18:02Z</time>
      </trkpt>
      <trkpt lat="42.9005710" lon="-2.5428900">
        <ele>541.2</ele>
        <time>2020-09-13T15:18:06Z</time>
      </trkpt>
      <trkpt lat="42.9005710" lon="-2.5428900">
        <ele>541.4</ele>
        <time>2020-09-13T15:18:10Z</time>
      </trkpt>
      <trkpt lat="42.9005710" lon="-2.5428900">
        <ele>541.8</ele>
        <time>2020-09-13T15:18:14Z</time>
      </trkpt>
      <trkpt lat="42.9005710" lon="-2.5428900">
        <ele>542.0</ele>
        <time>2020-09-13T15:18:18Z</time>
      </trkpt>
      <trkpt lat="42.9005710" lon="-2.5428900">
        <ele>542.0</ele>
        <time>2020-09-13T15:18:22Z</time>
      </trkpt>
      <trkpt lat="42.9005710" lon="-2.5428900">
        <ele>541.4</ele>
        <time>2020-09-13T15:18:26Z</time>
      </trkpt>
      <trkpt lat="42.9005710" lon="-2.5428900">
        <ele>541.4</ele>
        <time>2020-09-13T15:18:30Z</time>
      </trkpt>
      <trkpt lat="42.9005710" lon="-2.5428900">
        <ele>541.4</ele>
        <time>2020-09-13T15:18:34Z</time>
      </trkpt>
      <trkpt lat="42.9005710" lon="-2.5428900">
        <ele>541.4</ele>
        <time>2020-09-13T15:18:38Z</time>
      </trkpt>
      <trkpt lat="42.9005710" lon="-2.5428900">
        <ele>541.4</ele>
        <time>2020-09-13T15:18:42Z</time>
      </trkpt>
      <trkpt lat="42.9005710" lon="-2.5428900">
        <ele>541.4</ele>
        <time>2020-09-13T15:18:46Z</time>
      </trkpt>
      <trkpt lat="42.9005710" lon="-2.5428900">
        <ele>541.4</ele>
        <time>2020-09-13T15:18:50Z</time>
      </trkpt>
      <trkpt lat="42.9005710" lon="-2.5428900">
        <ele>541.0</ele>
        <time>2020-09-13T15:18:54Z</time>
      </trkpt>
      <trkpt lat="42.9005710" lon="-2.5428900">
        <ele>541.6</ele>
        <time>2020-09-13T15:18:58Z</time>
      </trkpt>
      <trkpt lat="42.9005710" lon="-2.5428900">
        <ele>541.8</ele>
        <time>2020-09-13T15:19:02Z</time>
      </trkpt>
      <trkpt lat="42.9005710" lon="-2.5428900">
        <ele>541.6</ele>
        <time>2020-09-13T15:19:06Z</time>
      </trkpt>
      <trkpt lat="42.9005710" lon="-2.5428900">
        <ele>541.8</ele>
        <time>2020-09-13T15:19:10Z</time>
      </trkpt>
      <trkpt lat="42.9005710" lon="-2.5428900">
        <ele>541.8</ele>
        <time>2020-09-13T15:19:14Z</time>
      </trkpt>
      <trkpt lat="42.9005710" lon="-2.5428900">
        <ele>541.8</ele>
        <time>2020-09-13T15:19:18Z</time>
      </trkpt>
      <trkpt lat="42.9005710" lon="-2.5428900">
        <ele>541.4</ele>
        <time>2020-09-13T15:19:22Z</time>
      </trkpt>
      <trkpt lat="42.9005710" lon="-2.5428900">
        <ele>541.6</ele>
        <time>2020-09-13T15:19:26Z</time>
      </trkpt>
      <trkpt lat="42.9005710" lon="-2.5428900">
        <ele>541.4</ele>
        <time>2020-09-13T15:19:30Z</time>
      </trkpt>
      <trkpt lat="42.9005710" lon="-2.5428900">
        <ele>541.6</ele>
        <time>2020-09-13T15:19:34Z</time>
      </trkpt>
      <trkpt lat="42.9005710" lon="-2.5428900">
        <ele>541.6</ele>
        <time>2020-09-13T15:19:38Z</time>
      </trkpt>
      <trkpt lat="42.9005710" lon="-2.5428900">
        <ele>541.4</ele>
        <time>2020-09-13T15:19:42Z</time>
      </trkpt>
      <trkpt lat="42.9005710" lon="-2.5428900">
        <ele>541.6</ele>
        <time>2020-09-13T15:19:46Z</time>
      </trkpt>
      <trkpt lat="42.9005710" lon="-2.5428900">
        <ele>541.6</ele>
        <time>2020-09-13T15:19:50Z</time>
      </trkpt>
      <trkpt lat="42.9005710" lon="-2.5428900">
        <ele>542.2</ele>
        <time>2020-09-13T15:19:54Z</time>
      </trkpt>
      <trkpt lat="42.9005710" lon="-2.5428900">
        <ele>542.0</ele>
        <time>2020-09-13T15:19:58Z</time>
      </trkpt>
      <trkpt lat="42.9005710" lon="-2.5428900">
        <ele>541.6</ele>
        <time>2020-09-13T15:20:02Z</time>
      </trkpt>
      <trkpt lat="42.9005710" lon="-2.5428900">
        <ele>541.6</ele>
        <time>2020-09-13T15:20:06Z</time>
      </trkpt>
      <trkpt lat="42.9005710" lon="-2.5428900">
        <ele>541.2</ele>
        <time>2020-09-13T15:20:10Z</time>
      </trkpt>
      <trkpt lat="42.9005710" lon="-2.5428900">
        <ele>541.4</ele>
        <time>2020-09-13T15:20:14Z</time>
      </trkpt>
      <trkpt lat="42.9005710" lon="-2.5428900">
        <ele>541.6</ele>
        <time>2020-09-13T15:20:18Z</time>
      </trkpt>
      <trkpt lat="42.9005710" lon="-2.5428900">
        <ele>541.6</ele>
        <time>2020-09-13T15:20:22Z</time>
      </trkpt>
      <trkpt lat="42.9005710" lon="-2.5428900">
        <ele>541.4</ele>
        <time>2020-09-13T15:20:26Z</time>
      </trkpt>
      <trkpt lat="42.9005710" lon="-2.5428900">
        <ele>541.8</ele>
        <time>2020-09-13T15:20:30Z</time>
      </trkpt>
      <trkpt lat="42.9005710" lon="-2.5428900">
        <ele>541.6</ele>
        <time>2020-09-13T15:20:34Z</time>
      </trkpt>
      <trkpt lat="42.9005710" lon="-2.5428900">
        <ele>541.4</ele>
        <time>2020-09-13T15:20:38Z</time>
      </trkpt>
      <trkpt lat="42.9005710" lon="-2.5428900">
        <ele>541.8</ele>
        <time>2020-09-13T15:20:42Z</time>
      </trkpt>
      <trkpt lat="42.9005710" lon="-2.5428900">
        <ele>541.8</ele>
        <time>2020-09-13T15:20:46Z</time>
      </trkpt>
      <trkpt lat="42.9005710" lon="-2.5428900">
        <ele>542.0</ele>
        <time>2020-09-13T15:20:50Z</time>
      </trkpt>
      <trkpt lat="42.9005710" lon="-2.5428900">
        <ele>541.6</ele>
        <time>2020-09-13T15:20:54Z</time>
      </trkpt>
      <trkpt lat="42.9005710" lon="-2.5428900">
        <ele>541.6</ele>
        <time>2020-09-13T15:20:58Z</time>
      </trkpt>
      <trkpt lat="42.9005710" lon="-2.5428900">
        <ele>541.4</ele>
        <time>2020-09-13T15:21:02Z</time>
      </trkpt>
      <trkpt lat="42.9005710" lon="-2.5428900">
        <ele>541.4</ele>
        <time>2020-09-13T15:21:06Z</time>
      </trkpt>
      <trkpt lat="42.9005710" lon="-2.5428900">
        <ele>542.2</ele>
        <time>2020-09-13T15:21:10Z</time>
      </trkpt>
      <trkpt lat="42.9005710" lon="-2.5428900">
        <ele>541.8</ele>
        <time>2020-09-13T15:21:14Z</time>
      </trkpt>
      <trkpt lat="42.9005710" lon="-2.5428900">
        <ele>541.8</ele>
        <time>2020-09-13T15:21:18Z</time>
      </trkpt>
      <trkpt lat="42.9005710" lon="-2.5428900">
        <ele>541.6</ele>
        <time>2020-09-13T15:21:22Z</time>
      </trkpt>
      <trkpt lat="42.9005710" lon="-2.5428900">
        <ele>541.6</ele>
        <time>2020-09-13T15:21:26Z</time>
      </trkpt>
      <trkpt lat="42.9005710" lon="-2.5428900">
        <ele>541.4</ele>
        <time>2020-09-13T15:21:30Z</time>
      </trkpt>
      <trkpt lat="42.9005710" lon="-2.5428900">
        <ele>541.6</ele>
        <time>2020-09-13T15:21:34Z</time>
      </trkpt>
      <trkpt lat="42.9005710" lon="-2.5428900">
        <ele>542.2</ele>
        <time>2020-09-13T15:21:38Z</time>
      </trkpt>
      <trkpt lat="42.9005710" lon="-2.5428900">
        <ele>542.0</ele>
        <time>2020-09-13T15:21:42Z</time>
      </trkpt>
      <trkpt lat="42.9005710" lon="-2.5428900">
        <ele>541.8</ele>
        <time>2020-09-13T15:21:46Z</time>
      </trkpt>
      <trkpt lat="42.9005710" lon="-2.5428900">
        <ele>542.4</ele>
        <time>2020-09-13T15:21:50Z</time>
      </trkpt>
      <trkpt lat="42.9005710" lon="-2.5428900">
        <ele>542.4</ele>
        <time>2020-09-13T15:21:54Z</time>
      </trkpt>
      <trkpt lat="42.9005710" lon="-2.5428900">
        <ele>542.0</ele>
        <time>2020-09-13T15:21:58Z</time>
      </trkpt>
      <trkpt lat="42.9005710" lon="-2.5428900">
        <ele>541.8</ele>
        <time>2020-09-13T15:22:02Z</time>
      </trkpt>
      <trkpt lat="42.9005710" lon="-2.5428900">
        <ele>541.8</ele>
        <time>2020-09-13T15:22:06Z</time>
      </trkpt>
      <trkpt lat="42.9005710" lon="-2.5428900">
        <ele>542.2</ele>
        <time>2020-09-13T15:22:10Z</time>
      </trkpt>
      <trkpt lat="42.9005710" lon="-2.5428900">
        <ele>542.2</ele>
        <time>2020-09-13T15:22:14Z</time>
      </trkpt>
      <trkpt lat="42.9005710" lon="-2.5428900">
        <ele>542.2</ele>
        <time>2020-09-13T15:22:18Z</time>
      </trkpt>
      <trkpt lat="42.9005710" lon="-2.5428900">
        <ele>542.2</ele>
        <time>2020-09-13T15:22:22Z</time>
      </trkpt>
      <trkpt lat="42.9005710" lon="-2.5428900">
        <ele>542.0</ele>
        <time>2020-09-13T15:22:26Z</time>
      </trkpt>
      <trkpt lat="42.9005710" lon="-2.5428900">
        <ele>542.0</ele>
        <time>2020-09-13T15:22:30Z</time>
      </trkpt>
      <trkpt lat="42.9005710" lon="-2.5428900">
        <ele>542.2</ele>
        <time>2020-09-13T15:22:34Z</time>
      </trkpt>
      <trkpt lat="42.9005710" lon="-2.5428900">
        <ele>541.6</ele>
        <time>2020-09-13T15:22:38Z</time>
      </trkpt>
      <trkpt lat="42.9005710" lon="-2.5428900">
        <ele>542.2</ele>
        <time>2020-09-13T15:22:42Z</time>
      </trkpt>
      <trkpt lat="42.9005710" lon="-2.5428900">
        <ele>541.8</ele>
        <time>2020-09-13T15:22:46Z</time>
      </trkpt>
      <trkpt lat="42.9005710" lon="-2.5428900">
        <ele>542.0</ele>
        <time>2020-09-13T15:22:50Z</time>
      </trkpt>
      <trkpt lat="42.9005710" lon="-2.5428900">
        <ele>541.8</ele>
        <time>2020-09-13T15:22:54Z</time>
      </trkpt>
      <trkpt lat="42.9005710" lon="-2.5428900">
        <ele>542.0</ele>
        <time>2020-09-13T15:22:58Z</time>
      </trkpt>
      <trkpt lat="42.9005710" lon="-2.5428900">
        <ele>542.2</ele>
        <time>2020-09-13T15:23:02Z</time>
      </trkpt>
      <trkpt lat="42.9005710" lon="-2.5428900">
        <ele>542.0</ele>
        <time>2020-09-13T15:23:06Z</time>
      </trkpt>
      <trkpt lat="42.9005710" lon="-2.5428900">
        <ele>541.8</ele>
        <time>2020-09-13T15:23:10Z</time>
      </trkpt>
      <trkpt lat="42.9005710" lon="-2.5428900">
        <ele>541.8</ele>
        <time>2020-09-13T15:23:14Z</time>
      </trkpt>
      <trkpt lat="42.9005710" lon="-2.5428900">
        <ele>542.2</ele>
        <time>2020-09-13T15:23:18Z</time>
      </trkpt>
      <trkpt lat="42.9005710" lon="-2.5428900">
        <ele>541.6</ele>
        <time>2020-09-13T15:23:22Z</time>
      </trkpt>
      <trkpt lat="42.9005710" lon="-2.5428900">
        <ele>541.6</ele>
        <time>2020-09-13T15:23:26Z</time>
      </trkpt>
      <trkpt lat="42.9005710" lon="-2.5428900">
        <ele>542.0</ele>
        <time>2020-09-13T15:23:30Z</time>
      </trkpt>
      <trkpt lat="42.9005710" lon="-2.5428900">
        <ele>541.8</ele>
        <time>2020-09-13T15:23:34Z</time>
      </trkpt>
      <trkpt lat="42.9005710" lon="-2.5428900">
        <ele>541.6</ele>
        <time>2020-09-13T15:23:38Z</time>
      </trkpt>
      <trkpt lat="42.9005710" lon="-2.5428900">
        <ele>541.6</ele>
        <time>2020-09-13T15:23:42Z</time>
      </trkpt>
      <trkpt lat="42.9005710" lon="-2.5428900">
        <ele>542.0</ele>
        <time>2020-09-13T15:23:46Z</time>
      </trkpt>
      <trkpt lat="42.9005710" lon="-2.5428900">
        <ele>542.0</ele>
        <time>2020-09-13T15:23:50Z</time>
      </trkpt>
      <trkpt lat="42.9005710" lon="-2.5428900">
        <ele>542.0</ele>
        <time>2020-09-13T15:23:54Z</time>
      </trkpt>
      <trkpt lat="42.9005710" lon="-2.5428900">
        <ele>541.6</ele>
        <time>2020-09-13T15:23:58Z</time>
      </trkpt>
      <trkpt lat="42.9005710" lon="-2.5428900">
        <ele>542.0</ele>
        <time>2020-09-13T15:24:02Z</time>
      </trkpt>
      <trkpt lat="42.9005710" lon="-2.5428900">
        <ele>541.6</ele>
        <time>2020-09-13T15:24:06Z</time>
      </trkpt>
      <trkpt lat="42.9005710" lon="-2.5428900">
        <ele>541.8</ele>
        <time>2020-09-13T15:24:10Z</time>
      </trkpt>
      <trkpt lat="42.9005710" lon="-2.5428900">
        <ele>542.0</ele>
        <time>2020-09-13T15:24:14Z</time>
      </trkpt>
      <trkpt lat="42.9005710" lon="-2.5428900">
        <ele>542.0</ele>
        <time>2020-09-13T15:24:18Z</time>
      </trkpt>
      <trkpt lat="42.9005710" lon="-2.5428900">
        <ele>541.8</ele>
        <time>2020-09-13T15:24:22Z</time>
      </trkpt>
      <trkpt lat="42.9005710" lon="-2.5428900">
        <ele>541.8</ele>
        <time>2020-09-13T15:24:26Z</time>
      </trkpt>
      <trkpt lat="42.9005710" lon="-2.5428900">
        <ele>541.8</ele>
        <time>2020-09-13T15:24:30Z</time>
      </trkpt>
      <trkpt lat="42.9005710" lon="-2.5428900">
        <ele>541.8</ele>
        <time>2020-09-13T15:24:34Z</time>
      </trkpt>
      <trkpt lat="42.9005710" lon="-2.5428900">
        <ele>542.2</ele>
        <time>2020-09-13T15:24:38Z</time>
      </trkpt>
      <trkpt lat="42.9005710" lon="-2.5428900">
        <ele>542.0</ele>
        <time>2020-09-13T15:24:42Z</time>
      </trkpt>
      <trkpt lat="42.9005710" lon="-2.5428900">
        <ele>541.8</ele>
        <time>2020-09-13T15:24:46Z</time>
      </trkpt>
      <trkpt lat="42.9005710" lon="-2.5428900">
        <ele>541.6</ele>
        <time>2020-09-13T15:24:50Z</time>
      </trkpt>
      <trkpt lat="42.9005710" lon="-2.5428900">
        <ele>541.8</ele>
        <time>2020-09-13T15:24:54Z</time>
      </trkpt>
      <trkpt lat="42.9005710" lon="-2.5428900">
        <ele>541.8</ele>
        <time>2020-09-13T15:24:58Z</time>
      </trkpt>
      <trkpt lat="42.9005710" lon="-2.5428900">
        <ele>541.8</ele>
        <time>2020-09-13T15:25:02Z</time>
      </trkpt>
      <trkpt lat="42.9005710" lon="-2.5428900">
        <ele>542.0</ele>
        <time>2020-09-13T15:25:06Z</time>
      </trkpt>
      <trkpt lat="42.9005710" lon="-2.5428900">
        <ele>542.2</ele>
        <time>2020-09-13T15:25:10Z</time>
      </trkpt>
      <trkpt lat="42.9005710" lon="-2.5428900">
        <ele>542.2</ele>
        <time>2020-09-13T15:25:14Z</time>
      </trkpt>
      <trkpt lat="42.9005710" lon="-2.5428900">
        <ele>541.8</ele>
        <time>2020-09-13T15:25:18Z</time>
      </trkpt>
      <trkpt lat="42.9005710" lon="-2.5428900">
        <ele>541.8</ele>
        <time>2020-09-13T15:25:22Z</time>
      </trkpt>
      <trkpt lat="42.9005710" lon="-2.5428900">
        <ele>541.8</ele>
        <time>2020-09-13T15:25:26Z</time>
      </trkpt>
      <trkpt lat="42.9005710" lon="-2.5428900">
        <ele>542.0</ele>
        <time>2020-09-13T15:25:30Z</time>
      </trkpt>
      <trkpt lat="42.9005710" lon="-2.5428900">
        <ele>542.2</ele>
        <time>2020-09-13T15:25:34Z</time>
      </trkpt>
      <trkpt lat="42.9005710" lon="-2.5428900">
        <ele>541.8</ele>
        <time>2020-09-13T15:25:38Z</time>
      </trkpt>
      <trkpt lat="42.9005710" lon="-2.5428900">
        <ele>542.0</ele>
        <time>2020-09-13T15:25:42Z</time>
      </trkpt>
      <trkpt lat="42.9005710" lon="-2.5428900">
        <ele>541.8</ele>
        <time>2020-09-13T15:25:46Z</time>
      </trkpt>
      <trkpt lat="42.9005710" lon="-2.5428900">
        <ele>542.2</ele>
        <time>2020-09-13T15:25:50Z</time>
      </trkpt>
      <trkpt lat="42.9005710" lon="-2.5428900">
        <ele>542.2</ele>
        <time>2020-09-13T15:25:54Z</time>
      </trkpt>
      <trkpt lat="42.9005710" lon="-2.5428900">
        <ele>542.2</ele>
        <time>2020-09-13T15:25:58Z</time>
      </trkpt>
      <trkpt lat="42.9005710" lon="-2.5428900">
        <ele>542.0</ele>
        <time>2020-09-13T15:26:02Z</time>
      </trkpt>
      <trkpt lat="42.9005710" lon="-2.5428900">
        <ele>542.0</ele>
        <time>2020-09-13T15:26:06Z</time>
      </trkpt>
      <trkpt lat="42.9005710" lon="-2.5428900">
        <ele>542.0</ele>
        <time>2020-09-13T15:26:10Z</time>
      </trkpt>
      <trkpt lat="42.9005710" lon="-2.5428900">
        <ele>542.0</ele>
        <time>2020-09-13T15:26:14Z</time>
      </trkpt>
      <trkpt lat="42.9005710" lon="-2.5428900">
        <ele>541.8</ele>
        <time>2020-09-13T15:26:18Z</time>
      </trkpt>
      <trkpt lat="42.9005710" lon="-2.5428900">
        <ele>541.8</ele>
        <time>2020-09-13T15:26:22Z</time>
      </trkpt>
      <trkpt lat="42.9005710" lon="-2.5428900">
        <ele>542.2</ele>
        <time>2020-09-13T15:26:26Z</time>
      </trkpt>
      <trkpt lat="42.9005710" lon="-2.5428900">
        <ele>542.2</ele>
        <time>2020-09-13T15:26:30Z</time>
      </trkpt>
      <trkpt lat="42.9005710" lon="-2.5428900">
        <ele>542.0</ele>
        <time>2020-09-13T15:26:34Z</time>
      </trkpt>
      <trkpt lat="42.9005710" lon="-2.5428900">
        <ele>542.2</ele>
        <time>2020-09-13T15:26:38Z</time>
      </trkpt>
      <trkpt lat="42.9005710" lon="-2.5428900">
        <ele>542.2</ele>
        <time>2020-09-13T15:26:42Z</time>
      </trkpt>
      <trkpt lat="42.9005710" lon="-2.5428900">
        <ele>542.2</ele>
        <time>2020-09-13T15:26:46Z</time>
      </trkpt>
      <trkpt lat="42.9005710" lon="-2.5428900">
        <ele>541.6</ele>
        <time>2020-09-13T15:26:50Z</time>
      </trkpt>
      <trkpt lat="42.9005710" lon="-2.5428900">
        <ele>542.2</ele>
        <time>2020-09-13T15:26:54Z</time>
      </trkpt>
      <trkpt lat="42.9005710" lon="-2.5428900">
        <ele>542.0</ele>
        <time>2020-09-13T15:26:58Z</time>
      </trkpt>
      <trkpt lat="42.9005710" lon="-2.5428900">
        <ele>542.2</ele>
        <time>2020-09-13T15:27:02Z</time>
      </trkpt>
      <trkpt lat="42.9005710" lon="-2.5428900">
        <ele>542.0</ele>
        <time>2020-09-13T15:27:06Z</time>
      </trkpt>
      <trkpt lat="42.9005710" lon="-2.5428900">
        <ele>542.2</ele>
        <time>2020-09-13T15:27:10Z</time>
      </trkpt>
      <trkpt lat="42.9005710" lon="-2.5428900">
        <ele>542.2</ele>
        <time>2020-09-13T15:27:14Z</time>
      </trkpt>
      <trkpt lat="42.9005710" lon="-2.5428900">
        <ele>542.2</ele>
        <time>2020-09-13T15:27:18Z</time>
      </trkpt>
      <trkpt lat="42.9005710" lon="-2.5428900">
        <ele>542.2</ele>
        <time>2020-09-13T15:27:22Z</time>
      </trkpt>
      <trkpt lat="42.9005710" lon="-2.5428900">
        <ele>541.8</ele>
        <time>2020-09-13T15:27:26Z</time>
      </trkpt>
      <trkpt lat="42.9005710" lon="-2.5428900">
        <ele>542.2</ele>
        <time>2020-09-13T15:27:30Z</time>
      </trkpt>
      <trkpt lat="42.9005710" lon="-2.5428900">
        <ele>542.2</ele>
        <time>2020-09-13T15:27:34Z</time>
      </trkpt>
      <trkpt lat="42.9005710" lon="-2.5428900">
        <ele>542.2</ele>
        <time>2020-09-13T15:27:38Z</time>
      </trkpt>
      <trkpt lat="42.9005710" lon="-2.5428900">
        <ele>541.8</ele>
        <time>2020-09-13T15:27:42Z</time>
      </trkpt>
      <trkpt lat="42.9005710" lon="-2.5428900">
        <ele>542.2</ele>
        <time>2020-09-13T15:27:46Z</time>
      </trkpt>
      <trkpt lat="42.9005710" lon="-2.5428900">
        <ele>542.2</ele>
        <time>2020-09-13T15:27:50Z</time>
      </trkpt>
      <trkpt lat="42.9005710" lon="-2.5428900">
        <ele>542.2</ele>
        <time>2020-09-13T15:27:54Z</time>
      </trkpt>
      <trkpt lat="42.9005710" lon="-2.5428900">
        <ele>542.0</ele>
        <time>2020-09-13T15:27:58Z</time>
      </trkpt>
      <trkpt lat="42.9005710" lon="-2.5428900">
        <ele>542.2</ele>
        <time>2020-09-13T15:28:02Z</time>
      </trkpt>
      <trkpt lat="42.9005710" lon="-2.5428900">
        <ele>542.0</ele>
        <time>2020-09-13T15:28:06Z</time>
      </trkpt>
      <trkpt lat="42.9005710" lon="-2.5428900">
        <ele>542.2</ele>
        <time>2020-09-13T15:28:10Z</time>
      </trkpt>
      <trkpt lat="42.9005710" lon="-2.5428900">
        <ele>542.2</ele>
        <time>2020-09-13T15:28:14Z</time>
      </trkpt>
      <trkpt lat="42.9005710" lon="-2.5428900">
        <ele>542.2</ele>
        <time>2020-09-13T15:28:18Z</time>
      </trkpt>
      <trkpt lat="42.9005710" lon="-2.5428900">
        <ele>542.2</ele>
        <time>2020-09-13T15:28:22Z</time>
      </trkpt>
      <trkpt lat="42.9005710" lon="-2.5428900">
        <ele>542.0</ele>
        <time>2020-09-13T15:28:26Z</time>
      </trkpt>
      <trkpt lat="42.9005710" lon="-2.5428900">
        <ele>542.2</ele>
        <time>2020-09-13T15:28:30Z</time>
      </trkpt>
      <trkpt lat="42.9005710" lon="-2.5428900">
        <ele>542.2</ele>
        <time>2020-09-13T15:28:34Z</time>
      </trkpt>
      <trkpt lat="42.9005710" lon="-2.5428900">
        <ele>542.2</ele>
        <time>2020-09-13T15:28:38Z</time>
      </trkpt>
      <trkpt lat="42.9005710" lon="-2.5428900">
        <ele>542.2</ele>
        <time>2020-09-13T15:28:42Z</time>
      </trkpt>
      <trkpt lat="42.9005710" lon="-2.5428900">
        <ele>542.2</ele>
        <time>2020-09-13T15:28:46Z</time>
      </trkpt>
      <trkpt lat="42.9005710" lon="-2.5428900">
        <ele>542.4</ele>
        <time>2020-09-13T15:28:50Z</time>
      </trkpt>
      <trkpt lat="42.9005710" lon="-2.5428900">
        <ele>542.2</ele>
        <time>2020-09-13T15:28:54Z</time>
      </trkpt>
      <trkpt lat="42.9005710" lon="-2.5428900">
        <ele>542.2</ele>
        <time>2020-09-13T15:28:58Z</time>
      </trkpt>
      <trkpt lat="42.9005710" lon="-2.5428900">
        <ele>542.4</ele>
        <time>2020-09-13T15:29:02Z</time>
      </trkpt>
      <trkpt lat="42.9005710" lon="-2.5428900">
        <ele>542.4</ele>
        <time>2020-09-13T15:29:06Z</time>
      </trkpt>
      <trkpt lat="42.9005710" lon="-2.5428900">
        <ele>542.4</ele>
        <time>2020-09-13T15:29:10Z</time>
      </trkpt>
      <trkpt lat="42.9005710" lon="-2.5428900">
        <ele>542.4</ele>
        <time>2020-09-13T15:29:14Z</time>
      </trkpt>
      <trkpt lat="42.9005710" lon="-2.5428900">
        <ele>542.4</ele>
        <time>2020-09-13T15:29:18Z</time>
      </trkpt>
      <trkpt lat="42.9005710" lon="-2.5428900">
        <ele>542.6</ele>
        <time>2020-09-13T15:29:22Z</time>
      </trkpt>
      <trkpt lat="42.9005710" lon="-2.5428900">
        <ele>542.4</ele>
        <time>2020-09-13T15:29:26Z</time>
      </trkpt>
      <trkpt lat="42.9005710" lon="-2.5428900">
        <ele>542.6</ele>
        <time>2020-09-13T15:29:30Z</time>
      </trkpt>
      <trkpt lat="42.9005710" lon="-2.5428900">
        <ele>542.4</ele>
        <time>2020-09-13T15:29:34Z</time>
      </trkpt>
      <trkpt lat="42.9005710" lon="-2.5428900">
        <ele>542.4</ele>
        <time>2020-09-13T15:29:38Z</time>
      </trkpt>
      <trkpt lat="42.9005710" lon="-2.5428900">
        <ele>542.2</ele>
        <time>2020-09-13T15:29:42Z</time>
      </trkpt>
      <trkpt lat="42.9005710" lon="-2.5428900">
        <ele>542.2</ele>
        <time>2020-09-13T15:29:46Z</time>
      </trkpt>
      <trkpt lat="42.9005710" lon="-2.5428900">
        <ele>542.2</ele>
        <time>2020-09-13T15:29:50Z</time>
      </trkpt>
      <trkpt lat="42.9005710" lon="-2.5428900">
        <ele>542.4</ele>
        <time>2020-09-13T15:29:54Z</time>
      </trkpt>
      <trkpt lat="42.9005710" lon="-2.5428900">
        <ele>542.4</ele>
        <time>2020-09-13T15:29:58Z</time>
      </trkpt>
      <trkpt lat="42.9005710" lon="-2.5428900">
        <ele>542.6</ele>
        <time>2020-09-13T15:30:02Z</time>
      </trkpt>
      <trkpt lat="42.9005710" lon="-2.5428900">
        <ele>542.6</ele>
        <time>2020-09-13T15:30:06Z</time>
      </trkpt>
      <trkpt lat="42.9005710" lon="-2.5428900">
        <ele>542.4</ele>
        <time>2020-09-13T15:30:10Z</time>
      </trkpt>
      <trkpt lat="42.9005710" lon="-2.5428900">
        <ele>542.4</ele>
        <time>2020-09-13T15:30:14Z</time>
      </trkpt>
      <trkpt lat="42.9005710" lon="-2.5428900">
        <ele>542.6</ele>
        <time>2020-09-13T15:30:18Z</time>
      </trkpt>
      <trkpt lat="42.9005710" lon="-2.5428900">
        <ele>542.2</ele>
        <time>2020-09-13T15:30:22Z</time>
      </trkpt>
      <trkpt lat="42.9005710" lon="-2.5428900">
        <ele>542.4</ele>
        <time>2020-09-13T15:30:26Z</time>
      </trkpt>
      <trkpt lat="42.9005710" lon="-2.5428900">
        <ele>542.4</ele>
        <time>2020-09-13T15:30:30Z</time>
      </trkpt>
      <trkpt lat="42.9005710" lon="-2.5428900">
        <ele>542.2</ele>
        <time>2020-09-13T15:30:34Z</time>
      </trkpt>
      <trkpt lat="42.9005710" lon="-2.5428900">
        <ele>542.2</ele>
        <time>2020-09-13T15:30:38Z</time>
      </trkpt>
      <trkpt lat="42.9005710" lon="-2.5428900">
        <ele>542.4</ele>
        <time>2020-09-13T15:30:42Z</time>
      </trkpt>
      <trkpt lat="42.9005710" lon="-2.5428900">
        <ele>542.2</ele>
        <time>2020-09-13T15:30:46Z</time>
      </trkpt>
      <trkpt lat="42.9005710" lon="-2.5428900">
        <ele>542.2</ele>
        <time>2020-09-13T15:30:50Z</time>
      </trkpt>
      <trkpt lat="42.9005710" lon="-2.5428900">
        <ele>542.4</ele>
        <time>2020-09-13T15:30:54Z</time>
      </trkpt>
      <trkpt lat="42.9005710" lon="-2.5428900">
        <ele>542.0</ele>
        <time>2020-09-13T15:30:58Z</time>
      </trkpt>
      <trkpt lat="42.9005710" lon="-2.5428900">
        <ele>542.2</ele>
        <time>2020-09-13T15:31:02Z</time>
      </trkpt>
      <trkpt lat="42.9005710" lon="-2.5428900">
        <ele>542.8</ele>
        <time>2020-09-13T15:31:06Z</time>
      </trkpt>
      <trkpt lat="42.9005710" lon="-2.5428900">
        <ele>542.6</ele>
        <time>2020-09-13T15:31:10Z</time>
      </trkpt>
      <trkpt lat="42.9005710" lon="-2.5428900">
        <ele>542.4</ele>
        <time>2020-09-13T15:31:14Z</time>
      </trkpt>
      <trkpt lat="42.9005710" lon="-2.5428900">
        <ele>542.8</ele>
        <time>2020-09-13T15:31:18Z</time>
      </trkpt>
      <trkpt lat="42.9005710" lon="-2.5428900">
        <ele>542.6</ele>
        <time>2020-09-13T15:31:22Z</time>
      </trkpt>
      <trkpt lat="42.9005710" lon="-2.5428900">
        <ele>542.4</ele>
        <time>2020-09-13T15:31:26Z</time>
      </trkpt>
      <trkpt lat="42.9005710" lon="-2.5428900">
        <ele>542.6</ele>
        <time>2020-09-13T15:31:30Z</time>
      </trkpt>
      <trkpt lat="42.9005710" lon="-2.5428900">
        <ele>542.2</ele>
        <time>2020-09-13T15:31:34Z</time>
      </trkpt>
      <trkpt lat="42.9005710" lon="-2.5428900">
        <ele>542.4</ele>
        <time>2020-09-13T15:31:38Z</time>
      </trkpt>
      <trkpt lat="42.9005710" lon="-2.5428900">
        <ele>542.4</ele>
        <time>2020-09-13T15:31:42Z</time>
      </trkpt>
      <trkpt lat="42.9005710" lon="-2.5428900">
        <ele>542.6</ele>
        <time>2020-09-13T15:31:46Z</time>
      </trkpt>
      <trkpt lat="42.9005710" lon="-2.5428900">
        <ele>542.6</ele>
        <time>2020-09-13T15:31:50Z</time>
      </trkpt>
      <trkpt lat="42.9005710" lon="-2.5428900">
        <ele>542.4</ele>
        <time>2020-09-13T15:31:54Z</time>
      </trkpt>
      <trkpt lat="42.9005710" lon="-2.5428900">
        <ele>542.6</ele>
        <time>2020-09-13T15:31:58Z</time>
      </trkpt>
      <trkpt lat="42.9005710" lon="-2.5428900">
        <ele>542.8</ele>
        <time>2020-09-13T15:32:02Z</time>
      </trkpt>
      <trkpt lat="42.9005710" lon="-2.5428900">
        <ele>542.6</ele>
        <time>2020-09-13T15:32:06Z</time>
      </trkpt>
      <trkpt lat="42.9005710" lon="-2.5428900">
        <ele>542.6</ele>
        <time>2020-09-13T15:32:10Z</time>
      </trkpt>
      <trkpt lat="42.9005710" lon="-2.5428900">
        <ele>542.8</ele>
        <time>2020-09-13T15:32:14Z</time>
      </trkpt>
      <trkpt lat="42.9005710" lon="-2.5428900">
        <ele>542.8</ele>
        <time>2020-09-13T15:32:18Z</time>
      </trkpt>
      <trkpt lat="42.9005710" lon="-2.5428900">
        <ele>542.6</ele>
        <time>2020-09-13T15:32:22Z</time>
      </trkpt>
      <trkpt lat="42.9005710" lon="-2.5428900">
        <ele>542.6</ele>
        <time>2020-09-13T15:32:26Z</time>
      </trkpt>
      <trkpt lat="42.9005710" lon="-2.5428900">
        <ele>543.0</ele>
        <time>2020-09-13T15:32:30Z</time>
      </trkpt>
      <trkpt lat="42.9005710" lon="-2.5428900">
        <ele>542.4</ele>
        <time>2020-09-13T15:32:34Z</time>
      </trkpt>
      <trkpt lat="42.9005710" lon="-2.5428900">
        <ele>542.8</ele>
        <time>2020-09-13T15:32:38Z</time>
      </trkpt>
      <trkpt lat="42.9005710" lon="-2.5428900">
        <ele>542.8</ele>
        <time>2020-09-13T15:32:42Z</time>
      </trkpt>
      <trkpt lat="42.9005710" lon="-2.5428900">
        <ele>542.8</ele>
        <time>2020-09-13T15:32:46Z</time>
      </trkpt>
      <trkpt lat="42.9005710" lon="-2.5428900">
        <ele>543.0</ele>
        <time>2020-09-13T15:32:50Z</time>
      </trkpt>
      <trkpt lat="42.9005710" lon="-2.5428900">
        <ele>543.2</ele>
        <time>2020-09-13T15:32:54Z</time>
      </trkpt>
      <trkpt lat="42.9005710" lon="-2.5428900">
        <ele>543.2</ele>
        <time>2020-09-13T15:32:58Z</time>
      </trkpt>
      <trkpt lat="42.9005710" lon="-2.5428900">
        <ele>543.0</ele>
        <time>2020-09-13T15:33:02Z</time>
      </trkpt>
      <trkpt lat="42.9005710" lon="-2.5428900">
        <ele>542.6</ele>
        <time>2020-09-13T15:33:06Z</time>
      </trkpt>
      <trkpt lat="42.9005710" lon="-2.5428900">
        <ele>542.8</ele>
        <time>2020-09-13T15:33:10Z</time>
      </trkpt>
      <trkpt lat="42.9005710" lon="-2.5428900">
        <ele>542.8</ele>
        <time>2020-09-13T15:33:14Z</time>
      </trkpt>
      <trkpt lat="42.9005710" lon="-2.5428900">
        <ele>542.2</ele>
        <time>2020-09-13T15:33:18Z</time>
      </trkpt>
      <trkpt lat="42.9005710" lon="-2.5428900">
        <ele>542.8</ele>
        <time>2020-09-13T15:33:22Z</time>
      </trkpt>
      <trkpt lat="42.9005710" lon="-2.5428900">
        <ele>542.2</ele>
        <time>2020-09-13T15:33:26Z</time>
      </trkpt>
      <trkpt lat="42.9005710" lon="-2.5428900">
        <ele>542.6</ele>
        <time>2020-09-13T15:33:30Z</time>
      </trkpt>
      <trkpt lat="42.9005710" lon="-2.5428900">
        <ele>542.8</ele>
        <time>2020-09-13T15:33:34Z</time>
      </trkpt>
      <trkpt lat="42.9005710" lon="-2.5428900">
        <ele>542.6</ele>
        <time>2020-09-13T15:33:38Z</time>
      </trkpt>
      <trkpt lat="42.9005710" lon="-2.5428900">
        <ele>542.6</ele>
        <time>2020-09-13T15:33:42Z</time>
      </trkpt>
      <trkpt lat="42.9005710" lon="-2.5428900">
        <ele>542.8</ele>
        <time>2020-09-13T15:33:46Z</time>
      </trkpt>
      <trkpt lat="42.9005710" lon="-2.5428900">
        <ele>542.8</ele>
        <time>2020-09-13T15:33:50Z</time>
      </trkpt>
      <trkpt lat="42.9005710" lon="-2.5428900">
        <ele>542.6</ele>
        <time>2020-09-13T15:33:54Z</time>
      </trkpt>
      <trkpt lat="42.9005710" lon="-2.5428900">
        <ele>542.8</ele>
        <time>2020-09-13T15:33:58Z</time>
      </trkpt>
      <trkpt lat="42.9005710" lon="-2.5428900">
        <ele>543.0</ele>
        <time>2020-09-13T15:34:02Z</time>
      </trkpt>
      <trkpt lat="42.9005710" lon="-2.5428900">
        <ele>542.6</ele>
        <time>2020-09-13T15:34:06Z</time>
      </trkpt>
      <trkpt lat="42.9005710" lon="-2.5428900">
        <ele>542.4</ele>
        <time>2020-09-13T15:34:10Z</time>
      </trkpt>
      <trkpt lat="42.9005710" lon="-2.5428900">
        <ele>542.6</ele>
        <time>2020-09-13T15:34:14Z</time>
      </trkpt>
      <trkpt lat="42.9005710" lon="-2.5428900">
        <ele>542.4</ele>
        <time>2020-09-13T15:34:18Z</time>
      </trkpt>
      <trkpt lat="42.9005710" lon="-2.5428900">
        <ele>542.4</ele>
        <time>2020-09-13T15:34:22Z</time>
      </trkpt>
      <trkpt lat="42.9005710" lon="-2.5428900">
        <ele>543.0</ele>
        <time>2020-09-13T15:34:26Z</time>
      </trkpt>
      <trkpt lat="42.9005710" lon="-2.5428900">
        <ele>542.8</ele>
        <time>2020-09-13T15:34:30Z</time>
      </trkpt>
      <trkpt lat="42.9005710" lon="-2.5428900">
        <ele>543.0</ele>
        <time>2020-09-13T15:34:34Z</time>
      </trkpt>
      <trkpt lat="42.9005710" lon="-2.5428900">
        <ele>542.6</ele>
        <time>2020-09-13T15:34:38Z</time>
      </trkpt>
      <trkpt lat="42.9005710" lon="-2.5428900">
        <ele>542.6</ele>
        <time>2020-09-13T15:34:42Z</time>
      </trkpt>
      <trkpt lat="42.9005710" lon="-2.5428900">
        <ele>542.4</ele>
        <time>2020-09-13T15:34:46Z</time>
      </trkpt>
      <trkpt lat="42.9005710" lon="-2.5428900">
        <ele>542.6</ele>
        <time>2020-09-13T15:34:50Z</time>
      </trkpt>
      <trkpt lat="42.9005710" lon="-2.5428900">
        <ele>542.8</ele>
        <time>2020-09-13T15:34:54Z</time>
      </trkpt>
      <trkpt lat="42.9005710" lon="-2.5428900">
        <ele>542.4</ele>
        <time>2020-09-13T15:34:58Z</time>
      </trkpt>
      <trkpt lat="42.9005710" lon="-2.5428900">
        <ele>542.8</ele>
        <time>2020-09-13T15:35:02Z</time>
      </trkpt>
      <trkpt lat="42.9005710" lon="-2.5428900">
        <ele>542.8</ele>
        <time>2020-09-13T15:35:06Z</time>
      </trkpt>
      <trkpt lat="42.9005710" lon="-2.5428900">
        <ele>542.6</ele>
        <time>2020-09-13T15:35:10Z</time>
      </trkpt>
      <trkpt lat="42.9005710" lon="-2.5428900">
        <ele>543.0</ele>
        <time>2020-09-13T15:35:14Z</time>
      </trkpt>
      <trkpt lat="42.9005710" lon="-2.5428900">
        <ele>543.0</ele>
        <time>2020-09-13T15:35:18Z</time>
      </trkpt>
      <trkpt lat="42.9005710" lon="-2.5428900">
        <ele>543.0</ele>
        <time>2020-09-13T15:35:22Z</time>
      </trkpt>
      <trkpt lat="42.9005710" lon="-2.5428900">
        <ele>543.0</ele>
        <time>2020-09-13T15:35:26Z</time>
      </trkpt>
      <trkpt lat="42.9005710" lon="-2.5428900">
        <ele>542.6</ele>
        <time>2020-09-13T15:35:30Z</time>
      </trkpt>
      <trkpt lat="42.9005710" lon="-2.5428900">
        <ele>543.2</ele>
        <time>2020-09-13T15:35:34Z</time>
      </trkpt>
      <trkpt lat="42.9005710" lon="-2.5428900">
        <ele>543.2</ele>
        <time>2020-09-13T15:35:38Z</time>
      </trkpt>
      <trkpt lat="42.9005710" lon="-2.5428900">
        <ele>542.6</ele>
        <time>2020-09-13T15:35:42Z</time>
      </trkpt>
      <trkpt lat="42.9005710" lon="-2.5428900">
        <ele>542.4</ele>
        <time>2020-09-13T15:35:46Z</time>
      </trkpt>
      <trkpt lat="42.9005710" lon="-2.5428900">
        <ele>542.8</ele>
        <time>2020-09-13T15:35:50Z</time>
      </trkpt>
      <trkpt lat="42.9005710" lon="-2.5428900">
        <ele>543.4</ele>
        <time>2020-09-13T15:35:54Z</time>
      </trkpt>
      <trkpt lat="42.9005710" lon="-2.5428900">
        <ele>543.8</ele>
        <time>2020-09-13T15:35:58Z</time>
      </trkpt>
      <trkpt lat="42.9005710" lon="-2.5428900">
        <ele>543.0</ele>
        <time>2020-09-13T15:36:02Z</time>
      </trkpt>
      <trkpt lat="42.9005710" lon="-2.5428900">
        <ele>543.4</ele>
        <time>2020-09-13T15:36:06Z</time>
      </trkpt>
      <trkpt lat="42.9005710" lon="-2.5428900">
        <ele>543.0</ele>
        <time>2020-09-13T15:36:10Z</time>
      </trkpt>
      <trkpt lat="42.9005710" lon="-2.5428900">
        <ele>543.2</ele>
        <time>2020-09-13T15:36:14Z</time>
      </trkpt>
      <trkpt lat="42.9005710" lon="-2.5428900">
        <ele>543.4</ele>
        <time>2020-09-13T15:36:18Z</time>
      </trkpt>
      <trkpt lat="42.9005710" lon="-2.5428900">
        <ele>543.4</ele>
        <time>2020-09-13T15:36:22Z</time>
      </trkpt>
      <trkpt lat="42.9005710" lon="-2.5428900">
        <ele>543.8</ele>
        <time>2020-09-13T15:36:26Z</time>
      </trkpt>
      <trkpt lat="42.9005710" lon="-2.5428900">
        <ele>543.2</ele>
        <time>2020-09-13T15:36:30Z</time>
      </trkpt>
      <trkpt lat="42.9005710" lon="-2.5428900">
        <ele>543.4</ele>
        <time>2020-09-13T15:36:34Z</time>
      </trkpt>
      <trkpt lat="42.9005710" lon="-2.5428900">
        <ele>543.2</ele>
        <time>2020-09-13T15:36:38Z</time>
      </trkpt>
      <trkpt lat="42.9005710" lon="-2.5428900">
        <ele>543.2</ele>
        <time>2020-09-13T15:36:42Z</time>
      </trkpt>
      <trkpt lat="42.9005710" lon="-2.5428900">
        <ele>543.2</ele>
        <time>2020-09-13T15:36:46Z</time>
      </trkpt>
      <trkpt lat="42.9005710" lon="-2.5428900">
        <ele>543.2</ele>
        <time>2020-09-13T15:36:50Z</time>
      </trkpt>
      <trkpt lat="42.9005710" lon="-2.5428900">
        <ele>543.2</ele>
        <time>2020-09-13T15:36:54Z</time>
      </trkpt>
      <trkpt lat="42.9005710" lon="-2.5428900">
        <ele>543.2</ele>
        <time>2020-09-13T15:36:58Z</time>
      </trkpt>
      <trkpt lat="42.9005710" lon="-2.5428900">
        <ele>543.0</ele>
        <time>2020-09-13T15:37:02Z</time>
      </trkpt>
      <trkpt lat="42.9005710" lon="-2.5428900">
        <ele>543.2</ele>
        <time>2020-09-13T15:37:06Z</time>
      </trkpt>
      <trkpt lat="42.9005710" lon="-2.5428900">
        <ele>543.4</ele>
        <time>2020-09-13T15:37:10Z</time>
      </trkpt>
      <trkpt lat="42.9005710" lon="-2.5428900">
        <ele>543.2</ele>
        <time>2020-09-13T15:37:14Z</time>
      </trkpt>
      <trkpt lat="42.9005710" lon="-2.5428900">
        <ele>543.6</ele>
        <time>2020-09-13T15:37:18Z</time>
      </trkpt>
      <trkpt lat="42.9005710" lon="-2.5428900">
        <ele>543.2</ele>
        <time>2020-09-13T15:37:22Z</time>
      </trkpt>
      <trkpt lat="42.9005710" lon="-2.5428900">
        <ele>543.2</ele>
        <time>2020-09-13T15:37:26Z</time>
      </trkpt>
      <trkpt lat="42.9005710" lon="-2.5428900">
        <ele>543.2</ele>
        <time>2020-09-13T15:37:30Z</time>
      </trkpt>
      <trkpt lat="42.9005710" lon="-2.5428900">
        <ele>543.0</ele>
        <time>2020-09-13T15:37:34Z</time>
      </trkpt>
      <trkpt lat="42.9005710" lon="-2.5428900">
        <ele>543.2</ele>
        <time>2020-09-13T15:37:38Z</time>
      </trkpt>
      <trkpt lat="42.9005710" lon="-2.5428900">
        <ele>543.2</ele>
        <time>2020-09-13T15:37:42Z</time>
      </trkpt>
      <trkpt lat="42.9005710" lon="-2.5428900">
        <ele>543.4</ele>
        <time>2020-09-13T15:37:46Z</time>
      </trkpt>
      <trkpt lat="42.9005710" lon="-2.5428900">
        <ele>543.2</ele>
        <time>2020-09-13T15:37:50Z</time>
      </trkpt>
      <trkpt lat="42.9005710" lon="-2.5428900">
        <ele>543.2</ele>
        <time>2020-09-13T15:37:54Z</time>
      </trkpt>
      <trkpt lat="42.9005710" lon="-2.5428900">
        <ele>543.0</ele>
        <time>2020-09-13T15:37:58Z</time>
      </trkpt>
      <trkpt lat="42.9005710" lon="-2.5428900">
        <ele>543.2</ele>
        <time>2020-09-13T15:38:02Z</time>
      </trkpt>
      <trkpt lat="42.9005710" lon="-2.5428900">
        <ele>543.4</ele>
        <time>2020-09-13T15:38:06Z</time>
      </trkpt>
      <trkpt lat="42.9005710" lon="-2.5428900">
        <ele>543.2</ele>
        <time>2020-09-13T15:38:10Z</time>
      </trkpt>
      <trkpt lat="42.9005710" lon="-2.5428900">
        <ele>543.0</ele>
        <time>2020-09-13T15:38:14Z</time>
      </trkpt>
      <trkpt lat="42.9005710" lon="-2.5428900">
        <ele>543.2</ele>
        <time>2020-09-13T15:38:18Z</time>
      </trkpt>
      <trkpt lat="42.9005710" lon="-2.5428900">
        <ele>543.6</ele>
        <time>2020-09-13T15:38:22Z</time>
      </trkpt>
      <trkpt lat="42.9005710" lon="-2.5428900">
        <ele>543.0</ele>
        <time>2020-09-13T15:38:26Z</time>
      </trkpt>
      <trkpt lat="42.9005710" lon="-2.5428900">
        <ele>543.4</ele>
        <time>2020-09-13T15:38:30Z</time>
      </trkpt>
      <trkpt lat="42.9005710" lon="-2.5428900">
        <ele>543.2</ele>
        <time>2020-09-13T15:38:34Z</time>
      </trkpt>
      <trkpt lat="42.9005710" lon="-2.5428900">
        <ele>543.0</ele>
        <time>2020-09-13T15:38:38Z</time>
      </trkpt>
      <trkpt lat="42.9005710" lon="-2.5428900">
        <ele>543.2</ele>
        <time>2020-09-13T15:38:42Z</time>
      </trkpt>
      <trkpt lat="42.9005710" lon="-2.5428900">
        <ele>543.4</ele>
        <time>2020-09-13T15:38:46Z</time>
      </trkpt>
      <trkpt lat="42.9005710" lon="-2.5428900">
        <ele>543.6</ele>
        <time>2020-09-13T15:38:50Z</time>
      </trkpt>
      <trkpt lat="42.9005710" lon="-2.5428900">
        <ele>543.2</ele>
        <time>2020-09-13T15:38:54Z</time>
      </trkpt>
      <trkpt lat="42.9005710" lon="-2.5428900">
        <ele>543.2</ele>
        <time>2020-09-13T15:38:58Z</time>
      </trkpt>
      <trkpt lat="42.9005710" lon="-2.5428900">
        <ele>543.4</ele>
        <time>2020-09-13T15:39:02Z</time>
      </trkpt>
      <trkpt lat="42.9005710" lon="-2.5428900">
        <ele>543.4</ele>
        <time>2020-09-13T15:39:06Z</time>
      </trkpt>
      <trkpt lat="42.9005710" lon="-2.5428900">
        <ele>543.6</ele>
        <time>2020-09-13T15:39:10Z</time>
      </trkpt>
      <trkpt lat="42.9005710" lon="-2.5428900">
        <ele>543.6</ele>
        <time>2020-09-13T15:39:14Z</time>
      </trkpt>
      <trkpt lat="42.9005710" lon="-2.5428900">
        <ele>543.4</ele>
        <time>2020-09-13T15:39:18Z</time>
      </trkpt>
      <trkpt lat="42.9005710" lon="-2.5428900">
        <ele>543.0</ele>
        <time>2020-09-13T15:39:22Z</time>
      </trkpt>
      <trkpt lat="42.9005710" lon="-2.5428900">
        <ele>543.4</ele>
        <time>2020-09-13T15:39:26Z</time>
      </trkpt>
      <trkpt lat="42.9005710" lon="-2.5428900">
        <ele>543.6</ele>
        <time>2020-09-13T15:39:30Z</time>
      </trkpt>
      <trkpt lat="42.9005710" lon="-2.5428900">
        <ele>543.6</ele>
        <time>2020-09-13T15:39:34Z</time>
      </trkpt>
      <trkpt lat="42.9005710" lon="-2.5428900">
        <ele>543.0</ele>
        <time>2020-09-13T15:39:38Z</time>
      </trkpt>
      <trkpt lat="42.9005710" lon="-2.5428900">
        <ele>543.6</ele>
        <time>2020-09-13T15:39:42Z</time>
      </trkpt>
      <trkpt lat="42.9005710" lon="-2.5428900">
        <ele>544.0</ele>
        <time>2020-09-13T15:39:46Z</time>
      </trkpt>
      <trkpt lat="42.9005710" lon="-2.5428900">
        <ele>543.4</ele>
        <time>2020-09-13T15:39:50Z</time>
      </trkpt>
      <trkpt lat="42.9005710" lon="-2.5428900">
        <ele>543.4</ele>
        <time>2020-09-13T15:39:54Z</time>
      </trkpt>
      <trkpt lat="42.9005710" lon="-2.5428900">
        <ele>543.4</ele>
        <time>2020-09-13T15:39:58Z</time>
      </trkpt>
      <trkpt lat="42.9005710" lon="-2.5428900">
        <ele>543.0</ele>
        <time>2020-09-13T15:40:02Z</time>
      </trkpt>
      <trkpt lat="42.9005710" lon="-2.5428900">
        <ele>543.6</ele>
        <time>2020-09-13T15:40:06Z</time>
      </trkpt>
      <trkpt lat="42.9005710" lon="-2.5428900">
        <ele>543.4</ele>
        <time>2020-09-13T15:40:10Z</time>
      </trkpt>
      <trkpt lat="42.9005710" lon="-2.5428900">
        <ele>543.6</ele>
        <time>2020-09-13T15:40:14Z</time>
      </trkpt>
      <trkpt lat="42.9005710" lon="-2.5428900">
        <ele>543.0</ele>
        <time>2020-09-13T15:40:18Z</time>
      </trkpt>
      <trkpt lat="42.9005710" lon="-2.5428900">
        <ele>543.2</ele>
        <time>2020-09-13T15:40:22Z</time>
      </trkpt>
      <trkpt lat="42.9005710" lon="-2.5428900">
        <ele>543.6</ele>
        <time>2020-09-13T15:40:26Z</time>
      </trkpt>
      <trkpt lat="42.9005710" lon="-2.5428900">
        <ele>543.6</ele>
        <time>2020-09-13T15:40:30Z</time>
      </trkpt>
      <trkpt lat="42.9005710" lon="-2.5428900">
        <ele>543.4</ele>
        <time>2020-09-13T15:40:34Z</time>
      </trkpt>
      <trkpt lat="42.9005710" lon="-2.5428900">
        <ele>543.8</ele>
        <time>2020-09-13T15:40:38Z</time>
      </trkpt>
      <trkpt lat="42.9005710" lon="-2.5428900">
        <ele>543.4</ele>
        <time>2020-09-13T15:40:42Z</time>
      </trkpt>
      <trkpt lat="42.9005710" lon="-2.5428900">
        <ele>543.8</ele>
        <time>2020-09-13T15:40:46Z</time>
      </trkpt>
      <trkpt lat="42.9005710" lon="-2.5428900">
        <ele>543.4</ele>
        <time>2020-09-13T15:40:50Z</time>
      </trkpt>
      <trkpt lat="42.9005710" lon="-2.5428900">
        <ele>544.0</ele>
        <time>2020-09-13T15:40:54Z</time>
      </trkpt>
      <trkpt lat="42.9005710" lon="-2.5428900">
        <ele>543.8</ele>
        <time>2020-09-13T15:40:58Z</time>
      </trkpt>
      <trkpt lat="42.9005710" lon="-2.5428900">
        <ele>543.8</ele>
        <time>2020-09-13T15:41:02Z</time>
      </trkpt>
      <trkpt lat="42.9005710" lon="-2.5428900">
        <ele>543.6</ele>
        <time>2020-09-13T15:41:06Z</time>
      </trkpt>
      <trkpt lat="42.9005710" lon="-2.5428900">
        <ele>543.4</ele>
        <time>2020-09-13T15:41:10Z</time>
      </trkpt>
      <trkpt lat="42.9005710" lon="-2.5428900">
        <ele>543.6</ele>
        <time>2020-09-13T15:41:14Z</time>
      </trkpt>
      <trkpt lat="42.9005710" lon="-2.5428900">
        <ele>543.6</ele>
        <time>2020-09-13T15:41:18Z</time>
      </trkpt>
      <trkpt lat="42.9005710" lon="-2.5428900">
        <ele>543.4</ele>
        <time>2020-09-13T15:41:22Z</time>
      </trkpt>
      <trkpt lat="42.9005710" lon="-2.5428900">
        <ele>543.6</ele>
        <time>2020-09-13T15:41:26Z</time>
      </trkpt>
      <trkpt lat="42.9005710" lon="-2.5428900">
        <ele>543.6</ele>
        <time>2020-09-13T15:41:30Z</time>
      </trkpt>
      <trkpt lat="42.9005710" lon="-2.5428900">
        <ele>543.6</ele>
        <time>2020-09-13T15:41:34Z</time>
      </trkpt>
      <trkpt lat="42.9005710" lon="-2.5428900">
        <ele>544.0</ele>
        <time>2020-09-13T15:41:38Z</time>
      </trkpt>
      <trkpt lat="42.9005710" lon="-2.5428900">
        <ele>544.0</ele>
        <time>2020-09-13T15:41:42Z</time>
      </trkpt>
      <trkpt lat="42.9005710" lon="-2.5428900">
        <ele>543.8</ele>
        <time>2020-09-13T15:41:46Z</time>
      </trkpt>
      <trkpt lat="42.9005710" lon="-2.5428900">
        <ele>543.8</ele>
        <time>2020-09-13T15:41:50Z</time>
      </trkpt>
      <trkpt lat="42.9005710" lon="-2.5428900">
        <ele>543.4</ele>
        <time>2020-09-13T15:41:54Z</time>
      </trkpt>
      <trkpt lat="42.9005710" lon="-2.5428900">
        <ele>543.8</ele>
        <time>2020-09-13T15:41:58Z</time>
      </trkpt>
      <trkpt lat="42.9005710" lon="-2.5428900">
        <ele>544.0</ele>
        <time>2020-09-13T15:42:02Z</time>
      </trkpt>
      <trkpt lat="42.9005710" lon="-2.5428900">
        <ele>543.4</ele>
        <time>2020-09-13T15:42:06Z</time>
      </trkpt>
      <trkpt lat="42.9005710" lon="-2.5428900">
        <ele>544.0</ele>
        <time>2020-09-13T15:42:10Z</time>
      </trkpt>
      <trkpt lat="42.9005710" lon="-2.5428900">
        <ele>543.8</ele>
        <time>2020-09-13T15:42:14Z</time>
      </trkpt>
      <trkpt lat="42.9005710" lon="-2.5428900">
        <ele>543.6</ele>
        <time>2020-09-13T15:42:18Z</time>
      </trkpt>
      <trkpt lat="42.9005710" lon="-2.5428900">
        <ele>543.8</ele>
        <time>2020-09-13T15:42:22Z</time>
      </trkpt>
      <trkpt lat="42.9005710" lon="-2.5428900">
        <ele>543.8</ele>
        <time>2020-09-13T15:42:26Z</time>
      </trkpt>
      <trkpt lat="42.9005710" lon="-2.5428900">
        <ele>543.8</ele>
        <time>2020-09-13T15:42:30Z</time>
      </trkpt>
      <trkpt lat="42.9005710" lon="-2.5428900">
        <ele>543.6</ele>
        <time>2020-09-13T15:42:34Z</time>
      </trkpt>
      <trkpt lat="42.9005710" lon="-2.5428900">
        <ele>543.4</ele>
        <time>2020-09-13T15:42:38Z</time>
      </trkpt>
      <trkpt lat="42.9005710" lon="-2.5428900">
        <ele>543.4</ele>
        <time>2020-09-13T15:42:42Z</time>
      </trkpt>
      <trkpt lat="42.9005710" lon="-2.5428900">
        <ele>543.8</ele>
        <time>2020-09-13T15:42:46Z</time>
      </trkpt>
      <trkpt lat="42.9005710" lon="-2.5428900">
        <ele>543.4</ele>
        <time>2020-09-13T15:42:50Z</time>
      </trkpt>
      <trkpt lat="42.9005710" lon="-2.5428900">
        <ele>543.8</ele>
        <time>2020-09-13T15:42:54Z</time>
      </trkpt>
      <trkpt lat="42.9005710" lon="-2.5428900">
        <ele>543.8</ele>
        <time>2020-09-13T15:42:58Z</time>
      </trkpt>
      <trkpt lat="42.9005710" lon="-2.5428900">
        <ele>543.6</ele>
        <time>2020-09-13T15:43:02Z</time>
      </trkpt>
      <trkpt lat="42.9005710" lon="-2.5428900">
        <ele>543.8</ele>
        <time>2020-09-13T15:43:06Z</time>
      </trkpt>
      <trkpt lat="42.9005710" lon="-2.5428900">
        <ele>543.4</ele>
        <time>2020-09-13T15:43:10Z</time>
      </trkpt>
      <trkpt lat="42.9005710" lon="-2.5428900">
        <ele>543.6</ele>
        <time>2020-09-13T15:43:14Z</time>
      </trkpt>
      <trkpt lat="42.9005710" lon="-2.5428900">
        <ele>543.4</ele>
        <time>2020-09-13T15:43:18Z</time>
      </trkpt>
      <trkpt lat="42.9005710" lon="-2.5428900">
        <ele>543.6</ele>
        <time>2020-09-13T15:43:22Z</time>
      </trkpt>
      <trkpt lat="42.9005710" lon="-2.5428900">
        <ele>543.2</ele>
        <time>2020-09-13T15:43:26Z</time>
      </trkpt>
      <trkpt lat="42.9005710" lon="-2.5428900">
        <ele>543.6</ele>
        <time>2020-09-13T15:43:30Z</time>
      </trkpt>
      <trkpt lat="42.9005710" lon="-2.5428900">
        <ele>543.8</ele>
        <time>2020-09-13T15:43:34Z</time>
      </trkpt>
      <trkpt lat="42.9005710" lon="-2.5428900">
        <ele>543.6</ele>
        <time>2020-09-13T15:43:38Z</time>
      </trkpt>
      <trkpt lat="42.9005710" lon="-2.5428900">
        <ele>543.8</ele>
        <time>2020-09-13T15:43:42Z</time>
      </trkpt>
      <trkpt lat="42.9005710" lon="-2.5428900">
        <ele>543.8</ele>
        <time>2020-09-13T15:43:46Z</time>
      </trkpt>
      <trkpt lat="42.9005710" lon="-2.5428900">
        <ele>543.8</ele>
        <time>2020-09-13T15:43:50Z</time>
      </trkpt>
      <trkpt lat="42.9005710" lon="-2.5428900">
        <ele>543.4</ele>
        <time>2020-09-13T15:43:54Z</time>
      </trkpt>
      <trkpt lat="42.9005710" lon="-2.5428900">
        <ele>543.4</ele>
        <time>2020-09-13T15:43:58Z</time>
      </trkpt>
      <trkpt lat="42.9005710" lon="-2.5428900">
        <ele>544.0</ele>
        <time>2020-09-13T15:44:02Z</time>
      </trkpt>
      <trkpt lat="42.9005710" lon="-2.5428900">
        <ele>543.4</ele>
        <time>2020-09-13T15:44:06Z</time>
      </trkpt>
      <trkpt lat="42.9005710" lon="-2.5428900">
        <ele>543.4</ele>
        <time>2020-09-13T15:44:10Z</time>
      </trkpt>
      <trkpt lat="42.9005710" lon="-2.5428900">
        <ele>543.6</ele>
        <time>2020-09-13T15:44:14Z</time>
      </trkpt>
      <trkpt lat="42.9005710" lon="-2.5428900">
        <ele>543.8</ele>
        <time>2020-09-13T15:44:18Z</time>
      </trkpt>
      <trkpt lat="42.9005710" lon="-2.5428900">
        <ele>543.8</ele>
        <time>2020-09-13T15:44:22Z</time>
      </trkpt>
      <trkpt lat="42.9005710" lon="-2.5428900">
        <ele>543.8</ele>
        <time>2020-09-13T15:44:26Z</time>
      </trkpt>
      <trkpt lat="42.9005710" lon="-2.5428900">
        <ele>544.0</ele>
        <time>2020-09-13T15:44:30Z</time>
      </trkpt>
      <trkpt lat="42.9005710" lon="-2.5428900">
        <ele>543.6</ele>
        <time>2020-09-13T15:44:34Z</time>
      </trkpt>
      <trkpt lat="42.9005710" lon="-2.5428900">
        <ele>544.0</ele>
        <time>2020-09-13T15:44:38Z</time>
      </trkpt>
      <trkpt lat="42.9005710" lon="-2.5428900">
        <ele>543.6</ele>
        <time>2020-09-13T15:44:42Z</time>
      </trkpt>
      <trkpt lat="42.9005710" lon="-2.5428900">
        <ele>543.8</ele>
        <time>2020-09-13T15:44:46Z</time>
      </trkpt>
      <trkpt lat="42.9005710" lon="-2.5428900">
        <ele>543.4</ele>
        <time>2020-09-13T15:44:50Z</time>
      </trkpt>
      <trkpt lat="42.9005710" lon="-2.5428900">
        <ele>544.0</ele>
        <time>2020-09-13T15:44:54Z</time>
      </trkpt>
      <trkpt lat="42.9005710" lon="-2.5428900">
        <ele>543.8</ele>
        <time>2020-09-13T15:44:58Z</time>
      </trkpt>
      <trkpt lat="42.9005710" lon="-2.5428900">
        <ele>543.6</ele>
        <time>2020-09-13T15:45:02Z</time>
      </trkpt>
      <trkpt lat="42.9005710" lon="-2.5428900">
        <ele>544.0</ele>
        <time>2020-09-13T15:45:06Z</time>
      </trkpt>
      <trkpt lat="42.9005710" lon="-2.5428900">
        <ele>543.8</ele>
        <time>2020-09-13T15:45:10Z</time>
      </trkpt>
      <trkpt lat="42.9005710" lon="-2.5428900">
        <ele>544.0</ele>
        <time>2020-09-13T15:45:14Z</time>
      </trkpt>
      <trkpt lat="42.9005710" lon="-2.5428900">
        <ele>543.8</ele>
        <time>2020-09-13T15:45:18Z</time>
      </trkpt>
      <trkpt lat="42.9005710" lon="-2.5428900">
        <ele>543.8</ele>
        <time>2020-09-13T15:45:22Z</time>
      </trkpt>
      <trkpt lat="42.9005710" lon="-2.5428900">
        <ele>543.8</ele>
        <time>2020-09-13T15:45:26Z</time>
      </trkpt>
      <trkpt lat="42.9005710" lon="-2.5428900">
        <ele>543.6</ele>
        <time>2020-09-13T15:45:30Z</time>
      </trkpt>
      <trkpt lat="42.9005710" lon="-2.5428900">
        <ele>543.4</ele>
        <time>2020-09-13T15:45:34Z</time>
      </trkpt>
      <trkpt lat="42.9005710" lon="-2.5428900">
        <ele>543.6</ele>
        <time>2020-09-13T15:45:38Z</time>
      </trkpt>
      <trkpt lat="42.9005710" lon="-2.5428900">
        <ele>543.6</ele>
        <time>2020-09-13T15:45:42Z</time>
      </trkpt>
      <trkpt lat="42.9005710" lon="-2.5428900">
        <ele>543.6</ele>
        <time>2020-09-13T15:45:46Z</time>
      </trkpt>
      <trkpt lat="42.9005710" lon="-2.5428900">
        <ele>543.6</ele>
        <time>2020-09-13T15:45:50Z</time>
      </trkpt>
      <trkpt lat="42.9005710" lon="-2.5428900">
        <ele>543.8</ele>
        <time>2020-09-13T15:45:54Z</time>
      </trkpt>
      <trkpt lat="42.9005710" lon="-2.5428900">
        <ele>543.8</ele>
        <time>2020-09-13T15:45:58Z</time>
      </trkpt>
      <trkpt lat="42.9005710" lon="-2.5428900">
        <ele>544.0</ele>
        <time>2020-09-13T15:46:02Z</time>
      </trkpt>
      <trkpt lat="42.9005710" lon="-2.5428900">
        <ele>543.8</ele>
        <time>2020-09-13T15:46:06Z</time>
      </trkpt>
      <trkpt lat="42.9005710" lon="-2.5428900">
        <ele>543.8</ele>
        <time>2020-09-13T15:46:10Z</time>
      </trkpt>
      <trkpt lat="42.9005710" lon="-2.5428900">
        <ele>543.4</ele>
        <time>2020-09-13T15:46:14Z</time>
      </trkpt>
      <trkpt lat="42.9005710" lon="-2.5428900">
        <ele>543.6</ele>
        <time>2020-09-13T15:46:18Z</time>
      </trkpt>
      <trkpt lat="42.9005710" lon="-2.5428900">
        <ele>543.6</ele>
        <time>2020-09-13T15:46:22Z</time>
      </trkpt>
      <trkpt lat="42.9005710" lon="-2.5428900">
        <ele>543.6</ele>
        <time>2020-09-13T15:46:26Z</time>
      </trkpt>
      <trkpt lat="42.9005710" lon="-2.5428900">
        <ele>543.6</ele>
        <time>2020-09-13T15:46:30Z</time>
      </trkpt>
      <trkpt lat="42.9005710" lon="-2.5428900">
        <ele>544.0</ele>
        <time>2020-09-13T15:46:34Z</time>
      </trkpt>
      <trkpt lat="42.9005710" lon="-2.5428900">
        <ele>543.8</ele>
        <time>2020-09-13T15:46:38Z</time>
      </trkpt>
      <trkpt lat="42.9005710" lon="-2.5428900">
        <ele>543.4</ele>
        <time>2020-09-13T15:46:42Z</time>
      </trkpt>
      <trkpt lat="42.9005710" lon="-2.5428900">
        <ele>544.0</ele>
        <time>2020-09-13T15:46:46Z</time>
      </trkpt>
      <trkpt lat="42.9005710" lon="-2.5428900">
        <ele>543.6</ele>
        <time>2020-09-13T15:46:50Z</time>
      </trkpt>
      <trkpt lat="42.9005710" lon="-2.5428900">
        <ele>543.6</ele>
        <time>2020-09-13T15:46:54Z</time>
      </trkpt>
      <trkpt lat="42.9005710" lon="-2.5428900">
        <ele>543.6</ele>
        <time>2020-09-13T15:46:58Z</time>
      </trkpt>
      <trkpt lat="42.9005710" lon="-2.5428900">
        <ele>544.0</ele>
        <time>2020-09-13T15:47:02Z</time>
      </trkpt>
      <trkpt lat="42.9005710" lon="-2.5428900">
        <ele>543.8</ele>
        <time>2020-09-13T15:47:06Z</time>
      </trkpt>
      <trkpt lat="42.9005710" lon="-2.5428900">
        <ele>543.8</ele>
        <time>2020-09-13T15:47:10Z</time>
      </trkpt>
      <trkpt lat="42.9005710" lon="-2.5428900">
        <ele>543.8</ele>
        <time>2020-09-13T15:47:14Z</time>
      </trkpt>
      <trkpt lat="42.9005710" lon="-2.5428900">
        <ele>543.6</ele>
        <time>2020-09-13T15:47:18Z</time>
      </trkpt>
      <trkpt lat="42.9005710" lon="-2.5428900">
        <ele>544.0</ele>
        <time>2020-09-13T15:47:22Z</time>
      </trkpt>
      <trkpt lat="42.9005710" lon="-2.5428900">
        <ele>543.6</ele>
        <time>2020-09-13T15:47:26Z</time>
      </trkpt>
      <trkpt lat="42.9005710" lon="-2.5428900">
        <ele>543.6</ele>
        <time>2020-09-13T15:47:30Z</time>
      </trkpt>
      <trkpt lat="42.9005710" lon="-2.5428900">
        <ele>543.4</ele>
        <time>2020-09-13T15:47:34Z</time>
      </trkpt>
      <trkpt lat="42.9005710" lon="-2.5428900">
        <ele>543.4</ele>
        <time>2020-09-13T15:47:38Z</time>
      </trkpt>
      <trkpt lat="42.9005710" lon="-2.5428900">
        <ele>544.0</ele>
        <time>2020-09-13T15:47:42Z</time>
      </trkpt>
      <trkpt lat="42.9005710" lon="-2.5428900">
        <ele>543.8</ele>
        <time>2020-09-13T15:47:46Z</time>
      </trkpt>
      <trkpt lat="42.9005710" lon="-2.5428900">
        <ele>543.4</ele>
        <time>2020-09-13T15:47:50Z</time>
      </trkpt>
      <trkpt lat="42.9005710" lon="-2.5428900">
        <ele>543.4</ele>
        <time>2020-09-13T15:47:54Z</time>
      </trkpt>
      <trkpt lat="42.9005710" lon="-2.5428900">
        <ele>543.6</ele>
        <time>2020-09-13T15:47:58Z</time>
      </trkpt>
      <trkpt lat="42.9005710" lon="-2.5428900">
        <ele>543.6</ele>
        <time>2020-09-13T15:48:02Z</time>
      </trkpt>
      <trkpt lat="42.9005710" lon="-2.5428900">
        <ele>543.8</ele>
        <time>2020-09-13T15:48:06Z</time>
      </trkpt>
      <trkpt lat="42.9005710" lon="-2.5428900">
        <ele>543.6</ele>
        <time>2020-09-13T15:48:10Z</time>
      </trkpt>
      <trkpt lat="42.9005710" lon="-2.5428900">
        <ele>543.8</ele>
        <time>2020-09-13T15:48:14Z</time>
      </trkpt>
      <trkpt lat="42.9005710" lon="-2.5428900">
        <ele>544.0</ele>
        <time>2020-09-13T15:48:18Z</time>
      </trkpt>
      <trkpt lat="42.9005710" lon="-2.5428900">
        <ele>544.0</ele>
        <time>2020-09-13T15:48:22Z</time>
      </trkpt>
      <trkpt lat="42.9005710" lon="-2.5428900">
        <ele>543.8</ele>
        <time>2020-09-13T15:48:26Z</time>
      </trkpt>
      <trkpt lat="42.9005710" lon="-2.5428900">
        <ele>544.0</ele>
        <time>2020-09-13T15:48:30Z</time>
      </trkpt>
      <trkpt lat="42.9005710" lon="-2.5428900">
        <ele>543.8</ele>
        <time>2020-09-13T15:48:34Z</time>
      </trkpt>
      <trkpt lat="42.9005710" lon="-2.5428900">
        <ele>544.0</ele>
        <time>2020-09-13T15:48:38Z</time>
      </trkpt>
      <trkpt lat="42.9005710" lon="-2.5428900">
        <ele>543.6</ele>
        <time>2020-09-13T15:48:42Z</time>
      </trkpt>
      <trkpt lat="42.9005710" lon="-2.5428900">
        <ele>543.8</ele>
        <time>2020-09-13T15:48:46Z</time>
      </trkpt>
      <trkpt lat="42.9005710" lon="-2.5428900">
        <ele>543.4</ele>
        <time>2020-09-13T15:48:50Z</time>
      </trkpt>
      <trkpt lat="42.9005710" lon="-2.5428900">
        <ele>544.0</ele>
        <time>2020-09-13T15:48:54Z</time>
      </trkpt>
      <trkpt lat="42.9005710" lon="-2.5428900">
        <ele>544.0</ele>
        <time>2020-09-13T15:48:58Z</time>
      </trkpt>
      <trkpt lat="42.9005710" lon="-2.5428900">
        <ele>543.8</ele>
        <time>2020-09-13T15:49:02Z</time>
      </trkpt>
      <trkpt lat="42.9005710" lon="-2.5428900">
        <ele>544.0</ele>
        <time>2020-09-13T15:49:06Z</time>
      </trkpt>
      <trkpt lat="42.9005710" lon="-2.5428900">
        <ele>543.8</ele>
        <time>2020-09-13T15:49:10Z</time>
      </trkpt>
      <trkpt lat="42.9005710" lon="-2.5428900">
        <ele>544.0</ele>
        <time>2020-09-13T15:49:14Z</time>
      </trkpt>
      <trkpt lat="42.9005710" lon="-2.5428900">
        <ele>543.8</ele>
        <time>2020-09-13T15:49:18Z</time>
      </trkpt>
      <trkpt lat="42.9005710" lon="-2.5428900">
        <ele>544.0</ele>
        <time>2020-09-13T15:49:22Z</time>
      </trkpt>
      <trkpt lat="42.9005710" lon="-2.5428900">
        <ele>543.6</ele>
        <time>2020-09-13T15:49:26Z</time>
      </trkpt>
      <trkpt lat="42.9005710" lon="-2.5428900">
        <ele>543.8</ele>
        <time>2020-09-13T15:49:30Z</time>
      </trkpt>
      <trkpt lat="42.9005710" lon="-2.5428900">
        <ele>543.8</ele>
        <time>2020-09-13T15:49:34Z</time>
      </trkpt>
      <trkpt lat="42.9005710" lon="-2.5428900">
        <ele>543.4</ele>
        <time>2020-09-13T15:49:38Z</time>
      </trkpt>
      <trkpt lat="42.9005710" lon="-2.5428900">
        <ele>543.6</ele>
        <time>2020-09-13T15:49:42Z</time>
      </trkpt>
      <trkpt lat="42.9005710" lon="-2.5428900">
        <ele>544.0</ele>
        <time>2020-09-13T15:49:46Z</time>
      </trkpt>
      <trkpt lat="42.9005710" lon="-2.5428900">
        <ele>544.0</ele>
        <time>2020-09-13T15:49:50Z</time>
      </trkpt>
      <trkpt lat="42.9005710" lon="-2.5428900">
        <ele>543.8</ele>
        <time>2020-09-13T15:49:54Z</time>
      </trkpt>
      <trkpt lat="42.9005710" lon="-2.5428900">
        <ele>544.0</ele>
        <time>2020-09-13T15:49:58Z</time>
      </trkpt>
      <trkpt lat="42.9005710" lon="-2.5428900">
        <ele>543.8</ele>
        <time>2020-09-13T15:50:02Z</time>
      </trkpt>
      <trkpt lat="42.9005710" lon="-2.5428900">
        <ele>544.0</ele>
        <time>2020-09-13T15:50:06Z</time>
      </trkpt>
      <trkpt lat="42.9005710" lon="-2.5428900">
        <ele>544.0</ele>
        <time>2020-09-13T15:50:10Z</time>
      </trkpt>
      <trkpt lat="42.9005710" lon="-2.5428900">
        <ele>543.8</ele>
        <time>2020-09-13T15:50:14Z</time>
      </trkpt>
      <trkpt lat="42.9005710" lon="-2.5428900">
        <ele>543.8</ele>
        <time>2020-09-13T15:50:18Z</time>
      </trkpt>
      <trkpt lat="42.9005710" lon="-2.5428900">
        <ele>544.0</ele>
        <time>2020-09-13T15:50:22Z</time>
      </trkpt>
      <trkpt lat="42.9005710" lon="-2.5428900">
        <ele>544.0</ele>
        <time>2020-09-13T15:50:26Z</time>
      </trkpt>
      <trkpt lat="42.9005710" lon="-2.5428900">
        <ele>543.8</ele>
        <time>2020-09-13T15:50:30Z</time>
      </trkpt>
      <trkpt lat="42.9005710" lon="-2.5428900">
        <ele>543.6</ele>
        <time>2020-09-13T15:50:34Z</time>
      </trkpt>
      <trkpt lat="42.9005710" lon="-2.5428900">
        <ele>543.6</ele>
        <time>2020-09-13T15:50:38Z</time>
      </trkpt>
      <trkpt lat="42.9005710" lon="-2.5428900">
        <ele>543.6</ele>
        <time>2020-09-13T15:50:42Z</time>
      </trkpt>
      <trkpt lat="42.9005710" lon="-2.5428900">
        <ele>543.6</ele>
        <time>2020-09-13T15:50:46Z</time>
      </trkpt>
      <trkpt lat="42.9005710" lon="-2.5428900">
        <ele>543.6</ele>
        <time>2020-09-13T15:50:50Z</time>
      </trkpt>
      <trkpt lat="42.9005710" lon="-2.5428900">
        <ele>544.0</ele>
        <time>2020-09-13T15:50:54Z</time>
      </trkpt>
      <trkpt lat="42.9005710" lon="-2.5428900">
        <ele>544.0</ele>
        <time>2020-09-13T15:50:58Z</time>
      </trkpt>
      <trkpt lat="42.9005710" lon="-2.5428900">
        <ele>544.0</ele>
        <time>2020-09-13T15:51:02Z</time>
      </trkpt>
      <trkpt lat="42.9005710" lon="-2.5428900">
        <ele>543.8</ele>
        <time>2020-09-13T15:51:06Z</time>
      </trkpt>
      <trkpt lat="42.9005710" lon="-2.5428900">
        <ele>543.8</ele>
        <time>2020-09-13T15:51:10Z</time>
      </trkpt>
      <trkpt lat="42.9005710" lon="-2.5428900">
        <ele>544.0</ele>
        <time>2020-09-13T15:51:14Z</time>
      </trkpt>
      <trkpt lat="42.9005710" lon="-2.5428900">
        <ele>543.6</ele>
        <time>2020-09-13T15:51:18Z</time>
      </trkpt>
      <trkpt lat="42.9005710" lon="-2.5428900">
        <ele>543.8</ele>
        <time>2020-09-13T15:51:22Z</time>
      </trkpt>
      <trkpt lat="42.9005710" lon="-2.5428900">
        <ele>543.6</ele>
        <time>2020-09-13T15:51:26Z</time>
      </trkpt>
      <trkpt lat="42.9005710" lon="-2.5428900">
        <ele>543.8</ele>
        <time>2020-09-13T15:51:30Z</time>
      </trkpt>
      <trkpt lat="42.9005710" lon="-2.5428900">
        <ele>543.8</ele>
        <time>2020-09-13T15:51:34Z</time>
      </trkpt>
      <trkpt lat="42.9005710" lon="-2.5428900">
        <ele>543.8</ele>
        <time>2020-09-13T15:51:38Z</time>
      </trkpt>
      <trkpt lat="42.9005710" lon="-2.5428900">
        <ele>543.4</ele>
        <time>2020-09-13T15:51:42Z</time>
      </trkpt>
      <trkpt lat="42.9005710" lon="-2.5428900">
        <ele>543.6</ele>
        <time>2020-09-13T15:51:46Z</time>
      </trkpt>
      <trkpt lat="42.9005710" lon="-2.5428900">
        <ele>544.0</ele>
        <time>2020-09-13T15:51:50Z</time>
      </trkpt>
      <trkpt lat="42.9005710" lon="-2.5428900">
        <ele>543.8</ele>
        <time>2020-09-13T15:51:54Z</time>
      </trkpt>
      <trkpt lat="42.9005710" lon="-2.5428900">
        <ele>544.0</ele>
        <time>2020-09-13T15:51:58Z</time>
      </trkpt>
      <trkpt lat="42.9005710" lon="-2.5428900">
        <ele>544.0</ele>
        <time>2020-09-13T15:52:02Z</time>
      </trkpt>
      <trkpt lat="42.9005710" lon="-2.5428900">
        <ele>544.0</ele>
        <time>2020-09-13T15:52:06Z</time>
      </trkpt>
      <trkpt lat="42.9005710" lon="-2.5428900">
        <ele>543.8</ele>
        <time>2020-09-13T15:52:10Z</time>
      </trkpt>
      <trkpt lat="42.9005710" lon="-2.5428900">
        <ele>543.6</ele>
        <time>2020-09-13T15:52:14Z</time>
      </trkpt>
      <trkpt lat="42.9005710" lon="-2.5428900">
        <ele>543.6</ele>
        <time>2020-09-13T15:52:18Z</time>
      </trkpt>
      <trkpt lat="42.9005710" lon="-2.5428900">
        <ele>543.6</ele>
        <time>2020-09-13T15:52:22Z</time>
      </trkpt>
      <trkpt lat="42.9005710" lon="-2.5428900">
        <ele>544.2</ele>
        <time>2020-09-13T15:52:26Z</time>
      </trkpt>
      <trkpt lat="42.9005710" lon="-2.5428900">
        <ele>544.2</ele>
        <time>2020-09-13T15:52:30Z</time>
      </trkpt>
      <trkpt lat="42.9005710" lon="-2.5428900">
        <ele>544.2</ele>
        <time>2020-09-13T15:52:34Z</time>
      </trkpt>
      <trkpt lat="42.9005710" lon="-2.5428900">
        <ele>544.0</ele>
        <time>2020-09-13T15:52:38Z</time>
      </trkpt>
      <trkpt lat="42.9005710" lon="-2.5428900">
        <ele>544.0</ele>
        <time>2020-09-13T15:52:42Z</time>
      </trkpt>
      <trkpt lat="42.9005710" lon="-2.5428900">
        <ele>544.0</ele>
        <time>2020-09-13T15:52:46Z</time>
      </trkpt>
      <trkpt lat="42.9005710" lon="-2.5428900">
        <ele>544.2</ele>
        <time>2020-09-13T15:52:50Z</time>
      </trkpt>
      <trkpt lat="42.9005710" lon="-2.5428900">
        <ele>544.2</ele>
        <time>2020-09-13T15:52:54Z</time>
      </trkpt>
      <trkpt lat="42.9005710" lon="-2.5428900">
        <ele>544.0</ele>
        <time>2020-09-13T15:52:58Z</time>
      </trkpt>
      <trkpt lat="42.9005710" lon="-2.5428900">
        <ele>544.2</ele>
        <time>2020-09-13T15:53:02Z</time>
      </trkpt>
      <trkpt lat="42.9005710" lon="-2.5428900">
        <ele>544.2</ele>
        <time>2020-09-13T15:53:06Z</time>
      </trkpt>
      <trkpt lat="42.9005710" lon="-2.5428900">
        <ele>544.0</ele>
        <time>2020-09-13T15:53:10Z</time>
      </trkpt>
      <trkpt lat="42.9005710" lon="-2.5428900">
        <ele>544.0</ele>
        <time>2020-09-13T15:53:14Z</time>
      </trkpt>
      <trkpt lat="42.9005710" lon="-2.5428900">
        <ele>544.2</ele>
        <time>2020-09-13T15:53:18Z</time>
      </trkpt>
      <trkpt lat="42.9005710" lon="-2.5428900">
        <ele>544.2</ele>
        <time>2020-09-13T15:53:22Z</time>
      </trkpt>
      <trkpt lat="42.9005710" lon="-2.5428900">
        <ele>543.8</ele>
        <time>2020-09-13T15:53:26Z</time>
      </trkpt>
      <trkpt lat="42.9005710" lon="-2.5428900">
        <ele>544.2</ele>
        <time>2020-09-13T15:53:30Z</time>
      </trkpt>
      <trkpt lat="42.9005710" lon="-2.5428900">
        <ele>544.0</ele>
        <time>2020-09-13T15:53:34Z</time>
      </trkpt>
      <trkpt lat="42.9005710" lon="-2.5428900">
        <ele>544.2</ele>
        <time>2020-09-13T15:53:38Z</time>
      </trkpt>
      <trkpt lat="42.9005710" lon="-2.5428900">
        <ele>544.0</ele>
        <time>2020-09-13T15:53:42Z</time>
      </trkpt>
      <trkpt lat="42.9005710" lon="-2.5428900">
        <ele>544.2</ele>
        <time>2020-09-13T15:53:46Z</time>
      </trkpt>
      <trkpt lat="42.9005710" lon="-2.5428900">
        <ele>544.4</ele>
        <time>2020-09-13T15:53:50Z</time>
      </trkpt>
      <trkpt lat="42.9005710" lon="-2.5428900">
        <ele>544.4</ele>
        <time>2020-09-13T15:53:54Z</time>
      </trkpt>
      <trkpt lat="42.9005710" lon="-2.5428900">
        <ele>544.0</ele>
        <time>2020-09-13T15:53:58Z</time>
      </trkpt>
      <trkpt lat="42.9005710" lon="-2.5428900">
        <ele>544.0</ele>
        <time>2020-09-13T15:54:02Z</time>
      </trkpt>
      <trkpt lat="42.9005710" lon="-2.5428900">
        <ele>544.6</ele>
        <time>2020-09-13T15:54:06Z</time>
      </trkpt>
      <trkpt lat="42.9005710" lon="-2.5428900">
        <ele>544.6</ele>
        <time>2020-09-13T15:54:10Z</time>
      </trkpt>
      <trkpt lat="42.9005710" lon="-2.5428900">
        <ele>544.2</ele>
        <time>2020-09-13T15:54:14Z</time>
      </trkpt>
      <trkpt lat="42.9005710" lon="-2.5428900">
        <ele>544.0</ele>
        <time>2020-09-13T15:54:18Z</time>
      </trkpt>
      <trkpt lat="42.9005710" lon="-2.5428900">
        <ele>544.0</ele>
        <time>2020-09-13T15:54:22Z</time>
      </trkpt>
      <trkpt lat="42.9005710" lon="-2.5428900">
        <ele>543.8</ele>
        <time>2020-09-13T15:54:26Z</time>
      </trkpt>
      <trkpt lat="42.9005710" lon="-2.5428900">
        <ele>544.2</ele>
        <time>2020-09-13T15:54:30Z</time>
      </trkpt>
      <trkpt lat="42.9005710" lon="-2.5428900">
        <ele>544.6</ele>
        <time>2020-09-13T15:54:34Z</time>
      </trkpt>
      <trkpt lat="42.9005710" lon="-2.5428900">
        <ele>543.8</ele>
        <time>2020-09-13T15:54:38Z</time>
      </trkpt>
      <trkpt lat="42.9005710" lon="-2.5428900">
        <ele>544.0</ele>
        <time>2020-09-13T15:54:42Z</time>
      </trkpt>
      <trkpt lat="42.9005710" lon="-2.5428900">
        <ele>544.0</ele>
        <time>2020-09-13T15:54:46Z</time>
      </trkpt>
      <trkpt lat="42.9005710" lon="-2.5428900">
        <ele>544.0</ele>
        <time>2020-09-13T15:54:50Z</time>
      </trkpt>
      <trkpt lat="42.9005710" lon="-2.5428900">
        <ele>543.8</ele>
        <time>2020-09-13T15:54:54Z</time>
      </trkpt>
      <trkpt lat="42.9005710" lon="-2.5428900">
        <ele>544.0</ele>
        <time>2020-09-13T15:54:58Z</time>
      </trkpt>
      <trkpt lat="42.9005710" lon="-2.5428900">
        <ele>544.2</ele>
        <time>2020-09-13T15:55:02Z</time>
      </trkpt>
      <trkpt lat="42.9005710" lon="-2.5428900">
        <ele>544.2</ele>
        <time>2020-09-13T15:55:06Z</time>
      </trkpt>
      <trkpt lat="42.9005710" lon="-2.5428900">
        <ele>544.0</ele>
        <time>2020-09-13T15:55:10Z</time>
      </trkpt>
      <trkpt lat="42.9005710" lon="-2.5428900">
        <ele>544.2</ele>
        <time>2020-09-13T15:55:14Z</time>
      </trkpt>
      <trkpt lat="42.9005710" lon="-2.5428900">
        <ele>544.0</ele>
        <time>2020-09-13T15:55:18Z</time>
      </trkpt>
      <trkpt lat="42.9005710" lon="-2.5428900">
        <ele>544.0</ele>
        <time>2020-09-13T15:55:22Z</time>
      </trkpt>
      <trkpt lat="42.9005710" lon="-2.5428900">
        <ele>544.0</ele>
        <time>2020-09-13T15:55:26Z</time>
      </trkpt>
      <trkpt lat="42.9005710" lon="-2.5428900">
        <ele>544.2</ele>
        <time>2020-09-13T15:55:30Z</time>
      </trkpt>
      <trkpt lat="42.9005710" lon="-2.5428900">
        <ele>544.0</ele>
        <time>2020-09-13T15:55:34Z</time>
      </trkpt>
      <trkpt lat="42.9005710" lon="-2.5428900">
        <ele>544.0</ele>
        <time>2020-09-13T15:55:38Z</time>
      </trkpt>
      <trkpt lat="42.9005710" lon="-2.5428900">
        <ele>544.0</ele>
        <time>2020-09-13T15:55:42Z</time>
      </trkpt>
      <trkpt lat="42.9005710" lon="-2.5428900">
        <ele>544.2</ele>
        <time>2020-09-13T15:55:46Z</time>
      </trkpt>
      <trkpt lat="42.9005710" lon="-2.5428900">
        <ele>544.0</ele>
        <time>2020-09-13T15:55:50Z</time>
      </trkpt>
      <trkpt lat="42.9005710" lon="-2.5428900">
        <ele>544.4</ele>
        <time>2020-09-13T15:55:54Z</time>
      </trkpt>
      <trkpt lat="42.9005710" lon="-2.5428900">
        <ele>544.0</ele>
        <time>2020-09-13T15:55:58Z</time>
      </trkpt>
      <trkpt lat="42.9005710" lon="-2.5428900">
        <ele>544.2</ele>
        <time>2020-09-13T15:56:02Z</time>
      </trkpt>
      <trkpt lat="42.9005710" lon="-2.5428900">
        <ele>544.2</ele>
        <time>2020-09-13T15:56:06Z</time>
      </trkpt>
      <trkpt lat="42.9005710" lon="-2.5428900">
        <ele>544.4</ele>
        <time>2020-09-13T15:56:10Z</time>
      </trkpt>
      <trkpt lat="42.9005710" lon="-2.5428900">
        <ele>544.4</ele>
        <time>2020-09-13T15:56:14Z</time>
      </trkpt>
      <trkpt lat="42.9005710" lon="-2.5428900">
        <ele>544.2</ele>
        <time>2020-09-13T15:56:18Z</time>
      </trkpt>
      <trkpt lat="42.9005710" lon="-2.5428900">
        <ele>544.0</ele>
        <time>2020-09-13T15:56:22Z</time>
      </trkpt>
      <trkpt lat="42.9005710" lon="-2.5428900">
        <ele>544.2</ele>
        <time>2020-09-13T15:56:26Z</time>
      </trkpt>
      <trkpt lat="42.9005710" lon="-2.5428900">
        <ele>544.2</ele>
        <time>2020-09-13T15:56:30Z</time>
      </trkpt>
      <trkpt lat="42.9005710" lon="-2.5428900">
        <ele>544.0</ele>
        <time>2020-09-13T15:56:34Z</time>
      </trkpt>
      <trkpt lat="42.9005710" lon="-2.5428900">
        <ele>544.2</ele>
        <time>2020-09-13T15:56:38Z</time>
      </trkpt>
      <trkpt lat="42.9005710" lon="-2.5428900">
        <ele>544.0</ele>
        <time>2020-09-13T15:56:42Z</time>
      </trkpt>
      <trkpt lat="42.9005710" lon="-2.5428900">
        <ele>544.2</ele>
        <time>2020-09-13T15:56:46Z</time>
      </trkpt>
      <trkpt lat="42.9005710" lon="-2.5428900">
        <ele>544.2</ele>
        <time>2020-09-13T15:56:50Z</time>
      </trkpt>
      <trkpt lat="42.9005710" lon="-2.5428900">
        <ele>543.8</ele>
        <time>2020-09-13T15:56:54Z</time>
      </trkpt>
      <trkpt lat="42.9005710" lon="-2.5428900">
        <ele>543.8</ele>
        <time>2020-09-13T15:56:58Z</time>
      </trkpt>
      <trkpt lat="42.9005710" lon="-2.5428900">
        <ele>544.0</ele>
        <time>2020-09-13T15:57:02Z</time>
      </trkpt>
      <trkpt lat="42.9005710" lon="-2.5428900">
        <ele>544.2</ele>
        <time>2020-09-13T15:57:06Z</time>
      </trkpt>
      <trkpt lat="42.9005710" lon="-2.5428900">
        <ele>544.2</ele>
        <time>2020-09-13T15:57:10Z</time>
      </trkpt>
      <trkpt lat="42.9005710" lon="-2.5428900">
        <ele>544.8</ele>
        <time>2020-09-13T15:57:14Z</time>
      </trkpt>
      <trkpt lat="42.9005710" lon="-2.5428900">
        <ele>544.4</ele>
        <time>2020-09-13T15:57:18Z</time>
      </trkpt>
      <trkpt lat="42.9005710" lon="-2.5428900">
        <ele>544.6</ele>
        <time>2020-09-13T15:57:22Z</time>
      </trkpt>
      <trkpt lat="42.9005710" lon="-2.5428900">
        <ele>544.2</ele>
        <time>2020-09-13T15:57:26Z</time>
      </trkpt>
      <trkpt lat="42.9005710" lon="-2.5428900">
        <ele>544.2</ele>
        <time>2020-09-13T15:57:30Z</time>
      </trkpt>
      <trkpt lat="42.9005710" lon="-2.5428900">
        <ele>544.2</ele>
        <time>2020-09-13T15:57:34Z</time>
      </trkpt>
      <trkpt lat="42.9005710" lon="-2.5428900">
        <ele>544.0</ele>
        <time>2020-09-13T15:57:38Z</time>
      </trkpt>
      <trkpt lat="42.9005710" lon="-2.5428900">
        <ele>544.2</ele>
        <time>2020-09-13T15:57:42Z</time>
      </trkpt>
      <trkpt lat="42.9005710" lon="-2.5428900">
        <ele>544.2</ele>
        <time>2020-09-13T15:57:46Z</time>
      </trkpt>
      <trkpt lat="42.9005710" lon="-2.5428900">
        <ele>544.2</ele>
        <time>2020-09-13T15:57:50Z</time>
      </trkpt>
      <trkpt lat="42.9005710" lon="-2.5428900">
        <ele>544.0</ele>
        <time>2020-09-13T15:57:54Z</time>
      </trkpt>
      <trkpt lat="42.9005710" lon="-2.5428900">
        <ele>544.4</ele>
        <time>2020-09-13T15:57:58Z</time>
      </trkpt>
      <trkpt lat="42.9005710" lon="-2.5428900">
        <ele>544.4</ele>
        <time>2020-09-13T15:58:02Z</time>
      </trkpt>
      <trkpt lat="42.9005710" lon="-2.5428900">
        <ele>544.4</ele>
        <time>2020-09-13T15:58:06Z</time>
      </trkpt>
      <trkpt lat="42.9005710" lon="-2.5428900">
        <ele>544.6</ele>
        <time>2020-09-13T15:58:10Z</time>
      </trkpt>
      <trkpt lat="42.9005710" lon="-2.5428900">
        <ele>544.6</ele>
        <time>2020-09-13T15:58:14Z</time>
      </trkpt>
      <trkpt lat="42.9005710" lon="-2.5428900">
        <ele>544.2</ele>
        <time>2020-09-13T15:58:18Z</time>
      </trkpt>
      <trkpt lat="42.9005710" lon="-2.5428900">
        <ele>544.4</ele>
        <time>2020-09-13T15:58:22Z</time>
      </trkpt>
      <trkpt lat="42.9005710" lon="-2.5428900">
        <ele>544.6</ele>
        <time>2020-09-13T15:58:26Z</time>
      </trkpt>
      <trkpt lat="42.9005710" lon="-2.5428900">
        <ele>544.4</ele>
        <time>2020-09-13T15:58:30Z</time>
      </trkpt>
      <trkpt lat="42.9005710" lon="-2.5428900">
        <ele>544.4</ele>
        <time>2020-09-13T15:58:34Z</time>
      </trkpt>
      <trkpt lat="42.9005710" lon="-2.5428900">
        <ele>544.6</ele>
        <time>2020-09-13T15:58:38Z</time>
      </trkpt>
      <trkpt lat="42.9005710" lon="-2.5428900">
        <ele>544.6</ele>
        <time>2020-09-13T15:58:42Z</time>
      </trkpt>
      <trkpt lat="42.9005710" lon="-2.5428900">
        <ele>544.4</ele>
        <time>2020-09-13T15:58:46Z</time>
      </trkpt>
      <trkpt lat="42.9005710" lon="-2.5428900">
        <ele>545.0</ele>
        <time>2020-09-13T15:58:50Z</time>
      </trkpt>
      <trkpt lat="42.9005710" lon="-2.5428900">
        <ele>545.0</ele>
        <time>2020-09-13T15:58:54Z</time>
      </trkpt>
      <trkpt lat="42.9005710" lon="-2.5428900">
        <ele>544.6</ele>
        <time>2020-09-13T15:58:58Z</time>
      </trkpt>
      <trkpt lat="42.9005710" lon="-2.5428900">
        <ele>544.6</ele>
        <time>2020-09-13T15:59:02Z</time>
      </trkpt>
      <trkpt lat="42.9005710" lon="-2.5428900">
        <ele>544.6</ele>
        <time>2020-09-13T15:59:06Z</time>
      </trkpt>
      <trkpt lat="42.9005710" lon="-2.5428900">
        <ele>544.6</ele>
        <time>2020-09-13T15:59:10Z</time>
      </trkpt>
      <trkpt lat="42.9005710" lon="-2.5428900">
        <ele>545.4</ele>
        <time>2020-09-13T15:59:14Z</time>
      </trkpt>
      <trkpt lat="42.9005710" lon="-2.5428900">
        <ele>544.8</ele>
        <time>2020-09-13T15:59:18Z</time>
      </trkpt>
      <trkpt lat="42.9005710" lon="-2.5428900">
        <ele>544.8</ele>
        <time>2020-09-13T15:59:22Z</time>
      </trkpt>
      <trkpt lat="42.9005710" lon="-2.5428900">
        <ele>544.8</ele>
        <time>2020-09-13T15:59:26Z</time>
      </trkpt>
      <trkpt lat="42.9005710" lon="-2.5428900">
        <ele>544.6</ele>
        <time>2020-09-13T15:59:30Z</time>
      </trkpt>
      <trkpt lat="42.9005710" lon="-2.5428900">
        <ele>544.6</ele>
        <time>2020-09-13T15:59:34Z</time>
      </trkpt>
      <trkpt lat="42.9005710" lon="-2.5428900">
        <ele>544.4</ele>
        <time>2020-09-13T15:59:38Z</time>
      </trkpt>
      <trkpt lat="42.9005710" lon="-2.5428900">
        <ele>544.6</ele>
        <time>2020-09-13T15:59:42Z</time>
      </trkpt>
      <trkpt lat="42.9005710" lon="-2.5428900">
        <ele>544.4</ele>
        <time>2020-09-13T15:59:46Z</time>
      </trkpt>
      <trkpt lat="42.9005710" lon="-2.5428900">
        <ele>544.8</ele>
        <time>2020-09-13T15:59:50Z</time>
      </trkpt>
      <trkpt lat="42.9005710" lon="-2.5428900">
        <ele>544.6</ele>
        <time>2020-09-13T15:59:54Z</time>
      </trkpt>
      <trkpt lat="42.9005710" lon="-2.5428900">
        <ele>544.6</ele>
        <time>2020-09-13T15:59:58Z</time>
      </trkpt>
      <trkpt lat="42.9005710" lon="-2.5428900">
        <ele>544.6</ele>
        <time>2020-09-13T16:00:02Z</time>
      </trkpt>
      <trkpt lat="42.9005710" lon="-2.5428900">
        <ele>544.8</ele>
        <time>2020-09-13T16:00:06Z</time>
      </trkpt>
      <trkpt lat="42.9005710" lon="-2.5428900">
        <ele>544.6</ele>
        <time>2020-09-13T16:00:10Z</time>
      </trkpt>
      <trkpt lat="42.9005710" lon="-2.5428900">
        <ele>544.8</ele>
        <time>2020-09-13T16:00:14Z</time>
      </trkpt>
      <trkpt lat="42.9005710" lon="-2.5428900">
        <ele>544.6</ele>
        <time>2020-09-13T16:00:18Z</time>
      </trkpt>
      <trkpt lat="42.9005710" lon="-2.5428900">
        <ele>545.0</ele>
        <time>2020-09-13T16:00:22Z</time>
      </trkpt>
      <trkpt lat="42.9005710" lon="-2.5428900">
        <ele>545.0</ele>
        <time>2020-09-13T16:00:26Z</time>
      </trkpt>
      <trkpt lat="42.9005710" lon="-2.5428900">
        <ele>544.8</ele>
        <time>2020-09-13T16:00:30Z</time>
      </trkpt>
      <trkpt lat="42.9005710" lon="-2.5428900">
        <ele>544.8</ele>
        <time>2020-09-13T16:00:34Z</time>
      </trkpt>
      <trkpt lat="42.9005710" lon="-2.5428900">
        <ele>544.6</ele>
        <time>2020-09-13T16:00:38Z</time>
      </trkpt>
      <trkpt lat="42.9005710" lon="-2.5428900">
        <ele>544.8</ele>
        <time>2020-09-13T16:00:42Z</time>
      </trkpt>
      <trkpt lat="42.9005710" lon="-2.5428900">
        <ele>544.6</ele>
        <time>2020-09-13T16:00:46Z</time>
      </trkpt>
      <trkpt lat="42.9005710" lon="-2.5428900">
        <ele>544.4</ele>
        <time>2020-09-13T16:00:50Z</time>
      </trkpt>
      <trkpt lat="42.9005710" lon="-2.5428900">
        <ele>544.4</ele>
        <time>2020-09-13T16:00:54Z</time>
      </trkpt>
      <trkpt lat="42.9005710" lon="-2.5428900">
        <ele>544.8</ele>
        <time>2020-09-13T16:00:58Z</time>
      </trkpt>
      <trkpt lat="42.9005710" lon="-2.5428900">
        <ele>544.8</ele>
        <time>2020-09-13T16:01:02Z</time>
      </trkpt>
      <trkpt lat="42.9005710" lon="-2.5428900">
        <ele>545.0</ele>
        <time>2020-09-13T16:01:06Z</time>
      </trkpt>
      <trkpt lat="42.9005710" lon="-2.5428900">
        <ele>545.0</ele>
        <time>2020-09-13T16:01:10Z</time>
      </trkpt>
      <trkpt lat="42.9005710" lon="-2.5428900">
        <ele>544.8</ele>
        <time>2020-09-13T16:01:14Z</time>
      </trkpt>
      <trkpt lat="42.9005710" lon="-2.5428900">
        <ele>545.0</ele>
        <time>2020-09-13T16:01:18Z</time>
      </trkpt>
      <trkpt lat="42.9005710" lon="-2.5428900">
        <ele>544.6</ele>
        <time>2020-09-13T16:01:22Z</time>
      </trkpt>
      <trkpt lat="42.9005710" lon="-2.5428900">
        <ele>544.6</ele>
        <time>2020-09-13T16:01:26Z</time>
      </trkpt>
      <trkpt lat="42.9005710" lon="-2.5428900">
        <ele>544.8</ele>
        <time>2020-09-13T16:01:30Z</time>
      </trkpt>
      <trkpt lat="42.9005710" lon="-2.5428900">
        <ele>544.8</ele>
        <time>2020-09-13T16:01:34Z</time>
      </trkpt>
      <trkpt lat="42.9005710" lon="-2.5428900">
        <ele>545.0</ele>
        <time>2020-09-13T16:01:38Z</time>
      </trkpt>
      <trkpt lat="42.9005710" lon="-2.5428900">
        <ele>545.0</ele>
        <time>2020-09-13T16:01:42Z</time>
      </trkpt>
      <trkpt lat="42.9005710" lon="-2.5428900">
        <ele>544.6</ele>
        <time>2020-09-13T16:01:46Z</time>
      </trkpt>
      <trkpt lat="42.9005710" lon="-2.5428900">
        <ele>544.6</ele>
        <time>2020-09-13T16:01:50Z</time>
      </trkpt>
      <trkpt lat="42.9005710" lon="-2.5428900">
        <ele>544.8</ele>
        <time>2020-09-13T16:01:54Z</time>
      </trkpt>
      <trkpt lat="42.9005710" lon="-2.5428900">
        <ele>544.6</ele>
        <time>2020-09-13T16:01:58Z</time>
      </trkpt>
      <trkpt lat="42.9005710" lon="-2.5428900">
        <ele>544.4</ele>
        <time>2020-09-13T16:02:02Z</time>
      </trkpt>
      <trkpt lat="42.9005710" lon="-2.5428900">
        <ele>544.6</ele>
        <time>2020-09-13T16:02:06Z</time>
      </trkpt>
      <trkpt lat="42.9005710" lon="-2.5428900">
        <ele>544.6</ele>
        <time>2020-09-13T16:02:10Z</time>
      </trkpt>
      <trkpt lat="42.9005710" lon="-2.5428900">
        <ele>544.8</ele>
        <time>2020-09-13T16:02:14Z</time>
      </trkpt>
      <trkpt lat="42.9005710" lon="-2.5428900">
        <ele>544.8</ele>
        <time>2020-09-13T16:02:18Z</time>
      </trkpt>
      <trkpt lat="42.9005710" lon="-2.5428900">
        <ele>545.0</ele>
        <time>2020-09-13T16:02:22Z</time>
      </trkpt>
      <trkpt lat="42.9005710" lon="-2.5428900">
        <ele>544.6</ele>
        <time>2020-09-13T16:02:26Z</time>
      </trkpt>
      <trkpt lat="42.9005710" lon="-2.5428900">
        <ele>545.0</ele>
        <time>2020-09-13T16:02:30Z</time>
      </trkpt>
      <trkpt lat="42.9005710" lon="-2.5428900">
        <ele>544.8</ele>
        <time>2020-09-13T16:02:34Z</time>
      </trkpt>
      <trkpt lat="42.9005710" lon="-2.5428900">
        <ele>544.4</ele>
        <time>2020-09-13T16:02:38Z</time>
      </trkpt>
      <trkpt lat="42.9005710" lon="-2.5428900">
        <ele>544.8</ele>
        <time>2020-09-13T16:02:42Z</time>
      </trkpt>
      <trkpt lat="42.9005710" lon="-2.5428900">
        <ele>544.6</ele>
        <time>2020-09-13T16:02:46Z</time>
      </trkpt>
      <trkpt lat="42.9005710" lon="-2.5428900">
        <ele>544.8</ele>
        <time>2020-09-13T16:02:50Z</time>
      </trkpt>
      <trkpt lat="42.9005710" lon="-2.5428900">
        <ele>544.8</ele>
        <time>2020-09-13T16:02:54Z</time>
      </trkpt>
      <trkpt lat="42.9005710" lon="-2.5428900">
        <ele>545.2</ele>
        <time>2020-09-13T16:02:58Z</time>
      </trkpt>
      <trkpt lat="42.9005710" lon="-2.5428900">
        <ele>545.0</ele>
        <time>2020-09-13T16:03:02Z</time>
      </trkpt>
      <trkpt lat="42.9005710" lon="-2.5428900">
        <ele>544.8</ele>
        <time>2020-09-13T16:03:06Z</time>
      </trkpt>
      <trkpt lat="42.9005710" lon="-2.5428900">
        <ele>544.4</ele>
        <time>2020-09-13T16:03:10Z</time>
      </trkpt>
      <trkpt lat="42.9005710" lon="-2.5428900">
        <ele>545.2</ele>
        <time>2020-09-13T16:03:14Z</time>
      </trkpt>
      <trkpt lat="42.9005710" lon="-2.5428900">
        <ele>545.4</ele>
        <time>2020-09-13T16:03:18Z</time>
      </trkpt>
      <trkpt lat="42.9005710" lon="-2.5428900">
        <ele>545.4</ele>
        <time>2020-09-13T16:03:22Z</time>
      </trkpt>
      <trkpt lat="42.9005710" lon="-2.5428900">
        <ele>545.4</ele>
        <time>2020-09-13T16:03:26Z</time>
      </trkpt>
      <trkpt lat="42.9005710" lon="-2.5428900">
        <ele>544.8</ele>
        <time>2020-09-13T16:03:30Z</time>
      </trkpt>
      <trkpt lat="42.9005710" lon="-2.5428900">
        <ele>545.0</ele>
        <time>2020-09-13T16:03:34Z</time>
      </trkpt>
      <trkpt lat="42.9005710" lon="-2.5428900">
        <ele>545.0</ele>
        <time>2020-09-13T16:03:38Z</time>
      </trkpt>
      <trkpt lat="42.9005710" lon="-2.5428900">
        <ele>545.4</ele>
        <time>2020-09-13T16:03:42Z</time>
      </trkpt>
      <trkpt lat="42.9005710" lon="-2.5428900">
        <ele>545.2</ele>
        <time>2020-09-13T16:03:46Z</time>
      </trkpt>
      <trkpt lat="42.9005710" lon="-2.5428900">
        <ele>545.0</ele>
        <time>2020-09-13T16:03:50Z</time>
      </trkpt>
      <trkpt lat="42.9005710" lon="-2.5428900">
        <ele>544.8</ele>
        <time>2020-09-13T16:03:54Z</time>
      </trkpt>
      <trkpt lat="42.9005710" lon="-2.5428900">
        <ele>545.4</ele>
        <time>2020-09-13T16:03:58Z</time>
      </trkpt>
      <trkpt lat="42.9005710" lon="-2.5428900">
        <ele>545.2</ele>
        <time>2020-09-13T16:04:02Z</time>
      </trkpt>
      <trkpt lat="42.9005710" lon="-2.5428900">
        <ele>545.4</ele>
        <time>2020-09-13T16:04:06Z</time>
      </trkpt>
      <trkpt lat="42.9005710" lon="-2.5428900">
        <ele>545.2</ele>
        <time>2020-09-13T16:04:10Z</time>
      </trkpt>
      <trkpt lat="42.9005710" lon="-2.5428900">
        <ele>545.4</ele>
        <time>2020-09-13T16:04:14Z</time>
      </trkpt>
      <trkpt lat="42.9005710" lon="-2.5428900">
        <ele>545.2</ele>
        <time>2020-09-13T16:04:18Z</time>
      </trkpt>
      <trkpt lat="42.9005710" lon="-2.5428900">
        <ele>544.8</ele>
        <time>2020-09-13T16:04:22Z</time>
      </trkpt>
      <trkpt lat="42.9005710" lon="-2.5428900">
        <ele>545.4</ele>
        <time>2020-09-13T16:04:26Z</time>
      </trkpt>
      <trkpt lat="42.9005710" lon="-2.5428900">
        <ele>544.8</ele>
        <time>2020-09-13T16:04:30Z</time>
      </trkpt>
      <trkpt lat="42.9005710" lon="-2.5428900">
        <ele>545.4</ele>
        <time>2020-09-13T16:04:34Z</time>
      </trkpt>
      <trkpt lat="42.9005710" lon="-2.5428900">
        <ele>545.4</ele>
        <time>2020-09-13T16:04:38Z</time>
      </trkpt>
      <trkpt lat="42.9005710" lon="-2.5428900">
        <ele>545.2</ele>
        <time>2020-09-13T16:04:42Z</time>
      </trkpt>
      <trkpt lat="42.9005710" lon="-2.5428900">
        <ele>545.6</ele>
        <time>2020-09-13T16:04:46Z</time>
      </trkpt>
      <trkpt lat="42.9005710" lon="-2.5428900">
        <ele>545.2</ele>
        <time>2020-09-13T16:04:50Z</time>
      </trkpt>
      <trkpt lat="42.9005710" lon="-2.5428900">
        <ele>545.2</ele>
        <time>2020-09-13T16:04:54Z</time>
      </trkpt>
      <trkpt lat="42.9005710" lon="-2.5428900">
        <ele>545.4</ele>
        <time>2020-09-13T16:04:58Z</time>
      </trkpt>
      <trkpt lat="42.9005710" lon="-2.5428900">
        <ele>545.2</ele>
        <time>2020-09-13T16:05:02Z</time>
      </trkpt>
      <trkpt lat="42.9005710" lon="-2.5428900">
        <ele>545.2</ele>
        <time>2020-09-13T16:05:06Z</time>
      </trkpt>
      <trkpt lat="42.9005710" lon="-2.5428900">
        <ele>545.2</ele>
        <time>2020-09-13T16:05:10Z</time>
      </trkpt>
      <trkpt lat="42.9005710" lon="-2.5428900">
        <ele>545.2</ele>
        <time>2020-09-13T16:05:14Z</time>
      </trkpt>
      <trkpt lat="42.9005710" lon="-2.5428900">
        <ele>545.2</ele>
        <time>2020-09-13T16:05:18Z</time>
      </trkpt>
      <trkpt lat="42.9005710" lon="-2.5428900">
        <ele>545.2</ele>
        <time>2020-09-13T16:05:22Z</time>
      </trkpt>
      <trkpt lat="42.9005710" lon="-2.5428900">
        <ele>545.4</ele>
        <time>2020-09-13T16:05:26Z</time>
      </trkpt>
      <trkpt lat="42.9005710" lon="-2.5428900">
        <ele>545.2</ele>
        <time>2020-09-13T16:05:30Z</time>
      </trkpt>
      <trkpt lat="42.9005710" lon="-2.5428900">
        <ele>545.2</ele>
        <time>2020-09-13T16:05:34Z</time>
      </trkpt>
      <trkpt lat="42.9005710" lon="-2.5428900">
        <ele>545.2</ele>
        <time>2020-09-13T16:05:38Z</time>
      </trkpt>
      <trkpt lat="42.9005710" lon="-2.5428900">
        <ele>545.2</ele>
        <time>2020-09-13T16:05:42Z</time>
      </trkpt>
      <trkpt lat="42.9005710" lon="-2.5428900">
        <ele>545.2</ele>
        <time>2020-09-13T16:05:46Z</time>
      </trkpt>
      <trkpt lat="42.9005710" lon="-2.5428900">
        <ele>545.4</ele>
        <time>2020-09-13T16:05:50Z</time>
      </trkpt>
      <trkpt lat="42.9005710" lon="-2.5428900">
        <ele>545.2</ele>
        <time>2020-09-13T16:05:54Z</time>
      </trkpt>
      <trkpt lat="42.9005710" lon="-2.5428900">
        <ele>545.4</ele>
        <time>2020-09-13T16:05:58Z</time>
      </trkpt>
      <trkpt lat="42.9005710" lon="-2.5428900">
        <ele>545.0</ele>
        <time>2020-09-13T16:06:02Z</time>
      </trkpt>
      <trkpt lat="42.9005710" lon="-2.5428900">
        <ele>545.2</ele>
        <time>2020-09-13T16:06:06Z</time>
      </trkpt>
      <trkpt lat="42.9005710" lon="-2.5428900">
        <ele>545.4</ele>
        <time>2020-09-13T16:06:10Z</time>
      </trkpt>
      <trkpt lat="42.9005710" lon="-2.5428900">
        <ele>545.2</ele>
        <time>2020-09-13T16:06:14Z</time>
      </trkpt>
      <trkpt lat="42.9005710" lon="-2.5428900">
        <ele>545.2</ele>
        <time>2020-09-13T16:06:18Z</time>
      </trkpt>
      <trkpt lat="42.9005710" lon="-2.5428900">
        <ele>545.2</ele>
        <time>2020-09-13T16:06:22Z</time>
      </trkpt>
      <trkpt lat="42.9005710" lon="-2.5428900">
        <ele>545.2</ele>
        <time>2020-09-13T16:06:26Z</time>
      </trkpt>
      <trkpt lat="42.9005710" lon="-2.5428900">
        <ele>545.4</ele>
        <time>2020-09-13T16:06:30Z</time>
      </trkpt>
      <trkpt lat="42.9005710" lon="-2.5428900">
        <ele>545.2</ele>
        <time>2020-09-13T16:06:34Z</time>
      </trkpt>
      <trkpt lat="42.9005710" lon="-2.5428900">
        <ele>545.0</ele>
        <time>2020-09-13T16:06:38Z</time>
      </trkpt>
      <trkpt lat="42.9005710" lon="-2.5428900">
        <ele>545.2</ele>
        <time>2020-09-13T16:06:42Z</time>
      </trkpt>
      <trkpt lat="42.9005710" lon="-2.5428900">
        <ele>545.2</ele>
        <time>2020-09-13T16:06:46Z</time>
      </trkpt>
      <trkpt lat="42.9005710" lon="-2.5428900">
        <ele>545.4</ele>
        <time>2020-09-13T16:06:50Z</time>
      </trkpt>
      <trkpt lat="42.9005710" lon="-2.5428900">
        <ele>545.2</ele>
        <time>2020-09-13T16:06:54Z</time>
      </trkpt>
      <trkpt lat="42.9005710" lon="-2.5428900">
        <ele>545.4</ele>
        <time>2020-09-13T16:06:58Z</time>
      </trkpt>
      <trkpt lat="42.9005710" lon="-2.5428900">
        <ele>545.4</ele>
        <time>2020-09-13T16:07:02Z</time>
      </trkpt>
      <trkpt lat="42.9005710" lon="-2.5428900">
        <ele>545.2</ele>
        <time>2020-09-13T16:07:06Z</time>
      </trkpt>
      <trkpt lat="42.9005710" lon="-2.5428900">
        <ele>545.4</ele>
        <time>2020-09-13T16:07:10Z</time>
      </trkpt>
      <trkpt lat="42.9005710" lon="-2.5428900">
        <ele>545.8</ele>
        <time>2020-09-13T16:07:14Z</time>
      </trkpt>
      <trkpt lat="42.9005710" lon="-2.5428900">
        <ele>545.2</ele>
        <time>2020-09-13T16:07:18Z</time>
      </trkpt>
      <trkpt lat="42.9005710" lon="-2.5428900">
        <ele>545.4</ele>
        <time>2020-09-13T16:07:22Z</time>
      </trkpt>
      <trkpt lat="42.9005710" lon="-2.5428900">
        <ele>545.4</ele>
        <time>2020-09-13T16:07:26Z</time>
      </trkpt>
      <trkpt lat="42.9005710" lon="-2.5428900">
        <ele>545.4</ele>
        <time>2020-09-13T16:07:30Z</time>
      </trkpt>
      <trkpt lat="42.9005710" lon="-2.5428900">
        <ele>545.4</ele>
        <time>2020-09-13T16:07:34Z</time>
      </trkpt>
      <trkpt lat="42.9005710" lon="-2.5428900">
        <ele>545.2</ele>
        <time>2020-09-13T16:07:38Z</time>
      </trkpt>
      <trkpt lat="42.9005710" lon="-2.5428900">
        <ele>545.2</ele>
        <time>2020-09-13T16:07:42Z</time>
      </trkpt>
      <trkpt lat="42.9005710" lon="-2.5428900">
        <ele>545.2</ele>
        <time>2020-09-13T16:07:46Z</time>
      </trkpt>
      <trkpt lat="42.9005710" lon="-2.5428900">
        <ele>545.2</ele>
        <time>2020-09-13T16:07:50Z</time>
      </trkpt>
      <trkpt lat="42.9005710" lon="-2.5428900">
        <ele>545.2</ele>
        <time>2020-09-13T16:07:54Z</time>
      </trkpt>
      <trkpt lat="42.9005710" lon="-2.5428900">
        <ele>545.0</ele>
        <time>2020-09-13T16:07:58Z</time>
      </trkpt>
      <trkpt lat="42.9005710" lon="-2.5428900">
        <ele>544.8</ele>
        <time>2020-09-13T16:08:02Z</time>
      </trkpt>
      <trkpt lat="42.9005710" lon="-2.5428900">
        <ele>545.2</ele>
        <time>2020-09-13T16:08:06Z</time>
      </trkpt>
      <trkpt lat="42.9005710" lon="-2.5428900">
        <ele>545.2</ele>
        <time>2020-09-13T16:08:10Z</time>
      </trkpt>
      <trkpt lat="42.9005710" lon="-2.5428900">
        <ele>545.2</ele>
        <time>2020-09-13T16:08:14Z</time>
      </trkpt>
      <trkpt lat="42.9005710" lon="-2.5428900">
        <ele>545.0</ele>
        <time>2020-09-13T16:08:18Z</time>
      </trkpt>
      <trkpt lat="42.9005710" lon="-2.5428900">
        <ele>545.0</ele>
        <time>2020-09-13T16:08:22Z</time>
      </trkpt>
      <trkpt lat="42.9005710" lon="-2.5428900">
        <ele>545.2</ele>
        <time>2020-09-13T16:08:26Z</time>
      </trkpt>
      <trkpt lat="42.9005710" lon="-2.5428900">
        <ele>545.4</ele>
        <time>2020-09-13T16:08:30Z</time>
      </trkpt>
      <trkpt lat="42.9005710" lon="-2.5428900">
        <ele>545.6</ele>
        <time>2020-09-13T16:08:34Z</time>
      </trkpt>
      <trkpt lat="42.9005710" lon="-2.5428900">
        <ele>545.6</ele>
        <time>2020-09-13T16:08:38Z</time>
      </trkpt>
      <trkpt lat="42.9005710" lon="-2.5428900">
        <ele>545.6</ele>
        <time>2020-09-13T16:08:42Z</time>
      </trkpt>
      <trkpt lat="42.9005710" lon="-2.5428900">
        <ele>545.4</ele>
        <time>2020-09-13T16:08:46Z</time>
      </trkpt>
      <trkpt lat="42.9005710" lon="-2.5428900">
        <ele>545.6</ele>
        <time>2020-09-13T16:08:50Z</time>
      </trkpt>
      <trkpt lat="42.9005710" lon="-2.5428900">
        <ele>545.2</ele>
        <time>2020-09-13T16:08:54Z</time>
      </trkpt>
      <trkpt lat="42.9005710" lon="-2.5428900">
        <ele>545.4</ele>
        <time>2020-09-13T16:08:58Z</time>
      </trkpt>
      <trkpt lat="42.9005710" lon="-2.5428900">
        <ele>545.6</ele>
        <time>2020-09-13T16:09:02Z</time>
      </trkpt>
      <trkpt lat="42.9005710" lon="-2.5428900">
        <ele>545.2</ele>
        <time>2020-09-13T16:09:06Z</time>
      </trkpt>
      <trkpt lat="42.9005710" lon="-2.5428900">
        <ele>545.4</ele>
        <time>2020-09-13T16:09:10Z</time>
      </trkpt>
      <trkpt lat="42.9005710" lon="-2.5428900">
        <ele>545.2</ele>
        <time>2020-09-13T16:09:14Z</time>
      </trkpt>
      <trkpt lat="42.9005710" lon="-2.5428900">
        <ele>545.6</ele>
        <time>2020-09-13T16:09:18Z</time>
      </trkpt>
      <trkpt lat="42.9005710" lon="-2.5428900">
        <ele>545.6</ele>
        <time>2020-09-13T16:09:22Z</time>
      </trkpt>
      <trkpt lat="42.9005710" lon="-2.5428900">
        <ele>545.8</ele>
        <time>2020-09-13T16:09:26Z</time>
      </trkpt>
      <trkpt lat="42.9005710" lon="-2.5428900">
        <ele>545.4</ele>
        <time>2020-09-13T16:09:30Z</time>
      </trkpt>
      <trkpt lat="42.9005710" lon="-2.5428900">
        <ele>545.2</ele>
        <time>2020-09-13T16:09:34Z</time>
      </trkpt>
      <trkpt lat="42.9005710" lon="-2.5428900">
        <ele>545.4</ele>
        <time>2020-09-13T16:09:38Z</time>
      </trkpt>
      <trkpt lat="42.9005710" lon="-2.5428900">
        <ele>545.2</ele>
        <time>2020-09-13T16:09:42Z</time>
      </trkpt>
      <trkpt lat="42.9005710" lon="-2.5428900">
        <ele>545.4</ele>
        <time>2020-09-13T16:09:46Z</time>
      </trkpt>
      <trkpt lat="42.9005710" lon="-2.5428900">
        <ele>545.2</ele>
        <time>2020-09-13T16:09:50Z</time>
      </trkpt>
      <trkpt lat="42.9005710" lon="-2.5428900">
        <ele>545.2</ele>
        <time>2020-09-13T16:09:54Z</time>
      </trkpt>
      <trkpt lat="42.9005710" lon="-2.5428900">
        <ele>545.4</ele>
        <time>2020-09-13T16:09:58Z</time>
      </trkpt>
      <trkpt lat="42.9005710" lon="-2.5428900">
        <ele>545.2</ele>
        <time>2020-09-13T16:10:02Z</time>
      </trkpt>
      <trkpt lat="42.9005710" lon="-2.5428900">
        <ele>545.2</ele>
        <time>2020-09-13T16:10:06Z</time>
      </trkpt>
      <trkpt lat="42.9005710" lon="-2.5428900">
        <ele>545.2</ele>
        <time>2020-09-13T16:10:10Z</time>
      </trkpt>
      <trkpt lat="42.9005710" lon="-2.5428900">
        <ele>545.2</ele>
        <time>2020-09-13T16:10:14Z</time>
      </trkpt>
      <trkpt lat="42.9005710" lon="-2.5428900">
        <ele>545.2</ele>
        <time>2020-09-13T16:10:18Z</time>
      </trkpt>
      <trkpt lat="42.9005710" lon="-2.5428900">
        <ele>545.2</ele>
        <time>2020-09-13T16:10:22Z</time>
      </trkpt>
      <trkpt lat="42.9005710" lon="-2.5428900">
        <ele>545.2</ele>
        <time>2020-09-13T16:10:26Z</time>
      </trkpt>
      <trkpt lat="42.9005710" lon="-2.5428900">
        <ele>545.2</ele>
        <time>2020-09-13T16:10:30Z</time>
      </trkpt>
      <trkpt lat="42.9005710" lon="-2.5428900">
        <ele>545.2</ele>
        <time>2020-09-13T16:10:34Z</time>
      </trkpt>
      <trkpt lat="42.9005710" lon="-2.5428900">
        <ele>545.0</ele>
        <time>2020-09-13T16:10:38Z</time>
      </trkpt>
      <trkpt lat="42.9005710" lon="-2.5428900">
        <ele>545.2</ele>
        <time>2020-09-13T16:10:42Z</time>
      </trkpt>
      <trkpt lat="42.9005710" lon="-2.5428900">
        <ele>545.2</ele>
        <time>2020-09-13T16:10:46Z</time>
      </trkpt>
      <trkpt lat="42.9005710" lon="-2.5428900">
        <ele>545.2</ele>
        <time>2020-09-13T16:10:50Z</time>
      </trkpt>
      <trkpt lat="42.9005710" lon="-2.5428900">
        <ele>545.4</ele>
        <time>2020-09-13T16:10:54Z</time>
      </trkpt>
      <trkpt lat="42.9005710" lon="-2.5428900">
        <ele>545.2</ele>
        <time>2020-09-13T16:10:58Z</time>
      </trkpt>
      <trkpt lat="42.9005710" lon="-2.5428900">
        <ele>545.4</ele>
        <time>2020-09-13T16:11:02Z</time>
      </trkpt>
      <trkpt lat="42.9005710" lon="-2.5428900">
        <ele>545.2</ele>
        <time>2020-09-13T16:11:06Z</time>
      </trkpt>
      <trkpt lat="42.9005710" lon="-2.5428900">
        <ele>545.4</ele>
        <time>2020-09-13T16:11:10Z</time>
      </trkpt>
      <trkpt lat="42.9005710" lon="-2.5428900">
        <ele>545.4</ele>
        <time>2020-09-13T16:11:14Z</time>
      </trkpt>
      <trkpt lat="42.9005710" lon="-2.5428900">
        <ele>545.4</ele>
        <time>2020-09-13T16:11:18Z</time>
      </trkpt>
      <trkpt lat="42.9005710" lon="-2.5428900">
        <ele>545.6</ele>
        <time>2020-09-13T16:11:22Z</time>
      </trkpt>
      <trkpt lat="42.9005710" lon="-2.5428900">
        <ele>545.4</ele>
        <time>2020-09-13T16:11:26Z</time>
      </trkpt>
      <trkpt lat="42.9005710" lon="-2.5428900">
        <ele>545.2</ele>
        <time>2020-09-13T16:11:30Z</time>
      </trkpt>
      <trkpt lat="42.9005710" lon="-2.5428900">
        <ele>545.4</ele>
        <time>2020-09-13T16:11:34Z</time>
      </trkpt>
      <trkpt lat="42.9005710" lon="-2.5428900">
        <ele>545.2</ele>
        <time>2020-09-13T16:11:38Z</time>
      </trkpt>
      <trkpt lat="42.9005710" lon="-2.5428900">
        <ele>545.2</ele>
        <time>2020-09-13T16:11:42Z</time>
      </trkpt>
      <trkpt lat="42.9005710" lon="-2.5428900">
        <ele>545.0</ele>
        <time>2020-09-13T16:11:46Z</time>
      </trkpt>
      <trkpt lat="42.9005710" lon="-2.5428900">
        <ele>545.0</ele>
        <time>2020-09-13T16:11:50Z</time>
      </trkpt>
      <trkpt lat="42.9005710" lon="-2.5428900">
        <ele>545.2</ele>
        <time>2020-09-13T16:11:54Z</time>
      </trkpt>
      <trkpt lat="42.9005710" lon="-2.5428900">
        <ele>545.2</ele>
        <time>2020-09-13T16:11:58Z</time>
      </trkpt>
      <trkpt lat="42.9005710" lon="-2.5428900">
        <ele>545.2</ele>
        <time>2020-09-13T16:12:02Z</time>
      </trkpt>
      <trkpt lat="42.9005710" lon="-2.5428900">
        <ele>545.4</ele>
        <time>2020-09-13T16:12:06Z</time>
      </trkpt>
      <trkpt lat="42.9005710" lon="-2.5428900">
        <ele>545.4</ele>
        <time>2020-09-13T16:12:10Z</time>
      </trkpt>
      <trkpt lat="42.9005710" lon="-2.5428900">
        <ele>545.4</ele>
        <time>2020-09-13T16:12:14Z</time>
      </trkpt>
      <trkpt lat="42.9005710" lon="-2.5428900">
        <ele>545.4</ele>
        <time>2020-09-13T16:12:18Z</time>
      </trkpt>
      <trkpt lat="42.9005710" lon="-2.5428900">
        <ele>545.4</ele>
        <time>2020-09-13T16:12:22Z</time>
      </trkpt>
      <trkpt lat="42.9005710" lon="-2.5428900">
        <ele>545.2</ele>
        <time>2020-09-13T16:12:26Z</time>
      </trkpt>
      <trkpt lat="42.9005710" lon="-2.5428900">
        <ele>545.2</ele>
        <time>2020-09-13T16:12:30Z</time>
      </trkpt>
      <trkpt lat="42.9005710" lon="-2.5428900">
        <ele>545.2</ele>
        <time>2020-09-13T16:12:34Z</time>
      </trkpt>
      <trkpt lat="42.9005710" lon="-2.5428900">
        <ele>545.2</ele>
        <time>2020-09-13T16:12:38Z</time>
      </trkpt>
      <trkpt lat="42.9005710" lon="-2.5428900">
        <ele>545.4</ele>
        <time>2020-09-13T16:12:42Z</time>
      </trkpt>
      <trkpt lat="42.9005710" lon="-2.5428900">
        <ele>545.2</ele>
        <time>2020-09-13T16:12:46Z</time>
      </trkpt>
      <trkpt lat="42.9005710" lon="-2.5428900">
        <ele>545.2</ele>
        <time>2020-09-13T16:12:50Z</time>
      </trkpt>
      <trkpt lat="42.9005710" lon="-2.5428900">
        <ele>545.2</ele>
        <time>2020-09-13T16:12:54Z</time>
      </trkpt>
      <trkpt lat="42.9005710" lon="-2.5428900">
        <ele>545.2</ele>
        <time>2020-09-13T16:12:58Z</time>
      </trkpt>
      <trkpt lat="42.9005710" lon="-2.5428900">
        <ele>545.0</ele>
        <time>2020-09-13T16:13:02Z</time>
      </trkpt>
      <trkpt lat="42.9005710" lon="-2.5428900">
        <ele>545.0</ele>
        <time>2020-09-13T16:13:06Z</time>
      </trkpt>
      <trkpt lat="42.9005710" lon="-2.5428900">
        <ele>544.8</ele>
        <time>2020-09-13T16:13:10Z</time>
      </trkpt>
      <trkpt lat="42.9005710" lon="-2.5428900">
        <ele>544.8</ele>
        <time>2020-09-13T16:13:14Z</time>
      </trkpt>
      <trkpt lat="42.9005710" lon="-2.5428900">
        <ele>545.0</ele>
        <time>2020-09-13T16:13:18Z</time>
      </trkpt>
      <trkpt lat="42.9005710" lon="-2.5428900">
        <ele>545.2</ele>
        <time>2020-09-13T16:13:22Z</time>
      </trkpt>
      <trkpt lat="42.9005710" lon="-2.5428900">
        <ele>545.2</ele>
        <time>2020-09-13T16:13:26Z</time>
      </trkpt>
      <trkpt lat="42.9005710" lon="-2.5428900">
        <ele>545.4</ele>
        <time>2020-09-13T16:13:30Z</time>
      </trkpt>
      <trkpt lat="42.9005710" lon="-2.5428900">
        <ele>545.4</ele>
        <time>2020-09-13T16:13:34Z</time>
      </trkpt>
      <trkpt lat="42.9005710" lon="-2.5428900">
        <ele>545.0</ele>
        <time>2020-09-13T16:13:38Z</time>
      </trkpt>
      <trkpt lat="42.9005710" lon="-2.5428900">
        <ele>545.4</ele>
        <time>2020-09-13T16:13:42Z</time>
      </trkpt>
      <trkpt lat="42.9005710" lon="-2.5428900">
        <ele>545.2</ele>
        <time>2020-09-13T16:13:46Z</time>
      </trkpt>
      <trkpt lat="42.9005710" lon="-2.5428900">
        <ele>545.0</ele>
        <time>2020-09-13T16:13:50Z</time>
      </trkpt>
      <trkpt lat="42.9005710" lon="-2.5428900">
        <ele>545.2</ele>
        <time>2020-09-13T16:13:54Z</time>
      </trkpt>
      <trkpt lat="42.9005710" lon="-2.5428900">
        <ele>545.6</ele>
        <time>2020-09-13T16:13:58Z</time>
      </trkpt>
      <trkpt lat="42.9005710" lon="-2.5428900">
        <ele>545.2</ele>
        <time>2020-09-13T16:14:02Z</time>
      </trkpt>
      <trkpt lat="42.9005710" lon="-2.5428900">
        <ele>545.4</ele>
        <time>2020-09-13T16:14:06Z</time>
      </trkpt>
      <trkpt lat="42.9005710" lon="-2.5428900">
        <ele>545.6</ele>
        <time>2020-09-13T16:14:10Z</time>
      </trkpt>
      <trkpt lat="42.9005710" lon="-2.5428900">
        <ele>545.2</ele>
        <time>2020-09-13T16:14:14Z</time>
      </trkpt>
      <trkpt lat="42.9005710" lon="-2.5428900">
        <ele>545.2</ele>
        <time>2020-09-13T16:14:18Z</time>
      </trkpt>
      <trkpt lat="42.9005710" lon="-2.5428900">
        <ele>545.4</ele>
        <time>2020-09-13T16:14:22Z</time>
      </trkpt>
      <trkpt lat="42.9005710" lon="-2.5428900">
        <ele>545.2</ele>
        <time>2020-09-13T16:14:26Z</time>
      </trkpt>
      <trkpt lat="42.9005710" lon="-2.5428900">
        <ele>545.2</ele>
        <time>2020-09-13T16:14:30Z</time>
      </trkpt>
      <trkpt lat="42.9005710" lon="-2.5428900">
        <ele>545.2</ele>
        <time>2020-09-13T16:14:34Z</time>
      </trkpt>
      <trkpt lat="42.9005710" lon="-2.5428900">
        <ele>545.2</ele>
        <time>2020-09-13T16:14:38Z</time>
      </trkpt>
      <trkpt lat="42.9005710" lon="-2.5428900">
        <ele>545.2</ele>
        <time>2020-09-13T16:14:42Z</time>
      </trkpt>
      <trkpt lat="42.9005710" lon="-2.5428900">
        <ele>545.2</ele>
        <time>2020-09-13T16:14:46Z</time>
      </trkpt>
      <trkpt lat="42.9005710" lon="-2.5428900">
        <ele>545.2</ele>
        <time>2020-09-13T16:14:50Z</time>
      </trkpt>
      <trkpt lat="42.9005710" lon="-2.5428900">
        <ele>545.2</ele>
        <time>2020-09-13T16:14:54Z</time>
      </trkpt>
      <trkpt lat="42.9005710" lon="-2.5428900">
        <ele>545.4</ele>
        <time>2020-09-13T16:14:58Z</time>
      </trkpt>
      <trkpt lat="42.9005710" lon="-2.5428900">
        <ele>545.4</ele>
        <time>2020-09-13T16:15:02Z</time>
      </trkpt>
      <trkpt lat="42.9005710" lon="-2.5428900">
        <ele>545.4</ele>
        <time>2020-09-13T16:15:06Z</time>
      </trkpt>
      <trkpt lat="42.9005710" lon="-2.5428900">
        <ele>545.2</ele>
        <time>2020-09-13T16:15:10Z</time>
      </trkpt>
      <trkpt lat="42.9005710" lon="-2.5428900">
        <ele>545.4</ele>
        <time>2020-09-13T16:15:14Z</time>
      </trkpt>
      <trkpt lat="42.9005710" lon="-2.5428900">
        <ele>545.4</ele>
        <time>2020-09-13T16:15:18Z</time>
      </trkpt>
      <trkpt lat="42.9005710" lon="-2.5428900">
        <ele>545.4</ele>
        <time>2020-09-13T16:15:22Z</time>
      </trkpt>
      <trkpt lat="42.9005710" lon="-2.5428900">
        <ele>545.2</ele>
        <time>2020-09-13T16:15:26Z</time>
      </trkpt>
      <trkpt lat="42.9005710" lon="-2.5428900">
        <ele>545.4</ele>
        <time>2020-09-13T16:15:30Z</time>
      </trkpt>
      <trkpt lat="42.9005710" lon="-2.5428900">
        <ele>545.0</ele>
        <time>2020-09-13T16:15:34Z</time>
      </trkpt>
      <trkpt lat="42.9005710" lon="-2.5428900">
        <ele>545.0</ele>
        <time>2020-09-13T16:15:38Z</time>
      </trkpt>
      <trkpt lat="42.9005710" lon="-2.5428900">
        <ele>545.2</ele>
        <time>2020-09-13T16:15:42Z</time>
      </trkpt>
      <trkpt lat="42.9005710" lon="-2.5428900">
        <ele>545.2</ele>
        <time>2020-09-13T16:15:46Z</time>
      </trkpt>
      <trkpt lat="42.9005710" lon="-2.5428900">
        <ele>545.2</ele>
        <time>2020-09-13T16:15:50Z</time>
      </trkpt>
      <trkpt lat="42.9005710" lon="-2.5428900">
        <ele>545.4</ele>
        <time>2020-09-13T16:15:54Z</time>
      </trkpt>
      <trkpt lat="42.9005710" lon="-2.5428900">
        <ele>545.4</ele>
        <time>2020-09-13T16:15:58Z</time>
      </trkpt>
      <trkpt lat="42.9005710" lon="-2.5428900">
        <ele>545.0</ele>
        <time>2020-09-13T16:16:02Z</time>
      </trkpt>
      <trkpt lat="42.9005710" lon="-2.5428900">
        <ele>545.2</ele>
        <time>2020-09-13T16:16:06Z</time>
      </trkpt>
      <trkpt lat="42.9005710" lon="-2.5428900">
        <ele>545.4</ele>
        <time>2020-09-13T16:16:10Z</time>
      </trkpt>
      <trkpt lat="42.9005710" lon="-2.5428900">
        <ele>545.8</ele>
        <time>2020-09-13T16:16:14Z</time>
      </trkpt>
      <trkpt lat="42.9005710" lon="-2.5428900">
        <ele>545.2</ele>
        <time>2020-09-13T16:16:18Z</time>
      </trkpt>
      <trkpt lat="42.9005710" lon="-2.5428900">
        <ele>545.6</ele>
        <time>2020-09-13T16:16:22Z</time>
      </trkpt>
      <trkpt lat="42.9005710" lon="-2.5428900">
        <ele>545.2</ele>
        <time>2020-09-13T16:16:26Z</time>
      </trkpt>
      <trkpt lat="42.9005710" lon="-2.5428900">
        <ele>545.2</ele>
        <time>2020-09-13T16:16:30Z</time>
      </trkpt>
      <trkpt lat="42.9005710" lon="-2.5428900">
        <ele>545.0</ele>
        <time>2020-09-13T16:16:34Z</time>
      </trkpt>
      <trkpt lat="42.9005710" lon="-2.5428900">
        <ele>545.2</ele>
        <time>2020-09-13T16:16:38Z</time>
      </trkpt>
      <trkpt lat="42.9005710" lon="-2.5428900">
        <ele>545.6</ele>
        <time>2020-09-13T16:16:42Z</time>
      </trkpt>
      <trkpt lat="42.9005710" lon="-2.5428900">
        <ele>545.0</ele>
        <time>2020-09-13T16:16:46Z</time>
      </trkpt>
      <trkpt lat="42.9005710" lon="-2.5428900">
        <ele>545.4</ele>
        <time>2020-09-13T16:16:50Z</time>
      </trkpt>
      <trkpt lat="42.9005710" lon="-2.5428900">
        <ele>545.4</ele>
        <time>2020-09-13T16:16:54Z</time>
      </trkpt>
      <trkpt lat="42.9005710" lon="-2.5428900">
        <ele>545.2</ele>
        <time>2020-09-13T16:16:58Z</time>
      </trkpt>
      <trkpt lat="42.9005710" lon="-2.5428900">
        <ele>545.2</ele>
        <time>2020-09-13T16:17:02Z</time>
      </trkpt>
      <trkpt lat="42.9005710" lon="-2.5428900">
        <ele>545.4</ele>
        <time>2020-09-13T16:17:06Z</time>
      </trkpt>
      <trkpt lat="42.9005710" lon="-2.5428900">
        <ele>545.4</ele>
        <time>2020-09-13T16:17:10Z</time>
      </trkpt>
      <trkpt lat="42.9005710" lon="-2.5428900">
        <ele>545.6</ele>
        <time>2020-09-13T16:17:14Z</time>
      </trkpt>
      <trkpt lat="42.9005710" lon="-2.5428900">
        <ele>545.2</ele>
        <time>2020-09-13T16:17:18Z</time>
      </trkpt>
      <trkpt lat="42.9005710" lon="-2.5428900">
        <ele>545.4</ele>
        <time>2020-09-13T16:17:22Z</time>
      </trkpt>
      <trkpt lat="42.9005710" lon="-2.5428900">
        <ele>545.6</ele>
        <time>2020-09-13T16:17:26Z</time>
      </trkpt>
      <trkpt lat="42.9005710" lon="-2.5428900">
        <ele>545.4</ele>
        <time>2020-09-13T16:17:30Z</time>
      </trkpt>
      <trkpt lat="42.9005710" lon="-2.5428900">
        <ele>545.2</ele>
        <time>2020-09-13T16:17:34Z</time>
      </trkpt>
      <trkpt lat="42.9005710" lon="-2.5428900">
        <ele>545.6</ele>
        <time>2020-09-13T16:17:38Z</time>
      </trkpt>
      <trkpt lat="42.9005710" lon="-2.5428900">
        <ele>545.4</ele>
        <time>2020-09-13T16:17:42Z</time>
      </trkpt>
      <trkpt lat="42.9005710" lon="-2.5428900">
        <ele>545.6</ele>
        <time>2020-09-13T16:17:46Z</time>
      </trkpt>
      <trkpt lat="42.9005710" lon="-2.5428900">
        <ele>545.2</ele>
        <time>2020-09-13T16:17:50Z</time>
      </trkpt>
      <trkpt lat="42.9005710" lon="-2.5428900">
        <ele>545.6</ele>
        <time>2020-09-13T16:17:54Z</time>
      </trkpt>
      <trkpt lat="42.9005710" lon="-2.5428900">
        <ele>545.2</ele>
        <time>2020-09-13T16:17:58Z</time>
      </trkpt>
      <trkpt lat="42.9005710" lon="-2.5428900">
        <ele>545.6</ele>
        <time>2020-09-13T16:18:02Z</time>
      </trkpt>
      <trkpt lat="42.9005710" lon="-2.5428900">
        <ele>545.6</ele>
        <time>2020-09-13T16:18:06Z</time>
      </trkpt>
      <trkpt lat="42.9005710" lon="-2.5428900">
        <ele>545.2</ele>
        <time>2020-09-13T16:18:10Z</time>
      </trkpt>
      <trkpt lat="42.9005710" lon="-2.5428900">
        <ele>545.4</ele>
        <time>2020-09-13T16:18:14Z</time>
      </trkpt>
      <trkpt lat="42.9005710" lon="-2.5428900">
        <ele>545.8</ele>
        <time>2020-09-13T16:18:18Z</time>
      </trkpt>
      <trkpt lat="42.9005710" lon="-2.5428900">
        <ele>545.4</ele>
        <time>2020-09-13T16:18:22Z</time>
      </trkpt>
      <trkpt lat="42.9005710" lon="-2.5428900">
        <ele>545.6</ele>
        <time>2020-09-13T16:18:26Z</time>
      </trkpt>
      <trkpt lat="42.9005710" lon="-2.5428900">
        <ele>545.6</ele>
        <time>2020-09-13T16:18:30Z</time>
      </trkpt>
      <trkpt lat="42.9005710" lon="-2.5428900">
        <ele>545.8</ele>
        <time>2020-09-13T16:18:34Z</time>
      </trkpt>
      <trkpt lat="42.9005710" lon="-2.5428900">
        <ele>545.2</ele>
        <time>2020-09-13T16:18:38Z</time>
      </trkpt>
      <trkpt lat="42.9005710" lon="-2.5428900">
        <ele>545.4</ele>
        <time>2020-09-13T16:18:42Z</time>
      </trkpt>
      <trkpt lat="42.9005710" lon="-2.5428900">
        <ele>545.2</ele>
        <time>2020-09-13T16:18:46Z</time>
      </trkpt>
      <trkpt lat="42.9005710" lon="-2.5428900">
        <ele>545.8</ele>
        <time>2020-09-13T16:18:50Z</time>
      </trkpt>
      <trkpt lat="42.9005710" lon="-2.5428900">
        <ele>545.6</ele>
        <time>2020-09-13T16:18:54Z</time>
      </trkpt>
      <trkpt lat="42.9005710" lon="-2.5428900">
        <ele>545.6</ele>
        <time>2020-09-13T16:18:58Z</time>
      </trkpt>
      <trkpt lat="42.9005710" lon="-2.5428900">
        <ele>545.6</ele>
        <time>2020-09-13T16:19:02Z</time>
      </trkpt>
      <trkpt lat="42.9005710" lon="-2.5428900">
        <ele>545.4</ele>
        <time>2020-09-13T16:19:06Z</time>
      </trkpt>
      <trkpt lat="42.9005710" lon="-2.5428900">
        <ele>545.4</ele>
        <time>2020-09-13T16:19:10Z</time>
      </trkpt>
      <trkpt lat="42.9005710" lon="-2.5428900">
        <ele>545.2</ele>
        <time>2020-09-13T16:19:14Z</time>
      </trkpt>
      <trkpt lat="42.9005710" lon="-2.5428900">
        <ele>545.4</ele>
        <time>2020-09-13T16:19:18Z</time>
      </trkpt>
      <trkpt lat="42.9005710" lon="-2.5428900">
        <ele>545.2</ele>
        <time>2020-09-13T16:19:22Z</time>
      </trkpt>
      <trkpt lat="42.9005710" lon="-2.5428900">
        <ele>545.8</ele>
        <time>2020-09-13T16:19:26Z</time>
      </trkpt>
      <trkpt lat="42.9005710" lon="-2.5428900">
        <ele>545.4</ele>
        <time>2020-09-13T16:19:30Z</time>
      </trkpt>
      <trkpt lat="42.9005710" lon="-2.5428900">
        <ele>545.2</ele>
        <time>2020-09-13T16:19:34Z</time>
      </trkpt>
      <trkpt lat="42.9005710" lon="-2.5428900">
        <ele>545.4</ele>
        <time>2020-09-13T16:19:38Z</time>
      </trkpt>
      <trkpt lat="42.9005710" lon="-2.5428900">
        <ele>545.2</ele>
        <time>2020-09-13T16:19:42Z</time>
      </trkpt>
      <trkpt lat="42.9005710" lon="-2.5428900">
        <ele>545.2</ele>
        <time>2020-09-13T16:19:46Z</time>
      </trkpt>
      <trkpt lat="42.9005710" lon="-2.5428900">
        <ele>545.2</ele>
        <time>2020-09-13T16:19:50Z</time>
      </trkpt>
      <trkpt lat="42.9005710" lon="-2.5428900">
        <ele>545.8</ele>
        <time>2020-09-13T16:19:54Z</time>
      </trkpt>
      <trkpt lat="42.9005710" lon="-2.5428900">
        <ele>545.2</ele>
        <time>2020-09-13T16:19:58Z</time>
      </trkpt>
      <trkpt lat="42.9005710" lon="-2.5428900">
        <ele>545.4</ele>
        <time>2020-09-13T16:20:02Z</time>
      </trkpt>
      <trkpt lat="42.9005710" lon="-2.5428900">
        <ele>545.2</ele>
        <time>2020-09-13T16:20:06Z</time>
      </trkpt>
      <trkpt lat="42.9005710" lon="-2.5428900">
        <ele>545.0</ele>
        <time>2020-09-13T16:20:10Z</time>
      </trkpt>
      <trkpt lat="42.9005710" lon="-2.5428900">
        <ele>545.6</ele>
        <time>2020-09-13T16:20:14Z</time>
      </trkpt>
      <trkpt lat="42.9005710" lon="-2.5428900">
        <ele>545.4</ele>
        <time>2020-09-13T16:20:18Z</time>
      </trkpt>
      <trkpt lat="42.9005710" lon="-2.5428900">
        <ele>545.6</ele>
        <time>2020-09-13T16:20:22Z</time>
      </trkpt>
      <trkpt lat="42.9005710" lon="-2.5428900">
        <ele>545.8</ele>
        <time>2020-09-13T16:20:26Z</time>
      </trkpt>
      <trkpt lat="42.9005710" lon="-2.5428900">
        <ele>545.8</ele>
        <time>2020-09-13T16:20:30Z</time>
      </trkpt>
      <trkpt lat="42.9005710" lon="-2.5428900">
        <ele>545.6</ele>
        <time>2020-09-13T16:20:34Z</time>
      </trkpt>
      <trkpt lat="42.9005710" lon="-2.5428900">
        <ele>545.6</ele>
        <time>2020-09-13T16:20:38Z</time>
      </trkpt>
      <trkpt lat="42.9005710" lon="-2.5428900">
        <ele>545.6</ele>
        <time>2020-09-13T16:20:42Z</time>
      </trkpt>
      <trkpt lat="42.9005710" lon="-2.5428900">
        <ele>546.0</ele>
        <time>2020-09-13T16:20:46Z</time>
      </trkpt>
      <trkpt lat="42.9005710" lon="-2.5428900">
        <ele>545.8</ele>
        <time>2020-09-13T16:20:50Z</time>
      </trkpt>
      <trkpt lat="42.9005710" lon="-2.5428900">
        <ele>545.6</ele>
        <time>2020-09-13T16:20:54Z</time>
      </trkpt>
      <trkpt lat="42.9005710" lon="-2.5428900">
        <ele>546.0</ele>
        <time>2020-09-13T16:20:58Z</time>
      </trkpt>
      <trkpt lat="42.9005710" lon="-2.5428900">
        <ele>545.8</ele>
        <time>2020-09-13T16:21:02Z</time>
      </trkpt>
      <trkpt lat="42.9005710" lon="-2.5428900">
        <ele>545.4</ele>
        <time>2020-09-13T16:21:06Z</time>
      </trkpt>
      <trkpt lat="42.9005710" lon="-2.5428900">
        <ele>545.8</ele>
        <time>2020-09-13T16:21:10Z</time>
      </trkpt>
      <trkpt lat="42.9005710" lon="-2.5428900">
        <ele>545.6</ele>
        <time>2020-09-13T16:21:14Z</time>
      </trkpt>
      <trkpt lat="42.9005710" lon="-2.5428900">
        <ele>545.6</ele>
        <time>2020-09-13T16:21:18Z</time>
      </trkpt>
      <trkpt lat="42.9005710" lon="-2.5428900">
        <ele>545.8</ele>
        <time>2020-09-13T16:21:22Z</time>
      </trkpt>
      <trkpt lat="42.9005710" lon="-2.5428900">
        <ele>545.6</ele>
        <time>2020-09-13T16:21:26Z</time>
      </trkpt>
      <trkpt lat="42.9005710" lon="-2.5428900">
        <ele>545.6</ele>
        <time>2020-09-13T16:21:30Z</time>
      </trkpt>
      <trkpt lat="42.9005710" lon="-2.5428900">
        <ele>545.6</ele>
        <time>2020-09-13T16:21:34Z</time>
      </trkpt>
      <trkpt lat="42.9005710" lon="-2.5428900">
        <ele>545.2</ele>
        <time>2020-09-13T16:21:38Z</time>
      </trkpt>
      <trkpt lat="42.9005710" lon="-2.5428900">
        <ele>545.2</ele>
        <time>2020-09-13T16:21:42Z</time>
      </trkpt>
      <trkpt lat="42.9005710" lon="-2.5428900">
        <ele>545.4</ele>
        <time>2020-09-13T16:21:46Z</time>
      </trkpt>
      <trkpt lat="42.9005710" lon="-2.5428900">
        <ele>545.4</ele>
        <time>2020-09-13T16:21:50Z</time>
      </trkpt>
      <trkpt lat="42.9005710" lon="-2.5428900">
        <ele>545.4</ele>
        <time>2020-09-13T16:21:54Z</time>
      </trkpt>
      <trkpt lat="42.9005710" lon="-2.5428900">
        <ele>545.0</ele>
        <time>2020-09-13T16:21:58Z</time>
      </trkpt>
      <trkpt lat="42.9005710" lon="-2.5428900">
        <ele>545.2</ele>
        <time>2020-09-13T16:22:02Z</time>
      </trkpt>
      <trkpt lat="42.9005710" lon="-2.5428900">
        <ele>545.2</ele>
        <time>2020-09-13T16:22:06Z</time>
      </trkpt>
      <trkpt lat="42.9005710" lon="-2.5428900">
        <ele>544.8</ele>
        <time>2020-09-13T16:22:10Z</time>
      </trkpt>
      <trkpt lat="42.9005710" lon="-2.5428900">
        <ele>546.0</ele>
        <time>2020-09-13T16:22:14Z</time>
      </trkpt>
      <trkpt lat="42.9005710" lon="-2.5428900">
        <ele>544.6</ele>
        <time>2020-09-13T16:22:18Z</time>
      </trkpt>
      <trkpt lat="42.9005710" lon="-2.5428900">
        <ele>546.0</ele>
        <time>2020-09-13T16:22:22Z</time>
      </trkpt>
      <trkpt lat="42.9005710" lon="-2.5428900">
        <ele>546.0</ele>
        <time>2020-09-13T16:22:26Z</time>
      </trkpt>
      <trkpt lat="42.9005710" lon="-2.5428900">
        <ele>545.2</ele>
        <time>2020-09-13T16:22:30Z</time>
      </trkpt>
      <trkpt lat="42.9005710" lon="-2.5428900">
        <ele>545.2</ele>
        <time>2020-09-13T16:22:34Z</time>
      </trkpt>
      <trkpt lat="42.9005710" lon="-2.5428900">
        <ele>545.2</ele>
        <time>2020-09-13T16:22:38Z</time>
      </trkpt>
      <trkpt lat="42.9005710" lon="-2.5428900">
        <ele>545.2</ele>
        <time>2020-09-13T16:22:42Z</time>
      </trkpt>
      <trkpt lat="42.9005710" lon="-2.5428900">
        <ele>545.2</ele>
        <time>2020-09-13T16:22:46Z</time>
      </trkpt>
      <trkpt lat="42.9005710" lon="-2.5428900">
        <ele>545.2</ele>
        <time>2020-09-13T16:22:50Z</time>
      </trkpt>
      <trkpt lat="42.9005710" lon="-2.5428900">
        <ele>545.4</ele>
        <time>2020-09-13T16:22:54Z</time>
      </trkpt>
      <trkpt lat="42.9005710" lon="-2.5428900">
        <ele>545.2</ele>
        <time>2020-09-13T16:22:58Z</time>
      </trkpt>
      <trkpt lat="42.9005710" lon="-2.5428900">
        <ele>544.8</ele>
        <time>2020-09-13T16:23:02Z</time>
      </trkpt>
      <trkpt lat="42.9005710" lon="-2.5428900">
        <ele>545.6</ele>
        <time>2020-09-13T16:23:06Z</time>
      </trkpt>
      <trkpt lat="42.9005710" lon="-2.5428900">
        <ele>545.8</ele>
        <time>2020-09-13T16:23:10Z</time>
      </trkpt>
      <trkpt lat="42.9005710" lon="-2.5428900">
        <ele>545.6</ele>
        <time>2020-09-13T16:23:14Z</time>
      </trkpt>
      <trkpt lat="42.9005710" lon="-2.5428900">
        <ele>545.6</ele>
        <time>2020-09-13T16:23:18Z</time>
      </trkpt>
      <trkpt lat="42.9005710" lon="-2.5428900">
        <ele>545.4</ele>
        <time>2020-09-13T16:23:22Z</time>
      </trkpt>
      <trkpt lat="42.9005710" lon="-2.5428900">
        <ele>545.2</ele>
        <time>2020-09-13T16:23:26Z</time>
      </trkpt>
      <trkpt lat="42.9005710" lon="-2.5428900">
        <ele>545.6</ele>
        <time>2020-09-13T16:23:30Z</time>
      </trkpt>
      <trkpt lat="42.9005710" lon="-2.5428900">
        <ele>545.0</ele>
        <time>2020-09-13T16:23:34Z</time>
      </trkpt>
      <trkpt lat="42.9005710" lon="-2.5428900">
        <ele>545.0</ele>
        <time>2020-09-13T16:23:38Z</time>
      </trkpt>
      <trkpt lat="42.9005710" lon="-2.5428900">
        <ele>545.8</ele>
        <time>2020-09-13T16:23:42Z</time>
      </trkpt>
      <trkpt lat="42.9005710" lon="-2.5428900">
        <ele>545.4</ele>
        <time>2020-09-13T16:23:46Z</time>
      </trkpt>
      <trkpt lat="42.9005710" lon="-2.5428900">
        <ele>545.2</ele>
        <time>2020-09-13T16:23:50Z</time>
      </trkpt>
      <trkpt lat="42.9005710" lon="-2.5428900">
        <ele>545.2</ele>
        <time>2020-09-13T16:23:54Z</time>
      </trkpt>
      <trkpt lat="42.9005710" lon="-2.5428900">
        <ele>545.4</ele>
        <time>2020-09-13T16:23:58Z</time>
      </trkpt>
      <trkpt lat="42.9005710" lon="-2.5428900">
        <ele>545.2</ele>
        <time>2020-09-13T16:24:02Z</time>
      </trkpt>
      <trkpt lat="42.9005710" lon="-2.5428900">
        <ele>545.8</ele>
        <time>2020-09-13T16:24:06Z</time>
      </trkpt>
      <trkpt lat="42.9005710" lon="-2.5428900">
        <ele>545.8</ele>
        <time>2020-09-13T16:24:10Z</time>
      </trkpt>
      <trkpt lat="42.9005710" lon="-2.5428900">
        <ele>545.6</ele>
        <time>2020-09-13T16:24:14Z</time>
      </trkpt>
      <trkpt lat="42.9005710" lon="-2.5428900">
        <ele>545.4</ele>
        <time>2020-09-13T16:24:18Z</time>
      </trkpt>
      <trkpt lat="42.9005710" lon="-2.5428900">
        <ele>545.6</ele>
        <time>2020-09-13T16:24:22Z</time>
      </trkpt>
      <trkpt lat="42.9005710" lon="-2.5428900">
        <ele>545.4</ele>
        <time>2020-09-13T16:24:26Z</time>
      </trkpt>
      <trkpt lat="42.9005710" lon="-2.5428900">
        <ele>545.6</ele>
        <time>2020-09-13T16:24:30Z</time>
      </trkpt>
      <trkpt lat="42.9005710" lon="-2.5428900">
        <ele>545.6</ele>
        <time>2020-09-13T16:24:34Z</time>
      </trkpt>
      <trkpt lat="42.9005710" lon="-2.5428900">
        <ele>545.8</ele>
        <time>2020-09-13T16:24:38Z</time>
      </trkpt>
      <trkpt lat="42.9005710" lon="-2.5428900">
        <ele>545.4</ele>
        <time>2020-09-13T16:24:42Z</time>
      </trkpt>
      <trkpt lat="42.9005710" lon="-2.5428900">
        <ele>545.4</ele>
        <time>2020-09-13T16:24:46Z</time>
      </trkpt>
      <trkpt lat="42.9005710" lon="-2.5428900">
        <ele>545.6</ele>
        <time>2020-09-13T16:24:50Z</time>
      </trkpt>
      <trkpt lat="42.9005710" lon="-2.5428900">
        <ele>545.2</ele>
        <time>2020-09-13T16:24:54Z</time>
      </trkpt>
      <trkpt lat="42.9005710" lon="-2.5428900">
        <ele>545.6</ele>
        <time>2020-09-13T16:24:58Z</time>
      </trkpt>
      <trkpt lat="42.9005710" lon="-2.5428900">
        <ele>545.8</ele>
        <time>2020-09-13T16:25:02Z</time>
      </trkpt>
      <trkpt lat="42.9005710" lon="-2.5428900">
        <ele>545.6</ele>
        <time>2020-09-13T16:25:06Z</time>
      </trkpt>
      <trkpt lat="42.9005710" lon="-2.5428900">
        <ele>545.8</ele>
        <time>2020-09-13T16:25:10Z</time>
      </trkpt>
      <trkpt lat="42.9005710" lon="-2.5428900">
        <ele>545.8</ele>
        <time>2020-09-13T16:25:14Z</time>
      </trkpt>
      <trkpt lat="42.9005710" lon="-2.5428900">
        <ele>546.0</ele>
        <time>2020-09-13T16:25:18Z</time>
      </trkpt>
      <trkpt lat="42.9005710" lon="-2.5428900">
        <ele>545.8</ele>
        <time>2020-09-13T16:25:22Z</time>
      </trkpt>
      <trkpt lat="42.9005710" lon="-2.5428900">
        <ele>546.0</ele>
        <time>2020-09-13T16:25:26Z</time>
      </trkpt>
      <trkpt lat="42.9005710" lon="-2.5428900">
        <ele>545.6</ele>
        <time>2020-09-13T16:25:30Z</time>
      </trkpt>
      <trkpt lat="42.9005710" lon="-2.5428900">
        <ele>546.0</ele>
        <time>2020-09-13T16:25:34Z</time>
      </trkpt>
      <trkpt lat="42.9005710" lon="-2.5428900">
        <ele>545.4</ele>
        <time>2020-09-13T16:25:38Z</time>
      </trkpt>
      <trkpt lat="42.9005710" lon="-2.5428900">
        <ele>545.8</ele>
        <time>2020-09-13T16:25:42Z</time>
      </trkpt>
      <trkpt lat="42.9005710" lon="-2.5428900">
        <ele>545.4</ele>
        <time>2020-09-13T16:25:46Z</time>
      </trkpt>
      <trkpt lat="42.9005710" lon="-2.5428900">
        <ele>545.6</ele>
        <time>2020-09-13T16:25:50Z</time>
      </trkpt>
      <trkpt lat="42.9005710" lon="-2.5428900">
        <ele>545.8</ele>
        <time>2020-09-13T16:25:54Z</time>
      </trkpt>
      <trkpt lat="42.9005710" lon="-2.5428900">
        <ele>546.0</ele>
        <time>2020-09-13T16:25:58Z</time>
      </trkpt>
      <trkpt lat="42.9005710" lon="-2.5428900">
        <ele>545.6</ele>
        <time>2020-09-13T16:26:02Z</time>
      </trkpt>
      <trkpt lat="42.9005710" lon="-2.5428900">
        <ele>546.0</ele>
        <time>2020-09-13T16:26:06Z</time>
      </trkpt>
      <trkpt lat="42.9005710" lon="-2.5428900">
        <ele>545.8</ele>
        <time>2020-09-13T16:26:10Z</time>
      </trkpt>
      <trkpt lat="42.9005710" lon="-2.5428900">
        <ele>545.6</ele>
        <time>2020-09-13T16:26:14Z</time>
      </trkpt>
      <trkpt lat="42.9005710" lon="-2.5428900">
        <ele>545.4</ele>
        <time>2020-09-13T16:26:18Z</time>
      </trkpt>
      <trkpt lat="42.9005710" lon="-2.5428900">
        <ele>545.6</ele>
        <time>2020-09-13T16:26:22Z</time>
      </trkpt>
      <trkpt lat="42.9005710" lon="-2.5428900">
        <ele>545.6</ele>
        <time>2020-09-13T16:26:26Z</time>
      </trkpt>
      <trkpt lat="42.9005710" lon="-2.5428900">
        <ele>545.8</ele>
        <time>2020-09-13T16:26:30Z</time>
      </trkpt>
      <trkpt lat="42.9005710" lon="-2.5428900">
        <ele>545.6</ele>
        <time>2020-09-13T16:26:34Z</time>
      </trkpt>
      <trkpt lat="42.9005710" lon="-2.5428900">
        <ele>545.6</ele>
        <time>2020-09-13T16:26:38Z</time>
      </trkpt>
      <trkpt lat="42.9005710" lon="-2.5428900">
        <ele>545.4</ele>
        <time>2020-09-13T16:26:42Z</time>
      </trkpt>
      <trkpt lat="42.9005710" lon="-2.5428900">
        <ele>545.4</ele>
        <time>2020-09-13T16:26:46Z</time>
      </trkpt>
      <trkpt lat="42.9005710" lon="-2.5428900">
        <ele>545.6</ele>
        <time>2020-09-13T16:26:50Z</time>
      </trkpt>
      <trkpt lat="42.9005710" lon="-2.5428900">
        <ele>545.8</ele>
        <time>2020-09-13T16:26:54Z</time>
      </trkpt>
      <trkpt lat="42.9005710" lon="-2.5428900">
        <ele>545.6</ele>
        <time>2020-09-13T16:26:58Z</time>
      </trkpt>
      <trkpt lat="42.9005710" lon="-2.5428900">
        <ele>545.2</ele>
        <time>2020-09-13T16:27:02Z</time>
      </trkpt>
      <trkpt lat="42.9005710" lon="-2.5428900">
        <ele>545.2</ele>
        <time>2020-09-13T16:27:06Z</time>
      </trkpt>
      <trkpt lat="42.9005710" lon="-2.5428900">
        <ele>545.6</ele>
        <time>2020-09-13T16:27:10Z</time>
      </trkpt>
      <trkpt lat="42.9005710" lon="-2.5428900">
        <ele>545.6</ele>
        <time>2020-09-13T16:27:14Z</time>
      </trkpt>
      <trkpt lat="42.9005710" lon="-2.5428900">
        <ele>545.6</ele>
        <time>2020-09-13T16:27:18Z</time>
      </trkpt>
      <trkpt lat="42.9005710" lon="-2.5428900">
        <ele>545.6</ele>
        <time>2020-09-13T16:27:22Z</time>
      </trkpt>
      <trkpt lat="42.9005710" lon="-2.5428900">
        <ele>545.6</ele>
        <time>2020-09-13T16:27:26Z</time>
      </trkpt>
      <trkpt lat="42.9005710" lon="-2.5428900">
        <ele>545.8</ele>
        <time>2020-09-13T16:27:30Z</time>
      </trkpt>
      <trkpt lat="42.9005710" lon="-2.5428900">
        <ele>545.6</ele>
        <time>2020-09-13T16:27:34Z</time>
      </trkpt>
      <trkpt lat="42.9005710" lon="-2.5428900">
        <ele>545.8</ele>
        <time>2020-09-13T16:27:38Z</time>
      </trkpt>
      <trkpt lat="42.9005710" lon="-2.5428900">
        <ele>546.0</ele>
        <time>2020-09-13T16:27:42Z</time>
      </trkpt>
      <trkpt lat="42.9005710" lon="-2.5428900">
        <ele>546.0</ele>
        <time>2020-09-13T16:27:46Z</time>
      </trkpt>
      <trkpt lat="42.9005710" lon="-2.5428900">
        <ele>546.0</ele>
        <time>2020-09-13T16:27:50Z</time>
      </trkpt>
      <trkpt lat="42.9005710" lon="-2.5428900">
        <ele>545.6</ele>
        <time>2020-09-13T16:27:54Z</time>
      </trkpt>
      <trkpt lat="42.9005710" lon="-2.5428900">
        <ele>545.8</ele>
        <time>2020-09-13T16:27:58Z</time>
      </trkpt>
      <trkpt lat="42.9005710" lon="-2.5428900">
        <ele>545.8</ele>
        <time>2020-09-13T16:28:02Z</time>
      </trkpt>
      <trkpt lat="42.9005710" lon="-2.5428900">
        <ele>545.8</ele>
        <time>2020-09-13T16:28:06Z</time>
      </trkpt>
      <trkpt lat="42.9005710" lon="-2.5428900">
        <ele>545.6</ele>
        <time>2020-09-13T16:28:10Z</time>
      </trkpt>
      <trkpt lat="42.9005710" lon="-2.5428900">
        <ele>545.6</ele>
        <time>2020-09-13T16:28:14Z</time>
      </trkpt>
      <trkpt lat="42.9005710" lon="-2.5428900">
        <ele>545.4</ele>
        <time>2020-09-13T16:28:18Z</time>
      </trkpt>
      <trkpt lat="42.9005710" lon="-2.5428900">
        <ele>545.4</ele>
        <time>2020-09-13T16:28:22Z</time>
      </trkpt>
      <trkpt lat="42.9005710" lon="-2.5428900">
        <ele>545.8</ele>
        <time>2020-09-13T16:28:26Z</time>
      </trkpt>
      <trkpt lat="42.9005710" lon="-2.5428900">
        <ele>545.8</ele>
        <time>2020-09-13T16:28:30Z</time>
      </trkpt>
      <trkpt lat="42.9005710" lon="-2.5428900">
        <ele>546.0</ele>
        <time>2020-09-13T16:28:34Z</time>
      </trkpt>
      <trkpt lat="42.9005710" lon="-2.5428900">
        <ele>546.0</ele>
        <time>2020-09-13T16:28:38Z</time>
      </trkpt>
      <trkpt lat="42.9005710" lon="-2.5428900">
        <ele>546.0</ele>
        <time>2020-09-13T16:28:42Z</time>
      </trkpt>
      <trkpt lat="42.9005710" lon="-2.5428900">
        <ele>546.0</ele>
        <time>2020-09-13T16:28:46Z</time>
      </trkpt>
      <trkpt lat="42.9005710" lon="-2.5428900">
        <ele>545.6</ele>
        <time>2020-09-13T16:28:50Z</time>
      </trkpt>
      <trkpt lat="42.9005710" lon="-2.5428900">
        <ele>545.2</ele>
        <time>2020-09-13T16:28:54Z</time>
      </trkpt>
      <trkpt lat="42.9005710" lon="-2.5428900">
        <ele>546.0</ele>
        <time>2020-09-13T16:28:58Z</time>
      </trkpt>
      <trkpt lat="42.9005710" lon="-2.5428900">
        <ele>545.8</ele>
        <time>2020-09-13T16:29:02Z</time>
      </trkpt>
      <trkpt lat="42.9005710" lon="-2.5428900">
        <ele>546.0</ele>
        <time>2020-09-13T16:29:06Z</time>
      </trkpt>
      <trkpt lat="42.9005710" lon="-2.5428900">
        <ele>545.8</ele>
        <time>2020-09-13T16:29:10Z</time>
      </trkpt>
      <trkpt lat="42.9005710" lon="-2.5428900">
        <ele>545.8</ele>
        <time>2020-09-13T16:29:14Z</time>
      </trkpt>
      <trkpt lat="42.9005710" lon="-2.5428900">
        <ele>545.6</ele>
        <time>2020-09-13T16:29:18Z</time>
      </trkpt>
      <trkpt lat="42.9005710" lon="-2.5428900">
        <ele>545.6</ele>
        <time>2020-09-13T16:29:22Z</time>
      </trkpt>
      <trkpt lat="42.9005710" lon="-2.5428900">
        <ele>545.8</ele>
        <time>2020-09-13T16:29:26Z</time>
      </trkpt>
      <trkpt lat="42.9005710" lon="-2.5428900">
        <ele>545.4</ele>
        <time>2020-09-13T16:29:30Z</time>
      </trkpt>
      <trkpt lat="42.9005710" lon="-2.5428900">
        <ele>545.4</ele>
        <time>2020-09-13T16:29:34Z</time>
      </trkpt>
      <trkpt lat="42.9005710" lon="-2.5428900">
        <ele>545.6</ele>
        <time>2020-09-13T16:29:38Z</time>
      </trkpt>
      <trkpt lat="42.9005710" lon="-2.5428900">
        <ele>545.6</ele>
        <time>2020-09-13T16:29:42Z</time>
      </trkpt>
      <trkpt lat="42.9005710" lon="-2.5428900">
        <ele>545.8</ele>
        <time>2020-09-13T16:29:46Z</time>
      </trkpt>
      <trkpt lat="42.9005710" lon="-2.5428900">
        <ele>545.6</ele>
        <time>2020-09-13T16:29:50Z</time>
      </trkpt>
      <trkpt lat="42.9005710" lon="-2.5428900">
        <ele>545.8</ele>
        <time>2020-09-13T16:29:54Z</time>
      </trkpt>
      <trkpt lat="42.9005710" lon="-2.5428900">
        <ele>545.6</ele>
        <time>2020-09-13T16:29:58Z</time>
      </trkpt>
      <trkpt lat="42.9005710" lon="-2.5428900">
        <ele>545.6</ele>
        <time>2020-09-13T16:30:02Z</time>
      </trkpt>
      <trkpt lat="42.9005710" lon="-2.5428900">
        <ele>545.6</ele>
        <time>2020-09-13T16:30:06Z</time>
      </trkpt>
      <trkpt lat="42.9005710" lon="-2.5428900">
        <ele>545.4</ele>
        <time>2020-09-13T16:30:10Z</time>
      </trkpt>
      <trkpt lat="42.9005710" lon="-2.5428900">
        <ele>545.6</ele>
        <time>2020-09-13T16:30:14Z</time>
      </trkpt>
      <trkpt lat="42.9005710" lon="-2.5428900">
        <ele>545.8</ele>
        <time>2020-09-13T16:30:18Z</time>
      </trkpt>
      <trkpt lat="42.9005710" lon="-2.5428900">
        <ele>545.8</ele>
        <time>2020-09-13T16:30:22Z</time>
      </trkpt>
      <trkpt lat="42.9005710" lon="-2.5428900">
        <ele>545.8</ele>
        <time>2020-09-13T16:30:26Z</time>
      </trkpt>
      <trkpt lat="42.9005710" lon="-2.5428900">
        <ele>545.6</ele>
        <time>2020-09-13T16:30:30Z</time>
      </trkpt>
      <trkpt lat="42.9005710" lon="-2.5428900">
        <ele>546.0</ele>
        <time>2020-09-13T16:30:34Z</time>
      </trkpt>
      <trkpt lat="42.9005710" lon="-2.5428900">
        <ele>545.8</ele>
        <time>2020-09-13T16:30:38Z</time>
      </trkpt>
      <trkpt lat="42.9005710" lon="-2.5428900">
        <ele>545.8</ele>
        <time>2020-09-13T16:30:42Z</time>
      </trkpt>
      <trkpt lat="42.9005710" lon="-2.5428900">
        <ele>546.0</ele>
        <time>2020-09-13T16:30:46Z</time>
      </trkpt>
      <trkpt lat="42.9005710" lon="-2.5428900">
        <ele>545.8</ele>
        <time>2020-09-13T16:30:50Z</time>
      </trkpt>
      <trkpt lat="42.9005710" lon="-2.5428900">
        <ele>545.4</ele>
        <time>2020-09-13T16:30:54Z</time>
      </trkpt>
      <trkpt lat="42.9005710" lon="-2.5428900">
        <ele>545.6</ele>
        <time>2020-09-13T16:30:58Z</time>
      </trkpt>
      <trkpt lat="42.9005710" lon="-2.5428900">
        <ele>545.8</ele>
        <time>2020-09-13T16:31:02Z</time>
      </trkpt>
      <trkpt lat="42.9005710" lon="-2.5428900">
        <ele>545.6</ele>
        <time>2020-09-13T16:31:06Z</time>
      </trkpt>
      <trkpt lat="42.9005710" lon="-2.5428900">
        <ele>545.6</ele>
        <time>2020-09-13T16:31:10Z</time>
      </trkpt>
      <trkpt lat="42.9005710" lon="-2.5428900">
        <ele>545.6</ele>
        <time>2020-09-13T16:31:14Z</time>
      </trkpt>
      <trkpt lat="42.9005710" lon="-2.5428900">
        <ele>545.6</ele>
        <time>2020-09-13T16:31:18Z</time>
      </trkpt>
      <trkpt lat="42.9005710" lon="-2.5428900">
        <ele>545.8</ele>
        <time>2020-09-13T16:31:22Z</time>
      </trkpt>
      <trkpt lat="42.9005710" lon="-2.5428900">
        <ele>545.6</ele>
        <time>2020-09-13T16:31:26Z</time>
      </trkpt>
      <trkpt lat="42.9005710" lon="-2.5428900">
        <ele>545.8</ele>
        <time>2020-09-13T16:31:30Z</time>
      </trkpt>
      <trkpt lat="42.9005710" lon="-2.5428900">
        <ele>545.6</ele>
        <time>2020-09-13T16:31:34Z</time>
      </trkpt>
      <trkpt lat="42.9005710" lon="-2.5428900">
        <ele>545.6</ele>
        <time>2020-09-13T16:31:38Z</time>
      </trkpt>
      <trkpt lat="42.9005710" lon="-2.5428900">
        <ele>545.6</ele>
        <time>2020-09-13T16:31:42Z</time>
      </trkpt>
      <trkpt lat="42.9005710" lon="-2.5428900">
        <ele>545.4</ele>
        <time>2020-09-13T16:31:46Z</time>
      </trkpt>
      <trkpt lat="42.9005710" lon="-2.5428900">
        <ele>545.6</ele>
        <time>2020-09-13T16:31:50Z</time>
      </trkpt>
      <trkpt lat="42.9005710" lon="-2.5428900">
        <ele>545.6</ele>
        <time>2020-09-13T16:31:54Z</time>
      </trkpt>
      <trkpt lat="42.9005710" lon="-2.5428900">
        <ele>545.8</ele>
        <time>2020-09-13T16:31:58Z</time>
      </trkpt>
      <trkpt lat="42.9005710" lon="-2.5428900">
        <ele>545.8</ele>
        <time>2020-09-13T16:32:02Z</time>
      </trkpt>
      <trkpt lat="42.9005710" lon="-2.5428900">
        <ele>545.6</ele>
        <time>2020-09-13T16:32:06Z</time>
      </trkpt>
      <trkpt lat="42.9005710" lon="-2.5428900">
        <ele>545.6</ele>
        <time>2020-09-13T16:32:10Z</time>
      </trkpt>
      <trkpt lat="42.9005710" lon="-2.5428900">
        <ele>545.8</ele>
        <time>2020-09-13T16:32:14Z</time>
      </trkpt>
      <trkpt lat="42.9005710" lon="-2.5428900">
        <ele>545.6</ele>
        <time>2020-09-13T16:32:18Z</time>
      </trkpt>
      <trkpt lat="42.9005710" lon="-2.5428900">
        <ele>545.4</ele>
        <time>2020-09-13T16:32:22Z</time>
      </trkpt>
      <trkpt lat="42.9005710" lon="-2.5428900">
        <ele>545.6</ele>
        <time>2020-09-13T16:32:26Z</time>
      </trkpt>
      <trkpt lat="42.9005710" lon="-2.5428900">
        <ele>545.4</ele>
        <time>2020-09-13T16:32:30Z</time>
      </trkpt>
      <trkpt lat="42.9005710" lon="-2.5428900">
        <ele>545.6</ele>
        <time>2020-09-13T16:32:34Z</time>
      </trkpt>
      <trkpt lat="42.9005710" lon="-2.5428900">
        <ele>545.6</ele>
        <time>2020-09-13T16:32:38Z</time>
      </trkpt>
      <trkpt lat="42.9005710" lon="-2.5428900">
        <ele>545.6</ele>
        <time>2020-09-13T16:32:42Z</time>
      </trkpt>
      <trkpt lat="42.9005710" lon="-2.5428900">
        <ele>545.8</ele>
        <time>2020-09-13T16:32:46Z</time>
      </trkpt>
      <trkpt lat="42.9005710" lon="-2.5428900">
        <ele>545.8</ele>
        <time>2020-09-13T16:32:50Z</time>
      </trkpt>
      <trkpt lat="42.9005710" lon="-2.5428900">
        <ele>545.8</ele>
        <time>2020-09-13T16:32:54Z</time>
      </trkpt>
      <trkpt lat="42.9005710" lon="-2.5428900">
        <ele>545.6</ele>
        <time>2020-09-13T16:32:58Z</time>
      </trkpt>
      <trkpt lat="42.9005710" lon="-2.5428900">
        <ele>545.6</ele>
        <time>2020-09-13T16:33:02Z</time>
      </trkpt>
      <trkpt lat="42.9005710" lon="-2.5428900">
        <ele>545.8</ele>
        <time>2020-09-13T16:33:06Z</time>
      </trkpt>
      <trkpt lat="42.9005710" lon="-2.5428900">
        <ele>545.4</ele>
        <time>2020-09-13T16:33:10Z</time>
      </trkpt>
      <trkpt lat="42.9005710" lon="-2.5428900">
        <ele>546.0</ele>
        <time>2020-09-13T16:33:14Z</time>
      </trkpt>
      <trkpt lat="42.9005710" lon="-2.5428900">
        <ele>545.6</ele>
        <time>2020-09-13T16:33:18Z</time>
      </trkpt>
      <trkpt lat="42.9005710" lon="-2.5428900">
        <ele>546.2</ele>
        <time>2020-09-13T16:33:22Z</time>
      </trkpt>
      <trkpt lat="42.9005710" lon="-2.5428900">
        <ele>546.0</ele>
        <time>2020-09-13T16:33:26Z</time>
      </trkpt>
      <trkpt lat="42.9005710" lon="-2.5428900">
        <ele>546.0</ele>
        <time>2020-09-13T16:33:30Z</time>
      </trkpt>
      <trkpt lat="42.9005710" lon="-2.5428900">
        <ele>545.8</ele>
        <time>2020-09-13T16:33:34Z</time>
      </trkpt>
      <trkpt lat="42.9005710" lon="-2.5428900">
        <ele>545.8</ele>
        <time>2020-09-13T16:33:38Z</time>
      </trkpt>
      <trkpt lat="42.9005710" lon="-2.5428900">
        <ele>545.6</ele>
        <time>2020-09-13T16:33:42Z</time>
      </trkpt>
      <trkpt lat="42.9005710" lon="-2.5428900">
        <ele>545.6</ele>
        <time>2020-09-13T16:33:46Z</time>
      </trkpt>
      <trkpt lat="42.9005710" lon="-2.5428900">
        <ele>545.4</ele>
        <time>2020-09-13T16:33:50Z</time>
      </trkpt>
      <trkpt lat="42.9005710" lon="-2.5428900">
        <ele>545.6</ele>
        <time>2020-09-13T16:33:54Z</time>
      </trkpt>
      <trkpt lat="42.9005710" lon="-2.5428900">
        <ele>545.4</ele>
        <time>2020-09-13T16:33:58Z</time>
      </trkpt>
      <trkpt lat="42.9005710" lon="-2.5428900">
        <ele>545.6</ele>
        <time>2020-09-13T16:34:02Z</time>
      </trkpt>
      <trkpt lat="42.9005710" lon="-2.5428900">
        <ele>545.6</ele>
        <time>2020-09-13T16:34:06Z</time>
      </trkpt>
      <trkpt lat="42.9005710" lon="-2.5428900">
        <ele>545.8</ele>
        <time>2020-09-13T16:34:10Z</time>
      </trkpt>
      <trkpt lat="42.9005710" lon="-2.5428900">
        <ele>545.6</ele>
        <time>2020-09-13T16:34:14Z</time>
      </trkpt>
      <trkpt lat="42.9005710" lon="-2.5428900">
        <ele>545.6</ele>
        <time>2020-09-13T16:34:18Z</time>
      </trkpt>
      <trkpt lat="42.9005710" lon="-2.5428900">
        <ele>545.8</ele>
        <time>2020-09-13T16:34:22Z</time>
      </trkpt>
      <trkpt lat="42.9005710" lon="-2.5428900">
        <ele>545.6</ele>
        <time>2020-09-13T16:34:26Z</time>
      </trkpt>
      <trkpt lat="42.9005710" lon="-2.5428900">
        <ele>546.0</ele>
        <time>2020-09-13T16:34:30Z</time>
      </trkpt>
      <trkpt lat="42.9005710" lon="-2.5428900">
        <ele>545.4</ele>
        <time>2020-09-13T16:34:34Z</time>
      </trkpt>
      <trkpt lat="42.9005710" lon="-2.5428900">
        <ele>546.2</ele>
        <time>2020-09-13T16:34:38Z</time>
      </trkpt>
      <trkpt lat="42.9005710" lon="-2.5428900">
        <ele>546.0</ele>
        <time>2020-09-13T16:34:42Z</time>
      </trkpt>
      <trkpt lat="42.9005710" lon="-2.5428900">
        <ele>545.8</ele>
        <time>2020-09-13T16:34:46Z</time>
      </trkpt>
      <trkpt lat="42.9005710" lon="-2.5428900">
        <ele>545.6</ele>
        <time>2020-09-13T16:34:50Z</time>
      </trkpt>
      <trkpt lat="42.9005710" lon="-2.5428900">
        <ele>545.6</ele>
        <time>2020-09-13T16:34:54Z</time>
      </trkpt>
      <trkpt lat="42.9005710" lon="-2.5428900">
        <ele>545.4</ele>
        <time>2020-09-13T16:34:58Z</time>
      </trkpt>
      <trkpt lat="42.9005710" lon="-2.5428900">
        <ele>545.2</ele>
        <time>2020-09-13T16:35:02Z</time>
      </trkpt>
      <trkpt lat="42.9005710" lon="-2.5428900">
        <ele>546.0</ele>
        <time>2020-09-13T16:35:06Z</time>
      </trkpt>
      <trkpt lat="42.9005710" lon="-2.5428900">
        <ele>546.0</ele>
        <time>2020-09-13T16:35:10Z</time>
      </trkpt>
      <trkpt lat="42.9005710" lon="-2.5428900">
        <ele>546.2</ele>
        <time>2020-09-13T16:35:14Z</time>
      </trkpt>
      <trkpt lat="42.9005710" lon="-2.5428900">
        <ele>546.6</ele>
        <time>2020-09-13T16:35:18Z</time>
      </trkpt>
      <trkpt lat="42.9005710" lon="-2.5428900">
        <ele>545.8</ele>
        <time>2020-09-13T16:35:22Z</time>
      </trkpt>
      <trkpt lat="42.9005710" lon="-2.5428900">
        <ele>546.0</ele>
        <time>2020-09-13T16:35:26Z</time>
      </trkpt>
      <trkpt lat="42.9005710" lon="-2.5428900">
        <ele>546.0</ele>
        <time>2020-09-13T16:35:30Z</time>
      </trkpt>
      <trkpt lat="42.9005710" lon="-2.5428900">
        <ele>546.0</ele>
        <time>2020-09-13T16:35:34Z</time>
      </trkpt>
      <trkpt lat="42.9005710" lon="-2.5428900">
        <ele>545.8</ele>
        <time>2020-09-13T16:35:38Z</time>
      </trkpt>
      <trkpt lat="42.9005710" lon="-2.5428900">
        <ele>546.0</ele>
        <time>2020-09-13T16:35:42Z</time>
      </trkpt>
      <trkpt lat="42.9005710" lon="-2.5428900">
        <ele>545.6</ele>
        <time>2020-09-13T16:35:46Z</time>
      </trkpt>
      <trkpt lat="42.9005710" lon="-2.5428900">
        <ele>546.0</ele>
        <time>2020-09-13T16:35:50Z</time>
      </trkpt>
      <trkpt lat="42.9005710" lon="-2.5428900">
        <ele>545.8</ele>
        <time>2020-09-13T16:35:54Z</time>
      </trkpt>
      <trkpt lat="42.9005710" lon="-2.5428900">
        <ele>545.6</ele>
        <time>2020-09-13T16:35:58Z</time>
      </trkpt>
      <trkpt lat="42.9005710" lon="-2.5428900">
        <ele>545.4</ele>
        <time>2020-09-13T16:36:02Z</time>
      </trkpt>
      <trkpt lat="42.9005710" lon="-2.5428900">
        <ele>545.6</ele>
        <time>2020-09-13T16:36:06Z</time>
      </trkpt>
      <trkpt lat="42.9005710" lon="-2.5428900">
        <ele>545.6</ele>
        <time>2020-09-13T16:36:10Z</time>
      </trkpt>
      <trkpt lat="42.9005710" lon="-2.5428900">
        <ele>545.8</ele>
        <time>2020-09-13T16:36:14Z</time>
      </trkpt>
      <trkpt lat="42.9005710" lon="-2.5428900">
        <ele>545.6</ele>
        <time>2020-09-13T16:36:18Z</time>
      </trkpt>
      <trkpt lat="42.9005710" lon="-2.5428900">
        <ele>545.6</ele>
        <time>2020-09-13T16:36:22Z</time>
      </trkpt>
      <trkpt lat="42.9005710" lon="-2.5428900">
        <ele>546.0</ele>
        <time>2020-09-13T16:36:26Z</time>
      </trkpt>
      <trkpt lat="42.9005710" lon="-2.5428900">
        <ele>545.8</ele>
        <time>2020-09-13T16:36:30Z</time>
      </trkpt>
      <trkpt lat="42.9005710" lon="-2.5428900">
        <ele>545.6</ele>
        <time>2020-09-13T16:36:34Z</time>
      </trkpt>
      <trkpt lat="42.9005710" lon="-2.5428900">
        <ele>546.0</ele>
        <time>2020-09-13T16:36:38Z</time>
      </trkpt>
      <trkpt lat="42.9005710" lon="-2.5428900">
        <ele>545.4</ele>
        <time>2020-09-13T16:36:42Z</time>
      </trkpt>
      <trkpt lat="42.9005710" lon="-2.5428900">
        <ele>545.8</ele>
        <time>2020-09-13T16:36:46Z</time>
      </trkpt>
      <trkpt lat="42.9005710" lon="-2.5428900">
        <ele>545.2</ele>
        <time>2020-09-13T16:36:50Z</time>
      </trkpt>
      <trkpt lat="42.9005710" lon="-2.5428900">
        <ele>545.4</ele>
        <time>2020-09-13T16:36:54Z</time>
      </trkpt>
      <trkpt lat="42.9005710" lon="-2.5428900">
        <ele>545.6</ele>
        <time>2020-09-13T16:36:58Z</time>
      </trkpt>
      <trkpt lat="42.9005710" lon="-2.5428900">
        <ele>545.6</ele>
        <time>2020-09-13T16:37:02Z</time>
      </trkpt>
      <trkpt lat="42.9005710" lon="-2.5428900">
        <ele>546.0</ele>
        <time>2020-09-13T16:37:06Z</time>
      </trkpt>
      <trkpt lat="42.9005710" lon="-2.5428900">
        <ele>545.8</ele>
        <time>2020-09-13T16:37:10Z</time>
      </trkpt>
      <trkpt lat="42.9005710" lon="-2.5428900">
        <ele>545.6</ele>
        <time>2020-09-13T16:37:14Z</time>
      </trkpt>
      <trkpt lat="42.9005710" lon="-2.5428900">
        <ele>545.8</ele>
        <time>2020-09-13T16:37:18Z</time>
      </trkpt>
      <trkpt lat="42.9005710" lon="-2.5428900">
        <ele>545.6</ele>
        <time>2020-09-13T16:37:22Z</time>
      </trkpt>
      <trkpt lat="42.9005710" lon="-2.5428900">
        <ele>545.8</ele>
        <time>2020-09-13T16:37:26Z</time>
      </trkpt>
      <trkpt lat="42.9005710" lon="-2.5428900">
        <ele>546.0</ele>
        <time>2020-09-13T16:37:30Z</time>
      </trkpt>
      <trkpt lat="42.9005710" lon="-2.5428900">
        <ele>545.8</ele>
        <time>2020-09-13T16:37:34Z</time>
      </trkpt>
      <trkpt lat="42.9005710" lon="-2.5428900">
        <ele>546.0</ele>
        <time>2020-09-13T16:37:38Z</time>
      </trkpt>
      <trkpt lat="42.9005710" lon="-2.5428900">
        <ele>546.0</ele>
        <time>2020-09-13T16:37:42Z</time>
      </trkpt>
      <trkpt lat="42.9005710" lon="-2.5428900">
        <ele>545.8</ele>
        <time>2020-09-13T16:37:46Z</time>
      </trkpt>
      <trkpt lat="42.9005710" lon="-2.5428900">
        <ele>546.0</ele>
        <time>2020-09-13T16:37:50Z</time>
      </trkpt>
      <trkpt lat="42.9005710" lon="-2.5428900">
        <ele>545.6</ele>
        <time>2020-09-13T16:37:54Z</time>
      </trkpt>
      <trkpt lat="42.9005710" lon="-2.5428900">
        <ele>546.0</ele>
        <time>2020-09-13T16:37:58Z</time>
      </trkpt>
      <trkpt lat="42.9005710" lon="-2.5428900">
        <ele>545.8</ele>
        <time>2020-09-13T16:38:02Z</time>
      </trkpt>
      <trkpt lat="42.9005710" lon="-2.5428900">
        <ele>546.0</ele>
        <time>2020-09-13T16:38:06Z</time>
      </trkpt>
      <trkpt lat="42.9005710" lon="-2.5428900">
        <ele>545.8</ele>
        <time>2020-09-13T16:38:10Z</time>
      </trkpt>
      <trkpt lat="42.9005710" lon="-2.5428900">
        <ele>545.6</ele>
        <time>2020-09-13T16:38:14Z</time>
      </trkpt>
      <trkpt lat="42.9005710" lon="-2.5428900">
        <ele>545.8</ele>
        <time>2020-09-13T16:38:18Z</time>
      </trkpt>
      <trkpt lat="42.9005710" lon="-2.5428900">
        <ele>546.0</ele>
        <time>2020-09-13T16:38:22Z</time>
      </trkpt>
      <trkpt lat="42.9005710" lon="-2.5428900">
        <ele>545.8</ele>
        <time>2020-09-13T16:38:26Z</time>
      </trkpt>
      <trkpt lat="42.9005710" lon="-2.5428900">
        <ele>545.6</ele>
        <time>2020-09-13T16:38:30Z</time>
      </trkpt>
      <trkpt lat="42.9005710" lon="-2.5428900">
        <ele>545.6</ele>
        <time>2020-09-13T16:38:34Z</time>
      </trkpt>
      <trkpt lat="42.9005710" lon="-2.5428900">
        <ele>546.0</ele>
        <time>2020-09-13T16:38:38Z</time>
      </trkpt>
      <trkpt lat="42.9005710" lon="-2.5428900">
        <ele>545.6</ele>
        <time>2020-09-13T16:38:42Z</time>
      </trkpt>
      <trkpt lat="42.9005710" lon="-2.5428900">
        <ele>546.0</ele>
        <time>2020-09-13T16:38:46Z</time>
      </trkpt>
      <trkpt lat="42.9005710" lon="-2.5428900">
        <ele>545.8</ele>
        <time>2020-09-13T16:38:50Z</time>
      </trkpt>
      <trkpt lat="42.9005710" lon="-2.5428900">
        <ele>545.6</ele>
        <time>2020-09-13T16:38:54Z</time>
      </trkpt>
      <trkpt lat="42.9005710" lon="-2.5428900">
        <ele>545.8</ele>
        <time>2020-09-13T16:38:58Z</time>
      </trkpt>
      <trkpt lat="42.9005710" lon="-2.5428900">
        <ele>545.8</ele>
        <time>2020-09-13T16:39:02Z</time>
      </trkpt>
      <trkpt lat="42.9005710" lon="-2.5428900">
        <ele>546.0</ele>
        <time>2020-09-13T16:39:06Z</time>
      </trkpt>
      <trkpt lat="42.9005710" lon="-2.5428900">
        <ele>545.8</ele>
        <time>2020-09-13T16:39:10Z</time>
      </trkpt>
      <trkpt lat="42.9005710" lon="-2.5428900">
        <ele>545.8</ele>
        <time>2020-09-13T16:39:14Z</time>
      </trkpt>
      <trkpt lat="42.9005710" lon="-2.5428900">
        <ele>545.6</ele>
        <time>2020-09-13T16:39:18Z</time>
      </trkpt>
      <trkpt lat="42.9005710" lon="-2.5428900">
        <ele>545.8</ele>
        <time>2020-09-13T16:39:22Z</time>
      </trkpt>
      <trkpt lat="42.9005710" lon="-2.5428900">
        <ele>545.8</ele>
        <time>2020-09-13T16:39:26Z</time>
      </trkpt>
      <trkpt lat="42.9005710" lon="-2.5428900">
        <ele>545.2</ele>
        <time>2020-09-13T16:39:30Z</time>
      </trkpt>
      <trkpt lat="42.9005710" lon="-2.5428900">
        <ele>545.8</ele>
        <time>2020-09-13T16:39:34Z</time>
      </trkpt>
      <trkpt lat="42.9005710" lon="-2.5428900">
        <ele>545.4</ele>
        <time>2020-09-13T16:39:38Z</time>
      </trkpt>
      <trkpt lat="42.9005710" lon="-2.5428900">
        <ele>545.8</ele>
        <time>2020-09-13T16:39:42Z</time>
      </trkpt>
      <trkpt lat="42.9005710" lon="-2.5428900">
        <ele>545.8</ele>
        <time>2020-09-13T16:39:46Z</time>
      </trkpt>
      <trkpt lat="42.9005710" lon="-2.5428900">
        <ele>545.8</ele>
        <time>2020-09-13T16:39:50Z</time>
      </trkpt>
      <trkpt lat="42.9005710" lon="-2.5428900">
        <ele>546.0</ele>
        <time>2020-09-13T16:39:54Z</time>
      </trkpt>
      <trkpt lat="42.9005710" lon="-2.5428900">
        <ele>545.6</ele>
        <time>2020-09-13T16:39:58Z</time>
      </trkpt>
      <trkpt lat="42.9005710" lon="-2.5428900">
        <ele>545.4</ele>
        <time>2020-09-13T16:40:02Z</time>
      </trkpt>
      <trkpt lat="42.9005710" lon="-2.5428900">
        <ele>545.8</ele>
        <time>2020-09-13T16:40:06Z</time>
      </trkpt>
      <trkpt lat="42.9005710" lon="-2.5428900">
        <ele>545.4</ele>
        <time>2020-09-13T16:40:10Z</time>
      </trkpt>
      <trkpt lat="42.9005710" lon="-2.5428900">
        <ele>545.8</ele>
        <time>2020-09-13T16:40:14Z</time>
      </trkpt>
      <trkpt lat="42.9005710" lon="-2.5428900">
        <ele>545.6</ele>
        <time>2020-09-13T16:40:18Z</time>
      </trkpt>
      <trkpt lat="42.9005710" lon="-2.5428900">
        <ele>545.6</ele>
        <time>2020-09-13T16:40:22Z</time>
      </trkpt>
      <trkpt lat="42.9005710" lon="-2.5428900">
        <ele>545.4</ele>
        <time>2020-09-13T16:40:26Z</time>
      </trkpt>
      <trkpt lat="42.9005710" lon="-2.5428900">
        <ele>545.2</ele>
        <time>2020-09-13T16:40:30Z</time>
      </trkpt>
      <trkpt lat="42.9005710" lon="-2.5428900">
        <ele>545.2</ele>
        <time>2020-09-13T16:40:34Z</time>
      </trkpt>
      <trkpt lat="42.9005710" lon="-2.5428900">
        <ele>545.4</ele>
        <time>2020-09-13T16:40:38Z</time>
      </trkpt>
      <trkpt lat="42.9005710" lon="-2.5428900">
        <ele>545.6</ele>
        <time>2020-09-13T16:40:42Z</time>
      </trkpt>
      <trkpt lat="42.9005710" lon="-2.5428900">
        <ele>545.4</ele>
        <time>2020-09-13T16:40:46Z</time>
      </trkpt>
      <trkpt lat="42.9005710" lon="-2.5428900">
        <ele>545.4</ele>
        <time>2020-09-13T16:40:50Z</time>
      </trkpt>
      <trkpt lat="42.9005710" lon="-2.5428900">
        <ele>546.0</ele>
        <time>2020-09-13T16:40:54Z</time>
      </trkpt>
      <trkpt lat="42.9005710" lon="-2.5428900">
        <ele>545.8</ele>
        <time>2020-09-13T16:40:58Z</time>
      </trkpt>
      <trkpt lat="42.9005710" lon="-2.5428900">
        <ele>545.6</ele>
        <time>2020-09-13T16:41:02Z</time>
      </trkpt>
      <trkpt lat="42.9005710" lon="-2.5428900">
        <ele>545.8</ele>
        <time>2020-09-13T16:41:06Z</time>
      </trkpt>
      <trkpt lat="42.9005710" lon="-2.5428900">
        <ele>545.8</ele>
        <time>2020-09-13T16:41:10Z</time>
      </trkpt>
      <trkpt lat="42.9005710" lon="-2.5428900">
        <ele>545.6</ele>
        <time>2020-09-13T16:41:14Z</time>
      </trkpt>
      <trkpt lat="42.9005710" lon="-2.5428900">
        <ele>545.8</ele>
        <time>2020-09-13T16:41:18Z</time>
      </trkpt>
      <trkpt lat="42.9005710" lon="-2.5428900">
        <ele>545.6</ele>
        <time>2020-09-13T16:41:22Z</time>
      </trkpt>
      <trkpt lat="42.9005710" lon="-2.5428900">
        <ele>545.6</ele>
        <time>2020-09-13T16:41:26Z</time>
      </trkpt>
      <trkpt lat="42.9005710" lon="-2.5428900">
        <ele>546.0</ele>
        <time>2020-09-13T16:41:30Z</time>
      </trkpt>
      <trkpt lat="42.9005710" lon="-2.5428900">
        <ele>545.6</ele>
        <time>2020-09-13T16:41:34Z</time>
      </trkpt>
      <trkpt lat="42.9005710" lon="-2.5428900">
        <ele>545.6</ele>
        <time>2020-09-13T16:41:38Z</time>
      </trkpt>
      <trkpt lat="42.9005710" lon="-2.5428900">
        <ele>545.6</ele>
        <time>2020-09-13T16:41:42Z</time>
      </trkpt>
      <trkpt lat="42.9005710" lon="-2.5428900">
        <ele>545.6</ele>
        <time>2020-09-13T16:41:46Z</time>
      </trkpt>
      <trkpt lat="42.9005710" lon="-2.5428900">
        <ele>545.8</ele>
        <time>2020-09-13T16:41:50Z</time>
      </trkpt>
      <trkpt lat="42.9005710" lon="-2.5428900">
        <ele>546.0</ele>
        <time>2020-09-13T16:41:54Z</time>
      </trkpt>
      <trkpt lat="42.9005710" lon="-2.5428900">
        <ele>545.8</ele>
        <time>2020-09-13T16:41:58Z</time>
      </trkpt>
      <trkpt lat="42.9005710" lon="-2.5428900">
        <ele>545.6</ele>
        <time>2020-09-13T16:42:02Z</time>
      </trkpt>
      <trkpt lat="42.9005710" lon="-2.5428900">
        <ele>546.0</ele>
        <time>2020-09-13T16:42:06Z</time>
      </trkpt>
      <trkpt lat="42.9005710" lon="-2.5428900">
        <ele>545.8</ele>
        <time>2020-09-13T16:42:10Z</time>
      </trkpt>
      <trkpt lat="42.9005710" lon="-2.5428900">
        <ele>545.8</ele>
        <time>2020-09-13T16:42:14Z</time>
      </trkpt>
      <trkpt lat="42.9005710" lon="-2.5428900">
        <ele>546.0</ele>
        <time>2020-09-13T16:42:18Z</time>
      </trkpt>
      <trkpt lat="42.9005710" lon="-2.5428900">
        <ele>545.6</ele>
        <time>2020-09-13T16:42:22Z</time>
      </trkpt>
      <trkpt lat="42.9005710" lon="-2.5428900">
        <ele>545.4</ele>
        <time>2020-09-13T16:42:26Z</time>
      </trkpt>
      <trkpt lat="42.9005710" lon="-2.5428900">
        <ele>545.4</ele>
        <time>2020-09-13T16:42:30Z</time>
      </trkpt>
      <trkpt lat="42.9005710" lon="-2.5428900">
        <ele>545.6</ele>
        <time>2020-09-13T16:42:34Z</time>
      </trkpt>
      <trkpt lat="42.9005710" lon="-2.5428900">
        <ele>545.2</ele>
        <time>2020-09-13T16:42:38Z</time>
      </trkpt>
      <trkpt lat="42.9005710" lon="-2.5428900">
        <ele>545.4</ele>
        <time>2020-09-13T16:42:42Z</time>
      </trkpt>
      <trkpt lat="42.9005710" lon="-2.5428900">
        <ele>545.4</ele>
        <time>2020-09-13T16:42:46Z</time>
      </trkpt>
      <trkpt lat="42.9005710" lon="-2.5428900">
        <ele>545.6</ele>
        <time>2020-09-13T16:42:50Z</time>
      </trkpt>
      <trkpt lat="42.9005710" lon="-2.5428900">
        <ele>545.6</ele>
        <time>2020-09-13T16:42:54Z</time>
      </trkpt>
      <trkpt lat="42.9005710" lon="-2.5428900">
        <ele>545.8</ele>
        <time>2020-09-13T16:42:58Z</time>
      </trkpt>
      <trkpt lat="42.9005710" lon="-2.5428900">
        <ele>545.6</ele>
        <time>2020-09-13T16:43:02Z</time>
      </trkpt>
      <trkpt lat="42.9005710" lon="-2.5428900">
        <ele>545.6</ele>
        <time>2020-09-13T16:43:06Z</time>
      </trkpt>
      <trkpt lat="42.9005710" lon="-2.5428900">
        <ele>545.8</ele>
        <time>2020-09-13T16:43:10Z</time>
      </trkpt>
      <trkpt lat="42.9005710" lon="-2.5428900">
        <ele>546.0</ele>
        <time>2020-09-13T16:43:14Z</time>
      </trkpt>
      <trkpt lat="42.9005710" lon="-2.5428900">
        <ele>546.4</ele>
        <time>2020-09-13T16:43:18Z</time>
      </trkpt>
      <trkpt lat="42.9005710" lon="-2.5428900">
        <ele>546.0</ele>
        <time>2020-09-13T16:43:22Z</time>
      </trkpt>
      <trkpt lat="42.9005710" lon="-2.5428900">
        <ele>546.0</ele>
        <time>2020-09-13T16:43:26Z</time>
      </trkpt>
      <trkpt lat="42.9005710" lon="-2.5428900">
        <ele>545.8</ele>
        <time>2020-09-13T16:43:30Z</time>
      </trkpt>
      <trkpt lat="42.9005710" lon="-2.5428900">
        <ele>545.8</ele>
        <time>2020-09-13T16:43:34Z</time>
      </trkpt>
      <trkpt lat="42.9005710" lon="-2.5428900">
        <ele>545.8</ele>
        <time>2020-09-13T16:43:38Z</time>
      </trkpt>
      <trkpt lat="42.9005710" lon="-2.5428900">
        <ele>545.4</ele>
        <time>2020-09-13T16:43:42Z</time>
      </trkpt>
      <trkpt lat="42.9005710" lon="-2.5428900">
        <ele>545.4</ele>
        <time>2020-09-13T16:43:46Z</time>
      </trkpt>
      <trkpt lat="42.9005710" lon="-2.5428900">
        <ele>546.0</ele>
        <time>2020-09-13T16:43:50Z</time>
      </trkpt>
      <trkpt lat="42.9005710" lon="-2.5428900">
        <ele>546.0</ele>
        <time>2020-09-13T16:43:54Z</time>
      </trkpt>
      <trkpt lat="42.9005710" lon="-2.5428900">
        <ele>546.0</ele>
        <time>2020-09-13T16:43:58Z</time>
      </trkpt>
      <trkpt lat="42.9005710" lon="-2.5428900">
        <ele>545.8</ele>
        <time>2020-09-13T16:44:02Z</time>
      </trkpt>
      <trkpt lat="42.9005710" lon="-2.5428900">
        <ele>545.8</ele>
        <time>2020-09-13T16:44:06Z</time>
      </trkpt>
      <trkpt lat="42.9005710" lon="-2.5428900">
        <ele>545.4</ele>
        <time>2020-09-13T16:44:10Z</time>
      </trkpt>
      <trkpt lat="42.9005710" lon="-2.5428900">
        <ele>545.6</ele>
        <time>2020-09-13T16:44:14Z</time>
      </trkpt>
      <trkpt lat="42.9005710" lon="-2.5428900">
        <ele>545.8</ele>
        <time>2020-09-13T16:44:18Z</time>
      </trkpt>
      <trkpt lat="42.9005710" lon="-2.5428900">
        <ele>545.8</ele>
        <time>2020-09-13T16:44:22Z</time>
      </trkpt>
      <trkpt lat="42.9005710" lon="-2.5428900">
        <ele>545.8</ele>
        <time>2020-09-13T16:44:26Z</time>
      </trkpt>
      <trkpt lat="42.9005710" lon="-2.5428900">
        <ele>546.0</ele>
        <time>2020-09-13T16:44:30Z</time>
      </trkpt>
      <trkpt lat="42.9005710" lon="-2.5428900">
        <ele>546.4</ele>
        <time>2020-09-13T16:44:34Z</time>
      </trkpt>
      <trkpt lat="42.9005710" lon="-2.5428900">
        <ele>545.6</ele>
        <time>2020-09-13T16:44:38Z</time>
      </trkpt>
      <trkpt lat="42.9005710" lon="-2.5428900">
        <ele>545.8</ele>
        <time>2020-09-13T16:44:42Z</time>
      </trkpt>
      <trkpt lat="42.9005710" lon="-2.5428900">
        <ele>545.8</ele>
        <time>2020-09-13T16:44:46Z</time>
      </trkpt>
      <trkpt lat="42.9005710" lon="-2.5428900">
        <ele>545.6</ele>
        <time>2020-09-13T16:44:50Z</time>
      </trkpt>
      <trkpt lat="42.9005710" lon="-2.5428900">
        <ele>545.8</ele>
        <time>2020-09-13T16:44:54Z</time>
      </trkpt>
      <trkpt lat="42.9005710" lon="-2.5428900">
        <ele>545.6</ele>
        <time>2020-09-13T16:44:58Z</time>
      </trkpt>
      <trkpt lat="42.9005710" lon="-2.5428900">
        <ele>545.8</ele>
        <time>2020-09-13T16:45:02Z</time>
      </trkpt>
      <trkpt lat="42.9005710" lon="-2.5428900">
        <ele>545.8</ele>
        <time>2020-09-13T16:45:06Z</time>
      </trkpt>
      <trkpt lat="42.9005710" lon="-2.5428900">
        <ele>545.8</ele>
        <time>2020-09-13T16:45:10Z</time>
      </trkpt>
      <trkpt lat="42.9005710" lon="-2.5428900">
        <ele>545.8</ele>
        <time>2020-09-13T16:45:14Z</time>
      </trkpt>
      <trkpt lat="42.9005710" lon="-2.5428900">
        <ele>546.0</ele>
        <time>2020-09-13T16:45:18Z</time>
      </trkpt>
      <trkpt lat="42.9005710" lon="-2.5428900">
        <ele>546.0</ele>
        <time>2020-09-13T16:45:22Z</time>
      </trkpt>
      <trkpt lat="42.9005710" lon="-2.5428900">
        <ele>546.0</ele>
        <time>2020-09-13T16:45:26Z</time>
      </trkpt>
      <trkpt lat="42.9005710" lon="-2.5428900">
        <ele>545.6</ele>
        <time>2020-09-13T16:45:30Z</time>
      </trkpt>
      <trkpt lat="42.9005710" lon="-2.5428900">
        <ele>546.0</ele>
        <time>2020-09-13T16:45:34Z</time>
      </trkpt>
      <trkpt lat="42.9005710" lon="-2.5428900">
        <ele>546.0</ele>
        <time>2020-09-13T16:45:38Z</time>
      </trkpt>
      <trkpt lat="42.9005710" lon="-2.5428900">
        <ele>545.8</ele>
        <time>2020-09-13T16:45:42Z</time>
      </trkpt>
      <trkpt lat="42.9005710" lon="-2.5428900">
        <ele>546.0</ele>
        <time>2020-09-13T16:45:46Z</time>
      </trkpt>
      <trkpt lat="42.9005710" lon="-2.5428900">
        <ele>545.8</ele>
        <time>2020-09-13T16:45:50Z</time>
      </trkpt>
      <trkpt lat="42.9005710" lon="-2.5428900">
        <ele>545.6</ele>
        <time>2020-09-13T16:45:54Z</time>
      </trkpt>
      <trkpt lat="42.9005710" lon="-2.5428900">
        <ele>545.8</ele>
        <time>2020-09-13T16:45:58Z</time>
      </trkpt>
      <trkpt lat="42.9005710" lon="-2.5428900">
        <ele>545.6</ele>
        <time>2020-09-13T16:46:02Z</time>
      </trkpt>
      <trkpt lat="42.9005710" lon="-2.5428900">
        <ele>545.8</ele>
        <time>2020-09-13T16:46:06Z</time>
      </trkpt>
      <trkpt lat="42.9005710" lon="-2.5428900">
        <ele>545.8</ele>
        <time>2020-09-13T16:46:10Z</time>
      </trkpt>
      <trkpt lat="42.9005710" lon="-2.5428900">
        <ele>545.8</ele>
        <time>2020-09-13T16:46:14Z</time>
      </trkpt>
      <trkpt lat="42.9005710" lon="-2.5428900">
        <ele>545.8</ele>
        <time>2020-09-13T16:46:18Z</time>
      </trkpt>
      <trkpt lat="42.9005710" lon="-2.5428900">
        <ele>545.4</ele>
        <time>2020-09-13T16:46:22Z</time>
      </trkpt>
      <trkpt lat="42.9005710" lon="-2.5428900">
        <ele>545.6</ele>
        <time>2020-09-13T16:46:26Z</time>
      </trkpt>
      <trkpt lat="42.9005710" lon="-2.5428900">
        <ele>545.6</ele>
        <time>2020-09-13T16:46:30Z</time>
      </trkpt>
      <trkpt lat="42.9005710" lon="-2.5428900">
        <ele>545.4</ele>
        <time>2020-09-13T16:46:34Z</time>
      </trkpt>
      <trkpt lat="42.9005710" lon="-2.5428900">
        <ele>545.6</ele>
        <time>2020-09-13T16:46:38Z</time>
      </trkpt>
      <trkpt lat="42.9005710" lon="-2.5428900">
        <ele>546.0</ele>
        <time>2020-09-13T16:46:42Z</time>
      </trkpt>
      <trkpt lat="42.9005710" lon="-2.5428900">
        <ele>545.4</ele>
        <time>2020-09-13T16:46:46Z</time>
      </trkpt>
      <trkpt lat="42.9005710" lon="-2.5428900">
        <ele>546.0</ele>
        <time>2020-09-13T16:46:50Z</time>
      </trkpt>
      <trkpt lat="42.9005710" lon="-2.5428900">
        <ele>546.0</ele>
        <time>2020-09-13T16:46:54Z</time>
      </trkpt>
      <trkpt lat="42.9005710" lon="-2.5428900">
        <ele>546.2</ele>
        <time>2020-09-13T16:46:58Z</time>
      </trkpt>
      <trkpt lat="42.9005710" lon="-2.5428900">
        <ele>545.8</ele>
        <time>2020-09-13T16:47:02Z</time>
      </trkpt>
      <trkpt lat="42.9005710" lon="-2.5428900">
        <ele>546.2</ele>
        <time>2020-09-13T16:47:06Z</time>
      </trkpt>
      <trkpt lat="42.9005710" lon="-2.5428900">
        <ele>546.6</ele>
        <time>2020-09-13T16:47:10Z</time>
      </trkpt>
      <trkpt lat="42.9005710" lon="-2.5428900">
        <ele>546.6</ele>
        <time>2020-09-13T16:47:14Z</time>
      </trkpt>
      <trkpt lat="42.9005710" lon="-2.5428900">
        <ele>546.4</ele>
        <time>2020-09-13T16:47:18Z</time>
      </trkpt>
      <trkpt lat="42.9005710" lon="-2.5428900">
        <ele>546.2</ele>
        <time>2020-09-13T16:47:22Z</time>
      </trkpt>
      <trkpt lat="42.9005710" lon="-2.5428900">
        <ele>546.6</ele>
        <time>2020-09-13T16:47:26Z</time>
      </trkpt>
      <trkpt lat="42.9005710" lon="-2.5428900">
        <ele>546.2</ele>
        <time>2020-09-13T16:47:30Z</time>
      </trkpt>
      <trkpt lat="42.9005710" lon="-2.5428900">
        <ele>546.0</ele>
        <time>2020-09-13T16:47:34Z</time>
      </trkpt>
      <trkpt lat="42.9005710" lon="-2.5428900">
        <ele>546.6</ele>
        <time>2020-09-13T16:47:38Z</time>
      </trkpt>
      <trkpt lat="42.9005710" lon="-2.5428900">
        <ele>546.4</ele>
        <time>2020-09-13T16:47:42Z</time>
      </trkpt>
      <trkpt lat="42.9005710" lon="-2.5428900">
        <ele>546.2</ele>
        <time>2020-09-13T16:47:46Z</time>
      </trkpt>
      <trkpt lat="42.9005710" lon="-2.5428900">
        <ele>546.0</ele>
        <time>2020-09-13T16:47:50Z</time>
      </trkpt>
      <trkpt lat="42.9005710" lon="-2.5428900">
        <ele>546.0</ele>
        <time>2020-09-13T16:47:54Z</time>
      </trkpt>
      <trkpt lat="42.9005710" lon="-2.5428900">
        <ele>546.4</ele>
        <time>2020-09-13T16:47:58Z</time>
      </trkpt>
      <trkpt lat="42.9005710" lon="-2.5428900">
        <ele>546.0</ele>
        <time>2020-09-13T16:48:02Z</time>
      </trkpt>
      <trkpt lat="42.9005710" lon="-2.5428900">
        <ele>546.0</ele>
        <time>2020-09-13T16:48:06Z</time>
      </trkpt>
      <trkpt lat="42.9005710" lon="-2.5428900">
        <ele>546.2</ele>
        <time>2020-09-13T16:48:10Z</time>
      </trkpt>
      <trkpt lat="42.9005710" lon="-2.5428900">
        <ele>546.0</ele>
        <time>2020-09-13T16:48:14Z</time>
      </trkpt>
      <trkpt lat="42.9005710" lon="-2.5428900">
        <ele>546.2</ele>
        <time>2020-09-13T16:48:18Z</time>
      </trkpt>
      <trkpt lat="42.9005710" lon="-2.5428900">
        <ele>546.0</ele>
        <time>2020-09-13T16:48:22Z</time>
      </trkpt>
      <trkpt lat="42.9005710" lon="-2.5428900">
        <ele>546.0</ele>
        <time>2020-09-13T16:48:26Z</time>
      </trkpt>
      <trkpt lat="42.9005710" lon="-2.5428900">
        <ele>546.2</ele>
        <time>2020-09-13T16:48:30Z</time>
      </trkpt>
      <trkpt lat="42.9005710" lon="-2.5428900">
        <ele>546.4</ele>
        <time>2020-09-13T16:48:34Z</time>
      </trkpt>
      <trkpt lat="42.9005710" lon="-2.5428900">
        <ele>546.2</ele>
        <time>2020-09-13T16:48:38Z</time>
      </trkpt>
      <trkpt lat="42.9005710" lon="-2.5428900">
        <ele>546.0</ele>
        <time>2020-09-13T16:48:42Z</time>
      </trkpt>
      <trkpt lat="42.9005710" lon="-2.5428900">
        <ele>545.6</ele>
        <time>2020-09-13T16:48:46Z</time>
      </trkpt>
      <trkpt lat="42.9005710" lon="-2.5428900">
        <ele>546.0</ele>
        <time>2020-09-13T16:48:50Z</time>
      </trkpt>
      <trkpt lat="42.9005710" lon="-2.5428900">
        <ele>546.0</ele>
        <time>2020-09-13T16:48:54Z</time>
      </trkpt>
      <trkpt lat="42.9005710" lon="-2.5428900">
        <ele>546.0</ele>
        <time>2020-09-13T16:48:58Z</time>
      </trkpt>
      <trkpt lat="42.9005710" lon="-2.5428900">
        <ele>545.6</ele>
        <time>2020-09-13T16:49:02Z</time>
      </trkpt>
      <trkpt lat="42.9005710" lon="-2.5428900">
        <ele>546.0</ele>
        <time>2020-09-13T16:49:06Z</time>
      </trkpt>
      <trkpt lat="42.9005710" lon="-2.5428900">
        <ele>545.8</ele>
        <time>2020-09-13T16:49:10Z</time>
      </trkpt>
      <trkpt lat="42.9005710" lon="-2.5428900">
        <ele>546.2</ele>
        <time>2020-09-13T16:49:14Z</time>
      </trkpt>
      <trkpt lat="42.9005710" lon="-2.5428900">
        <ele>545.6</ele>
        <time>2020-09-13T16:49:18Z</time>
      </trkpt>
      <trkpt lat="42.9005710" lon="-2.5428900">
        <ele>545.4</ele>
        <time>2020-09-13T16:49:22Z</time>
      </trkpt>
      <trkpt lat="42.9005710" lon="-2.5428900">
        <ele>546.0</ele>
        <time>2020-09-13T16:49:26Z</time>
      </trkpt>
      <trkpt lat="42.9005710" lon="-2.5428900">
        <ele>546.0</ele>
        <time>2020-09-13T16:49:30Z</time>
      </trkpt>
      <trkpt lat="42.9005710" lon="-2.5428900">
        <ele>545.8</ele>
        <time>2020-09-13T16:49:34Z</time>
      </trkpt>
      <trkpt lat="42.9005710" lon="-2.5428900">
        <ele>545.8</ele>
        <time>2020-09-13T16:49:38Z</time>
      </trkpt>
      <trkpt lat="42.9005710" lon="-2.5428900">
        <ele>546.0</ele>
        <time>2020-09-13T16:49:42Z</time>
      </trkpt>
      <trkpt lat="42.9005710" lon="-2.5428900">
        <ele>545.8</ele>
        <time>2020-09-13T16:49:46Z</time>
      </trkpt>
      <trkpt lat="42.9005710" lon="-2.5428900">
        <ele>546.0</ele>
        <time>2020-09-13T16:49:50Z</time>
      </trkpt>
      <trkpt lat="42.9005710" lon="-2.5428900">
        <ele>546.0</ele>
        <time>2020-09-13T16:49:54Z</time>
      </trkpt>
      <trkpt lat="42.9005710" lon="-2.5428900">
        <ele>545.8</ele>
        <time>2020-09-13T16:49:58Z</time>
      </trkpt>
      <trkpt lat="42.9005710" lon="-2.5428900">
        <ele>545.6</ele>
        <time>2020-09-13T16:50:02Z</time>
      </trkpt>
      <trkpt lat="42.9005710" lon="-2.5428900">
        <ele>545.6</ele>
        <time>2020-09-13T16:50:06Z</time>
      </trkpt>
      <trkpt lat="42.9005710" lon="-2.5428900">
        <ele>545.6</ele>
        <time>2020-09-13T16:50:10Z</time>
      </trkpt>
      <trkpt lat="42.9005710" lon="-2.5428900">
        <ele>545.8</ele>
        <time>2020-09-13T16:50:14Z</time>
      </trkpt>
      <trkpt lat="42.9005710" lon="-2.5428900">
        <ele>545.6</ele>
        <time>2020-09-13T16:50:18Z</time>
      </trkpt>
      <trkpt lat="42.9005710" lon="-2.5428900">
        <ele>545.8</ele>
        <time>2020-09-13T16:50:22Z</time>
      </trkpt>
      <trkpt lat="42.9005710" lon="-2.5428900">
        <ele>546.0</ele>
        <time>2020-09-13T16:50:26Z</time>
      </trkpt>
      <trkpt lat="42.9005710" lon="-2.5428900">
        <ele>545.8</ele>
        <time>2020-09-13T16:50:30Z</time>
      </trkpt>
      <trkpt lat="42.9005710" lon="-2.5428900">
        <ele>545.8</ele>
        <time>2020-09-13T16:50:34Z</time>
      </trkpt>
      <trkpt lat="42.9005710" lon="-2.5428900">
        <ele>546.0</ele>
        <time>2020-09-13T16:50:38Z</time>
      </trkpt>
      <trkpt lat="42.9005710" lon="-2.5428900">
        <ele>546.0</ele>
        <time>2020-09-13T16:50:42Z</time>
      </trkpt>
      <trkpt lat="42.9005710" lon="-2.5428900">
        <ele>546.0</ele>
        <time>2020-09-13T16:50:46Z</time>
      </trkpt>
      <trkpt lat="42.9005710" lon="-2.5428900">
        <ele>546.0</ele>
        <time>2020-09-13T16:50:50Z</time>
      </trkpt>
      <trkpt lat="42.9005710" lon="-2.5428900">
        <ele>545.8</ele>
        <time>2020-09-13T16:50:54Z</time>
      </trkpt>
      <trkpt lat="42.9005710" lon="-2.5428900">
        <ele>545.8</ele>
        <time>2020-09-13T16:50:58Z</time>
      </trkpt>
      <trkpt lat="42.9005710" lon="-2.5428900">
        <ele>546.0</ele>
        <time>2020-09-13T16:51:02Z</time>
      </trkpt>
      <trkpt lat="42.9005710" lon="-2.5428900">
        <ele>546.0</ele>
        <time>2020-09-13T16:51:06Z</time>
      </trkpt>
      <trkpt lat="42.9005710" lon="-2.5428900">
        <ele>546.0</ele>
        <time>2020-09-13T16:51:10Z</time>
      </trkpt>
      <trkpt lat="42.9005710" lon="-2.5428900">
        <ele>546.0</ele>
        <time>2020-09-13T16:51:14Z</time>
      </trkpt>
      <trkpt lat="42.9005710" lon="-2.5428900">
        <ele>546.0</ele>
        <time>2020-09-13T16:51:18Z</time>
      </trkpt>
      <trkpt lat="42.9005710" lon="-2.5428900">
        <ele>546.0</ele>
        <time>2020-09-13T16:51:22Z</time>
      </trkpt>
      <trkpt lat="42.9005710" lon="-2.5428900">
        <ele>546.0</ele>
        <time>2020-09-13T16:51:26Z</time>
      </trkpt>
      <trkpt lat="42.9005710" lon="-2.5428900">
        <ele>546.0</ele>
        <time>2020-09-13T16:51:30Z</time>
      </trkpt>
      <trkpt lat="42.9005710" lon="-2.5428900">
        <ele>546.2</ele>
        <time>2020-09-13T16:51:34Z</time>
      </trkpt>
      <trkpt lat="42.9005710" lon="-2.5428900">
        <ele>546.4</ele>
        <time>2020-09-13T16:51:38Z</time>
      </trkpt>
      <trkpt lat="42.9005710" lon="-2.5428900">
        <ele>546.2</ele>
        <time>2020-09-13T16:51:42Z</time>
      </trkpt>
      <trkpt lat="42.9005710" lon="-2.5428900">
        <ele>546.0</ele>
        <time>2020-09-13T16:51:46Z</time>
      </trkpt>
      <trkpt lat="42.9005710" lon="-2.5428900">
        <ele>546.4</ele>
        <time>2020-09-13T16:51:50Z</time>
      </trkpt>
      <trkpt lat="42.9005710" lon="-2.5428900">
        <ele>546.2</ele>
        <time>2020-09-13T16:51:54Z</time>
      </trkpt>
      <trkpt lat="42.9005710" lon="-2.5428900">
        <ele>546.4</ele>
        <time>2020-09-13T16:51:58Z</time>
      </trkpt>
      <trkpt lat="42.9005710" lon="-2.5428900">
        <ele>546.2</ele>
        <time>2020-09-13T16:52:02Z</time>
      </trkpt>
      <trkpt lat="42.9005710" lon="-2.5428900">
        <ele>545.6</ele>
        <time>2020-09-13T16:52:06Z</time>
      </trkpt>
      <trkpt lat="42.9005710" lon="-2.5428900">
        <ele>546.0</ele>
        <time>2020-09-13T16:52:10Z</time>
      </trkpt>
      <trkpt lat="42.9005710" lon="-2.5428900">
        <ele>546.0</ele>
        <time>2020-09-13T16:52:14Z</time>
      </trkpt>
      <trkpt lat="42.9005710" lon="-2.5428900">
        <ele>546.0</ele>
        <time>2020-09-13T16:52:18Z</time>
      </trkpt>
      <trkpt lat="42.9005710" lon="-2.5428900">
        <ele>546.0</ele>
        <time>2020-09-13T16:52:22Z</time>
      </trkpt>
      <trkpt lat="42.9005710" lon="-2.5428900">
        <ele>545.8</ele>
        <time>2020-09-13T16:52:26Z</time>
      </trkpt>
      <trkpt lat="42.9005710" lon="-2.5428900">
        <ele>546.0</ele>
        <time>2020-09-13T16:52:30Z</time>
      </trkpt>
      <trkpt lat="42.9005710" lon="-2.5428900">
        <ele>545.8</ele>
        <time>2020-09-13T16:52:34Z</time>
      </trkpt>
      <trkpt lat="42.9005710" lon="-2.5428900">
        <ele>546.0</ele>
        <time>2020-09-13T16:52:38Z</time>
      </trkpt>
      <trkpt lat="42.9005710" lon="-2.5428900">
        <ele>545.8</ele>
        <time>2020-09-13T16:52:42Z</time>
      </trkpt>
      <trkpt lat="42.9005710" lon="-2.5428900">
        <ele>545.8</ele>
        <time>2020-09-13T16:52:46Z</time>
      </trkpt>
      <trkpt lat="42.9005710" lon="-2.5428900">
        <ele>546.2</ele>
        <time>2020-09-13T16:52:50Z</time>
      </trkpt>
      <trkpt lat="42.9005710" lon="-2.5428900">
        <ele>546.2</ele>
        <time>2020-09-13T16:52:54Z</time>
      </trkpt>
      <trkpt lat="42.9005710" lon="-2.5428900">
        <ele>545.8</ele>
        <time>2020-09-13T16:52:58Z</time>
      </trkpt>
      <trkpt lat="42.9005710" lon="-2.5428900">
        <ele>546.0</ele>
        <time>2020-09-13T16:53:02Z</time>
      </trkpt>
      <trkpt lat="42.9005710" lon="-2.5428900">
        <ele>546.0</ele>
        <time>2020-09-13T16:53:06Z</time>
      </trkpt>
      <trkpt lat="42.9005710" lon="-2.5428900">
        <ele>546.0</ele>
        <time>2020-09-13T16:53:10Z</time>
      </trkpt>
      <trkpt lat="42.9005710" lon="-2.5428900">
        <ele>546.0</ele>
        <time>2020-09-13T16:53:14Z</time>
      </trkpt>
      <trkpt lat="42.9005710" lon="-2.5428900">
        <ele>545.4</ele>
        <time>2020-09-13T16:53:18Z</time>
      </trkpt>
      <trkpt lat="42.9005710" lon="-2.5428900">
        <ele>546.0</ele>
        <time>2020-09-13T16:53:22Z</time>
      </trkpt>
      <trkpt lat="42.9005710" lon="-2.5428900">
        <ele>546.0</ele>
        <time>2020-09-13T16:53:26Z</time>
      </trkpt>
      <trkpt lat="42.9005710" lon="-2.5428900">
        <ele>545.6</ele>
        <time>2020-09-13T16:53:30Z</time>
      </trkpt>
      <trkpt lat="42.9005710" lon="-2.5428900">
        <ele>545.6</ele>
        <time>2020-09-13T16:53:34Z</time>
      </trkpt>
      <trkpt lat="42.9005710" lon="-2.5428900">
        <ele>545.8</ele>
        <time>2020-09-13T16:53:38Z</time>
      </trkpt>
      <trkpt lat="42.9005710" lon="-2.5428900">
        <ele>545.8</ele>
        <time>2020-09-13T16:53:42Z</time>
      </trkpt>
      <trkpt lat="42.9005710" lon="-2.5428900">
        <ele>545.6</ele>
        <time>2020-09-13T16:53:46Z</time>
      </trkpt>
      <trkpt lat="42.9005710" lon="-2.5428900">
        <ele>545.8</ele>
        <time>2020-09-13T16:53:50Z</time>
      </trkpt>
      <trkpt lat="42.9005710" lon="-2.5428900">
        <ele>545.4</ele>
        <time>2020-09-13T16:53:54Z</time>
      </trkpt>
      <trkpt lat="42.9005710" lon="-2.5428900">
        <ele>545.6</ele>
        <time>2020-09-13T16:53:58Z</time>
      </trkpt>
      <trkpt lat="42.9005710" lon="-2.5428900">
        <ele>546.0</ele>
        <time>2020-09-13T16:54:02Z</time>
      </trkpt>
      <trkpt lat="42.9005710" lon="-2.5428900">
        <ele>545.4</ele>
        <time>2020-09-13T16:54:06Z</time>
      </trkpt>
      <trkpt lat="42.9005710" lon="-2.5428900">
        <ele>545.8</ele>
        <time>2020-09-13T16:54:10Z</time>
      </trkpt>
      <trkpt lat="42.9005710" lon="-2.5428900">
        <ele>545.2</ele>
        <time>2020-09-13T16:54:14Z</time>
      </trkpt>
      <trkpt lat="42.9005710" lon="-2.5428900">
        <ele>545.6</ele>
        <time>2020-09-13T16:54:18Z</time>
      </trkpt>
      <trkpt lat="42.9005710" lon="-2.5428900">
        <ele>545.8</ele>
        <time>2020-09-13T16:54:22Z</time>
      </trkpt>
      <trkpt lat="42.9005710" lon="-2.5428900">
        <ele>546.0</ele>
        <time>2020-09-13T16:54:26Z</time>
      </trkpt>
      <trkpt lat="42.9005710" lon="-2.5428900">
        <ele>546.0</ele>
        <time>2020-09-13T16:54:30Z</time>
      </trkpt>
      <trkpt lat="42.9005710" lon="-2.5428900">
        <ele>545.6</ele>
        <time>2020-09-13T16:54:34Z</time>
      </trkpt>
      <trkpt lat="42.9005710" lon="-2.5428900">
        <ele>545.8</ele>
        <time>2020-09-13T16:54:38Z</time>
      </trkpt>
      <trkpt lat="42.9005710" lon="-2.5428900">
        <ele>545.6</ele>
        <time>2020-09-13T16:54:42Z</time>
      </trkpt>
      <trkpt lat="42.9005710" lon="-2.5428900">
        <ele>545.8</ele>
        <time>2020-09-13T16:54:46Z</time>
      </trkpt>
      <trkpt lat="42.9005710" lon="-2.5428900">
        <ele>545.8</ele>
        <time>2020-09-13T16:54:50Z</time>
      </trkpt>
      <trkpt lat="42.9005710" lon="-2.5428900">
        <ele>546.0</ele>
        <time>2020-09-13T16:54:54Z</time>
      </trkpt>
      <trkpt lat="42.9005710" lon="-2.5428900">
        <ele>546.0</ele>
        <time>2020-09-13T16:54:58Z</time>
      </trkpt>
      <trkpt lat="42.9005710" lon="-2.5428900">
        <ele>546.2</ele>
        <time>2020-09-13T16:55:02Z</time>
      </trkpt>
      <trkpt lat="42.9005710" lon="-2.5428900">
        <ele>546.0</ele>
        <time>2020-09-13T16:55:06Z</time>
      </trkpt>
      <trkpt lat="42.9005710" lon="-2.5428900">
        <ele>546.0</ele>
        <time>2020-09-13T16:55:10Z</time>
      </trkpt>
      <trkpt lat="42.9005710" lon="-2.5428900">
        <ele>546.0</ele>
        <time>2020-09-13T16:55:14Z</time>
      </trkpt>
      <trkpt lat="42.9005710" lon="-2.5428900">
        <ele>546.2</ele>
        <time>2020-09-13T16:55:18Z</time>
      </trkpt>
      <trkpt lat="42.9005710" lon="-2.5428900">
        <ele>545.8</ele>
        <time>2020-09-13T16:55:22Z</time>
      </trkpt>
      <trkpt lat="42.9005710" lon="-2.5428900">
        <ele>546.0</ele>
        <time>2020-09-13T16:55:26Z</time>
      </trkpt>
      <trkpt lat="42.9005710" lon="-2.5428900">
        <ele>546.0</ele>
        <time>2020-09-13T16:55:30Z</time>
      </trkpt>
      <trkpt lat="42.9005710" lon="-2.5428900">
        <ele>546.2</ele>
        <time>2020-09-13T16:55:34Z</time>
      </trkpt>
      <trkpt lat="42.9005710" lon="-2.5428900">
        <ele>546.0</ele>
        <time>2020-09-13T16:55:38Z</time>
      </trkpt>
      <trkpt lat="42.9005710" lon="-2.5428900">
        <ele>546.2</ele>
        <time>2020-09-13T16:55:42Z</time>
      </trkpt>
      <trkpt lat="42.9005710" lon="-2.5428900">
        <ele>546.0</ele>
        <time>2020-09-13T16:55:46Z</time>
      </trkpt>
      <trkpt lat="42.9005710" lon="-2.5428900">
        <ele>545.8</ele>
        <time>2020-09-13T16:55:50Z</time>
      </trkpt>
      <trkpt lat="42.9005710" lon="-2.5428900">
        <ele>546.0</ele>
        <time>2020-09-13T16:55:54Z</time>
      </trkpt>
      <trkpt lat="42.9005710" lon="-2.5428900">
        <ele>546.0</ele>
        <time>2020-09-13T16:55:58Z</time>
      </trkpt>
      <trkpt lat="42.9005710" lon="-2.5428900">
        <ele>545.8</ele>
        <time>2020-09-13T16:56:02Z</time>
      </trkpt>
      <trkpt lat="42.9005710" lon="-2.5428900">
        <ele>546.0</ele>
        <time>2020-09-13T16:56:06Z</time>
      </trkpt>
      <trkpt lat="42.9005710" lon="-2.5428900">
        <ele>546.0</ele>
        <time>2020-09-13T16:56:10Z</time>
      </trkpt>
      <trkpt lat="42.9005710" lon="-2.5428900">
        <ele>546.0</ele>
        <time>2020-09-13T16:56:14Z</time>
      </trkpt>
      <trkpt lat="42.9005710" lon="-2.5428900">
        <ele>545.8</ele>
        <time>2020-09-13T16:56:18Z</time>
      </trkpt>
      <trkpt lat="42.9005710" lon="-2.5428900">
        <ele>546.0</ele>
        <time>2020-09-13T16:56:22Z</time>
      </trkpt>
      <trkpt lat="42.9005710" lon="-2.5428900">
        <ele>546.0</ele>
        <time>2020-09-13T16:56:26Z</time>
      </trkpt>
      <trkpt lat="42.9005710" lon="-2.5428900">
        <ele>546.2</ele>
        <time>2020-09-13T16:56:30Z</time>
      </trkpt>
      <trkpt lat="42.9005710" lon="-2.5428900">
        <ele>546.2</ele>
        <time>2020-09-13T16:56:34Z</time>
      </trkpt>
      <trkpt lat="42.9005710" lon="-2.5428900">
        <ele>546.0</ele>
        <time>2020-09-13T16:56:38Z</time>
      </trkpt>
      <trkpt lat="42.9005710" lon="-2.5428900">
        <ele>546.2</ele>
        <time>2020-09-13T16:56:42Z</time>
      </trkpt>
      <trkpt lat="42.9005710" lon="-2.5428900">
        <ele>545.6</ele>
        <time>2020-09-13T16:56:46Z</time>
      </trkpt>
      <trkpt lat="42.9005710" lon="-2.5428900">
        <ele>546.0</ele>
        <time>2020-09-13T16:56:50Z</time>
      </trkpt>
      <trkpt lat="42.9005710" lon="-2.5428900">
        <ele>546.0</ele>
        <time>2020-09-13T16:56:54Z</time>
      </trkpt>
      <trkpt lat="42.9005710" lon="-2.5428900">
        <ele>546.2</ele>
        <time>2020-09-13T16:56:58Z</time>
      </trkpt>
      <trkpt lat="42.9005710" lon="-2.5428900">
        <ele>546.0</ele>
        <time>2020-09-13T16:57:02Z</time>
      </trkpt>
      <trkpt lat="42.9005710" lon="-2.5428900">
        <ele>546.0</ele>
        <time>2020-09-13T16:57:06Z</time>
      </trkpt>
      <trkpt lat="42.9005710" lon="-2.5428900">
        <ele>546.2</ele>
        <time>2020-09-13T16:57:10Z</time>
      </trkpt>
      <trkpt lat="42.9005710" lon="-2.5428900">
        <ele>546.0</ele>
        <time>2020-09-13T16:57:14Z</time>
      </trkpt>
      <trkpt lat="42.9005710" lon="-2.5428900">
        <ele>546.0</ele>
        <time>2020-09-13T16:57:18Z</time>
      </trkpt>
      <trkpt lat="42.9005710" lon="-2.5428900">
        <ele>546.2</ele>
        <time>2020-09-13T16:57:22Z</time>
      </trkpt>
      <trkpt lat="42.9005710" lon="-2.5428900">
        <ele>546.2</ele>
        <time>2020-09-13T16:57:26Z</time>
      </trkpt>
      <trkpt lat="42.9005710" lon="-2.5428900">
        <ele>546.0</ele>
        <time>2020-09-13T16:57:30Z</time>
      </trkpt>
      <trkpt lat="42.9005710" lon="-2.5428900">
        <ele>546.0</ele>
        <time>2020-09-13T16:57:34Z</time>
      </trkpt>
      <trkpt lat="42.9005710" lon="-2.5428900">
        <ele>546.2</ele>
        <time>2020-09-13T16:57:38Z</time>
      </trkpt>
      <trkpt lat="42.9005710" lon="-2.5428900">
        <ele>546.2</ele>
        <time>2020-09-13T16:57:42Z</time>
      </trkpt>
      <trkpt lat="42.9005710" lon="-2.5428900">
        <ele>545.6</ele>
        <time>2020-09-13T16:57:46Z</time>
      </trkpt>
      <trkpt lat="42.9005710" lon="-2.5428900">
        <ele>546.0</ele>
        <time>2020-09-13T16:57:50Z</time>
      </trkpt>
      <trkpt lat="42.9005710" lon="-2.5428900">
        <ele>545.8</ele>
        <time>2020-09-13T16:57:54Z</time>
      </trkpt>
      <trkpt lat="42.9005710" lon="-2.5428900">
        <ele>546.0</ele>
        <time>2020-09-13T16:57:58Z</time>
      </trkpt>
      <trkpt lat="42.9005710" lon="-2.5428900">
        <ele>546.0</ele>
        <time>2020-09-13T16:58:02Z</time>
      </trkpt>
      <trkpt lat="42.9005710" lon="-2.5428900">
        <ele>546.0</ele>
        <time>2020-09-13T16:58:06Z</time>
      </trkpt>
      <trkpt lat="42.9005710" lon="-2.5428900">
        <ele>546.0</ele>
        <time>2020-09-13T16:58:10Z</time>
      </trkpt>
      <trkpt lat="42.9005710" lon="-2.5428900">
        <ele>546.0</ele>
        <time>2020-09-13T16:58:14Z</time>
      </trkpt>
      <trkpt lat="42.9005710" lon="-2.5428900">
        <ele>545.8</ele>
        <time>2020-09-13T16:58:18Z</time>
      </trkpt>
      <trkpt lat="42.9005710" lon="-2.5428900">
        <ele>546.0</ele>
        <time>2020-09-13T16:58:22Z</time>
      </trkpt>
      <trkpt lat="42.9005710" lon="-2.5428900">
        <ele>546.0</ele>
        <time>2020-09-13T16:58:26Z</time>
      </trkpt>
      <trkpt lat="42.9005710" lon="-2.5428900">
        <ele>545.8</ele>
        <time>2020-09-13T16:58:30Z</time>
      </trkpt>
      <trkpt lat="42.9005710" lon="-2.5428900">
        <ele>546.0</ele>
        <time>2020-09-13T16:58:34Z</time>
      </trkpt>
      <trkpt lat="42.9005710" lon="-2.5428900">
        <ele>546.0</ele>
        <time>2020-09-13T16:58:38Z</time>
      </trkpt>
      <trkpt lat="42.9005710" lon="-2.5428900">
        <ele>546.0</ele>
        <time>2020-09-13T16:58:42Z</time>
      </trkpt>
      <trkpt lat="42.9005710" lon="-2.5428900">
        <ele>545.8</ele>
        <time>2020-09-13T16:58:46Z</time>
      </trkpt>
      <trkpt lat="42.9005710" lon="-2.5428900">
        <ele>545.8</ele>
        <time>2020-09-13T16:58:50Z</time>
      </trkpt>
      <trkpt lat="42.9005710" lon="-2.5428900">
        <ele>546.0</ele>
        <time>2020-09-13T16:58:54Z</time>
      </trkpt>
      <trkpt lat="42.9005710" lon="-2.5428900">
        <ele>546.2</ele>
        <time>2020-09-13T16:58:58Z</time>
      </trkpt>
      <trkpt lat="42.9005710" lon="-2.5428900">
        <ele>545.8</ele>
        <time>2020-09-13T16:59:02Z</time>
      </trkpt>
      <trkpt lat="42.9005710" lon="-2.5428900">
        <ele>545.8</ele>
        <time>2020-09-13T16:59:06Z</time>
      </trkpt>
      <trkpt lat="42.9005710" lon="-2.5428900">
        <ele>545.8</ele>
        <time>2020-09-13T16:59:10Z</time>
      </trkpt>
      <trkpt lat="42.9005710" lon="-2.5428900">
        <ele>546.0</ele>
        <time>2020-09-13T16:59:14Z</time>
      </trkpt>
      <trkpt lat="42.9005710" lon="-2.5428900">
        <ele>546.0</ele>
        <time>2020-09-13T16:59:18Z</time>
      </trkpt>
      <trkpt lat="42.9005710" lon="-2.5428900">
        <ele>545.4</ele>
        <time>2020-09-13T16:59:22Z</time>
      </trkpt>
      <trkpt lat="42.9005710" lon="-2.5428900">
        <ele>545.4</ele>
        <time>2020-09-13T16:59:26Z</time>
      </trkpt>
      <trkpt lat="42.9005710" lon="-2.5428900">
        <ele>545.6</ele>
        <time>2020-09-13T16:59:30Z</time>
      </trkpt>
      <trkpt lat="42.9005710" lon="-2.5428900">
        <ele>546.0</ele>
        <time>2020-09-13T16:59:34Z</time>
      </trkpt>
      <trkpt lat="42.9005710" lon="-2.5428900">
        <ele>545.8</ele>
        <time>2020-09-13T16:59:38Z</time>
      </trkpt>
      <trkpt lat="42.9005710" lon="-2.5428900">
        <ele>545.2</ele>
        <time>2020-09-13T16:59:42Z</time>
      </trkpt>
      <trkpt lat="42.9005710" lon="-2.5428900">
        <ele>545.6</ele>
        <time>2020-09-13T16:59:46Z</time>
      </trkpt>
      <trkpt lat="42.9005710" lon="-2.5428900">
        <ele>545.6</ele>
        <time>2020-09-13T16:59:50Z</time>
      </trkpt>
      <trkpt lat="42.9005710" lon="-2.5428900">
        <ele>545.8</ele>
        <time>2020-09-13T16:59:54Z</time>
      </trkpt>
      <trkpt lat="42.9005710" lon="-2.5428900">
        <ele>545.4</ele>
        <time>2020-09-13T16:59:58Z</time>
      </trkpt>
      <trkpt lat="42.9005710" lon="-2.5428900">
        <ele>545.6</ele>
        <time>2020-09-13T17:00:02Z</time>
      </trkpt>
      <trkpt lat="42.9005710" lon="-2.5428900">
        <ele>545.6</ele>
        <time>2020-09-13T17:00:06Z</time>
      </trkpt>
      <trkpt lat="42.9005710" lon="-2.5428900">
        <ele>545.4</ele>
        <time>2020-09-13T17:00:10Z</time>
      </trkpt>
      <trkpt lat="42.9005710" lon="-2.5428900">
        <ele>545.4</ele>
        <time>2020-09-13T17:00:14Z</time>
      </trkpt>
      <trkpt lat="42.9005710" lon="-2.5428900">
        <ele>545.2</ele>
        <time>2020-09-13T17:00:18Z</time>
      </trkpt>
      <trkpt lat="42.9005710" lon="-2.5428900">
        <ele>545.4</ele>
        <time>2020-09-13T17:00:22Z</time>
      </trkpt>
      <trkpt lat="42.9005710" lon="-2.5428900">
        <ele>545.6</ele>
        <time>2020-09-13T17:00:26Z</time>
      </trkpt>
      <trkpt lat="42.9005710" lon="-2.5428900">
        <ele>546.0</ele>
        <time>2020-09-13T17:00:30Z</time>
      </trkpt>
      <trkpt lat="42.9005710" lon="-2.5428900">
        <ele>545.4</ele>
        <time>2020-09-13T17:00:34Z</time>
      </trkpt>
      <trkpt lat="42.9005710" lon="-2.5428900">
        <ele>545.2</ele>
        <time>2020-09-13T17:00:38Z</time>
      </trkpt>
      <trkpt lat="42.9005710" lon="-2.5428900">
        <ele>545.4</ele>
        <time>2020-09-13T17:00:42Z</time>
      </trkpt>
      <trkpt lat="42.9005710" lon="-2.5428900">
        <ele>545.4</ele>
        <time>2020-09-13T17:00:46Z</time>
      </trkpt>
      <trkpt lat="42.9005710" lon="-2.5428900">
        <ele>545.2</ele>
        <time>2020-09-13T17:00:50Z</time>
      </trkpt>
      <trkpt lat="42.9005710" lon="-2.5428900">
        <ele>545.8</ele>
        <time>2020-09-13T17:00:54Z</time>
      </trkpt>
      <trkpt lat="42.9005710" lon="-2.5428900">
        <ele>545.8</ele>
        <time>2020-09-13T17:00:58Z</time>
      </trkpt>
      <trkpt lat="42.9005710" lon="-2.5428900">
        <ele>545.0</ele>
        <time>2020-09-13T17:01:02Z</time>
      </trkpt>
      <trkpt lat="42.9005710" lon="-2.5428900">
        <ele>545.4</ele>
        <time>2020-09-13T17:01:06Z</time>
      </trkpt>
      <trkpt lat="42.9005710" lon="-2.5428900">
        <ele>545.4</ele>
        <time>2020-09-13T17:01:10Z</time>
      </trkpt>
      <trkpt lat="42.9005710" lon="-2.5428900">
        <ele>545.8</ele>
        <time>2020-09-13T17:01:14Z</time>
      </trkpt>
      <trkpt lat="42.9005710" lon="-2.5428900">
        <ele>545.0</ele>
        <time>2020-09-13T17:01:18Z</time>
      </trkpt>
      <trkpt lat="42.9005710" lon="-2.5428900">
        <ele>545.2</ele>
        <time>2020-09-13T17:01:22Z</time>
      </trkpt>
      <trkpt lat="42.9005710" lon="-2.5428900">
        <ele>545.2</ele>
        <time>2020-09-13T17:01:26Z</time>
      </trkpt>
      <trkpt lat="42.9005710" lon="-2.5428900">
        <ele>545.6</ele>
        <time>2020-09-13T17:01:30Z</time>
      </trkpt>
      <trkpt lat="42.9005710" lon="-2.5428900">
        <ele>545.4</ele>
        <time>2020-09-13T17:01:34Z</time>
      </trkpt>
      <trkpt lat="42.9005710" lon="-2.5428900">
        <ele>545.6</ele>
        <time>2020-09-13T17:01:38Z</time>
      </trkpt>
      <trkpt lat="42.9005710" lon="-2.5428900">
        <ele>545.4</ele>
        <time>2020-09-13T17:01:42Z</time>
      </trkpt>
      <trkpt lat="42.9005710" lon="-2.5428900">
        <ele>545.4</ele>
        <time>2020-09-13T17:01:46Z</time>
      </trkpt>
      <trkpt lat="42.9005710" lon="-2.5428900">
        <ele>545.6</ele>
        <time>2020-09-13T17:01:50Z</time>
      </trkpt>
      <trkpt lat="42.9005710" lon="-2.5428900">
        <ele>546.0</ele>
        <time>2020-09-13T17:01:54Z</time>
      </trkpt>
      <trkpt lat="42.9005710" lon="-2.5428900">
        <ele>546.2</ele>
        <time>2020-09-13T17:01:58Z</time>
      </trkpt>
      <trkpt lat="42.9005710" lon="-2.5428900">
        <ele>545.8</ele>
        <time>2020-09-13T17:02:02Z</time>
      </trkpt>
      <trkpt lat="42.9005710" lon="-2.5428900">
        <ele>546.0</ele>
        <time>2020-09-13T17:02:06Z</time>
      </trkpt>
      <trkpt lat="42.9005710" lon="-2.5428900">
        <ele>546.0</ele>
        <time>2020-09-13T17:02:10Z</time>
      </trkpt>
      <trkpt lat="42.9005710" lon="-2.5428900">
        <ele>546.2</ele>
        <time>2020-09-13T17:02:14Z</time>
      </trkpt>
      <trkpt lat="42.9005710" lon="-2.5428900">
        <ele>546.0</ele>
        <time>2020-09-13T17:02:18Z</time>
      </trkpt>
      <trkpt lat="42.9005710" lon="-2.5428900">
        <ele>546.0</ele>
        <time>2020-09-13T17:02:22Z</time>
      </trkpt>
      <trkpt lat="42.9005710" lon="-2.5428900">
        <ele>546.0</ele>
        <time>2020-09-13T17:02:26Z</time>
      </trkpt>
      <trkpt lat="42.9005710" lon="-2.5428900">
        <ele>545.6</ele>
        <time>2020-09-13T17:02:30Z</time>
      </trkpt>
      <trkpt lat="42.9005710" lon="-2.5428900">
        <ele>545.6</ele>
        <time>2020-09-13T17:02:34Z</time>
      </trkpt>
      <trkpt lat="42.9005710" lon="-2.5428900">
        <ele>546.2</ele>
        <time>2020-09-13T17:02:38Z</time>
      </trkpt>
      <trkpt lat="42.9005710" lon="-2.5428900">
        <ele>545.8</ele>
        <time>2020-09-13T17:02:42Z</time>
      </trkpt>
      <trkpt lat="42.9005710" lon="-2.5428900">
        <ele>546.0</ele>
        <time>2020-09-13T17:02:46Z</time>
      </trkpt>
      <trkpt lat="42.9005710" lon="-2.5428900">
        <ele>546.0</ele>
        <time>2020-09-13T17:02:50Z</time>
      </trkpt>
      <trkpt lat="42.9005710" lon="-2.5428900">
        <ele>546.0</ele>
        <time>2020-09-13T17:02:54Z</time>
      </trkpt>
      <trkpt lat="42.9005710" lon="-2.5428900">
        <ele>546.0</ele>
        <time>2020-09-13T17:02:58Z</time>
      </trkpt>
      <trkpt lat="42.9005710" lon="-2.5428900">
        <ele>546.2</ele>
        <time>2020-09-13T17:03:02Z</time>
      </trkpt>
      <trkpt lat="42.9005710" lon="-2.5428900">
        <ele>546.2</ele>
        <time>2020-09-13T17:03:06Z</time>
      </trkpt>
      <trkpt lat="42.9005710" lon="-2.5428900">
        <ele>546.0</ele>
        <time>2020-09-13T17:03:10Z</time>
      </trkpt>
      <trkpt lat="42.9005710" lon="-2.5428900">
        <ele>546.2</ele>
        <time>2020-09-13T17:03:14Z</time>
      </trkpt>
      <trkpt lat="42.9005710" lon="-2.5428900">
        <ele>546.0</ele>
        <time>2020-09-13T17:03:18Z</time>
      </trkpt>
      <trkpt lat="42.9005710" lon="-2.5428900">
        <ele>546.0</ele>
        <time>2020-09-13T17:03:22Z</time>
      </trkpt>
      <trkpt lat="42.9005710" lon="-2.5428900">
        <ele>546.0</ele>
        <time>2020-09-13T17:03:26Z</time>
      </trkpt>
      <trkpt lat="42.9005710" lon="-2.5428900">
        <ele>546.4</ele>
        <time>2020-09-13T17:03:30Z</time>
      </trkpt>
      <trkpt lat="42.9005710" lon="-2.5428900">
        <ele>546.2</ele>
        <time>2020-09-13T17:03:34Z</time>
      </trkpt>
      <trkpt lat="42.9005710" lon="-2.5428900">
        <ele>546.6</ele>
        <time>2020-09-13T17:03:38Z</time>
      </trkpt>
      <trkpt lat="42.9005710" lon="-2.5428900">
        <ele>546.0</ele>
        <time>2020-09-13T17:03:42Z</time>
      </trkpt>
      <trkpt lat="42.9005710" lon="-2.5428900">
        <ele>546.0</ele>
        <time>2020-09-13T17:03:46Z</time>
      </trkpt>
      <trkpt lat="42.9005710" lon="-2.5428900">
        <ele>546.0</ele>
        <time>2020-09-13T17:03:50Z</time>
      </trkpt>
      <trkpt lat="42.9005710" lon="-2.5428900">
        <ele>546.0</ele>
        <time>2020-09-13T17:03:54Z</time>
      </trkpt>
      <trkpt lat="42.9005710" lon="-2.5428900">
        <ele>545.8</ele>
        <time>2020-09-13T17:03:58Z</time>
      </trkpt>
      <trkpt lat="42.9005710" lon="-2.5428900">
        <ele>545.8</ele>
        <time>2020-09-13T17:04:02Z</time>
      </trkpt>
      <trkpt lat="42.9005710" lon="-2.5428900">
        <ele>546.0</ele>
        <time>2020-09-13T17:04:06Z</time>
      </trkpt>
      <trkpt lat="42.9005710" lon="-2.5428900">
        <ele>546.0</ele>
        <time>2020-09-13T17:04:10Z</time>
      </trkpt>
      <trkpt lat="42.9005710" lon="-2.5428900">
        <ele>545.8</ele>
        <time>2020-09-13T17:04:14Z</time>
      </trkpt>
      <trkpt lat="42.9005710" lon="-2.5428900">
        <ele>546.0</ele>
        <time>2020-09-13T17:04:18Z</time>
      </trkpt>
      <trkpt lat="42.9005710" lon="-2.5428900">
        <ele>546.0</ele>
        <time>2020-09-13T17:04:22Z</time>
      </trkpt>
      <trkpt lat="42.9005710" lon="-2.5428900">
        <ele>546.0</ele>
        <time>2020-09-13T17:04:26Z</time>
      </trkpt>
      <trkpt lat="42.9005710" lon="-2.5428900">
        <ele>546.0</ele>
        <time>2020-09-13T17:04:30Z</time>
      </trkpt>
      <trkpt lat="42.9005710" lon="-2.5428900">
        <ele>545.8</ele>
        <time>2020-09-13T17:04:34Z</time>
      </trkpt>
      <trkpt lat="42.9005710" lon="-2.5428900">
        <ele>545.6</ele>
        <time>2020-09-13T17:04:38Z</time>
      </trkpt>
      <trkpt lat="42.9005710" lon="-2.5428900">
        <ele>545.6</ele>
        <time>2020-09-13T17:04:42Z</time>
      </trkpt>
      <trkpt lat="42.9005710" lon="-2.5428900">
        <ele>545.8</ele>
        <time>2020-09-13T17:04:46Z</time>
      </trkpt>
      <trkpt lat="42.9005710" lon="-2.5428900">
        <ele>546.0</ele>
        <time>2020-09-13T17:04:50Z</time>
      </trkpt>
      <trkpt lat="42.9005710" lon="-2.5428900">
        <ele>545.8</ele>
        <time>2020-09-13T17:04:54Z</time>
      </trkpt>
      <trkpt lat="42.9005710" lon="-2.5428900">
        <ele>546.0</ele>
        <time>2020-09-13T17:04:58Z</time>
      </trkpt>
      <trkpt lat="42.9005710" lon="-2.5428900">
        <ele>546.2</ele>
        <time>2020-09-13T17:05:02Z</time>
      </trkpt>
      <trkpt lat="42.9005710" lon="-2.5428900">
        <ele>545.8</ele>
        <time>2020-09-13T17:05:06Z</time>
      </trkpt>
      <trkpt lat="42.9005710" lon="-2.5428900">
        <ele>546.0</ele>
        <time>2020-09-13T17:05:10Z</time>
      </trkpt>
      <trkpt lat="42.9005710" lon="-2.5428900">
        <ele>545.4</ele>
        <time>2020-09-13T17:05:14Z</time>
      </trkpt>
      <trkpt lat="42.9005710" lon="-2.5428900">
        <ele>546.2</ele>
        <time>2020-09-13T17:05:18Z</time>
      </trkpt>
      <trkpt lat="42.9005710" lon="-2.5428900">
        <ele>545.8</ele>
        <time>2020-09-13T17:05:22Z</time>
      </trkpt>
      <trkpt lat="42.9005710" lon="-2.5428900">
        <ele>546.0</ele>
        <time>2020-09-13T17:05:26Z</time>
      </trkpt>
      <trkpt lat="42.9005710" lon="-2.5428900">
        <ele>545.8</ele>
        <time>2020-09-13T17:05:30Z</time>
      </trkpt>
      <trkpt lat="42.9005710" lon="-2.5428900">
        <ele>545.8</ele>
        <time>2020-09-13T17:05:34Z</time>
      </trkpt>
      <trkpt lat="42.9005710" lon="-2.5428900">
        <ele>546.0</ele>
        <time>2020-09-13T17:05:38Z</time>
      </trkpt>
      <trkpt lat="42.9005710" lon="-2.5428900">
        <ele>546.4</ele>
        <time>2020-09-13T17:05:42Z</time>
      </trkpt>
      <trkpt lat="42.9005710" lon="-2.5428900">
        <ele>546.0</ele>
        <time>2020-09-13T17:05:46Z</time>
      </trkpt>
      <trkpt lat="42.9005710" lon="-2.5428900">
        <ele>546.2</ele>
        <time>2020-09-13T17:05:50Z</time>
      </trkpt>
      <trkpt lat="42.9005710" lon="-2.5428900">
        <ele>546.2</ele>
        <time>2020-09-13T17:05:54Z</time>
      </trkpt>
      <trkpt lat="42.9005710" lon="-2.5428900">
        <ele>545.8</ele>
        <time>2020-09-13T17:05:58Z</time>
      </trkpt>
      <trkpt lat="42.9005710" lon="-2.5428900">
        <ele>546.0</ele>
        <time>2020-09-13T17:06:02Z</time>
      </trkpt>
      <trkpt lat="42.9005710" lon="-2.5428900">
        <ele>546.2</ele>
        <time>2020-09-13T17:06:06Z</time>
      </trkpt>
      <trkpt lat="42.9005710" lon="-2.5428900">
        <ele>546.0</ele>
        <time>2020-09-13T17:06:10Z</time>
      </trkpt>
      <trkpt lat="42.9005710" lon="-2.5428900">
        <ele>545.8</ele>
        <time>2020-09-13T17:06:14Z</time>
      </trkpt>
      <trkpt lat="42.9005710" lon="-2.5428900">
        <ele>545.8</ele>
        <time>2020-09-13T17:06:18Z</time>
      </trkpt>
      <trkpt lat="42.9005710" lon="-2.5428900">
        <ele>546.0</ele>
        <time>2020-09-13T17:06:22Z</time>
      </trkpt>
      <trkpt lat="42.9005710" lon="-2.5428900">
        <ele>545.8</ele>
        <time>2020-09-13T17:06:26Z</time>
      </trkpt>
      <trkpt lat="42.9005710" lon="-2.5428900">
        <ele>546.0</ele>
        <time>2020-09-13T17:06:30Z</time>
      </trkpt>
      <trkpt lat="42.9005710" lon="-2.5428900">
        <ele>546.6</ele>
        <time>2020-09-13T17:06:34Z</time>
      </trkpt>
      <trkpt lat="42.9005710" lon="-2.5428900">
        <ele>546.4</ele>
        <time>2020-09-13T17:06:38Z</time>
      </trkpt>
      <trkpt lat="42.9005710" lon="-2.5428900">
        <ele>546.4</ele>
        <time>2020-09-13T17:06:42Z</time>
      </trkpt>
      <trkpt lat="42.9005710" lon="-2.5428900">
        <ele>546.2</ele>
        <time>2020-09-13T17:06:46Z</time>
      </trkpt>
      <trkpt lat="42.9005710" lon="-2.5428900">
        <ele>546.0</ele>
        <time>2020-09-13T17:06:50Z</time>
      </trkpt>
      <trkpt lat="42.9005710" lon="-2.5428900">
        <ele>546.0</ele>
        <time>2020-09-13T17:06:54Z</time>
      </trkpt>
      <trkpt lat="42.9005710" lon="-2.5428900">
        <ele>546.2</ele>
        <time>2020-09-13T17:06:58Z</time>
      </trkpt>
      <trkpt lat="42.9005710" lon="-2.5428900">
        <ele>546.0</ele>
        <time>2020-09-13T17:07:02Z</time>
      </trkpt>
      <trkpt lat="42.9005710" lon="-2.5428900">
        <ele>546.2</ele>
        <time>2020-09-13T17:07:06Z</time>
      </trkpt>
      <trkpt lat="42.9005710" lon="-2.5428900">
        <ele>545.8</ele>
        <time>2020-09-13T17:07:10Z</time>
      </trkpt>
      <trkpt lat="42.9005710" lon="-2.5428900">
        <ele>546.2</ele>
        <time>2020-09-13T17:07:14Z</time>
      </trkpt>
      <trkpt lat="42.9005710" lon="-2.5428900">
        <ele>546.0</ele>
        <time>2020-09-13T17:07:18Z</time>
      </trkpt>
      <trkpt lat="42.9005710" lon="-2.5428900">
        <ele>546.2</ele>
        <time>2020-09-13T17:07:22Z</time>
      </trkpt>
      <trkpt lat="42.9005710" lon="-2.5428900">
        <ele>546.2</ele>
        <time>2020-09-13T17:07:26Z</time>
      </trkpt>
      <trkpt lat="42.9005710" lon="-2.5428900">
        <ele>546.2</ele>
        <time>2020-09-13T17:07:30Z</time>
      </trkpt>
      <trkpt lat="42.9005710" lon="-2.5428900">
        <ele>546.0</ele>
        <time>2020-09-13T17:07:34Z</time>
      </trkpt>
      <trkpt lat="42.9005710" lon="-2.5428900">
        <ele>546.2</ele>
        <time>2020-09-13T17:07:38Z</time>
      </trkpt>
      <trkpt lat="42.9005710" lon="-2.5428900">
        <ele>546.0</ele>
        <time>2020-09-13T17:07:42Z</time>
      </trkpt>
      <trkpt lat="42.9005710" lon="-2.5428900">
        <ele>546.2</ele>
        <time>2020-09-13T17:07:46Z</time>
      </trkpt>
      <trkpt lat="42.9005710" lon="-2.5428900">
        <ele>546.2</ele>
        <time>2020-09-13T17:07:50Z</time>
      </trkpt>
      <trkpt lat="42.9005710" lon="-2.5428900">
        <ele>546.2</ele>
        <time>2020-09-13T17:07:54Z</time>
      </trkpt>
      <trkpt lat="42.9005710" lon="-2.5428900">
        <ele>546.0</ele>
        <time>2020-09-13T17:07:58Z</time>
      </trkpt>
      <trkpt lat="42.9005710" lon="-2.5428900">
        <ele>546.0</ele>
        <time>2020-09-13T17:08:02Z</time>
      </trkpt>
      <trkpt lat="42.9005710" lon="-2.5428900">
        <ele>546.2</ele>
        <time>2020-09-13T17:08:06Z</time>
      </trkpt>
      <trkpt lat="42.9005710" lon="-2.5428900">
        <ele>546.2</ele>
        <time>2020-09-13T17:08:10Z</time>
      </trkpt>
      <trkpt lat="42.9005710" lon="-2.5428900">
        <ele>546.0</ele>
        <time>2020-09-13T17:08:14Z</time>
      </trkpt>
      <trkpt lat="42.9005710" lon="-2.5428900">
        <ele>546.2</ele>
        <time>2020-09-13T17:08:18Z</time>
      </trkpt>
      <trkpt lat="42.9005710" lon="-2.5428900">
        <ele>546.0</ele>
        <time>2020-09-13T17:08:22Z</time>
      </trkpt>
      <trkpt lat="42.9005710" lon="-2.5428900">
        <ele>546.0</ele>
        <time>2020-09-13T17:08:26Z</time>
      </trkpt>
      <trkpt lat="42.9005710" lon="-2.5428900">
        <ele>546.2</ele>
        <time>2020-09-13T17:08:30Z</time>
      </trkpt>
      <trkpt lat="42.9005710" lon="-2.5428900">
        <ele>545.8</ele>
        <time>2020-09-13T17:08:34Z</time>
      </trkpt>
      <trkpt lat="42.9005710" lon="-2.5428900">
        <ele>546.0</ele>
        <time>2020-09-13T17:08:38Z</time>
      </trkpt>
      <trkpt lat="42.9005710" lon="-2.5428900">
        <ele>546.0</ele>
        <time>2020-09-13T17:08:42Z</time>
      </trkpt>
      <trkpt lat="42.9005710" lon="-2.5428900">
        <ele>546.0</ele>
        <time>2020-09-13T17:08:46Z</time>
      </trkpt>
      <trkpt lat="42.9005710" lon="-2.5428900">
        <ele>546.0</ele>
        <time>2020-09-13T17:08:50Z</time>
      </trkpt>
      <trkpt lat="42.9005710" lon="-2.5428900">
        <ele>546.0</ele>
        <time>2020-09-13T17:08:54Z</time>
      </trkpt>
      <trkpt lat="42.9005710" lon="-2.5428900">
        <ele>545.8</ele>
        <time>2020-09-13T17:08:58Z</time>
      </trkpt>
      <trkpt lat="42.9005710" lon="-2.5428900">
        <ele>545.8</ele>
        <time>2020-09-13T17:09:02Z</time>
      </trkpt>
      <trkpt lat="42.9005710" lon="-2.5428900">
        <ele>546.0</ele>
        <time>2020-09-13T17:09:06Z</time>
      </trkpt>
      <trkpt lat="42.9005710" lon="-2.5428900">
        <ele>546.0</ele>
        <time>2020-09-13T17:09:10Z</time>
      </trkpt>
      <trkpt lat="42.9005710" lon="-2.5428900">
        <ele>546.2</ele>
        <time>2020-09-13T17:09:14Z</time>
      </trkpt>
      <trkpt lat="42.9005710" lon="-2.5428900">
        <ele>546.2</ele>
        <time>2020-09-13T17:09:18Z</time>
      </trkpt>
      <trkpt lat="42.9005710" lon="-2.5428900">
        <ele>546.0</ele>
        <time>2020-09-13T17:09:22Z</time>
      </trkpt>
      <trkpt lat="42.9005710" lon="-2.5428900">
        <ele>545.8</ele>
        <time>2020-09-13T17:09:26Z</time>
      </trkpt>
      <trkpt lat="42.9005710" lon="-2.5428900">
        <ele>545.6</ele>
        <time>2020-09-13T17:09:30Z</time>
      </trkpt>
      <trkpt lat="42.9005710" lon="-2.5428900">
        <ele>545.6</ele>
        <time>2020-09-13T17:09:34Z</time>
      </trkpt>
      <trkpt lat="42.9005710" lon="-2.5428900">
        <ele>545.6</ele>
        <time>2020-09-13T17:09:38Z</time>
      </trkpt>
      <trkpt lat="42.9005710" lon="-2.5428900">
        <ele>545.8</ele>
        <time>2020-09-13T17:09:42Z</time>
      </trkpt>
      <trkpt lat="42.9005710" lon="-2.5428900">
        <ele>545.8</ele>
        <time>2020-09-13T17:09:46Z</time>
      </trkpt>
      <trkpt lat="42.9005710" lon="-2.5428900">
        <ele>545.6</ele>
        <time>2020-09-13T17:09:50Z</time>
      </trkpt>
      <trkpt lat="42.9005710" lon="-2.5428900">
        <ele>545.6</ele>
        <time>2020-09-13T17:09:54Z</time>
      </trkpt>
      <trkpt lat="42.9005710" lon="-2.5428900">
        <ele>545.6</ele>
        <time>2020-09-13T17:09:58Z</time>
      </trkpt>
      <trkpt lat="42.9005710" lon="-2.5428900">
        <ele>546.0</ele>
        <time>2020-09-13T17:10:02Z</time>
      </trkpt>
      <trkpt lat="42.9005710" lon="-2.5428900">
        <ele>546.0</ele>
        <time>2020-09-13T17:10:06Z</time>
      </trkpt>
      <trkpt lat="42.9005710" lon="-2.5428900">
        <ele>546.0</ele>
        <time>2020-09-13T17:10:10Z</time>
      </trkpt>
      <trkpt lat="42.9005710" lon="-2.5428900">
        <ele>546.0</ele>
        <time>2020-09-13T17:10:14Z</time>
      </trkpt>
      <trkpt lat="42.9005710" lon="-2.5428900">
        <ele>546.0</ele>
        <time>2020-09-13T17:10:18Z</time>
      </trkpt>
      <trkpt lat="42.9005710" lon="-2.5428900">
        <ele>546.2</ele>
        <time>2020-09-13T17:10:22Z</time>
      </trkpt>
      <trkpt lat="42.9005710" lon="-2.5428900">
        <ele>546.0</ele>
        <time>2020-09-13T17:10:26Z</time>
      </trkpt>
      <trkpt lat="42.9005710" lon="-2.5428900">
        <ele>546.0</ele>
        <time>2020-09-13T17:10:30Z</time>
      </trkpt>
      <trkpt lat="42.9005710" lon="-2.5428900">
        <ele>545.8</ele>
        <time>2020-09-13T17:10:34Z</time>
      </trkpt>
      <trkpt lat="42.9005710" lon="-2.5428900">
        <ele>546.2</ele>
        <time>2020-09-13T17:10:38Z</time>
      </trkpt>
      <trkpt lat="42.9005710" lon="-2.5428900">
        <ele>546.0</ele>
        <time>2020-09-13T17:10:42Z</time>
      </trkpt>
      <trkpt lat="42.9005710" lon="-2.5428900">
        <ele>546.0</ele>
        <time>2020-09-13T17:10:46Z</time>
      </trkpt>
      <trkpt lat="42.9005710" lon="-2.5428900">
        <ele>545.8</ele>
        <time>2020-09-13T17:10:50Z</time>
      </trkpt>
      <trkpt lat="42.9005710" lon="-2.5428900">
        <ele>546.0</ele>
        <time>2020-09-13T17:10:54Z</time>
      </trkpt>
      <trkpt lat="42.9006000" lon="-2.5428930">
        <ele>546.0</ele>
        <time>2020-09-13T17:10:58Z</time>
      </trkpt>
      <trkpt lat="42.9006210" lon="-2.5429130">
        <ele>546.0</ele>
        <time>2020-09-13T17:11:02Z</time>
      </trkpt>
      <trkpt lat="42.9006210" lon="-2.5429130">
        <ele>545.8</ele>
        <time>2020-09-13T17:11:06Z</time>
      </trkpt>
      <trkpt lat="42.9006210" lon="-2.5429130">
        <ele>545.8</ele>
        <time>2020-09-13T17:11:10Z</time>
      </trkpt>
      <trkpt lat="42.9006210" lon="-2.5429130">
        <ele>545.8</ele>
        <time>2020-09-13T17:11:14Z</time>
      </trkpt>
      <trkpt lat="42.9006210" lon="-2.5429130">
        <ele>546.0</ele>
        <time>2020-09-13T17:11:18Z</time>
      </trkpt>
      <trkpt lat="42.9006210" lon="-2.5429130">
        <ele>546.0</ele>
        <time>2020-09-13T17:11:22Z</time>
      </trkpt>
      <trkpt lat="42.9006210" lon="-2.5429130">
        <ele>545.8</ele>
        <time>2020-09-13T17:11:26Z</time>
      </trkpt>
      <trkpt lat="42.9006210" lon="-2.5429130">
        <ele>546.0</ele>
        <time>2020-09-13T17:11:30Z</time>
      </trkpt>
      <trkpt lat="42.9006210" lon="-2.5429130">
        <ele>546.0</ele>
        <time>2020-09-13T17:11:34Z</time>
      </trkpt>
      <trkpt lat="42.9006260" lon="-2.5428950">
        <ele>545.8</ele>
        <time>2020-09-13T17:11:38Z</time>
      </trkpt>
      <trkpt lat="42.9006480" lon="-2.5429080">
        <ele>546.0</ele>
        <time>2020-09-13T17:11:42Z</time>
      </trkpt>
      <trkpt lat="42.9006750" lon="-2.5429300">
        <ele>545.8</ele>
        <time>2020-09-13T17:11:46Z</time>
      </trkpt>
      <trkpt lat="42.9007060" lon="-2.5429550">
        <ele>546.0</ele>
        <time>2020-09-13T17:11:50Z</time>
      </trkpt>
      <trkpt lat="42.9007180" lon="-2.5429960">
        <ele>545.6</ele>
        <time>2020-09-13T17:11:54Z</time>
      </trkpt>
      <trkpt lat="42.9007280" lon="-2.5430330">
        <ele>545.4</ele>
        <time>2020-09-13T17:11:58Z</time>
      </trkpt>
      <trkpt lat="42.9007480" lon="-2.5430650">
        <ele>545.2</ele>
        <time>2020-09-13T17:12:02Z</time>
      </trkpt>
      <trkpt lat="42.9007660" lon="-2.5431010">
        <ele>545.0</ele>
        <time>2020-09-13T17:12:06Z</time>
      </trkpt>
      <trkpt lat="42.9007900" lon="-2.5431380">
        <ele>545.4</ele>
        <time>2020-09-13T17:12:10Z</time>
      </trkpt>
      <trkpt lat="42.9008200" lon="-2.5431760">
        <ele>545.4</ele>
        <time>2020-09-13T17:12:14Z</time>
      </trkpt>
      <trkpt lat="42.9008480" lon="-2.5432150">
        <ele>544.6</ele>
        <time>2020-09-13T17:12:18Z</time>
      </trkpt>
      <trkpt lat="42.9008750" lon="-2.5432580">
        <ele>544.6</ele>
        <time>2020-09-13T17:12:22Z</time>
      </trkpt>
      <trkpt lat="42.9009050" lon="-2.5432980">
        <ele>544.8</ele>
        <time>2020-09-13T17:12:26Z</time>
      </trkpt>
      <trkpt lat="42.9009350" lon="-2.5433350">
        <ele>545.0</ele>
        <time>2020-09-13T17:12:30Z</time>
      </trkpt>
      <trkpt lat="42.9009680" lon="-2.5433750">
        <ele>544.0</ele>
        <time>2020-09-13T17:12:34Z</time>
      </trkpt>
      <trkpt lat="42.9010060" lon="-2.5434130">
        <ele>544.8</ele>
        <time>2020-09-13T17:12:38Z</time>
      </trkpt>
      <trkpt lat="42.9010410" lon="-2.5434560">
        <ele>544.4</ele>
        <time>2020-09-13T17:12:42Z</time>
      </trkpt>
      <trkpt lat="42.9010760" lon="-2.5435060">
        <ele>544.6</ele>
        <time>2020-09-13T17:12:46Z</time>
      </trkpt>
      <trkpt lat="42.9011110" lon="-2.5435580">
        <ele>544.6</ele>
        <time>2020-09-13T17:12:50Z</time>
      </trkpt>
      <trkpt lat="42.9011350" lon="-2.5436110">
        <ele>544.6</ele>
        <time>2020-09-13T17:12:54Z</time>
      </trkpt>
      <trkpt lat="42.9011600" lon="-2.5436650">
        <ele>544.6</ele>
        <time>2020-09-13T17:12:58Z</time>
      </trkpt>
      <trkpt lat="42.9011830" lon="-2.5437200">
        <ele>545.0</ele>
        <time>2020-09-13T17:13:02Z</time>
      </trkpt>
      <trkpt lat="42.9012130" lon="-2.5437610">
        <ele>545.6</ele>
        <time>2020-09-13T17:13:06Z</time>
      </trkpt>
      <trkpt lat="42.9012450" lon="-2.5437960">
        <ele>546.0</ele>
        <time>2020-09-13T17:13:10Z</time>
      </trkpt>
      <trkpt lat="42.9012660" lon="-2.5438230">
        <ele>546.2</ele>
        <time>2020-09-13T17:13:14Z</time>
      </trkpt>
      <trkpt lat="42.9012900" lon="-2.5438610">
        <ele>545.8</ele>
        <time>2020-09-13T17:13:18Z</time>
      </trkpt>
      <trkpt lat="42.9013250" lon="-2.5438900">
        <ele>546.2</ele>
        <time>2020-09-13T17:13:22Z</time>
      </trkpt>
      <trkpt lat="42.9013600" lon="-2.5439250">
        <ele>546.8</ele>
        <time>2020-09-13T17:13:26Z</time>
      </trkpt>
      <trkpt lat="42.9013910" lon="-2.5439700">
        <ele>546.6</ele>
        <time>2020-09-13T17:13:30Z</time>
      </trkpt>
      <trkpt lat="42.9014160" lon="-2.5440200">
        <ele>546.2</ele>
        <time>2020-09-13T17:13:34Z</time>
      </trkpt>
      <trkpt lat="42.9014400" lon="-2.5440660">
        <ele>546.2</ele>
        <time>2020-09-13T17:13:38Z</time>
      </trkpt>
      <trkpt lat="42.9014600" lon="-2.5441200">
        <ele>546.2</ele>
        <time>2020-09-13T17:13:42Z</time>
      </trkpt>
      <trkpt lat="42.9014710" lon="-2.5441600">
        <ele>546.8</ele>
        <time>2020-09-13T17:13:46Z</time>
      </trkpt>
      <trkpt lat="42.9015050" lon="-2.5442100">
        <ele>546.2</ele>
        <time>2020-09-13T17:13:50Z</time>
      </trkpt>
      <trkpt lat="42.9015360" lon="-2.5442580">
        <ele>546.6</ele>
        <time>2020-09-13T17:13:54Z</time>
      </trkpt>
      <trkpt lat="42.9015700" lon="-2.5443010">
        <ele>546.6</ele>
        <time>2020-09-13T17:13:58Z</time>
      </trkpt>
      <trkpt lat="42.9016050" lon="-2.5443500">
        <ele>545.8</ele>
        <time>2020-09-13T17:14:02Z</time>
      </trkpt>
      <trkpt lat="42.9016450" lon="-2.5443930">
        <ele>546.4</ele>
        <time>2020-09-13T17:14:06Z</time>
      </trkpt>
      <trkpt lat="42.9016810" lon="-2.5444360">
        <ele>545.8</ele>
        <time>2020-09-13T17:14:10Z</time>
      </trkpt>
      <trkpt lat="42.9017230" lon="-2.5444760">
        <ele>546.2</ele>
        <time>2020-09-13T17:14:14Z</time>
      </trkpt>
      <trkpt lat="42.9017580" lon="-2.5445230">
        <ele>546.0</ele>
        <time>2020-09-13T17:14:18Z</time>
      </trkpt>
      <trkpt lat="42.9017980" lon="-2.5445680">
        <ele>545.0</ele>
        <time>2020-09-13T17:14:22Z</time>
      </trkpt>
      <trkpt lat="42.9018330" lon="-2.5446150">
        <ele>546.6</ele>
        <time>2020-09-13T17:14:26Z</time>
      </trkpt>
      <trkpt lat="42.9018650" lon="-2.5446580">
        <ele>546.2</ele>
        <time>2020-09-13T17:14:30Z</time>
      </trkpt>
      <trkpt lat="42.9018960" lon="-2.5447030">
        <ele>546.8</ele>
        <time>2020-09-13T17:14:34Z</time>
      </trkpt>
      <trkpt lat="42.9019160" lon="-2.5447580">
        <ele>546.6</ele>
        <time>2020-09-13T17:14:38Z</time>
      </trkpt>
      <trkpt lat="42.9019410" lon="-2.5448150">
        <ele>546.6</ele>
        <time>2020-09-13T17:14:42Z</time>
      </trkpt>
      <trkpt lat="42.9019700" lon="-2.5448660">
        <ele>546.0</ele>
        <time>2020-09-13T17:14:46Z</time>
      </trkpt>
      <trkpt lat="42.9019930" lon="-2.5449130">
        <ele>546.6</ele>
        <time>2020-09-13T17:14:50Z</time>
      </trkpt>
      <trkpt lat="42.9020210" lon="-2.5449580">
        <ele>546.8</ele>
        <time>2020-09-13T17:14:54Z</time>
      </trkpt>
      <trkpt lat="42.9020460" lon="-2.5450060">
        <ele>546.0</ele>
        <time>2020-09-13T17:14:58Z</time>
      </trkpt>
      <trkpt lat="42.9020600" lon="-2.5450650">
        <ele>546.2</ele>
        <time>2020-09-13T17:15:02Z</time>
      </trkpt>
      <trkpt lat="42.9020800" lon="-2.5451200">
        <ele>546.0</ele>
        <time>2020-09-13T17:15:06Z</time>
      </trkpt>
      <trkpt lat="42.9020800" lon="-2.5451200">
        <ele>546.2</ele>
        <time>2020-09-13T17:15:10Z</time>
      </trkpt>
      <trkpt lat="42.9020960" lon="-2.5451500">
        <ele>546.2</ele>
        <time>2020-09-13T17:15:14Z</time>
      </trkpt>
      <trkpt lat="42.9021110" lon="-2.5451850">
        <ele>546.6</ele>
        <time>2020-09-13T17:15:18Z</time>
      </trkpt>
      <trkpt lat="42.9021300" lon="-2.5452310">
        <ele>546.4</ele>
        <time>2020-09-13T17:15:22Z</time>
      </trkpt>
      <trkpt lat="42.9021530" lon="-2.5452880">
        <ele>546.8</ele>
        <time>2020-09-13T17:15:26Z</time>
      </trkpt>
      <trkpt lat="42.9021610" lon="-2.5453610">
        <ele>547.0</ele>
        <time>2020-09-13T17:15:30Z</time>
      </trkpt>
      <trkpt lat="42.9021610" lon="-2.5453610">
        <ele>546.8</ele>
        <time>2020-09-13T17:15:34Z</time>
      </trkpt>
      <trkpt lat="42.9021610" lon="-2.5453610">
        <ele>546.6</ele>
        <time>2020-09-13T17:15:38Z</time>
      </trkpt>
      <trkpt lat="42.9021700" lon="-2.5454050">
        <ele>547.2</ele>
        <time>2020-09-13T17:15:42Z</time>
      </trkpt>
      <trkpt lat="42.9021700" lon="-2.5454050">
        <ele>547.0</ele>
        <time>2020-09-13T17:15:46Z</time>
      </trkpt>
      <trkpt lat="42.9021700" lon="-2.5454050">
        <ele>547.4</ele>
        <time>2020-09-13T17:15:50Z</time>
      </trkpt>
      <trkpt lat="42.9021700" lon="-2.5454050">
        <ele>546.8</ele>
        <time>2020-09-13T17:15:54Z</time>
      </trkpt>
      <trkpt lat="42.9021700" lon="-2.5454050">
        <ele>546.8</ele>
        <time>2020-09-13T17:15:58Z</time>
      </trkpt>
      <trkpt lat="42.9021700" lon="-2.5454050">
        <ele>547.0</ele>
        <time>2020-09-13T17:16:02Z</time>
      </trkpt>
      <trkpt lat="42.9021700" lon="-2.5454050">
        <ele>546.2</ele>
        <time>2020-09-13T17:16:06Z</time>
      </trkpt>
      <trkpt lat="42.9021700" lon="-2.5454050">
        <ele>546.4</ele>
        <time>2020-09-13T17:16:10Z</time>
      </trkpt>
      <trkpt lat="42.9021700" lon="-2.5454050">
        <ele>546.6</ele>
        <time>2020-09-13T17:16:14Z</time>
      </trkpt>
      <trkpt lat="42.9021700" lon="-2.5454050">
        <ele>546.6</ele>
        <time>2020-09-13T17:16:18Z</time>
      </trkpt>
      <trkpt lat="42.9021700" lon="-2.5454050">
        <ele>546.6</ele>
        <time>2020-09-13T17:16:22Z</time>
      </trkpt>
      <trkpt lat="42.9021700" lon="-2.5454050">
        <ele>546.6</ele>
        <time>2020-09-13T17:16:26Z</time>
      </trkpt>
      <trkpt lat="42.9021700" lon="-2.5454050">
        <ele>546.2</ele>
        <time>2020-09-13T17:16:30Z</time>
      </trkpt>
      <trkpt lat="42.9021700" lon="-2.5454050">
        <ele>546.8</ele>
        <time>2020-09-13T17:16:34Z</time>
      </trkpt>
      <trkpt lat="42.9021700" lon="-2.5454050">
        <ele>546.8</ele>
        <time>2020-09-13T17:16:38Z</time>
      </trkpt>
      <trkpt lat="42.9021700" lon="-2.5454050">
        <ele>547.2</ele>
        <time>2020-09-13T17:16:42Z</time>
      </trkpt>
      <trkpt lat="42.9021700" lon="-2.5454050">
        <ele>547.2</ele>
        <time>2020-09-13T17:16:46Z</time>
      </trkpt>
      <trkpt lat="42.9021700" lon="-2.5454050">
        <ele>546.8</ele>
        <time>2020-09-13T17:16:50Z</time>
      </trkpt>
      <trkpt lat="42.9021700" lon="-2.5454050">
        <ele>547.2</ele>
        <time>2020-09-13T17:16:54Z</time>
      </trkpt>
      <trkpt lat="42.9021700" lon="-2.5454050">
        <ele>547.0</ele>
        <time>2020-09-13T17:16:58Z</time>
      </trkpt>
      <trkpt lat="42.9021700" lon="-2.5454050">
        <ele>547.4</ele>
        <time>2020-09-13T17:17:02Z</time>
      </trkpt>
      <trkpt lat="42.9021700" lon="-2.5454050">
        <ele>547.0</ele>
        <time>2020-09-13T17:17:06Z</time>
      </trkpt>
      <trkpt lat="42.9021700" lon="-2.5454050">
        <ele>546.8</ele>
        <time>2020-09-13T17:17:10Z</time>
      </trkpt>
      <trkpt lat="42.9021700" lon="-2.5454050">
        <ele>547.2</ele>
        <time>2020-09-13T17:17:14Z</time>
      </trkpt>
      <trkpt lat="42.9021700" lon="-2.5454050">
        <ele>547.0</ele>
        <time>2020-09-13T17:17:18Z</time>
      </trkpt>
      <trkpt lat="42.9021700" lon="-2.5454050">
        <ele>546.4</ele>
        <time>2020-09-13T17:17:22Z</time>
      </trkpt>
      <trkpt lat="42.9021700" lon="-2.5454050">
        <ele>546.6</ele>
        <time>2020-09-13T17:17:26Z</time>
      </trkpt>
      <trkpt lat="42.9021700" lon="-2.5454050">
        <ele>546.6</ele>
        <time>2020-09-13T17:17:30Z</time>
      </trkpt>
      <trkpt lat="42.9021700" lon="-2.5454050">
        <ele>547.4</ele>
        <time>2020-09-13T17:17:34Z</time>
      </trkpt>
      <trkpt lat="42.9021700" lon="-2.5454050">
        <ele>546.8</ele>
        <time>2020-09-13T17:17:38Z</time>
      </trkpt>
      <trkpt lat="42.9021700" lon="-2.5454050">
        <ele>546.8</ele>
        <time>2020-09-13T17:17:42Z</time>
      </trkpt>
      <trkpt lat="42.9021700" lon="-2.5454050">
        <ele>546.8</ele>
        <time>2020-09-13T17:17:46Z</time>
      </trkpt>
      <trkpt lat="42.9021700" lon="-2.5454050">
        <ele>546.6</ele>
        <time>2020-09-13T17:17:50Z</time>
      </trkpt>
      <trkpt lat="42.9021700" lon="-2.5454050">
        <ele>546.6</ele>
        <time>2020-09-13T17:17:54Z</time>
      </trkpt>
      <trkpt lat="42.9021700" lon="-2.5454050">
        <ele>547.2</ele>
        <time>2020-09-13T17:17:58Z</time>
      </trkpt>
      <trkpt lat="42.9021700" lon="-2.5454050">
        <ele>547.2</ele>
        <time>2020-09-13T17:18:02Z</time>
      </trkpt>
      <trkpt lat="42.9021700" lon="-2.5454050">
        <ele>546.6</ele>
        <time>2020-09-13T17:18:06Z</time>
      </trkpt>
      <trkpt lat="42.9021700" lon="-2.5454050">
        <ele>546.6</ele>
        <time>2020-09-13T17:18:10Z</time>
      </trkpt>
      <trkpt lat="42.9021700" lon="-2.5454050">
        <ele>546.6</ele>
        <time>2020-09-13T17:18:14Z</time>
      </trkpt>
      <trkpt lat="42.9021700" lon="-2.5454050">
        <ele>546.8</ele>
        <time>2020-09-13T17:18:18Z</time>
      </trkpt>
      <trkpt lat="42.9021700" lon="-2.5454050">
        <ele>546.6</ele>
        <time>2020-09-13T17:18:22Z</time>
      </trkpt>
      <trkpt lat="42.9021700" lon="-2.5454050">
        <ele>546.8</ele>
        <time>2020-09-13T17:18:26Z</time>
      </trkpt>
      <trkpt lat="42.9021700" lon="-2.5454050">
        <ele>546.6</ele>
        <time>2020-09-13T17:18:30Z</time>
      </trkpt>
      <trkpt lat="42.9021700" lon="-2.5454050">
        <ele>546.8</ele>
        <time>2020-09-13T17:18:34Z</time>
      </trkpt>
      <trkpt lat="42.9021560" lon="-2.5454050">
        <ele>546.6</ele>
        <time>2020-09-13T17:18:38Z</time>
      </trkpt>
      <trkpt lat="42.9021660" lon="-2.5453780">
        <ele>546.6</ele>
        <time>2020-09-13T17:18:42Z</time>
      </trkpt>
      <trkpt lat="42.9021980" lon="-2.5453100">
        <ele>546.6</ele>
        <time>2020-09-13T17:18:46Z</time>
      </trkpt>
      <trkpt lat="42.9022700" lon="-2.5453260">
        <ele>546.0</ele>
        <time>2020-09-13T17:18:50Z</time>
      </trkpt>
      <trkpt lat="42.9022930" lon="-2.5453480">
        <ele>546.0</ele>
        <time>2020-09-13T17:18:54Z</time>
      </trkpt>
      <trkpt lat="42.9022930" lon="-2.5453480">
        <ele>546.2</ele>
        <time>2020-09-13T17:18:58Z</time>
      </trkpt>
      <trkpt lat="42.9022960" lon="-2.5453560">
        <ele>545.6</ele>
        <time>2020-09-13T17:19:02Z</time>
      </trkpt>
      <trkpt lat="42.9023450" lon="-2.5453710">
        <ele>546.2</ele>
        <time>2020-09-13T17:19:06Z</time>
      </trkpt>
      <trkpt lat="42.9024200" lon="-2.5453950">
        <ele>545.8</ele>
        <time>2020-09-13T17:19:10Z</time>
      </trkpt>
      <trkpt lat="42.9025200" lon="-2.5454460">
        <ele>546.0</ele>
        <time>2020-09-13T17:19:14Z</time>
      </trkpt>
      <trkpt lat="42.9025860" lon="-2.5454850">
        <ele>546.0</ele>
        <time>2020-09-13T17:19:18Z</time>
      </trkpt>
      <trkpt lat="42.9026750" lon="-2.5455250">
        <ele>544.8</ele>
        <time>2020-09-13T17:19:22Z</time>
      </trkpt>
      <trkpt lat="42.9028010" lon="-2.5455780">
        <ele>543.8</ele>
        <time>2020-09-13T17:19:26Z</time>
      </trkpt>
      <trkpt lat="42.9029380" lon="-2.5456360">
        <ele>545.0</ele>
        <time>2020-09-13T17:19:30Z</time>
      </trkpt>
      <trkpt lat="42.9030530" lon="-2.5456660">
        <ele>545.2</ele>
        <time>2020-09-13T17:19:34Z</time>
      </trkpt>
      <trkpt lat="42.9031550" lon="-2.5456910">
        <ele>546.0</ele>
        <time>2020-09-13T17:19:38Z</time>
      </trkpt>
      <trkpt lat="42.9032680" lon="-2.5457310">
        <ele>545.4</ele>
        <time>2020-09-13T17:19:42Z</time>
      </trkpt>
      <trkpt lat="42.9033830" lon="-2.5457630">
        <ele>545.4</ele>
        <time>2020-09-13T17:19:46Z</time>
      </trkpt>
      <trkpt lat="42.9034980" lon="-2.5457750">
        <ele>545.2</ele>
        <time>2020-09-13T17:19:50Z</time>
      </trkpt>
      <trkpt lat="42.9036180" lon="-2.5457630">
        <ele>546.2</ele>
        <time>2020-09-13T17:19:54Z</time>
      </trkpt>
      <trkpt lat="42.9037230" lon="-2.5457310">
        <ele>545.0</ele>
        <time>2020-09-13T17:19:58Z</time>
      </trkpt>
      <trkpt lat="42.9038300" lon="-2.5457010">
        <ele>546.6</ele>
        <time>2020-09-13T17:20:02Z</time>
      </trkpt>
      <trkpt lat="42.9039210" lon="-2.5456610">
        <ele>546.8</ele>
        <time>2020-09-13T17:20:06Z</time>
      </trkpt>
      <trkpt lat="42.9040010" lon="-2.5456150">
        <ele>547.6</ele>
        <time>2020-09-13T17:20:10Z</time>
      </trkpt>
      <trkpt lat="42.9040780" lon="-2.5455880">
        <ele>548.6</ele>
        <time>2020-09-13T17:20:14Z</time>
      </trkpt>
      <trkpt lat="42.9041450" lon="-2.5455610">
        <ele>549.2</ele>
        <time>2020-09-13T17:20:18Z</time>
      </trkpt>
      <trkpt lat="42.9041930" lon="-2.5455750">
        <ele>549.2</ele>
        <time>2020-09-13T17:20:22Z</time>
      </trkpt>
      <trkpt lat="42.9042500" lon="-2.5456230">
        <ele>549.0</ele>
        <time>2020-09-13T17:20:26Z</time>
      </trkpt>
      <trkpt lat="42.9042950" lon="-2.5456110">
        <ele>549.8</ele>
        <time>2020-09-13T17:20:30Z</time>
      </trkpt>
      <trkpt lat="42.9042980" lon="-2.5455730">
        <ele>550.2</ele>
        <time>2020-09-13T17:20:34Z</time>
      </trkpt>
      <trkpt lat="42.9042980" lon="-2.5455730">
        <ele>549.8</ele>
        <time>2020-09-13T17:20:38Z</time>
      </trkpt>
      <trkpt lat="42.9042860" lon="-2.5455560">
        <ele>549.6</ele>
        <time>2020-09-13T17:20:42Z</time>
      </trkpt>
      <trkpt lat="42.9042860" lon="-2.5455560">
        <ele>549.8</ele>
        <time>2020-09-13T17:20:46Z</time>
      </trkpt>
      <trkpt lat="42.9042860" lon="-2.5455560">
        <ele>549.8</ele>
        <time>2020-09-13T17:20:50Z</time>
      </trkpt>
      <trkpt lat="42.9042860" lon="-2.5455560">
        <ele>550.0</ele>
        <time>2020-09-13T17:20:54Z</time>
      </trkpt>
      <trkpt lat="42.9042960" lon="-2.5455530">
        <ele>549.6</ele>
        <time>2020-09-13T17:20:58Z</time>
      </trkpt>
      <trkpt lat="42.9043000" lon="-2.5456080">
        <ele>549.8</ele>
        <time>2020-09-13T17:21:02Z</time>
      </trkpt>
      <trkpt lat="42.9043210" lon="-2.5456430">
        <ele>549.2</ele>
        <time>2020-09-13T17:21:06Z</time>
      </trkpt>
      <trkpt lat="42.9043210" lon="-2.5456430">
        <ele>549.8</ele>
        <time>2020-09-13T17:21:10Z</time>
      </trkpt>
      <trkpt lat="42.9043210" lon="-2.5456430">
        <ele>550.4</ele>
        <time>2020-09-13T17:21:14Z</time>
      </trkpt>
      <trkpt lat="42.9043210" lon="-2.5456430">
        <ele>550.0</ele>
        <time>2020-09-13T17:21:18Z</time>
      </trkpt>
      <trkpt lat="42.9043210" lon="-2.5456610">
        <ele>549.4</ele>
        <time>2020-09-13T17:21:22Z</time>
      </trkpt>
      <trkpt lat="42.9043630" lon="-2.5457180">
        <ele>549.6</ele>
        <time>2020-09-13T17:21:26Z</time>
      </trkpt>
      <trkpt lat="42.9044430" lon="-2.5458030">
        <ele>549.4</ele>
        <time>2020-09-13T17:21:30Z</time>
      </trkpt>
      <trkpt lat="42.9045630" lon="-2.5458700">
        <ele>548.6</ele>
        <time>2020-09-13T17:21:34Z</time>
      </trkpt>
      <trkpt lat="42.9047110" lon="-2.5459010">
        <ele>548.0</ele>
        <time>2020-09-13T17:21:38Z</time>
      </trkpt>
      <trkpt lat="42.9048300" lon="-2.5458580">
        <ele>547.6</ele>
        <time>2020-09-13T17:21:42Z</time>
      </trkpt>
      <trkpt lat="42.9049400" lon="-2.5458060">
        <ele>546.4</ele>
        <time>2020-09-13T17:21:46Z</time>
      </trkpt>
      <trkpt lat="42.9050530" lon="-2.5457410">
        <ele>546.4</ele>
        <time>2020-09-13T17:21:50Z</time>
      </trkpt>
      <trkpt lat="42.9051930" lon="-2.5457130">
        <ele>546.8</ele>
        <time>2020-09-13T17:21:54Z</time>
      </trkpt>
      <trkpt lat="42.9053360" lon="-2.5456810">
        <ele>546.0</ele>
        <time>2020-09-13T17:21:58Z</time>
      </trkpt>
      <trkpt lat="42.9054260" lon="-2.5456460">
        <ele>546.2</ele>
        <time>2020-09-13T17:22:02Z</time>
      </trkpt>
      <trkpt lat="42.9054950" lon="-2.5456160">
        <ele>545.8</ele>
        <time>2020-09-13T17:22:06Z</time>
      </trkpt>
      <trkpt lat="42.9055830" lon="-2.5455980">
        <ele>546.0</ele>
        <time>2020-09-13T17:22:10Z</time>
      </trkpt>
      <trkpt lat="42.9056480" lon="-2.5455780">
        <ele>546.6</ele>
        <time>2020-09-13T17:22:14Z</time>
      </trkpt>
      <trkpt lat="42.9057010" lon="-2.5455610">
        <ele>547.0</ele>
        <time>2020-09-13T17:22:18Z</time>
      </trkpt>
      <trkpt lat="42.9057400" lon="-2.5455450">
        <ele>546.6</ele>
        <time>2020-09-13T17:22:22Z</time>
      </trkpt>
      <trkpt lat="42.9057400" lon="-2.5455450">
        <ele>546.4</ele>
        <time>2020-09-13T17:22:26Z</time>
      </trkpt>
      <trkpt lat="42.9057650" lon="-2.5455300">
        <ele>546.6</ele>
        <time>2020-09-13T17:22:30Z</time>
      </trkpt>
      <trkpt lat="42.9057930" lon="-2.5455160">
        <ele>546.4</ele>
        <time>2020-09-13T17:22:34Z</time>
      </trkpt>
      <trkpt lat="42.9058510" lon="-2.5454780">
        <ele>546.4</ele>
        <time>2020-09-13T17:22:38Z</time>
      </trkpt>
      <trkpt lat="42.9059430" lon="-2.5454110">
        <ele>545.6</ele>
        <time>2020-09-13T17:22:42Z</time>
      </trkpt>
      <trkpt lat="42.9060330" lon="-2.5453230">
        <ele>545.8</ele>
        <time>2020-09-13T17:22:46Z</time>
      </trkpt>
      <trkpt lat="42.9061130" lon="-2.5452460">
        <ele>546.0</ele>
        <time>2020-09-13T17:22:50Z</time>
      </trkpt>
      <trkpt lat="42.9061610" lon="-2.5452000">
        <ele>546.0</ele>
        <time>2020-09-13T17:22:54Z</time>
      </trkpt>
      <trkpt lat="42.9062400" lon="-2.5451400">
        <ele>546.2</ele>
        <time>2020-09-13T17:22:58Z</time>
      </trkpt>
      <trkpt lat="42.9062860" lon="-2.5450830">
        <ele>547.2</ele>
        <time>2020-09-13T17:23:02Z</time>
      </trkpt>
      <trkpt lat="42.9062530" lon="-2.5449980">
        <ele>548.2</ele>
        <time>2020-09-13T17:23:06Z</time>
      </trkpt>
      <trkpt lat="42.9062230" lon="-2.5449130">
        <ele>548.0</ele>
        <time>2020-09-13T17:23:10Z</time>
      </trkpt>
      <trkpt lat="42.9062230" lon="-2.5449130">
        <ele>548.0</ele>
        <time>2020-09-13T17:23:14Z</time>
      </trkpt>
      <trkpt lat="42.9062230" lon="-2.5449130">
        <ele>547.4</ele>
        <time>2020-09-13T17:23:18Z</time>
      </trkpt>
      <trkpt lat="42.9062230" lon="-2.5449130">
        <ele>547.4</ele>
        <time>2020-09-13T17:23:22Z</time>
      </trkpt>
      <trkpt lat="42.9062500" lon="-2.5448630">
        <ele>547.2</ele>
        <time>2020-09-13T17:23:26Z</time>
      </trkpt>
      <trkpt lat="42.9062580" lon="-2.5448630">
        <ele>547.4</ele>
        <time>2020-09-13T17:23:30Z</time>
      </trkpt>
      <trkpt lat="42.9062580" lon="-2.5448630">
        <ele>547.4</ele>
        <time>2020-09-13T17:23:34Z</time>
      </trkpt>
      <trkpt lat="42.9062580" lon="-2.5448630">
        <ele>547.2</ele>
        <time>2020-09-13T17:23:38Z</time>
      </trkpt>
      <trkpt lat="42.9062580" lon="-2.5448630">
        <ele>547.8</ele>
        <time>2020-09-13T17:23:42Z</time>
      </trkpt>
      <trkpt lat="42.9062580" lon="-2.5448630">
        <ele>547.6</ele>
        <time>2020-09-13T17:23:46Z</time>
      </trkpt>
      <trkpt lat="42.9062580" lon="-2.5448630">
        <ele>547.2</ele>
        <time>2020-09-13T17:23:50Z</time>
      </trkpt>
      <trkpt lat="42.9062580" lon="-2.5448630">
        <ele>547.8</ele>
        <time>2020-09-13T17:23:54Z</time>
      </trkpt>
      <trkpt lat="42.9062580" lon="-2.5448630">
        <ele>547.2</ele>
        <time>2020-09-13T17:23:58Z</time>
      </trkpt>
      <trkpt lat="42.9062580" lon="-2.5448630">
        <ele>547.4</ele>
        <time>2020-09-13T17:24:02Z</time>
      </trkpt>
      <trkpt lat="42.9062730" lon="-2.5448580">
        <ele>548.4</ele>
        <time>2020-09-13T17:24:06Z</time>
      </trkpt>
      <trkpt lat="42.9062910" lon="-2.5448780">
        <ele>547.2</ele>
        <time>2020-09-13T17:24:10Z</time>
      </trkpt>
      <trkpt lat="42.9062910" lon="-2.5448780">
        <ele>546.8</ele>
        <time>2020-09-13T17:24:14Z</time>
      </trkpt>
      <trkpt lat="42.9062960" lon="-2.5448910">
        <ele>546.2</ele>
        <time>2020-09-13T17:24:18Z</time>
      </trkpt>
      <trkpt lat="42.9062960" lon="-2.5448910">
        <ele>546.2</ele>
        <time>2020-09-13T17:24:22Z</time>
      </trkpt>
      <trkpt lat="42.9062960" lon="-2.5448910">
        <ele>546.4</ele>
        <time>2020-09-13T17:24:26Z</time>
      </trkpt>
      <trkpt lat="42.9062960" lon="-2.5448960">
        <ele>547.0</ele>
        <time>2020-09-13T17:24:30Z</time>
      </trkpt>
      <trkpt lat="42.9063330" lon="-2.5448950">
        <ele>546.8</ele>
        <time>2020-09-13T17:24:34Z</time>
      </trkpt>
      <trkpt lat="42.9064100" lon="-2.5448660">
        <ele>547.2</ele>
        <time>2020-09-13T17:24:38Z</time>
      </trkpt>
      <trkpt lat="42.9064980" lon="-2.5448230">
        <ele>547.0</ele>
        <time>2020-09-13T17:24:42Z</time>
      </trkpt>
      <trkpt lat="42.9066050" lon="-2.5448100">
        <ele>546.8</ele>
        <time>2020-09-13T17:24:46Z</time>
      </trkpt>
      <trkpt lat="42.9067010" lon="-2.5448330">
        <ele>545.8</ele>
        <time>2020-09-13T17:24:50Z</time>
      </trkpt>
      <trkpt lat="42.9067810" lon="-2.5448450">
        <ele>545.4</ele>
        <time>2020-09-13T17:24:54Z</time>
      </trkpt>
      <trkpt lat="42.9068660" lon="-2.5448230">
        <ele>545.4</ele>
        <time>2020-09-13T17:24:58Z</time>
      </trkpt>
      <trkpt lat="42.9069430" lon="-2.5448030">
        <ele>545.4</ele>
        <time>2020-09-13T17:25:02Z</time>
      </trkpt>
      <trkpt lat="42.9070250" lon="-2.5447650">
        <ele>545.2</ele>
        <time>2020-09-13T17:25:06Z</time>
      </trkpt>
      <trkpt lat="42.9071180" lon="-2.5447300">
        <ele>545.4</ele>
        <time>2020-09-13T17:25:10Z</time>
      </trkpt>
      <trkpt lat="42.9071960" lon="-2.5446810">
        <ele>545.2</ele>
        <time>2020-09-13T17:25:14Z</time>
      </trkpt>
      <trkpt lat="42.9072500" lon="-2.5446000">
        <ele>545.2</ele>
        <time>2020-09-13T17:25:18Z</time>
      </trkpt>
      <trkpt lat="42.9072810" lon="-2.5445460">
        <ele>544.4</ele>
        <time>2020-09-13T17:25:22Z</time>
      </trkpt>
      <trkpt lat="42.9072810" lon="-2.5445460">
        <ele>545.0</ele>
        <time>2020-09-13T17:25:26Z</time>
      </trkpt>
      <trkpt lat="42.9072810" lon="-2.5445460">
        <ele>545.2</ele>
        <time>2020-09-13T17:25:30Z</time>
      </trkpt>
      <trkpt lat="42.9072950" lon="-2.5445450">
        <ele>545.0</ele>
        <time>2020-09-13T17:25:34Z</time>
      </trkpt>
      <trkpt lat="42.9073030" lon="-2.5444950">
        <ele>544.8</ele>
        <time>2020-09-13T17:25:38Z</time>
      </trkpt>
      <trkpt lat="42.9073230" lon="-2.5444050">
        <ele>544.8</ele>
        <time>2020-09-13T17:25:42Z</time>
      </trkpt>
      <trkpt lat="42.9073300" lon="-2.5442910">
        <ele>544.8</ele>
        <time>2020-09-13T17:25:46Z</time>
      </trkpt>
      <trkpt lat="42.9073450" lon="-2.5442050">
        <ele>545.8</ele>
        <time>2020-09-13T17:25:50Z</time>
      </trkpt>
      <trkpt lat="42.9074060" lon="-2.5440850">
        <ele>545.6</ele>
        <time>2020-09-13T17:25:54Z</time>
      </trkpt>
      <trkpt lat="42.9074780" lon="-2.5439810">
        <ele>545.0</ele>
        <time>2020-09-13T17:25:58Z</time>
      </trkpt>
      <trkpt lat="42.9075660" lon="-2.5438830">
        <ele>546.0</ele>
        <time>2020-09-13T17:26:02Z</time>
      </trkpt>
      <trkpt lat="42.9076550" lon="-2.5437700">
        <ele>545.2</ele>
        <time>2020-09-13T17:26:06Z</time>
      </trkpt>
      <trkpt lat="42.9077350" lon="-2.5436500">
        <ele>545.6</ele>
        <time>2020-09-13T17:26:10Z</time>
      </trkpt>
      <trkpt lat="42.9078060" lon="-2.5435230">
        <ele>545.4</ele>
        <time>2020-09-13T17:26:14Z</time>
      </trkpt>
      <trkpt lat="42.9078800" lon="-2.5433910">
        <ele>546.6</ele>
        <time>2020-09-13T17:26:18Z</time>
      </trkpt>
      <trkpt lat="42.9079510" lon="-2.5432630">
        <ele>546.0</ele>
        <time>2020-09-13T17:26:22Z</time>
      </trkpt>
      <trkpt lat="42.9080230" lon="-2.5431310">
        <ele>545.0</ele>
        <time>2020-09-13T17:26:26Z</time>
      </trkpt>
      <trkpt lat="42.9080910" lon="-2.5429950">
        <ele>546.2</ele>
        <time>2020-09-13T17:26:30Z</time>
      </trkpt>
      <trkpt lat="42.9081580" lon="-2.5428610">
        <ele>546.4</ele>
        <time>2020-09-13T17:26:34Z</time>
      </trkpt>
      <trkpt lat="42.9082150" lon="-2.5427350">
        <ele>546.0</ele>
        <time>2020-09-13T17:26:38Z</time>
      </trkpt>
      <trkpt lat="42.9082750" lon="-2.5426480">
        <ele>547.0</ele>
        <time>2020-09-13T17:26:42Z</time>
      </trkpt>
      <trkpt lat="42.9083710" lon="-2.5425600">
        <ele>545.2</ele>
        <time>2020-09-13T17:26:46Z</time>
      </trkpt>
      <trkpt lat="42.9084910" lon="-2.5424860">
        <ele>545.2</ele>
        <time>2020-09-13T17:26:50Z</time>
      </trkpt>
      <trkpt lat="42.9086360" lon="-2.5424410">
        <ele>544.2</ele>
        <time>2020-09-13T17:26:54Z</time>
      </trkpt>
      <trkpt lat="42.9087750" lon="-2.5424530">
        <ele>544.6</ele>
        <time>2020-09-13T17:26:58Z</time>
      </trkpt>
      <trkpt lat="42.9088900" lon="-2.5425210">
        <ele>545.2</ele>
        <time>2020-09-13T17:27:02Z</time>
      </trkpt>
      <trkpt lat="42.9089760" lon="-2.5426210">
        <ele>544.2</ele>
        <time>2020-09-13T17:27:06Z</time>
      </trkpt>
      <trkpt lat="42.9090580" lon="-2.5427210">
        <ele>545.0</ele>
        <time>2020-09-13T17:27:10Z</time>
      </trkpt>
      <trkpt lat="42.9091480" lon="-2.5428060">
        <ele>545.2</ele>
        <time>2020-09-13T17:27:14Z</time>
      </trkpt>
      <trkpt lat="42.9092480" lon="-2.5428730">
        <ele>545.6</ele>
        <time>2020-09-13T17:27:18Z</time>
      </trkpt>
      <trkpt lat="42.9093550" lon="-2.5429080">
        <ele>546.4</ele>
        <time>2020-09-13T17:27:22Z</time>
      </trkpt>
      <trkpt lat="42.9094410" lon="-2.5429300">
        <ele>546.8</ele>
        <time>2020-09-13T17:27:26Z</time>
      </trkpt>
      <trkpt lat="42.9095650" lon="-2.5429250">
        <ele>545.8</ele>
        <time>2020-09-13T17:27:30Z</time>
      </trkpt>
      <trkpt lat="42.9096680" lon="-2.5429050">
        <ele>546.6</ele>
        <time>2020-09-13T17:27:34Z</time>
      </trkpt>
      <trkpt lat="42.9096680" lon="-2.5429050">
        <ele>545.6</ele>
        <time>2020-09-13T17:27:38Z</time>
      </trkpt>
      <trkpt lat="42.9096680" lon="-2.5429050">
        <ele>545.2</ele>
        <time>2020-09-13T17:27:42Z</time>
      </trkpt>
      <trkpt lat="42.9096680" lon="-2.5429050">
        <ele>546.0</ele>
        <time>2020-09-13T17:27:46Z</time>
      </trkpt>
      <trkpt lat="42.9096680" lon="-2.5429050">
        <ele>545.6</ele>
        <time>2020-09-13T17:27:50Z</time>
      </trkpt>
      <trkpt lat="42.9096680" lon="-2.5429050">
        <ele>545.2</ele>
        <time>2020-09-13T17:27:54Z</time>
      </trkpt>
      <trkpt lat="42.9096680" lon="-2.5429050">
        <ele>545.6</ele>
        <time>2020-09-13T17:27:58Z</time>
      </trkpt>
      <trkpt lat="42.9096680" lon="-2.5429050">
        <ele>545.6</ele>
        <time>2020-09-13T17:28:02Z</time>
      </trkpt>
      <trkpt lat="42.9096930" lon="-2.5428450">
        <ele>545.6</ele>
        <time>2020-09-13T17:28:06Z</time>
      </trkpt>
      <trkpt lat="42.9096960" lon="-2.5428050">
        <ele>545.2</ele>
        <time>2020-09-13T17:28:10Z</time>
      </trkpt>
      <trkpt lat="42.9096910" lon="-2.5426960">
        <ele>546.2</ele>
        <time>2020-09-13T17:28:14Z</time>
      </trkpt>
      <trkpt lat="42.9096830" lon="-2.5425510">
        <ele>547.4</ele>
        <time>2020-09-13T17:28:18Z</time>
      </trkpt>
      <trkpt lat="42.9096800" lon="-2.5424060">
        <ele>548.2</ele>
        <time>2020-09-13T17:28:22Z</time>
      </trkpt>
      <trkpt lat="42.9096780" lon="-2.5422480">
        <ele>548.6</ele>
        <time>2020-09-13T17:28:26Z</time>
      </trkpt>
      <trkpt lat="42.9096850" lon="-2.5420980">
        <ele>549.0</ele>
        <time>2020-09-13T17:28:30Z</time>
      </trkpt>
      <trkpt lat="42.9096830" lon="-2.5419560">
        <ele>550.0</ele>
        <time>2020-09-13T17:28:34Z</time>
      </trkpt>
      <trkpt lat="42.9096780" lon="-2.5418380">
        <ele>550.0</ele>
        <time>2020-09-13T17:28:38Z</time>
      </trkpt>
      <trkpt lat="42.9096800" lon="-2.5417480">
        <ele>550.6</ele>
        <time>2020-09-13T17:28:42Z</time>
      </trkpt>
      <trkpt lat="42.9096810" lon="-2.5416660">
        <ele>549.8</ele>
        <time>2020-09-13T17:28:46Z</time>
      </trkpt>
      <trkpt lat="42.9097700" lon="-2.5415830">
        <ele>550.2</ele>
        <time>2020-09-13T17:28:50Z</time>
      </trkpt>
      <trkpt lat="42.9098330" lon="-2.5414410">
        <ele>550.6</ele>
        <time>2020-09-13T17:28:54Z</time>
      </trkpt>
      <trkpt lat="42.9098510" lon="-2.5413030">
        <ele>550.6</ele>
        <time>2020-09-13T17:28:58Z</time>
      </trkpt>
      <trkpt lat="42.9098610" lon="-2.5411680">
        <ele>551.4</ele>
        <time>2020-09-13T17:29:02Z</time>
      </trkpt>
      <trkpt lat="42.9098700" lon="-2.5410400">
        <ele>551.6</ele>
        <time>2020-09-13T17:29:06Z</time>
      </trkpt>
      <trkpt lat="42.9098760" lon="-2.5409160">
        <ele>552.6</ele>
        <time>2020-09-13T17:29:10Z</time>
      </trkpt>
      <trkpt lat="42.9098800" lon="-2.5408030">
        <ele>553.4</ele>
        <time>2020-09-13T17:29:14Z</time>
      </trkpt>
      <trkpt lat="42.9098810" lon="-2.5407160">
        <ele>553.2</ele>
        <time>2020-09-13T17:29:18Z</time>
      </trkpt>
      <trkpt lat="42.9098880" lon="-2.5406330">
        <ele>554.2</ele>
        <time>2020-09-13T17:29:22Z</time>
      </trkpt>
      <trkpt lat="42.9098860" lon="-2.5405410">
        <ele>554.6</ele>
        <time>2020-09-13T17:29:26Z</time>
      </trkpt>
      <trkpt lat="42.9098880" lon="-2.5404200">
        <ele>554.8</ele>
        <time>2020-09-13T17:29:30Z</time>
      </trkpt>
      <trkpt lat="42.9098750" lon="-2.5402900">
        <ele>555.4</ele>
        <time>2020-09-13T17:29:34Z</time>
      </trkpt>
      <trkpt lat="42.9098700" lon="-2.5401780">
        <ele>555.6</ele>
        <time>2020-09-13T17:29:38Z</time>
      </trkpt>
      <trkpt lat="42.9098710" lon="-2.5400650">
        <ele>555.6</ele>
        <time>2020-09-13T17:29:42Z</time>
      </trkpt>
      <trkpt lat="42.9098780" lon="-2.5399610">
        <ele>556.2</ele>
        <time>2020-09-13T17:29:46Z</time>
      </trkpt>
      <trkpt lat="42.9098850" lon="-2.5398580">
        <ele>556.4</ele>
        <time>2020-09-13T17:29:50Z</time>
      </trkpt>
      <trkpt lat="42.9099060" lon="-2.5397700">
        <ele>557.2</ele>
        <time>2020-09-13T17:29:54Z</time>
      </trkpt>
      <trkpt lat="42.9099560" lon="-2.5396980">
        <ele>556.8</ele>
        <time>2020-09-13T17:29:58Z</time>
      </trkpt>
      <trkpt lat="42.9100480" lon="-2.5396530">
        <ele>556.8</ele>
        <time>2020-09-13T17:30:02Z</time>
      </trkpt>
      <trkpt lat="42.9101600" lon="-2.5396110">
        <ele>556.8</ele>
        <time>2020-09-13T17:30:06Z</time>
      </trkpt>
      <trkpt lat="42.9102660" lon="-2.5395830">
        <ele>557.2</ele>
        <time>2020-09-13T17:30:10Z</time>
      </trkpt>
      <trkpt lat="42.9103710" lon="-2.5395510">
        <ele>557.8</ele>
        <time>2020-09-13T17:30:14Z</time>
      </trkpt>
      <trkpt lat="42.9104650" lon="-2.5395260">
        <ele>558.0</ele>
        <time>2020-09-13T17:30:18Z</time>
      </trkpt>
      <trkpt lat="42.9105350" lon="-2.5395000">
        <ele>558.4</ele>
        <time>2020-09-13T17:30:22Z</time>
      </trkpt>
      <trkpt lat="42.9106030" lon="-2.5394830">
        <ele>559.2</ele>
        <time>2020-09-13T17:30:26Z</time>
      </trkpt>
      <trkpt lat="42.9106850" lon="-2.5394350">
        <ele>559.6</ele>
        <time>2020-09-13T17:30:30Z</time>
      </trkpt>
      <trkpt lat="42.9107680" lon="-2.5394650">
        <ele>560.6</ele>
        <time>2020-09-13T17:30:34Z</time>
      </trkpt>
      <trkpt lat="42.9108030" lon="-2.5395910">
        <ele>560.8</ele>
        <time>2020-09-13T17:30:38Z</time>
      </trkpt>
      <trkpt lat="42.9108210" lon="-2.5397680">
        <ele>560.6</ele>
        <time>2020-09-13T17:30:42Z</time>
      </trkpt>
      <trkpt lat="42.9108300" lon="-2.5399550">
        <ele>561.0</ele>
        <time>2020-09-13T17:30:46Z</time>
      </trkpt>
      <trkpt lat="42.9108460" lon="-2.5401380">
        <ele>560.6</ele>
        <time>2020-09-13T17:30:50Z</time>
      </trkpt>
      <trkpt lat="42.9108510" lon="-2.5403200">
        <ele>560.6</ele>
        <time>2020-09-13T17:30:54Z</time>
      </trkpt>
      <trkpt lat="42.9109030" lon="-2.5404950">
        <ele>560.6</ele>
        <time>2020-09-13T17:30:58Z</time>
      </trkpt>
      <trkpt lat="42.9109730" lon="-2.5406660">
        <ele>559.4</ele>
        <time>2020-09-13T17:31:02Z</time>
      </trkpt>
      <trkpt lat="42.9111050" lon="-2.5408150">
        <ele>559.0</ele>
        <time>2020-09-13T17:31:06Z</time>
      </trkpt>
      <trkpt lat="42.9112530" lon="-2.5408900">
        <ele>558.2</ele>
        <time>2020-09-13T17:31:10Z</time>
      </trkpt>
      <trkpt lat="42.9113360" lon="-2.5408560">
        <ele>559.2</ele>
        <time>2020-09-13T17:31:14Z</time>
      </trkpt>
      <trkpt lat="42.9113930" lon="-2.5408080">
        <ele>559.4</ele>
        <time>2020-09-13T17:31:18Z</time>
      </trkpt>
      <trkpt lat="42.9114660" lon="-2.5407980">
        <ele>559.0</ele>
        <time>2020-09-13T17:31:22Z</time>
      </trkpt>
      <trkpt lat="42.9115610" lon="-2.5408550">
        <ele>559.2</ele>
        <time>2020-09-13T17:31:26Z</time>
      </trkpt>
      <trkpt lat="42.9116360" lon="-2.5409660">
        <ele>558.6</ele>
        <time>2020-09-13T17:31:30Z</time>
      </trkpt>
      <trkpt lat="42.9116360" lon="-2.5409660">
        <ele>558.4</ele>
        <time>2020-09-13T17:31:34Z</time>
      </trkpt>
      <trkpt lat="42.9116360" lon="-2.5409660">
        <ele>558.4</ele>
        <time>2020-09-13T17:31:38Z</time>
      </trkpt>
      <trkpt lat="42.9116360" lon="-2.5409660">
        <ele>557.2</ele>
        <time>2020-09-13T17:31:42Z</time>
      </trkpt>
      <trkpt lat="42.9116230" lon="-2.5415050">
        <ele>528.4</ele>
        <time>2020-09-13T09:12:40Z</time>
      </trkpt>
      <trkpt lat="42.9116230" lon="-2.5415050">
        <ele>528.4</ele>
        <time>2020-09-13T09:12:44Z</time>
      </trkpt>
      <trkpt lat="42.9116230" lon="-2.5415050">
        <ele>529.8</ele>
        <time>2020-09-13T09:12:48Z</time>
      </trkpt>
      <trkpt lat="42.9116610" lon="-2.5416510">
        <ele>530.2</ele>
        <time>2020-09-13T09:12:52Z</time>
      </trkpt>
      <trkpt lat="42.9117010" lon="-2.5418080">
        <ele>530.8</ele>
        <time>2020-09-13T09:12:56Z</time>
      </trkpt>
      <trkpt lat="42.9117300" lon="-2.5419360">
        <ele>531.6</ele>
        <time>2020-09-13T09:13:00Z</time>
      </trkpt>
      <trkpt lat="42.9117650" lon="-2.5420610">
        <ele>532.4</ele>
        <time>2020-09-13T09:13:04Z</time>
      </trkpt>
      <trkpt lat="42.9118060" lon="-2.5421680">
        <ele>532.8</ele>
        <time>2020-09-13T09:13:08Z</time>
      </trkpt>
      <trkpt lat="42.9118450" lon="-2.5422710">
        <ele>532.8</ele>
        <time>2020-09-13T09:13:12Z</time>
      </trkpt>
      <trkpt lat="42.9118810" lon="-2.5423830">
        <ele>532.8</ele>
        <time>2020-09-13T09:13:16Z</time>
      </trkpt>
      <trkpt lat="42.9119150" lon="-2.5425180">
        <ele>532.8</ele>
        <time>2020-09-13T09:13:20Z</time>
      </trkpt>
      <trkpt lat="42.9119460" lon="-2.5427130">
        <ele>532.0</ele>
        <time>2020-09-13T09:13:24Z</time>
      </trkpt>
      <trkpt lat="42.9119800" lon="-2.5429310">
        <ele>532.0</ele>
        <time>2020-09-13T09:13:28Z</time>
      </trkpt>
      <trkpt lat="42.9120330" lon="-2.5431280">
        <ele>529.8</ele>
        <time>2020-09-13T09:13:32Z</time>
      </trkpt>
      <trkpt lat="42.9121110" lon="-2.5432860">
        <ele>528.2</ele>
        <time>2020-09-13T09:13:36Z</time>
      </trkpt>
      <trkpt lat="42.9121500" lon="-2.5434510">
        <ele>527.0</ele>
        <time>2020-09-13T09:13:40Z</time>
      </trkpt>
      <trkpt lat="42.9121360" lon="-2.5435530">
        <ele>525.2</ele>
        <time>2020-09-13T09:13:44Z</time>
      </trkpt>
      <trkpt lat="42.9121460" lon="-2.5436010">
        <ele>525.0</ele>
        <time>2020-09-13T09:13:48Z</time>
      </trkpt>
      <trkpt lat="42.9121560" lon="-2.5436630">
        <ele>524.8</ele>
        <time>2020-09-13T09:13:52Z</time>
      </trkpt>
      <trkpt lat="42.9121160" lon="-2.5437810">
        <ele>523.4</ele>
        <time>2020-09-13T09:13:56Z</time>
      </trkpt>
      <trkpt lat="42.9120560" lon="-2.5437850">
        <ele>522.8</ele>
        <time>2020-09-13T09:14:00Z</time>
      </trkpt>
      <trkpt lat="42.9120910" lon="-2.5437410">
        <ele>523.2</ele>
        <time>2020-09-13T09:14:04Z</time>
      </trkpt>
      <trkpt lat="42.9121530" lon="-2.5437060">
        <ele>523.2</ele>
        <time>2020-09-13T09:14:08Z</time>
      </trkpt>
      <trkpt lat="42.9121530" lon="-2.5437060">
        <ele>523.0</ele>
        <time>2020-09-13T09:14:12Z</time>
      </trkpt>
      <trkpt lat="42.9121530" lon="-2.5437060">
        <ele>523.4</ele>
        <time>2020-09-13T09:14:16Z</time>
      </trkpt>
      <trkpt lat="42.9121530" lon="-2.5437060">
        <ele>523.6</ele>
        <time>2020-09-13T09:14:20Z</time>
      </trkpt>
      <trkpt lat="42.9121550" lon="-2.5436760">
        <ele>523.4</ele>
        <time>2020-09-13T09:14:24Z</time>
      </trkpt>
      <trkpt lat="42.9121550" lon="-2.5436760">
        <ele>523.4</ele>
        <time>2020-09-13T09:14:28Z</time>
      </trkpt>
      <trkpt lat="42.9121510" lon="-2.5437150">
        <ele>523.0</ele>
        <time>2020-09-13T09:14:32Z</time>
      </trkpt>
      <trkpt lat="42.9121510" lon="-2.5437150">
        <ele>523.4</ele>
        <time>2020-09-13T09:14:36Z</time>
      </trkpt>
      <trkpt lat="42.9121510" lon="-2.5437150">
        <ele>523.0</ele>
        <time>2020-09-13T09:14:40Z</time>
      </trkpt>
      <trkpt lat="42.9121510" lon="-2.5437150">
        <ele>522.4</ele>
        <time>2020-09-13T09:14:44Z</time>
      </trkpt>
      <trkpt lat="42.9121510" lon="-2.5437150">
        <ele>522.8</ele>
        <time>2020-09-13T09:14:48Z</time>
      </trkpt>
      <trkpt lat="42.9121510" lon="-2.5437150">
        <ele>522.6</ele>
        <time>2020-09-13T09:14:52Z</time>
      </trkpt>
      <trkpt lat="42.9121510" lon="-2.5437150">
        <ele>522.4</ele>
        <time>2020-09-13T09:14:56Z</time>
      </trkpt>
      <trkpt lat="42.9121550" lon="-2.5437860">
        <ele>522.4</ele>
        <time>2020-09-13T09:15:00Z</time>
      </trkpt>
      <trkpt lat="42.9121550" lon="-2.5437860">
        <ele>522.2</ele>
        <time>2020-09-13T09:15:04Z</time>
      </trkpt>
      <trkpt lat="42.9121310" lon="-2.5438080">
        <ele>522.8</ele>
        <time>2020-09-13T09:15:08Z</time>
      </trkpt>
      <trkpt lat="42.9121360" lon="-2.5438380">
        <ele>522.2</ele>
        <time>2020-09-13T09:15:12Z</time>
      </trkpt>
      <trkpt lat="42.9121760" lon="-2.5439000">
        <ele>521.2</ele>
        <time>2020-09-13T09:15:16Z</time>
      </trkpt>
      <trkpt lat="42.9122000" lon="-2.5440000">
        <ele>519.8</ele>
        <time>2020-09-13T09:15:20Z</time>
      </trkpt>
      <trkpt lat="42.9122410" lon="-2.5440610">
        <ele>519.0</ele>
        <time>2020-09-13T09:15:24Z</time>
      </trkpt>
      <trkpt lat="42.9122110" lon="-2.5440980">
        <ele>519.0</ele>
        <time>2020-09-13T09:15:28Z</time>
      </trkpt>
      <trkpt lat="42.9121880" lon="-2.5440500">
        <ele>519.6</ele>
        <time>2020-09-13T09:15:32Z</time>
      </trkpt>
      <trkpt lat="42.9121730" lon="-2.5439950">
        <ele>520.4</ele>
        <time>2020-09-13T09:15:36Z</time>
      </trkpt>
      <trkpt lat="42.9121510" lon="-2.5439430">
        <ele>521.4</ele>
        <time>2020-09-13T09:15:40Z</time>
      </trkpt>
      <trkpt lat="42.9121750" lon="-2.5439380">
        <ele>521.4</ele>
        <time>2020-09-13T09:15:44Z</time>
      </trkpt>
      <trkpt lat="42.9121930" lon="-2.5439880">
        <ele>521.0</ele>
        <time>2020-09-13T09:15:48Z</time>
      </trkpt>
      <trkpt lat="42.9122050" lon="-2.5440750">
        <ele>519.4</ele>
        <time>2020-09-13T09:15:52Z</time>
      </trkpt>
      <trkpt lat="42.9122350" lon="-2.5441310">
        <ele>519.0</ele>
        <time>2020-09-13T09:15:56Z</time>
      </trkpt>
      <trkpt lat="42.9122730" lon="-2.5441600">
        <ele>517.8</ele>
        <time>2020-09-13T09:16:00Z</time>
      </trkpt>
      <trkpt lat="42.9122960" lon="-2.5440950">
        <ele>518.0</ele>
        <time>2020-09-13T09:16:04Z</time>
      </trkpt>
      <trkpt lat="42.9122630" lon="-2.5441000">
        <ele>518.8</ele>
        <time>2020-09-13T09:16:08Z</time>
      </trkpt>
      <trkpt lat="42.9122210" lon="-2.5441460">
        <ele>519.0</ele>
        <time>2020-09-13T09:16:12Z</time>
      </trkpt>
      <trkpt lat="42.9122560" lon="-2.5441950">
        <ele>518.0</ele>
        <time>2020-09-13T09:16:16Z</time>
      </trkpt>
      <trkpt lat="42.9123110" lon="-2.5442430">
        <ele>517.4</ele>
        <time>2020-09-13T09:16:20Z</time>
      </trkpt>
      <trkpt lat="42.9124030" lon="-2.5443380">
        <ele>515.6</ele>
        <time>2020-09-13T09:16:24Z</time>
      </trkpt>
      <trkpt lat="42.9125080" lon="-2.5443830">
        <ele>516.2</ele>
        <time>2020-09-13T09:16:28Z</time>
      </trkpt>
      <trkpt lat="42.9125960" lon="-2.5444250">
        <ele>516.0</ele>
        <time>2020-09-13T09:16:32Z</time>
      </trkpt>
      <trkpt lat="42.9126650" lon="-2.5445030">
        <ele>515.6</ele>
        <time>2020-09-13T09:16:36Z</time>
      </trkpt>
      <trkpt lat="42.9127230" lon="-2.5445810">
        <ele>516.8</ele>
        <time>2020-09-13T09:16:40Z</time>
      </trkpt>
      <trkpt lat="42.9127350" lon="-2.5446660">
        <ele>517.6</ele>
        <time>2020-09-13T09:16:44Z</time>
      </trkpt>
      <trkpt lat="42.9127330" lon="-2.5447880">
        <ele>517.4</ele>
        <time>2020-09-13T09:16:48Z</time>
      </trkpt>
      <trkpt lat="42.9127460" lon="-2.5448780">
        <ele>516.6</ele>
        <time>2020-09-13T09:16:52Z</time>
      </trkpt>
      <trkpt lat="42.9127750" lon="-2.5449630">
        <ele>518.4</ele>
        <time>2020-09-13T09:16:56Z</time>
      </trkpt>
      <trkpt lat="42.9128250" lon="-2.5450250">
        <ele>518.4</ele>
        <time>2020-09-13T09:17:00Z</time>
      </trkpt>
      <trkpt lat="42.9128250" lon="-2.5450250">
        <ele>518.8</ele>
        <time>2020-09-13T09:17:04Z</time>
      </trkpt>
      <trkpt lat="42.9128930" lon="-2.5450730">
        <ele>518.8</ele>
        <time>2020-09-13T09:17:08Z</time>
      </trkpt>
      <trkpt lat="42.9129950" lon="-2.5451110">
        <ele>519.4</ele>
        <time>2020-09-13T09:17:12Z</time>
      </trkpt>
      <trkpt lat="42.9130730" lon="-2.5450910">
        <ele>519.2</ele>
        <time>2020-09-13T09:17:16Z</time>
      </trkpt>
      <trkpt lat="42.9131350" lon="-2.5450560">
        <ele>519.4</ele>
        <time>2020-09-13T09:17:20Z</time>
      </trkpt>
      <trkpt lat="42.9132080" lon="-2.5450450">
        <ele>519.4</ele>
        <time>2020-09-13T09:17:24Z</time>
      </trkpt>
      <trkpt lat="42.9132950" lon="-2.5450480">
        <ele>519.2</ele>
        <time>2020-09-13T09:17:28Z</time>
      </trkpt>
      <trkpt lat="42.9133400" lon="-2.5450430">
        <ele>519.0</ele>
        <time>2020-09-13T09:17:32Z</time>
      </trkpt>
      <trkpt lat="42.9133830" lon="-2.5450200">
        <ele>519.0</ele>
        <time>2020-09-13T09:17:36Z</time>
      </trkpt>
      <trkpt lat="42.9134180" lon="-2.5449830">
        <ele>518.4</ele>
        <time>2020-09-13T09:17:40Z</time>
      </trkpt>
      <trkpt lat="42.9134760" lon="-2.5449230">
        <ele>517.6</ele>
        <time>2020-09-13T09:17:44Z</time>
      </trkpt>
      <trkpt lat="42.9135130" lon="-2.5448600">
        <ele>518.2</ele>
        <time>2020-09-13T09:17:48Z</time>
      </trkpt>
      <trkpt lat="42.9135310" lon="-2.5448380">
        <ele>518.0</ele>
        <time>2020-09-13T09:17:52Z</time>
      </trkpt>
      <trkpt lat="42.9135630" lon="-2.5447880">
        <ele>518.2</ele>
        <time>2020-09-13T09:17:56Z</time>
      </trkpt>
      <trkpt lat="42.9135980" lon="-2.5447350">
        <ele>518.4</ele>
        <time>2020-09-13T09:18:00Z</time>
      </trkpt>
      <trkpt lat="42.9136350" lon="-2.5446880">
        <ele>518.4</ele>
        <time>2020-09-13T09:18:04Z</time>
      </trkpt>
      <trkpt lat="42.9136700" lon="-2.5446510">
        <ele>518.8</ele>
        <time>2020-09-13T09:18:08Z</time>
      </trkpt>
      <trkpt lat="42.9136910" lon="-2.5446100">
        <ele>518.4</ele>
        <time>2020-09-13T09:18:12Z</time>
      </trkpt>
      <trkpt lat="42.9137300" lon="-2.5445610">
        <ele>518.4</ele>
        <time>2020-09-13T09:18:16Z</time>
      </trkpt>
      <trkpt lat="42.9137630" lon="-2.5445060">
        <ele>518.4</ele>
        <time>2020-09-13T09:18:20Z</time>
      </trkpt>
      <trkpt lat="42.9138050" lon="-2.5444780">
        <ele>518.6</ele>
        <time>2020-09-13T09:18:24Z</time>
      </trkpt>
      <trkpt lat="42.9138410" lon="-2.5445110">
        <ele>518.0</ele>
        <time>2020-09-13T09:18:28Z</time>
      </trkpt>
      <trkpt lat="42.9138760" lon="-2.5445530">
        <ele>518.0</ele>
        <time>2020-09-13T09:18:32Z</time>
      </trkpt>
      <trkpt lat="42.9138760" lon="-2.5445530">
        <ele>518.0</ele>
        <time>2020-09-13T09:18:36Z</time>
      </trkpt>
      <trkpt lat="42.9138760" lon="-2.5445530">
        <ele>517.8</ele>
        <time>2020-09-13T09:18:40Z</time>
      </trkpt>
      <trkpt lat="42.9138760" lon="-2.5445530">
        <ele>518.4</ele>
        <time>2020-09-13T09:18:44Z</time>
      </trkpt>
      <trkpt lat="42.9138760" lon="-2.5445530">
        <ele>517.8</ele>
        <time>2020-09-13T09:18:48Z</time>
      </trkpt>
      <trkpt lat="42.9138760" lon="-2.5445530">
        <ele>517.8</ele>
        <time>2020-09-13T09:18:52Z</time>
      </trkpt>
      <trkpt lat="42.9138850" lon="-2.5445700">
        <ele>517.2</ele>
        <time>2020-09-13T09:18:56Z</time>
      </trkpt>
      <trkpt lat="42.9139100" lon="-2.5445930">
        <ele>517.4</ele>
        <time>2020-09-13T09:19:00Z</time>
      </trkpt>
      <trkpt lat="42.9139300" lon="-2.5446010">
        <ele>517.4</ele>
        <time>2020-09-13T09:19:04Z</time>
      </trkpt>
      <trkpt lat="42.9139530" lon="-2.5446210">
        <ele>516.8</ele>
        <time>2020-09-13T09:19:08Z</time>
      </trkpt>
      <trkpt lat="42.9139530" lon="-2.5446210">
        <ele>516.8</ele>
        <time>2020-09-13T09:19:12Z</time>
      </trkpt>
      <trkpt lat="42.9139900" lon="-2.5446500">
        <ele>516.0</ele>
        <time>2020-09-13T09:19:16Z</time>
      </trkpt>
      <trkpt lat="42.9139900" lon="-2.5446500">
        <ele>516.2</ele>
        <time>2020-09-13T09:19:20Z</time>
      </trkpt>
      <trkpt lat="42.9140250" lon="-2.5446760">
        <ele>515.2</ele>
        <time>2020-09-13T09:19:24Z</time>
      </trkpt>
      <trkpt lat="42.9140430" lon="-2.5446900">
        <ele>514.8</ele>
        <time>2020-09-13T09:19:28Z</time>
      </trkpt>
      <trkpt lat="42.9140430" lon="-2.5446900">
        <ele>514.6</ele>
        <time>2020-09-13T09:19:32Z</time>
      </trkpt>
      <trkpt lat="42.9140430" lon="-2.5446900">
        <ele>514.4</ele>
        <time>2020-09-13T09:19:36Z</time>
      </trkpt>
      <trkpt lat="42.9140430" lon="-2.5446900">
        <ele>514.0</ele>
        <time>2020-09-13T09:19:40Z</time>
      </trkpt>
      <trkpt lat="42.9140930" lon="-2.5447300">
        <ele>513.8</ele>
        <time>2020-09-13T09:19:44Z</time>
      </trkpt>
      <trkpt lat="42.9141130" lon="-2.5447460">
        <ele>512.8</ele>
        <time>2020-09-13T09:19:48Z</time>
      </trkpt>
      <trkpt lat="42.9141510" lon="-2.5447750">
        <ele>512.4</ele>
        <time>2020-09-13T09:19:52Z</time>
      </trkpt>
      <trkpt lat="42.9141810" lon="-2.5447980">
        <ele>512.2</ele>
        <time>2020-09-13T09:19:56Z</time>
      </trkpt>
      <trkpt lat="42.9142100" lon="-2.5448200">
        <ele>512.8</ele>
        <time>2020-09-13T09:20:00Z</time>
      </trkpt>
      <trkpt lat="42.9142100" lon="-2.5448200">
        <ele>512.6</ele>
        <time>2020-09-13T09:20:04Z</time>
      </trkpt>
      <trkpt lat="42.9142410" lon="-2.5448460">
        <ele>512.6</ele>
        <time>2020-09-13T09:20:08Z</time>
      </trkpt>
      <trkpt lat="42.9142610" lon="-2.5448650">
        <ele>512.4</ele>
        <time>2020-09-13T09:20:12Z</time>
      </trkpt>
      <trkpt lat="42.9142910" lon="-2.5448860">
        <ele>512.8</ele>
        <time>2020-09-13T09:20:16Z</time>
      </trkpt>
      <trkpt lat="42.9143150" lon="-2.5449060">
        <ele>512.6</ele>
        <time>2020-09-13T09:20:20Z</time>
      </trkpt>
      <trkpt lat="42.9143450" lon="-2.5449310">
        <ele>512.4</ele>
        <time>2020-09-13T09:20:24Z</time>
      </trkpt>
      <trkpt lat="42.9143700" lon="-2.5449550">
        <ele>512.6</ele>
        <time>2020-09-13T09:20:28Z</time>
      </trkpt>
      <trkpt lat="42.9143700" lon="-2.5449550">
        <ele>512.2</ele>
        <time>2020-09-13T09:20:32Z</time>
      </trkpt>
      <trkpt lat="42.9143700" lon="-2.5449550">
        <ele>512.4</ele>
        <time>2020-09-13T09:20:36Z</time>
      </trkpt>
      <trkpt lat="42.9144100" lon="-2.5449880">
        <ele>512.2</ele>
        <time>2020-09-13T09:20:40Z</time>
      </trkpt>
      <trkpt lat="42.9144150" lon="-2.5449950">
        <ele>512.2</ele>
        <time>2020-09-13T09:20:44Z</time>
      </trkpt>
      <trkpt lat="42.9144460" lon="-2.5450230">
        <ele>512.0</ele>
        <time>2020-09-13T09:20:48Z</time>
      </trkpt>
      <trkpt lat="42.9144800" lon="-2.5450510">
        <ele>513.0</ele>
        <time>2020-09-13T09:20:52Z</time>
      </trkpt>
      <trkpt lat="42.9145130" lon="-2.5450780">
        <ele>512.8</ele>
        <time>2020-09-13T09:20:56Z</time>
      </trkpt>
      <trkpt lat="42.9145480" lon="-2.5451030">
        <ele>512.6</ele>
        <time>2020-09-13T09:21:00Z</time>
      </trkpt>
      <trkpt lat="42.9145730" lon="-2.5451250">
        <ele>512.4</ele>
        <time>2020-09-13T09:21:04Z</time>
      </trkpt>
      <trkpt lat="42.9146000" lon="-2.5451500">
        <ele>512.4</ele>
        <time>2020-09-13T09:21:08Z</time>
      </trkpt>
      <trkpt lat="42.9146280" lon="-2.5451730">
        <ele>512.2</ele>
        <time>2020-09-13T09:21:12Z</time>
      </trkpt>
      <trkpt lat="42.9146580" lon="-2.5452010">
        <ele>512.8</ele>
        <time>2020-09-13T09:21:16Z</time>
      </trkpt>
      <trkpt lat="42.9146900" lon="-2.5452260">
        <ele>511.8</ele>
        <time>2020-09-13T09:21:20Z</time>
      </trkpt>
      <trkpt lat="42.9147200" lon="-2.5452550">
        <ele>512.4</ele>
        <time>2020-09-13T09:21:24Z</time>
      </trkpt>
      <trkpt lat="42.9147510" lon="-2.5452830">
        <ele>512.6</ele>
        <time>2020-09-13T09:21:28Z</time>
      </trkpt>
      <trkpt lat="42.9147850" lon="-2.5453130">
        <ele>512.6</ele>
        <time>2020-09-13T09:21:32Z</time>
      </trkpt>
      <trkpt lat="42.9148160" lon="-2.5453430">
        <ele>512.8</ele>
        <time>2020-09-13T09:21:36Z</time>
      </trkpt>
      <trkpt lat="42.9148500" lon="-2.5453710">
        <ele>512.4</ele>
        <time>2020-09-13T09:21:40Z</time>
      </trkpt>
      <trkpt lat="42.9148700" lon="-2.5453900">
        <ele>512.6</ele>
        <time>2020-09-13T09:21:44Z</time>
      </trkpt>
      <trkpt lat="42.9148950" lon="-2.5454110">
        <ele>512.2</ele>
        <time>2020-09-13T09:21:48Z</time>
      </trkpt>
      <trkpt lat="42.9149250" lon="-2.5454410">
        <ele>512.4</ele>
        <time>2020-09-13T09:21:52Z</time>
      </trkpt>
      <trkpt lat="42.9149550" lon="-2.5454710">
        <ele>512.8</ele>
        <time>2020-09-13T09:21:56Z</time>
      </trkpt>
      <trkpt lat="42.9149880" lon="-2.5454960">
        <ele>512.4</ele>
        <time>2020-09-13T09:22:00Z</time>
      </trkpt>
      <trkpt lat="42.9150200" lon="-2.5455280">
        <ele>512.4</ele>
        <time>2020-09-13T09:22:04Z</time>
      </trkpt>
      <trkpt lat="42.9150500" lon="-2.5455560">
        <ele>512.4</ele>
        <time>2020-09-13T09:22:08Z</time>
      </trkpt>
      <trkpt lat="42.9150830" lon="-2.5455830">
        <ele>512.6</ele>
        <time>2020-09-13T09:22:12Z</time>
      </trkpt>
      <trkpt lat="42.9151130" lon="-2.5456130">
        <ele>512.4</ele>
        <time>2020-09-13T09:22:16Z</time>
      </trkpt>
      <trkpt lat="42.9151430" lon="-2.5456400">
        <ele>512.8</ele>
        <time>2020-09-13T09:22:20Z</time>
      </trkpt>
      <trkpt lat="42.9151760" lon="-2.5456660">
        <ele>512.6</ele>
        <time>2020-09-13T09:22:24Z</time>
      </trkpt>
      <trkpt lat="42.9152080" lon="-2.5456980">
        <ele>512.6</ele>
        <time>2020-09-13T09:22:28Z</time>
      </trkpt>
      <trkpt lat="42.9152400" lon="-2.5457230">
        <ele>512.6</ele>
        <time>2020-09-13T09:22:32Z</time>
      </trkpt>
      <trkpt lat="42.9152760" lon="-2.5457530">
        <ele>512.8</ele>
        <time>2020-09-13T09:22:36Z</time>
      </trkpt>
      <trkpt lat="42.9153080" lon="-2.5457810">
        <ele>512.6</ele>
        <time>2020-09-13T09:22:40Z</time>
      </trkpt>
      <trkpt lat="42.9153330" lon="-2.5458050">
        <ele>512.8</ele>
        <time>2020-09-13T09:22:44Z</time>
      </trkpt>
      <trkpt lat="42.9153650" lon="-2.5458280">
        <ele>514.2</ele>
        <time>2020-09-13T09:22:48Z</time>
      </trkpt>
      <trkpt lat="42.9153900" lon="-2.5458500">
        <ele>514.4</ele>
        <time>2020-09-13T09:22:52Z</time>
      </trkpt>
      <trkpt lat="42.9154180" lon="-2.5458760">
        <ele>514.6</ele>
        <time>2020-09-13T09:22:56Z</time>
      </trkpt>
      <trkpt lat="42.9154450" lon="-2.5458950">
        <ele>515.2</ele>
        <time>2020-09-13T09:23:00Z</time>
      </trkpt>
      <trkpt lat="42.9154450" lon="-2.5458950">
        <ele>515.6</ele>
        <time>2020-09-13T09:23:04Z</time>
      </trkpt>
      <trkpt lat="42.9154680" lon="-2.5459180">
        <ele>516.2</ele>
        <time>2020-09-13T09:23:08Z</time>
      </trkpt>
      <trkpt lat="42.9154800" lon="-2.5459450">
        <ele>515.6</ele>
        <time>2020-09-13T09:23:12Z</time>
      </trkpt>
      <trkpt lat="42.9154560" lon="-2.5459680">
        <ele>515.8</ele>
        <time>2020-09-13T09:23:16Z</time>
      </trkpt>
      <trkpt lat="42.9154350" lon="-2.5459980">
        <ele>515.6</ele>
        <time>2020-09-13T09:23:20Z</time>
      </trkpt>
      <trkpt lat="42.9154100" lon="-2.5460610">
        <ele>515.8</ele>
        <time>2020-09-13T09:23:24Z</time>
      </trkpt>
      <trkpt lat="42.9153630" lon="-2.5461700">
        <ele>515.8</ele>
        <time>2020-09-13T09:23:28Z</time>
      </trkpt>
      <trkpt lat="42.9153380" lon="-2.5462960">
        <ele>516.4</ele>
        <time>2020-09-13T09:23:32Z</time>
      </trkpt>
      <trkpt lat="42.9153130" lon="-2.5464400">
        <ele>515.8</ele>
        <time>2020-09-13T09:23:36Z</time>
      </trkpt>
      <trkpt lat="42.9152910" lon="-2.5465930">
        <ele>515.8</ele>
        <time>2020-09-13T09:23:40Z</time>
      </trkpt>
      <trkpt lat="42.9152560" lon="-2.5467680">
        <ele>515.6</ele>
        <time>2020-09-13T09:23:44Z</time>
      </trkpt>
      <trkpt lat="42.9152030" lon="-2.5469110">
        <ele>515.4</ele>
        <time>2020-09-13T09:23:48Z</time>
      </trkpt>
      <trkpt lat="42.9151530" lon="-2.5470150">
        <ele>515.8</ele>
        <time>2020-09-13T09:23:52Z</time>
      </trkpt>
      <trkpt lat="42.9151000" lon="-2.5470910">
        <ele>515.4</ele>
        <time>2020-09-13T09:23:56Z</time>
      </trkpt>
      <trkpt lat="42.9150380" lon="-2.5471700">
        <ele>515.2</ele>
        <time>2020-09-13T09:24:00Z</time>
      </trkpt>
      <trkpt lat="42.9149780" lon="-2.5472800">
        <ele>515.2</ele>
        <time>2020-09-13T09:24:04Z</time>
      </trkpt>
      <trkpt lat="42.9149510" lon="-2.5474110">
        <ele>515.2</ele>
        <time>2020-09-13T09:24:08Z</time>
      </trkpt>
      <trkpt lat="42.9149150" lon="-2.5475480">
        <ele>515.2</ele>
        <time>2020-09-13T09:24:12Z</time>
      </trkpt>
      <trkpt lat="42.9148860" lon="-2.5476850">
        <ele>515.6</ele>
        <time>2020-09-13T09:24:16Z</time>
      </trkpt>
      <trkpt lat="42.9148750" lon="-2.5478080">
        <ele>515.6</ele>
        <time>2020-09-13T09:24:20Z</time>
      </trkpt>
      <trkpt lat="42.9148700" lon="-2.5479260">
        <ele>517.0</ele>
        <time>2020-09-13T09:24:24Z</time>
      </trkpt>
      <trkpt lat="42.9148650" lon="-2.5480560">
        <ele>515.8</ele>
        <time>2020-09-13T09:24:28Z</time>
      </trkpt>
      <trkpt lat="42.9148550" lon="-2.5482050">
        <ele>516.2</ele>
        <time>2020-09-13T09:24:32Z</time>
      </trkpt>
      <trkpt lat="42.9148200" lon="-2.5483850">
        <ele>515.6</ele>
        <time>2020-09-13T09:24:36Z</time>
      </trkpt>
      <trkpt lat="42.9147580" lon="-2.5485900">
        <ele>515.4</ele>
        <time>2020-09-13T09:24:40Z</time>
      </trkpt>
      <trkpt lat="42.9146800" lon="-2.5487400">
        <ele>515.0</ele>
        <time>2020-09-13T09:24:44Z</time>
      </trkpt>
      <trkpt lat="42.9145880" lon="-2.5488150">
        <ele>515.0</ele>
        <time>2020-09-13T09:24:48Z</time>
      </trkpt>
      <trkpt lat="42.9144960" lon="-2.5488360">
        <ele>515.6</ele>
        <time>2020-09-13T09:24:52Z</time>
      </trkpt>
      <trkpt lat="42.9144080" lon="-2.5487600">
        <ele>515.6</ele>
        <time>2020-09-13T09:24:56Z</time>
      </trkpt>
      <trkpt lat="42.9143600" lon="-2.5486300">
        <ele>515.2</ele>
        <time>2020-09-13T09:25:00Z</time>
      </trkpt>
      <trkpt lat="42.9143130" lon="-2.5484960">
        <ele>515.4</ele>
        <time>2020-09-13T09:25:04Z</time>
      </trkpt>
      <trkpt lat="42.9142730" lon="-2.5483510">
        <ele>515.8</ele>
        <time>2020-09-13T09:25:08Z</time>
      </trkpt>
      <trkpt lat="42.9142500" lon="-2.5482180">
        <ele>515.8</ele>
        <time>2020-09-13T09:25:12Z</time>
      </trkpt>
      <trkpt lat="42.9142230" lon="-2.5481030">
        <ele>515.8</ele>
        <time>2020-09-13T09:25:16Z</time>
      </trkpt>
      <trkpt lat="42.9141760" lon="-2.5480080">
        <ele>515.4</ele>
        <time>2020-09-13T09:25:20Z</time>
      </trkpt>
      <trkpt lat="42.9141060" lon="-2.5479530">
        <ele>516.0</ele>
        <time>2020-09-13T09:25:24Z</time>
      </trkpt>
      <trkpt lat="42.9140200" lon="-2.5479660">
        <ele>515.4</ele>
        <time>2020-09-13T09:25:28Z</time>
      </trkpt>
      <trkpt lat="42.9139530" lon="-2.5480250">
        <ele>515.4</ele>
        <time>2020-09-13T09:25:32Z</time>
      </trkpt>
      <trkpt lat="42.9138930" lon="-2.5481000">
        <ele>515.6</ele>
        <time>2020-09-13T09:25:36Z</time>
      </trkpt>
      <trkpt lat="42.9138050" lon="-2.5481760">
        <ele>515.4</ele>
        <time>2020-09-13T09:25:40Z</time>
      </trkpt>
      <trkpt lat="42.9136750" lon="-2.5482100">
        <ele>515.4</ele>
        <time>2020-09-13T09:25:44Z</time>
      </trkpt>
      <trkpt lat="42.9135450" lon="-2.5482330">
        <ele>515.8</ele>
        <time>2020-09-13T09:25:48Z</time>
      </trkpt>
      <trkpt lat="42.9134260" lon="-2.5482560">
        <ele>515.8</ele>
        <time>2020-09-13T09:25:52Z</time>
      </trkpt>
      <trkpt lat="42.9133080" lon="-2.5483010">
        <ele>515.8</ele>
        <time>2020-09-13T09:25:56Z</time>
      </trkpt>
      <trkpt lat="42.9131780" lon="-2.5483200">
        <ele>516.0</ele>
        <time>2020-09-13T09:26:00Z</time>
      </trkpt>
      <trkpt lat="42.9130560" lon="-2.5483130">
        <ele>515.8</ele>
        <time>2020-09-13T09:26:04Z</time>
      </trkpt>
      <trkpt lat="42.9129660" lon="-2.5482310">
        <ele>515.8</ele>
        <time>2020-09-13T09:26:08Z</time>
      </trkpt>
      <trkpt lat="42.9128560" lon="-2.5481600">
        <ele>515.8</ele>
        <time>2020-09-13T09:26:12Z</time>
      </trkpt>
      <trkpt lat="42.9127550" lon="-2.5481860">
        <ele>515.6</ele>
        <time>2020-09-13T09:26:16Z</time>
      </trkpt>
      <trkpt lat="42.9126560" lon="-2.5482460">
        <ele>515.4</ele>
        <time>2020-09-13T09:26:20Z</time>
      </trkpt>
      <trkpt lat="42.9125580" lon="-2.5483310">
        <ele>515.0</ele>
        <time>2020-09-13T09:26:24Z</time>
      </trkpt>
      <trkpt lat="42.9124930" lon="-2.5484380">
        <ele>515.2</ele>
        <time>2020-09-13T09:26:28Z</time>
      </trkpt>
      <trkpt lat="42.9124630" lon="-2.5485700">
        <ele>514.4</ele>
        <time>2020-09-13T09:26:32Z</time>
      </trkpt>
      <trkpt lat="42.9124510" lon="-2.5487110">
        <ele>515.8</ele>
        <time>2020-09-13T09:26:36Z</time>
      </trkpt>
      <trkpt lat="42.9124330" lon="-2.5488430">
        <ele>515.4</ele>
        <time>2020-09-13T09:26:40Z</time>
      </trkpt>
      <trkpt lat="42.9124080" lon="-2.5489750">
        <ele>515.2</ele>
        <time>2020-09-13T09:26:44Z</time>
      </trkpt>
      <trkpt lat="42.9123360" lon="-2.5491010">
        <ele>516.0</ele>
        <time>2020-09-13T09:26:48Z</time>
      </trkpt>
      <trkpt lat="42.9122250" lon="-2.5491460">
        <ele>516.4</ele>
        <time>2020-09-13T09:26:52Z</time>
      </trkpt>
      <trkpt lat="42.9121110" lon="-2.5491260">
        <ele>516.2</ele>
        <time>2020-09-13T09:26:56Z</time>
      </trkpt>
      <trkpt lat="42.9119880" lon="-2.5490950">
        <ele>517.0</ele>
        <time>2020-09-13T09:27:00Z</time>
      </trkpt>
      <trkpt lat="42.9118700" lon="-2.5490780">
        <ele>516.2</ele>
        <time>2020-09-13T09:27:04Z</time>
      </trkpt>
      <trkpt lat="42.9117810" lon="-2.5490800">
        <ele>517.0</ele>
        <time>2020-09-13T09:27:08Z</time>
      </trkpt>
      <trkpt lat="42.9116930" lon="-2.5491160">
        <ele>517.4</ele>
        <time>2020-09-13T09:27:12Z</time>
      </trkpt>
      <trkpt lat="42.9115710" lon="-2.5491700">
        <ele>516.8</ele>
        <time>2020-09-13T09:27:16Z</time>
      </trkpt>
      <trkpt lat="42.9114280" lon="-2.5491500">
        <ele>517.0</ele>
        <time>2020-09-13T09:27:20Z</time>
      </trkpt>
      <trkpt lat="42.9112900" lon="-2.5490610">
        <ele>515.6</ele>
        <time>2020-09-13T09:27:24Z</time>
      </trkpt>
      <trkpt lat="42.9111510" lon="-2.5490100">
        <ele>515.8</ele>
        <time>2020-09-13T09:27:28Z</time>
      </trkpt>
      <trkpt lat="42.9110100" lon="-2.5490030">
        <ele>515.6</ele>
        <time>2020-09-13T09:27:32Z</time>
      </trkpt>
      <trkpt lat="42.9108780" lon="-2.5490380">
        <ele>516.0</ele>
        <time>2020-09-13T09:27:36Z</time>
      </trkpt>
      <trkpt lat="42.9107550" lon="-2.5491150">
        <ele>515.8</ele>
        <time>2020-09-13T09:27:40Z</time>
      </trkpt>
      <trkpt lat="42.9106580" lon="-2.5492010">
        <ele>516.4</ele>
        <time>2020-09-13T09:27:44Z</time>
      </trkpt>
      <trkpt lat="42.9105600" lon="-2.5492980">
        <ele>515.8</ele>
        <time>2020-09-13T09:27:48Z</time>
      </trkpt>
      <trkpt lat="42.9104760" lon="-2.5493850">
        <ele>514.6</ele>
        <time>2020-09-13T09:27:52Z</time>
      </trkpt>
      <trkpt lat="42.9103950" lon="-2.5494710">
        <ele>515.4</ele>
        <time>2020-09-13T09:27:56Z</time>
      </trkpt>
      <trkpt lat="42.9103110" lon="-2.5495510">
        <ele>516.2</ele>
        <time>2020-09-13T09:28:00Z</time>
      </trkpt>
      <trkpt lat="42.9102230" lon="-2.5496430">
        <ele>516.0</ele>
        <time>2020-09-13T09:28:04Z</time>
      </trkpt>
      <trkpt lat="42.9101360" lon="-2.5497410">
        <ele>516.0</ele>
        <time>2020-09-13T09:28:08Z</time>
      </trkpt>
      <trkpt lat="42.9100650" lon="-2.5498610">
        <ele>515.8</ele>
        <time>2020-09-13T09:28:12Z</time>
      </trkpt>
      <trkpt lat="42.9099730" lon="-2.5499810">
        <ele>515.8</ele>
        <time>2020-09-13T09:28:16Z</time>
      </trkpt>
      <trkpt lat="42.9098800" lon="-2.5501150">
        <ele>516.6</ele>
        <time>2020-09-13T09:28:20Z</time>
      </trkpt>
      <trkpt lat="42.9097950" lon="-2.5502400">
        <ele>516.0</ele>
        <time>2020-09-13T09:28:24Z</time>
      </trkpt>
      <trkpt lat="42.9097230" lon="-2.5503530">
        <ele>515.8</ele>
        <time>2020-09-13T09:28:28Z</time>
      </trkpt>
      <trkpt lat="42.9096610" lon="-2.5504910">
        <ele>515.6</ele>
        <time>2020-09-13T09:28:32Z</time>
      </trkpt>
      <trkpt lat="42.9096030" lon="-2.5506280">
        <ele>515.8</ele>
        <time>2020-09-13T09:28:36Z</time>
      </trkpt>
      <trkpt lat="42.9095750" lon="-2.5507850">
        <ele>516.2</ele>
        <time>2020-09-13T09:28:40Z</time>
      </trkpt>
      <trkpt lat="42.9095800" lon="-2.5509830">
        <ele>515.8</ele>
        <time>2020-09-13T09:28:44Z</time>
      </trkpt>
      <trkpt lat="42.9095780" lon="-2.5511460">
        <ele>515.8</ele>
        <time>2020-09-13T09:28:48Z</time>
      </trkpt>
      <trkpt lat="42.9095660" lon="-2.5512730">
        <ele>516.6</ele>
        <time>2020-09-13T09:28:52Z</time>
      </trkpt>
      <trkpt lat="42.9095360" lon="-2.5513950">
        <ele>516.4</ele>
        <time>2020-09-13T09:28:56Z</time>
      </trkpt>
      <trkpt lat="42.9095100" lon="-2.5514760">
        <ele>516.4</ele>
        <time>2020-09-13T09:29:00Z</time>
      </trkpt>
      <trkpt lat="42.9094860" lon="-2.5515880">
        <ele>516.6</ele>
        <time>2020-09-13T09:29:04Z</time>
      </trkpt>
      <trkpt lat="42.9094750" lon="-2.5517260">
        <ele>516.6</ele>
        <time>2020-09-13T09:29:08Z</time>
      </trkpt>
      <trkpt lat="42.9094700" lon="-2.5518830">
        <ele>516.2</ele>
        <time>2020-09-13T09:29:12Z</time>
      </trkpt>
      <trkpt lat="42.9094850" lon="-2.5520210">
        <ele>516.2</ele>
        <time>2020-09-13T09:29:16Z</time>
      </trkpt>
      <trkpt lat="42.9095250" lon="-2.5521310">
        <ele>516.4</ele>
        <time>2020-09-13T09:29:20Z</time>
      </trkpt>
      <trkpt lat="42.9095960" lon="-2.5521450">
        <ele>517.6</ele>
        <time>2020-09-13T09:29:24Z</time>
      </trkpt>
      <trkpt lat="42.9096600" lon="-2.5521060">
        <ele>519.0</ele>
        <time>2020-09-13T09:29:28Z</time>
      </trkpt>
      <trkpt lat="42.9097110" lon="-2.5521050">
        <ele>518.0</ele>
        <time>2020-09-13T09:29:32Z</time>
      </trkpt>
      <trkpt lat="42.9097110" lon="-2.5521050">
        <ele>518.4</ele>
        <time>2020-09-13T09:29:36Z</time>
      </trkpt>
      <trkpt lat="42.9097110" lon="-2.5521050">
        <ele>518.4</ele>
        <time>2020-09-13T09:29:40Z</time>
      </trkpt>
      <trkpt lat="42.9097110" lon="-2.5521050">
        <ele>518.6</ele>
        <time>2020-09-13T09:29:44Z</time>
      </trkpt>
      <trkpt lat="42.9097110" lon="-2.5521050">
        <ele>518.8</ele>
        <time>2020-09-13T09:29:48Z</time>
      </trkpt>
      <trkpt lat="42.9097380" lon="-2.5521050">
        <ele>518.4</ele>
        <time>2020-09-13T09:29:52Z</time>
      </trkpt>
      <trkpt lat="42.9097900" lon="-2.5521250">
        <ele>518.4</ele>
        <time>2020-09-13T09:29:56Z</time>
      </trkpt>
      <trkpt lat="42.9098610" lon="-2.5521910">
        <ele>519.4</ele>
        <time>2020-09-13T09:30:00Z</time>
      </trkpt>
      <trkpt lat="42.9099110" lon="-2.5523160">
        <ele>519.2</ele>
        <time>2020-09-13T09:30:04Z</time>
      </trkpt>
      <trkpt lat="42.9098830" lon="-2.5524560">
        <ele>519.0</ele>
        <time>2020-09-13T09:30:08Z</time>
      </trkpt>
      <trkpt lat="42.9098160" lon="-2.5525750">
        <ele>519.0</ele>
        <time>2020-09-13T09:30:12Z</time>
      </trkpt>
      <trkpt lat="42.9097650" lon="-2.5527010">
        <ele>517.8</ele>
        <time>2020-09-13T09:30:16Z</time>
      </trkpt>
      <trkpt lat="42.9097860" lon="-2.5528350">
        <ele>517.2</ele>
        <time>2020-09-13T09:30:20Z</time>
      </trkpt>
      <trkpt lat="42.9098510" lon="-2.5529050">
        <ele>516.4</ele>
        <time>2020-09-13T09:30:24Z</time>
      </trkpt>
      <trkpt lat="42.9099330" lon="-2.5529250">
        <ele>516.4</ele>
        <time>2020-09-13T09:30:28Z</time>
      </trkpt>
      <trkpt lat="42.9099980" lon="-2.5529480">
        <ele>516.0</ele>
        <time>2020-09-13T09:30:32Z</time>
      </trkpt>
      <trkpt lat="42.9099980" lon="-2.5529480">
        <ele>516.0</ele>
        <time>2020-09-13T09:30:36Z</time>
      </trkpt>
      <trkpt lat="42.9099980" lon="-2.5529480">
        <ele>516.0</ele>
        <time>2020-09-13T09:30:40Z</time>
      </trkpt>
      <trkpt lat="42.9099980" lon="-2.5529480">
        <ele>516.2</ele>
        <time>2020-09-13T09:30:44Z</time>
      </trkpt>
      <trkpt lat="42.9099980" lon="-2.5529480">
        <ele>516.2</ele>
        <time>2020-09-13T09:30:48Z</time>
      </trkpt>
      <trkpt lat="42.9099980" lon="-2.5529480">
        <ele>516.0</ele>
        <time>2020-09-13T09:30:52Z</time>
      </trkpt>
      <trkpt lat="42.9099980" lon="-2.5529480">
        <ele>515.8</ele>
        <time>2020-09-13T09:30:56Z</time>
      </trkpt>
      <trkpt lat="42.9099980" lon="-2.5529480">
        <ele>516.0</ele>
        <time>2020-09-13T09:31:00Z</time>
      </trkpt>
      <trkpt lat="42.9099980" lon="-2.5529480">
        <ele>516.0</ele>
        <time>2020-09-13T09:31:04Z</time>
      </trkpt>
      <trkpt lat="42.9099980" lon="-2.5529480">
        <ele>516.0</ele>
        <time>2020-09-13T09:31:08Z</time>
      </trkpt>
      <trkpt lat="42.9099980" lon="-2.5529480">
        <ele>516.2</ele>
        <time>2020-09-13T09:31:12Z</time>
      </trkpt>
      <trkpt lat="42.9099980" lon="-2.5529480">
        <ele>516.2</ele>
        <time>2020-09-13T09:31:16Z</time>
      </trkpt>
      <trkpt lat="42.9099980" lon="-2.5529480">
        <ele>516.2</ele>
        <time>2020-09-13T09:31:20Z</time>
      </trkpt>
      <trkpt lat="42.9099980" lon="-2.5529480">
        <ele>516.2</ele>
        <time>2020-09-13T09:31:24Z</time>
      </trkpt>
      <trkpt lat="42.9099980" lon="-2.5529480">
        <ele>515.8</ele>
        <time>2020-09-13T09:31:28Z</time>
      </trkpt>
      <trkpt lat="42.9099980" lon="-2.5529480">
        <ele>515.8</ele>
        <time>2020-09-13T09:31:32Z</time>
      </trkpt>
      <trkpt lat="42.9099980" lon="-2.5529480">
        <ele>516.0</ele>
        <time>2020-09-13T09:31:36Z</time>
      </trkpt>
      <trkpt lat="42.9099980" lon="-2.5529480">
        <ele>515.8</ele>
        <time>2020-09-13T09:31:40Z</time>
      </trkpt>
      <trkpt lat="42.9099980" lon="-2.5529480">
        <ele>516.0</ele>
        <time>2020-09-13T09:31:44Z</time>
      </trkpt>
      <trkpt lat="42.9099980" lon="-2.5529480">
        <ele>516.2</ele>
        <time>2020-09-13T09:31:48Z</time>
      </trkpt>
      <trkpt lat="42.9099980" lon="-2.5529480">
        <ele>516.4</ele>
        <time>2020-09-13T09:31:52Z</time>
      </trkpt>
      <trkpt lat="42.9099980" lon="-2.5529480">
        <ele>516.4</ele>
        <time>2020-09-13T09:31:56Z</time>
      </trkpt>
      <trkpt lat="42.9099980" lon="-2.5529480">
        <ele>516.4</ele>
        <time>2020-09-13T09:32:00Z</time>
      </trkpt>
      <trkpt lat="42.9100400" lon="-2.5529780">
        <ele>516.2</ele>
        <time>2020-09-13T09:32:04Z</time>
      </trkpt>
      <trkpt lat="42.9100800" lon="-2.5530030">
        <ele>516.2</ele>
        <time>2020-09-13T09:32:08Z</time>
      </trkpt>
      <trkpt lat="42.9100950" lon="-2.5530110">
        <ele>516.0</ele>
        <time>2020-09-13T09:32:12Z</time>
      </trkpt>
      <trkpt lat="42.9100950" lon="-2.5530110">
        <ele>516.2</ele>
        <time>2020-09-13T09:32:16Z</time>
      </trkpt>
      <trkpt lat="42.9100950" lon="-2.5530110">
        <ele>516.2</ele>
        <time>2020-09-13T09:32:20Z</time>
      </trkpt>
      <trkpt lat="42.9100950" lon="-2.5530110">
        <ele>516.4</ele>
        <time>2020-09-13T09:32:24Z</time>
      </trkpt>
      <trkpt lat="42.9100950" lon="-2.5530110">
        <ele>516.4</ele>
        <time>2020-09-13T09:32:28Z</time>
      </trkpt>
      <trkpt lat="42.9100950" lon="-2.5530110">
        <ele>516.4</ele>
        <time>2020-09-13T09:32:32Z</time>
      </trkpt>
      <trkpt lat="42.9100950" lon="-2.5530110">
        <ele>516.4</ele>
        <time>2020-09-13T09:32:36Z</time>
      </trkpt>
      <trkpt lat="42.9100950" lon="-2.5530110">
        <ele>516.2</ele>
        <time>2020-09-13T09:32:40Z</time>
      </trkpt>
      <trkpt lat="42.9100950" lon="-2.5530110">
        <ele>516.2</ele>
        <time>2020-09-13T09:32:44Z</time>
      </trkpt>
      <trkpt lat="42.9100950" lon="-2.5530110">
        <ele>516.2</ele>
        <time>2020-09-13T09:32:48Z</time>
      </trkpt>
      <trkpt lat="42.9100950" lon="-2.5530110">
        <ele>516.2</ele>
        <time>2020-09-13T09:32:52Z</time>
      </trkpt>
      <trkpt lat="42.9101030" lon="-2.5530130">
        <ele>516.2</ele>
        <time>2020-09-13T09:32:56Z</time>
      </trkpt>
      <trkpt lat="42.9101030" lon="-2.5530130">
        <ele>516.4</ele>
        <time>2020-09-13T09:33:00Z</time>
      </trkpt>
      <trkpt lat="42.9101030" lon="-2.5530130">
        <ele>516.0</ele>
        <time>2020-09-13T09:33:04Z</time>
      </trkpt>
      <trkpt lat="42.9101080" lon="-2.5530360">
        <ele>515.8</ele>
        <time>2020-09-13T09:33:08Z</time>
      </trkpt>
      <trkpt lat="42.9101360" lon="-2.5531080">
        <ele>516.4</ele>
        <time>2020-09-13T09:33:12Z</time>
      </trkpt>
      <trkpt lat="42.9101700" lon="-2.5532100">
        <ele>516.4</ele>
        <time>2020-09-13T09:33:16Z</time>
      </trkpt>
      <trkpt lat="42.9102000" lon="-2.5533060">
        <ele>515.8</ele>
        <time>2020-09-13T09:33:20Z</time>
      </trkpt>
      <trkpt lat="42.9102330" lon="-2.5534050">
        <ele>516.2</ele>
        <time>2020-09-13T09:33:24Z</time>
      </trkpt>
      <trkpt lat="42.9102660" lon="-2.5535180">
        <ele>515.8</ele>
        <time>2020-09-13T09:33:28Z</time>
      </trkpt>
      <trkpt lat="42.9103160" lon="-2.5536210">
        <ele>516.2</ele>
        <time>2020-09-13T09:33:32Z</time>
      </trkpt>
      <trkpt lat="42.9103760" lon="-2.5537060">
        <ele>516.4</ele>
        <time>2020-09-13T09:33:36Z</time>
      </trkpt>
      <trkpt lat="42.9104310" lon="-2.5537510">
        <ele>516.2</ele>
        <time>2020-09-13T09:33:40Z</time>
      </trkpt>
      <trkpt lat="42.9104730" lon="-2.5537660">
        <ele>516.2</ele>
        <time>2020-09-13T09:33:44Z</time>
      </trkpt>
      <trkpt lat="42.9104960" lon="-2.5537530">
        <ele>516.2</ele>
        <time>2020-09-13T09:33:48Z</time>
      </trkpt>
      <trkpt lat="42.9105230" lon="-2.5537150">
        <ele>516.4</ele>
        <time>2020-09-13T09:33:52Z</time>
      </trkpt>
      <trkpt lat="42.9105600" lon="-2.5536530">
        <ele>516.4</ele>
        <time>2020-09-13T09:33:56Z</time>
      </trkpt>
      <trkpt lat="42.9105830" lon="-2.5535750">
        <ele>516.2</ele>
        <time>2020-09-13T09:34:00Z</time>
      </trkpt>
      <trkpt lat="42.9106060" lon="-2.5534910">
        <ele>515.8</ele>
        <time>2020-09-13T09:34:04Z</time>
      </trkpt>
      <trkpt lat="42.9106500" lon="-2.5533880">
        <ele>516.2</ele>
        <time>2020-09-13T09:34:08Z</time>
      </trkpt>
      <trkpt lat="42.9107400" lon="-2.5532800">
        <ele>516.0</ele>
        <time>2020-09-13T09:34:12Z</time>
      </trkpt>
      <trkpt lat="42.9108310" lon="-2.5531830">
        <ele>516.4</ele>
        <time>2020-09-13T09:34:16Z</time>
      </trkpt>
      <trkpt lat="42.9109530" lon="-2.5531950">
        <ele>515.8</ele>
        <time>2020-09-13T09:34:20Z</time>
      </trkpt>
      <trkpt lat="42.9110800" lon="-2.5532550">
        <ele>515.8</ele>
        <time>2020-09-13T09:34:24Z</time>
      </trkpt>
      <trkpt lat="42.9111860" lon="-2.5533310">
        <ele>516.2</ele>
        <time>2020-09-13T09:34:28Z</time>
      </trkpt>
      <trkpt lat="42.9112550" lon="-2.5534000">
        <ele>516.4</ele>
        <time>2020-09-13T09:34:32Z</time>
      </trkpt>
      <trkpt lat="42.9113460" lon="-2.5534910">
        <ele>515.8</ele>
        <time>2020-09-13T09:34:36Z</time>
      </trkpt>
      <trkpt lat="42.9114550" lon="-2.5535710">
        <ele>516.0</ele>
        <time>2020-09-13T09:34:40Z</time>
      </trkpt>
      <trkpt lat="42.9115480" lon="-2.5536660">
        <ele>516.6</ele>
        <time>2020-09-13T09:34:44Z</time>
      </trkpt>
      <trkpt lat="42.9115730" lon="-2.5538160">
        <ele>516.4</ele>
        <time>2020-09-13T09:34:48Z</time>
      </trkpt>
      <trkpt lat="42.9116030" lon="-2.5539830">
        <ele>516.4</ele>
        <time>2020-09-13T09:34:52Z</time>
      </trkpt>
      <trkpt lat="42.9116630" lon="-2.5541110">
        <ele>516.6</ele>
        <time>2020-09-13T09:34:56Z</time>
      </trkpt>
      <trkpt lat="42.9117310" lon="-2.5542550">
        <ele>516.6</ele>
        <time>2020-09-13T09:35:00Z</time>
      </trkpt>
      <trkpt lat="42.9118350" lon="-2.5543650">
        <ele>516.4</ele>
        <time>2020-09-13T09:35:04Z</time>
      </trkpt>
      <trkpt lat="42.9119600" lon="-2.5544180">
        <ele>516.2</ele>
        <time>2020-09-13T09:35:08Z</time>
      </trkpt>
      <trkpt lat="42.9120930" lon="-2.5544710">
        <ele>516.4</ele>
        <time>2020-09-13T09:35:12Z</time>
      </trkpt>
      <trkpt lat="42.9122250" lon="-2.5545280">
        <ele>517.0</ele>
        <time>2020-09-13T09:35:16Z</time>
      </trkpt>
      <trkpt lat="42.9123580" lon="-2.5545880">
        <ele>516.8</ele>
        <time>2020-09-13T09:35:20Z</time>
      </trkpt>
      <trkpt lat="42.9124980" lon="-2.5546450">
        <ele>517.4</ele>
        <time>2020-09-13T09:35:24Z</time>
      </trkpt>
      <trkpt lat="42.9126430" lon="-2.5547000">
        <ele>516.4</ele>
        <time>2020-09-13T09:35:28Z</time>
      </trkpt>
      <trkpt lat="42.9127850" lon="-2.5547500">
        <ele>516.2</ele>
        <time>2020-09-13T09:35:32Z</time>
      </trkpt>
      <trkpt lat="42.9128680" lon="-2.5546580">
        <ele>516.2</ele>
        <time>2020-09-13T09:35:36Z</time>
      </trkpt>
    </trkseg>
  </trk>
</gpx>
